<?xml version="1.0" encoding="UTF-8" standalone="no" ?>
<gpx xmlns="http://www.topografix.com/GPX/1/1" xmlns:xsi="http://www.w3.org/2001/XMLSchema-instance" xsi:schemaLocation="http://www.topografix.com/GPX/1/1 http://www.topografix.com/GPX/1/1/gpx.xsd" version="1.1" creator="VisuGPX - https://www.visugpx.com">
  <metadata>
    <name>Sortie Kersaint-Plabennec 26/02/2011</name>
    <desc><![CDATA[Sortie depuis Kersaint-Plabennec vers le Relecq-Kerhuon]]></desc>
  </metadata>
  <trk>
    <name><![CDATA[Sortie Kersaint-Plabennec 26/02/2011_1]]></name>
    <trkseg>
      <trkpt lat="48.47186" lon="-4.375">
        <ele>149</ele>
        <time>2012-02-26T08:35:13.93</time>
      </trkpt>
      <trkpt lat="48.47186" lon="-4.375">
        <ele>149</ele>
        <time>2012-02-26T08:36:23.45</time>
      </trkpt>
      <trkpt lat="48.47184" lon="-4.37505">
        <ele>148</ele>
        <time>2012-02-26T08:36:30.45</time>
      </trkpt>
      <trkpt lat="48.47184" lon="-4.37503">
        <ele>148</ele>
        <time>2012-02-26T08:36:31.45</time>
      </trkpt>
      <trkpt lat="48.47185" lon="-4.375">
        <ele>148</ele>
        <time>2012-02-26T08:36:38.46</time>
      </trkpt>
      <trkpt lat="48.47186" lon="-4.375">
        <ele>148</ele>
        <time>2012-02-26T08:36:39.45</time>
      </trkpt>
      <trkpt lat="48.47188" lon="-4.37492">
        <ele>148</ele>
        <time>2012-02-26T08:36:46.46</time>
      </trkpt>
      <trkpt lat="48.47188" lon="-4.37496">
        <ele>148</ele>
        <time>2012-02-26T08:36:53.46</time>
      </trkpt>
      <trkpt lat="48.47187" lon="-4.37496">
        <ele>148</ele>
        <time>2012-02-26T08:36:54.47</time>
      </trkpt>
      <trkpt lat="48.47185" lon="-4.37494">
        <ele>148</ele>
        <time>2012-02-26T08:37:01.46</time>
      </trkpt>
      <trkpt lat="48.47186" lon="-4.37488">
        <ele>148</ele>
        <time>2012-02-26T08:37:08.46</time>
      </trkpt>
      <trkpt lat="48.47187" lon="-4.37485">
        <ele>148</ele>
        <time>2012-02-26T08:37:09.45</time>
      </trkpt>
      <trkpt lat="48.47188" lon="-4.37483">
        <ele>148</ele>
        <time>2012-02-26T08:37:10.45</time>
      </trkpt>
      <trkpt lat="48.47189" lon="-4.37481">
        <ele>148</ele>
        <time>2012-02-26T08:37:11.46</time>
      </trkpt>
      <trkpt lat="48.47192" lon="-4.37477">
        <ele>148</ele>
        <time>2012-02-26T08:37:12.45</time>
      </trkpt>
      <trkpt lat="48.47195" lon="-4.37475">
        <ele>148</ele>
        <time>2012-02-26T08:37:13.46</time>
      </trkpt>
      <trkpt lat="48.47198" lon="-4.3747">
        <ele>148</ele>
        <time>2012-02-26T08:37:14.46</time>
      </trkpt>
      <trkpt lat="48.47201" lon="-4.37468">
        <ele>148</ele>
        <time>2012-02-26T08:37:15.45</time>
      </trkpt>
      <trkpt lat="48.47206" lon="-4.37468">
        <ele>148</ele>
        <time>2012-02-26T08:37:16.46</time>
      </trkpt>
      <trkpt lat="48.4721" lon="-4.37468">
        <ele>148</ele>
        <time>2012-02-26T08:37:17.46</time>
      </trkpt>
      <trkpt lat="48.47214" lon="-4.3747">
        <ele>148</ele>
        <time>2012-02-26T08:37:18.45</time>
      </trkpt>
      <trkpt lat="48.47218" lon="-4.37475">
        <ele>148</ele>
        <time>2012-02-26T08:37:19.46</time>
      </trkpt>
      <trkpt lat="48.47222" lon="-4.37479">
        <ele>148</ele>
        <time>2012-02-26T08:37:20.46</time>
      </trkpt>
      <trkpt lat="48.47225" lon="-4.37485">
        <ele>148</ele>
        <time>2012-02-26T08:37:21.45</time>
      </trkpt>
      <trkpt lat="48.47227" lon="-4.37492">
        <ele>148</ele>
        <time>2012-02-26T08:37:22.46</time>
      </trkpt>
      <trkpt lat="48.47229" lon="-4.37498">
        <ele>149</ele>
        <time>2012-02-26T08:37:23.46</time>
      </trkpt>
      <trkpt lat="48.47231" lon="-4.37505">
        <ele>149</ele>
        <time>2012-02-26T08:37:24.45</time>
      </trkpt>
      <trkpt lat="48.47233" lon="-4.37511">
        <ele>149</ele>
        <time>2012-02-26T08:37:25.45</time>
      </trkpt>
      <trkpt lat="48.47234" lon="-4.37518">
        <ele>149</ele>
        <time>2012-02-26T08:37:26.46</time>
      </trkpt>
      <trkpt lat="48.47237" lon="-4.37524">
        <ele>150</ele>
        <time>2012-02-26T08:37:27.47</time>
      </trkpt>
      <trkpt lat="48.47238" lon="-4.37531">
        <ele>150</ele>
        <time>2012-02-26T08:37:28.45</time>
      </trkpt>
      <trkpt lat="48.47239" lon="-4.37537">
        <ele>149</ele>
        <time>2012-02-26T08:37:29.46</time>
      </trkpt>
      <trkpt lat="48.47239" lon="-4.37546">
        <ele>149</ele>
        <time>2012-02-26T08:37:30.51</time>
      </trkpt>
      <trkpt lat="48.47239" lon="-4.37552">
        <ele>150</ele>
        <time>2012-02-26T08:37:31.45</time>
      </trkpt>
      <trkpt lat="48.47238" lon="-4.37558">
        <ele>151</ele>
        <time>2012-02-26T08:37:32.45</time>
      </trkpt>
      <trkpt lat="48.47238" lon="-4.37567">
        <ele>152</ele>
        <time>2012-02-26T08:37:33.47</time>
      </trkpt>
      <trkpt lat="48.47237" lon="-4.37573">
        <ele>152</ele>
        <time>2012-02-26T08:37:34.45</time>
      </trkpt>
      <trkpt lat="48.47236" lon="-4.37582">
        <ele>153</ele>
        <time>2012-02-26T08:37:35.46</time>
      </trkpt>
      <trkpt lat="48.47233" lon="-4.37588">
        <ele>152</ele>
        <time>2012-02-26T08:37:36.47</time>
      </trkpt>
      <trkpt lat="48.47232" lon="-4.37597">
        <ele>152</ele>
        <time>2012-02-26T08:37:37.45</time>
      </trkpt>
      <trkpt lat="48.4723" lon="-4.37603">
        <ele>152</ele>
        <time>2012-02-26T08:37:38.46</time>
      </trkpt>
      <trkpt lat="48.47228" lon="-4.37612">
        <ele>151</ele>
        <time>2012-02-26T08:37:39.46</time>
      </trkpt>
      <trkpt lat="48.47225" lon="-4.37618">
        <ele>151</ele>
        <time>2012-02-26T08:37:40.45</time>
      </trkpt>
      <trkpt lat="48.47223" lon="-4.37625">
        <ele>150</ele>
        <time>2012-02-26T08:37:41.46</time>
      </trkpt>
      <trkpt lat="48.47219" lon="-4.37634">
        <ele>150</ele>
        <time>2012-02-26T08:37:42.47</time>
      </trkpt>
      <trkpt lat="48.47217" lon="-4.3764">
        <ele>150</ele>
        <time>2012-02-26T08:37:43.44</time>
      </trkpt>
      <trkpt lat="48.47214" lon="-4.37646">
        <ele>149</ele>
        <time>2012-02-26T08:37:44.45</time>
      </trkpt>
      <trkpt lat="48.47211" lon="-4.37653">
        <ele>149</ele>
        <time>2012-02-26T08:37:45.45</time>
      </trkpt>
      <trkpt lat="48.47208" lon="-4.37661">
        <ele>148</ele>
        <time>2012-02-26T08:37:46.45</time>
      </trkpt>
      <trkpt lat="48.47203" lon="-4.37668">
        <ele>148</ele>
        <time>2012-02-26T08:37:47.45</time>
      </trkpt>
      <trkpt lat="48.472" lon="-4.37674">
        <ele>148</ele>
        <time>2012-02-26T08:37:48.45</time>
      </trkpt>
      <trkpt lat="48.47198" lon="-4.37681">
        <ele>147</ele>
        <time>2012-02-26T08:37:49.45</time>
      </trkpt>
      <trkpt lat="48.47196" lon="-4.37685">
        <ele>147</ele>
        <time>2012-02-26T08:37:50.45</time>
      </trkpt>
      <trkpt lat="48.47194" lon="-4.37689">
        <ele>147</ele>
        <time>2012-02-26T08:37:51.46</time>
      </trkpt>
      <trkpt lat="48.47193" lon="-4.37696">
        <ele>147</ele>
        <time>2012-02-26T08:37:52.45</time>
      </trkpt>
      <trkpt lat="48.4719" lon="-4.377">
        <ele>147</ele>
        <time>2012-02-26T08:37:53.45</time>
      </trkpt>
      <trkpt lat="48.47188" lon="-4.37706">
        <ele>147</ele>
        <time>2012-02-26T08:37:54.46</time>
      </trkpt>
      <trkpt lat="48.47187" lon="-4.37711">
        <ele>146</ele>
        <time>2012-02-26T08:37:55.47</time>
      </trkpt>
      <trkpt lat="48.47185" lon="-4.37717">
        <ele>146</ele>
        <time>2012-02-26T08:37:56.45</time>
      </trkpt>
      <trkpt lat="48.47183" lon="-4.37721">
        <ele>146</ele>
        <time>2012-02-26T08:37:57.46</time>
      </trkpt>
      <trkpt lat="48.47181" lon="-4.37728">
        <ele>146</ele>
        <time>2012-02-26T08:37:58.50</time>
      </trkpt>
      <trkpt lat="48.4718" lon="-4.37732">
        <ele>146</ele>
        <time>2012-02-26T08:37:59.45</time>
      </trkpt>
      <trkpt lat="48.47178" lon="-4.37737">
        <ele>146</ele>
        <time>2012-02-26T08:38:00.46</time>
      </trkpt>
      <trkpt lat="48.47177" lon="-4.37743">
        <ele>146</ele>
        <time>2012-02-26T08:38:01.47</time>
      </trkpt>
      <trkpt lat="48.47175" lon="-4.37747">
        <ele>146</ele>
        <time>2012-02-26T08:38:02.45</time>
      </trkpt>
      <trkpt lat="48.47174" lon="-4.37752">
        <ele>146</ele>
        <time>2012-02-26T08:38:03.46</time>
      </trkpt>
      <trkpt lat="48.47173" lon="-4.37756">
        <ele>146</ele>
        <time>2012-02-26T08:38:04.46</time>
      </trkpt>
      <trkpt lat="48.47173" lon="-4.37762">
        <ele>146</ele>
        <time>2012-02-26T08:38:05.45</time>
      </trkpt>
      <trkpt lat="48.47173" lon="-4.37767">
        <ele>146</ele>
        <time>2012-02-26T08:38:06.46</time>
      </trkpt>
      <trkpt lat="48.47173" lon="-4.37773">
        <ele>146</ele>
        <time>2012-02-26T08:38:07.46</time>
      </trkpt>
      <trkpt lat="48.47173" lon="-4.37779">
        <ele>146</ele>
        <time>2012-02-26T08:38:08.45</time>
      </trkpt>
      <trkpt lat="48.47174" lon="-4.37786">
        <ele>146</ele>
        <time>2012-02-26T08:38:09.46</time>
      </trkpt>
      <trkpt lat="48.47177" lon="-4.3779">
        <ele>146</ele>
        <time>2012-02-26T08:38:10.46</time>
      </trkpt>
      <trkpt lat="48.47178" lon="-4.37797">
        <ele>146</ele>
        <time>2012-02-26T08:38:11.47</time>
      </trkpt>
      <trkpt lat="48.4718" lon="-4.37801">
        <ele>146</ele>
        <time>2012-02-26T08:38:12.46</time>
      </trkpt>
      <trkpt lat="48.47182" lon="-4.37807">
        <ele>146</ele>
        <time>2012-02-26T08:38:13.46</time>
      </trkpt>
      <trkpt lat="48.47184" lon="-4.37812">
        <ele>146</ele>
        <time>2012-02-26T08:38:14.52</time>
      </trkpt>
      <trkpt lat="48.47187" lon="-4.37816">
        <ele>146</ele>
        <time>2012-02-26T08:38:15.45</time>
      </trkpt>
      <trkpt lat="48.47189" lon="-4.37822">
        <ele>146</ele>
        <time>2012-02-26T08:38:16.46</time>
      </trkpt>
      <trkpt lat="48.47193" lon="-4.37827">
        <ele>146</ele>
        <time>2012-02-26T08:38:17.47</time>
      </trkpt>
      <trkpt lat="48.47196" lon="-4.37833">
        <ele>146</ele>
        <time>2012-02-26T08:38:18.46</time>
      </trkpt>
      <trkpt lat="48.47199" lon="-4.3784">
        <ele>145</ele>
        <time>2012-02-26T08:38:19.45</time>
      </trkpt>
      <trkpt lat="48.47202" lon="-4.37844">
        <ele>145</ele>
        <time>2012-02-26T08:38:20.45</time>
      </trkpt>
      <trkpt lat="48.47204" lon="-4.3785">
        <ele>145</ele>
        <time>2012-02-26T08:38:21.45</time>
      </trkpt>
      <trkpt lat="48.47208" lon="-4.37857">
        <ele>145</ele>
        <time>2012-02-26T08:38:22.46</time>
      </trkpt>
      <trkpt lat="48.47211" lon="-4.37863">
        <ele>145</ele>
        <time>2012-02-26T08:38:23.47</time>
      </trkpt>
      <trkpt lat="48.47214" lon="-4.37867">
        <ele>145</ele>
        <time>2012-02-26T08:38:24.45</time>
      </trkpt>
      <trkpt lat="48.47217" lon="-4.37874">
        <ele>144</ele>
        <time>2012-02-26T08:38:25.46</time>
      </trkpt>
      <trkpt lat="48.47221" lon="-4.3788">
        <ele>144</ele>
        <time>2012-02-26T08:38:26.47</time>
      </trkpt>
      <trkpt lat="48.47224" lon="-4.37887">
        <ele>144</ele>
        <time>2012-02-26T08:38:27.45</time>
      </trkpt>
      <trkpt lat="48.47227" lon="-4.37891">
        <ele>144</ele>
        <time>2012-02-26T08:38:28.46</time>
      </trkpt>
      <trkpt lat="48.4723" lon="-4.37897">
        <ele>144</ele>
        <time>2012-02-26T08:38:29.46</time>
      </trkpt>
      <trkpt lat="48.47233" lon="-4.37904">
        <ele>144</ele>
        <time>2012-02-26T08:38:30.45</time>
      </trkpt>
      <trkpt lat="48.47236" lon="-4.37908">
        <ele>144</ele>
        <time>2012-02-26T08:38:31.46</time>
      </trkpt>
      <trkpt lat="48.47239" lon="-4.37915">
        <ele>144</ele>
        <time>2012-02-26T08:38:32.46</time>
      </trkpt>
      <trkpt lat="48.47242" lon="-4.37921">
        <ele>144</ele>
        <time>2012-02-26T08:38:33.48</time>
      </trkpt>
      <trkpt lat="48.47245" lon="-4.37925">
        <ele>144</ele>
        <time>2012-02-26T08:38:34.46</time>
      </trkpt>
      <trkpt lat="48.47247" lon="-4.37932">
        <ele>144</ele>
        <time>2012-02-26T08:38:35.46</time>
      </trkpt>
      <trkpt lat="48.47251" lon="-4.37938">
        <ele>145</ele>
        <time>2012-02-26T08:38:36.47</time>
      </trkpt>
      <trkpt lat="48.47253" lon="-4.37943">
        <ele>144</ele>
        <time>2012-02-26T08:38:37.46</time>
      </trkpt>
      <trkpt lat="48.47256" lon="-4.37949">
        <ele>143</ele>
        <time>2012-02-26T08:38:38.46</time>
      </trkpt>
      <trkpt lat="48.47258" lon="-4.37955">
        <ele>142</ele>
        <time>2012-02-26T08:38:39.47</time>
      </trkpt>
      <trkpt lat="48.4726" lon="-4.37962">
        <ele>141</ele>
        <time>2012-02-26T08:38:40.46</time>
      </trkpt>
      <trkpt lat="48.47262" lon="-4.37966">
        <ele>141</ele>
        <time>2012-02-26T08:38:41.46</time>
      </trkpt>
      <trkpt lat="48.47263" lon="-4.37973">
        <ele>140</ele>
        <time>2012-02-26T08:38:42.51</time>
      </trkpt>
      <trkpt lat="48.47263" lon="-4.37979">
        <ele>139</ele>
        <time>2012-02-26T08:38:43.45</time>
      </trkpt>
      <trkpt lat="48.47261" lon="-4.37985">
        <ele>139</ele>
        <time>2012-02-26T08:38:44.46</time>
      </trkpt>
      <trkpt lat="48.47259" lon="-4.3799">
        <ele>138</ele>
        <time>2012-02-26T08:38:45.47</time>
      </trkpt>
      <trkpt lat="48.47256" lon="-4.37996">
        <ele>138</ele>
        <time>2012-02-26T08:38:46.45</time>
      </trkpt>
      <trkpt lat="48.47253" lon="-4.38">
        <ele>137</ele>
        <time>2012-02-26T08:38:47.46</time>
      </trkpt>
      <trkpt lat="48.4725" lon="-4.38005">
        <ele>136</ele>
        <time>2012-02-26T08:38:48.47</time>
      </trkpt>
      <trkpt lat="48.47246" lon="-4.38007">
        <ele>136</ele>
        <time>2012-02-26T08:38:49.45</time>
      </trkpt>
      <trkpt lat="48.47243" lon="-4.38011">
        <ele>136</ele>
        <time>2012-02-26T08:38:50.46</time>
      </trkpt>
      <trkpt lat="48.47241" lon="-4.38015">
        <ele>136</ele>
        <time>2012-02-26T08:38:51.46</time>
      </trkpt>
      <trkpt lat="48.47238" lon="-4.38018">
        <ele>136</ele>
        <time>2012-02-26T08:38:52.45</time>
      </trkpt>
      <trkpt lat="48.47234" lon="-4.3802">
        <ele>136</ele>
        <time>2012-02-26T08:38:53.46</time>
      </trkpt>
      <trkpt lat="48.47231" lon="-4.38024">
        <ele>135</ele>
        <time>2012-02-26T08:38:54.46</time>
      </trkpt>
      <trkpt lat="48.47227" lon="-4.38028">
        <ele>134</ele>
        <time>2012-02-26T08:38:55.47</time>
      </trkpt>
      <trkpt lat="48.47224" lon="-4.3803">
        <ele>133</ele>
        <time>2012-02-26T08:38:56.46</time>
      </trkpt>
      <trkpt lat="48.47219" lon="-4.38035">
        <ele>133</ele>
        <time>2012-02-26T08:38:57.46</time>
      </trkpt>
      <trkpt lat="48.47215" lon="-4.38039">
        <ele>133</ele>
        <time>2012-02-26T08:38:58.47</time>
      </trkpt>
      <trkpt lat="48.47212" lon="-4.38043">
        <ele>133</ele>
        <time>2012-02-26T08:38:59.46</time>
      </trkpt>
      <trkpt lat="48.47208" lon="-4.38048">
        <ele>133</ele>
        <time>2012-02-26T08:39:00.46</time>
      </trkpt>
      <trkpt lat="48.47203" lon="-4.3805">
        <ele>133</ele>
        <time>2012-02-26T08:39:01.47</time>
      </trkpt>
      <trkpt lat="48.47199" lon="-4.38054">
        <ele>133</ele>
        <time>2012-02-26T08:39:02.45</time>
      </trkpt>
      <trkpt lat="48.47195" lon="-4.38058">
        <ele>133</ele>
        <time>2012-02-26T08:39:03.46</time>
      </trkpt>
      <trkpt lat="48.4719" lon="-4.38063">
        <ele>133</ele>
        <time>2012-02-26T08:39:04.47</time>
      </trkpt>
      <trkpt lat="48.47186" lon="-4.38065">
        <ele>132</ele>
        <time>2012-02-26T08:39:05.46</time>
      </trkpt>
      <trkpt lat="48.47182" lon="-4.38069">
        <ele>132</ele>
        <time>2012-02-26T08:39:06.48</time>
      </trkpt>
      <trkpt lat="48.47178" lon="-4.38073">
        <ele>133</ele>
        <time>2012-02-26T08:39:07.47</time>
      </trkpt>
      <trkpt lat="48.47173" lon="-4.38078">
        <ele>133</ele>
        <time>2012-02-26T08:39:08.45</time>
      </trkpt>
      <trkpt lat="48.47169" lon="-4.38082">
        <ele>133</ele>
        <time>2012-02-26T08:39:09.46</time>
      </trkpt>
      <trkpt lat="48.47166" lon="-4.38084">
        <ele>133</ele>
        <time>2012-02-26T08:39:10.53</time>
      </trkpt>
      <trkpt lat="48.47163" lon="-4.38086">
        <ele>133</ele>
        <time>2012-02-26T08:39:11.45</time>
      </trkpt>
      <trkpt lat="48.4716" lon="-4.38091">
        <ele>133</ele>
        <time>2012-02-26T08:39:12.46</time>
      </trkpt>
      <trkpt lat="48.47157" lon="-4.38093">
        <ele>133</ele>
        <time>2012-02-26T08:39:13.47</time>
      </trkpt>
      <trkpt lat="48.47155" lon="-4.38095">
        <ele>134</ele>
        <time>2012-02-26T08:39:14.47</time>
      </trkpt>
      <trkpt lat="48.47153" lon="-4.38097">
        <ele>134</ele>
        <time>2012-02-26T08:39:15.46</time>
      </trkpt>
      <trkpt lat="48.47151" lon="-4.38101">
        <ele>134</ele>
        <time>2012-02-26T08:39:16.45</time>
      </trkpt>
      <trkpt lat="48.47149" lon="-4.38103">
        <ele>134</ele>
        <time>2012-02-26T08:39:17.45</time>
      </trkpt>
      <trkpt lat="48.47145" lon="-4.38106">
        <ele>134</ele>
        <time>2012-02-26T08:39:18.46</time>
      </trkpt>
      <trkpt lat="48.47143" lon="-4.3811">
        <ele>134</ele>
        <time>2012-02-26T08:39:19.45</time>
      </trkpt>
      <trkpt lat="48.4714" lon="-4.38112">
        <ele>134</ele>
        <time>2012-02-26T08:39:20.47</time>
      </trkpt>
      <trkpt lat="48.47137" lon="-4.38114">
        <ele>134</ele>
        <time>2012-02-26T08:39:21.46</time>
      </trkpt>
      <trkpt lat="48.47134" lon="-4.38116">
        <ele>134</ele>
        <time>2012-02-26T08:39:22.46</time>
      </trkpt>
      <trkpt lat="48.4713" lon="-4.38118">
        <ele>135</ele>
        <time>2012-02-26T08:39:23.47</time>
      </trkpt>
      <trkpt lat="48.47128" lon="-4.38123">
        <ele>135</ele>
        <time>2012-02-26T08:39:24.45</time>
      </trkpt>
      <trkpt lat="48.47126" lon="-4.38127">
        <ele>135</ele>
        <time>2012-02-26T08:39:25.46</time>
      </trkpt>
      <trkpt lat="48.47126" lon="-4.38133">
        <ele>136</ele>
        <time>2012-02-26T08:39:26.47</time>
      </trkpt>
      <trkpt lat="48.47125" lon="-4.3814">
        <ele>137</ele>
        <time>2012-02-26T08:39:27.46</time>
      </trkpt>
      <trkpt lat="48.47126" lon="-4.38146">
        <ele>138</ele>
        <time>2012-02-26T08:39:28.46</time>
      </trkpt>
      <trkpt lat="48.47126" lon="-4.38153">
        <ele>138</ele>
        <time>2012-02-26T08:39:29.47</time>
      </trkpt>
      <trkpt lat="48.47125" lon="-4.38159">
        <ele>139</ele>
        <time>2012-02-26T08:39:30.45</time>
      </trkpt>
      <trkpt lat="48.47123" lon="-4.38166">
        <ele>139</ele>
        <time>2012-02-26T08:39:31.46</time>
      </trkpt>
      <trkpt lat="48.47121" lon="-4.3817">
        <ele>139</ele>
        <time>2012-02-26T08:39:32.47</time>
      </trkpt>
      <trkpt lat="48.47118" lon="-4.38174">
        <ele>139</ele>
        <time>2012-02-26T08:39:33.45</time>
      </trkpt>
      <trkpt lat="48.47114" lon="-4.38179">
        <ele>139</ele>
        <time>2012-02-26T08:39:34.45</time>
      </trkpt>
      <trkpt lat="48.47111" lon="-4.38181">
        <ele>139</ele>
        <time>2012-02-26T08:39:35.45</time>
      </trkpt>
      <trkpt lat="48.47109" lon="-4.38183">
        <ele>139</ele>
        <time>2012-02-26T08:39:36.47</time>
      </trkpt>
      <trkpt lat="48.47106" lon="-4.38187">
        <ele>139</ele>
        <time>2012-02-26T08:39:37.46</time>
      </trkpt>
      <trkpt lat="48.47103" lon="-4.38189">
        <ele>139</ele>
        <time>2012-02-26T08:39:38.47</time>
      </trkpt>
      <trkpt lat="48.47099" lon="-4.38191">
        <ele>139</ele>
        <time>2012-02-26T08:39:39.48</time>
      </trkpt>
      <trkpt lat="48.47097" lon="-4.38194">
        <ele>139</ele>
        <time>2012-02-26T08:39:40.46</time>
      </trkpt>
      <trkpt lat="48.47094" lon="-4.38196">
        <ele>139</ele>
        <time>2012-02-26T08:39:41.46</time>
      </trkpt>
      <trkpt lat="48.47092" lon="-4.38198">
        <ele>139</ele>
        <time>2012-02-26T08:39:42.47</time>
      </trkpt>
      <trkpt lat="48.47089" lon="-4.382">
        <ele>139</ele>
        <time>2012-02-26T08:39:43.46</time>
      </trkpt>
      <trkpt lat="48.47085" lon="-4.38202">
        <ele>139</ele>
        <time>2012-02-26T08:39:44.46</time>
      </trkpt>
      <trkpt lat="48.47082" lon="-4.38206">
        <ele>139</ele>
        <time>2012-02-26T08:39:45.53</time>
      </trkpt>
      <trkpt lat="48.47079" lon="-4.38209">
        <ele>139</ele>
        <time>2012-02-26T08:39:46.46</time>
      </trkpt>
      <trkpt lat="48.47076" lon="-4.38211">
        <ele>139</ele>
        <time>2012-02-26T08:39:47.46</time>
      </trkpt>
      <trkpt lat="48.47071" lon="-4.38215">
        <ele>139</ele>
        <time>2012-02-26T08:39:48.47</time>
      </trkpt>
      <trkpt lat="48.47068" lon="-4.38217">
        <ele>139</ele>
        <time>2012-02-26T08:39:49.46</time>
      </trkpt>
      <trkpt lat="48.47065" lon="-4.38221">
        <ele>138</ele>
        <time>2012-02-26T08:39:50.46</time>
      </trkpt>
      <trkpt lat="48.47062" lon="-4.38224">
        <ele>138</ele>
        <time>2012-02-26T08:39:51.47</time>
      </trkpt>
      <trkpt lat="48.47057" lon="-4.38228">
        <ele>138</ele>
        <time>2012-02-26T08:39:52.45</time>
      </trkpt>
      <trkpt lat="48.47053" lon="-4.3823">
        <ele>138</ele>
        <time>2012-02-26T08:39:53.46</time>
      </trkpt>
      <trkpt lat="48.4705" lon="-4.38232">
        <ele>138</ele>
        <time>2012-02-26T08:39:54.47</time>
      </trkpt>
      <trkpt lat="48.47047" lon="-4.38234">
        <ele>139</ele>
        <time>2012-02-26T08:39:55.45</time>
      </trkpt>
      <trkpt lat="48.47042" lon="-4.38236">
        <ele>138</ele>
        <time>2012-02-26T08:39:56.46</time>
      </trkpt>
      <trkpt lat="48.47039" lon="-4.38236">
        <ele>138</ele>
        <time>2012-02-26T08:39:57.47</time>
      </trkpt>
      <trkpt lat="48.47035" lon="-4.38239">
        <ele>138</ele>
        <time>2012-02-26T08:39:58.47</time>
      </trkpt>
      <trkpt lat="48.47032" lon="-4.38241">
        <ele>138</ele>
        <time>2012-02-26T08:39:59.46</time>
      </trkpt>
      <trkpt lat="48.47027" lon="-4.38243">
        <ele>138</ele>
        <time>2012-02-26T08:40:00.46</time>
      </trkpt>
      <trkpt lat="48.47024" lon="-4.38245">
        <ele>138</ele>
        <time>2012-02-26T08:40:01.47</time>
      </trkpt>
      <trkpt lat="48.4702" lon="-4.38247">
        <ele>138</ele>
        <time>2012-02-26T08:40:02.46</time>
      </trkpt>
      <trkpt lat="48.47017" lon="-4.38247">
        <ele>138</ele>
        <time>2012-02-26T08:40:03.46</time>
      </trkpt>
      <trkpt lat="48.47012" lon="-4.38249">
        <ele>138</ele>
        <time>2012-02-26T08:40:04.47</time>
      </trkpt>
      <trkpt lat="48.47008" lon="-4.38251">
        <ele>138</ele>
        <time>2012-02-26T08:40:05.45</time>
      </trkpt>
      <trkpt lat="48.47005" lon="-4.38254">
        <ele>139</ele>
        <time>2012-02-26T08:40:06.46</time>
      </trkpt>
      <trkpt lat="48.47001" lon="-4.38256">
        <ele>139</ele>
        <time>2012-02-26T08:40:07.52</time>
      </trkpt>
      <trkpt lat="48.46997" lon="-4.38258">
        <ele>139</ele>
        <time>2012-02-26T08:40:08.46</time>
      </trkpt>
      <trkpt lat="48.46994" lon="-4.38262">
        <ele>139</ele>
        <time>2012-02-26T08:40:09.46</time>
      </trkpt>
      <trkpt lat="48.4699" lon="-4.38264">
        <ele>139</ele>
        <time>2012-02-26T08:40:10.47</time>
      </trkpt>
      <trkpt lat="48.46987" lon="-4.38269">
        <ele>139</ele>
        <time>2012-02-26T08:40:11.46</time>
      </trkpt>
      <trkpt lat="48.46983" lon="-4.38271">
        <ele>139</ele>
        <time>2012-02-26T08:40:12.46</time>
      </trkpt>
      <trkpt lat="48.46981" lon="-4.38275">
        <ele>139</ele>
        <time>2012-02-26T08:40:13.47</time>
      </trkpt>
      <trkpt lat="48.46978" lon="-4.38279">
        <ele>139</ele>
        <time>2012-02-26T08:40:14.46</time>
      </trkpt>
      <trkpt lat="48.46975" lon="-4.38284">
        <ele>139</ele>
        <time>2012-02-26T08:40:15.46</time>
      </trkpt>
      <trkpt lat="48.46972" lon="-4.38286">
        <ele>139</ele>
        <time>2012-02-26T08:40:16.46</time>
      </trkpt>
      <trkpt lat="48.46969" lon="-4.3829">
        <ele>139</ele>
        <time>2012-02-26T08:40:17.46</time>
      </trkpt>
      <trkpt lat="48.46966" lon="-4.38294">
        <ele>139</ele>
        <time>2012-02-26T08:40:18.46</time>
      </trkpt>
      <trkpt lat="48.46963" lon="-4.38297">
        <ele>139</ele>
        <time>2012-02-26T08:40:19.47</time>
      </trkpt>
      <trkpt lat="48.46961" lon="-4.38301">
        <ele>139</ele>
        <time>2012-02-26T08:40:20.47</time>
      </trkpt>
      <trkpt lat="48.46958" lon="-4.38305">
        <ele>139</ele>
        <time>2012-02-26T08:40:21.46</time>
      </trkpt>
      <trkpt lat="48.46954" lon="-4.38309">
        <ele>139</ele>
        <time>2012-02-26T08:40:22.46</time>
      </trkpt>
      <trkpt lat="48.46952" lon="-4.38314">
        <ele>139</ele>
        <time>2012-02-26T08:40:23.48</time>
      </trkpt>
      <trkpt lat="48.46949" lon="-4.38318">
        <ele>139</ele>
        <time>2012-02-26T08:40:24.46</time>
      </trkpt>
      <trkpt lat="48.46946" lon="-4.3832">
        <ele>139</ele>
        <time>2012-02-26T08:40:25.46</time>
      </trkpt>
      <trkpt lat="48.46944" lon="-4.38324">
        <ele>139</ele>
        <time>2012-02-26T08:40:26.47</time>
      </trkpt>
      <trkpt lat="48.46941" lon="-4.38329">
        <ele>139</ele>
        <time>2012-02-26T08:40:27.46</time>
      </trkpt>
      <trkpt lat="48.46938" lon="-4.38331">
        <ele>139</ele>
        <time>2012-02-26T08:40:28.46</time>
      </trkpt>
      <trkpt lat="48.46935" lon="-4.38335">
        <ele>139</ele>
        <time>2012-02-26T08:40:29.48</time>
      </trkpt>
      <trkpt lat="48.46932" lon="-4.38339">
        <ele>139</ele>
        <time>2012-02-26T08:40:30.46</time>
      </trkpt>
      <trkpt lat="48.4693" lon="-4.38344">
        <ele>139</ele>
        <time>2012-02-26T08:40:31.46</time>
      </trkpt>
      <trkpt lat="48.46928" lon="-4.38346">
        <ele>139</ele>
        <time>2012-02-26T08:40:32.47</time>
      </trkpt>
      <trkpt lat="48.46924" lon="-4.3835">
        <ele>139</ele>
        <time>2012-02-26T08:40:33.45</time>
      </trkpt>
      <trkpt lat="48.46922" lon="-4.38354">
        <ele>140</ele>
        <time>2012-02-26T08:40:34.46</time>
      </trkpt>
      <trkpt lat="48.4692" lon="-4.38357">
        <ele>140</ele>
        <time>2012-02-26T08:40:35.52</time>
      </trkpt>
      <trkpt lat="48.46918" lon="-4.38361">
        <ele>140</ele>
        <time>2012-02-26T08:40:36.45</time>
      </trkpt>
      <trkpt lat="48.46915" lon="-4.38363">
        <ele>140</ele>
        <time>2012-02-26T08:40:37.46</time>
      </trkpt>
      <trkpt lat="48.46913" lon="-4.38367">
        <ele>140</ele>
        <time>2012-02-26T08:40:38.47</time>
      </trkpt>
      <trkpt lat="48.4691" lon="-4.3837">
        <ele>140</ele>
        <time>2012-02-26T08:40:39.45</time>
      </trkpt>
      <trkpt lat="48.46908" lon="-4.38374">
        <ele>140</ele>
        <time>2012-02-26T08:40:40.46</time>
      </trkpt>
      <trkpt lat="48.46906" lon="-4.38374">
        <ele>140</ele>
        <time>2012-02-26T08:40:41.47</time>
      </trkpt>
      <trkpt lat="48.46904" lon="-4.38376">
        <ele>140</ele>
        <time>2012-02-26T08:40:42.47</time>
      </trkpt>
      <trkpt lat="48.46901" lon="-4.38374">
        <ele>140</ele>
        <time>2012-02-26T08:40:43.46</time>
      </trkpt>
      <trkpt lat="48.46899" lon="-4.38374">
        <ele>140</ele>
        <time>2012-02-26T08:40:44.46</time>
      </trkpt>
      <trkpt lat="48.46897" lon="-4.3837">
        <ele>140</ele>
        <time>2012-02-26T08:40:45.45</time>
      </trkpt>
      <trkpt lat="48.46894" lon="-4.38365">
        <ele>140</ele>
        <time>2012-02-26T08:40:46.46</time>
      </trkpt>
      <trkpt lat="48.46893" lon="-4.38361">
        <ele>140</ele>
        <time>2012-02-26T08:40:47.46</time>
      </trkpt>
      <trkpt lat="48.46891" lon="-4.38357">
        <ele>140</ele>
        <time>2012-02-26T08:40:48.45</time>
      </trkpt>
      <trkpt lat="48.46889" lon="-4.38352">
        <ele>141</ele>
        <time>2012-02-26T08:40:49.46</time>
      </trkpt>
      <trkpt lat="48.46887" lon="-4.38346">
        <ele>141</ele>
        <time>2012-02-26T08:40:50.46</time>
      </trkpt>
      <trkpt lat="48.46886" lon="-4.38342">
        <ele>142</ele>
        <time>2012-02-26T08:40:51.47</time>
      </trkpt>
      <trkpt lat="48.46883" lon="-4.38335">
        <ele>142</ele>
        <time>2012-02-26T08:40:52.46</time>
      </trkpt>
      <trkpt lat="48.4688" lon="-4.38329">
        <ele>142</ele>
        <time>2012-02-26T08:40:53.46</time>
      </trkpt>
      <trkpt lat="48.46878" lon="-4.38324">
        <ele>143</ele>
        <time>2012-02-26T08:40:54.47</time>
      </trkpt>
      <trkpt lat="48.46876" lon="-4.38318">
        <ele>143</ele>
        <time>2012-02-26T08:40:55.46</time>
      </trkpt>
      <trkpt lat="48.46874" lon="-4.38314">
        <ele>143</ele>
        <time>2012-02-26T08:40:56.46</time>
      </trkpt>
      <trkpt lat="48.46872" lon="-4.38307">
        <ele>143</ele>
        <time>2012-02-26T08:40:57.47</time>
      </trkpt>
      <trkpt lat="48.46869" lon="-4.38303">
        <ele>143</ele>
        <time>2012-02-26T08:40:58.45</time>
      </trkpt>
      <trkpt lat="48.46866" lon="-4.38297">
        <ele>143</ele>
        <time>2012-02-26T08:40:59.46</time>
      </trkpt>
      <trkpt lat="48.46863" lon="-4.38292">
        <ele>142</ele>
        <time>2012-02-26T08:41:00.47</time>
      </trkpt>
      <trkpt lat="48.4686" lon="-4.38286">
        <ele>142</ele>
        <time>2012-02-26T08:41:01.47</time>
      </trkpt>
      <trkpt lat="48.46856" lon="-4.38284">
        <ele>142</ele>
        <time>2012-02-26T08:41:02.46</time>
      </trkpt>
      <trkpt lat="48.46851" lon="-4.38279">
        <ele>142</ele>
        <time>2012-02-26T08:41:03.45</time>
      </trkpt>
      <trkpt lat="48.46847" lon="-4.38277">
        <ele>142</ele>
        <time>2012-02-26T08:41:04.47</time>
      </trkpt>
      <trkpt lat="48.46842" lon="-4.38275">
        <ele>141</ele>
        <time>2012-02-26T08:41:05.46</time>
      </trkpt>
      <trkpt lat="48.46838" lon="-4.38273">
        <ele>141</ele>
        <time>2012-02-26T08:41:06.46</time>
      </trkpt>
      <trkpt lat="48.46833" lon="-4.38271">
        <ele>141</ele>
        <time>2012-02-26T08:41:07.47</time>
      </trkpt>
      <trkpt lat="48.4683" lon="-4.38269">
        <ele>141</ele>
        <time>2012-02-26T08:41:08.46</time>
      </trkpt>
      <trkpt lat="48.46827" lon="-4.38269">
        <ele>141</ele>
        <time>2012-02-26T08:41:09.46</time>
      </trkpt>
      <trkpt lat="48.46824" lon="-4.38267">
        <ele>141</ele>
        <time>2012-02-26T08:41:10.47</time>
      </trkpt>
      <trkpt lat="48.46821" lon="-4.38267">
        <ele>141</ele>
        <time>2012-02-26T08:41:11.46</time>
      </trkpt>
      <trkpt lat="48.46817" lon="-4.38267">
        <ele>141</ele>
        <time>2012-02-26T08:41:12.46</time>
      </trkpt>
      <trkpt lat="48.46815" lon="-4.38264">
        <ele>141</ele>
        <time>2012-02-26T08:41:13.47</time>
      </trkpt>
      <trkpt lat="48.46812" lon="-4.38264">
        <ele>141</ele>
        <time>2012-02-26T08:41:14.46</time>
      </trkpt>
      <trkpt lat="48.46809" lon="-4.38262">
        <ele>141</ele>
        <time>2012-02-26T08:41:15.46</time>
      </trkpt>
      <trkpt lat="48.46803" lon="-4.38262">
        <ele>141</ele>
        <time>2012-02-26T08:41:16.47</time>
      </trkpt>
      <trkpt lat="48.46799" lon="-4.3826">
        <ele>141</ele>
        <time>2012-02-26T08:41:17.45</time>
      </trkpt>
      <trkpt lat="48.46795" lon="-4.3826">
        <ele>140</ele>
        <time>2012-02-26T08:41:18.46</time>
      </trkpt>
      <trkpt lat="48.4679" lon="-4.38258">
        <ele>140</ele>
        <time>2012-02-26T08:41:19.47</time>
      </trkpt>
      <trkpt lat="48.46787" lon="-4.38258">
        <ele>141</ele>
        <time>2012-02-26T08:41:20.46</time>
      </trkpt>
      <trkpt lat="48.46783" lon="-4.38258">
        <ele>141</ele>
        <time>2012-02-26T08:41:21.55</time>
      </trkpt>
      <trkpt lat="48.46779" lon="-4.38256">
        <ele>141</ele>
        <time>2012-02-26T08:41:22.46</time>
      </trkpt>
      <trkpt lat="48.46774" lon="-4.38254">
        <ele>142</ele>
        <time>2012-02-26T08:41:23.45</time>
      </trkpt>
      <trkpt lat="48.46769" lon="-4.38254">
        <ele>142</ele>
        <time>2012-02-26T08:41:24.46</time>
      </trkpt>
      <trkpt lat="48.46763" lon="-4.38251">
        <ele>143</ele>
        <time>2012-02-26T08:41:25.46</time>
      </trkpt>
      <trkpt lat="48.46758" lon="-4.38249">
        <ele>143</ele>
        <time>2012-02-26T08:41:26.45</time>
      </trkpt>
      <trkpt lat="48.46753" lon="-4.38247">
        <ele>144</ele>
        <time>2012-02-26T08:41:27.46</time>
      </trkpt>
      <trkpt lat="48.46747" lon="-4.38245">
        <ele>144</ele>
        <time>2012-02-26T08:41:28.47</time>
      </trkpt>
      <trkpt lat="48.46742" lon="-4.38241">
        <ele>144</ele>
        <time>2012-02-26T08:41:29.46</time>
      </trkpt>
      <trkpt lat="48.46737" lon="-4.38239">
        <ele>144</ele>
        <time>2012-02-26T08:41:30.46</time>
      </trkpt>
      <trkpt lat="48.46731" lon="-4.38236">
        <ele>144</ele>
        <time>2012-02-26T08:41:31.46</time>
      </trkpt>
      <trkpt lat="48.46726" lon="-4.38234">
        <ele>144</ele>
        <time>2012-02-26T08:41:32.46</time>
      </trkpt>
      <trkpt lat="48.46722" lon="-4.38232">
        <ele>144</ele>
        <time>2012-02-26T08:41:33.46</time>
      </trkpt>
      <trkpt lat="48.46717" lon="-4.38228">
        <ele>144</ele>
        <time>2012-02-26T08:41:34.46</time>
      </trkpt>
      <trkpt lat="48.46713" lon="-4.38226">
        <ele>144</ele>
        <time>2012-02-26T08:41:35.46</time>
      </trkpt>
      <trkpt lat="48.46709" lon="-4.38221">
        <ele>144</ele>
        <time>2012-02-26T08:41:36.47</time>
      </trkpt>
      <trkpt lat="48.46704" lon="-4.38217">
        <ele>145</ele>
        <time>2012-02-26T08:41:37.46</time>
      </trkpt>
      <trkpt lat="48.46701" lon="-4.38215">
        <ele>145</ele>
        <time>2012-02-26T08:41:38.46</time>
      </trkpt>
      <trkpt lat="48.46698" lon="-4.38211">
        <ele>145</ele>
        <time>2012-02-26T08:41:39.46</time>
      </trkpt>
      <trkpt lat="48.46694" lon="-4.38206">
        <ele>145</ele>
        <time>2012-02-26T08:41:40.47</time>
      </trkpt>
      <trkpt lat="48.46691" lon="-4.38202">
        <ele>145</ele>
        <time>2012-02-26T08:41:41.46</time>
      </trkpt>
      <trkpt lat="48.46687" lon="-4.382">
        <ele>145</ele>
        <time>2012-02-26T08:41:42.46</time>
      </trkpt>
      <trkpt lat="48.46684" lon="-4.38196">
        <ele>145</ele>
        <time>2012-02-26T08:41:43.45</time>
      </trkpt>
      <trkpt lat="48.46681" lon="-4.38191">
        <ele>145</ele>
        <time>2012-02-26T08:41:44.46</time>
      </trkpt>
      <trkpt lat="48.46678" lon="-4.38187">
        <ele>145</ele>
        <time>2012-02-26T08:41:45.48</time>
      </trkpt>
      <trkpt lat="48.46674" lon="-4.38183">
        <ele>145</ele>
        <time>2012-02-26T08:41:46.46</time>
      </trkpt>
      <trkpt lat="48.46671" lon="-4.38179">
        <ele>145</ele>
        <time>2012-02-26T08:41:47.47</time>
      </trkpt>
      <trkpt lat="48.46668" lon="-4.38176">
        <ele>145</ele>
        <time>2012-02-26T08:41:48.46</time>
      </trkpt>
      <trkpt lat="48.46665" lon="-4.38172">
        <ele>145</ele>
        <time>2012-02-26T08:41:49.46</time>
      </trkpt>
      <trkpt lat="48.46662" lon="-4.3817">
        <ele>145</ele>
        <time>2012-02-26T08:41:50.48</time>
      </trkpt>
      <trkpt lat="48.46658" lon="-4.38166">
        <ele>145</ele>
        <time>2012-02-26T08:41:51.46</time>
      </trkpt>
      <trkpt lat="48.46655" lon="-4.38164">
        <ele>145</ele>
        <time>2012-02-26T08:41:52.46</time>
      </trkpt>
      <trkpt lat="48.46652" lon="-4.38159">
        <ele>145</ele>
        <time>2012-02-26T08:41:53.46</time>
      </trkpt>
      <trkpt lat="48.46649" lon="-4.38157">
        <ele>146</ele>
        <time>2012-02-26T08:41:54.47</time>
      </trkpt>
      <trkpt lat="48.46645" lon="-4.38155">
        <ele>146</ele>
        <time>2012-02-26T08:41:55.44</time>
      </trkpt>
      <trkpt lat="48.46641" lon="-4.38151">
        <ele>146</ele>
        <time>2012-02-26T08:41:56.47</time>
      </trkpt>
      <trkpt lat="48.46638" lon="-4.38148">
        <ele>146</ele>
        <time>2012-02-26T08:41:57.47</time>
      </trkpt>
      <trkpt lat="48.46635" lon="-4.38146">
        <ele>147</ele>
        <time>2012-02-26T08:41:58.46</time>
      </trkpt>
      <trkpt lat="48.46632" lon="-4.38144">
        <ele>146</ele>
        <time>2012-02-26T08:41:59.46</time>
      </trkpt>
      <trkpt lat="48.46628" lon="-4.38142">
        <ele>146</ele>
        <time>2012-02-26T08:42:00.44</time>
      </trkpt>
      <trkpt lat="48.46624" lon="-4.38138">
        <ele>146</ele>
        <time>2012-02-26T08:42:01.46</time>
      </trkpt>
      <trkpt lat="48.46621" lon="-4.38136">
        <ele>146</ele>
        <time>2012-02-26T08:42:02.46</time>
      </trkpt>
      <trkpt lat="48.46618" lon="-4.38133">
        <ele>145</ele>
        <time>2012-02-26T08:42:03.46</time>
      </trkpt>
      <trkpt lat="48.46613" lon="-4.38131">
        <ele>145</ele>
        <time>2012-02-26T08:42:04.46</time>
      </trkpt>
      <trkpt lat="48.4661" lon="-4.38129">
        <ele>145</ele>
        <time>2012-02-26T08:42:05.51</time>
      </trkpt>
      <trkpt lat="48.46606" lon="-4.38129">
        <ele>145</ele>
        <time>2012-02-26T08:42:06.47</time>
      </trkpt>
      <trkpt lat="48.46601" lon="-4.38129">
        <ele>145</ele>
        <time>2012-02-26T08:42:07.47</time>
      </trkpt>
      <trkpt lat="48.46597" lon="-4.38127">
        <ele>144</ele>
        <time>2012-02-26T08:42:08.46</time>
      </trkpt>
      <trkpt lat="48.46593" lon="-4.38127">
        <ele>144</ele>
        <time>2012-02-26T08:42:09.47</time>
      </trkpt>
      <trkpt lat="48.46589" lon="-4.38127">
        <ele>144</ele>
        <time>2012-02-26T08:42:10.46</time>
      </trkpt>
      <trkpt lat="48.46584" lon="-4.38127">
        <ele>144</ele>
        <time>2012-02-26T08:42:11.47</time>
      </trkpt>
      <trkpt lat="48.4658" lon="-4.38127">
        <ele>144</ele>
        <time>2012-02-26T08:42:12.46</time>
      </trkpt>
      <trkpt lat="48.46576" lon="-4.38127">
        <ele>144</ele>
        <time>2012-02-26T08:42:13.50</time>
      </trkpt>
      <trkpt lat="48.46571" lon="-4.38127">
        <ele>144</ele>
        <time>2012-02-26T08:42:14.46</time>
      </trkpt>
      <trkpt lat="48.46567" lon="-4.38127">
        <ele>144</ele>
        <time>2012-02-26T08:42:15.46</time>
      </trkpt>
      <trkpt lat="48.46563" lon="-4.38127">
        <ele>144</ele>
        <time>2012-02-26T08:42:16.46</time>
      </trkpt>
      <trkpt lat="48.46559" lon="-4.38127">
        <ele>145</ele>
        <time>2012-02-26T08:42:17.46</time>
      </trkpt>
      <trkpt lat="48.46554" lon="-4.38127">
        <ele>145</ele>
        <time>2012-02-26T08:42:18.46</time>
      </trkpt>
      <trkpt lat="48.4655" lon="-4.38127">
        <ele>145</ele>
        <time>2012-02-26T08:42:19.46</time>
      </trkpt>
      <trkpt lat="48.46546" lon="-4.38127">
        <ele>145</ele>
        <time>2012-02-26T08:42:20.47</time>
      </trkpt>
      <trkpt lat="48.46541" lon="-4.38127">
        <ele>145</ele>
        <time>2012-02-26T08:42:21.44</time>
      </trkpt>
      <trkpt lat="48.46537" lon="-4.38127">
        <ele>145</ele>
        <time>2012-02-26T08:42:22.52</time>
      </trkpt>
      <trkpt lat="48.46532" lon="-4.38127">
        <ele>145</ele>
        <time>2012-02-26T08:42:23.47</time>
      </trkpt>
      <trkpt lat="48.46527" lon="-4.38129">
        <ele>145</ele>
        <time>2012-02-26T08:42:24.46</time>
      </trkpt>
      <trkpt lat="48.46523" lon="-4.38129">
        <ele>145</ele>
        <time>2012-02-26T08:42:25.47</time>
      </trkpt>
      <trkpt lat="48.46519" lon="-4.38129">
        <ele>145</ele>
        <time>2012-02-26T08:42:26.45</time>
      </trkpt>
      <trkpt lat="48.46515" lon="-4.38131">
        <ele>146</ele>
        <time>2012-02-26T08:42:27.46</time>
      </trkpt>
      <trkpt lat="48.4651" lon="-4.38131">
        <ele>146</ele>
        <time>2012-02-26T08:42:28.43</time>
      </trkpt>
      <trkpt lat="48.46506" lon="-4.38131">
        <ele>146</ele>
        <time>2012-02-26T08:42:29.46</time>
      </trkpt>
      <trkpt lat="48.46502" lon="-4.38133">
        <ele>147</ele>
        <time>2012-02-26T08:42:30.46</time>
      </trkpt>
      <trkpt lat="48.46497" lon="-4.38133">
        <ele>147</ele>
        <time>2012-02-26T08:42:31.47</time>
      </trkpt>
      <trkpt lat="48.46493" lon="-4.38133">
        <ele>147</ele>
        <time>2012-02-26T08:42:32.47</time>
      </trkpt>
      <trkpt lat="48.46489" lon="-4.38136">
        <ele>147</ele>
        <time>2012-02-26T08:42:33.50</time>
      </trkpt>
      <trkpt lat="48.46485" lon="-4.38136">
        <ele>146</ele>
        <time>2012-02-26T08:42:34.46</time>
      </trkpt>
      <trkpt lat="48.4648" lon="-4.38136">
        <ele>145</ele>
        <time>2012-02-26T08:42:35.47</time>
      </trkpt>
      <trkpt lat="48.46476" lon="-4.38136">
        <ele>144</ele>
        <time>2012-02-26T08:42:36.46</time>
      </trkpt>
      <trkpt lat="48.46472" lon="-4.38138">
        <ele>143</ele>
        <time>2012-02-26T08:42:37.46</time>
      </trkpt>
      <trkpt lat="48.46466" lon="-4.38138">
        <ele>143</ele>
        <time>2012-02-26T08:42:38.47</time>
      </trkpt>
      <trkpt lat="48.46462" lon="-4.3814">
        <ele>142</ele>
        <time>2012-02-26T08:42:39.45</time>
      </trkpt>
      <trkpt lat="48.46457" lon="-4.3814">
        <ele>142</ele>
        <time>2012-02-26T08:42:40.46</time>
      </trkpt>
      <trkpt lat="48.46452" lon="-4.3814">
        <ele>144</ele>
        <time>2012-02-26T08:42:41.47</time>
      </trkpt>
      <trkpt lat="48.46447" lon="-4.3814">
        <ele>145</ele>
        <time>2012-02-26T08:42:42.46</time>
      </trkpt>
      <trkpt lat="48.46442" lon="-4.3814">
        <ele>147</ele>
        <time>2012-02-26T08:42:43.46</time>
      </trkpt>
      <trkpt lat="48.46437" lon="-4.3814">
        <ele>148</ele>
        <time>2012-02-26T08:42:44.46</time>
      </trkpt>
      <trkpt lat="48.46432" lon="-4.3814">
        <ele>149</ele>
        <time>2012-02-26T08:42:45.46</time>
      </trkpt>
      <trkpt lat="48.46428" lon="-4.3814">
        <ele>150</ele>
        <time>2012-02-26T08:42:46.46</time>
      </trkpt>
      <trkpt lat="48.46423" lon="-4.3814">
        <ele>151</ele>
        <time>2012-02-26T08:42:47.47</time>
      </trkpt>
      <trkpt lat="48.46419" lon="-4.3814">
        <ele>151</ele>
        <time>2012-02-26T08:42:48.46</time>
      </trkpt>
      <trkpt lat="48.46415" lon="-4.3814">
        <ele>151</ele>
        <time>2012-02-26T08:42:49.46</time>
      </trkpt>
      <trkpt lat="48.46411" lon="-4.3814">
        <ele>152</ele>
        <time>2012-02-26T08:42:50.47</time>
      </trkpt>
      <trkpt lat="48.46407" lon="-4.3814">
        <ele>151</ele>
        <time>2012-02-26T08:42:51.48</time>
      </trkpt>
      <trkpt lat="48.46403" lon="-4.38142">
        <ele>151</ele>
        <time>2012-02-26T08:42:52.46</time>
      </trkpt>
      <trkpt lat="48.46399" lon="-4.38142">
        <ele>151</ele>
        <time>2012-02-26T08:42:53.47</time>
      </trkpt>
      <trkpt lat="48.46394" lon="-4.38142">
        <ele>151</ele>
        <time>2012-02-26T08:42:54.47</time>
      </trkpt>
      <trkpt lat="48.4639" lon="-4.38144">
        <ele>150</ele>
        <time>2012-02-26T08:42:55.46</time>
      </trkpt>
      <trkpt lat="48.46386" lon="-4.38144">
        <ele>150</ele>
        <time>2012-02-26T08:42:56.47</time>
      </trkpt>
      <trkpt lat="48.46382" lon="-4.38144">
        <ele>150</ele>
        <time>2012-02-26T08:42:57.44</time>
      </trkpt>
      <trkpt lat="48.46377" lon="-4.38144">
        <ele>150</ele>
        <time>2012-02-26T08:42:58.46</time>
      </trkpt>
      <trkpt lat="48.46373" lon="-4.38146">
        <ele>150</ele>
        <time>2012-02-26T08:42:59.46</time>
      </trkpt>
      <trkpt lat="48.46369" lon="-4.38146">
        <ele>150</ele>
        <time>2012-02-26T08:43:00.48</time>
      </trkpt>
      <trkpt lat="48.46364" lon="-4.38146">
        <ele>150</ele>
        <time>2012-02-26T08:43:01.45</time>
      </trkpt>
      <trkpt lat="48.46361" lon="-4.38148">
        <ele>150</ele>
        <time>2012-02-26T08:43:02.46</time>
      </trkpt>
      <trkpt lat="48.46358" lon="-4.38148">
        <ele>150</ele>
        <time>2012-02-26T08:43:03.46</time>
      </trkpt>
      <trkpt lat="48.46354" lon="-4.38151">
        <ele>150</ele>
        <time>2012-02-26T08:43:04.46</time>
      </trkpt>
      <trkpt lat="48.46349" lon="-4.38151">
        <ele>150</ele>
        <time>2012-02-26T08:43:05.46</time>
      </trkpt>
      <trkpt lat="48.46345" lon="-4.38151">
        <ele>150</ele>
        <time>2012-02-26T08:43:06.46</time>
      </trkpt>
      <trkpt lat="48.46341" lon="-4.38153">
        <ele>149</ele>
        <time>2012-02-26T08:43:07.46</time>
      </trkpt>
      <trkpt lat="48.46335" lon="-4.38151">
        <ele>149</ele>
        <time>2012-02-26T08:43:08.47</time>
      </trkpt>
      <trkpt lat="48.46331" lon="-4.38148">
        <ele>149</ele>
        <time>2012-02-26T08:43:09.46</time>
      </trkpt>
      <trkpt lat="48.46326" lon="-4.38146">
        <ele>149</ele>
        <time>2012-02-26T08:43:10.46</time>
      </trkpt>
      <trkpt lat="48.46321" lon="-4.38144">
        <ele>149</ele>
        <time>2012-02-26T08:43:11.46</time>
      </trkpt>
      <trkpt lat="48.46316" lon="-4.38142">
        <ele>149</ele>
        <time>2012-02-26T08:43:12.46</time>
      </trkpt>
      <trkpt lat="48.46312" lon="-4.3814">
        <ele>149</ele>
        <time>2012-02-26T08:43:13.46</time>
      </trkpt>
      <trkpt lat="48.46306" lon="-4.38136">
        <ele>149</ele>
        <time>2012-02-26T08:43:14.46</time>
      </trkpt>
      <trkpt lat="48.46302" lon="-4.38133">
        <ele>149</ele>
        <time>2012-02-26T08:43:15.47</time>
      </trkpt>
      <trkpt lat="48.46297" lon="-4.38131">
        <ele>149</ele>
        <time>2012-02-26T08:43:16.46</time>
      </trkpt>
      <trkpt lat="48.46292" lon="-4.38129">
        <ele>149</ele>
        <time>2012-02-26T08:43:17.47</time>
      </trkpt>
      <trkpt lat="48.46287" lon="-4.38127">
        <ele>149</ele>
        <time>2012-02-26T08:43:18.46</time>
      </trkpt>
      <trkpt lat="48.46282" lon="-4.38125">
        <ele>149</ele>
        <time>2012-02-26T08:43:19.46</time>
      </trkpt>
      <trkpt lat="48.46277" lon="-4.38123">
        <ele>149</ele>
        <time>2012-02-26T08:43:20.46</time>
      </trkpt>
      <trkpt lat="48.46272" lon="-4.38121">
        <ele>149</ele>
        <time>2012-02-26T08:43:21.46</time>
      </trkpt>
      <trkpt lat="48.46268" lon="-4.38118">
        <ele>148</ele>
        <time>2012-02-26T08:43:22.47</time>
      </trkpt>
      <trkpt lat="48.46262" lon="-4.38116">
        <ele>148</ele>
        <time>2012-02-26T08:43:23.46</time>
      </trkpt>
      <trkpt lat="48.46257" lon="-4.38114">
        <ele>148</ele>
        <time>2012-02-26T08:43:24.46</time>
      </trkpt>
      <trkpt lat="48.46253" lon="-4.38112">
        <ele>148</ele>
        <time>2012-02-26T08:43:25.56</time>
      </trkpt>
      <trkpt lat="48.46249" lon="-4.3811">
        <ele>148</ele>
        <time>2012-02-26T08:43:26.46</time>
      </trkpt>
      <trkpt lat="48.46244" lon="-4.38108">
        <ele>148</ele>
        <time>2012-02-26T08:43:27.46</time>
      </trkpt>
      <trkpt lat="48.4624" lon="-4.38106">
        <ele>148</ele>
        <time>2012-02-26T08:43:28.47</time>
      </trkpt>
      <trkpt lat="48.46236" lon="-4.38103">
        <ele>148</ele>
        <time>2012-02-26T08:43:29.46</time>
      </trkpt>
      <trkpt lat="48.46231" lon="-4.38103">
        <ele>148</ele>
        <time>2012-02-26T08:43:30.64</time>
      </trkpt>
      <trkpt lat="48.46226" lon="-4.38101">
        <ele>148</ele>
        <time>2012-02-26T08:43:31.47</time>
      </trkpt>
      <trkpt lat="48.46222" lon="-4.38099">
        <ele>149</ele>
        <time>2012-02-26T08:43:32.48</time>
      </trkpt>
      <trkpt lat="48.46217" lon="-4.38097">
        <ele>149</ele>
        <time>2012-02-26T08:43:33.46</time>
      </trkpt>
      <trkpt lat="48.46213" lon="-4.38095">
        <ele>149</ele>
        <time>2012-02-26T08:43:34.47</time>
      </trkpt>
      <trkpt lat="48.46209" lon="-4.38093">
        <ele>150</ele>
        <time>2012-02-26T08:43:35.47</time>
      </trkpt>
      <trkpt lat="48.46203" lon="-4.38091">
        <ele>150</ele>
        <time>2012-02-26T08:43:36.46</time>
      </trkpt>
      <trkpt lat="48.46199" lon="-4.38088">
        <ele>150</ele>
        <time>2012-02-26T08:43:37.47</time>
      </trkpt>
      <trkpt lat="48.46195" lon="-4.38088">
        <ele>150</ele>
        <time>2012-02-26T08:43:38.47</time>
      </trkpt>
      <trkpt lat="48.46191" lon="-4.38086">
        <ele>150</ele>
        <time>2012-02-26T08:43:39.46</time>
      </trkpt>
      <trkpt lat="48.46186" lon="-4.38084">
        <ele>150</ele>
        <time>2012-02-26T08:43:40.47</time>
      </trkpt>
      <trkpt lat="48.46182" lon="-4.38082">
        <ele>150</ele>
        <time>2012-02-26T08:43:41.53</time>
      </trkpt>
      <trkpt lat="48.46179" lon="-4.38082">
        <ele>149</ele>
        <time>2012-02-26T08:43:42.46</time>
      </trkpt>
      <trkpt lat="48.46174" lon="-4.38084">
        <ele>149</ele>
        <time>2012-02-26T08:43:43.46</time>
      </trkpt>
      <trkpt lat="48.46171" lon="-4.38086">
        <ele>149</ele>
        <time>2012-02-26T08:43:44.47</time>
      </trkpt>
      <trkpt lat="48.46169" lon="-4.38088">
        <ele>149</ele>
        <time>2012-02-26T08:43:45.46</time>
      </trkpt>
      <trkpt lat="48.46167" lon="-4.38093">
        <ele>149</ele>
        <time>2012-02-26T08:43:46.46</time>
      </trkpt>
      <trkpt lat="48.46165" lon="-4.38097">
        <ele>149</ele>
        <time>2012-02-26T08:43:47.47</time>
      </trkpt>
      <trkpt lat="48.46164" lon="-4.38101">
        <ele>149</ele>
        <time>2012-02-26T08:43:48.46</time>
      </trkpt>
      <trkpt lat="48.46163" lon="-4.38106">
        <ele>149</ele>
        <time>2012-02-26T08:43:49.44</time>
      </trkpt>
      <trkpt lat="48.46162" lon="-4.3811">
        <ele>149</ele>
        <time>2012-02-26T08:43:50.47</time>
      </trkpt>
      <trkpt lat="48.46161" lon="-4.38116">
        <ele>149</ele>
        <time>2012-02-26T08:43:51.46</time>
      </trkpt>
      <trkpt lat="48.46159" lon="-4.38123">
        <ele>148</ele>
        <time>2012-02-26T08:43:52.46</time>
      </trkpt>
      <trkpt lat="48.46158" lon="-4.38129">
        <ele>148</ele>
        <time>2012-02-26T08:43:53.47</time>
      </trkpt>
      <trkpt lat="48.46157" lon="-4.38133">
        <ele>147</ele>
        <time>2012-02-26T08:43:54.47</time>
      </trkpt>
      <trkpt lat="48.46157" lon="-4.3814">
        <ele>147</ele>
        <time>2012-02-26T08:43:55.46</time>
      </trkpt>
      <trkpt lat="48.46156" lon="-4.38146">
        <ele>147</ele>
        <time>2012-02-26T08:43:56.47</time>
      </trkpt>
      <trkpt lat="48.46155" lon="-4.38153">
        <ele>146</ele>
        <time>2012-02-26T08:43:57.48</time>
      </trkpt>
      <trkpt lat="48.46155" lon="-4.38159">
        <ele>146</ele>
        <time>2012-02-26T08:43:58.46</time>
      </trkpt>
      <trkpt lat="48.46154" lon="-4.38166">
        <ele>146</ele>
        <time>2012-02-26T08:43:59.47</time>
      </trkpt>
      <trkpt lat="48.46154" lon="-4.38172">
        <ele>145</ele>
        <time>2012-02-26T08:44:00.47</time>
      </trkpt>
      <trkpt lat="48.46153" lon="-4.38179">
        <ele>145</ele>
        <time>2012-02-26T08:44:01.46</time>
      </trkpt>
      <trkpt lat="48.46153" lon="-4.38185">
        <ele>145</ele>
        <time>2012-02-26T08:44:02.47</time>
      </trkpt>
      <trkpt lat="48.46152" lon="-4.38191">
        <ele>145</ele>
        <time>2012-02-26T08:44:03.47</time>
      </trkpt>
      <trkpt lat="48.46152" lon="-4.38198">
        <ele>145</ele>
        <time>2012-02-26T08:44:04.46</time>
      </trkpt>
      <trkpt lat="48.46151" lon="-4.38204">
        <ele>145</ele>
        <time>2012-02-26T08:44:05.47</time>
      </trkpt>
      <trkpt lat="48.46151" lon="-4.38211">
        <ele>144</ele>
        <time>2012-02-26T08:44:06.47</time>
      </trkpt>
      <trkpt lat="48.46151" lon="-4.38215">
        <ele>144</ele>
        <time>2012-02-26T08:44:07.46</time>
      </trkpt>
      <trkpt lat="48.4615" lon="-4.38221">
        <ele>144</ele>
        <time>2012-02-26T08:44:08.47</time>
      </trkpt>
      <trkpt lat="48.4615" lon="-4.38228">
        <ele>144</ele>
        <time>2012-02-26T08:44:09.47</time>
      </trkpt>
      <trkpt lat="48.46149" lon="-4.38234">
        <ele>144</ele>
        <time>2012-02-26T08:44:10.46</time>
      </trkpt>
      <trkpt lat="48.46149" lon="-4.38241">
        <ele>144</ele>
        <time>2012-02-26T08:44:11.47</time>
      </trkpt>
      <trkpt lat="48.46148" lon="-4.38247">
        <ele>144</ele>
        <time>2012-02-26T08:44:12.47</time>
      </trkpt>
      <trkpt lat="48.46148" lon="-4.38251">
        <ele>143</ele>
        <time>2012-02-26T08:44:13.46</time>
      </trkpt>
      <trkpt lat="48.46147" lon="-4.38258">
        <ele>143</ele>
        <time>2012-02-26T08:44:14.46</time>
      </trkpt>
      <trkpt lat="48.46147" lon="-4.38264">
        <ele>143</ele>
        <time>2012-02-26T08:44:15.47</time>
      </trkpt>
      <trkpt lat="48.46146" lon="-4.38271">
        <ele>143</ele>
        <time>2012-02-26T08:44:16.48</time>
      </trkpt>
      <trkpt lat="48.46144" lon="-4.38277">
        <ele>143</ele>
        <time>2012-02-26T08:44:17.46</time>
      </trkpt>
      <trkpt lat="48.46144" lon="-4.38284">
        <ele>143</ele>
        <time>2012-02-26T08:44:18.47</time>
      </trkpt>
      <trkpt lat="48.46143" lon="-4.3829">
        <ele>144</ele>
        <time>2012-02-26T08:44:19.47</time>
      </trkpt>
      <trkpt lat="48.46142" lon="-4.38294">
        <ele>144</ele>
        <time>2012-02-26T08:44:20.46</time>
      </trkpt>
      <trkpt lat="48.46142" lon="-4.38301">
        <ele>144</ele>
        <time>2012-02-26T08:44:21.47</time>
      </trkpt>
      <trkpt lat="48.46141" lon="-4.38307">
        <ele>144</ele>
        <time>2012-02-26T08:44:22.47</time>
      </trkpt>
      <trkpt lat="48.4614" lon="-4.38314">
        <ele>144</ele>
        <time>2012-02-26T08:44:23.46</time>
      </trkpt>
      <trkpt lat="48.4614" lon="-4.3832">
        <ele>144</ele>
        <time>2012-02-26T08:44:24.47</time>
      </trkpt>
      <trkpt lat="48.46139" lon="-4.38324">
        <ele>144</ele>
        <time>2012-02-26T08:44:25.47</time>
      </trkpt>
      <trkpt lat="48.46138" lon="-4.38331">
        <ele>143</ele>
        <time>2012-02-26T08:44:26.46</time>
      </trkpt>
      <trkpt lat="48.46137" lon="-4.38337">
        <ele>143</ele>
        <time>2012-02-26T08:44:27.47</time>
      </trkpt>
      <trkpt lat="48.46137" lon="-4.38344">
        <ele>144</ele>
        <time>2012-02-26T08:44:28.47</time>
      </trkpt>
      <trkpt lat="48.46136" lon="-4.3835">
        <ele>144</ele>
        <time>2012-02-26T08:44:29.46</time>
      </trkpt>
      <trkpt lat="48.46135" lon="-4.38357">
        <ele>144</ele>
        <time>2012-02-26T08:44:30.46</time>
      </trkpt>
      <trkpt lat="48.46134" lon="-4.38363">
        <ele>144</ele>
        <time>2012-02-26T08:44:31.47</time>
      </trkpt>
      <trkpt lat="48.46134" lon="-4.38367">
        <ele>144</ele>
        <time>2012-02-26T08:44:32.46</time>
      </trkpt>
      <trkpt lat="48.46133" lon="-4.38374">
        <ele>144</ele>
        <time>2012-02-26T08:44:33.46</time>
      </trkpt>
      <trkpt lat="48.46132" lon="-4.3838">
        <ele>144</ele>
        <time>2012-02-26T08:44:34.47</time>
      </trkpt>
      <trkpt lat="48.4613" lon="-4.38387">
        <ele>144</ele>
        <time>2012-02-26T08:44:35.48</time>
      </trkpt>
      <trkpt lat="48.46129" lon="-4.38393">
        <ele>144</ele>
        <time>2012-02-26T08:44:36.46</time>
      </trkpt>
      <trkpt lat="48.46128" lon="-4.384">
        <ele>144</ele>
        <time>2012-02-26T08:44:37.47</time>
      </trkpt>
      <trkpt lat="48.46127" lon="-4.38408">
        <ele>144</ele>
        <time>2012-02-26T08:44:38.48</time>
      </trkpt>
      <trkpt lat="48.46126" lon="-4.38415">
        <ele>144</ele>
        <time>2012-02-26T08:44:39.46</time>
      </trkpt>
      <trkpt lat="48.46125" lon="-4.38421">
        <ele>144</ele>
        <time>2012-02-26T08:44:40.47</time>
      </trkpt>
      <trkpt lat="48.46124" lon="-4.38427">
        <ele>144</ele>
        <time>2012-02-26T08:44:41.46</time>
      </trkpt>
      <trkpt lat="48.46123" lon="-4.38434">
        <ele>144</ele>
        <time>2012-02-26T08:44:42.46</time>
      </trkpt>
      <trkpt lat="48.46122" lon="-4.3844">
        <ele>144</ele>
        <time>2012-02-26T08:44:43.46</time>
      </trkpt>
      <trkpt lat="48.46121" lon="-4.38447">
        <ele>144</ele>
        <time>2012-02-26T08:44:44.47</time>
      </trkpt>
      <trkpt lat="48.4612" lon="-4.38453">
        <ele>144</ele>
        <time>2012-02-26T08:44:45.46</time>
      </trkpt>
      <trkpt lat="48.46119" lon="-4.38457">
        <ele>144</ele>
        <time>2012-02-26T08:44:46.46</time>
      </trkpt>
      <trkpt lat="48.46118" lon="-4.38464">
        <ele>144</ele>
        <time>2012-02-26T08:44:47.46</time>
      </trkpt>
      <trkpt lat="48.46115" lon="-4.3847">
        <ele>144</ele>
        <time>2012-02-26T08:44:48.47</time>
      </trkpt>
      <trkpt lat="48.46114" lon="-4.38475">
        <ele>145</ele>
        <time>2012-02-26T08:44:49.46</time>
      </trkpt>
      <trkpt lat="48.46113" lon="-4.38479">
        <ele>145</ele>
        <time>2012-02-26T08:44:50.47</time>
      </trkpt>
      <trkpt lat="48.46111" lon="-4.38483">
        <ele>145</ele>
        <time>2012-02-26T08:44:51.46</time>
      </trkpt>
      <trkpt lat="48.46109" lon="-4.38488">
        <ele>145</ele>
        <time>2012-02-26T08:44:52.46</time>
      </trkpt>
      <trkpt lat="48.46107" lon="-4.38492">
        <ele>145</ele>
        <time>2012-02-26T08:44:53.45</time>
      </trkpt>
      <trkpt lat="48.46104" lon="-4.38492">
        <ele>145</ele>
        <time>2012-02-26T08:44:54.46</time>
      </trkpt>
      <trkpt lat="48.46099" lon="-4.3849">
        <ele>146</ele>
        <time>2012-02-26T08:44:55.47</time>
      </trkpt>
      <trkpt lat="48.46096" lon="-4.38488">
        <ele>146</ele>
        <time>2012-02-26T08:44:56.45</time>
      </trkpt>
      <trkpt lat="48.4609" lon="-4.38483">
        <ele>146</ele>
        <time>2012-02-26T08:44:57.44</time>
      </trkpt>
      <trkpt lat="48.46084" lon="-4.38481">
        <ele>146</ele>
        <time>2012-02-26T08:44:58.46</time>
      </trkpt>
      <trkpt lat="48.46078" lon="-4.38477">
        <ele>146</ele>
        <time>2012-02-26T08:44:59.46</time>
      </trkpt>
      <trkpt lat="48.46073" lon="-4.38473">
        <ele>146</ele>
        <time>2012-02-26T08:45:00.46</time>
      </trkpt>
      <trkpt lat="48.46066" lon="-4.38468">
        <ele>147</ele>
        <time>2012-02-26T08:45:01.46</time>
      </trkpt>
      <trkpt lat="48.46061" lon="-4.38464">
        <ele>147</ele>
        <time>2012-02-26T08:45:02.50</time>
      </trkpt>
      <trkpt lat="48.46054" lon="-4.3846">
        <ele>148</ele>
        <time>2012-02-26T08:45:03.46</time>
      </trkpt>
      <trkpt lat="48.46049" lon="-4.38455">
        <ele>149</ele>
        <time>2012-02-26T08:45:04.46</time>
      </trkpt>
      <trkpt lat="48.46043" lon="-4.38451">
        <ele>149</ele>
        <time>2012-02-26T08:45:05.46</time>
      </trkpt>
      <trkpt lat="48.46037" lon="-4.38449">
        <ele>149</ele>
        <time>2012-02-26T08:45:06.46</time>
      </trkpt>
      <trkpt lat="48.46031" lon="-4.38445">
        <ele>150</ele>
        <time>2012-02-26T08:45:07.49</time>
      </trkpt>
      <trkpt lat="48.46024" lon="-4.3844">
        <ele>150</ele>
        <time>2012-02-26T08:45:08.46</time>
      </trkpt>
      <trkpt lat="48.46019" lon="-4.38436">
        <ele>150</ele>
        <time>2012-02-26T08:45:09.46</time>
      </trkpt>
      <trkpt lat="48.46012" lon="-4.38432">
        <ele>150</ele>
        <time>2012-02-26T08:45:10.46</time>
      </trkpt>
      <trkpt lat="48.46006" lon="-4.3843">
        <ele>150</ele>
        <time>2012-02-26T08:45:11.46</time>
      </trkpt>
      <trkpt lat="48.46" lon="-4.38425">
        <ele>151</ele>
        <time>2012-02-26T08:45:12.46</time>
      </trkpt>
      <trkpt lat="48.45994" lon="-4.38421">
        <ele>151</ele>
        <time>2012-02-26T08:45:13.46</time>
      </trkpt>
      <trkpt lat="48.45988" lon="-4.38417">
        <ele>151</ele>
        <time>2012-02-26T08:45:14.46</time>
      </trkpt>
      <trkpt lat="48.45981" lon="-4.38412">
        <ele>151</ele>
        <time>2012-02-26T08:45:15.46</time>
      </trkpt>
      <trkpt lat="48.45975" lon="-4.38408">
        <ele>151</ele>
        <time>2012-02-26T08:45:16.46</time>
      </trkpt>
      <trkpt lat="48.45968" lon="-4.38404">
        <ele>151</ele>
        <time>2012-02-26T08:45:17.46</time>
      </trkpt>
      <trkpt lat="48.45962" lon="-4.384">
        <ele>151</ele>
        <time>2012-02-26T08:45:18.46</time>
      </trkpt>
      <trkpt lat="48.45957" lon="-4.38395">
        <ele>151</ele>
        <time>2012-02-26T08:45:19.47</time>
      </trkpt>
      <trkpt lat="48.4595" lon="-4.38391">
        <ele>151</ele>
        <time>2012-02-26T08:45:20.47</time>
      </trkpt>
      <trkpt lat="48.45944" lon="-4.38387">
        <ele>151</ele>
        <time>2012-02-26T08:45:21.47</time>
      </trkpt>
      <trkpt lat="48.45937" lon="-4.38382">
        <ele>150</ele>
        <time>2012-02-26T08:45:22.46</time>
      </trkpt>
      <trkpt lat="48.45932" lon="-4.38378">
        <ele>150</ele>
        <time>2012-02-26T08:45:23.46</time>
      </trkpt>
      <trkpt lat="48.45927" lon="-4.38374">
        <ele>150</ele>
        <time>2012-02-26T08:45:24.46</time>
      </trkpt>
      <trkpt lat="48.45921" lon="-4.3837">
        <ele>150</ele>
        <time>2012-02-26T08:45:25.47</time>
      </trkpt>
      <trkpt lat="48.45916" lon="-4.38367">
        <ele>150</ele>
        <time>2012-02-26T08:45:26.47</time>
      </trkpt>
      <trkpt lat="48.45911" lon="-4.38363">
        <ele>150</ele>
        <time>2012-02-26T08:45:27.47</time>
      </trkpt>
      <trkpt lat="48.45905" lon="-4.38359">
        <ele>150</ele>
        <time>2012-02-26T08:45:28.48</time>
      </trkpt>
      <trkpt lat="48.459" lon="-4.38357">
        <ele>150</ele>
        <time>2012-02-26T08:45:29.46</time>
      </trkpt>
      <trkpt lat="48.45893" lon="-4.38354">
        <ele>150</ele>
        <time>2012-02-26T08:45:30.47</time>
      </trkpt>
      <trkpt lat="48.45888" lon="-4.38352">
        <ele>150</ele>
        <time>2012-02-26T08:45:31.48</time>
      </trkpt>
      <trkpt lat="48.45884" lon="-4.3835">
        <ele>150</ele>
        <time>2012-02-26T08:45:32.46</time>
      </trkpt>
      <trkpt lat="48.45878" lon="-4.38348">
        <ele>150</ele>
        <time>2012-02-26T08:45:33.47</time>
      </trkpt>
      <trkpt lat="48.45874" lon="-4.38346">
        <ele>150</ele>
        <time>2012-02-26T08:45:34.47</time>
      </trkpt>
      <trkpt lat="48.45869" lon="-4.38344">
        <ele>150</ele>
        <time>2012-02-26T08:45:35.46</time>
      </trkpt>
      <trkpt lat="48.45863" lon="-4.38342">
        <ele>150</ele>
        <time>2012-02-26T08:45:36.47</time>
      </trkpt>
      <trkpt lat="48.45859" lon="-4.38339">
        <ele>150</ele>
        <time>2012-02-26T08:45:37.47</time>
      </trkpt>
      <trkpt lat="48.45854" lon="-4.38337">
        <ele>150</ele>
        <time>2012-02-26T08:45:38.46</time>
      </trkpt>
      <trkpt lat="48.45848" lon="-4.38335">
        <ele>150</ele>
        <time>2012-02-26T08:45:39.47</time>
      </trkpt>
      <trkpt lat="48.45843" lon="-4.38335">
        <ele>150</ele>
        <time>2012-02-26T08:45:40.47</time>
      </trkpt>
      <trkpt lat="48.45838" lon="-4.38333">
        <ele>150</ele>
        <time>2012-02-26T08:45:41.52</time>
      </trkpt>
      <trkpt lat="48.45832" lon="-4.38331">
        <ele>150</ele>
        <time>2012-02-26T08:45:42.46</time>
      </trkpt>
      <trkpt lat="48.45827" lon="-4.38329">
        <ele>150</ele>
        <time>2012-02-26T08:45:43.46</time>
      </trkpt>
      <trkpt lat="48.45821" lon="-4.38327">
        <ele>149</ele>
        <time>2012-02-26T08:45:44.48</time>
      </trkpt>
      <trkpt lat="48.45816" lon="-4.38322">
        <ele>149</ele>
        <time>2012-02-26T08:45:45.46</time>
      </trkpt>
      <trkpt lat="48.45811" lon="-4.3832">
        <ele>149</ele>
        <time>2012-02-26T08:45:46.47</time>
      </trkpt>
      <trkpt lat="48.45804" lon="-4.38318">
        <ele>149</ele>
        <time>2012-02-26T08:45:47.48</time>
      </trkpt>
      <trkpt lat="48.45799" lon="-4.38316">
        <ele>149</ele>
        <time>2012-02-26T08:45:48.46</time>
      </trkpt>
      <trkpt lat="48.45793" lon="-4.38314">
        <ele>149</ele>
        <time>2012-02-26T08:45:49.48</time>
      </trkpt>
      <trkpt lat="48.45786" lon="-4.38312">
        <ele>149</ele>
        <time>2012-02-26T08:45:50.45</time>
      </trkpt>
      <trkpt lat="48.45781" lon="-4.38307">
        <ele>149</ele>
        <time>2012-02-26T08:45:51.46</time>
      </trkpt>
      <trkpt lat="48.45774" lon="-4.38303">
        <ele>149</ele>
        <time>2012-02-26T08:45:52.46</time>
      </trkpt>
      <trkpt lat="48.45768" lon="-4.38299">
        <ele>149</ele>
        <time>2012-02-26T08:45:53.46</time>
      </trkpt>
      <trkpt lat="48.45761" lon="-4.38294">
        <ele>149</ele>
        <time>2012-02-26T08:45:54.46</time>
      </trkpt>
      <trkpt lat="48.45756" lon="-4.38288">
        <ele>149</ele>
        <time>2012-02-26T08:45:55.46</time>
      </trkpt>
      <trkpt lat="48.45751" lon="-4.38279">
        <ele>148</ele>
        <time>2012-02-26T08:45:56.46</time>
      </trkpt>
      <trkpt lat="48.45745" lon="-4.38271">
        <ele>148</ele>
        <time>2012-02-26T08:45:57.49</time>
      </trkpt>
      <trkpt lat="48.45739" lon="-4.38264">
        <ele>148</ele>
        <time>2012-02-26T08:45:58.48</time>
      </trkpt>
      <trkpt lat="48.45734" lon="-4.38256">
        <ele>148</ele>
        <time>2012-02-26T08:45:59.46</time>
      </trkpt>
      <trkpt lat="48.45729" lon="-4.38247">
        <ele>148</ele>
        <time>2012-02-26T08:46:00.44</time>
      </trkpt>
      <trkpt lat="48.45724" lon="-4.38239">
        <ele>148</ele>
        <time>2012-02-26T08:46:01.46</time>
      </trkpt>
      <trkpt lat="48.4572" lon="-4.3823">
        <ele>148</ele>
        <time>2012-02-26T08:46:02.46</time>
      </trkpt>
      <trkpt lat="48.45715" lon="-4.38221">
        <ele>148</ele>
        <time>2012-02-26T08:46:03.46</time>
      </trkpt>
      <trkpt lat="48.45711" lon="-4.38213">
        <ele>147</ele>
        <time>2012-02-26T08:46:04.47</time>
      </trkpt>
      <trkpt lat="48.45707" lon="-4.38206">
        <ele>147</ele>
        <time>2012-02-26T08:46:05.47</time>
      </trkpt>
      <trkpt lat="48.45703" lon="-4.382">
        <ele>146</ele>
        <time>2012-02-26T08:46:06.47</time>
      </trkpt>
      <trkpt lat="48.457" lon="-4.38194">
        <ele>146</ele>
        <time>2012-02-26T08:46:07.46</time>
      </trkpt>
      <trkpt lat="48.45697" lon="-4.38185">
        <ele>146</ele>
        <time>2012-02-26T08:46:08.46</time>
      </trkpt>
      <trkpt lat="48.45694" lon="-4.38179">
        <ele>146</ele>
        <time>2012-02-26T08:46:09.46</time>
      </trkpt>
      <trkpt lat="48.45691" lon="-4.38174">
        <ele>146</ele>
        <time>2012-02-26T08:46:10.44</time>
      </trkpt>
      <trkpt lat="48.45686" lon="-4.3817">
        <ele>145</ele>
        <time>2012-02-26T08:46:11.46</time>
      </trkpt>
      <trkpt lat="48.45681" lon="-4.38168">
        <ele>145</ele>
        <time>2012-02-26T08:46:12.46</time>
      </trkpt>
      <trkpt lat="48.45676" lon="-4.38168">
        <ele>145</ele>
        <time>2012-02-26T08:46:13.46</time>
      </trkpt>
      <trkpt lat="48.4567" lon="-4.38168">
        <ele>145</ele>
        <time>2012-02-26T08:46:14.46</time>
      </trkpt>
      <trkpt lat="48.45665" lon="-4.3817">
        <ele>144</ele>
        <time>2012-02-26T08:46:15.49</time>
      </trkpt>
      <trkpt lat="48.45659" lon="-4.38172">
        <ele>144</ele>
        <time>2012-02-26T08:46:16.46</time>
      </trkpt>
      <trkpt lat="48.45653" lon="-4.38174">
        <ele>144</ele>
        <time>2012-02-26T08:46:17.46</time>
      </trkpt>
      <trkpt lat="48.45648" lon="-4.38176">
        <ele>144</ele>
        <time>2012-02-26T08:46:18.46</time>
      </trkpt>
      <trkpt lat="48.45642" lon="-4.38176">
        <ele>144</ele>
        <time>2012-02-26T08:46:19.47</time>
      </trkpt>
      <trkpt lat="48.45637" lon="-4.38176">
        <ele>144</ele>
        <time>2012-02-26T08:46:20.47</time>
      </trkpt>
      <trkpt lat="48.45632" lon="-4.38176">
        <ele>144</ele>
        <time>2012-02-26T08:46:21.47</time>
      </trkpt>
      <trkpt lat="48.45626" lon="-4.38174">
        <ele>144</ele>
        <time>2012-02-26T08:46:22.48</time>
      </trkpt>
      <trkpt lat="48.45621" lon="-4.38172">
        <ele>144</ele>
        <time>2012-02-26T08:46:23.46</time>
      </trkpt>
      <trkpt lat="48.45617" lon="-4.3817">
        <ele>144</ele>
        <time>2012-02-26T08:46:24.47</time>
      </trkpt>
      <trkpt lat="48.45611" lon="-4.38166">
        <ele>144</ele>
        <time>2012-02-26T08:46:25.46</time>
      </trkpt>
      <trkpt lat="48.45607" lon="-4.38164">
        <ele>144</ele>
        <time>2012-02-26T08:46:26.44</time>
      </trkpt>
      <trkpt lat="48.45604" lon="-4.38159">
        <ele>144</ele>
        <time>2012-02-26T08:46:27.47</time>
      </trkpt>
      <trkpt lat="48.45599" lon="-4.38157">
        <ele>145</ele>
        <time>2012-02-26T08:46:28.48</time>
      </trkpt>
      <trkpt lat="48.45596" lon="-4.38153">
        <ele>144</ele>
        <time>2012-02-26T08:46:29.46</time>
      </trkpt>
      <trkpt lat="48.45592" lon="-4.38148">
        <ele>144</ele>
        <time>2012-02-26T08:46:30.47</time>
      </trkpt>
      <trkpt lat="48.45589" lon="-4.38144">
        <ele>144</ele>
        <time>2012-02-26T08:46:31.51</time>
      </trkpt>
      <trkpt lat="48.45584" lon="-4.3814">
        <ele>144</ele>
        <time>2012-02-26T08:46:32.46</time>
      </trkpt>
      <trkpt lat="48.45581" lon="-4.38133">
        <ele>144</ele>
        <time>2012-02-26T08:46:33.47</time>
      </trkpt>
      <trkpt lat="48.45577" lon="-4.38129">
        <ele>144</ele>
        <time>2012-02-26T08:46:34.47</time>
      </trkpt>
      <trkpt lat="48.45574" lon="-4.38125">
        <ele>145</ele>
        <time>2012-02-26T08:46:35.46</time>
      </trkpt>
      <trkpt lat="48.45569" lon="-4.38118">
        <ele>145</ele>
        <time>2012-02-26T08:46:36.47</time>
      </trkpt>
      <trkpt lat="48.45565" lon="-4.38114">
        <ele>145</ele>
        <time>2012-02-26T08:46:37.46</time>
      </trkpt>
      <trkpt lat="48.45561" lon="-4.3811">
        <ele>145</ele>
        <time>2012-02-26T08:46:38.46</time>
      </trkpt>
      <trkpt lat="48.45556" lon="-4.38106">
        <ele>145</ele>
        <time>2012-02-26T08:46:39.46</time>
      </trkpt>
      <trkpt lat="48.45552" lon="-4.38101">
        <ele>145</ele>
        <time>2012-02-26T08:46:40.47</time>
      </trkpt>
      <trkpt lat="48.45548" lon="-4.38097">
        <ele>145</ele>
        <time>2012-02-26T08:46:41.45</time>
      </trkpt>
      <trkpt lat="48.45544" lon="-4.38093">
        <ele>145</ele>
        <time>2012-02-26T08:46:42.44</time>
      </trkpt>
      <trkpt lat="48.45539" lon="-4.38088">
        <ele>145</ele>
        <time>2012-02-26T08:46:43.46</time>
      </trkpt>
      <trkpt lat="48.45535" lon="-4.38084">
        <ele>145</ele>
        <time>2012-02-26T08:46:44.47</time>
      </trkpt>
      <trkpt lat="48.45531" lon="-4.3808">
        <ele>146</ele>
        <time>2012-02-26T08:46:45.48</time>
      </trkpt>
      <trkpt lat="48.45526" lon="-4.38076">
        <ele>146</ele>
        <time>2012-02-26T08:46:46.48</time>
      </trkpt>
      <trkpt lat="48.45523" lon="-4.38071">
        <ele>147</ele>
        <time>2012-02-26T08:46:47.52</time>
      </trkpt>
      <trkpt lat="48.4552" lon="-4.38067">
        <ele>147</ele>
        <time>2012-02-26T08:46:48.48</time>
      </trkpt>
      <trkpt lat="48.45516" lon="-4.38063">
        <ele>148</ele>
        <time>2012-02-26T08:46:49.48</time>
      </trkpt>
      <trkpt lat="48.45513" lon="-4.38058">
        <ele>148</ele>
        <time>2012-02-26T08:46:50.48</time>
      </trkpt>
      <trkpt lat="48.45509" lon="-4.38054">
        <ele>148</ele>
        <time>2012-02-26T08:46:51.48</time>
      </trkpt>
      <trkpt lat="48.45505" lon="-4.3805">
        <ele>149</ele>
        <time>2012-02-26T08:46:52.48</time>
      </trkpt>
      <trkpt lat="48.45502" lon="-4.38046">
        <ele>149</ele>
        <time>2012-02-26T08:46:53.48</time>
      </trkpt>
      <trkpt lat="48.45499" lon="-4.38043">
        <ele>149</ele>
        <time>2012-02-26T08:46:54.46</time>
      </trkpt>
      <trkpt lat="48.45495" lon="-4.38043">
        <ele>149</ele>
        <time>2012-02-26T08:46:55.47</time>
      </trkpt>
      <trkpt lat="48.45491" lon="-4.38043">
        <ele>150</ele>
        <time>2012-02-26T08:46:56.48</time>
      </trkpt>
      <trkpt lat="48.45488" lon="-4.38046">
        <ele>150</ele>
        <time>2012-02-26T08:46:57.46</time>
      </trkpt>
      <trkpt lat="48.45484" lon="-4.38048">
        <ele>150</ele>
        <time>2012-02-26T08:46:58.45</time>
      </trkpt>
      <trkpt lat="48.45479" lon="-4.3805">
        <ele>150</ele>
        <time>2012-02-26T08:46:59.48</time>
      </trkpt>
      <trkpt lat="48.45475" lon="-4.38054">
        <ele>150</ele>
        <time>2012-02-26T08:47:00.46</time>
      </trkpt>
      <trkpt lat="48.45472" lon="-4.38058">
        <ele>150</ele>
        <time>2012-02-26T08:47:01.47</time>
      </trkpt>
      <trkpt lat="48.45467" lon="-4.38063">
        <ele>150</ele>
        <time>2012-02-26T08:47:02.47</time>
      </trkpt>
      <trkpt lat="48.45463" lon="-4.38067">
        <ele>150</ele>
        <time>2012-02-26T08:47:03.50</time>
      </trkpt>
      <trkpt lat="48.45459" lon="-4.38071">
        <ele>150</ele>
        <time>2012-02-26T08:47:04.46</time>
      </trkpt>
      <trkpt lat="48.45455" lon="-4.38073">
        <ele>150</ele>
        <time>2012-02-26T08:47:05.47</time>
      </trkpt>
      <trkpt lat="48.4545" lon="-4.38078">
        <ele>150</ele>
        <time>2012-02-26T08:47:06.48</time>
      </trkpt>
      <trkpt lat="48.45446" lon="-4.38082">
        <ele>151</ele>
        <time>2012-02-26T08:47:07.47</time>
      </trkpt>
      <trkpt lat="48.45442" lon="-4.38084">
        <ele>151</ele>
        <time>2012-02-26T08:47:08.47</time>
      </trkpt>
      <trkpt lat="48.45437" lon="-4.38088">
        <ele>151</ele>
        <time>2012-02-26T08:47:09.48</time>
      </trkpt>
      <trkpt lat="48.45432" lon="-4.38091">
        <ele>151</ele>
        <time>2012-02-26T08:47:10.47</time>
      </trkpt>
      <trkpt lat="48.45428" lon="-4.38093">
        <ele>151</ele>
        <time>2012-02-26T08:47:11.47</time>
      </trkpt>
      <trkpt lat="48.45422" lon="-4.38097">
        <ele>151</ele>
        <time>2012-02-26T08:47:12.48</time>
      </trkpt>
      <trkpt lat="48.45418" lon="-4.38099">
        <ele>151</ele>
        <time>2012-02-26T08:47:13.46</time>
      </trkpt>
      <trkpt lat="48.45413" lon="-4.38101">
        <ele>151</ele>
        <time>2012-02-26T08:47:14.45</time>
      </trkpt>
      <trkpt lat="48.45408" lon="-4.38103">
        <ele>151</ele>
        <time>2012-02-26T08:47:15.48</time>
      </trkpt>
      <trkpt lat="48.45403" lon="-4.38108">
        <ele>150</ele>
        <time>2012-02-26T08:47:16.46</time>
      </trkpt>
      <trkpt lat="48.45399" lon="-4.3811">
        <ele>150</ele>
        <time>2012-02-26T08:47:17.47</time>
      </trkpt>
      <trkpt lat="48.45394" lon="-4.38112">
        <ele>150</ele>
        <time>2012-02-26T08:47:18.48</time>
      </trkpt>
      <trkpt lat="48.45389" lon="-4.38114">
        <ele>150</ele>
        <time>2012-02-26T08:47:19.51</time>
      </trkpt>
      <trkpt lat="48.45385" lon="-4.38116">
        <ele>150</ele>
        <time>2012-02-26T08:47:20.47</time>
      </trkpt>
      <trkpt lat="48.45379" lon="-4.38118">
        <ele>149</ele>
        <time>2012-02-26T08:47:21.48</time>
      </trkpt>
      <trkpt lat="48.45375" lon="-4.38121">
        <ele>149</ele>
        <time>2012-02-26T08:47:22.46</time>
      </trkpt>
      <trkpt lat="48.4537" lon="-4.38123">
        <ele>149</ele>
        <time>2012-02-26T08:47:23.47</time>
      </trkpt>
      <trkpt lat="48.45364" lon="-4.38123">
        <ele>150</ele>
        <time>2012-02-26T08:47:24.47</time>
      </trkpt>
      <trkpt lat="48.4536" lon="-4.38125">
        <ele>150</ele>
        <time>2012-02-26T08:47:25.46</time>
      </trkpt>
      <trkpt lat="48.45355" lon="-4.38125">
        <ele>150</ele>
        <time>2012-02-26T08:47:26.45</time>
      </trkpt>
      <trkpt lat="48.45351" lon="-4.38125">
        <ele>150</ele>
        <time>2012-02-26T08:47:27.47</time>
      </trkpt>
      <trkpt lat="48.45345" lon="-4.38127">
        <ele>150</ele>
        <time>2012-02-26T08:47:28.48</time>
      </trkpt>
      <trkpt lat="48.4534" lon="-4.38127">
        <ele>150</ele>
        <time>2012-02-26T08:47:29.47</time>
      </trkpt>
      <trkpt lat="48.45334" lon="-4.38127">
        <ele>149</ele>
        <time>2012-02-26T08:47:30.47</time>
      </trkpt>
      <trkpt lat="48.45329" lon="-4.38129">
        <ele>149</ele>
        <time>2012-02-26T08:47:31.48</time>
      </trkpt>
      <trkpt lat="48.45324" lon="-4.38129">
        <ele>148</ele>
        <time>2012-02-26T08:47:32.47</time>
      </trkpt>
      <trkpt lat="48.45318" lon="-4.38129">
        <ele>148</ele>
        <time>2012-02-26T08:47:33.47</time>
      </trkpt>
      <trkpt lat="48.45313" lon="-4.38129">
        <ele>148</ele>
        <time>2012-02-26T08:47:34.48</time>
      </trkpt>
      <trkpt lat="48.45308" lon="-4.38129">
        <ele>148</ele>
        <time>2012-02-26T08:47:35.47</time>
      </trkpt>
      <trkpt lat="48.45302" lon="-4.38129">
        <ele>147</ele>
        <time>2012-02-26T08:47:36.47</time>
      </trkpt>
      <trkpt lat="48.45297" lon="-4.38127">
        <ele>147</ele>
        <time>2012-02-26T08:47:37.48</time>
      </trkpt>
      <trkpt lat="48.45291" lon="-4.38127">
        <ele>147</ele>
        <time>2012-02-26T08:47:38.46</time>
      </trkpt>
      <trkpt lat="48.45285" lon="-4.38127">
        <ele>147</ele>
        <time>2012-02-26T08:47:39.47</time>
      </trkpt>
      <trkpt lat="48.4528" lon="-4.38127">
        <ele>147</ele>
        <time>2012-02-26T08:47:40.48</time>
      </trkpt>
      <trkpt lat="48.45273" lon="-4.38129">
        <ele>147</ele>
        <time>2012-02-26T08:47:41.46</time>
      </trkpt>
      <trkpt lat="48.45268" lon="-4.38129">
        <ele>148</ele>
        <time>2012-02-26T08:47:42.47</time>
      </trkpt>
      <trkpt lat="48.4526" lon="-4.38131">
        <ele>148</ele>
        <time>2012-02-26T08:47:43.48</time>
      </trkpt>
      <trkpt lat="48.45254" lon="-4.38133">
        <ele>148</ele>
        <time>2012-02-26T08:47:44.46</time>
      </trkpt>
      <trkpt lat="48.45248" lon="-4.38136">
        <ele>148</ele>
        <time>2012-02-26T08:47:45.47</time>
      </trkpt>
      <trkpt lat="48.4524" lon="-4.3814">
        <ele>148</ele>
        <time>2012-02-26T08:47:46.48</time>
      </trkpt>
      <trkpt lat="48.45234" lon="-4.38144">
        <ele>148</ele>
        <time>2012-02-26T08:47:47.52</time>
      </trkpt>
      <trkpt lat="48.45226" lon="-4.38148">
        <ele>147</ele>
        <time>2012-02-26T08:47:48.47</time>
      </trkpt>
      <trkpt lat="48.4522" lon="-4.38151">
        <ele>147</ele>
        <time>2012-02-26T08:47:49.47</time>
      </trkpt>
      <trkpt lat="48.45213" lon="-4.38155">
        <ele>147</ele>
        <time>2012-02-26T08:47:50.48</time>
      </trkpt>
      <trkpt lat="48.45206" lon="-4.38159">
        <ele>147</ele>
        <time>2012-02-26T08:47:51.47</time>
      </trkpt>
      <trkpt lat="48.45199" lon="-4.38164">
        <ele>147</ele>
        <time>2012-02-26T08:47:52.46</time>
      </trkpt>
      <trkpt lat="48.45193" lon="-4.3817">
        <ele>147</ele>
        <time>2012-02-26T08:47:53.48</time>
      </trkpt>
      <trkpt lat="48.45185" lon="-4.38174">
        <ele>147</ele>
        <time>2012-02-26T08:47:54.47</time>
      </trkpt>
      <trkpt lat="48.45178" lon="-4.38179">
        <ele>147</ele>
        <time>2012-02-26T08:47:55.47</time>
      </trkpt>
      <trkpt lat="48.45171" lon="-4.38183">
        <ele>147</ele>
        <time>2012-02-26T08:47:56.48</time>
      </trkpt>
      <trkpt lat="48.45164" lon="-4.38187">
        <ele>147</ele>
        <time>2012-02-26T08:47:57.46</time>
      </trkpt>
      <trkpt lat="48.45156" lon="-4.38191">
        <ele>147</ele>
        <time>2012-02-26T08:47:58.47</time>
      </trkpt>
      <trkpt lat="48.45149" lon="-4.38196">
        <ele>148</ele>
        <time>2012-02-26T08:47:59.48</time>
      </trkpt>
      <trkpt lat="48.45141" lon="-4.38198">
        <ele>148</ele>
        <time>2012-02-26T08:48:00.46</time>
      </trkpt>
      <trkpt lat="48.45134" lon="-4.38202">
        <ele>148</ele>
        <time>2012-02-26T08:48:01.47</time>
      </trkpt>
      <trkpt lat="48.45127" lon="-4.38209">
        <ele>148</ele>
        <time>2012-02-26T08:48:02.50</time>
      </trkpt>
      <trkpt lat="48.45122" lon="-4.38215">
        <ele>148</ele>
        <time>2012-02-26T08:48:03.46</time>
      </trkpt>
      <trkpt lat="48.45117" lon="-4.38221">
        <ele>148</ele>
        <time>2012-02-26T08:48:04.47</time>
      </trkpt>
      <trkpt lat="48.45112" lon="-4.3823">
        <ele>148</ele>
        <time>2012-02-26T08:48:05.48</time>
      </trkpt>
      <trkpt lat="48.45108" lon="-4.38239">
        <ele>148</ele>
        <time>2012-02-26T08:48:06.46</time>
      </trkpt>
      <trkpt lat="48.45105" lon="-4.38247">
        <ele>148</ele>
        <time>2012-02-26T08:48:07.47</time>
      </trkpt>
      <trkpt lat="48.45102" lon="-4.38258">
        <ele>148</ele>
        <time>2012-02-26T08:48:08.48</time>
      </trkpt>
      <trkpt lat="48.45098" lon="-4.38267">
        <ele>147</ele>
        <time>2012-02-26T08:48:09.48</time>
      </trkpt>
      <trkpt lat="48.45096" lon="-4.38277">
        <ele>147</ele>
        <time>2012-02-26T08:48:10.48</time>
      </trkpt>
      <trkpt lat="48.45093" lon="-4.38286">
        <ele>147</ele>
        <time>2012-02-26T08:48:11.48</time>
      </trkpt>
      <trkpt lat="48.4509" lon="-4.38297">
        <ele>147</ele>
        <time>2012-02-26T08:48:12.48</time>
      </trkpt>
      <trkpt lat="48.45088" lon="-4.38305">
        <ele>146</ele>
        <time>2012-02-26T08:48:13.47</time>
      </trkpt>
      <trkpt lat="48.45084" lon="-4.38316">
        <ele>146</ele>
        <time>2012-02-26T08:48:14.47</time>
      </trkpt>
      <trkpt lat="48.45082" lon="-4.38327">
        <ele>146</ele>
        <time>2012-02-26T08:48:15.48</time>
      </trkpt>
      <trkpt lat="48.45079" lon="-4.38335">
        <ele>146</ele>
        <time>2012-02-26T08:48:16.47</time>
      </trkpt>
      <trkpt lat="48.45077" lon="-4.38346">
        <ele>145</ele>
        <time>2012-02-26T08:48:17.47</time>
      </trkpt>
      <trkpt lat="48.45075" lon="-4.38354">
        <ele>145</ele>
        <time>2012-02-26T08:48:18.48</time>
      </trkpt>
      <trkpt lat="48.45073" lon="-4.38365">
        <ele>144</ele>
        <time>2012-02-26T08:48:19.47</time>
      </trkpt>
      <trkpt lat="48.4507" lon="-4.38376">
        <ele>143</ele>
        <time>2012-02-26T08:48:20.47</time>
      </trkpt>
      <trkpt lat="48.45068" lon="-4.38387">
        <ele>142</ele>
        <time>2012-02-26T08:48:21.49</time>
      </trkpt>
      <trkpt lat="48.45067" lon="-4.38397">
        <ele>142</ele>
        <time>2012-02-26T08:48:22.46</time>
      </trkpt>
      <trkpt lat="48.45065" lon="-4.38406">
        <ele>141</ele>
        <time>2012-02-26T08:48:23.47</time>
      </trkpt>
      <trkpt lat="48.45063" lon="-4.38415">
        <ele>141</ele>
        <time>2012-02-26T08:48:24.48</time>
      </trkpt>
      <trkpt lat="48.45061" lon="-4.38423">
        <ele>140</ele>
        <time>2012-02-26T08:48:25.46</time>
      </trkpt>
      <trkpt lat="48.45059" lon="-4.38432">
        <ele>140</ele>
        <time>2012-02-26T08:48:26.52</time>
      </trkpt>
      <trkpt lat="48.45054" lon="-4.3844">
        <ele>140</ele>
        <time>2012-02-26T08:48:27.52</time>
      </trkpt>
      <trkpt lat="48.45051" lon="-4.38447">
        <ele>139</ele>
        <time>2012-02-26T08:48:28.46</time>
      </trkpt>
      <trkpt lat="48.45047" lon="-4.38455">
        <ele>139</ele>
        <time>2012-02-26T08:48:29.48</time>
      </trkpt>
      <trkpt lat="48.45043" lon="-4.38462">
        <ele>139</ele>
        <time>2012-02-26T08:48:30.48</time>
      </trkpt>
      <trkpt lat="48.45038" lon="-4.38468">
        <ele>138</ele>
        <time>2012-02-26T08:48:31.48</time>
      </trkpt>
      <trkpt lat="48.45034" lon="-4.38475">
        <ele>138</ele>
        <time>2012-02-26T08:48:32.47</time>
      </trkpt>
      <trkpt lat="48.45031" lon="-4.38479">
        <ele>138</ele>
        <time>2012-02-26T08:48:33.47</time>
      </trkpt>
      <trkpt lat="48.45028" lon="-4.38485">
        <ele>138</ele>
        <time>2012-02-26T08:48:34.48</time>
      </trkpt>
      <trkpt lat="48.45024" lon="-4.3849">
        <ele>138</ele>
        <time>2012-02-26T08:48:35.47</time>
      </trkpt>
      <trkpt lat="48.45021" lon="-4.38496">
        <ele>137</ele>
        <time>2012-02-26T08:48:36.47</time>
      </trkpt>
      <trkpt lat="48.45017" lon="-4.385">
        <ele>137</ele>
        <time>2012-02-26T08:48:37.49</time>
      </trkpt>
      <trkpt lat="48.45014" lon="-4.38507">
        <ele>137</ele>
        <time>2012-02-26T08:48:38.47</time>
      </trkpt>
      <trkpt lat="48.4501" lon="-4.38515">
        <ele>137</ele>
        <time>2012-02-26T08:48:39.47</time>
      </trkpt>
      <trkpt lat="48.45006" lon="-4.38522">
        <ele>136</ele>
        <time>2012-02-26T08:48:40.48</time>
      </trkpt>
      <trkpt lat="48.45003" lon="-4.38528">
        <ele>136</ele>
        <time>2012-02-26T08:48:41.47</time>
      </trkpt>
      <trkpt lat="48.45" lon="-4.38537">
        <ele>136</ele>
        <time>2012-02-26T08:48:42.47</time>
      </trkpt>
      <trkpt lat="48.44996" lon="-4.38545">
        <ele>136</ele>
        <time>2012-02-26T08:48:43.48</time>
      </trkpt>
      <trkpt lat="48.44993" lon="-4.38552">
        <ele>136</ele>
        <time>2012-02-26T08:48:44.47</time>
      </trkpt>
      <trkpt lat="48.4499" lon="-4.3856">
        <ele>136</ele>
        <time>2012-02-26T08:48:45.48</time>
      </trkpt>
      <trkpt lat="48.44987" lon="-4.38569">
        <ele>136</ele>
        <time>2012-02-26T08:48:46.48</time>
      </trkpt>
      <trkpt lat="48.44985" lon="-4.38576">
        <ele>136</ele>
        <time>2012-02-26T08:48:47.46</time>
      </trkpt>
      <trkpt lat="48.44983" lon="-4.38584">
        <ele>136</ele>
        <time>2012-02-26T08:48:48.47</time>
      </trkpt>
      <trkpt lat="48.44981" lon="-4.38588">
        <ele>136</ele>
        <time>2012-02-26T08:48:49.48</time>
      </trkpt>
      <trkpt lat="48.44979" lon="-4.38595">
        <ele>136</ele>
        <time>2012-02-26T08:48:50.46</time>
      </trkpt>
      <trkpt lat="48.44978" lon="-4.38601">
        <ele>136</ele>
        <time>2012-02-26T08:48:51.47</time>
      </trkpt>
      <trkpt lat="48.44977" lon="-4.38606">
        <ele>136</ele>
        <time>2012-02-26T08:48:52.48</time>
      </trkpt>
      <trkpt lat="48.44976" lon="-4.38612">
        <ele>136</ele>
        <time>2012-02-26T08:48:53.50</time>
      </trkpt>
      <trkpt lat="48.44974" lon="-4.38616">
        <ele>136</ele>
        <time>2012-02-26T08:48:54.47</time>
      </trkpt>
      <trkpt lat="48.44973" lon="-4.38623">
        <ele>136</ele>
        <time>2012-02-26T08:48:55.47</time>
      </trkpt>
      <trkpt lat="48.44971" lon="-4.38627">
        <ele>136</ele>
        <time>2012-02-26T08:48:56.54</time>
      </trkpt>
      <trkpt lat="48.44969" lon="-4.38633">
        <ele>136</ele>
        <time>2012-02-26T08:48:57.47</time>
      </trkpt>
      <trkpt lat="48.44967" lon="-4.38638">
        <ele>136</ele>
        <time>2012-02-26T08:48:58.47</time>
      </trkpt>
      <trkpt lat="48.44965" lon="-4.38644">
        <ele>136</ele>
        <time>2012-02-26T08:48:59.48</time>
      </trkpt>
      <trkpt lat="48.44964" lon="-4.38648">
        <ele>136</ele>
        <time>2012-02-26T08:49:00.47</time>
      </trkpt>
      <trkpt lat="48.44962" lon="-4.38655">
        <ele>136</ele>
        <time>2012-02-26T08:49:01.47</time>
      </trkpt>
      <trkpt lat="48.44961" lon="-4.38659">
        <ele>136</ele>
        <time>2012-02-26T08:49:02.48</time>
      </trkpt>
      <trkpt lat="48.44959" lon="-4.38666">
        <ele>136</ele>
        <time>2012-02-26T08:49:03.47</time>
      </trkpt>
      <trkpt lat="48.44957" lon="-4.38672">
        <ele>136</ele>
        <time>2012-02-26T08:49:04.47</time>
      </trkpt>
      <trkpt lat="48.44956" lon="-4.38676">
        <ele>136</ele>
        <time>2012-02-26T08:49:05.48</time>
      </trkpt>
      <trkpt lat="48.44955" lon="-4.38681">
        <ele>136</ele>
        <time>2012-02-26T08:49:06.46</time>
      </trkpt>
      <trkpt lat="48.44954" lon="-4.38685">
        <ele>136</ele>
        <time>2012-02-26T08:49:07.47</time>
      </trkpt>
      <trkpt lat="48.44954" lon="-4.38689">
        <ele>136</ele>
        <time>2012-02-26T08:49:08.48</time>
      </trkpt>
      <trkpt lat="48.44952" lon="-4.38694">
        <ele>136</ele>
        <time>2012-02-26T08:49:09.46</time>
      </trkpt>
      <trkpt lat="48.44951" lon="-4.38696">
        <ele>136</ele>
        <time>2012-02-26T08:49:10.47</time>
      </trkpt>
      <trkpt lat="48.4495" lon="-4.387">
        <ele>136</ele>
        <time>2012-02-26T08:49:11.48</time>
      </trkpt>
      <trkpt lat="48.44948" lon="-4.38704">
        <ele>136</ele>
        <time>2012-02-26T08:49:12.46</time>
      </trkpt>
      <trkpt lat="48.44947" lon="-4.38709">
        <ele>136</ele>
        <time>2012-02-26T08:49:13.47</time>
      </trkpt>
      <trkpt lat="48.44945" lon="-4.38713">
        <ele>137</ele>
        <time>2012-02-26T08:49:14.48</time>
      </trkpt>
      <trkpt lat="48.44943" lon="-4.38719">
        <ele>137</ele>
        <time>2012-02-26T08:49:15.48</time>
      </trkpt>
      <trkpt lat="48.44941" lon="-4.38724">
        <ele>137</ele>
        <time>2012-02-26T08:49:16.47</time>
      </trkpt>
      <trkpt lat="48.44937" lon="-4.3873">
        <ele>137</ele>
        <time>2012-02-26T08:49:17.47</time>
      </trkpt>
      <trkpt lat="48.44935" lon="-4.38736">
        <ele>137</ele>
        <time>2012-02-26T08:49:18.48</time>
      </trkpt>
      <trkpt lat="48.44933" lon="-4.38743">
        <ele>137</ele>
        <time>2012-02-26T08:49:19.47</time>
      </trkpt>
      <trkpt lat="48.4493" lon="-4.38749">
        <ele>138</ele>
        <time>2012-02-26T08:49:20.47</time>
      </trkpt>
      <trkpt lat="48.44928" lon="-4.38756">
        <ele>138</ele>
        <time>2012-02-26T08:49:21.48</time>
      </trkpt>
      <trkpt lat="48.44925" lon="-4.38764">
        <ele>138</ele>
        <time>2012-02-26T08:49:22.47</time>
      </trkpt>
      <trkpt lat="48.44921" lon="-4.38771">
        <ele>138</ele>
        <time>2012-02-26T08:49:23.47</time>
      </trkpt>
      <trkpt lat="48.44918" lon="-4.38779">
        <ele>139</ele>
        <time>2012-02-26T08:49:24.48</time>
      </trkpt>
      <trkpt lat="48.44915" lon="-4.38788">
        <ele>139</ele>
        <time>2012-02-26T08:49:25.47</time>
      </trkpt>
      <trkpt lat="48.44912" lon="-4.38797">
        <ele>139</ele>
        <time>2012-02-26T08:49:26.47</time>
      </trkpt>
      <trkpt lat="48.44908" lon="-4.38805">
        <ele>140</ele>
        <time>2012-02-26T08:49:27.48</time>
      </trkpt>
      <trkpt lat="48.44905" lon="-4.38816">
        <ele>140</ele>
        <time>2012-02-26T08:49:28.47</time>
      </trkpt>
      <trkpt lat="48.44904" lon="-4.38824">
        <ele>140</ele>
        <time>2012-02-26T08:49:29.47</time>
      </trkpt>
      <trkpt lat="48.44903" lon="-4.38835">
        <ele>140</ele>
        <time>2012-02-26T08:49:30.48</time>
      </trkpt>
      <trkpt lat="48.44901" lon="-4.38846">
        <ele>140</ele>
        <time>2012-02-26T08:49:31.46</time>
      </trkpt>
      <trkpt lat="48.44899" lon="-4.38857">
        <ele>140</ele>
        <time>2012-02-26T08:49:32.47</time>
      </trkpt>
      <trkpt lat="48.44898" lon="-4.38867">
        <ele>140</ele>
        <time>2012-02-26T08:49:33.48</time>
      </trkpt>
      <trkpt lat="48.44896" lon="-4.38878">
        <ele>140</ele>
        <time>2012-02-26T08:49:34.48</time>
      </trkpt>
      <trkpt lat="48.44891" lon="-4.38887">
        <ele>139</ele>
        <time>2012-02-26T08:49:35.47</time>
      </trkpt>
      <trkpt lat="48.44888" lon="-4.38895">
        <ele>139</ele>
        <time>2012-02-26T08:49:36.48</time>
      </trkpt>
      <trkpt lat="48.44885" lon="-4.38904">
        <ele>139</ele>
        <time>2012-02-26T08:49:37.52</time>
      </trkpt>
      <trkpt lat="48.44881" lon="-4.3891">
        <ele>139</ele>
        <time>2012-02-26T08:49:38.47</time>
      </trkpt>
      <trkpt lat="48.44877" lon="-4.38917">
        <ele>138</ele>
        <time>2012-02-26T08:49:39.47</time>
      </trkpt>
      <trkpt lat="48.44874" lon="-4.38923">
        <ele>138</ele>
        <time>2012-02-26T08:49:40.48</time>
      </trkpt>
      <trkpt lat="48.44871" lon="-4.3893">
        <ele>138</ele>
        <time>2012-02-26T08:49:41.47</time>
      </trkpt>
      <trkpt lat="48.44868" lon="-4.38936">
        <ele>138</ele>
        <time>2012-02-26T08:49:42.47</time>
      </trkpt>
      <trkpt lat="48.44866" lon="-4.3894">
        <ele>137</ele>
        <time>2012-02-26T08:49:43.48</time>
      </trkpt>
      <trkpt lat="48.44864" lon="-4.38947">
        <ele>137</ele>
        <time>2012-02-26T08:49:44.47</time>
      </trkpt>
      <trkpt lat="48.44862" lon="-4.38953">
        <ele>137</ele>
        <time>2012-02-26T08:49:45.47</time>
      </trkpt>
      <trkpt lat="48.4486" lon="-4.3896">
        <ele>137</ele>
        <time>2012-02-26T08:49:46.48</time>
      </trkpt>
      <trkpt lat="48.44858" lon="-4.38966">
        <ele>137</ele>
        <time>2012-02-26T08:49:47.47</time>
      </trkpt>
      <trkpt lat="48.44856" lon="-4.38972">
        <ele>137</ele>
        <time>2012-02-26T08:49:48.47</time>
      </trkpt>
      <trkpt lat="48.44855" lon="-4.38979">
        <ele>137</ele>
        <time>2012-02-26T08:49:49.48</time>
      </trkpt>
      <trkpt lat="48.44853" lon="-4.38985">
        <ele>137</ele>
        <time>2012-02-26T08:49:50.47</time>
      </trkpt>
      <trkpt lat="48.44852" lon="-4.38992">
        <ele>137</ele>
        <time>2012-02-26T08:49:51.47</time>
      </trkpt>
      <trkpt lat="48.44849" lon="-4.38998">
        <ele>137</ele>
        <time>2012-02-26T08:49:52.48</time>
      </trkpt>
      <trkpt lat="48.44848" lon="-4.39005">
        <ele>137</ele>
        <time>2012-02-26T08:49:53.46</time>
      </trkpt>
      <trkpt lat="48.44846" lon="-4.39009">
        <ele>137</ele>
        <time>2012-02-26T08:49:54.47</time>
      </trkpt>
      <trkpt lat="48.44845" lon="-4.39015">
        <ele>137</ele>
        <time>2012-02-26T08:49:55.48</time>
      </trkpt>
      <trkpt lat="48.44843" lon="-4.3902">
        <ele>137</ele>
        <time>2012-02-26T08:49:56.48</time>
      </trkpt>
      <trkpt lat="48.44842" lon="-4.39024">
        <ele>137</ele>
        <time>2012-02-26T08:49:57.47</time>
      </trkpt>
      <trkpt lat="48.4484" lon="-4.39026">
        <ele>137</ele>
        <time>2012-02-26T08:49:58.48</time>
      </trkpt>
      <trkpt lat="48.44837" lon="-4.3903">
        <ele>137</ele>
        <time>2012-02-26T08:49:59.48</time>
      </trkpt>
      <trkpt lat="48.44833" lon="-4.39035">
        <ele>137</ele>
        <time>2012-02-26T08:50:00.47</time>
      </trkpt>
      <trkpt lat="48.44831" lon="-4.39039">
        <ele>137</ele>
        <time>2012-02-26T08:50:01.48</time>
      </trkpt>
      <trkpt lat="48.4483" lon="-4.39043">
        <ele>137</ele>
        <time>2012-02-26T08:50:02.48</time>
      </trkpt>
      <trkpt lat="48.44829" lon="-4.39048">
        <ele>137</ele>
        <time>2012-02-26T08:50:03.47</time>
      </trkpt>
      <trkpt lat="48.44828" lon="-4.39052">
        <ele>137</ele>
        <time>2012-02-26T08:50:04.47</time>
      </trkpt>
      <trkpt lat="48.44827" lon="-4.39058">
        <ele>137</ele>
        <time>2012-02-26T08:50:05.47</time>
      </trkpt>
      <trkpt lat="48.44826" lon="-4.39063">
        <ele>137</ele>
        <time>2012-02-26T08:50:06.47</time>
      </trkpt>
      <trkpt lat="48.44824" lon="-4.39069">
        <ele>137</ele>
        <time>2012-02-26T08:50:07.47</time>
      </trkpt>
      <trkpt lat="48.44823" lon="-4.39073">
        <ele>137</ele>
        <time>2012-02-26T08:50:08.48</time>
      </trkpt>
      <trkpt lat="48.4482" lon="-4.39078">
        <ele>137</ele>
        <time>2012-02-26T08:50:09.47</time>
      </trkpt>
      <trkpt lat="48.44819" lon="-4.39084">
        <ele>136</ele>
        <time>2012-02-26T08:50:10.47</time>
      </trkpt>
      <trkpt lat="48.44817" lon="-4.39088">
        <ele>136</ele>
        <time>2012-02-26T08:50:11.48</time>
      </trkpt>
      <trkpt lat="48.44815" lon="-4.39093">
        <ele>136</ele>
        <time>2012-02-26T08:50:12.47</time>
      </trkpt>
      <trkpt lat="48.44814" lon="-4.39099">
        <ele>136</ele>
        <time>2012-02-26T08:50:13.47</time>
      </trkpt>
      <trkpt lat="48.44812" lon="-4.39103">
        <ele>136</ele>
        <time>2012-02-26T08:50:14.48</time>
      </trkpt>
      <trkpt lat="48.4481" lon="-4.3911">
        <ele>136</ele>
        <time>2012-02-26T08:50:15.46</time>
      </trkpt>
      <trkpt lat="48.44808" lon="-4.39114">
        <ele>136</ele>
        <time>2012-02-26T08:50:16.47</time>
      </trkpt>
      <trkpt lat="48.44807" lon="-4.39121">
        <ele>136</ele>
        <time>2012-02-26T08:50:17.48</time>
      </trkpt>
      <trkpt lat="48.44804" lon="-4.39125">
        <ele>137</ele>
        <time>2012-02-26T08:50:18.54</time>
      </trkpt>
      <trkpt lat="48.44803" lon="-4.39131">
        <ele>137</ele>
        <time>2012-02-26T08:50:19.47</time>
      </trkpt>
      <trkpt lat="48.44801" lon="-4.39136">
        <ele>137</ele>
        <time>2012-02-26T08:50:20.48</time>
      </trkpt>
      <trkpt lat="48.44799" lon="-4.39142">
        <ele>137</ele>
        <time>2012-02-26T08:50:21.48</time>
      </trkpt>
      <trkpt lat="48.44797" lon="-4.39146">
        <ele>137</ele>
        <time>2012-02-26T08:50:22.47</time>
      </trkpt>
      <trkpt lat="48.44795" lon="-4.39153">
        <ele>137</ele>
        <time>2012-02-26T08:50:23.47</time>
      </trkpt>
      <trkpt lat="48.44794" lon="-4.39157">
        <ele>137</ele>
        <time>2012-02-26T08:50:24.48</time>
      </trkpt>
      <trkpt lat="48.44792" lon="-4.39163">
        <ele>137</ele>
        <time>2012-02-26T08:50:25.47</time>
      </trkpt>
      <trkpt lat="48.44789" lon="-4.3917">
        <ele>137</ele>
        <time>2012-02-26T08:50:26.48</time>
      </trkpt>
      <trkpt lat="48.44786" lon="-4.39176">
        <ele>137</ele>
        <time>2012-02-26T08:50:27.48</time>
      </trkpt>
      <trkpt lat="48.44784" lon="-4.39185">
        <ele>137</ele>
        <time>2012-02-26T08:50:28.47</time>
      </trkpt>
      <trkpt lat="48.4478" lon="-4.39193">
        <ele>137</ele>
        <time>2012-02-26T08:50:29.47</time>
      </trkpt>
      <trkpt lat="48.44777" lon="-4.39202">
        <ele>137</ele>
        <time>2012-02-26T08:50:30.48</time>
      </trkpt>
      <trkpt lat="48.44773" lon="-4.39211">
        <ele>137</ele>
        <time>2012-02-26T08:50:31.47</time>
      </trkpt>
      <trkpt lat="48.4477" lon="-4.39217">
        <ele>137</ele>
        <time>2012-02-26T08:50:32.47</time>
      </trkpt>
      <trkpt lat="48.44768" lon="-4.39224">
        <ele>138</ele>
        <time>2012-02-26T08:50:33.48</time>
      </trkpt>
      <trkpt lat="48.44766" lon="-4.39228">
        <ele>138</ele>
        <time>2012-02-26T08:50:34.47</time>
      </trkpt>
      <trkpt lat="48.44765" lon="-4.39234">
        <ele>137</ele>
        <time>2012-02-26T08:50:35.47</time>
      </trkpt>
      <trkpt lat="48.44764" lon="-4.39241">
        <ele>137</ele>
        <time>2012-02-26T08:50:36.48</time>
      </trkpt>
      <trkpt lat="48.44763" lon="-4.39247">
        <ele>137</ele>
        <time>2012-02-26T08:50:37.47</time>
      </trkpt>
      <trkpt lat="48.44763" lon="-4.39251">
        <ele>137</ele>
        <time>2012-02-26T08:50:38.45</time>
      </trkpt>
      <trkpt lat="48.44761" lon="-4.39256">
        <ele>137</ele>
        <time>2012-02-26T08:50:39.48</time>
      </trkpt>
      <trkpt lat="48.44761" lon="-4.3926">
        <ele>137</ele>
        <time>2012-02-26T08:50:40.55</time>
      </trkpt>
      <trkpt lat="48.44761" lon="-4.39264">
        <ele>137</ele>
        <time>2012-02-26T08:50:41.47</time>
      </trkpt>
      <trkpt lat="48.44761" lon="-4.39266">
        <ele>137</ele>
        <time>2012-02-26T08:50:42.48</time>
      </trkpt>
      <trkpt lat="48.4476" lon="-4.39271">
        <ele>137</ele>
        <time>2012-02-26T08:50:43.48</time>
      </trkpt>
      <trkpt lat="48.44758" lon="-4.39275">
        <ele>137</ele>
        <time>2012-02-26T08:50:44.47</time>
      </trkpt>
      <trkpt lat="48.44756" lon="-4.39277">
        <ele>137</ele>
        <time>2012-02-26T08:50:45.48</time>
      </trkpt>
      <trkpt lat="48.44754" lon="-4.39281">
        <ele>137</ele>
        <time>2012-02-26T08:50:46.48</time>
      </trkpt>
      <trkpt lat="48.44752" lon="-4.39286">
        <ele>137</ele>
        <time>2012-02-26T08:50:47.47</time>
      </trkpt>
      <trkpt lat="48.44751" lon="-4.39288">
        <ele>137</ele>
        <time>2012-02-26T08:50:48.48</time>
      </trkpt>
      <trkpt lat="48.4475" lon="-4.39292">
        <ele>137</ele>
        <time>2012-02-26T08:50:49.48</time>
      </trkpt>
      <trkpt lat="48.44748" lon="-4.39294">
        <ele>137</ele>
        <time>2012-02-26T08:50:50.47</time>
      </trkpt>
      <trkpt lat="48.44746" lon="-4.39296">
        <ele>136</ele>
        <time>2012-02-26T08:50:51.47</time>
      </trkpt>
      <trkpt lat="48.44744" lon="-4.39301">
        <ele>136</ele>
        <time>2012-02-26T08:50:52.48</time>
      </trkpt>
      <trkpt lat="48.44743" lon="-4.39303">
        <ele>136</ele>
        <time>2012-02-26T08:50:53.47</time>
      </trkpt>
      <trkpt lat="48.44742" lon="-4.39305">
        <ele>136</ele>
        <time>2012-02-26T08:50:54.47</time>
      </trkpt>
      <trkpt lat="48.4474" lon="-4.39309">
        <ele>136</ele>
        <time>2012-02-26T08:50:55.48</time>
      </trkpt>
      <trkpt lat="48.44739" lon="-4.39312">
        <ele>136</ele>
        <time>2012-02-26T08:50:56.47</time>
      </trkpt>
      <trkpt lat="48.44738" lon="-4.39314">
        <ele>136</ele>
        <time>2012-02-26T08:50:57.44</time>
      </trkpt>
      <trkpt lat="48.44736" lon="-4.39316">
        <ele>136</ele>
        <time>2012-02-26T08:50:58.46</time>
      </trkpt>
      <trkpt lat="48.44735" lon="-4.3932">
        <ele>136</ele>
        <time>2012-02-26T08:50:59.47</time>
      </trkpt>
      <trkpt lat="48.44734" lon="-4.39322">
        <ele>136</ele>
        <time>2012-02-26T08:51:00.47</time>
      </trkpt>
      <trkpt lat="48.44731" lon="-4.39324">
        <ele>136</ele>
        <time>2012-02-26T08:51:01.48</time>
      </trkpt>
      <trkpt lat="48.4473" lon="-4.39329">
        <ele>136</ele>
        <time>2012-02-26T08:51:02.49</time>
      </trkpt>
      <trkpt lat="48.44728" lon="-4.39331">
        <ele>136</ele>
        <time>2012-02-26T08:51:03.51</time>
      </trkpt>
      <trkpt lat="48.44727" lon="-4.39333">
        <ele>136</ele>
        <time>2012-02-26T08:51:04.48</time>
      </trkpt>
      <trkpt lat="48.44726" lon="-4.39337">
        <ele>136</ele>
        <time>2012-02-26T08:51:05.48</time>
      </trkpt>
      <trkpt lat="48.44725" lon="-4.39339">
        <ele>136</ele>
        <time>2012-02-26T08:51:06.47</time>
      </trkpt>
      <trkpt lat="48.44723" lon="-4.39342">
        <ele>136</ele>
        <time>2012-02-26T08:51:07.48</time>
      </trkpt>
      <trkpt lat="48.44722" lon="-4.39346">
        <ele>136</ele>
        <time>2012-02-26T08:51:08.48</time>
      </trkpt>
      <trkpt lat="48.44721" lon="-4.39348">
        <ele>135</ele>
        <time>2012-02-26T08:51:09.47</time>
      </trkpt>
      <trkpt lat="48.44719" lon="-4.39352">
        <ele>135</ele>
        <time>2012-02-26T08:51:10.48</time>
      </trkpt>
      <trkpt lat="48.44718" lon="-4.39354">
        <ele>135</ele>
        <time>2012-02-26T08:51:11.48</time>
      </trkpt>
      <trkpt lat="48.44715" lon="-4.39361">
        <ele>135</ele>
        <time>2012-02-26T08:51:12.47</time>
      </trkpt>
      <trkpt lat="48.44713" lon="-4.39365">
        <ele>135</ele>
        <time>2012-02-26T08:51:13.47</time>
      </trkpt>
      <trkpt lat="48.44711" lon="-4.39369">
        <ele>135</ele>
        <time>2012-02-26T08:51:14.48</time>
      </trkpt>
      <trkpt lat="48.44709" lon="-4.39372">
        <ele>135</ele>
        <time>2012-02-26T08:51:15.46</time>
      </trkpt>
      <trkpt lat="48.44707" lon="-4.39376">
        <ele>135</ele>
        <time>2012-02-26T08:51:16.47</time>
      </trkpt>
      <trkpt lat="48.44705" lon="-4.3938">
        <ele>135</ele>
        <time>2012-02-26T08:51:17.48</time>
      </trkpt>
      <trkpt lat="48.44704" lon="-4.39382">
        <ele>135</ele>
        <time>2012-02-26T08:51:18.47</time>
      </trkpt>
      <trkpt lat="48.44701" lon="-4.39387">
        <ele>135</ele>
        <time>2012-02-26T08:51:19.47</time>
      </trkpt>
      <trkpt lat="48.44699" lon="-4.39391">
        <ele>135</ele>
        <time>2012-02-26T08:51:20.51</time>
      </trkpt>
      <trkpt lat="48.44698" lon="-4.39393">
        <ele>135</ele>
        <time>2012-02-26T08:51:21.48</time>
      </trkpt>
      <trkpt lat="48.44696" lon="-4.39397">
        <ele>135</ele>
        <time>2012-02-26T08:51:22.47</time>
      </trkpt>
      <trkpt lat="48.44695" lon="-4.39402">
        <ele>135</ele>
        <time>2012-02-26T08:51:23.48</time>
      </trkpt>
      <trkpt lat="48.44694" lon="-4.39406">
        <ele>135</ele>
        <time>2012-02-26T08:51:24.48</time>
      </trkpt>
      <trkpt lat="48.44692" lon="-4.3941">
        <ele>135</ele>
        <time>2012-02-26T08:51:25.47</time>
      </trkpt>
      <trkpt lat="48.44692" lon="-4.39415">
        <ele>135</ele>
        <time>2012-02-26T08:51:26.48</time>
      </trkpt>
      <trkpt lat="48.44691" lon="-4.39419">
        <ele>135</ele>
        <time>2012-02-26T08:51:27.48</time>
      </trkpt>
      <trkpt lat="48.44691" lon="-4.39423">
        <ele>135</ele>
        <time>2012-02-26T08:51:28.47</time>
      </trkpt>
      <trkpt lat="48.4469" lon="-4.39427">
        <ele>135</ele>
        <time>2012-02-26T08:51:29.48</time>
      </trkpt>
      <trkpt lat="48.44689" lon="-4.39432">
        <ele>135</ele>
        <time>2012-02-26T08:51:30.48</time>
      </trkpt>
      <trkpt lat="48.44689" lon="-4.39436">
        <ele>135</ele>
        <time>2012-02-26T08:51:31.47</time>
      </trkpt>
      <trkpt lat="48.44686" lon="-4.3944">
        <ele>135</ele>
        <time>2012-02-26T08:51:32.47</time>
      </trkpt>
      <trkpt lat="48.44685" lon="-4.39445">
        <ele>135</ele>
        <time>2012-02-26T08:51:33.47</time>
      </trkpt>
      <trkpt lat="48.44684" lon="-4.39449">
        <ele>135</ele>
        <time>2012-02-26T08:51:34.47</time>
      </trkpt>
      <trkpt lat="48.44683" lon="-4.39453">
        <ele>135</ele>
        <time>2012-02-26T08:51:35.47</time>
      </trkpt>
      <trkpt lat="48.44682" lon="-4.3946">
        <ele>135</ele>
        <time>2012-02-26T08:51:36.54</time>
      </trkpt>
      <trkpt lat="48.4468" lon="-4.39464">
        <ele>135</ele>
        <time>2012-02-26T08:51:37.47</time>
      </trkpt>
      <trkpt lat="48.44678" lon="-4.39468">
        <ele>135</ele>
        <time>2012-02-26T08:51:38.48</time>
      </trkpt>
      <trkpt lat="48.44677" lon="-4.39472">
        <ele>135</ele>
        <time>2012-02-26T08:51:39.46</time>
      </trkpt>
      <trkpt lat="48.44675" lon="-4.39479">
        <ele>135</ele>
        <time>2012-02-26T08:51:40.47</time>
      </trkpt>
      <trkpt lat="48.44674" lon="-4.39483">
        <ele>135</ele>
        <time>2012-02-26T08:51:41.47</time>
      </trkpt>
      <trkpt lat="48.44671" lon="-4.3949">
        <ele>135</ele>
        <time>2012-02-26T08:51:42.47</time>
      </trkpt>
      <trkpt lat="48.44669" lon="-4.39496">
        <ele>136</ele>
        <time>2012-02-26T08:51:43.47</time>
      </trkpt>
      <trkpt lat="48.44667" lon="-4.39502">
        <ele>136</ele>
        <time>2012-02-26T08:51:44.47</time>
      </trkpt>
      <trkpt lat="48.44665" lon="-4.39507">
        <ele>136</ele>
        <time>2012-02-26T08:51:45.47</time>
      </trkpt>
      <trkpt lat="48.44663" lon="-4.39513">
        <ele>136</ele>
        <time>2012-02-26T08:51:46.47</time>
      </trkpt>
      <trkpt lat="48.44661" lon="-4.3952">
        <ele>136</ele>
        <time>2012-02-26T08:51:47.48</time>
      </trkpt>
      <trkpt lat="48.44658" lon="-4.39524">
        <ele>136</ele>
        <time>2012-02-26T08:51:48.47</time>
      </trkpt>
      <trkpt lat="48.44657" lon="-4.3953">
        <ele>136</ele>
        <time>2012-02-26T08:51:49.48</time>
      </trkpt>
      <trkpt lat="48.44655" lon="-4.39535">
        <ele>136</ele>
        <time>2012-02-26T08:51:50.47</time>
      </trkpt>
      <trkpt lat="48.44653" lon="-4.39541">
        <ele>136</ele>
        <time>2012-02-26T08:51:51.48</time>
      </trkpt>
      <trkpt lat="48.44651" lon="-4.39545">
        <ele>136</ele>
        <time>2012-02-26T08:51:52.49</time>
      </trkpt>
      <trkpt lat="48.44649" lon="-4.3955">
        <ele>136</ele>
        <time>2012-02-26T08:51:53.47</time>
      </trkpt>
      <trkpt lat="48.44647" lon="-4.39556">
        <ele>136</ele>
        <time>2012-02-26T08:51:54.48</time>
      </trkpt>
      <trkpt lat="48.44645" lon="-4.3956">
        <ele>136</ele>
        <time>2012-02-26T08:51:55.48</time>
      </trkpt>
      <trkpt lat="48.44642" lon="-4.39565">
        <ele>136</ele>
        <time>2012-02-26T08:51:56.47</time>
      </trkpt>
      <trkpt lat="48.4464" lon="-4.39569">
        <ele>136</ele>
        <time>2012-02-26T08:51:57.48</time>
      </trkpt>
      <trkpt lat="48.44638" lon="-4.39573">
        <ele>136</ele>
        <time>2012-02-26T08:51:58.48</time>
      </trkpt>
      <trkpt lat="48.44637" lon="-4.3958">
        <ele>136</ele>
        <time>2012-02-26T08:51:59.47</time>
      </trkpt>
      <trkpt lat="48.44635" lon="-4.39584">
        <ele>136</ele>
        <time>2012-02-26T08:52:00.48</time>
      </trkpt>
      <trkpt lat="48.44633" lon="-4.39588">
        <ele>136</ele>
        <time>2012-02-26T08:52:01.48</time>
      </trkpt>
      <trkpt lat="48.44631" lon="-4.39595">
        <ele>136</ele>
        <time>2012-02-26T08:52:02.47</time>
      </trkpt>
      <trkpt lat="48.4463" lon="-4.39599">
        <ele>136</ele>
        <time>2012-02-26T08:52:03.47</time>
      </trkpt>
      <trkpt lat="48.44627" lon="-4.39603">
        <ele>136</ele>
        <time>2012-02-26T08:52:04.48</time>
      </trkpt>
      <trkpt lat="48.44625" lon="-4.3961">
        <ele>136</ele>
        <time>2012-02-26T08:52:05.53</time>
      </trkpt>
      <trkpt lat="48.44623" lon="-4.39614">
        <ele>136</ele>
        <time>2012-02-26T08:52:06.47</time>
      </trkpt>
      <trkpt lat="48.44622" lon="-4.39618">
        <ele>136</ele>
        <time>2012-02-26T08:52:07.48</time>
      </trkpt>
      <trkpt lat="48.4462" lon="-4.39625">
        <ele>136</ele>
        <time>2012-02-26T08:52:08.49</time>
      </trkpt>
      <trkpt lat="48.44619" lon="-4.39629">
        <ele>136</ele>
        <time>2012-02-26T08:52:09.47</time>
      </trkpt>
      <trkpt lat="48.44617" lon="-4.39633">
        <ele>136</ele>
        <time>2012-02-26T08:52:10.48</time>
      </trkpt>
      <trkpt lat="48.44615" lon="-4.3964">
        <ele>137</ele>
        <time>2012-02-26T08:52:11.48</time>
      </trkpt>
      <trkpt lat="48.44613" lon="-4.39644">
        <ele>137</ele>
        <time>2012-02-26T08:52:12.47</time>
      </trkpt>
      <trkpt lat="48.44611" lon="-4.39648">
        <ele>137</ele>
        <time>2012-02-26T08:52:13.48</time>
      </trkpt>
      <trkpt lat="48.4461" lon="-4.39653">
        <ele>137</ele>
        <time>2012-02-26T08:52:14.48</time>
      </trkpt>
      <trkpt lat="48.44608" lon="-4.39657">
        <ele>137</ele>
        <time>2012-02-26T08:52:15.47</time>
      </trkpt>
      <trkpt lat="48.44607" lon="-4.39663">
        <ele>137</ele>
        <time>2012-02-26T08:52:16.48</time>
      </trkpt>
      <trkpt lat="48.44605" lon="-4.39668">
        <ele>137</ele>
        <time>2012-02-26T08:52:17.48</time>
      </trkpt>
      <trkpt lat="48.44604" lon="-4.39672">
        <ele>137</ele>
        <time>2012-02-26T08:52:18.47</time>
      </trkpt>
      <trkpt lat="48.44603" lon="-4.39676">
        <ele>137</ele>
        <time>2012-02-26T08:52:19.48</time>
      </trkpt>
      <trkpt lat="48.44601" lon="-4.39681">
        <ele>137</ele>
        <time>2012-02-26T08:52:20.48</time>
      </trkpt>
      <trkpt lat="48.44599" lon="-4.39685">
        <ele>137</ele>
        <time>2012-02-26T08:52:21.53</time>
      </trkpt>
      <trkpt lat="48.44598" lon="-4.39691">
        <ele>137</ele>
        <time>2012-02-26T08:52:22.48</time>
      </trkpt>
      <trkpt lat="48.44597" lon="-4.39696">
        <ele>137</ele>
        <time>2012-02-26T08:52:23.48</time>
      </trkpt>
      <trkpt lat="48.44596" lon="-4.397">
        <ele>137</ele>
        <time>2012-02-26T08:52:24.47</time>
      </trkpt>
      <trkpt lat="48.44596" lon="-4.39704">
        <ele>137</ele>
        <time>2012-02-26T08:52:25.47</time>
      </trkpt>
      <trkpt lat="48.44595" lon="-4.39708">
        <ele>137</ele>
        <time>2012-02-26T08:52:26.48</time>
      </trkpt>
      <trkpt lat="48.44593" lon="-4.39713">
        <ele>137</ele>
        <time>2012-02-26T08:52:27.49</time>
      </trkpt>
      <trkpt lat="48.44591" lon="-4.39715">
        <ele>137</ele>
        <time>2012-02-26T08:52:28.47</time>
      </trkpt>
      <trkpt lat="48.44589" lon="-4.39721">
        <ele>137</ele>
        <time>2012-02-26T08:52:29.48</time>
      </trkpt>
      <trkpt lat="48.44587" lon="-4.39726">
        <ele>137</ele>
        <time>2012-02-26T08:52:30.49</time>
      </trkpt>
      <trkpt lat="48.44586" lon="-4.3973">
        <ele>137</ele>
        <time>2012-02-26T08:52:31.47</time>
      </trkpt>
      <trkpt lat="48.44583" lon="-4.39736">
        <ele>137</ele>
        <time>2012-02-26T08:52:32.48</time>
      </trkpt>
      <trkpt lat="48.44581" lon="-4.39741">
        <ele>137</ele>
        <time>2012-02-26T08:52:33.49</time>
      </trkpt>
      <trkpt lat="48.4458" lon="-4.39747">
        <ele>137</ele>
        <time>2012-02-26T08:52:34.47</time>
      </trkpt>
      <trkpt lat="48.44578" lon="-4.39751">
        <ele>137</ele>
        <time>2012-02-26T08:52:35.48</time>
      </trkpt>
      <trkpt lat="48.44576" lon="-4.39758">
        <ele>137</ele>
        <time>2012-02-26T08:52:36.49</time>
      </trkpt>
      <trkpt lat="48.44575" lon="-4.39764">
        <ele>137</ele>
        <time>2012-02-26T08:52:37.47</time>
      </trkpt>
      <trkpt lat="48.44573" lon="-4.39769">
        <ele>137</ele>
        <time>2012-02-26T08:52:38.48</time>
      </trkpt>
      <trkpt lat="48.44572" lon="-4.39775">
        <ele>137</ele>
        <time>2012-02-26T08:52:39.49</time>
      </trkpt>
      <trkpt lat="48.44569" lon="-4.39779">
        <ele>137</ele>
        <time>2012-02-26T08:52:40.47</time>
      </trkpt>
      <trkpt lat="48.44571" lon="-4.39786">
        <ele>137</ele>
        <time>2012-02-26T08:52:41.47</time>
      </trkpt>
      <trkpt lat="48.44572" lon="-4.39792">
        <ele>139</ele>
        <time>2012-02-26T08:52:42.48</time>
      </trkpt>
      <trkpt lat="48.44573" lon="-4.39796">
        <ele>141</ele>
        <time>2012-02-26T08:52:43.47</time>
      </trkpt>
      <trkpt lat="48.44575" lon="-4.39803">
        <ele>142</ele>
        <time>2012-02-26T08:52:44.50</time>
      </trkpt>
      <trkpt lat="48.44576" lon="-4.39809">
        <ele>142</ele>
        <time>2012-02-26T08:52:45.48</time>
      </trkpt>
      <trkpt lat="48.44576" lon="-4.39814">
        <ele>142</ele>
        <time>2012-02-26T08:52:46.47</time>
      </trkpt>
      <trkpt lat="48.44576" lon="-4.39818">
        <ele>142</ele>
        <time>2012-02-26T08:52:47.47</time>
      </trkpt>
      <trkpt lat="48.44576" lon="-4.39822">
        <ele>143</ele>
        <time>2012-02-26T08:52:48.48</time>
      </trkpt>
      <trkpt lat="48.44576" lon="-4.39829">
        <ele>143</ele>
        <time>2012-02-26T08:52:49.55</time>
      </trkpt>
      <trkpt lat="48.44576" lon="-4.39833">
        <ele>143</ele>
        <time>2012-02-26T08:52:50.48</time>
      </trkpt>
      <trkpt lat="48.44575" lon="-4.39839">
        <ele>143</ele>
        <time>2012-02-26T08:52:51.46</time>
      </trkpt>
      <trkpt lat="48.44578" lon="-4.39844">
        <ele>143</ele>
        <time>2012-02-26T08:52:52.47</time>
      </trkpt>
      <trkpt lat="48.44578" lon="-4.3985">
        <ele>143</ele>
        <time>2012-02-26T08:52:53.47</time>
      </trkpt>
      <trkpt lat="48.44579" lon="-4.39854">
        <ele>143</ele>
        <time>2012-02-26T08:52:54.47</time>
      </trkpt>
      <trkpt lat="48.44579" lon="-4.39861">
        <ele>144</ele>
        <time>2012-02-26T08:52:55.47</time>
      </trkpt>
      <trkpt lat="48.44579" lon="-4.39867">
        <ele>145</ele>
        <time>2012-02-26T08:52:56.47</time>
      </trkpt>
      <trkpt lat="48.44578" lon="-4.39876">
        <ele>145</ele>
        <time>2012-02-26T08:52:57.47</time>
      </trkpt>
      <trkpt lat="48.44577" lon="-4.39882">
        <ele>145</ele>
        <time>2012-02-26T08:52:58.47</time>
      </trkpt>
      <trkpt lat="48.44576" lon="-4.39889">
        <ele>145</ele>
        <time>2012-02-26T08:52:59.47</time>
      </trkpt>
      <trkpt lat="48.44575" lon="-4.39897">
        <ele>144</ele>
        <time>2012-02-26T08:53:00.47</time>
      </trkpt>
      <trkpt lat="48.44575" lon="-4.39904">
        <ele>144</ele>
        <time>2012-02-26T08:53:01.47</time>
      </trkpt>
      <trkpt lat="48.44575" lon="-4.3991">
        <ele>144</ele>
        <time>2012-02-26T08:53:02.47</time>
      </trkpt>
      <trkpt lat="48.44577" lon="-4.39917">
        <ele>144</ele>
        <time>2012-02-26T08:53:03.48</time>
      </trkpt>
      <trkpt lat="48.44579" lon="-4.39923">
        <ele>144</ele>
        <time>2012-02-26T08:53:04.51</time>
      </trkpt>
      <trkpt lat="48.44581" lon="-4.39927">
        <ele>144</ele>
        <time>2012-02-26T08:53:05.47</time>
      </trkpt>
      <trkpt lat="48.44582" lon="-4.39934">
        <ele>144</ele>
        <time>2012-02-26T08:53:06.48</time>
      </trkpt>
      <trkpt lat="48.44583" lon="-4.3994">
        <ele>144</ele>
        <time>2012-02-26T08:53:07.48</time>
      </trkpt>
      <trkpt lat="48.44583" lon="-4.39947">
        <ele>144</ele>
        <time>2012-02-26T08:53:08.49</time>
      </trkpt>
      <trkpt lat="48.44583" lon="-4.39953">
        <ele>144</ele>
        <time>2012-02-26T08:53:09.48</time>
      </trkpt>
      <trkpt lat="48.44581" lon="-4.3996">
        <ele>143</ele>
        <time>2012-02-26T08:53:10.48</time>
      </trkpt>
      <trkpt lat="48.44579" lon="-4.39964">
        <ele>143</ele>
        <time>2012-02-26T08:53:11.49</time>
      </trkpt>
      <trkpt lat="48.44578" lon="-4.3997">
        <ele>143</ele>
        <time>2012-02-26T08:53:12.47</time>
      </trkpt>
      <trkpt lat="48.44577" lon="-4.39977">
        <ele>143</ele>
        <time>2012-02-26T08:53:13.47</time>
      </trkpt>
      <trkpt lat="48.44576" lon="-4.39983">
        <ele>144</ele>
        <time>2012-02-26T08:53:14.49</time>
      </trkpt>
      <trkpt lat="48.44576" lon="-4.3999">
        <ele>144</ele>
        <time>2012-02-26T08:53:15.47</time>
      </trkpt>
      <trkpt lat="48.44576" lon="-4.39996">
        <ele>144</ele>
        <time>2012-02-26T08:53:16.48</time>
      </trkpt>
      <trkpt lat="48.44576" lon="-4.4">
        <ele>144</ele>
        <time>2012-02-26T08:53:17.49</time>
      </trkpt>
      <trkpt lat="48.44577" lon="-4.40007">
        <ele>144</ele>
        <time>2012-02-26T08:53:18.47</time>
      </trkpt>
      <trkpt lat="48.44577" lon="-4.40013">
        <ele>144</ele>
        <time>2012-02-26T08:53:19.48</time>
      </trkpt>
      <trkpt lat="48.44578" lon="-4.4002">
        <ele>144</ele>
        <time>2012-02-26T08:53:20.52</time>
      </trkpt>
      <trkpt lat="48.4458" lon="-4.40024">
        <ele>144</ele>
        <time>2012-02-26T08:53:21.46</time>
      </trkpt>
      <trkpt lat="48.44581" lon="-4.40028">
        <ele>144</ele>
        <time>2012-02-26T08:53:22.48</time>
      </trkpt>
      <trkpt lat="48.44582" lon="-4.40032">
        <ele>144</ele>
        <time>2012-02-26T08:53:23.47</time>
      </trkpt>
      <trkpt lat="48.44583" lon="-4.40037">
        <ele>144</ele>
        <time>2012-02-26T08:53:24.47</time>
      </trkpt>
      <trkpt lat="48.44584" lon="-4.40043">
        <ele>144</ele>
        <time>2012-02-26T08:53:25.48</time>
      </trkpt>
      <trkpt lat="48.44584" lon="-4.4005">
        <ele>144</ele>
        <time>2012-02-26T08:53:26.48</time>
      </trkpt>
      <trkpt lat="48.44586" lon="-4.40056">
        <ele>145</ele>
        <time>2012-02-26T08:53:27.47</time>
      </trkpt>
      <trkpt lat="48.44586" lon="-4.40063">
        <ele>146</ele>
        <time>2012-02-26T08:53:28.48</time>
      </trkpt>
      <trkpt lat="48.44587" lon="-4.40069">
        <ele>148</ele>
        <time>2012-02-26T08:53:29.48</time>
      </trkpt>
      <trkpt lat="48.44587" lon="-4.40075">
        <ele>149</ele>
        <time>2012-02-26T08:53:30.49</time>
      </trkpt>
      <trkpt lat="48.44587" lon="-4.40084">
        <ele>149</ele>
        <time>2012-02-26T08:53:31.48</time>
      </trkpt>
      <trkpt lat="48.44586" lon="-4.4009">
        <ele>149</ele>
        <time>2012-02-26T08:53:32.48</time>
      </trkpt>
      <trkpt lat="48.44586" lon="-4.40097">
        <ele>150</ele>
        <time>2012-02-26T08:53:33.49</time>
      </trkpt>
      <trkpt lat="48.44584" lon="-4.40103">
        <ele>150</ele>
        <time>2012-02-26T08:53:34.47</time>
      </trkpt>
      <trkpt lat="48.44583" lon="-4.4011">
        <ele>150</ele>
        <time>2012-02-26T08:53:35.48</time>
      </trkpt>
      <trkpt lat="48.44582" lon="-4.40116">
        <ele>149</ele>
        <time>2012-02-26T08:53:36.53</time>
      </trkpt>
      <trkpt lat="48.44581" lon="-4.4012">
        <ele>149</ele>
        <time>2012-02-26T08:53:37.47</time>
      </trkpt>
      <trkpt lat="48.4458" lon="-4.40125">
        <ele>149</ele>
        <time>2012-02-26T08:53:38.47</time>
      </trkpt>
      <trkpt lat="48.44579" lon="-4.40127">
        <ele>149</ele>
        <time>2012-02-26T08:53:39.48</time>
      </trkpt>
      <trkpt lat="48.44576" lon="-4.40129">
        <ele>149</ele>
        <time>2012-02-26T08:53:40.47</time>
      </trkpt>
      <trkpt lat="48.44573" lon="-4.40131">
        <ele>149</ele>
        <time>2012-02-26T08:53:41.48</time>
      </trkpt>
      <trkpt lat="48.44569" lon="-4.40131">
        <ele>149</ele>
        <time>2012-02-26T08:53:42.49</time>
      </trkpt>
      <trkpt lat="48.44566" lon="-4.40131">
        <ele>149</ele>
        <time>2012-02-26T08:53:43.46</time>
      </trkpt>
      <trkpt lat="48.44564" lon="-4.40133">
        <ele>149</ele>
        <time>2012-02-26T08:53:44.47</time>
      </trkpt>
      <trkpt lat="48.44561" lon="-4.40135">
        <ele>149</ele>
        <time>2012-02-26T08:53:45.47</time>
      </trkpt>
      <trkpt lat="48.44559" lon="-4.40138">
        <ele>148</ele>
        <time>2012-02-26T08:53:46.47</time>
      </trkpt>
      <trkpt lat="48.44557" lon="-4.40142">
        <ele>148</ele>
        <time>2012-02-26T08:53:47.47</time>
      </trkpt>
      <trkpt lat="48.44557" lon="-4.40146">
        <ele>148</ele>
        <time>2012-02-26T08:53:48.47</time>
      </trkpt>
      <trkpt lat="48.44558" lon="-4.40153">
        <ele>148</ele>
        <time>2012-02-26T08:53:50.47</time>
      </trkpt>
      <trkpt lat="48.44559" lon="-4.40155">
        <ele>148</ele>
        <time>2012-02-26T08:53:51.47</time>
      </trkpt>
      <trkpt lat="48.4456" lon="-4.40157">
        <ele>148</ele>
        <time>2012-02-26T08:53:52.47</time>
      </trkpt>
      <trkpt lat="48.44566" lon="-4.40159">
        <ele>147</ele>
        <time>2012-02-26T08:53:59.47</time>
      </trkpt>
      <trkpt lat="48.44567" lon="-4.40159">
        <ele>147</ele>
        <time>2012-02-26T08:54:00.47</time>
      </trkpt>
      <trkpt lat="48.44568" lon="-4.40159">
        <ele>147</ele>
        <time>2012-02-26T08:54:01.47</time>
      </trkpt>
      <trkpt lat="48.44576" lon="-4.40166">
        <ele>146</ele>
        <time>2012-02-26T08:54:08.47</time>
      </trkpt>
      <trkpt lat="48.44577" lon="-4.40163">
        <ele>146</ele>
        <time>2012-02-26T08:54:09.40</time>
      </trkpt>
      <trkpt lat="48.44579" lon="-4.40161">
        <ele>146</ele>
        <time>2012-02-26T08:54:10.41</time>
      </trkpt>
      <trkpt lat="48.4458" lon="-4.40159">
        <ele>146</ele>
        <time>2012-02-26T08:54:11.42</time>
      </trkpt>
      <trkpt lat="48.44582" lon="-4.40157">
        <ele>146</ele>
        <time>2012-02-26T08:54:12.40</time>
      </trkpt>
      <trkpt lat="48.44583" lon="-4.40153">
        <ele>146</ele>
        <time>2012-02-26T08:54:13.40</time>
      </trkpt>
      <trkpt lat="48.44584" lon="-4.40146">
        <ele>146</ele>
        <time>2012-02-26T08:54:14.40</time>
      </trkpt>
      <trkpt lat="48.44586" lon="-4.40142">
        <ele>146</ele>
        <time>2012-02-26T08:54:15.40</time>
      </trkpt>
      <trkpt lat="48.44587" lon="-4.40135">
        <ele>146</ele>
        <time>2012-02-26T08:54:16.40</time>
      </trkpt>
      <trkpt lat="48.44588" lon="-4.40131">
        <ele>146</ele>
        <time>2012-02-26T08:54:17.40</time>
      </trkpt>
      <trkpt lat="48.44589" lon="-4.40125">
        <ele>146</ele>
        <time>2012-02-26T08:54:18.40</time>
      </trkpt>
      <trkpt lat="48.44589" lon="-4.4012">
        <ele>146</ele>
        <time>2012-02-26T08:54:19.40</time>
      </trkpt>
      <trkpt lat="48.44589" lon="-4.40116">
        <ele>146</ele>
        <time>2012-02-26T08:54:20.40</time>
      </trkpt>
      <trkpt lat="48.44589" lon="-4.40112">
        <ele>146</ele>
        <time>2012-02-26T08:54:21.40</time>
      </trkpt>
      <trkpt lat="48.44589" lon="-4.40108">
        <ele>146</ele>
        <time>2012-02-26T08:54:22.40</time>
      </trkpt>
      <trkpt lat="48.44588" lon="-4.40105">
        <ele>146</ele>
        <time>2012-02-26T08:54:23.40</time>
      </trkpt>
      <trkpt lat="48.44587" lon="-4.40103">
        <ele>146</ele>
        <time>2012-02-26T08:54:24.40</time>
      </trkpt>
      <trkpt lat="48.44587" lon="-4.40099">
        <ele>146</ele>
        <time>2012-02-26T08:54:25.40</time>
      </trkpt>
      <trkpt lat="48.44586" lon="-4.40097">
        <ele>145</ele>
        <time>2012-02-26T08:54:26.40</time>
      </trkpt>
      <trkpt lat="48.44584" lon="-4.40093">
        <ele>145</ele>
        <time>2012-02-26T08:54:27.40</time>
      </trkpt>
      <trkpt lat="48.44584" lon="-4.4009">
        <ele>146</ele>
        <time>2012-02-26T08:54:28.40</time>
      </trkpt>
      <trkpt lat="48.44583" lon="-4.40088">
        <ele>146</ele>
        <time>2012-02-26T08:54:29.41</time>
      </trkpt>
      <trkpt lat="48.44583" lon="-4.40084">
        <ele>146</ele>
        <time>2012-02-26T08:54:30.40</time>
      </trkpt>
      <trkpt lat="48.44583" lon="-4.4008">
        <ele>146</ele>
        <time>2012-02-26T08:54:31.40</time>
      </trkpt>
      <trkpt lat="48.44583" lon="-4.40071">
        <ele>146</ele>
        <time>2012-02-26T08:54:33.40</time>
      </trkpt>
      <trkpt lat="48.44583" lon="-4.40067">
        <ele>146</ele>
        <time>2012-02-26T08:54:34.40</time>
      </trkpt>
      <trkpt lat="48.44583" lon="-4.40065">
        <ele>146</ele>
        <time>2012-02-26T08:54:35.40</time>
      </trkpt>
      <trkpt lat="48.44583" lon="-4.4006">
        <ele>146</ele>
        <time>2012-02-26T08:54:36.40</time>
      </trkpt>
      <trkpt lat="48.44583" lon="-4.40056">
        <ele>146</ele>
        <time>2012-02-26T08:54:37.40</time>
      </trkpt>
      <trkpt lat="48.44584" lon="-4.40052">
        <ele>146</ele>
        <time>2012-02-26T08:54:38.41</time>
      </trkpt>
      <trkpt lat="48.44584" lon="-4.40048">
        <ele>146</ele>
        <time>2012-02-26T08:54:39.41</time>
      </trkpt>
      <trkpt lat="48.44583" lon="-4.40043">
        <ele>146</ele>
        <time>2012-02-26T08:54:40.40</time>
      </trkpt>
      <trkpt lat="48.44583" lon="-4.40041">
        <ele>146</ele>
        <time>2012-02-26T08:54:41.40</time>
      </trkpt>
      <trkpt lat="48.44583" lon="-4.40039">
        <ele>146</ele>
        <time>2012-02-26T08:54:42.40</time>
      </trkpt>
      <trkpt lat="48.44583" lon="-4.40035">
        <ele>146</ele>
        <time>2012-02-26T08:54:43.41</time>
      </trkpt>
      <trkpt lat="48.44584" lon="-4.40032">
        <ele>147</ele>
        <time>2012-02-26T08:54:44.40</time>
      </trkpt>
      <trkpt lat="48.44587" lon="-4.40028">
        <ele>147</ele>
        <time>2012-02-26T08:54:45.40</time>
      </trkpt>
      <trkpt lat="48.4459" lon="-4.40024">
        <ele>147</ele>
        <time>2012-02-26T08:54:46.40</time>
      </trkpt>
      <trkpt lat="48.44594" lon="-4.4002">
        <ele>147</ele>
        <time>2012-02-26T08:54:47.40</time>
      </trkpt>
      <trkpt lat="48.44597" lon="-4.40015">
        <ele>147</ele>
        <time>2012-02-26T08:54:48.40</time>
      </trkpt>
      <trkpt lat="48.44602" lon="-4.40015">
        <ele>147</ele>
        <time>2012-02-26T08:54:49.40</time>
      </trkpt>
      <trkpt lat="48.44605" lon="-4.40013">
        <ele>147</ele>
        <time>2012-02-26T08:54:50.40</time>
      </trkpt>
      <trkpt lat="48.44608" lon="-4.40015">
        <ele>147</ele>
        <time>2012-02-26T08:54:51.40</time>
      </trkpt>
      <trkpt lat="48.44611" lon="-4.40015">
        <ele>147</ele>
        <time>2012-02-26T08:54:52.40</time>
      </trkpt>
      <trkpt lat="48.44612" lon="-4.4002">
        <ele>147</ele>
        <time>2012-02-26T08:54:53.41</time>
      </trkpt>
      <trkpt lat="48.44612" lon="-4.40022">
        <ele>146</ele>
        <time>2012-02-26T08:54:54.40</time>
      </trkpt>
      <trkpt lat="48.44612" lon="-4.40024">
        <ele>146</ele>
        <time>2012-02-26T08:54:55.40</time>
      </trkpt>
      <trkpt lat="48.44611" lon="-4.40026">
        <ele>146</ele>
        <time>2012-02-26T08:54:56.41</time>
      </trkpt>
      <trkpt lat="48.4461" lon="-4.40028">
        <ele>146</ele>
        <time>2012-02-26T08:54:57.41</time>
      </trkpt>
      <trkpt lat="48.44609" lon="-4.40032">
        <ele>146</ele>
        <time>2012-02-26T08:54:58.41</time>
      </trkpt>
      <trkpt lat="48.44608" lon="-4.40035">
        <ele>146</ele>
        <time>2012-02-26T08:54:59.41</time>
      </trkpt>
      <trkpt lat="48.44607" lon="-4.40039">
        <ele>146</ele>
        <time>2012-02-26T08:55:00.40</time>
      </trkpt>
      <trkpt lat="48.44607" lon="-4.40043">
        <ele>146</ele>
        <time>2012-02-26T08:55:01.40</time>
      </trkpt>
      <trkpt lat="48.44606" lon="-4.40048">
        <ele>146</ele>
        <time>2012-02-26T08:55:02.40</time>
      </trkpt>
      <trkpt lat="48.44606" lon="-4.40052">
        <ele>146</ele>
        <time>2012-02-26T08:55:03.41</time>
      </trkpt>
      <trkpt lat="48.44605" lon="-4.40056">
        <ele>146</ele>
        <time>2012-02-26T08:55:04.40</time>
      </trkpt>
      <trkpt lat="48.44605" lon="-4.4006">
        <ele>146</ele>
        <time>2012-02-26T08:55:05.40</time>
      </trkpt>
      <trkpt lat="48.44604" lon="-4.40065">
        <ele>146</ele>
        <time>2012-02-26T08:55:06.40</time>
      </trkpt>
      <trkpt lat="48.44604" lon="-4.40069">
        <ele>146</ele>
        <time>2012-02-26T08:55:07.41</time>
      </trkpt>
      <trkpt lat="48.44603" lon="-4.40073">
        <ele>146</ele>
        <time>2012-02-26T08:55:08.45</time>
      </trkpt>
      <trkpt lat="48.44603" lon="-4.40078">
        <ele>146</ele>
        <time>2012-02-26T08:55:09.41</time>
      </trkpt>
      <trkpt lat="48.44603" lon="-4.4008">
        <ele>147</ele>
        <time>2012-02-26T08:55:10.41</time>
      </trkpt>
      <trkpt lat="48.44602" lon="-4.40084">
        <ele>147</ele>
        <time>2012-02-26T08:55:11.41</time>
      </trkpt>
      <trkpt lat="48.44602" lon="-4.40088">
        <ele>147</ele>
        <time>2012-02-26T08:55:12.41</time>
      </trkpt>
      <trkpt lat="48.44602" lon="-4.40093">
        <ele>147</ele>
        <time>2012-02-26T08:55:13.40</time>
      </trkpt>
      <trkpt lat="48.44603" lon="-4.40099">
        <ele>147</ele>
        <time>2012-02-26T08:55:14.40</time>
      </trkpt>
      <trkpt lat="48.44603" lon="-4.40105">
        <ele>147</ele>
        <time>2012-02-26T08:55:15.44</time>
      </trkpt>
      <trkpt lat="48.44603" lon="-4.40112">
        <ele>148</ele>
        <time>2012-02-26T08:55:16.40</time>
      </trkpt>
      <trkpt lat="48.44603" lon="-4.4012">
        <ele>148</ele>
        <time>2012-02-26T08:55:17.41</time>
      </trkpt>
      <trkpt lat="48.44603" lon="-4.40125">
        <ele>148</ele>
        <time>2012-02-26T08:55:18.40</time>
      </trkpt>
      <trkpt lat="48.44602" lon="-4.40131">
        <ele>148</ele>
        <time>2012-02-26T08:55:19.40</time>
      </trkpt>
      <trkpt lat="48.44601" lon="-4.40135">
        <ele>148</ele>
        <time>2012-02-26T08:55:20.42</time>
      </trkpt>
      <trkpt lat="48.44599" lon="-4.4014">
        <ele>148</ele>
        <time>2012-02-26T08:55:21.40</time>
      </trkpt>
      <trkpt lat="48.44598" lon="-4.40146">
        <ele>148</ele>
        <time>2012-02-26T08:55:22.40</time>
      </trkpt>
      <trkpt lat="48.44596" lon="-4.4015">
        <ele>148</ele>
        <time>2012-02-26T08:55:23.40</time>
      </trkpt>
      <trkpt lat="48.44595" lon="-4.40155">
        <ele>148</ele>
        <time>2012-02-26T08:55:24.40</time>
      </trkpt>
      <trkpt lat="48.44595" lon="-4.40159">
        <ele>148</ele>
        <time>2012-02-26T08:55:25.40</time>
      </trkpt>
      <trkpt lat="48.44595" lon="-4.40166">
        <ele>148</ele>
        <time>2012-02-26T08:55:26.40</time>
      </trkpt>
      <trkpt lat="48.44596" lon="-4.40172">
        <ele>148</ele>
        <time>2012-02-26T08:55:27.40</time>
      </trkpt>
      <trkpt lat="48.44598" lon="-4.40176">
        <ele>148</ele>
        <time>2012-02-26T08:55:28.40</time>
      </trkpt>
      <trkpt lat="48.44601" lon="-4.40178">
        <ele>148</ele>
        <time>2012-02-26T08:55:29.40</time>
      </trkpt>
      <trkpt lat="48.44604" lon="-4.40181">
        <ele>148</ele>
        <time>2012-02-26T08:55:30.41</time>
      </trkpt>
      <trkpt lat="48.44607" lon="-4.40181">
        <ele>147</ele>
        <time>2012-02-26T08:55:31.40</time>
      </trkpt>
      <trkpt lat="48.4461" lon="-4.40178">
        <ele>147</ele>
        <time>2012-02-26T08:55:32.40</time>
      </trkpt>
      <trkpt lat="48.44612" lon="-4.40176">
        <ele>147</ele>
        <time>2012-02-26T08:55:33.42</time>
      </trkpt>
      <trkpt lat="48.44613" lon="-4.40174">
        <ele>147</ele>
        <time>2012-02-26T08:55:34.40</time>
      </trkpt>
      <trkpt lat="48.44615" lon="-4.40172">
        <ele>147</ele>
        <time>2012-02-26T08:55:35.40</time>
      </trkpt>
      <trkpt lat="48.44615" lon="-4.4017">
        <ele>146</ele>
        <time>2012-02-26T08:55:36.41</time>
      </trkpt>
      <trkpt lat="48.44613" lon="-4.40168">
        <ele>146</ele>
        <time>2012-02-26T08:55:37.41</time>
      </trkpt>
      <trkpt lat="48.44613" lon="-4.40163">
        <ele>146</ele>
        <time>2012-02-26T08:55:38.41</time>
      </trkpt>
      <trkpt lat="48.44613" lon="-4.40161">
        <ele>146</ele>
        <time>2012-02-26T08:55:39.43</time>
      </trkpt>
      <trkpt lat="48.44613" lon="-4.40155">
        <ele>144</ele>
        <time>2012-02-26T08:55:40.40</time>
      </trkpt>
      <trkpt lat="48.44615" lon="-4.4015">
        <ele>143</ele>
        <time>2012-02-26T08:55:41.40</time>
      </trkpt>
      <trkpt lat="48.44615" lon="-4.40144">
        <ele>142</ele>
        <time>2012-02-26T08:55:42.41</time>
      </trkpt>
      <trkpt lat="48.44615" lon="-4.4014">
        <ele>142</ele>
        <time>2012-02-26T08:55:43.42</time>
      </trkpt>
      <trkpt lat="48.44615" lon="-4.40133">
        <ele>142</ele>
        <time>2012-02-26T08:55:44.41</time>
      </trkpt>
      <trkpt lat="48.44615" lon="-4.40129">
        <ele>142</ele>
        <time>2012-02-26T08:55:45.41</time>
      </trkpt>
      <trkpt lat="48.44615" lon="-4.40125">
        <ele>142</ele>
        <time>2012-02-26T08:55:46.41</time>
      </trkpt>
      <trkpt lat="48.44615" lon="-4.4012">
        <ele>142</ele>
        <time>2012-02-26T08:55:47.41</time>
      </trkpt>
      <trkpt lat="48.44615" lon="-4.40116">
        <ele>142</ele>
        <time>2012-02-26T08:55:48.38</time>
      </trkpt>
      <trkpt lat="48.44615" lon="-4.40112">
        <ele>142</ele>
        <time>2012-02-26T08:55:49.40</time>
      </trkpt>
      <trkpt lat="48.44615" lon="-4.4011">
        <ele>142</ele>
        <time>2012-02-26T08:55:50.41</time>
      </trkpt>
      <trkpt lat="48.44616" lon="-4.40105">
        <ele>142</ele>
        <time>2012-02-26T08:55:51.40</time>
      </trkpt>
      <trkpt lat="48.44616" lon="-4.40103">
        <ele>142</ele>
        <time>2012-02-26T08:55:52.40</time>
      </trkpt>
      <trkpt lat="48.44617" lon="-4.40099">
        <ele>142</ele>
        <time>2012-02-26T08:55:53.39</time>
      </trkpt>
      <trkpt lat="48.44618" lon="-4.40095">
        <ele>142</ele>
        <time>2012-02-26T08:55:54.40</time>
      </trkpt>
      <trkpt lat="48.44618" lon="-4.40093">
        <ele>142</ele>
        <time>2012-02-26T08:55:55.40</time>
      </trkpt>
      <trkpt lat="48.44619" lon="-4.40088">
        <ele>142</ele>
        <time>2012-02-26T08:55:56.41</time>
      </trkpt>
      <trkpt lat="48.4462" lon="-4.40082">
        <ele>142</ele>
        <time>2012-02-26T08:55:57.40</time>
      </trkpt>
      <trkpt lat="48.4462" lon="-4.40078">
        <ele>142</ele>
        <time>2012-02-26T08:55:58.44</time>
      </trkpt>
      <trkpt lat="48.44621" lon="-4.40073">
        <ele>142</ele>
        <time>2012-02-26T08:55:59.41</time>
      </trkpt>
      <trkpt lat="48.44621" lon="-4.40069">
        <ele>142</ele>
        <time>2012-02-26T08:56:00.40</time>
      </trkpt>
      <trkpt lat="48.44622" lon="-4.40065">
        <ele>142</ele>
        <time>2012-02-26T08:56:01.40</time>
      </trkpt>
      <trkpt lat="48.44622" lon="-4.4006">
        <ele>142</ele>
        <time>2012-02-26T08:56:02.41</time>
      </trkpt>
      <trkpt lat="48.44623" lon="-4.40056">
        <ele>142</ele>
        <time>2012-02-26T08:56:03.41</time>
      </trkpt>
      <trkpt lat="48.44624" lon="-4.40052">
        <ele>142</ele>
        <time>2012-02-26T08:56:04.41</time>
      </trkpt>
      <trkpt lat="48.44626" lon="-4.40048">
        <ele>142</ele>
        <time>2012-02-26T08:56:05.41</time>
      </trkpt>
      <trkpt lat="48.44628" lon="-4.40045">
        <ele>142</ele>
        <time>2012-02-26T08:56:06.40</time>
      </trkpt>
      <trkpt lat="48.44632" lon="-4.40043">
        <ele>143</ele>
        <time>2012-02-26T08:56:07.40</time>
      </trkpt>
      <trkpt lat="48.44635" lon="-4.40041">
        <ele>143</ele>
        <time>2012-02-26T08:56:08.41</time>
      </trkpt>
      <trkpt lat="48.44638" lon="-4.40041">
        <ele>143</ele>
        <time>2012-02-26T08:56:09.41</time>
      </trkpt>
      <trkpt lat="48.44641" lon="-4.40041">
        <ele>143</ele>
        <time>2012-02-26T08:56:10.40</time>
      </trkpt>
      <trkpt lat="48.44646" lon="-4.40041">
        <ele>145</ele>
        <time>2012-02-26T08:56:11.41</time>
      </trkpt>
      <trkpt lat="48.4465" lon="-4.40041">
        <ele>146</ele>
        <time>2012-02-26T08:56:12.41</time>
      </trkpt>
      <trkpt lat="48.44654" lon="-4.40041">
        <ele>147</ele>
        <time>2012-02-26T08:56:13.41</time>
      </trkpt>
      <trkpt lat="48.44658" lon="-4.40043">
        <ele>148</ele>
        <time>2012-02-26T08:56:14.41</time>
      </trkpt>
      <trkpt lat="48.44663" lon="-4.40045">
        <ele>148</ele>
        <time>2012-02-26T08:56:15.42</time>
      </trkpt>
      <trkpt lat="48.44667" lon="-4.40048">
        <ele>149</ele>
        <time>2012-02-26T08:56:16.41</time>
      </trkpt>
      <trkpt lat="48.44671" lon="-4.4005">
        <ele>149</ele>
        <time>2012-02-26T08:56:17.41</time>
      </trkpt>
      <trkpt lat="48.44675" lon="-4.40054">
        <ele>149</ele>
        <time>2012-02-26T08:56:18.40</time>
      </trkpt>
      <trkpt lat="48.44676" lon="-4.40058">
        <ele>149</ele>
        <time>2012-02-26T08:56:19.40</time>
      </trkpt>
      <trkpt lat="48.44676" lon="-4.40063">
        <ele>149</ele>
        <time>2012-02-26T08:56:20.41</time>
      </trkpt>
      <trkpt lat="48.44675" lon="-4.40069">
        <ele>148</ele>
        <time>2012-02-26T08:56:21.40</time>
      </trkpt>
      <trkpt lat="48.44672" lon="-4.40078">
        <ele>148</ele>
        <time>2012-02-26T08:56:22.41</time>
      </trkpt>
      <trkpt lat="48.44671" lon="-4.40084">
        <ele>148</ele>
        <time>2012-02-26T08:56:23.41</time>
      </trkpt>
      <trkpt lat="48.4467" lon="-4.40088">
        <ele>147</ele>
        <time>2012-02-26T08:56:24.41</time>
      </trkpt>
      <trkpt lat="48.44669" lon="-4.40093">
        <ele>147</ele>
        <time>2012-02-26T08:56:25.41</time>
      </trkpt>
      <trkpt lat="48.44667" lon="-4.40095">
        <ele>147</ele>
        <time>2012-02-26T08:56:26.41</time>
      </trkpt>
      <trkpt lat="48.44665" lon="-4.40095">
        <ele>147</ele>
        <time>2012-02-26T08:56:27.41</time>
      </trkpt>
      <trkpt lat="48.44663" lon="-4.40093">
        <ele>147</ele>
        <time>2012-02-26T08:56:28.40</time>
      </trkpt>
      <trkpt lat="48.44661" lon="-4.4009">
        <ele>147</ele>
        <time>2012-02-26T08:56:29.41</time>
      </trkpt>
      <trkpt lat="48.4466" lon="-4.40088">
        <ele>147</ele>
        <time>2012-02-26T08:56:30.41</time>
      </trkpt>
      <trkpt lat="48.44657" lon="-4.40084">
        <ele>147</ele>
        <time>2012-02-26T08:56:31.40</time>
      </trkpt>
      <trkpt lat="48.44657" lon="-4.4008">
        <ele>147</ele>
        <time>2012-02-26T08:56:32.41</time>
      </trkpt>
      <trkpt lat="48.44657" lon="-4.40073">
        <ele>147</ele>
        <time>2012-02-26T08:56:33.40</time>
      </trkpt>
      <trkpt lat="48.44658" lon="-4.40069">
        <ele>147</ele>
        <time>2012-02-26T08:56:34.41</time>
      </trkpt>
      <trkpt lat="48.44661" lon="-4.40065">
        <ele>147</ele>
        <time>2012-02-26T08:56:35.41</time>
      </trkpt>
      <trkpt lat="48.44662" lon="-4.40058">
        <ele>147</ele>
        <time>2012-02-26T08:56:36.41</time>
      </trkpt>
      <trkpt lat="48.44661" lon="-4.40054">
        <ele>147</ele>
        <time>2012-02-26T08:56:37.41</time>
      </trkpt>
      <trkpt lat="48.44658" lon="-4.4005">
        <ele>147</ele>
        <time>2012-02-26T08:56:38.40</time>
      </trkpt>
      <trkpt lat="48.44655" lon="-4.40048">
        <ele>147</ele>
        <time>2012-02-26T08:56:39.40</time>
      </trkpt>
      <trkpt lat="48.44652" lon="-4.40045">
        <ele>147</ele>
        <time>2012-02-26T08:56:40.41</time>
      </trkpt>
      <trkpt lat="48.4465" lon="-4.40048">
        <ele>147</ele>
        <time>2012-02-26T08:56:41.40</time>
      </trkpt>
      <trkpt lat="48.44648" lon="-4.4005">
        <ele>147</ele>
        <time>2012-02-26T08:56:42.41</time>
      </trkpt>
      <trkpt lat="48.44646" lon="-4.40054">
        <ele>147</ele>
        <time>2012-02-26T08:56:43.41</time>
      </trkpt>
      <trkpt lat="48.44645" lon="-4.40058">
        <ele>147</ele>
        <time>2012-02-26T08:56:44.40</time>
      </trkpt>
      <trkpt lat="48.44645" lon="-4.40063">
        <ele>147</ele>
        <time>2012-02-26T08:56:45.41</time>
      </trkpt>
      <trkpt lat="48.44643" lon="-4.40067">
        <ele>147</ele>
        <time>2012-02-26T08:56:46.41</time>
      </trkpt>
      <trkpt lat="48.44642" lon="-4.40071">
        <ele>147</ele>
        <time>2012-02-26T08:56:47.41</time>
      </trkpt>
      <trkpt lat="48.44641" lon="-4.40075">
        <ele>147</ele>
        <time>2012-02-26T08:56:48.41</time>
      </trkpt>
      <trkpt lat="48.4464" lon="-4.40082">
        <ele>147</ele>
        <time>2012-02-26T08:56:49.41</time>
      </trkpt>
      <trkpt lat="48.44638" lon="-4.40086">
        <ele>147</ele>
        <time>2012-02-26T08:56:50.41</time>
      </trkpt>
      <trkpt lat="48.44637" lon="-4.4009">
        <ele>147</ele>
        <time>2012-02-26T08:56:51.41</time>
      </trkpt>
      <trkpt lat="48.44635" lon="-4.40095">
        <ele>147</ele>
        <time>2012-02-26T08:56:52.41</time>
      </trkpt>
      <trkpt lat="48.44634" lon="-4.40099">
        <ele>147</ele>
        <time>2012-02-26T08:56:53.41</time>
      </trkpt>
      <trkpt lat="48.44633" lon="-4.40103">
        <ele>147</ele>
        <time>2012-02-26T08:56:54.40</time>
      </trkpt>
      <trkpt lat="48.44632" lon="-4.4011">
        <ele>147</ele>
        <time>2012-02-26T08:56:55.41</time>
      </trkpt>
      <trkpt lat="48.44632" lon="-4.40114">
        <ele>147</ele>
        <time>2012-02-26T08:56:56.41</time>
      </trkpt>
      <trkpt lat="48.44634" lon="-4.40118">
        <ele>147</ele>
        <time>2012-02-26T08:56:57.42</time>
      </trkpt>
      <trkpt lat="48.44635" lon="-4.40123">
        <ele>147</ele>
        <time>2012-02-26T08:56:58.41</time>
      </trkpt>
      <trkpt lat="48.44637" lon="-4.40127">
        <ele>147</ele>
        <time>2012-02-26T08:56:59.41</time>
      </trkpt>
      <trkpt lat="48.4464" lon="-4.40129">
        <ele>147</ele>
        <time>2012-02-26T08:57:00.41</time>
      </trkpt>
      <trkpt lat="48.44643" lon="-4.40129">
        <ele>147</ele>
        <time>2012-02-26T08:57:01.41</time>
      </trkpt>
      <trkpt lat="48.44646" lon="-4.40127">
        <ele>147</ele>
        <time>2012-02-26T08:57:02.41</time>
      </trkpt>
      <trkpt lat="48.44649" lon="-4.40125">
        <ele>147</ele>
        <time>2012-02-26T08:57:03.40</time>
      </trkpt>
      <trkpt lat="48.44651" lon="-4.40123">
        <ele>147</ele>
        <time>2012-02-26T08:57:04.41</time>
      </trkpt>
      <trkpt lat="48.44653" lon="-4.40118">
        <ele>146</ele>
        <time>2012-02-26T08:57:05.41</time>
      </trkpt>
      <trkpt lat="48.44656" lon="-4.40116">
        <ele>146</ele>
        <time>2012-02-26T08:57:06.41</time>
      </trkpt>
      <trkpt lat="48.4466" lon="-4.40114">
        <ele>146</ele>
        <time>2012-02-26T08:57:07.41</time>
      </trkpt>
      <trkpt lat="48.44662" lon="-4.4011">
        <ele>145</ele>
        <time>2012-02-26T08:57:08.41</time>
      </trkpt>
      <trkpt lat="48.44664" lon="-4.40108">
        <ele>145</ele>
        <time>2012-02-26T08:57:09.41</time>
      </trkpt>
      <trkpt lat="48.44667" lon="-4.40108">
        <ele>145</ele>
        <time>2012-02-26T08:57:10.41</time>
      </trkpt>
      <trkpt lat="48.4467" lon="-4.4011">
        <ele>145</ele>
        <time>2012-02-26T08:57:11.40</time>
      </trkpt>
      <trkpt lat="48.44674" lon="-4.4011">
        <ele>145</ele>
        <time>2012-02-26T08:57:12.41</time>
      </trkpt>
      <trkpt lat="48.44677" lon="-4.40108">
        <ele>145</ele>
        <time>2012-02-26T08:57:13.41</time>
      </trkpt>
      <trkpt lat="48.4468" lon="-4.40105">
        <ele>145</ele>
        <time>2012-02-26T08:57:14.41</time>
      </trkpt>
      <trkpt lat="48.44682" lon="-4.40103">
        <ele>145</ele>
        <time>2012-02-26T08:57:15.41</time>
      </trkpt>
      <trkpt lat="48.44684" lon="-4.40101">
        <ele>145</ele>
        <time>2012-02-26T08:57:16.41</time>
      </trkpt>
      <trkpt lat="48.44686" lon="-4.40097">
        <ele>145</ele>
        <time>2012-02-26T08:57:17.41</time>
      </trkpt>
      <trkpt lat="48.44689" lon="-4.40093">
        <ele>145</ele>
        <time>2012-02-26T08:57:18.41</time>
      </trkpt>
      <trkpt lat="48.4469" lon="-4.40088">
        <ele>145</ele>
        <time>2012-02-26T08:57:19.41</time>
      </trkpt>
      <trkpt lat="48.44691" lon="-4.40084">
        <ele>145</ele>
        <time>2012-02-26T08:57:20.41</time>
      </trkpt>
      <trkpt lat="48.44692" lon="-4.4008">
        <ele>145</ele>
        <time>2012-02-26T08:57:21.41</time>
      </trkpt>
      <trkpt lat="48.44692" lon="-4.40073">
        <ele>145</ele>
        <time>2012-02-26T08:57:22.41</time>
      </trkpt>
      <trkpt lat="48.44691" lon="-4.40069">
        <ele>145</ele>
        <time>2012-02-26T08:57:23.41</time>
      </trkpt>
      <trkpt lat="48.44691" lon="-4.40063">
        <ele>145</ele>
        <time>2012-02-26T08:57:24.41</time>
      </trkpt>
      <trkpt lat="48.44691" lon="-4.40058">
        <ele>145</ele>
        <time>2012-02-26T08:57:25.41</time>
      </trkpt>
      <trkpt lat="48.4469" lon="-4.40052">
        <ele>145</ele>
        <time>2012-02-26T08:57:26.41</time>
      </trkpt>
      <trkpt lat="48.4469" lon="-4.40048">
        <ele>145</ele>
        <time>2012-02-26T08:57:27.41</time>
      </trkpt>
      <trkpt lat="48.44689" lon="-4.40041">
        <ele>145</ele>
        <time>2012-02-26T08:57:28.41</time>
      </trkpt>
      <trkpt lat="48.44689" lon="-4.40037">
        <ele>145</ele>
        <time>2012-02-26T08:57:29.41</time>
      </trkpt>
      <trkpt lat="48.4469" lon="-4.40035">
        <ele>145</ele>
        <time>2012-02-26T08:57:30.41</time>
      </trkpt>
      <trkpt lat="48.44692" lon="-4.40032">
        <ele>145</ele>
        <time>2012-02-26T08:57:32.41</time>
      </trkpt>
      <trkpt lat="48.44694" lon="-4.40032">
        <ele>145</ele>
        <time>2012-02-26T08:57:33.41</time>
      </trkpt>
      <trkpt lat="48.44697" lon="-4.4003">
        <ele>145</ele>
        <time>2012-02-26T08:57:34.41</time>
      </trkpt>
      <trkpt lat="48.447" lon="-4.4003">
        <ele>145</ele>
        <time>2012-02-26T08:57:35.41</time>
      </trkpt>
      <trkpt lat="48.44704" lon="-4.4003">
        <ele>145</ele>
        <time>2012-02-26T08:57:36.48</time>
      </trkpt>
      <trkpt lat="48.44707" lon="-4.4003">
        <ele>145</ele>
        <time>2012-02-26T08:57:37.42</time>
      </trkpt>
      <trkpt lat="48.4471" lon="-4.40032">
        <ele>145</ele>
        <time>2012-02-26T08:57:38.41</time>
      </trkpt>
      <trkpt lat="48.44713" lon="-4.40035">
        <ele>145</ele>
        <time>2012-02-26T08:57:39.41</time>
      </trkpt>
      <trkpt lat="48.44716" lon="-4.40037">
        <ele>145</ele>
        <time>2012-02-26T08:57:40.41</time>
      </trkpt>
      <trkpt lat="48.44719" lon="-4.40037">
        <ele>145</ele>
        <time>2012-02-26T08:57:41.41</time>
      </trkpt>
      <trkpt lat="48.44721" lon="-4.40037">
        <ele>145</ele>
        <time>2012-02-26T08:57:42.41</time>
      </trkpt>
      <trkpt lat="48.44722" lon="-4.40032">
        <ele>145</ele>
        <time>2012-02-26T08:57:43.41</time>
      </trkpt>
      <trkpt lat="48.44722" lon="-4.40028">
        <ele>145</ele>
        <time>2012-02-26T08:57:44.41</time>
      </trkpt>
      <trkpt lat="48.44723" lon="-4.40024">
        <ele>145</ele>
        <time>2012-02-26T08:57:45.41</time>
      </trkpt>
      <trkpt lat="48.44724" lon="-4.40017">
        <ele>145</ele>
        <time>2012-02-26T08:57:46.41</time>
      </trkpt>
      <trkpt lat="48.44726" lon="-4.40013">
        <ele>145</ele>
        <time>2012-02-26T08:57:47.41</time>
      </trkpt>
      <trkpt lat="48.44728" lon="-4.40007">
        <ele>145</ele>
        <time>2012-02-26T08:57:48.41</time>
      </trkpt>
      <trkpt lat="48.44729" lon="-4.39998">
        <ele>144</ele>
        <time>2012-02-26T08:57:49.41</time>
      </trkpt>
      <trkpt lat="48.4473" lon="-4.39992">
        <ele>144</ele>
        <time>2012-02-26T08:57:50.41</time>
      </trkpt>
      <trkpt lat="48.44731" lon="-4.39987">
        <ele>144</ele>
        <time>2012-02-26T08:57:51.41</time>
      </trkpt>
      <trkpt lat="48.4473" lon="-4.39983">
        <ele>144</ele>
        <time>2012-02-26T08:57:52.41</time>
      </trkpt>
      <trkpt lat="48.4473" lon="-4.39979">
        <ele>144</ele>
        <time>2012-02-26T08:57:53.41</time>
      </trkpt>
      <trkpt lat="48.44727" lon="-4.3997">
        <ele>145</ele>
        <time>2012-02-26T08:57:57.41</time>
      </trkpt>
      <trkpt lat="48.44726" lon="-4.39968">
        <ele>144</ele>
        <time>2012-02-26T08:57:58.41</time>
      </trkpt>
      <trkpt lat="48.44725" lon="-4.39966">
        <ele>144</ele>
        <time>2012-02-26T08:57:59.47</time>
      </trkpt>
      <trkpt lat="48.44724" lon="-4.39964">
        <ele>144</ele>
        <time>2012-02-26T08:58:01.41</time>
      </trkpt>
      <trkpt lat="48.44724" lon="-4.39962">
        <ele>144</ele>
        <time>2012-02-26T08:58:02.41</time>
      </trkpt>
      <trkpt lat="48.44724" lon="-4.3996">
        <ele>144</ele>
        <time>2012-02-26T08:58:03.41</time>
      </trkpt>
      <trkpt lat="48.44725" lon="-4.39957">
        <ele>144</ele>
        <time>2012-02-26T08:58:04.41</time>
      </trkpt>
      <trkpt lat="48.44725" lon="-4.39957">
        <ele>144</ele>
        <time>2012-02-26T08:58:11.41</time>
      </trkpt>
      <trkpt lat="48.44725" lon="-4.39949">
        <ele>144</ele>
        <time>2012-02-26T08:58:18.41</time>
      </trkpt>
      <trkpt lat="48.44725" lon="-4.39942">
        <ele>144</ele>
        <time>2012-02-26T08:58:19.41</time>
      </trkpt>
      <trkpt lat="48.44725" lon="-4.39938">
        <ele>144</ele>
        <time>2012-02-26T08:58:20.41</time>
      </trkpt>
      <trkpt lat="48.44725" lon="-4.39932">
        <ele>145</ele>
        <time>2012-02-26T08:58:21.41</time>
      </trkpt>
      <trkpt lat="48.44724" lon="-4.39923">
        <ele>145</ele>
        <time>2012-02-26T08:58:22.41</time>
      </trkpt>
      <trkpt lat="48.44723" lon="-4.39917">
        <ele>145</ele>
        <time>2012-02-26T08:58:23.41</time>
      </trkpt>
      <trkpt lat="48.44721" lon="-4.3991">
        <ele>145</ele>
        <time>2012-02-26T08:58:24.41</time>
      </trkpt>
      <trkpt lat="48.44718" lon="-4.39904">
        <ele>145</ele>
        <time>2012-02-26T08:58:25.41</time>
      </trkpt>
      <trkpt lat="48.44714" lon="-4.39899">
        <ele>145</ele>
        <time>2012-02-26T08:58:26.41</time>
      </trkpt>
      <trkpt lat="48.4471" lon="-4.39893">
        <ele>145</ele>
        <time>2012-02-26T08:58:27.42</time>
      </trkpt>
      <trkpt lat="48.44707" lon="-4.39891">
        <ele>145</ele>
        <time>2012-02-26T08:58:28.41</time>
      </trkpt>
      <trkpt lat="48.44702" lon="-4.39889">
        <ele>145</ele>
        <time>2012-02-26T08:58:29.41</time>
      </trkpt>
      <trkpt lat="48.44698" lon="-4.39884">
        <ele>145</ele>
        <time>2012-02-26T08:58:30.41</time>
      </trkpt>
      <trkpt lat="48.44695" lon="-4.39882">
        <ele>144</ele>
        <time>2012-02-26T08:58:31.41</time>
      </trkpt>
      <trkpt lat="48.44692" lon="-4.3988">
        <ele>144</ele>
        <time>2012-02-26T08:58:32.42</time>
      </trkpt>
      <trkpt lat="48.44687" lon="-4.39878">
        <ele>144</ele>
        <time>2012-02-26T08:58:33.41</time>
      </trkpt>
      <trkpt lat="48.44684" lon="-4.39874">
        <ele>144</ele>
        <time>2012-02-26T08:58:34.41</time>
      </trkpt>
      <trkpt lat="48.44681" lon="-4.39872">
        <ele>144</ele>
        <time>2012-02-26T08:58:35.41</time>
      </trkpt>
      <trkpt lat="48.44678" lon="-4.39869">
        <ele>144</ele>
        <time>2012-02-26T08:58:36.41</time>
      </trkpt>
      <trkpt lat="48.44672" lon="-4.39865">
        <ele>144</ele>
        <time>2012-02-26T08:58:37.41</time>
      </trkpt>
      <trkpt lat="48.44668" lon="-4.39863">
        <ele>145</ele>
        <time>2012-02-26T08:58:38.41</time>
      </trkpt>
      <trkpt lat="48.44665" lon="-4.39861">
        <ele>145</ele>
        <time>2012-02-26T08:58:39.41</time>
      </trkpt>
      <trkpt lat="48.44661" lon="-4.39857">
        <ele>145</ele>
        <time>2012-02-26T08:58:40.41</time>
      </trkpt>
      <trkpt lat="48.44656" lon="-4.39854">
        <ele>145</ele>
        <time>2012-02-26T08:58:41.41</time>
      </trkpt>
      <trkpt lat="48.44653" lon="-4.3985">
        <ele>145</ele>
        <time>2012-02-26T08:58:42.41</time>
      </trkpt>
      <trkpt lat="48.4465" lon="-4.39848">
        <ele>145</ele>
        <time>2012-02-26T08:58:43.41</time>
      </trkpt>
      <trkpt lat="48.44646" lon="-4.39844">
        <ele>145</ele>
        <time>2012-02-26T08:58:44.41</time>
      </trkpt>
      <trkpt lat="48.44641" lon="-4.39842">
        <ele>145</ele>
        <time>2012-02-26T08:58:45.41</time>
      </trkpt>
      <trkpt lat="48.44638" lon="-4.39837">
        <ele>145</ele>
        <time>2012-02-26T08:58:46.41</time>
      </trkpt>
      <trkpt lat="48.44634" lon="-4.39835">
        <ele>145</ele>
        <time>2012-02-26T08:58:47.41</time>
      </trkpt>
      <trkpt lat="48.44631" lon="-4.39831">
        <ele>145</ele>
        <time>2012-02-26T08:58:48.41</time>
      </trkpt>
      <trkpt lat="48.44626" lon="-4.39829">
        <ele>145</ele>
        <time>2012-02-26T08:58:49.41</time>
      </trkpt>
      <trkpt lat="48.44622" lon="-4.39826">
        <ele>145</ele>
        <time>2012-02-26T08:58:50.41</time>
      </trkpt>
      <trkpt lat="48.44619" lon="-4.39826">
        <ele>145</ele>
        <time>2012-02-26T08:58:51.41</time>
      </trkpt>
      <trkpt lat="48.44616" lon="-4.39824">
        <ele>145</ele>
        <time>2012-02-26T08:58:52.41</time>
      </trkpt>
      <trkpt lat="48.44611" lon="-4.39822">
        <ele>145</ele>
        <time>2012-02-26T08:58:53.39</time>
      </trkpt>
      <trkpt lat="48.44608" lon="-4.39822">
        <ele>145</ele>
        <time>2012-02-26T08:58:54.41</time>
      </trkpt>
      <trkpt lat="48.44605" lon="-4.39822">
        <ele>145</ele>
        <time>2012-02-26T08:58:55.41</time>
      </trkpt>
      <trkpt lat="48.44603" lon="-4.39822">
        <ele>145</ele>
        <time>2012-02-26T08:58:56.41</time>
      </trkpt>
      <trkpt lat="48.44599" lon="-4.3982">
        <ele>145</ele>
        <time>2012-02-26T08:58:57.41</time>
      </trkpt>
      <trkpt lat="48.44596" lon="-4.3982">
        <ele>145</ele>
        <time>2012-02-26T08:58:58.41</time>
      </trkpt>
      <trkpt lat="48.44594" lon="-4.3982">
        <ele>145</ele>
        <time>2012-02-26T08:58:59.41</time>
      </trkpt>
      <trkpt lat="48.44592" lon="-4.39818">
        <ele>145</ele>
        <time>2012-02-26T08:59:00.41</time>
      </trkpt>
      <trkpt lat="48.4459" lon="-4.39818">
        <ele>145</ele>
        <time>2012-02-26T08:59:01.41</time>
      </trkpt>
      <trkpt lat="48.44588" lon="-4.39816">
        <ele>145</ele>
        <time>2012-02-26T08:59:02.42</time>
      </trkpt>
      <trkpt lat="48.44586" lon="-4.39816">
        <ele>145</ele>
        <time>2012-02-26T08:59:03.41</time>
      </trkpt>
      <trkpt lat="48.44583" lon="-4.39814">
        <ele>145</ele>
        <time>2012-02-26T08:59:04.41</time>
      </trkpt>
      <trkpt lat="48.44581" lon="-4.39814">
        <ele>145</ele>
        <time>2012-02-26T08:59:05.41</time>
      </trkpt>
      <trkpt lat="48.44579" lon="-4.39811">
        <ele>145</ele>
        <time>2012-02-26T08:59:06.41</time>
      </trkpt>
      <trkpt lat="48.44576" lon="-4.39809">
        <ele>145</ele>
        <time>2012-02-26T08:59:07.41</time>
      </trkpt>
      <trkpt lat="48.44574" lon="-4.39807">
        <ele>145</ele>
        <time>2012-02-26T08:59:08.41</time>
      </trkpt>
      <trkpt lat="48.44572" lon="-4.39805">
        <ele>145</ele>
        <time>2012-02-26T08:59:09.41</time>
      </trkpt>
      <trkpt lat="48.44569" lon="-4.39803">
        <ele>145</ele>
        <time>2012-02-26T08:59:10.41</time>
      </trkpt>
      <trkpt lat="48.44566" lon="-4.39803">
        <ele>145</ele>
        <time>2012-02-26T08:59:11.41</time>
      </trkpt>
      <trkpt lat="48.44564" lon="-4.39801">
        <ele>145</ele>
        <time>2012-02-26T08:59:12.41</time>
      </trkpt>
      <trkpt lat="48.44561" lon="-4.39801">
        <ele>145</ele>
        <time>2012-02-26T08:59:13.41</time>
      </trkpt>
      <trkpt lat="48.44559" lon="-4.39801">
        <ele>145</ele>
        <time>2012-02-26T08:59:14.41</time>
      </trkpt>
      <trkpt lat="48.44557" lon="-4.39801">
        <ele>145</ele>
        <time>2012-02-26T08:59:15.39</time>
      </trkpt>
      <trkpt lat="48.44554" lon="-4.39799">
        <ele>145</ele>
        <time>2012-02-26T08:59:16.41</time>
      </trkpt>
      <trkpt lat="48.44551" lon="-4.39799">
        <ele>145</ele>
        <time>2012-02-26T08:59:17.41</time>
      </trkpt>
      <trkpt lat="48.44549" lon="-4.39799">
        <ele>145</ele>
        <time>2012-02-26T08:59:18.41</time>
      </trkpt>
      <trkpt lat="48.44547" lon="-4.39801">
        <ele>145</ele>
        <time>2012-02-26T08:59:19.42</time>
      </trkpt>
      <trkpt lat="48.44545" lon="-4.39803">
        <ele>145</ele>
        <time>2012-02-26T08:59:20.41</time>
      </trkpt>
      <trkpt lat="48.44543" lon="-4.39805">
        <ele>145</ele>
        <time>2012-02-26T08:59:21.41</time>
      </trkpt>
      <trkpt lat="48.44542" lon="-4.39807">
        <ele>145</ele>
        <time>2012-02-26T08:59:22.41</time>
      </trkpt>
      <trkpt lat="48.44539" lon="-4.39809">
        <ele>145</ele>
        <time>2012-02-26T08:59:23.41</time>
      </trkpt>
      <trkpt lat="48.44538" lon="-4.39811">
        <ele>145</ele>
        <time>2012-02-26T08:59:24.41</time>
      </trkpt>
      <trkpt lat="48.44536" lon="-4.39816">
        <ele>145</ele>
        <time>2012-02-26T08:59:25.41</time>
      </trkpt>
      <trkpt lat="48.44534" lon="-4.39818">
        <ele>145</ele>
        <time>2012-02-26T08:59:26.42</time>
      </trkpt>
      <trkpt lat="48.44532" lon="-4.39822">
        <ele>145</ele>
        <time>2012-02-26T08:59:27.41</time>
      </trkpt>
      <trkpt lat="48.4453" lon="-4.39826">
        <ele>145</ele>
        <time>2012-02-26T08:59:28.42</time>
      </trkpt>
      <trkpt lat="48.44528" lon="-4.39831">
        <ele>145</ele>
        <time>2012-02-26T08:59:29.43</time>
      </trkpt>
      <trkpt lat="48.44525" lon="-4.39835">
        <ele>144</ele>
        <time>2012-02-26T08:59:30.41</time>
      </trkpt>
      <trkpt lat="48.44523" lon="-4.39839">
        <ele>144</ele>
        <time>2012-02-26T08:59:31.42</time>
      </trkpt>
      <trkpt lat="48.44521" lon="-4.39844">
        <ele>144</ele>
        <time>2012-02-26T08:59:32.48</time>
      </trkpt>
      <trkpt lat="48.4452" lon="-4.39846">
        <ele>144</ele>
        <time>2012-02-26T08:59:33.41</time>
      </trkpt>
      <trkpt lat="48.44519" lon="-4.39848">
        <ele>144</ele>
        <time>2012-02-26T08:59:35.42</time>
      </trkpt>
      <trkpt lat="48.44518" lon="-4.3985">
        <ele>144</ele>
        <time>2012-02-26T08:59:36.41</time>
      </trkpt>
      <trkpt lat="48.44517" lon="-4.39852">
        <ele>144</ele>
        <time>2012-02-26T08:59:37.42</time>
      </trkpt>
      <trkpt lat="48.44517" lon="-4.39854">
        <ele>144</ele>
        <time>2012-02-26T08:59:38.42</time>
      </trkpt>
      <trkpt lat="48.44516" lon="-4.39857">
        <ele>144</ele>
        <time>2012-02-26T08:59:39.41</time>
      </trkpt>
      <trkpt lat="48.44513" lon="-4.39865">
        <ele>143</ele>
        <time>2012-02-26T08:59:46.40</time>
      </trkpt>
      <trkpt lat="48.44513" lon="-4.39867">
        <ele>143</ele>
        <time>2012-02-26T08:59:47.41</time>
      </trkpt>
      <trkpt lat="48.44512" lon="-4.39867">
        <ele>143</ele>
        <time>2012-02-26T08:59:48.41</time>
      </trkpt>
      <trkpt lat="48.44509" lon="-4.39872">
        <ele>143</ele>
        <time>2012-02-26T08:59:49.42</time>
      </trkpt>
      <trkpt lat="48.44508" lon="-4.39876">
        <ele>142</ele>
        <time>2012-02-26T08:59:50.41</time>
      </trkpt>
      <trkpt lat="48.44506" lon="-4.3988">
        <ele>142</ele>
        <time>2012-02-26T08:59:51.41</time>
      </trkpt>
      <trkpt lat="48.44504" lon="-4.39887">
        <ele>141</ele>
        <time>2012-02-26T08:59:52.42</time>
      </trkpt>
      <trkpt lat="48.44501" lon="-4.39893">
        <ele>140</ele>
        <time>2012-02-26T08:59:53.41</time>
      </trkpt>
      <trkpt lat="48.44499" lon="-4.39899">
        <ele>140</ele>
        <time>2012-02-26T08:59:54.41</time>
      </trkpt>
      <trkpt lat="48.44495" lon="-4.39908">
        <ele>140</ele>
        <time>2012-02-26T08:59:55.48</time>
      </trkpt>
      <trkpt lat="48.44491" lon="-4.39914">
        <ele>139</ele>
        <time>2012-02-26T08:59:56.40</time>
      </trkpt>
      <trkpt lat="48.44488" lon="-4.39925">
        <ele>139</ele>
        <time>2012-02-26T08:59:57.41</time>
      </trkpt>
      <trkpt lat="48.44484" lon="-4.39934">
        <ele>138</ele>
        <time>2012-02-26T08:59:58.42</time>
      </trkpt>
      <trkpt lat="48.4448" lon="-4.39942">
        <ele>138</ele>
        <time>2012-02-26T08:59:59.40</time>
      </trkpt>
      <trkpt lat="48.44476" lon="-4.39953">
        <ele>138</ele>
        <time>2012-02-26T09:00:00.41</time>
      </trkpt>
      <trkpt lat="48.44472" lon="-4.39962">
        <ele>138</ele>
        <time>2012-02-26T09:00:01.42</time>
      </trkpt>
      <trkpt lat="48.44468" lon="-4.39972">
        <ele>137</ele>
        <time>2012-02-26T09:00:02.40</time>
      </trkpt>
      <trkpt lat="48.44463" lon="-4.39983">
        <ele>137</ele>
        <time>2012-02-26T09:00:03.41</time>
      </trkpt>
      <trkpt lat="48.4446" lon="-4.39992">
        <ele>137</ele>
        <time>2012-02-26T09:00:04.42</time>
      </trkpt>
      <trkpt lat="48.44456" lon="-4.40002">
        <ele>137</ele>
        <time>2012-02-26T09:00:05.40</time>
      </trkpt>
      <trkpt lat="48.44453" lon="-4.40011">
        <ele>137</ele>
        <time>2012-02-26T09:00:06.41</time>
      </trkpt>
      <trkpt lat="48.44449" lon="-4.4002">
        <ele>137</ele>
        <time>2012-02-26T09:00:07.42</time>
      </trkpt>
      <trkpt lat="48.44445" lon="-4.40028">
        <ele>137</ele>
        <time>2012-02-26T09:00:08.40</time>
      </trkpt>
      <trkpt lat="48.44442" lon="-4.40037">
        <ele>137</ele>
        <time>2012-02-26T09:00:09.41</time>
      </trkpt>
      <trkpt lat="48.44439" lon="-4.40048">
        <ele>137</ele>
        <time>2012-02-26T09:00:10.42</time>
      </trkpt>
      <trkpt lat="48.44434" lon="-4.40056">
        <ele>137</ele>
        <time>2012-02-26T09:00:11.46</time>
      </trkpt>
      <trkpt lat="48.44431" lon="-4.40067">
        <ele>137</ele>
        <time>2012-02-26T09:00:12.41</time>
      </trkpt>
      <trkpt lat="48.44428" lon="-4.40075">
        <ele>138</ele>
        <time>2012-02-26T09:00:13.41</time>
      </trkpt>
      <trkpt lat="48.44424" lon="-4.40086">
        <ele>138</ele>
        <time>2012-02-26T09:00:14.42</time>
      </trkpt>
      <trkpt lat="48.4442" lon="-4.40095">
        <ele>138</ele>
        <time>2012-02-26T09:00:15.41</time>
      </trkpt>
      <trkpt lat="48.44417" lon="-4.40105">
        <ele>138</ele>
        <time>2012-02-26T09:00:16.41</time>
      </trkpt>
      <trkpt lat="48.44413" lon="-4.40114">
        <ele>138</ele>
        <time>2012-02-26T09:00:17.42</time>
      </trkpt>
      <trkpt lat="48.4441" lon="-4.40125">
        <ele>138</ele>
        <time>2012-02-26T09:00:18.41</time>
      </trkpt>
      <trkpt lat="48.44406" lon="-4.40135">
        <ele>139</ele>
        <time>2012-02-26T09:00:19.41</time>
      </trkpt>
      <trkpt lat="48.44403" lon="-4.40144">
        <ele>139</ele>
        <time>2012-02-26T09:00:20.42</time>
      </trkpt>
      <trkpt lat="48.44399" lon="-4.40155">
        <ele>139</ele>
        <time>2012-02-26T09:00:21.40</time>
      </trkpt>
      <trkpt lat="48.44396" lon="-4.40166">
        <ele>139</ele>
        <time>2012-02-26T09:00:22.41</time>
      </trkpt>
      <trkpt lat="48.44391" lon="-4.40176">
        <ele>139</ele>
        <time>2012-02-26T09:00:23.42</time>
      </trkpt>
      <trkpt lat="48.44388" lon="-4.40185">
        <ele>139</ele>
        <time>2012-02-26T09:00:24.41</time>
      </trkpt>
      <trkpt lat="48.44384" lon="-4.40196">
        <ele>139</ele>
        <time>2012-02-26T09:00:25.41</time>
      </trkpt>
      <trkpt lat="48.44381" lon="-4.40206">
        <ele>139</ele>
        <time>2012-02-26T09:00:26.42</time>
      </trkpt>
      <trkpt lat="48.44376" lon="-4.40217">
        <ele>139</ele>
        <time>2012-02-26T09:00:27.40</time>
      </trkpt>
      <trkpt lat="48.44373" lon="-4.40228">
        <ele>139</ele>
        <time>2012-02-26T09:00:28.41</time>
      </trkpt>
      <trkpt lat="48.44369" lon="-4.40236">
        <ele>140</ele>
        <time>2012-02-26T09:00:29.42</time>
      </trkpt>
      <trkpt lat="48.44366" lon="-4.40247">
        <ele>140</ele>
        <time>2012-02-26T09:00:30.42</time>
      </trkpt>
      <trkpt lat="48.44361" lon="-4.40258">
        <ele>140</ele>
        <time>2012-02-26T09:00:31.41</time>
      </trkpt>
      <trkpt lat="48.44358" lon="-4.40266">
        <ele>141</ele>
        <time>2012-02-26T09:00:32.42</time>
      </trkpt>
      <trkpt lat="48.44355" lon="-4.40277">
        <ele>140</ele>
        <time>2012-02-26T09:00:33.46</time>
      </trkpt>
      <trkpt lat="48.44352" lon="-4.40288">
        <ele>140</ele>
        <time>2012-02-26T09:00:34.41</time>
      </trkpt>
      <trkpt lat="48.4435" lon="-4.40299">
        <ele>140</ele>
        <time>2012-02-26T09:00:35.41</time>
      </trkpt>
      <trkpt lat="48.44346" lon="-4.40309">
        <ele>140</ele>
        <time>2012-02-26T09:00:36.42</time>
      </trkpt>
      <trkpt lat="48.44344" lon="-4.4032">
        <ele>139</ele>
        <time>2012-02-26T09:00:37.41</time>
      </trkpt>
      <trkpt lat="48.44341" lon="-4.40329">
        <ele>139</ele>
        <time>2012-02-26T09:00:38.41</time>
      </trkpt>
      <trkpt lat="48.44338" lon="-4.40339">
        <ele>139</ele>
        <time>2012-02-26T09:00:39.42</time>
      </trkpt>
      <trkpt lat="48.44334" lon="-4.40348">
        <ele>139</ele>
        <time>2012-02-26T09:00:40.41</time>
      </trkpt>
      <trkpt lat="48.44331" lon="-4.40359">
        <ele>139</ele>
        <time>2012-02-26T09:00:41.41</time>
      </trkpt>
      <trkpt lat="48.44328" lon="-4.40367">
        <ele>139</ele>
        <time>2012-02-26T09:00:42.42</time>
      </trkpt>
      <trkpt lat="48.44326" lon="-4.40376">
        <ele>139</ele>
        <time>2012-02-26T09:00:43.41</time>
      </trkpt>
      <trkpt lat="48.44323" lon="-4.40387">
        <ele>138</ele>
        <time>2012-02-26T09:00:44.41</time>
      </trkpt>
      <trkpt lat="48.44319" lon="-4.40395">
        <ele>138</ele>
        <time>2012-02-26T09:00:45.42</time>
      </trkpt>
      <trkpt lat="48.44316" lon="-4.40404">
        <ele>138</ele>
        <time>2012-02-26T09:00:46.40</time>
      </trkpt>
      <trkpt lat="48.44313" lon="-4.40412">
        <ele>138</ele>
        <time>2012-02-26T09:00:47.41</time>
      </trkpt>
      <trkpt lat="48.44311" lon="-4.40421">
        <ele>138</ele>
        <time>2012-02-26T09:00:48.42</time>
      </trkpt>
      <trkpt lat="48.44308" lon="-4.40429">
        <ele>138</ele>
        <time>2012-02-26T09:00:49.40</time>
      </trkpt>
      <trkpt lat="48.44304" lon="-4.40438">
        <ele>138</ele>
        <time>2012-02-26T09:00:50.41</time>
      </trkpt>
      <trkpt lat="48.44302" lon="-4.40447">
        <ele>138</ele>
        <time>2012-02-26T09:00:51.42</time>
      </trkpt>
      <trkpt lat="48.44299" lon="-4.40453">
        <ele>138</ele>
        <time>2012-02-26T09:00:52.42</time>
      </trkpt>
      <trkpt lat="48.44297" lon="-4.40464">
        <ele>138</ele>
        <time>2012-02-26T09:00:53.41</time>
      </trkpt>
      <trkpt lat="48.44294" lon="-4.40472">
        <ele>138</ele>
        <time>2012-02-26T09:00:54.42</time>
      </trkpt>
      <trkpt lat="48.4429" lon="-4.40481">
        <ele>138</ele>
        <time>2012-02-26T09:00:55.42</time>
      </trkpt>
      <trkpt lat="48.44288" lon="-4.4049">
        <ele>138</ele>
        <time>2012-02-26T09:00:56.41</time>
      </trkpt>
      <trkpt lat="48.44285" lon="-4.40498">
        <ele>138</ele>
        <time>2012-02-26T09:00:57.42</time>
      </trkpt>
      <trkpt lat="48.44283" lon="-4.40507">
        <ele>138</ele>
        <time>2012-02-26T09:00:58.42</time>
      </trkpt>
      <trkpt lat="48.4428" lon="-4.40515">
        <ele>138</ele>
        <time>2012-02-26T09:00:59.41</time>
      </trkpt>
      <trkpt lat="48.44278" lon="-4.40524">
        <ele>138</ele>
        <time>2012-02-26T09:01:00.41</time>
      </trkpt>
      <trkpt lat="48.44274" lon="-4.40532">
        <ele>137</ele>
        <time>2012-02-26T09:01:01.42</time>
      </trkpt>
      <trkpt lat="48.44272" lon="-4.40541">
        <ele>137</ele>
        <time>2012-02-26T09:01:02.41</time>
      </trkpt>
      <trkpt lat="48.4427" lon="-4.4055">
        <ele>137</ele>
        <time>2012-02-26T09:01:03.41</time>
      </trkpt>
      <trkpt lat="48.44268" lon="-4.40558">
        <ele>137</ele>
        <time>2012-02-26T09:01:04.42</time>
      </trkpt>
      <trkpt lat="48.44265" lon="-4.40567">
        <ele>137</ele>
        <time>2012-02-26T09:01:05.41</time>
      </trkpt>
      <trkpt lat="48.44263" lon="-4.40573">
        <ele>137</ele>
        <time>2012-02-26T09:01:06.41</time>
      </trkpt>
      <trkpt lat="48.4426" lon="-4.40582">
        <ele>137</ele>
        <time>2012-02-26T09:01:07.47</time>
      </trkpt>
      <trkpt lat="48.44258" lon="-4.4059">
        <ele>137</ele>
        <time>2012-02-26T09:01:08.40</time>
      </trkpt>
      <trkpt lat="48.44256" lon="-4.40599">
        <ele>137</ele>
        <time>2012-02-26T09:01:09.41</time>
      </trkpt>
      <trkpt lat="48.44254" lon="-4.40605">
        <ele>137</ele>
        <time>2012-02-26T09:01:10.42</time>
      </trkpt>
      <trkpt lat="48.44252" lon="-4.40614">
        <ele>137</ele>
        <time>2012-02-26T09:01:11.40</time>
      </trkpt>
      <trkpt lat="48.4425" lon="-4.40623">
        <ele>137</ele>
        <time>2012-02-26T09:01:12.41</time>
      </trkpt>
      <trkpt lat="48.44247" lon="-4.40631">
        <ele>137</ele>
        <time>2012-02-26T09:01:13.42</time>
      </trkpt>
      <trkpt lat="48.44244" lon="-4.4064">
        <ele>137</ele>
        <time>2012-02-26T09:01:14.42</time>
      </trkpt>
      <trkpt lat="48.44241" lon="-4.40648">
        <ele>137</ele>
        <time>2012-02-26T09:01:15.41</time>
      </trkpt>
      <trkpt lat="48.44239" lon="-4.40655">
        <ele>137</ele>
        <time>2012-02-26T09:01:16.41</time>
      </trkpt>
      <trkpt lat="48.44237" lon="-4.40663">
        <ele>137</ele>
        <time>2012-02-26T09:01:17.42</time>
      </trkpt>
      <trkpt lat="48.44234" lon="-4.40672">
        <ele>138</ele>
        <time>2012-02-26T09:01:18.41</time>
      </trkpt>
      <trkpt lat="48.44231" lon="-4.40678">
        <ele>138</ele>
        <time>2012-02-26T09:01:19.42</time>
      </trkpt>
      <trkpt lat="48.44229" lon="-4.40687">
        <ele>138</ele>
        <time>2012-02-26T09:01:20.42</time>
      </trkpt>
      <trkpt lat="48.44226" lon="-4.40696">
        <ele>138</ele>
        <time>2012-02-26T09:01:21.41</time>
      </trkpt>
      <trkpt lat="48.44224" lon="-4.40704">
        <ele>138</ele>
        <time>2012-02-26T09:01:22.41</time>
      </trkpt>
      <trkpt lat="48.44222" lon="-4.40711">
        <ele>138</ele>
        <time>2012-02-26T09:01:23.46</time>
      </trkpt>
      <trkpt lat="48.4422" lon="-4.40719">
        <ele>138</ele>
        <time>2012-02-26T09:01:24.41</time>
      </trkpt>
      <trkpt lat="48.44216" lon="-4.40728">
        <ele>138</ele>
        <time>2012-02-26T09:01:25.41</time>
      </trkpt>
      <trkpt lat="48.44214" lon="-4.40736">
        <ele>138</ele>
        <time>2012-02-26T09:01:26.42</time>
      </trkpt>
      <trkpt lat="48.44212" lon="-4.40745">
        <ele>138</ele>
        <time>2012-02-26T09:01:27.41</time>
      </trkpt>
      <trkpt lat="48.44209" lon="-4.40751">
        <ele>138</ele>
        <time>2012-02-26T09:01:28.41</time>
      </trkpt>
      <trkpt lat="48.44207" lon="-4.4076">
        <ele>138</ele>
        <time>2012-02-26T09:01:29.42</time>
      </trkpt>
      <trkpt lat="48.44205" lon="-4.40768">
        <ele>138</ele>
        <time>2012-02-26T09:01:30.41</time>
      </trkpt>
      <trkpt lat="48.44203" lon="-4.40777">
        <ele>138</ele>
        <time>2012-02-26T09:01:31.41</time>
      </trkpt>
      <trkpt lat="48.44199" lon="-4.40788">
        <ele>138</ele>
        <time>2012-02-26T09:01:32.42</time>
      </trkpt>
      <trkpt lat="48.44197" lon="-4.40796">
        <ele>138</ele>
        <time>2012-02-26T09:01:33.40</time>
      </trkpt>
      <trkpt lat="48.44195" lon="-4.40805">
        <ele>139</ele>
        <time>2012-02-26T09:01:34.41</time>
      </trkpt>
      <trkpt lat="48.44194" lon="-4.40814">
        <ele>139</ele>
        <time>2012-02-26T09:01:35.42</time>
      </trkpt>
      <trkpt lat="48.44192" lon="-4.40824">
        <ele>139</ele>
        <time>2012-02-26T09:01:36.42</time>
      </trkpt>
      <trkpt lat="48.44191" lon="-4.40833">
        <ele>139</ele>
        <time>2012-02-26T09:01:37.41</time>
      </trkpt>
      <trkpt lat="48.4419" lon="-4.40839">
        <ele>138</ele>
        <time>2012-02-26T09:01:38.42</time>
      </trkpt>
      <trkpt lat="48.44186" lon="-4.40841">
        <ele>138</ele>
        <time>2012-02-26T09:01:39.48</time>
      </trkpt>
      <trkpt lat="48.44183" lon="-4.40846">
        <ele>137</ele>
        <time>2012-02-26T09:01:40.41</time>
      </trkpt>
      <trkpt lat="48.44181" lon="-4.40846">
        <ele>137</ele>
        <time>2012-02-26T09:01:41.41</time>
      </trkpt>
      <trkpt lat="48.44179" lon="-4.40848">
        <ele>137</ele>
        <time>2012-02-26T09:01:42.42</time>
      </trkpt>
      <trkpt lat="48.44175" lon="-4.40846">
        <ele>137</ele>
        <time>2012-02-26T09:01:43.40</time>
      </trkpt>
      <trkpt lat="48.4417" lon="-4.40848">
        <ele>137</ele>
        <time>2012-02-26T09:01:44.40</time>
      </trkpt>
      <trkpt lat="48.44166" lon="-4.40837">
        <ele>137</ele>
        <time>2012-02-26T09:01:45.41</time>
      </trkpt>
      <trkpt lat="48.44162" lon="-4.40833">
        <ele>137</ele>
        <time>2012-02-26T09:01:46.40</time>
      </trkpt>
      <trkpt lat="48.44156" lon="-4.40824">
        <ele>137</ele>
        <time>2012-02-26T09:01:47.40</time>
      </trkpt>
      <trkpt lat="48.44152" lon="-4.40814">
        <ele>137</ele>
        <time>2012-02-26T09:01:48.41</time>
      </trkpt>
      <trkpt lat="48.44146" lon="-4.40803">
        <ele>138</ele>
        <time>2012-02-26T09:01:49.41</time>
      </trkpt>
      <trkpt lat="48.4414" lon="-4.40792">
        <ele>138</ele>
        <time>2012-02-26T09:01:50.41</time>
      </trkpt>
      <trkpt lat="48.44137" lon="-4.40788">
        <ele>138</ele>
        <time>2012-02-26T09:01:51.40</time>
      </trkpt>
      <trkpt lat="48.44134" lon="-4.40786">
        <ele>138</ele>
        <time>2012-02-26T09:01:52.41</time>
      </trkpt>
      <trkpt lat="48.44131" lon="-4.40786">
        <ele>138</ele>
        <time>2012-02-26T09:01:53.41</time>
      </trkpt>
      <trkpt lat="48.44128" lon="-4.40786">
        <ele>138</ele>
        <time>2012-02-26T09:01:54.41</time>
      </trkpt>
      <trkpt lat="48.4413" lon="-4.40792">
        <ele>139</ele>
        <time>2012-02-26T09:01:55.41</time>
      </trkpt>
      <trkpt lat="48.44133" lon="-4.40799">
        <ele>139</ele>
        <time>2012-02-26T09:01:56.41</time>
      </trkpt>
      <trkpt lat="48.44136" lon="-4.40805">
        <ele>140</ele>
        <time>2012-02-26T09:01:57.42</time>
      </trkpt>
      <trkpt lat="48.44139" lon="-4.40811">
        <ele>141</ele>
        <time>2012-02-26T09:01:58.42</time>
      </trkpt>
      <trkpt lat="48.44142" lon="-4.40818">
        <ele>141</ele>
        <time>2012-02-26T09:01:59.41</time>
      </trkpt>
      <trkpt lat="48.44144" lon="-4.40824">
        <ele>142</ele>
        <time>2012-02-26T09:02:00.42</time>
      </trkpt>
      <trkpt lat="48.44144" lon="-4.40833">
        <ele>142</ele>
        <time>2012-02-26T09:02:01.45</time>
      </trkpt>
      <trkpt lat="48.44144" lon="-4.40839">
        <ele>142</ele>
        <time>2012-02-26T09:02:02.41</time>
      </trkpt>
      <trkpt lat="48.44141" lon="-4.40846">
        <ele>142</ele>
        <time>2012-02-26T09:02:03.41</time>
      </trkpt>
      <trkpt lat="48.44139" lon="-4.40854">
        <ele>143</ele>
        <time>2012-02-26T09:02:04.42</time>
      </trkpt>
      <trkpt lat="48.44138" lon="-4.40861">
        <ele>143</ele>
        <time>2012-02-26T09:02:05.41</time>
      </trkpt>
      <trkpt lat="48.44136" lon="-4.40867">
        <ele>143</ele>
        <time>2012-02-26T09:02:06.42</time>
      </trkpt>
      <trkpt lat="48.44135" lon="-4.40874">
        <ele>143</ele>
        <time>2012-02-26T09:02:07.42</time>
      </trkpt>
      <trkpt lat="48.44133" lon="-4.40882">
        <ele>143</ele>
        <time>2012-02-26T09:02:08.41</time>
      </trkpt>
      <trkpt lat="48.44132" lon="-4.40889">
        <ele>143</ele>
        <time>2012-02-26T09:02:09.41</time>
      </trkpt>
      <trkpt lat="48.4413" lon="-4.40895">
        <ele>143</ele>
        <time>2012-02-26T09:02:10.42</time>
      </trkpt>
      <trkpt lat="48.44127" lon="-4.40902">
        <ele>144</ele>
        <time>2012-02-26T09:02:11.41</time>
      </trkpt>
      <trkpt lat="48.44126" lon="-4.40908">
        <ele>144</ele>
        <time>2012-02-26T09:02:12.41</time>
      </trkpt>
      <trkpt lat="48.44124" lon="-4.40914">
        <ele>144</ele>
        <time>2012-02-26T09:02:13.42</time>
      </trkpt>
      <trkpt lat="48.44122" lon="-4.40921">
        <ele>144</ele>
        <time>2012-02-26T09:02:14.41</time>
      </trkpt>
      <trkpt lat="48.44121" lon="-4.40927">
        <ele>144</ele>
        <time>2012-02-26T09:02:15.41</time>
      </trkpt>
      <trkpt lat="48.44119" lon="-4.40934">
        <ele>144</ele>
        <time>2012-02-26T09:02:16.41</time>
      </trkpt>
      <trkpt lat="48.44118" lon="-4.4094">
        <ele>144</ele>
        <time>2012-02-26T09:02:17.42</time>
      </trkpt>
      <trkpt lat="48.44116" lon="-4.40949">
        <ele>144</ele>
        <time>2012-02-26T09:02:18.41</time>
      </trkpt>
      <trkpt lat="48.44113" lon="-4.40955">
        <ele>145</ele>
        <time>2012-02-26T09:02:19.42</time>
      </trkpt>
      <trkpt lat="48.44111" lon="-4.40962">
        <ele>145</ele>
        <time>2012-02-26T09:02:20.42</time>
      </trkpt>
      <trkpt lat="48.44109" lon="-4.40968">
        <ele>145</ele>
        <time>2012-02-26T09:02:21.41</time>
      </trkpt>
      <trkpt lat="48.44107" lon="-4.40974">
        <ele>146</ele>
        <time>2012-02-26T09:02:22.42</time>
      </trkpt>
      <trkpt lat="48.44105" lon="-4.40979">
        <ele>147</ele>
        <time>2012-02-26T09:02:23.42</time>
      </trkpt>
      <trkpt lat="48.44103" lon="-4.40985">
        <ele>148</ele>
        <time>2012-02-26T09:02:24.41</time>
      </trkpt>
      <trkpt lat="48.44101" lon="-4.40992">
        <ele>148</ele>
        <time>2012-02-26T09:02:25.41</time>
      </trkpt>
      <trkpt lat="48.44098" lon="-4.40998">
        <ele>148</ele>
        <time>2012-02-26T09:02:26.42</time>
      </trkpt>
      <trkpt lat="48.44096" lon="-4.41005">
        <ele>148</ele>
        <time>2012-02-26T09:02:27.41</time>
      </trkpt>
      <trkpt lat="48.44094" lon="-4.41009">
        <ele>148</ele>
        <time>2012-02-26T09:02:28.41</time>
      </trkpt>
      <trkpt lat="48.44092" lon="-4.41015">
        <ele>148</ele>
        <time>2012-02-26T09:02:29.42</time>
      </trkpt>
      <trkpt lat="48.44091" lon="-4.41022">
        <ele>149</ele>
        <time>2012-02-26T09:02:30.41</time>
      </trkpt>
      <trkpt lat="48.44089" lon="-4.41028">
        <ele>149</ele>
        <time>2012-02-26T09:02:31.41</time>
      </trkpt>
      <trkpt lat="48.44088" lon="-4.41035">
        <ele>149</ele>
        <time>2012-02-26T09:02:32.42</time>
      </trkpt>
      <trkpt lat="48.44086" lon="-4.41039">
        <ele>149</ele>
        <time>2012-02-26T09:02:33.41</time>
      </trkpt>
      <trkpt lat="48.44083" lon="-4.41045">
        <ele>149</ele>
        <time>2012-02-26T09:02:34.41</time>
      </trkpt>
      <trkpt lat="48.44082" lon="-4.41052">
        <ele>149</ele>
        <time>2012-02-26T09:02:35.46</time>
      </trkpt>
      <trkpt lat="48.4408" lon="-4.41056">
        <ele>149</ele>
        <time>2012-02-26T09:02:36.41</time>
      </trkpt>
      <trkpt lat="48.4408" lon="-4.41062">
        <ele>149</ele>
        <time>2012-02-26T09:02:37.41</time>
      </trkpt>
      <trkpt lat="48.44078" lon="-4.41067">
        <ele>149</ele>
        <time>2012-02-26T09:02:38.42</time>
      </trkpt>
      <trkpt lat="48.44077" lon="-4.41073">
        <ele>149</ele>
        <time>2012-02-26T09:02:39.43</time>
      </trkpt>
      <trkpt lat="48.44076" lon="-4.41077">
        <ele>149</ele>
        <time>2012-02-26T09:02:40.41</time>
      </trkpt>
      <trkpt lat="48.44075" lon="-4.41082">
        <ele>149</ele>
        <time>2012-02-26T09:02:41.42</time>
      </trkpt>
      <trkpt lat="48.44074" lon="-4.41086">
        <ele>149</ele>
        <time>2012-02-26T09:02:42.42</time>
      </trkpt>
      <trkpt lat="48.44072" lon="-4.41092">
        <ele>148</ele>
        <time>2012-02-26T09:02:43.41</time>
      </trkpt>
      <trkpt lat="48.44071" lon="-4.41097">
        <ele>148</ele>
        <time>2012-02-26T09:02:44.42</time>
      </trkpt>
      <trkpt lat="48.44069" lon="-4.41103">
        <ele>148</ele>
        <time>2012-02-26T09:02:45.42</time>
      </trkpt>
      <trkpt lat="48.44067" lon="-4.4111">
        <ele>148</ele>
        <time>2012-02-26T09:02:46.41</time>
      </trkpt>
      <trkpt lat="48.44066" lon="-4.41114">
        <ele>148</ele>
        <time>2012-02-26T09:02:47.42</time>
      </trkpt>
      <trkpt lat="48.44065" lon="-4.4112">
        <ele>148</ele>
        <time>2012-02-26T09:02:48.42</time>
      </trkpt>
      <trkpt lat="48.44064" lon="-4.41127">
        <ele>148</ele>
        <time>2012-02-26T09:02:49.41</time>
      </trkpt>
      <trkpt lat="48.44064" lon="-4.41131">
        <ele>148</ele>
        <time>2012-02-26T09:02:50.42</time>
      </trkpt>
      <trkpt lat="48.44063" lon="-4.41138">
        <ele>148</ele>
        <time>2012-02-26T09:02:51.48</time>
      </trkpt>
      <trkpt lat="48.44062" lon="-4.41142">
        <ele>148</ele>
        <time>2012-02-26T09:02:52.41</time>
      </trkpt>
      <trkpt lat="48.44061" lon="-4.41146">
        <ele>148</ele>
        <time>2012-02-26T09:02:53.41</time>
      </trkpt>
      <trkpt lat="48.4406" lon="-4.4115">
        <ele>148</ele>
        <time>2012-02-26T09:02:54.42</time>
      </trkpt>
      <trkpt lat="48.4406" lon="-4.41153">
        <ele>148</ele>
        <time>2012-02-26T09:02:55.41</time>
      </trkpt>
      <trkpt lat="48.44059" lon="-4.41155">
        <ele>147</ele>
        <time>2012-02-26T09:02:56.41</time>
      </trkpt>
      <trkpt lat="48.44057" lon="-4.41157">
        <ele>147</ele>
        <time>2012-02-26T09:02:57.42</time>
      </trkpt>
      <trkpt lat="48.44056" lon="-4.41159">
        <ele>147</ele>
        <time>2012-02-26T09:02:58.41</time>
      </trkpt>
      <trkpt lat="48.44054" lon="-4.41161">
        <ele>147</ele>
        <time>2012-02-26T09:02:59.39</time>
      </trkpt>
      <trkpt lat="48.44053" lon="-4.41161">
        <ele>147</ele>
        <time>2012-02-26T09:03:00.40</time>
      </trkpt>
      <trkpt lat="48.44057" lon="-4.41159">
        <ele>148</ele>
        <time>2012-02-26T09:03:07.46</time>
      </trkpt>
      <trkpt lat="48.44058" lon="-4.41159">
        <ele>148</ele>
        <time>2012-02-26T09:03:08.46</time>
      </trkpt>
      <trkpt lat="48.4406" lon="-4.41159">
        <ele>148</ele>
        <time>2012-02-26T09:03:09.46</time>
      </trkpt>
      <trkpt lat="48.44061" lon="-4.41157">
        <ele>148</ele>
        <time>2012-02-26T09:03:10.46</time>
      </trkpt>
      <trkpt lat="48.44063" lon="-4.41153">
        <ele>148</ele>
        <time>2012-02-26T09:03:12.47</time>
      </trkpt>
      <trkpt lat="48.44064" lon="-4.4115">
        <ele>148</ele>
        <time>2012-02-26T09:03:13.46</time>
      </trkpt>
      <trkpt lat="48.44065" lon="-4.41146">
        <ele>148</ele>
        <time>2012-02-26T09:03:14.47</time>
      </trkpt>
      <trkpt lat="48.44066" lon="-4.41142">
        <ele>148</ele>
        <time>2012-02-26T09:03:15.47</time>
      </trkpt>
      <trkpt lat="48.44068" lon="-4.41135">
        <ele>148</ele>
        <time>2012-02-26T09:03:16.48</time>
      </trkpt>
      <trkpt lat="48.44069" lon="-4.41131">
        <ele>148</ele>
        <time>2012-02-26T09:03:17.47</time>
      </trkpt>
      <trkpt lat="48.44071" lon="-4.41125">
        <ele>148</ele>
        <time>2012-02-26T09:03:18.47</time>
      </trkpt>
      <trkpt lat="48.44072" lon="-4.4112">
        <ele>148</ele>
        <time>2012-02-26T09:03:19.46</time>
      </trkpt>
      <trkpt lat="48.44073" lon="-4.41116">
        <ele>148</ele>
        <time>2012-02-26T09:03:20.47</time>
      </trkpt>
      <trkpt lat="48.44074" lon="-4.4111">
        <ele>149</ele>
        <time>2012-02-26T09:03:21.47</time>
      </trkpt>
      <trkpt lat="48.44076" lon="-4.41101">
        <ele>149</ele>
        <time>2012-02-26T09:03:22.48</time>
      </trkpt>
      <trkpt lat="48.44078" lon="-4.41095">
        <ele>150</ele>
        <time>2012-02-26T09:03:23.46</time>
      </trkpt>
      <trkpt lat="48.44079" lon="-4.41088">
        <ele>150</ele>
        <time>2012-02-26T09:03:24.51</time>
      </trkpt>
      <trkpt lat="48.44081" lon="-4.41082">
        <ele>151</ele>
        <time>2012-02-26T09:03:25.48</time>
      </trkpt>
      <trkpt lat="48.44083" lon="-4.41073">
        <ele>151</ele>
        <time>2012-02-26T09:03:26.46</time>
      </trkpt>
      <trkpt lat="48.44085" lon="-4.41069">
        <ele>151</ele>
        <time>2012-02-26T09:03:27.46</time>
      </trkpt>
      <trkpt lat="48.44087" lon="-4.41062">
        <ele>151</ele>
        <time>2012-02-26T09:03:28.48</time>
      </trkpt>
      <trkpt lat="48.44088" lon="-4.41056">
        <ele>152</ele>
        <time>2012-02-26T09:03:29.46</time>
      </trkpt>
      <trkpt lat="48.4409" lon="-4.4105">
        <ele>152</ele>
        <time>2012-02-26T09:03:30.47</time>
      </trkpt>
      <trkpt lat="48.44091" lon="-4.41041">
        <ele>152</ele>
        <time>2012-02-26T09:03:31.48</time>
      </trkpt>
      <trkpt lat="48.44093" lon="-4.41035">
        <ele>152</ele>
        <time>2012-02-26T09:03:32.48</time>
      </trkpt>
      <trkpt lat="48.44094" lon="-4.41028">
        <ele>152</ele>
        <time>2012-02-26T09:03:33.46</time>
      </trkpt>
      <trkpt lat="48.44096" lon="-4.41022">
        <ele>152</ele>
        <time>2012-02-26T09:03:34.48</time>
      </trkpt>
      <trkpt lat="48.44097" lon="-4.41013">
        <ele>152</ele>
        <time>2012-02-26T09:03:35.47</time>
      </trkpt>
      <trkpt lat="48.441" lon="-4.41007">
        <ele>152</ele>
        <time>2012-02-26T09:03:36.47</time>
      </trkpt>
      <trkpt lat="48.44101" lon="-4.41">
        <ele>152</ele>
        <time>2012-02-26T09:03:37.47</time>
      </trkpt>
      <trkpt lat="48.44103" lon="-4.40992">
        <ele>152</ele>
        <time>2012-02-26T09:03:38.48</time>
      </trkpt>
      <trkpt lat="48.44105" lon="-4.40985">
        <ele>152</ele>
        <time>2012-02-26T09:03:39.47</time>
      </trkpt>
      <trkpt lat="48.44106" lon="-4.40979">
        <ele>152</ele>
        <time>2012-02-26T09:03:40.53</time>
      </trkpt>
      <trkpt lat="48.44108" lon="-4.40972">
        <ele>152</ele>
        <time>2012-02-26T09:03:41.48</time>
      </trkpt>
      <trkpt lat="48.4411" lon="-4.40966">
        <ele>152</ele>
        <time>2012-02-26T09:03:42.47</time>
      </trkpt>
      <trkpt lat="48.44112" lon="-4.40959">
        <ele>152</ele>
        <time>2012-02-26T09:03:43.47</time>
      </trkpt>
      <trkpt lat="48.44115" lon="-4.40951">
        <ele>152</ele>
        <time>2012-02-26T09:03:44.48</time>
      </trkpt>
      <trkpt lat="48.44116" lon="-4.40944">
        <ele>152</ele>
        <time>2012-02-26T09:03:45.47</time>
      </trkpt>
      <trkpt lat="48.44118" lon="-4.40938">
        <ele>152</ele>
        <time>2012-02-26T09:03:46.47</time>
      </trkpt>
      <trkpt lat="48.4412" lon="-4.40932">
        <ele>152</ele>
        <time>2012-02-26T09:03:47.46</time>
      </trkpt>
      <trkpt lat="48.44122" lon="-4.40925">
        <ele>152</ele>
        <time>2012-02-26T09:03:48.47</time>
      </trkpt>
      <trkpt lat="48.44124" lon="-4.40919">
        <ele>151</ele>
        <time>2012-02-26T09:03:49.47</time>
      </trkpt>
      <trkpt lat="48.44126" lon="-4.40912">
        <ele>151</ele>
        <time>2012-02-26T09:03:50.46</time>
      </trkpt>
      <trkpt lat="48.44128" lon="-4.40906">
        <ele>151</ele>
        <time>2012-02-26T09:03:51.45</time>
      </trkpt>
      <trkpt lat="48.44131" lon="-4.40899">
        <ele>151</ele>
        <time>2012-02-26T09:03:52.47</time>
      </trkpt>
      <trkpt lat="48.44132" lon="-4.40893">
        <ele>151</ele>
        <time>2012-02-26T09:03:53.48</time>
      </trkpt>
      <trkpt lat="48.44134" lon="-4.40886">
        <ele>151</ele>
        <time>2012-02-26T09:03:54.48</time>
      </trkpt>
      <trkpt lat="48.44136" lon="-4.40882">
        <ele>151</ele>
        <time>2012-02-26T09:03:55.47</time>
      </trkpt>
      <trkpt lat="48.44137" lon="-4.40876">
        <ele>151</ele>
        <time>2012-02-26T09:03:56.51</time>
      </trkpt>
      <trkpt lat="48.44139" lon="-4.40871">
        <ele>151</ele>
        <time>2012-02-26T09:03:57.48</time>
      </trkpt>
      <trkpt lat="48.4414" lon="-4.40865">
        <ele>151</ele>
        <time>2012-02-26T09:03:58.47</time>
      </trkpt>
      <trkpt lat="48.44141" lon="-4.40861">
        <ele>151</ele>
        <time>2012-02-26T09:03:59.47</time>
      </trkpt>
      <trkpt lat="48.44144" lon="-4.40854">
        <ele>151</ele>
        <time>2012-02-26T09:04:00.46</time>
      </trkpt>
      <trkpt lat="48.44145" lon="-4.4085">
        <ele>151</ele>
        <time>2012-02-26T09:04:01.47</time>
      </trkpt>
      <trkpt lat="48.44146" lon="-4.40844">
        <ele>151</ele>
        <time>2012-02-26T09:04:02.48</time>
      </trkpt>
      <trkpt lat="48.44147" lon="-4.40837">
        <ele>151</ele>
        <time>2012-02-26T09:04:03.48</time>
      </trkpt>
      <trkpt lat="48.44147" lon="-4.40831">
        <ele>151</ele>
        <time>2012-02-26T09:04:04.47</time>
      </trkpt>
      <trkpt lat="48.44146" lon="-4.40824">
        <ele>151</ele>
        <time>2012-02-26T09:04:05.47</time>
      </trkpt>
      <trkpt lat="48.44144" lon="-4.4082">
        <ele>151</ele>
        <time>2012-02-26T09:04:06.48</time>
      </trkpt>
      <trkpt lat="48.44141" lon="-4.40814">
        <ele>150</ele>
        <time>2012-02-26T09:04:07.47</time>
      </trkpt>
      <trkpt lat="48.4414" lon="-4.40809">
        <ele>150</ele>
        <time>2012-02-26T09:04:08.47</time>
      </trkpt>
      <trkpt lat="48.44138" lon="-4.40807">
        <ele>150</ele>
        <time>2012-02-26T09:04:09.48</time>
      </trkpt>
      <trkpt lat="48.44137" lon="-4.40803">
        <ele>150</ele>
        <time>2012-02-26T09:04:10.47</time>
      </trkpt>
      <trkpt lat="48.44136" lon="-4.40805">
        <ele>150</ele>
        <time>2012-02-26T09:04:13.46</time>
      </trkpt>
      <trkpt lat="48.44137" lon="-4.40807">
        <ele>150</ele>
        <time>2012-02-26T09:04:15.48</time>
      </trkpt>
      <trkpt lat="48.44142" lon="-4.40807">
        <ele>150</ele>
        <time>2012-02-26T09:04:18.46</time>
      </trkpt>
      <trkpt lat="48.44146" lon="-4.40805">
        <ele>150</ele>
        <time>2012-02-26T09:04:19.48</time>
      </trkpt>
      <trkpt lat="48.44148" lon="-4.40805">
        <ele>150</ele>
        <time>2012-02-26T09:04:20.46</time>
      </trkpt>
      <trkpt lat="48.44151" lon="-4.40807">
        <ele>150</ele>
        <time>2012-02-26T09:04:21.47</time>
      </trkpt>
      <trkpt lat="48.44153" lon="-4.40811">
        <ele>150</ele>
        <time>2012-02-26T09:04:22.48</time>
      </trkpt>
      <trkpt lat="48.44155" lon="-4.40814">
        <ele>150</ele>
        <time>2012-02-26T09:04:23.49</time>
      </trkpt>
      <trkpt lat="48.44157" lon="-4.40816">
        <ele>150</ele>
        <time>2012-02-26T09:04:24.48</time>
      </trkpt>
      <trkpt lat="48.4416" lon="-4.4082">
        <ele>150</ele>
        <time>2012-02-26T09:04:25.48</time>
      </trkpt>
      <trkpt lat="48.44161" lon="-4.40822">
        <ele>150</ele>
        <time>2012-02-26T09:04:26.47</time>
      </trkpt>
      <trkpt lat="48.44163" lon="-4.40824">
        <ele>150</ele>
        <time>2012-02-26T09:04:27.46</time>
      </trkpt>
      <trkpt lat="48.44165" lon="-4.40826">
        <ele>150</ele>
        <time>2012-02-26T09:04:28.48</time>
      </trkpt>
      <trkpt lat="48.44167" lon="-4.40831">
        <ele>150</ele>
        <time>2012-02-26T09:04:29.46</time>
      </trkpt>
      <trkpt lat="48.44171" lon="-4.40835">
        <ele>149</ele>
        <time>2012-02-26T09:04:30.47</time>
      </trkpt>
      <trkpt lat="48.44175" lon="-4.40837">
        <ele>149</ele>
        <time>2012-02-26T09:04:31.46</time>
      </trkpt>
      <trkpt lat="48.44177" lon="-4.40839">
        <ele>149</ele>
        <time>2012-02-26T09:04:32.46</time>
      </trkpt>
      <trkpt lat="48.44179" lon="-4.40844">
        <ele>149</ele>
        <time>2012-02-26T09:04:33.47</time>
      </trkpt>
      <trkpt lat="48.4418" lon="-4.40846">
        <ele>149</ele>
        <time>2012-02-26T09:04:34.47</time>
      </trkpt>
      <trkpt lat="48.44181" lon="-4.4085">
        <ele>149</ele>
        <time>2012-02-26T09:04:35.46</time>
      </trkpt>
      <trkpt lat="48.44182" lon="-4.40852">
        <ele>149</ele>
        <time>2012-02-26T09:04:36.46</time>
      </trkpt>
      <trkpt lat="48.44181" lon="-4.40856">
        <ele>149</ele>
        <time>2012-02-26T09:04:37.46</time>
      </trkpt>
      <trkpt lat="48.44183" lon="-4.40854">
        <ele>149</ele>
        <time>2012-02-26T09:04:38.47</time>
      </trkpt>
      <trkpt lat="48.44183" lon="-4.40856">
        <ele>149</ele>
        <time>2012-02-26T09:04:39.47</time>
      </trkpt>
      <trkpt lat="48.44184" lon="-4.40856">
        <ele>149</ele>
        <time>2012-02-26T09:04:40.47</time>
      </trkpt>
      <trkpt lat="48.44185" lon="-4.40854">
        <ele>148</ele>
        <time>2012-02-26T09:04:41.47</time>
      </trkpt>
      <trkpt lat="48.44186" lon="-4.40854">
        <ele>148</ele>
        <time>2012-02-26T09:04:42.48</time>
      </trkpt>
      <trkpt lat="48.44186" lon="-4.4085">
        <ele>146</ele>
        <time>2012-02-26T09:04:49.47</time>
      </trkpt>
      <trkpt lat="48.44185" lon="-4.4085">
        <ele>145</ele>
        <time>2012-02-26T09:04:56.47</time>
      </trkpt>
      <trkpt lat="48.44186" lon="-4.4085">
        <ele>144</ele>
        <time>2012-02-26T09:05:03.48</time>
      </trkpt>
      <trkpt lat="48.44186" lon="-4.40846">
        <ele>145</ele>
        <time>2012-02-26T09:05:10.48</time>
      </trkpt>
      <trkpt lat="48.44186" lon="-4.40848">
        <ele>144</ele>
        <time>2012-02-26T09:05:17.48</time>
      </trkpt>
      <trkpt lat="48.44187" lon="-4.40848">
        <ele>144</ele>
        <time>2012-02-26T09:05:19.48</time>
      </trkpt>
      <trkpt lat="48.44191" lon="-4.40848">
        <ele>144</ele>
        <time>2012-02-26T09:05:26.48</time>
      </trkpt>
      <trkpt lat="48.44187" lon="-4.4085">
        <ele>144</ele>
        <time>2012-02-26T09:05:33.48</time>
      </trkpt>
      <trkpt lat="48.44187" lon="-4.40844">
        <ele>143</ele>
        <time>2012-02-26T09:05:40.48</time>
      </trkpt>
      <trkpt lat="48.44189" lon="-4.40844">
        <ele>143</ele>
        <time>2012-02-26T09:05:41.48</time>
      </trkpt>
      <trkpt lat="48.4419" lon="-4.40841">
        <ele>143</ele>
        <time>2012-02-26T09:05:42.48</time>
      </trkpt>
      <trkpt lat="48.44192" lon="-4.40837">
        <ele>143</ele>
        <time>2012-02-26T09:05:43.48</time>
      </trkpt>
      <trkpt lat="48.44192" lon="-4.40833">
        <ele>143</ele>
        <time>2012-02-26T09:05:44.48</time>
      </trkpt>
      <trkpt lat="48.44193" lon="-4.40829">
        <ele>143</ele>
        <time>2012-02-26T09:05:45.48</time>
      </trkpt>
      <trkpt lat="48.44194" lon="-4.40822">
        <ele>143</ele>
        <time>2012-02-26T09:05:46.48</time>
      </trkpt>
      <trkpt lat="48.44194" lon="-4.40816">
        <ele>143</ele>
        <time>2012-02-26T09:05:47.48</time>
      </trkpt>
      <trkpt lat="48.44194" lon="-4.40811">
        <ele>143</ele>
        <time>2012-02-26T09:05:48.48</time>
      </trkpt>
      <trkpt lat="48.44195" lon="-4.40805">
        <ele>143</ele>
        <time>2012-02-26T09:05:49.49</time>
      </trkpt>
      <trkpt lat="48.44195" lon="-4.40801">
        <ele>143</ele>
        <time>2012-02-26T09:05:50.49</time>
      </trkpt>
      <trkpt lat="48.44195" lon="-4.40796">
        <ele>143</ele>
        <time>2012-02-26T09:05:51.50</time>
      </trkpt>
      <trkpt lat="48.44196" lon="-4.40792">
        <ele>143</ele>
        <time>2012-02-26T09:05:52.48</time>
      </trkpt>
      <trkpt lat="48.44196" lon="-4.40788">
        <ele>143</ele>
        <time>2012-02-26T09:05:53.49</time>
      </trkpt>
      <trkpt lat="48.44197" lon="-4.40784">
        <ele>143</ele>
        <time>2012-02-26T09:05:54.53</time>
      </trkpt>
      <trkpt lat="48.44198" lon="-4.40779">
        <ele>143</ele>
        <time>2012-02-26T09:05:55.48</time>
      </trkpt>
      <trkpt lat="48.44199" lon="-4.40775">
        <ele>143</ele>
        <time>2012-02-26T09:05:56.49</time>
      </trkpt>
      <trkpt lat="48.442" lon="-4.40771">
        <ele>143</ele>
        <time>2012-02-26T09:05:57.49</time>
      </trkpt>
      <trkpt lat="48.44203" lon="-4.40766">
        <ele>143</ele>
        <time>2012-02-26T09:05:58.50</time>
      </trkpt>
      <trkpt lat="48.44204" lon="-4.40762">
        <ele>143</ele>
        <time>2012-02-26T09:05:59.48</time>
      </trkpt>
      <trkpt lat="48.44206" lon="-4.40756">
        <ele>142</ele>
        <time>2012-02-26T09:06:00.49</time>
      </trkpt>
      <trkpt lat="48.44208" lon="-4.40751">
        <ele>142</ele>
        <time>2012-02-26T09:06:01.50</time>
      </trkpt>
      <trkpt lat="48.44209" lon="-4.40745">
        <ele>142</ele>
        <time>2012-02-26T09:06:02.49</time>
      </trkpt>
      <trkpt lat="48.44211" lon="-4.40738">
        <ele>141</ele>
        <time>2012-02-26T09:06:03.49</time>
      </trkpt>
      <trkpt lat="48.44212" lon="-4.40734">
        <ele>141</ele>
        <time>2012-02-26T09:06:04.50</time>
      </trkpt>
      <trkpt lat="48.44214" lon="-4.40728">
        <ele>141</ele>
        <time>2012-02-26T09:06:05.49</time>
      </trkpt>
      <trkpt lat="48.44216" lon="-4.40721">
        <ele>141</ele>
        <time>2012-02-26T09:06:06.49</time>
      </trkpt>
      <trkpt lat="48.44218" lon="-4.40717">
        <ele>141</ele>
        <time>2012-02-26T09:06:07.50</time>
      </trkpt>
      <trkpt lat="48.4422" lon="-4.40711">
        <ele>141</ele>
        <time>2012-02-26T09:06:08.48</time>
      </trkpt>
      <trkpt lat="48.44221" lon="-4.40706">
        <ele>141</ele>
        <time>2012-02-26T09:06:09.48</time>
      </trkpt>
      <trkpt lat="48.44222" lon="-4.40702">
        <ele>141</ele>
        <time>2012-02-26T09:06:10.50</time>
      </trkpt>
      <trkpt lat="48.44223" lon="-4.40698">
        <ele>141</ele>
        <time>2012-02-26T09:06:11.47</time>
      </trkpt>
      <trkpt lat="48.44224" lon="-4.40696">
        <ele>141</ele>
        <time>2012-02-26T09:06:12.49</time>
      </trkpt>
      <trkpt lat="48.44227" lon="-4.40691">
        <ele>141</ele>
        <time>2012-02-26T09:06:17.48</time>
      </trkpt>
      <trkpt lat="48.44227" lon="-4.40689">
        <ele>141</ele>
        <time>2012-02-26T09:06:18.49</time>
      </trkpt>
      <trkpt lat="48.44227" lon="-4.40687">
        <ele>141</ele>
        <time>2012-02-26T09:06:19.50</time>
      </trkpt>
      <trkpt lat="48.44229" lon="-4.40689">
        <ele>142</ele>
        <time>2012-02-26T09:06:26.50</time>
      </trkpt>
      <trkpt lat="48.44228" lon="-4.40693">
        <ele>142</ele>
        <time>2012-02-26T09:06:28.49</time>
      </trkpt>
      <trkpt lat="48.44227" lon="-4.40696">
        <ele>142</ele>
        <time>2012-02-26T09:06:29.49</time>
      </trkpt>
      <trkpt lat="48.44226" lon="-4.40698">
        <ele>142</ele>
        <time>2012-02-26T09:06:30.49</time>
      </trkpt>
      <trkpt lat="48.44226" lon="-4.407">
        <ele>142</ele>
        <time>2012-02-26T09:06:31.49</time>
      </trkpt>
      <trkpt lat="48.44225" lon="-4.40704">
        <ele>142</ele>
        <time>2012-02-26T09:06:32.49</time>
      </trkpt>
      <trkpt lat="48.44225" lon="-4.40706">
        <ele>142</ele>
        <time>2012-02-26T09:06:33.50</time>
      </trkpt>
      <trkpt lat="48.44224" lon="-4.40708">
        <ele>142</ele>
        <time>2012-02-26T09:06:34.49</time>
      </trkpt>
      <trkpt lat="48.44224" lon="-4.40711">
        <ele>143</ele>
        <time>2012-02-26T09:06:35.50</time>
      </trkpt>
      <trkpt lat="48.44223" lon="-4.40713">
        <ele>143</ele>
        <time>2012-02-26T09:06:36.50</time>
      </trkpt>
      <trkpt lat="48.44223" lon="-4.40717">
        <ele>143</ele>
        <time>2012-02-26T09:06:37.51</time>
      </trkpt>
      <trkpt lat="48.44222" lon="-4.40719">
        <ele>143</ele>
        <time>2012-02-26T09:06:38.56</time>
      </trkpt>
      <trkpt lat="48.44221" lon="-4.40721">
        <ele>143</ele>
        <time>2012-02-26T09:06:39.50</time>
      </trkpt>
      <trkpt lat="48.4422" lon="-4.40726">
        <ele>143</ele>
        <time>2012-02-26T09:06:40.50</time>
      </trkpt>
      <trkpt lat="48.44219" lon="-4.40728">
        <ele>143</ele>
        <time>2012-02-26T09:06:41.51</time>
      </trkpt>
      <trkpt lat="48.44216" lon="-4.40732">
        <ele>143</ele>
        <time>2012-02-26T09:06:42.50</time>
      </trkpt>
      <trkpt lat="48.44215" lon="-4.40736">
        <ele>143</ele>
        <time>2012-02-26T09:06:43.50</time>
      </trkpt>
      <trkpt lat="48.44214" lon="-4.40738">
        <ele>143</ele>
        <time>2012-02-26T09:06:44.51</time>
      </trkpt>
      <trkpt lat="48.44213" lon="-4.40743">
        <ele>143</ele>
        <time>2012-02-26T09:06:45.50</time>
      </trkpt>
      <trkpt lat="48.44212" lon="-4.40747">
        <ele>143</ele>
        <time>2012-02-26T09:06:46.50</time>
      </trkpt>
      <trkpt lat="48.44211" lon="-4.40751">
        <ele>143</ele>
        <time>2012-02-26T09:06:47.51</time>
      </trkpt>
      <trkpt lat="48.4421" lon="-4.40753">
        <ele>143</ele>
        <time>2012-02-26T09:06:48.50</time>
      </trkpt>
      <trkpt lat="48.44209" lon="-4.40758">
        <ele>143</ele>
        <time>2012-02-26T09:06:49.50</time>
      </trkpt>
      <trkpt lat="48.44208" lon="-4.40762">
        <ele>143</ele>
        <time>2012-02-26T09:06:50.51</time>
      </trkpt>
      <trkpt lat="48.44208" lon="-4.40764">
        <ele>143</ele>
        <time>2012-02-26T09:06:51.50</time>
      </trkpt>
      <trkpt lat="48.44207" lon="-4.40768">
        <ele>143</ele>
        <time>2012-02-26T09:06:52.50</time>
      </trkpt>
      <trkpt lat="48.44206" lon="-4.40773">
        <ele>143</ele>
        <time>2012-02-26T09:06:53.51</time>
      </trkpt>
      <trkpt lat="48.44205" lon="-4.40775">
        <ele>143</ele>
        <time>2012-02-26T09:06:54.49</time>
      </trkpt>
      <trkpt lat="48.44204" lon="-4.40779">
        <ele>143</ele>
        <time>2012-02-26T09:06:55.50</time>
      </trkpt>
      <trkpt lat="48.44203" lon="-4.40781">
        <ele>143</ele>
        <time>2012-02-26T09:06:56.51</time>
      </trkpt>
      <trkpt lat="48.44201" lon="-4.40786">
        <ele>143</ele>
        <time>2012-02-26T09:06:57.49</time>
      </trkpt>
      <trkpt lat="48.442" lon="-4.4079">
        <ele>143</ele>
        <time>2012-02-26T09:06:58.50</time>
      </trkpt>
      <trkpt lat="48.44199" lon="-4.40794">
        <ele>143</ele>
        <time>2012-02-26T09:06:59.50</time>
      </trkpt>
      <trkpt lat="48.44199" lon="-4.40799">
        <ele>143</ele>
        <time>2012-02-26T09:07:00.55</time>
      </trkpt>
      <trkpt lat="48.44198" lon="-4.40803">
        <ele>143</ele>
        <time>2012-02-26T09:07:01.51</time>
      </trkpt>
      <trkpt lat="48.44197" lon="-4.40807">
        <ele>143</ele>
        <time>2012-02-26T09:07:02.49</time>
      </trkpt>
      <trkpt lat="48.44196" lon="-4.40814">
        <ele>143</ele>
        <time>2012-02-26T09:07:03.49</time>
      </trkpt>
      <trkpt lat="48.44195" lon="-4.4082">
        <ele>143</ele>
        <time>2012-02-26T09:07:04.49</time>
      </trkpt>
      <trkpt lat="48.44194" lon="-4.40824">
        <ele>143</ele>
        <time>2012-02-26T09:07:05.49</time>
      </trkpt>
      <trkpt lat="48.44193" lon="-4.40831">
        <ele>144</ele>
        <time>2012-02-26T09:07:06.50</time>
      </trkpt>
      <trkpt lat="48.44192" lon="-4.40837">
        <ele>144</ele>
        <time>2012-02-26T09:07:07.50</time>
      </trkpt>
      <trkpt lat="48.44191" lon="-4.40839">
        <ele>144</ele>
        <time>2012-02-26T09:07:08.49</time>
      </trkpt>
      <trkpt lat="48.44191" lon="-4.40841">
        <ele>144</ele>
        <time>2012-02-26T09:07:09.50</time>
      </trkpt>
      <trkpt lat="48.44187" lon="-4.40839">
        <ele>142</ele>
        <time>2012-02-26T09:07:16.49</time>
      </trkpt>
      <trkpt lat="48.44181" lon="-4.40835">
        <ele>142</ele>
        <time>2012-02-26T09:07:23.50</time>
      </trkpt>
      <trkpt lat="48.44176" lon="-4.40833">
        <ele>142</ele>
        <time>2012-02-26T09:07:27.51</time>
      </trkpt>
      <trkpt lat="48.44166" lon="-4.40822">
        <ele>142</ele>
        <time>2012-02-26T09:07:31.49</time>
      </trkpt>
      <trkpt lat="48.44164" lon="-4.4082">
        <ele>142</ele>
        <time>2012-02-26T09:07:32.49</time>
      </trkpt>
      <trkpt lat="48.44162" lon="-4.40818">
        <ele>143</ele>
        <time>2012-02-26T09:07:33.50</time>
      </trkpt>
      <trkpt lat="48.44161" lon="-4.40816">
        <ele>143</ele>
        <time>2012-02-26T09:07:34.50</time>
      </trkpt>
      <trkpt lat="48.44159" lon="-4.40814">
        <ele>143</ele>
        <time>2012-02-26T09:07:35.50</time>
      </trkpt>
      <trkpt lat="48.44157" lon="-4.40809">
        <ele>144</ele>
        <time>2012-02-26T09:07:39.50</time>
      </trkpt>
      <trkpt lat="48.44156" lon="-4.40807">
        <ele>144</ele>
        <time>2012-02-26T09:07:40.50</time>
      </trkpt>
      <trkpt lat="48.44154" lon="-4.40803">
        <ele>144</ele>
        <time>2012-02-26T09:07:41.50</time>
      </trkpt>
      <trkpt lat="48.44151" lon="-4.40799">
        <ele>144</ele>
        <time>2012-02-26T09:07:42.50</time>
      </trkpt>
      <trkpt lat="48.44149" lon="-4.40794">
        <ele>144</ele>
        <time>2012-02-26T09:07:43.54</time>
      </trkpt>
      <trkpt lat="48.44146" lon="-4.4079">
        <ele>144</ele>
        <time>2012-02-26T09:07:44.50</time>
      </trkpt>
      <trkpt lat="48.44144" lon="-4.40786">
        <ele>144</ele>
        <time>2012-02-26T09:07:45.51</time>
      </trkpt>
      <trkpt lat="48.44141" lon="-4.40779">
        <ele>144</ele>
        <time>2012-02-26T09:07:46.51</time>
      </trkpt>
      <trkpt lat="48.44139" lon="-4.40777">
        <ele>145</ele>
        <time>2012-02-26T09:07:47.52</time>
      </trkpt>
      <trkpt lat="48.44137" lon="-4.40773">
        <ele>145</ele>
        <time>2012-02-26T09:07:48.50</time>
      </trkpt>
      <trkpt lat="48.44135" lon="-4.40768">
        <ele>145</ele>
        <time>2012-02-26T09:07:49.51</time>
      </trkpt>
      <trkpt lat="48.44133" lon="-4.40764">
        <ele>145</ele>
        <time>2012-02-26T09:07:50.52</time>
      </trkpt>
      <trkpt lat="48.44131" lon="-4.4076">
        <ele>145</ele>
        <time>2012-02-26T09:07:51.50</time>
      </trkpt>
      <trkpt lat="48.44128" lon="-4.40756">
        <ele>145</ele>
        <time>2012-02-26T09:07:52.51</time>
      </trkpt>
      <trkpt lat="48.44126" lon="-4.40751">
        <ele>145</ele>
        <time>2012-02-26T09:07:53.51</time>
      </trkpt>
      <trkpt lat="48.44124" lon="-4.40747">
        <ele>146</ele>
        <time>2012-02-26T09:07:54.50</time>
      </trkpt>
      <trkpt lat="48.44123" lon="-4.40741">
        <ele>147</ele>
        <time>2012-02-26T09:07:55.51</time>
      </trkpt>
      <trkpt lat="48.44121" lon="-4.40736">
        <ele>147</ele>
        <time>2012-02-26T09:07:56.51</time>
      </trkpt>
      <trkpt lat="48.44119" lon="-4.4073">
        <ele>148</ele>
        <time>2012-02-26T09:07:57.50</time>
      </trkpt>
      <trkpt lat="48.44117" lon="-4.40726">
        <ele>148</ele>
        <time>2012-02-26T09:07:58.51</time>
      </trkpt>
      <trkpt lat="48.44116" lon="-4.40721">
        <ele>148</ele>
        <time>2012-02-26T09:07:59.51</time>
      </trkpt>
      <trkpt lat="48.44113" lon="-4.40717">
        <ele>148</ele>
        <time>2012-02-26T09:08:00.53</time>
      </trkpt>
      <trkpt lat="48.44112" lon="-4.40711">
        <ele>148</ele>
        <time>2012-02-26T09:08:01.51</time>
      </trkpt>
      <trkpt lat="48.4411" lon="-4.40706">
        <ele>148</ele>
        <time>2012-02-26T09:08:02.51</time>
      </trkpt>
      <trkpt lat="48.44108" lon="-4.40702">
        <ele>148</ele>
        <time>2012-02-26T09:08:03.52</time>
      </trkpt>
      <trkpt lat="48.44106" lon="-4.40698">
        <ele>148</ele>
        <time>2012-02-26T09:08:04.50</time>
      </trkpt>
      <trkpt lat="48.44104" lon="-4.40693">
        <ele>148</ele>
        <time>2012-02-26T09:08:05.51</time>
      </trkpt>
      <trkpt lat="48.44102" lon="-4.40689">
        <ele>148</ele>
        <time>2012-02-26T09:08:06.52</time>
      </trkpt>
      <trkpt lat="48.441" lon="-4.40685">
        <ele>148</ele>
        <time>2012-02-26T09:08:07.50</time>
      </trkpt>
      <trkpt lat="48.44097" lon="-4.40683">
        <ele>148</ele>
        <time>2012-02-26T09:08:08.51</time>
      </trkpt>
      <trkpt lat="48.44095" lon="-4.40678">
        <ele>148</ele>
        <time>2012-02-26T09:08:09.51</time>
      </trkpt>
      <trkpt lat="48.44093" lon="-4.40674">
        <ele>148</ele>
        <time>2012-02-26T09:08:10.50</time>
      </trkpt>
      <trkpt lat="48.44091" lon="-4.4067">
        <ele>148</ele>
        <time>2012-02-26T09:08:11.50</time>
      </trkpt>
      <trkpt lat="48.44088" lon="-4.40665">
        <ele>148</ele>
        <time>2012-02-26T09:08:12.51</time>
      </trkpt>
      <trkpt lat="48.44086" lon="-4.40659">
        <ele>148</ele>
        <time>2012-02-26T09:08:13.50</time>
      </trkpt>
      <trkpt lat="48.44083" lon="-4.40655">
        <ele>148</ele>
        <time>2012-02-26T09:08:14.51</time>
      </trkpt>
      <trkpt lat="48.4408" lon="-4.4065">
        <ele>148</ele>
        <time>2012-02-26T09:08:15.51</time>
      </trkpt>
      <trkpt lat="48.44077" lon="-4.40646">
        <ele>148</ele>
        <time>2012-02-26T09:08:16.50</time>
      </trkpt>
      <trkpt lat="48.44075" lon="-4.40642">
        <ele>148</ele>
        <time>2012-02-26T09:08:17.51</time>
      </trkpt>
      <trkpt lat="48.44072" lon="-4.40638">
        <ele>148</ele>
        <time>2012-02-26T09:08:18.51</time>
      </trkpt>
      <trkpt lat="48.44068" lon="-4.40631">
        <ele>147</ele>
        <time>2012-02-26T09:08:19.50</time>
      </trkpt>
      <trkpt lat="48.44065" lon="-4.40627">
        <ele>147</ele>
        <time>2012-02-26T09:08:20.51</time>
      </trkpt>
      <trkpt lat="48.44063" lon="-4.40623">
        <ele>147</ele>
        <time>2012-02-26T09:08:21.51</time>
      </trkpt>
      <trkpt lat="48.44061" lon="-4.40618">
        <ele>147</ele>
        <time>2012-02-26T09:08:22.52</time>
      </trkpt>
      <trkpt lat="48.44058" lon="-4.40614">
        <ele>147</ele>
        <time>2012-02-26T09:08:23.50</time>
      </trkpt>
      <trkpt lat="48.44056" lon="-4.4061">
        <ele>147</ele>
        <time>2012-02-26T09:08:24.51</time>
      </trkpt>
      <trkpt lat="48.44052" lon="-4.40605">
        <ele>147</ele>
        <time>2012-02-26T09:08:25.52</time>
      </trkpt>
      <trkpt lat="48.4405" lon="-4.40601">
        <ele>147</ele>
        <time>2012-02-26T09:08:26.51</time>
      </trkpt>
      <trkpt lat="48.44047" lon="-4.40597">
        <ele>147</ele>
        <time>2012-02-26T09:08:27.51</time>
      </trkpt>
      <trkpt lat="48.44045" lon="-4.40593">
        <ele>147</ele>
        <time>2012-02-26T09:08:28.58</time>
      </trkpt>
      <trkpt lat="48.44044" lon="-4.40588">
        <ele>147</ele>
        <time>2012-02-26T09:08:29.50</time>
      </trkpt>
      <trkpt lat="48.44042" lon="-4.40582">
        <ele>146</ele>
        <time>2012-02-26T09:08:30.51</time>
      </trkpt>
      <trkpt lat="48.44039" lon="-4.40578">
        <ele>146</ele>
        <time>2012-02-26T09:08:31.52</time>
      </trkpt>
      <trkpt lat="48.44038" lon="-4.40573">
        <ele>146</ele>
        <time>2012-02-26T09:08:32.50</time>
      </trkpt>
      <trkpt lat="48.44036" lon="-4.40569">
        <ele>146</ele>
        <time>2012-02-26T09:08:33.51</time>
      </trkpt>
      <trkpt lat="48.44033" lon="-4.40567">
        <ele>146</ele>
        <time>2012-02-26T09:08:34.55</time>
      </trkpt>
      <trkpt lat="48.4403" lon="-4.40562">
        <ele>146</ele>
        <time>2012-02-26T09:08:35.50</time>
      </trkpt>
      <trkpt lat="48.44027" lon="-4.4056">
        <ele>146</ele>
        <time>2012-02-26T09:08:36.51</time>
      </trkpt>
      <trkpt lat="48.44022" lon="-4.40556">
        <ele>147</ele>
        <time>2012-02-26T09:08:37.51</time>
      </trkpt>
      <trkpt lat="48.44018" lon="-4.40552">
        <ele>147</ele>
        <time>2012-02-26T09:08:38.50</time>
      </trkpt>
      <trkpt lat="48.44015" lon="-4.40547">
        <ele>147</ele>
        <time>2012-02-26T09:08:39.57</time>
      </trkpt>
      <trkpt lat="48.4401" lon="-4.40543">
        <ele>147</ele>
        <time>2012-02-26T09:08:40.51</time>
      </trkpt>
      <trkpt lat="48.44007" lon="-4.40537">
        <ele>147</ele>
        <time>2012-02-26T09:08:41.52</time>
      </trkpt>
      <trkpt lat="48.44003" lon="-4.40532">
        <ele>147</ele>
        <time>2012-02-26T09:08:42.51</time>
      </trkpt>
      <trkpt lat="48.44" lon="-4.40528">
        <ele>146</ele>
        <time>2012-02-26T09:08:43.51</time>
      </trkpt>
      <trkpt lat="48.43997" lon="-4.40522">
        <ele>146</ele>
        <time>2012-02-26T09:08:44.52</time>
      </trkpt>
      <trkpt lat="48.43992" lon="-4.4052">
        <ele>146</ele>
        <time>2012-02-26T09:08:45.50</time>
      </trkpt>
      <trkpt lat="48.43989" lon="-4.40515">
        <ele>146</ele>
        <time>2012-02-26T09:08:46.51</time>
      </trkpt>
      <trkpt lat="48.43985" lon="-4.40515">
        <ele>146</ele>
        <time>2012-02-26T09:08:47.52</time>
      </trkpt>
      <trkpt lat="48.43982" lon="-4.40515">
        <ele>146</ele>
        <time>2012-02-26T09:08:48.50</time>
      </trkpt>
      <trkpt lat="48.43979" lon="-4.40522">
        <ele>145</ele>
        <time>2012-02-26T09:08:49.51</time>
      </trkpt>
      <trkpt lat="48.43976" lon="-4.40528">
        <ele>145</ele>
        <time>2012-02-26T09:08:50.56</time>
      </trkpt>
      <trkpt lat="48.43974" lon="-4.40537">
        <ele>145</ele>
        <time>2012-02-26T09:08:51.50</time>
      </trkpt>
      <trkpt lat="48.43973" lon="-4.40545">
        <ele>145</ele>
        <time>2012-02-26T09:08:52.51</time>
      </trkpt>
      <trkpt lat="48.43971" lon="-4.40552">
        <ele>145</ele>
        <time>2012-02-26T09:08:53.52</time>
      </trkpt>
      <trkpt lat="48.4397" lon="-4.4056">
        <ele>145</ele>
        <time>2012-02-26T09:08:54.50</time>
      </trkpt>
      <trkpt lat="48.43969" lon="-4.40569">
        <ele>145</ele>
        <time>2012-02-26T09:08:55.51</time>
      </trkpt>
      <trkpt lat="48.43968" lon="-4.40575">
        <ele>145</ele>
        <time>2012-02-26T09:08:56.52</time>
      </trkpt>
      <trkpt lat="48.43965" lon="-4.40584">
        <ele>145</ele>
        <time>2012-02-26T09:08:57.50</time>
      </trkpt>
      <trkpt lat="48.43964" lon="-4.4059">
        <ele>145</ele>
        <time>2012-02-26T09:08:58.51</time>
      </trkpt>
      <trkpt lat="48.43963" lon="-4.40599">
        <ele>145</ele>
        <time>2012-02-26T09:08:59.51</time>
      </trkpt>
      <trkpt lat="48.43961" lon="-4.40605">
        <ele>145</ele>
        <time>2012-02-26T09:09:00.51</time>
      </trkpt>
      <trkpt lat="48.4396" lon="-4.40614">
        <ele>145</ele>
        <time>2012-02-26T09:09:01.49</time>
      </trkpt>
      <trkpt lat="48.43959" lon="-4.4062">
        <ele>145</ele>
        <time>2012-02-26T09:09:02.50</time>
      </trkpt>
      <trkpt lat="48.43958" lon="-4.40627">
        <ele>145</ele>
        <time>2012-02-26T09:09:03.50</time>
      </trkpt>
      <trkpt lat="48.43956" lon="-4.40635">
        <ele>145</ele>
        <time>2012-02-26T09:09:04.50</time>
      </trkpt>
      <trkpt lat="48.43955" lon="-4.40642">
        <ele>146</ele>
        <time>2012-02-26T09:09:05.50</time>
      </trkpt>
      <trkpt lat="48.43953" lon="-4.40648">
        <ele>146</ele>
        <time>2012-02-26T09:09:06.50</time>
      </trkpt>
      <trkpt lat="48.43951" lon="-4.40657">
        <ele>146</ele>
        <time>2012-02-26T09:09:07.50</time>
      </trkpt>
      <trkpt lat="48.43949" lon="-4.40663">
        <ele>146</ele>
        <time>2012-02-26T09:09:08.50</time>
      </trkpt>
      <trkpt lat="48.43948" lon="-4.40672">
        <ele>147</ele>
        <time>2012-02-26T09:09:09.50</time>
      </trkpt>
      <trkpt lat="48.43946" lon="-4.40678">
        <ele>147</ele>
        <time>2012-02-26T09:09:10.51</time>
      </trkpt>
      <trkpt lat="48.43945" lon="-4.40685">
        <ele>148</ele>
        <time>2012-02-26T09:09:11.50</time>
      </trkpt>
      <trkpt lat="48.43944" lon="-4.40693">
        <ele>148</ele>
        <time>2012-02-26T09:09:12.50</time>
      </trkpt>
      <trkpt lat="48.43942" lon="-4.407">
        <ele>148</ele>
        <time>2012-02-26T09:09:13.51</time>
      </trkpt>
      <trkpt lat="48.43941" lon="-4.40708">
        <ele>148</ele>
        <time>2012-02-26T09:09:14.51</time>
      </trkpt>
      <trkpt lat="48.4394" lon="-4.40715">
        <ele>148</ele>
        <time>2012-02-26T09:09:15.52</time>
      </trkpt>
      <trkpt lat="48.43938" lon="-4.40721">
        <ele>148</ele>
        <time>2012-02-26T09:09:16.50</time>
      </trkpt>
      <trkpt lat="48.43936" lon="-4.4073">
        <ele>148</ele>
        <time>2012-02-26T09:09:17.51</time>
      </trkpt>
      <trkpt lat="48.43935" lon="-4.40736">
        <ele>148</ele>
        <time>2012-02-26T09:09:18.52</time>
      </trkpt>
      <trkpt lat="48.43933" lon="-4.40745">
        <ele>148</ele>
        <time>2012-02-26T09:09:19.50</time>
      </trkpt>
      <trkpt lat="48.43932" lon="-4.40751">
        <ele>148</ele>
        <time>2012-02-26T09:09:20.51</time>
      </trkpt>
      <trkpt lat="48.43931" lon="-4.4076">
        <ele>148</ele>
        <time>2012-02-26T09:09:21.52</time>
      </trkpt>
      <trkpt lat="48.4393" lon="-4.40766">
        <ele>148</ele>
        <time>2012-02-26T09:09:22.50</time>
      </trkpt>
      <trkpt lat="48.43928" lon="-4.40773">
        <ele>148</ele>
        <time>2012-02-26T09:09:23.51</time>
      </trkpt>
      <trkpt lat="48.43927" lon="-4.40781">
        <ele>148</ele>
        <time>2012-02-26T09:09:24.57</time>
      </trkpt>
      <trkpt lat="48.43926" lon="-4.40788">
        <ele>148</ele>
        <time>2012-02-26T09:09:25.52</time>
      </trkpt>
      <trkpt lat="48.43925" lon="-4.40796">
        <ele>148</ele>
        <time>2012-02-26T09:09:26.51</time>
      </trkpt>
      <trkpt lat="48.43924" lon="-4.40803">
        <ele>148</ele>
        <time>2012-02-26T09:09:27.51</time>
      </trkpt>
      <trkpt lat="48.43922" lon="-4.40811">
        <ele>148</ele>
        <time>2012-02-26T09:09:28.52</time>
      </trkpt>
      <trkpt lat="48.4392" lon="-4.40818">
        <ele>148</ele>
        <time>2012-02-26T09:09:29.51</time>
      </trkpt>
      <trkpt lat="48.43919" lon="-4.40826">
        <ele>148</ele>
        <time>2012-02-26T09:09:30.51</time>
      </trkpt>
      <trkpt lat="48.43919" lon="-4.40833">
        <ele>148</ele>
        <time>2012-02-26T09:09:31.52</time>
      </trkpt>
      <trkpt lat="48.43918" lon="-4.40839">
        <ele>148</ele>
        <time>2012-02-26T09:09:32.51</time>
      </trkpt>
      <trkpt lat="48.43918" lon="-4.40848">
        <ele>148</ele>
        <time>2012-02-26T09:09:33.51</time>
      </trkpt>
      <trkpt lat="48.43918" lon="-4.40854">
        <ele>148</ele>
        <time>2012-02-26T09:09:34.50</time>
      </trkpt>
      <trkpt lat="48.43918" lon="-4.40861">
        <ele>148</ele>
        <time>2012-02-26T09:09:35.50</time>
      </trkpt>
      <trkpt lat="48.43918" lon="-4.40869">
        <ele>148</ele>
        <time>2012-02-26T09:09:36.51</time>
      </trkpt>
      <trkpt lat="48.43918" lon="-4.40876">
        <ele>148</ele>
        <time>2012-02-26T09:09:37.50</time>
      </trkpt>
      <trkpt lat="48.4392" lon="-4.40884">
        <ele>148</ele>
        <time>2012-02-26T09:09:38.50</time>
      </trkpt>
      <trkpt lat="48.43922" lon="-4.40891">
        <ele>148</ele>
        <time>2012-02-26T09:09:39.51</time>
      </trkpt>
      <trkpt lat="48.43924" lon="-4.40897">
        <ele>148</ele>
        <time>2012-02-26T09:09:40.52</time>
      </trkpt>
      <trkpt lat="48.43926" lon="-4.40904">
        <ele>148</ele>
        <time>2012-02-26T09:09:41.48</time>
      </trkpt>
      <trkpt lat="48.43925" lon="-4.4091">
        <ele>149</ele>
        <time>2012-02-26T09:09:42.50</time>
      </trkpt>
      <trkpt lat="48.43926" lon="-4.40917">
        <ele>149</ele>
        <time>2012-02-26T09:09:43.50</time>
      </trkpt>
      <trkpt lat="48.43924" lon="-4.40923">
        <ele>150</ele>
        <time>2012-02-26T09:09:44.50</time>
      </trkpt>
      <trkpt lat="48.43919" lon="-4.40927">
        <ele>150</ele>
        <time>2012-02-26T09:09:45.50</time>
      </trkpt>
      <trkpt lat="48.43916" lon="-4.40929">
        <ele>150</ele>
        <time>2012-02-26T09:09:46.54</time>
      </trkpt>
      <trkpt lat="48.43912" lon="-4.40934">
        <ele>150</ele>
        <time>2012-02-26T09:09:47.50</time>
      </trkpt>
      <trkpt lat="48.43906" lon="-4.40936">
        <ele>151</ele>
        <time>2012-02-26T09:09:48.50</time>
      </trkpt>
      <trkpt lat="48.43902" lon="-4.4094">
        <ele>151</ele>
        <time>2012-02-26T09:09:49.50</time>
      </trkpt>
      <trkpt lat="48.43897" lon="-4.40944">
        <ele>151</ele>
        <time>2012-02-26T09:09:50.50</time>
      </trkpt>
      <trkpt lat="48.43892" lon="-4.40951">
        <ele>151</ele>
        <time>2012-02-26T09:09:51.50</time>
      </trkpt>
      <trkpt lat="48.43887" lon="-4.40957">
        <ele>151</ele>
        <time>2012-02-26T09:09:52.51</time>
      </trkpt>
      <trkpt lat="48.43883" lon="-4.40962">
        <ele>151</ele>
        <time>2012-02-26T09:09:53.50</time>
      </trkpt>
      <trkpt lat="48.43879" lon="-4.40968">
        <ele>151</ele>
        <time>2012-02-26T09:09:54.51</time>
      </trkpt>
      <trkpt lat="48.43874" lon="-4.40974">
        <ele>151</ele>
        <time>2012-02-26T09:09:55.51</time>
      </trkpt>
      <trkpt lat="48.4387" lon="-4.40981">
        <ele>151</ele>
        <time>2012-02-26T09:09:56.52</time>
      </trkpt>
      <trkpt lat="48.43865" lon="-4.40985">
        <ele>151</ele>
        <time>2012-02-26T09:09:57.49</time>
      </trkpt>
      <trkpt lat="48.4386" lon="-4.40992">
        <ele>151</ele>
        <time>2012-02-26T09:09:58.51</time>
      </trkpt>
      <trkpt lat="48.43856" lon="-4.40998">
        <ele>151</ele>
        <time>2012-02-26T09:09:59.52</time>
      </trkpt>
      <trkpt lat="48.43851" lon="-4.41005">
        <ele>151</ele>
        <time>2012-02-26T09:10:00.50</time>
      </trkpt>
      <trkpt lat="48.43846" lon="-4.41011">
        <ele>151</ele>
        <time>2012-02-26T09:10:01.51</time>
      </trkpt>
      <trkpt lat="48.43841" lon="-4.41017">
        <ele>151</ele>
        <time>2012-02-26T09:10:02.57</time>
      </trkpt>
      <trkpt lat="48.43837" lon="-4.41022">
        <ele>151</ele>
        <time>2012-02-26T09:10:03.50</time>
      </trkpt>
      <trkpt lat="48.43833" lon="-4.41026">
        <ele>151</ele>
        <time>2012-02-26T09:10:04.51</time>
      </trkpt>
      <trkpt lat="48.4383" lon="-4.4103">
        <ele>151</ele>
        <time>2012-02-26T09:10:05.52</time>
      </trkpt>
      <trkpt lat="48.43828" lon="-4.41035">
        <ele>151</ele>
        <time>2012-02-26T09:10:06.50</time>
      </trkpt>
      <trkpt lat="48.43827" lon="-4.41037">
        <ele>151</ele>
        <time>2012-02-26T09:10:07.51</time>
      </trkpt>
      <trkpt lat="48.43826" lon="-4.41041">
        <ele>151</ele>
        <time>2012-02-26T09:10:08.51</time>
      </trkpt>
      <trkpt lat="48.43825" lon="-4.41045">
        <ele>151</ele>
        <time>2012-02-26T09:10:09.52</time>
      </trkpt>
      <trkpt lat="48.43825" lon="-4.41052">
        <ele>151</ele>
        <time>2012-02-26T09:10:10.51</time>
      </trkpt>
      <trkpt lat="48.43824" lon="-4.41056">
        <ele>151</ele>
        <time>2012-02-26T09:10:11.51</time>
      </trkpt>
      <trkpt lat="48.43823" lon="-4.41062">
        <ele>151</ele>
        <time>2012-02-26T09:10:12.52</time>
      </trkpt>
      <trkpt lat="48.43822" lon="-4.41071">
        <ele>151</ele>
        <time>2012-02-26T09:10:13.49</time>
      </trkpt>
      <trkpt lat="48.43821" lon="-4.41077">
        <ele>151</ele>
        <time>2012-02-26T09:10:14.51</time>
      </trkpt>
      <trkpt lat="48.43821" lon="-4.41084">
        <ele>151</ele>
        <time>2012-02-26T09:10:15.52</time>
      </trkpt>
      <trkpt lat="48.43821" lon="-4.41092">
        <ele>151</ele>
        <time>2012-02-26T09:10:16.51</time>
      </trkpt>
      <trkpt lat="48.43822" lon="-4.41101">
        <ele>151</ele>
        <time>2012-02-26T09:10:17.51</time>
      </trkpt>
      <trkpt lat="48.43824" lon="-4.4111">
        <ele>150</ele>
        <time>2012-02-26T09:10:18.57</time>
      </trkpt>
      <trkpt lat="48.43826" lon="-4.41118">
        <ele>150</ele>
        <time>2012-02-26T09:10:19.50</time>
      </trkpt>
      <trkpt lat="48.43829" lon="-4.41127">
        <ele>150</ele>
        <time>2012-02-26T09:10:20.51</time>
      </trkpt>
      <trkpt lat="48.43831" lon="-4.41133">
        <ele>150</ele>
        <time>2012-02-26T09:10:21.51</time>
      </trkpt>
      <trkpt lat="48.43835" lon="-4.41142">
        <ele>150</ele>
        <time>2012-02-26T09:10:22.50</time>
      </trkpt>
      <trkpt lat="48.43838" lon="-4.4115">
        <ele>149</ele>
        <time>2012-02-26T09:10:23.51</time>
      </trkpt>
      <trkpt lat="48.43841" lon="-4.41157">
        <ele>149</ele>
        <time>2012-02-26T09:10:24.51</time>
      </trkpt>
      <trkpt lat="48.43843" lon="-4.41165">
        <ele>149</ele>
        <time>2012-02-26T09:10:25.50</time>
      </trkpt>
      <trkpt lat="48.43846" lon="-4.41172">
        <ele>149</ele>
        <time>2012-02-26T09:10:26.51</time>
      </trkpt>
      <trkpt lat="48.4385" lon="-4.4118">
        <ele>149</ele>
        <time>2012-02-26T09:10:27.51</time>
      </trkpt>
      <trkpt lat="48.43853" lon="-4.41187">
        <ele>149</ele>
        <time>2012-02-26T09:10:28.53</time>
      </trkpt>
      <trkpt lat="48.43855" lon="-4.41195">
        <ele>149</ele>
        <time>2012-02-26T09:10:29.48</time>
      </trkpt>
      <trkpt lat="48.43858" lon="-4.41202">
        <ele>149</ele>
        <time>2012-02-26T09:10:30.50</time>
      </trkpt>
      <trkpt lat="48.4386" lon="-4.41211">
        <ele>148</ele>
        <time>2012-02-26T09:10:31.50</time>
      </trkpt>
      <trkpt lat="48.43863" lon="-4.41217">
        <ele>148</ele>
        <time>2012-02-26T09:10:32.50</time>
      </trkpt>
      <trkpt lat="48.43866" lon="-4.41226">
        <ele>148</ele>
        <time>2012-02-26T09:10:33.50</time>
      </trkpt>
      <trkpt lat="48.43868" lon="-4.41234">
        <ele>148</ele>
        <time>2012-02-26T09:10:34.54</time>
      </trkpt>
      <trkpt lat="48.4387" lon="-4.41241">
        <ele>148</ele>
        <time>2012-02-26T09:10:35.50</time>
      </trkpt>
      <trkpt lat="48.43872" lon="-4.41249">
        <ele>148</ele>
        <time>2012-02-26T09:10:36.50</time>
      </trkpt>
      <trkpt lat="48.43874" lon="-4.41256">
        <ele>148</ele>
        <time>2012-02-26T09:10:37.50</time>
      </trkpt>
      <trkpt lat="48.43876" lon="-4.41264">
        <ele>148</ele>
        <time>2012-02-26T09:10:38.50</time>
      </trkpt>
      <trkpt lat="48.43879" lon="-4.41271">
        <ele>148</ele>
        <time>2012-02-26T09:10:39.50</time>
      </trkpt>
      <trkpt lat="48.43881" lon="-4.41279">
        <ele>147</ele>
        <time>2012-02-26T09:10:40.50</time>
      </trkpt>
      <trkpt lat="48.43883" lon="-4.41286">
        <ele>147</ele>
        <time>2012-02-26T09:10:41.50</time>
      </trkpt>
      <trkpt lat="48.43886" lon="-4.41294">
        <ele>147</ele>
        <time>2012-02-26T09:10:42.51</time>
      </trkpt>
      <trkpt lat="48.43889" lon="-4.41301">
        <ele>147</ele>
        <time>2012-02-26T09:10:43.50</time>
      </trkpt>
      <trkpt lat="48.43891" lon="-4.41307">
        <ele>147</ele>
        <time>2012-02-26T09:10:44.50</time>
      </trkpt>
      <trkpt lat="48.43895" lon="-4.41316">
        <ele>147</ele>
        <time>2012-02-26T09:10:45.50</time>
      </trkpt>
      <trkpt lat="48.43895" lon="-4.41324">
        <ele>147</ele>
        <time>2012-02-26T09:10:46.50</time>
      </trkpt>
      <trkpt lat="48.43896" lon="-4.41331">
        <ele>147</ele>
        <time>2012-02-26T09:10:47.50</time>
      </trkpt>
      <trkpt lat="48.43897" lon="-4.41339">
        <ele>147</ele>
        <time>2012-02-26T09:10:48.51</time>
      </trkpt>
      <trkpt lat="48.43899" lon="-4.41348">
        <ele>147</ele>
        <time>2012-02-26T09:10:49.52</time>
      </trkpt>
      <trkpt lat="48.439" lon="-4.41356">
        <ele>147</ele>
        <time>2012-02-26T09:10:50.55</time>
      </trkpt>
      <trkpt lat="48.43902" lon="-4.41365">
        <ele>147</ele>
        <time>2012-02-26T09:10:51.50</time>
      </trkpt>
      <trkpt lat="48.43904" lon="-4.41374">
        <ele>147</ele>
        <time>2012-02-26T09:10:52.50</time>
      </trkpt>
      <trkpt lat="48.43906" lon="-4.41382">
        <ele>147</ele>
        <time>2012-02-26T09:10:53.51</time>
      </trkpt>
      <trkpt lat="48.4391" lon="-4.41391">
        <ele>147</ele>
        <time>2012-02-26T09:10:54.51</time>
      </trkpt>
      <trkpt lat="48.43912" lon="-4.41397">
        <ele>147</ele>
        <time>2012-02-26T09:10:55.50</time>
      </trkpt>
      <trkpt lat="48.43914" lon="-4.41406">
        <ele>147</ele>
        <time>2012-02-26T09:10:56.51</time>
      </trkpt>
      <trkpt lat="48.43916" lon="-4.41414">
        <ele>146</ele>
        <time>2012-02-26T09:10:57.50</time>
      </trkpt>
      <trkpt lat="48.43917" lon="-4.41423">
        <ele>146</ele>
        <time>2012-02-26T09:10:58.58</time>
      </trkpt>
      <trkpt lat="48.43919" lon="-4.41429">
        <ele>146</ele>
        <time>2012-02-26T09:10:59.51</time>
      </trkpt>
      <trkpt lat="48.43921" lon="-4.41438">
        <ele>146</ele>
        <time>2012-02-26T09:11:00.50</time>
      </trkpt>
      <trkpt lat="48.43924" lon="-4.41444">
        <ele>146</ele>
        <time>2012-02-26T09:11:01.48</time>
      </trkpt>
      <trkpt lat="48.43926" lon="-4.41453">
        <ele>146</ele>
        <time>2012-02-26T09:11:02.50</time>
      </trkpt>
      <trkpt lat="48.43928" lon="-4.41462">
        <ele>147</ele>
        <time>2012-02-26T09:11:03.50</time>
      </trkpt>
      <trkpt lat="48.4393" lon="-4.4147">
        <ele>147</ele>
        <time>2012-02-26T09:11:04.50</time>
      </trkpt>
      <trkpt lat="48.43932" lon="-4.41477">
        <ele>147</ele>
        <time>2012-02-26T09:11:05.50</time>
      </trkpt>
      <trkpt lat="48.43934" lon="-4.41485">
        <ele>147</ele>
        <time>2012-02-26T09:11:06.55</time>
      </trkpt>
      <trkpt lat="48.43936" lon="-4.41494">
        <ele>147</ele>
        <time>2012-02-26T09:11:07.50</time>
      </trkpt>
      <trkpt lat="48.43938" lon="-4.41502">
        <ele>147</ele>
        <time>2012-02-26T09:11:08.50</time>
      </trkpt>
      <trkpt lat="48.4394" lon="-4.41509">
        <ele>147</ele>
        <time>2012-02-26T09:11:09.51</time>
      </trkpt>
      <trkpt lat="48.43942" lon="-4.41517">
        <ele>147</ele>
        <time>2012-02-26T09:11:10.50</time>
      </trkpt>
      <trkpt lat="48.43944" lon="-4.41526">
        <ele>146</ele>
        <time>2012-02-26T09:11:11.50</time>
      </trkpt>
      <trkpt lat="48.43946" lon="-4.41535">
        <ele>146</ele>
        <time>2012-02-26T09:11:12.51</time>
      </trkpt>
      <trkpt lat="48.43947" lon="-4.41541">
        <ele>146</ele>
        <time>2012-02-26T09:11:13.51</time>
      </trkpt>
      <trkpt lat="48.43948" lon="-4.41552">
        <ele>145</ele>
        <time>2012-02-26T09:11:14.50</time>
      </trkpt>
      <trkpt lat="48.43948" lon="-4.4156">
        <ele>145</ele>
        <time>2012-02-26T09:11:15.50</time>
      </trkpt>
      <trkpt lat="48.43948" lon="-4.41569">
        <ele>145</ele>
        <time>2012-02-26T09:11:16.50</time>
      </trkpt>
      <trkpt lat="48.43947" lon="-4.4158">
        <ele>145</ele>
        <time>2012-02-26T09:11:17.55</time>
      </trkpt>
      <trkpt lat="48.43946" lon="-4.41588">
        <ele>145</ele>
        <time>2012-02-26T09:11:18.50</time>
      </trkpt>
      <trkpt lat="48.43944" lon="-4.41599">
        <ele>145</ele>
        <time>2012-02-26T09:11:19.51</time>
      </trkpt>
      <trkpt lat="48.43942" lon="-4.41607">
        <ele>145</ele>
        <time>2012-02-26T09:11:20.51</time>
      </trkpt>
      <trkpt lat="48.43941" lon="-4.41614">
        <ele>145</ele>
        <time>2012-02-26T09:11:21.51</time>
      </trkpt>
      <trkpt lat="48.43939" lon="-4.41622">
        <ele>145</ele>
        <time>2012-02-26T09:11:22.51</time>
      </trkpt>
      <trkpt lat="48.43938" lon="-4.41631">
        <ele>145</ele>
        <time>2012-02-26T09:11:23.52</time>
      </trkpt>
      <trkpt lat="48.43935" lon="-4.4164">
        <ele>145</ele>
        <time>2012-02-26T09:11:24.51</time>
      </trkpt>
      <trkpt lat="48.43934" lon="-4.41646">
        <ele>145</ele>
        <time>2012-02-26T09:11:25.51</time>
      </trkpt>
      <trkpt lat="48.43933" lon="-4.41653">
        <ele>145</ele>
        <time>2012-02-26T09:11:26.51</time>
      </trkpt>
      <trkpt lat="48.43931" lon="-4.41659">
        <ele>145</ele>
        <time>2012-02-26T09:11:27.51</time>
      </trkpt>
      <trkpt lat="48.4393" lon="-4.41665">
        <ele>145</ele>
        <time>2012-02-26T09:11:28.50</time>
      </trkpt>
      <trkpt lat="48.43929" lon="-4.41672">
        <ele>145</ele>
        <time>2012-02-26T09:11:29.51</time>
      </trkpt>
      <trkpt lat="48.43928" lon="-4.41678">
        <ele>145</ele>
        <time>2012-02-26T09:11:30.51</time>
      </trkpt>
      <trkpt lat="48.43928" lon="-4.41685">
        <ele>145</ele>
        <time>2012-02-26T09:11:31.50</time>
      </trkpt>
      <trkpt lat="48.43927" lon="-4.41691">
        <ele>146</ele>
        <time>2012-02-26T09:11:32.50</time>
      </trkpt>
      <trkpt lat="48.43927" lon="-4.41698">
        <ele>146</ele>
        <time>2012-02-26T09:11:33.51</time>
      </trkpt>
      <trkpt lat="48.43926" lon="-4.41704">
        <ele>146</ele>
        <time>2012-02-26T09:11:34.51</time>
      </trkpt>
      <trkpt lat="48.43925" lon="-4.41713">
        <ele>146</ele>
        <time>2012-02-26T09:11:35.51</time>
      </trkpt>
      <trkpt lat="48.43924" lon="-4.41721">
        <ele>146</ele>
        <time>2012-02-26T09:11:36.50</time>
      </trkpt>
      <trkpt lat="48.43922" lon="-4.41728">
        <ele>146</ele>
        <time>2012-02-26T09:11:37.51</time>
      </trkpt>
      <trkpt lat="48.4392" lon="-4.41736">
        <ele>146</ele>
        <time>2012-02-26T09:11:38.50</time>
      </trkpt>
      <trkpt lat="48.43918" lon="-4.41747">
        <ele>146</ele>
        <time>2012-02-26T09:11:39.52</time>
      </trkpt>
      <trkpt lat="48.43916" lon="-4.41756">
        <ele>146</ele>
        <time>2012-02-26T09:11:40.52</time>
      </trkpt>
      <trkpt lat="48.43914" lon="-4.41764">
        <ele>146</ele>
        <time>2012-02-26T09:11:41.51</time>
      </trkpt>
      <trkpt lat="48.43911" lon="-4.41773">
        <ele>146</ele>
        <time>2012-02-26T09:11:42.51</time>
      </trkpt>
      <trkpt lat="48.43909" lon="-4.41781">
        <ele>146</ele>
        <time>2012-02-26T09:11:43.52</time>
      </trkpt>
      <trkpt lat="48.43905" lon="-4.4179">
        <ele>146</ele>
        <time>2012-02-26T09:11:44.51</time>
      </trkpt>
      <trkpt lat="48.43903" lon="-4.41801">
        <ele>146</ele>
        <time>2012-02-26T09:11:45.51</time>
      </trkpt>
      <trkpt lat="48.43901" lon="-4.41811">
        <ele>146</ele>
        <time>2012-02-26T09:11:46.52</time>
      </trkpt>
      <trkpt lat="48.43899" lon="-4.41822">
        <ele>146</ele>
        <time>2012-02-26T09:11:47.51</time>
      </trkpt>
      <trkpt lat="48.43896" lon="-4.41831">
        <ele>146</ele>
        <time>2012-02-26T09:11:48.51</time>
      </trkpt>
      <trkpt lat="48.43894" lon="-4.41841">
        <ele>146</ele>
        <time>2012-02-26T09:11:49.52</time>
      </trkpt>
      <trkpt lat="48.43891" lon="-4.41852">
        <ele>146</ele>
        <time>2012-02-26T09:11:50.51</time>
      </trkpt>
      <trkpt lat="48.43889" lon="-4.41861">
        <ele>146</ele>
        <time>2012-02-26T09:11:51.51</time>
      </trkpt>
      <trkpt lat="48.43888" lon="-4.41869">
        <ele>146</ele>
        <time>2012-02-26T09:11:52.52</time>
      </trkpt>
      <trkpt lat="48.43885" lon="-4.4188">
        <ele>146</ele>
        <time>2012-02-26T09:11:53.50</time>
      </trkpt>
      <trkpt lat="48.43884" lon="-4.41889">
        <ele>146</ele>
        <time>2012-02-26T09:11:54.51</time>
      </trkpt>
      <trkpt lat="48.43882" lon="-4.41897">
        <ele>146</ele>
        <time>2012-02-26T09:11:55.52</time>
      </trkpt>
      <trkpt lat="48.4388" lon="-4.41906">
        <ele>146</ele>
        <time>2012-02-26T09:11:56.52</time>
      </trkpt>
      <trkpt lat="48.43879" lon="-4.41912">
        <ele>146</ele>
        <time>2012-02-26T09:11:57.56</time>
      </trkpt>
      <trkpt lat="48.43876" lon="-4.41916">
        <ele>146</ele>
        <time>2012-02-26T09:11:58.52</time>
      </trkpt>
      <trkpt lat="48.43875" lon="-4.41919">
        <ele>146</ele>
        <time>2012-02-26T09:11:59.52</time>
      </trkpt>
      <trkpt lat="48.43871" lon="-4.41921">
        <ele>146</ele>
        <time>2012-02-26T09:12:01.51</time>
      </trkpt>
      <trkpt lat="48.43868" lon="-4.41919">
        <ele>146</ele>
        <time>2012-02-26T09:12:02.53</time>
      </trkpt>
      <trkpt lat="48.43863" lon="-4.41921">
        <ele>146</ele>
        <time>2012-02-26T09:12:03.50</time>
      </trkpt>
      <trkpt lat="48.43863" lon="-4.41908">
        <ele>146</ele>
        <time>2012-02-26T09:12:04.51</time>
      </trkpt>
      <trkpt lat="48.4386" lon="-4.41904">
        <ele>146</ele>
        <time>2012-02-26T09:12:05.51</time>
      </trkpt>
      <trkpt lat="48.43857" lon="-4.41897">
        <ele>146</ele>
        <time>2012-02-26T09:12:06.51</time>
      </trkpt>
      <trkpt lat="48.43853" lon="-4.41895">
        <ele>145</ele>
        <time>2012-02-26T09:12:07.51</time>
      </trkpt>
      <trkpt lat="48.4385" lon="-4.41893">
        <ele>145</ele>
        <time>2012-02-26T09:12:08.57</time>
      </trkpt>
      <trkpt lat="48.43845" lon="-4.41893">
        <ele>145</ele>
        <time>2012-02-26T09:12:09.50</time>
      </trkpt>
      <trkpt lat="48.43841" lon="-4.41893">
        <ele>146</ele>
        <time>2012-02-26T09:12:10.51</time>
      </trkpt>
      <trkpt lat="48.43836" lon="-4.41893">
        <ele>146</ele>
        <time>2012-02-26T09:12:11.51</time>
      </trkpt>
      <trkpt lat="48.43831" lon="-4.41893">
        <ele>146</ele>
        <time>2012-02-26T09:12:12.51</time>
      </trkpt>
      <trkpt lat="48.43826" lon="-4.41893">
        <ele>146</ele>
        <time>2012-02-26T09:12:13.51</time>
      </trkpt>
      <trkpt lat="48.43821" lon="-4.41891">
        <ele>146</ele>
        <time>2012-02-26T09:12:14.50</time>
      </trkpt>
      <trkpt lat="48.43815" lon="-4.41889">
        <ele>146</ele>
        <time>2012-02-26T09:12:15.51</time>
      </trkpt>
      <trkpt lat="48.43811" lon="-4.41886">
        <ele>146</ele>
        <time>2012-02-26T09:12:16.51</time>
      </trkpt>
      <trkpt lat="48.43806" lon="-4.41882">
        <ele>147</ele>
        <time>2012-02-26T09:12:17.50</time>
      </trkpt>
      <trkpt lat="48.43799" lon="-4.4188">
        <ele>147</ele>
        <time>2012-02-26T09:12:18.51</time>
      </trkpt>
      <trkpt lat="48.43794" lon="-4.41876">
        <ele>147</ele>
        <time>2012-02-26T09:12:19.51</time>
      </trkpt>
      <trkpt lat="48.43787" lon="-4.41874">
        <ele>148</ele>
        <time>2012-02-26T09:12:20.50</time>
      </trkpt>
      <trkpt lat="48.43782" lon="-4.41874">
        <ele>149</ele>
        <time>2012-02-26T09:12:21.50</time>
      </trkpt>
      <trkpt lat="48.43776" lon="-4.41871">
        <ele>149</ele>
        <time>2012-02-26T09:12:22.50</time>
      </trkpt>
      <trkpt lat="48.4377" lon="-4.41871">
        <ele>150</ele>
        <time>2012-02-26T09:12:23.51</time>
      </trkpt>
      <trkpt lat="48.43766" lon="-4.41869">
        <ele>150</ele>
        <time>2012-02-26T09:12:24.51</time>
      </trkpt>
      <trkpt lat="48.43762" lon="-4.41867">
        <ele>150</ele>
        <time>2012-02-26T09:12:25.51</time>
      </trkpt>
      <trkpt lat="48.43757" lon="-4.41865">
        <ele>150</ele>
        <time>2012-02-26T09:12:26.51</time>
      </trkpt>
      <trkpt lat="48.43753" lon="-4.41863">
        <ele>150</ele>
        <time>2012-02-26T09:12:27.51</time>
      </trkpt>
      <trkpt lat="48.4375" lon="-4.41863">
        <ele>150</ele>
        <time>2012-02-26T09:12:28.51</time>
      </trkpt>
      <trkpt lat="48.43747" lon="-4.41863">
        <ele>150</ele>
        <time>2012-02-26T09:12:29.51</time>
      </trkpt>
      <trkpt lat="48.43743" lon="-4.41863">
        <ele>150</ele>
        <time>2012-02-26T09:12:30.51</time>
      </trkpt>
      <trkpt lat="48.4374" lon="-4.41863">
        <ele>150</ele>
        <time>2012-02-26T09:12:31.51</time>
      </trkpt>
      <trkpt lat="48.43736" lon="-4.41863">
        <ele>150</ele>
        <time>2012-02-26T09:12:32.51</time>
      </trkpt>
      <trkpt lat="48.43732" lon="-4.41863">
        <ele>151</ele>
        <time>2012-02-26T09:12:33.51</time>
      </trkpt>
      <trkpt lat="48.43727" lon="-4.41861">
        <ele>152</ele>
        <time>2012-02-26T09:12:34.51</time>
      </trkpt>
      <trkpt lat="48.43723" lon="-4.41861">
        <ele>152</ele>
        <time>2012-02-26T09:12:35.51</time>
      </trkpt>
      <trkpt lat="48.43719" lon="-4.41859">
        <ele>152</ele>
        <time>2012-02-26T09:12:36.51</time>
      </trkpt>
      <trkpt lat="48.43714" lon="-4.41859">
        <ele>152</ele>
        <time>2012-02-26T09:12:37.51</time>
      </trkpt>
      <trkpt lat="48.4371" lon="-4.41856">
        <ele>152</ele>
        <time>2012-02-26T09:12:38.51</time>
      </trkpt>
      <trkpt lat="48.43706" lon="-4.41854">
        <ele>152</ele>
        <time>2012-02-26T09:12:39.51</time>
      </trkpt>
      <trkpt lat="48.43701" lon="-4.41854">
        <ele>152</ele>
        <time>2012-02-26T09:12:40.51</time>
      </trkpt>
      <trkpt lat="48.43698" lon="-4.41852">
        <ele>152</ele>
        <time>2012-02-26T09:12:41.51</time>
      </trkpt>
      <trkpt lat="48.43694" lon="-4.41852">
        <ele>152</ele>
        <time>2012-02-26T09:12:42.51</time>
      </trkpt>
      <trkpt lat="48.4369" lon="-4.4185">
        <ele>152</ele>
        <time>2012-02-26T09:12:43.51</time>
      </trkpt>
      <trkpt lat="48.43686" lon="-4.4185">
        <ele>152</ele>
        <time>2012-02-26T09:12:44.51</time>
      </trkpt>
      <trkpt lat="48.43682" lon="-4.41848">
        <ele>153</ele>
        <time>2012-02-26T09:12:45.51</time>
      </trkpt>
      <trkpt lat="48.43678" lon="-4.41848">
        <ele>153</ele>
        <time>2012-02-26T09:12:46.51</time>
      </trkpt>
      <trkpt lat="48.43673" lon="-4.41846">
        <ele>154</ele>
        <time>2012-02-26T09:12:47.51</time>
      </trkpt>
      <trkpt lat="48.43668" lon="-4.41844">
        <ele>154</ele>
        <time>2012-02-26T09:12:48.51</time>
      </trkpt>
      <trkpt lat="48.43663" lon="-4.41841">
        <ele>155</ele>
        <time>2012-02-26T09:12:49.50</time>
      </trkpt>
      <trkpt lat="48.43657" lon="-4.41839">
        <ele>155</ele>
        <time>2012-02-26T09:12:50.50</time>
      </trkpt>
      <trkpt lat="48.43653" lon="-4.41835">
        <ele>156</ele>
        <time>2012-02-26T09:12:51.50</time>
      </trkpt>
      <trkpt lat="48.43648" lon="-4.41833">
        <ele>156</ele>
        <time>2012-02-26T09:12:52.50</time>
      </trkpt>
      <trkpt lat="48.43641" lon="-4.41831">
        <ele>157</ele>
        <time>2012-02-26T09:12:53.51</time>
      </trkpt>
      <trkpt lat="48.43636" lon="-4.41828">
        <ele>157</ele>
        <time>2012-02-26T09:12:54.51</time>
      </trkpt>
      <trkpt lat="48.4363" lon="-4.41826">
        <ele>157</ele>
        <time>2012-02-26T09:12:55.51</time>
      </trkpt>
      <trkpt lat="48.43623" lon="-4.41824">
        <ele>157</ele>
        <time>2012-02-26T09:12:56.51</time>
      </trkpt>
      <trkpt lat="48.43617" lon="-4.4182">
        <ele>157</ele>
        <time>2012-02-26T09:12:57.51</time>
      </trkpt>
      <trkpt lat="48.43609" lon="-4.4182">
        <ele>157</ele>
        <time>2012-02-26T09:12:58.51</time>
      </trkpt>
      <trkpt lat="48.43603" lon="-4.41818">
        <ele>156</ele>
        <time>2012-02-26T09:12:59.51</time>
      </trkpt>
      <trkpt lat="48.43596" lon="-4.41816">
        <ele>155</ele>
        <time>2012-02-26T09:13:00.51</time>
      </trkpt>
      <trkpt lat="48.43592" lon="-4.41818">
        <ele>154</ele>
        <time>2012-02-26T09:13:01.51</time>
      </trkpt>
      <trkpt lat="48.43588" lon="-4.41818">
        <ele>154</ele>
        <time>2012-02-26T09:13:02.51</time>
      </trkpt>
      <trkpt lat="48.43586" lon="-4.4182">
        <ele>154</ele>
        <time>2012-02-26T09:13:03.51</time>
      </trkpt>
      <trkpt lat="48.43573" lon="-4.41822">
        <ele>151</ele>
        <time>2012-02-26T09:13:10.51</time>
      </trkpt>
      <trkpt lat="48.43567" lon="-4.41824">
        <ele>151</ele>
        <time>2012-02-26T09:13:11.53</time>
      </trkpt>
      <trkpt lat="48.43562" lon="-4.41826">
        <ele>151</ele>
        <time>2012-02-26T09:13:12.51</time>
      </trkpt>
      <trkpt lat="48.43557" lon="-4.41826">
        <ele>150</ele>
        <time>2012-02-26T09:13:13.51</time>
      </trkpt>
      <trkpt lat="48.43551" lon="-4.41826">
        <ele>147</ele>
        <time>2012-02-26T09:13:14.50</time>
      </trkpt>
      <trkpt lat="48.43547" lon="-4.41824">
        <ele>144</ele>
        <time>2012-02-26T09:13:15.50</time>
      </trkpt>
      <trkpt lat="48.43543" lon="-4.41822">
        <ele>142</ele>
        <time>2012-02-26T09:13:16.50</time>
      </trkpt>
      <trkpt lat="48.43538" lon="-4.41818">
        <ele>142</ele>
        <time>2012-02-26T09:13:17.50</time>
      </trkpt>
      <trkpt lat="48.43535" lon="-4.41816">
        <ele>142</ele>
        <time>2012-02-26T09:13:18.50</time>
      </trkpt>
      <trkpt lat="48.43533" lon="-4.41811">
        <ele>142</ele>
        <time>2012-02-26T09:13:19.50</time>
      </trkpt>
      <trkpt lat="48.4353" lon="-4.41805">
        <ele>140</ele>
        <time>2012-02-26T09:13:20.50</time>
      </trkpt>
      <trkpt lat="48.43528" lon="-4.41798">
        <ele>139</ele>
        <time>2012-02-26T09:13:21.50</time>
      </trkpt>
      <trkpt lat="48.43524" lon="-4.41792">
        <ele>138</ele>
        <time>2012-02-26T09:13:22.50</time>
      </trkpt>
      <trkpt lat="48.43522" lon="-4.41786">
        <ele>137</ele>
        <time>2012-02-26T09:13:23.50</time>
      </trkpt>
      <trkpt lat="48.43519" lon="-4.41779">
        <ele>137</ele>
        <time>2012-02-26T09:13:24.50</time>
      </trkpt>
      <trkpt lat="48.43516" lon="-4.41771">
        <ele>137</ele>
        <time>2012-02-26T09:13:25.51</time>
      </trkpt>
      <trkpt lat="48.43512" lon="-4.41764">
        <ele>136</ele>
        <time>2012-02-26T09:13:26.52</time>
      </trkpt>
      <trkpt lat="48.43508" lon="-4.41758">
        <ele>136</ele>
        <time>2012-02-26T09:13:27.50</time>
      </trkpt>
      <trkpt lat="48.43506" lon="-4.41753">
        <ele>136</ele>
        <time>2012-02-26T09:13:28.52</time>
      </trkpt>
      <trkpt lat="48.43504" lon="-4.41751">
        <ele>136</ele>
        <time>2012-02-26T09:13:29.52</time>
      </trkpt>
      <trkpt lat="48.43503" lon="-4.41749">
        <ele>136</ele>
        <time>2012-02-26T09:13:30.50</time>
      </trkpt>
      <trkpt lat="48.43502" lon="-4.41747">
        <ele>136</ele>
        <time>2012-02-26T09:13:31.53</time>
      </trkpt>
      <trkpt lat="48.43501" lon="-4.41745">
        <ele>136</ele>
        <time>2012-02-26T09:13:32.52</time>
      </trkpt>
      <trkpt lat="48.435" lon="-4.41745">
        <ele>136</ele>
        <time>2012-02-26T09:13:33.50</time>
      </trkpt>
      <trkpt lat="48.435" lon="-4.41743">
        <ele>136</ele>
        <time>2012-02-26T09:13:34.51</time>
      </trkpt>
      <trkpt lat="48.43499" lon="-4.41743">
        <ele>136</ele>
        <time>2012-02-26T09:13:35.52</time>
      </trkpt>
      <trkpt lat="48.4349" lon="-4.4173">
        <ele>136</ele>
        <time>2012-02-26T09:13:42.49</time>
      </trkpt>
      <trkpt lat="48.43488" lon="-4.4173">
        <ele>136</ele>
        <time>2012-02-26T09:13:43.50</time>
      </trkpt>
      <trkpt lat="48.43486" lon="-4.41728">
        <ele>136</ele>
        <time>2012-02-26T09:13:44.49</time>
      </trkpt>
      <trkpt lat="48.43485" lon="-4.41728">
        <ele>136</ele>
        <time>2012-02-26T09:13:45.49</time>
      </trkpt>
      <trkpt lat="48.43483" lon="-4.41723">
        <ele>136</ele>
        <time>2012-02-26T09:13:46.50</time>
      </trkpt>
      <trkpt lat="48.4348" lon="-4.41721">
        <ele>136</ele>
        <time>2012-02-26T09:13:47.50</time>
      </trkpt>
      <trkpt lat="48.43478" lon="-4.41717">
        <ele>136</ele>
        <time>2012-02-26T09:13:48.50</time>
      </trkpt>
      <trkpt lat="48.43475" lon="-4.41713">
        <ele>136</ele>
        <time>2012-02-26T09:13:49.50</time>
      </trkpt>
      <trkpt lat="48.43472" lon="-4.41708">
        <ele>136</ele>
        <time>2012-02-26T09:13:50.49</time>
      </trkpt>
      <trkpt lat="48.43468" lon="-4.41704">
        <ele>137</ele>
        <time>2012-02-26T09:13:51.49</time>
      </trkpt>
      <trkpt lat="48.43464" lon="-4.41698">
        <ele>137</ele>
        <time>2012-02-26T09:13:52.50</time>
      </trkpt>
      <trkpt lat="48.4346" lon="-4.41695">
        <ele>137</ele>
        <time>2012-02-26T09:13:53.49</time>
      </trkpt>
      <trkpt lat="48.43455" lon="-4.41693">
        <ele>137</ele>
        <time>2012-02-26T09:13:54.49</time>
      </trkpt>
      <trkpt lat="48.4345" lon="-4.41691">
        <ele>137</ele>
        <time>2012-02-26T09:13:55.49</time>
      </trkpt>
      <trkpt lat="48.43446" lon="-4.41691">
        <ele>137</ele>
        <time>2012-02-26T09:13:56.49</time>
      </trkpt>
      <trkpt lat="48.43443" lon="-4.41691">
        <ele>138</ele>
        <time>2012-02-26T09:13:57.50</time>
      </trkpt>
      <trkpt lat="48.43439" lon="-4.41693">
        <ele>138</ele>
        <time>2012-02-26T09:13:58.49</time>
      </trkpt>
      <trkpt lat="48.43436" lon="-4.41693">
        <ele>138</ele>
        <time>2012-02-26T09:13:59.50</time>
      </trkpt>
      <trkpt lat="48.43435" lon="-4.41693">
        <ele>138</ele>
        <time>2012-02-26T09:14:00.50</time>
      </trkpt>
      <trkpt lat="48.43433" lon="-4.41693">
        <ele>138</ele>
        <time>2012-02-26T09:14:01.50</time>
      </trkpt>
      <trkpt lat="48.43432" lon="-4.41693">
        <ele>138</ele>
        <time>2012-02-26T09:14:02.50</time>
      </trkpt>
      <trkpt lat="48.4343" lon="-4.41693">
        <ele>138</ele>
        <time>2012-02-26T09:14:03.50</time>
      </trkpt>
      <trkpt lat="48.43426" lon="-4.41693">
        <ele>138</ele>
        <time>2012-02-26T09:14:05.50</time>
      </trkpt>
      <trkpt lat="48.43423" lon="-4.41693">
        <ele>138</ele>
        <time>2012-02-26T09:14:06.50</time>
      </trkpt>
      <trkpt lat="48.4342" lon="-4.41691">
        <ele>138</ele>
        <time>2012-02-26T09:14:07.49</time>
      </trkpt>
      <trkpt lat="48.43417" lon="-4.41691">
        <ele>138</ele>
        <time>2012-02-26T09:14:08.49</time>
      </trkpt>
      <trkpt lat="48.43415" lon="-4.41691">
        <ele>138</ele>
        <time>2012-02-26T09:14:09.50</time>
      </trkpt>
      <trkpt lat="48.43412" lon="-4.41691">
        <ele>138</ele>
        <time>2012-02-26T09:14:10.50</time>
      </trkpt>
      <trkpt lat="48.4341" lon="-4.41691">
        <ele>138</ele>
        <time>2012-02-26T09:14:11.50</time>
      </trkpt>
      <trkpt lat="48.43406" lon="-4.41691">
        <ele>138</ele>
        <time>2012-02-26T09:14:12.50</time>
      </trkpt>
      <trkpt lat="48.43402" lon="-4.41691">
        <ele>138</ele>
        <time>2012-02-26T09:14:13.50</time>
      </trkpt>
      <trkpt lat="48.434" lon="-4.41691">
        <ele>138</ele>
        <time>2012-02-26T09:14:14.50</time>
      </trkpt>
      <trkpt lat="48.43398" lon="-4.41691">
        <ele>138</ele>
        <time>2012-02-26T09:14:15.49</time>
      </trkpt>
      <trkpt lat="48.43395" lon="-4.41691">
        <ele>138</ele>
        <time>2012-02-26T09:14:16.50</time>
      </trkpt>
      <trkpt lat="48.43392" lon="-4.41691">
        <ele>138</ele>
        <time>2012-02-26T09:14:17.50</time>
      </trkpt>
      <trkpt lat="48.4339" lon="-4.41691">
        <ele>138</ele>
        <time>2012-02-26T09:14:18.50</time>
      </trkpt>
      <trkpt lat="48.43386" lon="-4.41689">
        <ele>138</ele>
        <time>2012-02-26T09:14:20.50</time>
      </trkpt>
      <trkpt lat="48.43384" lon="-4.41689">
        <ele>138</ele>
        <time>2012-02-26T09:14:21.50</time>
      </trkpt>
      <trkpt lat="48.43381" lon="-4.41689">
        <ele>138</ele>
        <time>2012-02-26T09:14:22.50</time>
      </trkpt>
      <trkpt lat="48.43377" lon="-4.41687">
        <ele>138</ele>
        <time>2012-02-26T09:14:23.50</time>
      </trkpt>
      <trkpt lat="48.43373" lon="-4.41685">
        <ele>139</ele>
        <time>2012-02-26T09:14:24.49</time>
      </trkpt>
      <trkpt lat="48.4337" lon="-4.41683">
        <ele>139</ele>
        <time>2012-02-26T09:14:25.50</time>
      </trkpt>
      <trkpt lat="48.43366" lon="-4.4168">
        <ele>139</ele>
        <time>2012-02-26T09:14:26.50</time>
      </trkpt>
      <trkpt lat="48.43362" lon="-4.41678">
        <ele>139</ele>
        <time>2012-02-26T09:14:27.50</time>
      </trkpt>
      <trkpt lat="48.4336" lon="-4.41678">
        <ele>139</ele>
        <time>2012-02-26T09:14:28.50</time>
      </trkpt>
      <trkpt lat="48.43358" lon="-4.41676">
        <ele>139</ele>
        <time>2012-02-26T09:14:29.50</time>
      </trkpt>
      <trkpt lat="48.43357" lon="-4.41674">
        <ele>140</ele>
        <time>2012-02-26T09:14:30.49</time>
      </trkpt>
      <trkpt lat="48.43354" lon="-4.41672">
        <ele>140</ele>
        <time>2012-02-26T09:14:31.49</time>
      </trkpt>
      <trkpt lat="48.43351" lon="-4.4167">
        <ele>140</ele>
        <time>2012-02-26T09:14:32.50</time>
      </trkpt>
      <trkpt lat="48.43347" lon="-4.41668">
        <ele>140</ele>
        <time>2012-02-26T09:14:33.50</time>
      </trkpt>
      <trkpt lat="48.43344" lon="-4.41663">
        <ele>140</ele>
        <time>2012-02-26T09:14:34.48</time>
      </trkpt>
      <trkpt lat="48.4334" lon="-4.41661">
        <ele>140</ele>
        <time>2012-02-26T09:14:35.50</time>
      </trkpt>
      <trkpt lat="48.43336" lon="-4.41657">
        <ele>140</ele>
        <time>2012-02-26T09:14:36.50</time>
      </trkpt>
      <trkpt lat="48.43332" lon="-4.41655">
        <ele>140</ele>
        <time>2012-02-26T09:14:37.50</time>
      </trkpt>
      <trkpt lat="48.43327" lon="-4.41653">
        <ele>141</ele>
        <time>2012-02-26T09:14:38.48</time>
      </trkpt>
      <trkpt lat="48.43323" lon="-4.41648">
        <ele>142</ele>
        <time>2012-02-26T09:14:39.53</time>
      </trkpt>
      <trkpt lat="48.43317" lon="-4.41644">
        <ele>143</ele>
        <time>2012-02-26T09:14:40.50</time>
      </trkpt>
      <trkpt lat="48.43312" lon="-4.41644">
        <ele>143</ele>
        <time>2012-02-26T09:14:41.50</time>
      </trkpt>
      <trkpt lat="48.43309" lon="-4.41646">
        <ele>143</ele>
        <time>2012-02-26T09:14:42.49</time>
      </trkpt>
      <trkpt lat="48.43306" lon="-4.4165">
        <ele>143</ele>
        <time>2012-02-26T09:14:43.50</time>
      </trkpt>
      <trkpt lat="48.43302" lon="-4.41655">
        <ele>142</ele>
        <time>2012-02-26T09:14:44.54</time>
      </trkpt>
      <trkpt lat="48.43299" lon="-4.41659">
        <ele>141</ele>
        <time>2012-02-26T09:14:45.50</time>
      </trkpt>
      <trkpt lat="48.43296" lon="-4.41665">
        <ele>140</ele>
        <time>2012-02-26T09:14:46.50</time>
      </trkpt>
      <trkpt lat="48.43294" lon="-4.41672">
        <ele>140</ele>
        <time>2012-02-26T09:14:47.50</time>
      </trkpt>
      <trkpt lat="48.43291" lon="-4.41678">
        <ele>139</ele>
        <time>2012-02-26T09:14:48.50</time>
      </trkpt>
      <trkpt lat="48.43288" lon="-4.41683">
        <ele>139</ele>
        <time>2012-02-26T09:14:49.51</time>
      </trkpt>
      <trkpt lat="48.43286" lon="-4.41689">
        <ele>139</ele>
        <time>2012-02-26T09:14:50.50</time>
      </trkpt>
      <trkpt lat="48.43284" lon="-4.41693">
        <ele>138</ele>
        <time>2012-02-26T09:14:51.50</time>
      </trkpt>
      <trkpt lat="48.43283" lon="-4.417">
        <ele>138</ele>
        <time>2012-02-26T09:14:52.49</time>
      </trkpt>
      <trkpt lat="48.4328" lon="-4.41706">
        <ele>138</ele>
        <time>2012-02-26T09:14:53.57</time>
      </trkpt>
      <trkpt lat="48.43277" lon="-4.4171">
        <ele>138</ele>
        <time>2012-02-26T09:14:54.50</time>
      </trkpt>
      <trkpt lat="48.43273" lon="-4.41715">
        <ele>138</ele>
        <time>2012-02-26T09:14:55.50</time>
      </trkpt>
      <trkpt lat="48.43271" lon="-4.41719">
        <ele>138</ele>
        <time>2012-02-26T09:14:56.51</time>
      </trkpt>
      <trkpt lat="48.43269" lon="-4.41723">
        <ele>138</ele>
        <time>2012-02-26T09:14:57.52</time>
      </trkpt>
      <trkpt lat="48.43267" lon="-4.41728">
        <ele>138</ele>
        <time>2012-02-26T09:14:58.49</time>
      </trkpt>
      <trkpt lat="48.43265" lon="-4.4173">
        <ele>137</ele>
        <time>2012-02-26T09:14:59.50</time>
      </trkpt>
      <trkpt lat="48.43262" lon="-4.41732">
        <ele>137</ele>
        <time>2012-02-26T09:15:00.50</time>
      </trkpt>
      <trkpt lat="48.43259" lon="-4.41736">
        <ele>137</ele>
        <time>2012-02-26T09:15:01.50</time>
      </trkpt>
      <trkpt lat="48.43257" lon="-4.41741">
        <ele>137</ele>
        <time>2012-02-26T09:15:02.50</time>
      </trkpt>
      <trkpt lat="48.43255" lon="-4.41745">
        <ele>137</ele>
        <time>2012-02-26T09:15:03.50</time>
      </trkpt>
      <trkpt lat="48.43253" lon="-4.41747">
        <ele>137</ele>
        <time>2012-02-26T09:15:04.50</time>
      </trkpt>
      <trkpt lat="48.43241" lon="-4.4176">
        <ele>135</ele>
        <time>2012-02-26T09:15:11.50</time>
      </trkpt>
      <trkpt lat="48.43239" lon="-4.41764">
        <ele>135</ele>
        <time>2012-02-26T09:15:12.50</time>
      </trkpt>
      <trkpt lat="48.43238" lon="-4.41766">
        <ele>135</ele>
        <time>2012-02-26T09:15:13.49</time>
      </trkpt>
      <trkpt lat="48.43237" lon="-4.41768">
        <ele>134</ele>
        <time>2012-02-26T09:15:14.51</time>
      </trkpt>
      <trkpt lat="48.43234" lon="-4.41773">
        <ele>134</ele>
        <time>2012-02-26T09:15:17.50</time>
      </trkpt>
      <trkpt lat="48.43233" lon="-4.41775">
        <ele>134</ele>
        <time>2012-02-26T09:15:18.50</time>
      </trkpt>
      <trkpt lat="48.43232" lon="-4.41777">
        <ele>134</ele>
        <time>2012-02-26T09:15:19.50</time>
      </trkpt>
      <trkpt lat="48.4323" lon="-4.41777">
        <ele>134</ele>
        <time>2012-02-26T09:15:20.50</time>
      </trkpt>
      <trkpt lat="48.43229" lon="-4.41779">
        <ele>134</ele>
        <time>2012-02-26T09:15:21.50</time>
      </trkpt>
      <trkpt lat="48.43226" lon="-4.41783">
        <ele>134</ele>
        <time>2012-02-26T09:15:23.50</time>
      </trkpt>
      <trkpt lat="48.43224" lon="-4.41792">
        <ele>133</ele>
        <time>2012-02-26T09:15:26.50</time>
      </trkpt>
      <trkpt lat="48.43223" lon="-4.41794">
        <ele>133</ele>
        <time>2012-02-26T09:15:27.50</time>
      </trkpt>
      <trkpt lat="48.43222" lon="-4.41796">
        <ele>133</ele>
        <time>2012-02-26T09:15:28.50</time>
      </trkpt>
      <trkpt lat="48.4322" lon="-4.41803">
        <ele>133</ele>
        <time>2012-02-26T09:15:30.50</time>
      </trkpt>
      <trkpt lat="48.43219" lon="-4.41805">
        <ele>133</ele>
        <time>2012-02-26T09:15:31.50</time>
      </trkpt>
      <trkpt lat="48.43218" lon="-4.41807">
        <ele>133</ele>
        <time>2012-02-26T09:15:32.50</time>
      </trkpt>
      <trkpt lat="48.43217" lon="-4.41811">
        <ele>133</ele>
        <time>2012-02-26T09:15:33.50</time>
      </trkpt>
      <trkpt lat="48.43213" lon="-4.41818">
        <ele>133</ele>
        <time>2012-02-26T09:15:36.50</time>
      </trkpt>
      <trkpt lat="48.43211" lon="-4.41822">
        <ele>133</ele>
        <time>2012-02-26T09:15:37.50</time>
      </trkpt>
      <trkpt lat="48.4321" lon="-4.41826">
        <ele>133</ele>
        <time>2012-02-26T09:15:38.50</time>
      </trkpt>
      <trkpt lat="48.43209" lon="-4.41831">
        <ele>133</ele>
        <time>2012-02-26T09:15:39.50</time>
      </trkpt>
      <trkpt lat="48.43208" lon="-4.41837">
        <ele>133</ele>
        <time>2012-02-26T09:15:40.50</time>
      </trkpt>
      <trkpt lat="48.43207" lon="-4.41844">
        <ele>133</ele>
        <time>2012-02-26T09:15:41.50</time>
      </trkpt>
      <trkpt lat="48.43206" lon="-4.41848">
        <ele>133</ele>
        <time>2012-02-26T09:15:42.50</time>
      </trkpt>
      <trkpt lat="48.43205" lon="-4.41854">
        <ele>133</ele>
        <time>2012-02-26T09:15:43.50</time>
      </trkpt>
      <trkpt lat="48.43204" lon="-4.41861">
        <ele>133</ele>
        <time>2012-02-26T09:15:44.50</time>
      </trkpt>
      <trkpt lat="48.43203" lon="-4.41867">
        <ele>133</ele>
        <time>2012-02-26T09:15:45.50</time>
      </trkpt>
      <trkpt lat="48.43202" lon="-4.41874">
        <ele>133</ele>
        <time>2012-02-26T09:15:46.50</time>
      </trkpt>
      <trkpt lat="48.43199" lon="-4.41876">
        <ele>133</ele>
        <time>2012-02-26T09:15:47.50</time>
      </trkpt>
      <trkpt lat="48.43197" lon="-4.41878">
        <ele>133</ele>
        <time>2012-02-26T09:15:48.50</time>
      </trkpt>
      <trkpt lat="48.43196" lon="-4.4188">
        <ele>133</ele>
        <time>2012-02-26T09:15:49.50</time>
      </trkpt>
      <trkpt lat="48.43193" lon="-4.41884">
        <ele>133</ele>
        <time>2012-02-26T09:15:51.50</time>
      </trkpt>
      <trkpt lat="48.43191" lon="-4.41884">
        <ele>133</ele>
        <time>2012-02-26T09:15:52.50</time>
      </trkpt>
      <trkpt lat="48.43186" lon="-4.41886">
        <ele>132</ele>
        <time>2012-02-26T09:15:55.50</time>
      </trkpt>
      <trkpt lat="48.43184" lon="-4.41882">
        <ele>132</ele>
        <time>2012-02-26T09:15:57.50</time>
      </trkpt>
      <trkpt lat="48.43183" lon="-4.4188">
        <ele>132</ele>
        <time>2012-02-26T09:15:58.50</time>
      </trkpt>
      <trkpt lat="48.43183" lon="-4.41878">
        <ele>132</ele>
        <time>2012-02-26T09:15:59.50</time>
      </trkpt>
      <trkpt lat="48.43183" lon="-4.41874">
        <ele>132</ele>
        <time>2012-02-26T09:16:00.50</time>
      </trkpt>
      <trkpt lat="48.43183" lon="-4.41869">
        <ele>131</ele>
        <time>2012-02-26T09:16:01.50</time>
      </trkpt>
      <trkpt lat="48.43184" lon="-4.41865">
        <ele>131</ele>
        <time>2012-02-26T09:16:02.50</time>
      </trkpt>
      <trkpt lat="48.43184" lon="-4.41861">
        <ele>131</ele>
        <time>2012-02-26T09:16:03.50</time>
      </trkpt>
      <trkpt lat="48.43184" lon="-4.41859">
        <ele>131</ele>
        <time>2012-02-26T09:16:04.50</time>
      </trkpt>
      <trkpt lat="48.43185" lon="-4.41854">
        <ele>131</ele>
        <time>2012-02-26T09:16:05.50</time>
      </trkpt>
      <trkpt lat="48.43185" lon="-4.4185">
        <ele>131</ele>
        <time>2012-02-26T09:16:06.50</time>
      </trkpt>
      <trkpt lat="48.43186" lon="-4.41846">
        <ele>131</ele>
        <time>2012-02-26T09:16:07.50</time>
      </trkpt>
      <trkpt lat="48.43188" lon="-4.41841">
        <ele>131</ele>
        <time>2012-02-26T09:16:08.50</time>
      </trkpt>
      <trkpt lat="48.43188" lon="-4.41837">
        <ele>131</ele>
        <time>2012-02-26T09:16:09.50</time>
      </trkpt>
      <trkpt lat="48.43186" lon="-4.41833">
        <ele>131</ele>
        <time>2012-02-26T09:16:10.50</time>
      </trkpt>
      <trkpt lat="48.43186" lon="-4.41828">
        <ele>131</ele>
        <time>2012-02-26T09:16:11.50</time>
      </trkpt>
      <trkpt lat="48.43186" lon="-4.41824">
        <ele>131</ele>
        <time>2012-02-26T09:16:12.50</time>
      </trkpt>
      <trkpt lat="48.43188" lon="-4.4182">
        <ele>131</ele>
        <time>2012-02-26T09:16:13.50</time>
      </trkpt>
      <trkpt lat="48.43189" lon="-4.41818">
        <ele>131</ele>
        <time>2012-02-26T09:16:14.50</time>
      </trkpt>
      <trkpt lat="48.4319" lon="-4.41813">
        <ele>130</ele>
        <time>2012-02-26T09:16:15.50</time>
      </trkpt>
      <trkpt lat="48.43191" lon="-4.41809">
        <ele>130</ele>
        <time>2012-02-26T09:16:16.50</time>
      </trkpt>
      <trkpt lat="48.43192" lon="-4.41805">
        <ele>130</ele>
        <time>2012-02-26T09:16:17.50</time>
      </trkpt>
      <trkpt lat="48.43193" lon="-4.41801">
        <ele>130</ele>
        <time>2012-02-26T09:16:18.50</time>
      </trkpt>
      <trkpt lat="48.43194" lon="-4.41796">
        <ele>130</ele>
        <time>2012-02-26T09:16:19.50</time>
      </trkpt>
      <trkpt lat="48.43195" lon="-4.41794">
        <ele>130</ele>
        <time>2012-02-26T09:16:20.50</time>
      </trkpt>
      <trkpt lat="48.43196" lon="-4.4179">
        <ele>130</ele>
        <time>2012-02-26T09:16:21.50</time>
      </trkpt>
      <trkpt lat="48.43197" lon="-4.41786">
        <ele>130</ele>
        <time>2012-02-26T09:16:22.50</time>
      </trkpt>
      <trkpt lat="48.43198" lon="-4.41779">
        <ele>130</ele>
        <time>2012-02-26T09:16:23.50</time>
      </trkpt>
      <trkpt lat="48.43199" lon="-4.41775">
        <ele>130</ele>
        <time>2012-02-26T09:16:24.50</time>
      </trkpt>
      <trkpt lat="48.43199" lon="-4.41771">
        <ele>130</ele>
        <time>2012-02-26T09:16:25.50</time>
      </trkpt>
      <trkpt lat="48.432" lon="-4.41766">
        <ele>130</ele>
        <time>2012-02-26T09:16:26.50</time>
      </trkpt>
      <trkpt lat="48.43202" lon="-4.41762">
        <ele>130</ele>
        <time>2012-02-26T09:16:27.50</time>
      </trkpt>
      <trkpt lat="48.43203" lon="-4.41758">
        <ele>130</ele>
        <time>2012-02-26T09:16:28.50</time>
      </trkpt>
      <trkpt lat="48.43203" lon="-4.41753">
        <ele>130</ele>
        <time>2012-02-26T09:16:29.50</time>
      </trkpt>
      <trkpt lat="48.43204" lon="-4.41747">
        <ele>131</ele>
        <time>2012-02-26T09:16:30.50</time>
      </trkpt>
      <trkpt lat="48.43205" lon="-4.41741">
        <ele>131</ele>
        <time>2012-02-26T09:16:31.50</time>
      </trkpt>
      <trkpt lat="48.43206" lon="-4.41734">
        <ele>131</ele>
        <time>2012-02-26T09:16:32.50</time>
      </trkpt>
      <trkpt lat="48.43207" lon="-4.41728">
        <ele>131</ele>
        <time>2012-02-26T09:16:33.50</time>
      </trkpt>
      <trkpt lat="48.43208" lon="-4.41721">
        <ele>131</ele>
        <time>2012-02-26T09:16:34.50</time>
      </trkpt>
      <trkpt lat="48.43207" lon="-4.41715">
        <ele>132</ele>
        <time>2012-02-26T09:16:35.50</time>
      </trkpt>
      <trkpt lat="48.43205" lon="-4.41706">
        <ele>132</ele>
        <time>2012-02-26T09:16:36.50</time>
      </trkpt>
      <trkpt lat="48.43203" lon="-4.417">
        <ele>132</ele>
        <time>2012-02-26T09:16:37.50</time>
      </trkpt>
      <trkpt lat="48.43199" lon="-4.41693">
        <ele>132</ele>
        <time>2012-02-26T09:16:38.50</time>
      </trkpt>
      <trkpt lat="48.43196" lon="-4.41689">
        <ele>131</ele>
        <time>2012-02-26T09:16:39.50</time>
      </trkpt>
      <trkpt lat="48.43192" lon="-4.41685">
        <ele>130</ele>
        <time>2012-02-26T09:16:40.50</time>
      </trkpt>
      <trkpt lat="48.43189" lon="-4.4168">
        <ele>129</ele>
        <time>2012-02-26T09:16:41.50</time>
      </trkpt>
      <trkpt lat="48.43184" lon="-4.41678">
        <ele>128</ele>
        <time>2012-02-26T09:16:42.50</time>
      </trkpt>
      <trkpt lat="48.4318" lon="-4.41674">
        <ele>127</ele>
        <time>2012-02-26T09:16:43.50</time>
      </trkpt>
      <trkpt lat="48.43176" lon="-4.41672">
        <ele>126</ele>
        <time>2012-02-26T09:16:44.50</time>
      </trkpt>
      <trkpt lat="48.43173" lon="-4.41668">
        <ele>126</ele>
        <time>2012-02-26T09:16:45.50</time>
      </trkpt>
      <trkpt lat="48.43168" lon="-4.41665">
        <ele>125</ele>
        <time>2012-02-26T09:16:46.50</time>
      </trkpt>
      <trkpt lat="48.43165" lon="-4.41663">
        <ele>124</ele>
        <time>2012-02-26T09:16:47.50</time>
      </trkpt>
      <trkpt lat="48.43161" lon="-4.41659">
        <ele>124</ele>
        <time>2012-02-26T09:16:48.50</time>
      </trkpt>
      <trkpt lat="48.43158" lon="-4.41655">
        <ele>123</ele>
        <time>2012-02-26T09:16:49.50</time>
      </trkpt>
      <trkpt lat="48.43154" lon="-4.41653">
        <ele>123</ele>
        <time>2012-02-26T09:16:50.50</time>
      </trkpt>
      <trkpt lat="48.4315" lon="-4.41648">
        <ele>122</ele>
        <time>2012-02-26T09:16:51.50</time>
      </trkpt>
      <trkpt lat="48.43147" lon="-4.41644">
        <ele>122</ele>
        <time>2012-02-26T09:16:52.50</time>
      </trkpt>
      <trkpt lat="48.43144" lon="-4.41642">
        <ele>122</ele>
        <time>2012-02-26T09:16:53.50</time>
      </trkpt>
      <trkpt lat="48.4314" lon="-4.41638">
        <ele>121</ele>
        <time>2012-02-26T09:16:54.50</time>
      </trkpt>
      <trkpt lat="48.43136" lon="-4.41633">
        <ele>121</ele>
        <time>2012-02-26T09:16:55.50</time>
      </trkpt>
      <trkpt lat="48.43133" lon="-4.41631">
        <ele>121</ele>
        <time>2012-02-26T09:16:56.50</time>
      </trkpt>
      <trkpt lat="48.43129" lon="-4.41627">
        <ele>120</ele>
        <time>2012-02-26T09:16:57.50</time>
      </trkpt>
      <trkpt lat="48.43125" lon="-4.41625">
        <ele>120</ele>
        <time>2012-02-26T09:16:58.50</time>
      </trkpt>
      <trkpt lat="48.43121" lon="-4.4162">
        <ele>120</ele>
        <time>2012-02-26T09:16:59.50</time>
      </trkpt>
      <trkpt lat="48.43118" lon="-4.41618">
        <ele>120</ele>
        <time>2012-02-26T09:17:00.50</time>
      </trkpt>
      <trkpt lat="48.43114" lon="-4.41616">
        <ele>120</ele>
        <time>2012-02-26T09:17:01.50</time>
      </trkpt>
      <trkpt lat="48.4311" lon="-4.41614">
        <ele>120</ele>
        <time>2012-02-26T09:17:02.50</time>
      </trkpt>
      <trkpt lat="48.43106" lon="-4.41612">
        <ele>120</ele>
        <time>2012-02-26T09:17:03.50</time>
      </trkpt>
      <trkpt lat="48.43103" lon="-4.4161">
        <ele>120</ele>
        <time>2012-02-26T09:17:04.48</time>
      </trkpt>
      <trkpt lat="48.43099" lon="-4.41605">
        <ele>120</ele>
        <time>2012-02-26T09:17:05.50</time>
      </trkpt>
      <trkpt lat="48.43095" lon="-4.41603">
        <ele>120</ele>
        <time>2012-02-26T09:17:06.50</time>
      </trkpt>
      <trkpt lat="48.43091" lon="-4.41601">
        <ele>120</ele>
        <time>2012-02-26T09:17:07.50</time>
      </trkpt>
      <trkpt lat="48.43088" lon="-4.41599">
        <ele>120</ele>
        <time>2012-02-26T09:17:08.50</time>
      </trkpt>
      <trkpt lat="48.43086" lon="-4.41597">
        <ele>120</ele>
        <time>2012-02-26T09:17:09.50</time>
      </trkpt>
      <trkpt lat="48.43081" lon="-4.41595">
        <ele>120</ele>
        <time>2012-02-26T09:17:11.50</time>
      </trkpt>
      <trkpt lat="48.43078" lon="-4.41592">
        <ele>120</ele>
        <time>2012-02-26T09:17:12.50</time>
      </trkpt>
      <trkpt lat="48.43076" lon="-4.4159">
        <ele>120</ele>
        <time>2012-02-26T09:17:13.50</time>
      </trkpt>
      <trkpt lat="48.43073" lon="-4.41588">
        <ele>120</ele>
        <time>2012-02-26T09:17:14.50</time>
      </trkpt>
      <trkpt lat="48.4307" lon="-4.41586">
        <ele>121</ele>
        <time>2012-02-26T09:17:15.50</time>
      </trkpt>
      <trkpt lat="48.43066" lon="-4.41584">
        <ele>121</ele>
        <time>2012-02-26T09:17:16.50</time>
      </trkpt>
      <trkpt lat="48.43061" lon="-4.4158">
        <ele>121</ele>
        <time>2012-02-26T09:17:17.50</time>
      </trkpt>
      <trkpt lat="48.43058" lon="-4.41577">
        <ele>121</ele>
        <time>2012-02-26T09:17:18.50</time>
      </trkpt>
      <trkpt lat="48.43053" lon="-4.41575">
        <ele>121</ele>
        <time>2012-02-26T09:17:19.50</time>
      </trkpt>
      <trkpt lat="48.4305" lon="-4.41571">
        <ele>121</ele>
        <time>2012-02-26T09:17:20.50</time>
      </trkpt>
      <trkpt lat="48.43046" lon="-4.41569">
        <ele>121</ele>
        <time>2012-02-26T09:17:21.50</time>
      </trkpt>
      <trkpt lat="48.43043" lon="-4.41567">
        <ele>122</ele>
        <time>2012-02-26T09:17:22.50</time>
      </trkpt>
      <trkpt lat="48.43038" lon="-4.41562">
        <ele>122</ele>
        <time>2012-02-26T09:17:23.50</time>
      </trkpt>
      <trkpt lat="48.43034" lon="-4.4156">
        <ele>122</ele>
        <time>2012-02-26T09:17:24.50</time>
      </trkpt>
      <trkpt lat="48.43031" lon="-4.41558">
        <ele>122</ele>
        <time>2012-02-26T09:17:25.50</time>
      </trkpt>
      <trkpt lat="48.43028" lon="-4.41554">
        <ele>122</ele>
        <time>2012-02-26T09:17:26.50</time>
      </trkpt>
      <trkpt lat="48.43024" lon="-4.41552">
        <ele>122</ele>
        <time>2012-02-26T09:17:27.50</time>
      </trkpt>
      <trkpt lat="48.43021" lon="-4.41547">
        <ele>122</ele>
        <time>2012-02-26T09:17:28.50</time>
      </trkpt>
      <trkpt lat="48.43018" lon="-4.41543">
        <ele>122</ele>
        <time>2012-02-26T09:17:29.50</time>
      </trkpt>
      <trkpt lat="48.43015" lon="-4.41539">
        <ele>122</ele>
        <time>2012-02-26T09:17:30.50</time>
      </trkpt>
      <trkpt lat="48.43012" lon="-4.41535">
        <ele>122</ele>
        <time>2012-02-26T09:17:31.50</time>
      </trkpt>
      <trkpt lat="48.43008" lon="-4.4153">
        <ele>122</ele>
        <time>2012-02-26T09:17:32.50</time>
      </trkpt>
      <trkpt lat="48.43005" lon="-4.41526">
        <ele>122</ele>
        <time>2012-02-26T09:17:33.50</time>
      </trkpt>
      <trkpt lat="48.43002" lon="-4.41519">
        <ele>122</ele>
        <time>2012-02-26T09:17:34.50</time>
      </trkpt>
      <trkpt lat="48.42998" lon="-4.41513">
        <ele>122</ele>
        <time>2012-02-26T09:17:35.50</time>
      </trkpt>
      <trkpt lat="48.42994" lon="-4.41507">
        <ele>122</ele>
        <time>2012-02-26T09:17:36.51</time>
      </trkpt>
      <trkpt lat="48.42991" lon="-4.41502">
        <ele>122</ele>
        <time>2012-02-26T09:17:37.50</time>
      </trkpt>
      <trkpt lat="48.42988" lon="-4.41498">
        <ele>122</ele>
        <time>2012-02-26T09:17:38.50</time>
      </trkpt>
      <trkpt lat="48.42985" lon="-4.41496">
        <ele>122</ele>
        <time>2012-02-26T09:17:39.48</time>
      </trkpt>
      <trkpt lat="48.42982" lon="-4.41492">
        <ele>121</ele>
        <time>2012-02-26T09:17:40.50</time>
      </trkpt>
      <trkpt lat="48.42978" lon="-4.41489">
        <ele>121</ele>
        <time>2012-02-26T09:17:41.50</time>
      </trkpt>
      <trkpt lat="48.42974" lon="-4.41485">
        <ele>121</ele>
        <time>2012-02-26T09:17:42.50</time>
      </trkpt>
      <trkpt lat="48.4297" lon="-4.41483">
        <ele>121</ele>
        <time>2012-02-26T09:17:43.50</time>
      </trkpt>
      <trkpt lat="48.42967" lon="-4.41481">
        <ele>121</ele>
        <time>2012-02-26T09:17:44.50</time>
      </trkpt>
      <trkpt lat="48.42963" lon="-4.41479">
        <ele>121</ele>
        <time>2012-02-26T09:17:45.50</time>
      </trkpt>
      <trkpt lat="48.4296" lon="-4.41477">
        <ele>121</ele>
        <time>2012-02-26T09:17:46.50</time>
      </trkpt>
      <trkpt lat="48.42956" lon="-4.41477">
        <ele>121</ele>
        <time>2012-02-26T09:17:47.50</time>
      </trkpt>
      <trkpt lat="48.42953" lon="-4.41477">
        <ele>121</ele>
        <time>2012-02-26T09:17:48.50</time>
      </trkpt>
      <trkpt lat="48.42948" lon="-4.41474">
        <ele>121</ele>
        <time>2012-02-26T09:17:49.50</time>
      </trkpt>
      <trkpt lat="48.42944" lon="-4.4147">
        <ele>120</ele>
        <time>2012-02-26T09:17:50.50</time>
      </trkpt>
      <trkpt lat="48.4294" lon="-4.41468">
        <ele>120</ele>
        <time>2012-02-26T09:17:51.50</time>
      </trkpt>
      <trkpt lat="48.42934" lon="-4.41464">
        <ele>119</ele>
        <time>2012-02-26T09:17:52.50</time>
      </trkpt>
      <trkpt lat="48.42929" lon="-4.41462">
        <ele>118</ele>
        <time>2012-02-26T09:17:53.50</time>
      </trkpt>
      <trkpt lat="48.42924" lon="-4.41457">
        <ele>117</ele>
        <time>2012-02-26T09:17:54.50</time>
      </trkpt>
      <trkpt lat="48.42917" lon="-4.41455">
        <ele>117</ele>
        <time>2012-02-26T09:17:55.50</time>
      </trkpt>
      <trkpt lat="48.42913" lon="-4.41453">
        <ele>116</ele>
        <time>2012-02-26T09:17:56.50</time>
      </trkpt>
      <trkpt lat="48.42908" lon="-4.41451">
        <ele>116</ele>
        <time>2012-02-26T09:17:57.52</time>
      </trkpt>
      <trkpt lat="48.42903" lon="-4.41451">
        <ele>115</ele>
        <time>2012-02-26T09:17:58.50</time>
      </trkpt>
      <trkpt lat="48.429" lon="-4.41451">
        <ele>115</ele>
        <time>2012-02-26T09:17:59.52</time>
      </trkpt>
      <trkpt lat="48.42898" lon="-4.41451">
        <ele>115</ele>
        <time>2012-02-26T09:18:00.51</time>
      </trkpt>
      <trkpt lat="48.42896" lon="-4.41449">
        <ele>115</ele>
        <time>2012-02-26T09:18:01.50</time>
      </trkpt>
      <trkpt lat="48.42894" lon="-4.41447">
        <ele>115</ele>
        <time>2012-02-26T09:18:03.51</time>
      </trkpt>
      <trkpt lat="48.42893" lon="-4.41444">
        <ele>115</ele>
        <time>2012-02-26T09:18:04.50</time>
      </trkpt>
      <trkpt lat="48.42891" lon="-4.41444">
        <ele>115</ele>
        <time>2012-02-26T09:18:05.50</time>
      </trkpt>
      <trkpt lat="48.4289" lon="-4.41442">
        <ele>115</ele>
        <time>2012-02-26T09:18:06.51</time>
      </trkpt>
      <trkpt lat="48.42889" lon="-4.41432">
        <ele>115</ele>
        <time>2012-02-26T09:18:13.52</time>
      </trkpt>
      <trkpt lat="48.42889" lon="-4.41427">
        <ele>115</ele>
        <time>2012-02-26T09:18:14.52</time>
      </trkpt>
      <trkpt lat="48.4289" lon="-4.41425">
        <ele>115</ele>
        <time>2012-02-26T09:18:15.52</time>
      </trkpt>
      <trkpt lat="48.42891" lon="-4.41421">
        <ele>115</ele>
        <time>2012-02-26T09:18:16.52</time>
      </trkpt>
      <trkpt lat="48.42893" lon="-4.41417">
        <ele>115</ele>
        <time>2012-02-26T09:18:17.52</time>
      </trkpt>
      <trkpt lat="48.42894" lon="-4.41412">
        <ele>115</ele>
        <time>2012-02-26T09:18:18.52</time>
      </trkpt>
      <trkpt lat="48.42895" lon="-4.41408">
        <ele>115</ele>
        <time>2012-02-26T09:18:19.51</time>
      </trkpt>
      <trkpt lat="48.42897" lon="-4.41404">
        <ele>115</ele>
        <time>2012-02-26T09:18:20.51</time>
      </trkpt>
      <trkpt lat="48.42898" lon="-4.41397">
        <ele>115</ele>
        <time>2012-02-26T09:18:21.52</time>
      </trkpt>
      <trkpt lat="48.42899" lon="-4.41393">
        <ele>115</ele>
        <time>2012-02-26T09:18:22.52</time>
      </trkpt>
      <trkpt lat="48.42901" lon="-4.41386">
        <ele>115</ele>
        <time>2012-02-26T09:18:23.52</time>
      </trkpt>
      <trkpt lat="48.42902" lon="-4.4138">
        <ele>115</ele>
        <time>2012-02-26T09:18:24.52</time>
      </trkpt>
      <trkpt lat="48.42904" lon="-4.41374">
        <ele>115</ele>
        <time>2012-02-26T09:18:25.51</time>
      </trkpt>
      <trkpt lat="48.42905" lon="-4.41365">
        <ele>116</ele>
        <time>2012-02-26T09:18:26.52</time>
      </trkpt>
      <trkpt lat="48.42908" lon="-4.41359">
        <ele>116</ele>
        <time>2012-02-26T09:18:27.52</time>
      </trkpt>
      <trkpt lat="48.42909" lon="-4.4135">
        <ele>116</ele>
        <time>2012-02-26T09:18:28.52</time>
      </trkpt>
      <trkpt lat="48.4291" lon="-4.41344">
        <ele>116</ele>
        <time>2012-02-26T09:18:29.50</time>
      </trkpt>
      <trkpt lat="48.42912" lon="-4.41335">
        <ele>116</ele>
        <time>2012-02-26T09:18:30.52</time>
      </trkpt>
      <trkpt lat="48.42913" lon="-4.41326">
        <ele>116</ele>
        <time>2012-02-26T09:18:31.51</time>
      </trkpt>
      <trkpt lat="48.42914" lon="-4.41318">
        <ele>116</ele>
        <time>2012-02-26T09:18:32.52</time>
      </trkpt>
      <trkpt lat="48.42914" lon="-4.41309">
        <ele>117</ele>
        <time>2012-02-26T09:18:33.52</time>
      </trkpt>
      <trkpt lat="48.42915" lon="-4.41301">
        <ele>117</ele>
        <time>2012-02-26T09:18:34.51</time>
      </trkpt>
      <trkpt lat="48.42916" lon="-4.41292">
        <ele>117</ele>
        <time>2012-02-26T09:18:35.52</time>
      </trkpt>
      <trkpt lat="48.42916" lon="-4.41286">
        <ele>117</ele>
        <time>2012-02-26T09:18:36.52</time>
      </trkpt>
      <trkpt lat="48.42917" lon="-4.41279">
        <ele>117</ele>
        <time>2012-02-26T09:18:37.51</time>
      </trkpt>
      <trkpt lat="48.42916" lon="-4.41273">
        <ele>117</ele>
        <time>2012-02-26T09:18:38.52</time>
      </trkpt>
      <trkpt lat="48.42914" lon="-4.41268">
        <ele>117</ele>
        <time>2012-02-26T09:18:39.52</time>
      </trkpt>
      <trkpt lat="48.42912" lon="-4.41266">
        <ele>117</ele>
        <time>2012-02-26T09:18:40.53</time>
      </trkpt>
      <trkpt lat="48.42909" lon="-4.41262">
        <ele>116</ele>
        <time>2012-02-26T09:18:41.52</time>
      </trkpt>
      <trkpt lat="48.42904" lon="-4.4126">
        <ele>116</ele>
        <time>2012-02-26T09:18:42.52</time>
      </trkpt>
      <trkpt lat="48.429" lon="-4.41258">
        <ele>116</ele>
        <time>2012-02-26T09:18:43.53</time>
      </trkpt>
      <trkpt lat="48.42896" lon="-4.41256">
        <ele>115</ele>
        <time>2012-02-26T09:18:44.53</time>
      </trkpt>
      <trkpt lat="48.4289" lon="-4.41253">
        <ele>115</ele>
        <time>2012-02-26T09:18:45.52</time>
      </trkpt>
      <trkpt lat="48.42886" lon="-4.41253">
        <ele>115</ele>
        <time>2012-02-26T09:18:46.53</time>
      </trkpt>
      <trkpt lat="48.42882" lon="-4.41251">
        <ele>115</ele>
        <time>2012-02-26T09:18:47.57</time>
      </trkpt>
      <trkpt lat="48.42878" lon="-4.41249">
        <ele>115</ele>
        <time>2012-02-26T09:18:48.52</time>
      </trkpt>
      <trkpt lat="48.42873" lon="-4.41249">
        <ele>115</ele>
        <time>2012-02-26T09:18:49.53</time>
      </trkpt>
      <trkpt lat="48.42869" lon="-4.41247">
        <ele>114</ele>
        <time>2012-02-26T09:18:50.53</time>
      </trkpt>
      <trkpt lat="48.42865" lon="-4.41247">
        <ele>114</ele>
        <time>2012-02-26T09:18:51.52</time>
      </trkpt>
      <trkpt lat="48.42861" lon="-4.41247">
        <ele>114</ele>
        <time>2012-02-26T09:18:52.52</time>
      </trkpt>
      <trkpt lat="48.42858" lon="-4.41245">
        <ele>114</ele>
        <time>2012-02-26T09:18:53.53</time>
      </trkpt>
      <trkpt lat="48.42856" lon="-4.41245">
        <ele>114</ele>
        <time>2012-02-26T09:18:54.51</time>
      </trkpt>
      <trkpt lat="48.42854" lon="-4.41245">
        <ele>114</ele>
        <time>2012-02-26T09:18:55.52</time>
      </trkpt>
      <trkpt lat="48.42859" lon="-4.41241">
        <ele>114</ele>
        <time>2012-02-26T09:18:58.52</time>
      </trkpt>
      <trkpt lat="48.42862" lon="-4.41241">
        <ele>114</ele>
        <time>2012-02-26T09:18:59.51</time>
      </trkpt>
      <trkpt lat="48.42865" lon="-4.41243">
        <ele>114</ele>
        <time>2012-02-26T09:19:00.52</time>
      </trkpt>
      <trkpt lat="48.42868" lon="-4.41243">
        <ele>114</ele>
        <time>2012-02-26T09:19:01.52</time>
      </trkpt>
      <trkpt lat="48.42869" lon="-4.41243">
        <ele>114</ele>
        <time>2012-02-26T09:19:02.52</time>
      </trkpt>
      <trkpt lat="48.42871" lon="-4.41243">
        <ele>114</ele>
        <time>2012-02-26T09:19:03.52</time>
      </trkpt>
      <trkpt lat="48.42872" lon="-4.41245">
        <ele>114</ele>
        <time>2012-02-26T09:19:04.52</time>
      </trkpt>
      <trkpt lat="48.42875" lon="-4.41245">
        <ele>114</ele>
        <time>2012-02-26T09:19:07.52</time>
      </trkpt>
      <trkpt lat="48.42878" lon="-4.41251">
        <ele>113</ele>
        <time>2012-02-26T09:19:10.52</time>
      </trkpt>
      <trkpt lat="48.42872" lon="-4.41253">
        <ele>113</ele>
        <time>2012-02-26T09:19:11.53</time>
      </trkpt>
      <trkpt lat="48.42868" lon="-4.41251">
        <ele>112</ele>
        <time>2012-02-26T09:19:12.53</time>
      </trkpt>
      <trkpt lat="48.42862" lon="-4.41249">
        <ele>112</ele>
        <time>2012-02-26T09:19:13.52</time>
      </trkpt>
      <trkpt lat="48.42857" lon="-4.41247">
        <ele>111</ele>
        <time>2012-02-26T09:19:14.53</time>
      </trkpt>
      <trkpt lat="48.42852" lon="-4.41247">
        <ele>111</ele>
        <time>2012-02-26T09:19:15.53</time>
      </trkpt>
      <trkpt lat="48.42846" lon="-4.41247">
        <ele>111</ele>
        <time>2012-02-26T09:19:16.52</time>
      </trkpt>
      <trkpt lat="48.42842" lon="-4.41249">
        <ele>110</ele>
        <time>2012-02-26T09:19:17.52</time>
      </trkpt>
      <trkpt lat="48.42838" lon="-4.41251">
        <ele>110</ele>
        <time>2012-02-26T09:19:18.53</time>
      </trkpt>
      <trkpt lat="48.42832" lon="-4.41253">
        <ele>110</ele>
        <time>2012-02-26T09:19:19.52</time>
      </trkpt>
      <trkpt lat="48.42827" lon="-4.41256">
        <ele>111</ele>
        <time>2012-02-26T09:19:20.52</time>
      </trkpt>
      <trkpt lat="48.42823" lon="-4.41258">
        <ele>110</ele>
        <time>2012-02-26T09:19:21.53</time>
      </trkpt>
      <trkpt lat="48.42817" lon="-4.41258">
        <ele>110</ele>
        <time>2012-02-26T09:19:22.52</time>
      </trkpt>
      <trkpt lat="48.42813" lon="-4.41258">
        <ele>110</ele>
        <time>2012-02-26T09:19:23.52</time>
      </trkpt>
      <trkpt lat="48.42809" lon="-4.41256">
        <ele>110</ele>
        <time>2012-02-26T09:19:24.53</time>
      </trkpt>
      <trkpt lat="48.42805" lon="-4.41251">
        <ele>110</ele>
        <time>2012-02-26T09:19:25.51</time>
      </trkpt>
      <trkpt lat="48.42801" lon="-4.41247">
        <ele>110</ele>
        <time>2012-02-26T09:19:26.52</time>
      </trkpt>
      <trkpt lat="48.42799" lon="-4.41243">
        <ele>110</ele>
        <time>2012-02-26T09:19:27.53</time>
      </trkpt>
      <trkpt lat="48.42797" lon="-4.41236">
        <ele>110</ele>
        <time>2012-02-26T09:19:28.54</time>
      </trkpt>
      <trkpt lat="48.42795" lon="-4.41228">
        <ele>110</ele>
        <time>2012-02-26T09:19:29.52</time>
      </trkpt>
      <trkpt lat="48.42793" lon="-4.41221">
        <ele>110</ele>
        <time>2012-02-26T09:19:30.53</time>
      </trkpt>
      <trkpt lat="48.42792" lon="-4.41215">
        <ele>111</ele>
        <time>2012-02-26T09:19:31.53</time>
      </trkpt>
      <trkpt lat="48.4279" lon="-4.41206">
        <ele>111</ele>
        <time>2012-02-26T09:19:32.52</time>
      </trkpt>
      <trkpt lat="48.42786" lon="-4.41198">
        <ele>111</ele>
        <time>2012-02-26T09:19:33.53</time>
      </trkpt>
      <trkpt lat="48.42784" lon="-4.41191">
        <ele>111</ele>
        <time>2012-02-26T09:19:34.53</time>
      </trkpt>
      <trkpt lat="48.42782" lon="-4.41183">
        <ele>111</ele>
        <time>2012-02-26T09:19:35.52</time>
      </trkpt>
      <trkpt lat="48.4278" lon="-4.41174">
        <ele>111</ele>
        <time>2012-02-26T09:19:36.59</time>
      </trkpt>
      <trkpt lat="48.42778" lon="-4.41168">
        <ele>111</ele>
        <time>2012-02-26T09:19:37.53</time>
      </trkpt>
      <trkpt lat="48.42775" lon="-4.41161">
        <ele>111</ele>
        <time>2012-02-26T09:19:38.52</time>
      </trkpt>
      <trkpt lat="48.42771" lon="-4.41155">
        <ele>111</ele>
        <time>2012-02-26T09:19:39.52</time>
      </trkpt>
      <trkpt lat="48.42767" lon="-4.41148">
        <ele>111</ele>
        <time>2012-02-26T09:19:40.53</time>
      </trkpt>
      <trkpt lat="48.42761" lon="-4.41144">
        <ele>112</ele>
        <time>2012-02-26T09:19:41.52</time>
      </trkpt>
      <trkpt lat="48.42754" lon="-4.41142">
        <ele>112</ele>
        <time>2012-02-26T09:19:42.52</time>
      </trkpt>
      <trkpt lat="48.42747" lon="-4.41138">
        <ele>112</ele>
        <time>2012-02-26T09:19:43.56</time>
      </trkpt>
      <trkpt lat="48.42739" lon="-4.41133">
        <ele>112</ele>
        <time>2012-02-26T09:19:44.52</time>
      </trkpt>
      <trkpt lat="48.42731" lon="-4.41129">
        <ele>112</ele>
        <time>2012-02-26T09:19:45.52</time>
      </trkpt>
      <trkpt lat="48.42722" lon="-4.41127">
        <ele>112</ele>
        <time>2012-02-26T09:19:46.53</time>
      </trkpt>
      <trkpt lat="48.42712" lon="-4.41125">
        <ele>112</ele>
        <time>2012-02-26T09:19:47.52</time>
      </trkpt>
      <trkpt lat="48.42704" lon="-4.41123">
        <ele>112</ele>
        <time>2012-02-26T09:19:48.52</time>
      </trkpt>
      <trkpt lat="48.42695" lon="-4.41123">
        <ele>112</ele>
        <time>2012-02-26T09:19:49.52</time>
      </trkpt>
      <trkpt lat="48.42687" lon="-4.41123">
        <ele>111</ele>
        <time>2012-02-26T09:19:50.52</time>
      </trkpt>
      <trkpt lat="48.42679" lon="-4.41123">
        <ele>111</ele>
        <time>2012-02-26T09:19:51.52</time>
      </trkpt>
      <trkpt lat="48.42673" lon="-4.41123">
        <ele>111</ele>
        <time>2012-02-26T09:19:52.53</time>
      </trkpt>
      <trkpt lat="48.42666" lon="-4.41123">
        <ele>111</ele>
        <time>2012-02-26T09:19:53.54</time>
      </trkpt>
      <trkpt lat="48.4266" lon="-4.41125">
        <ele>111</ele>
        <time>2012-02-26T09:19:54.51</time>
      </trkpt>
      <trkpt lat="48.42653" lon="-4.41125">
        <ele>110</ele>
        <time>2012-02-26T09:19:55.52</time>
      </trkpt>
      <trkpt lat="48.42647" lon="-4.41125">
        <ele>110</ele>
        <time>2012-02-26T09:19:56.60</time>
      </trkpt>
      <trkpt lat="48.42643" lon="-4.41123">
        <ele>109</ele>
        <time>2012-02-26T09:19:57.52</time>
      </trkpt>
      <trkpt lat="48.42637" lon="-4.4112">
        <ele>108</ele>
        <time>2012-02-26T09:19:58.52</time>
      </trkpt>
      <trkpt lat="48.42632" lon="-4.41118">
        <ele>107</ele>
        <time>2012-02-26T09:19:59.52</time>
      </trkpt>
      <trkpt lat="48.42628" lon="-4.41116">
        <ele>107</ele>
        <time>2012-02-26T09:20:00.52</time>
      </trkpt>
      <trkpt lat="48.42622" lon="-4.41116">
        <ele>106</ele>
        <time>2012-02-26T09:20:01.52</time>
      </trkpt>
      <trkpt lat="48.42616" lon="-4.41116">
        <ele>105</ele>
        <time>2012-02-26T09:20:02.51</time>
      </trkpt>
      <trkpt lat="48.4261" lon="-4.41116">
        <ele>105</ele>
        <time>2012-02-26T09:20:03.52</time>
      </trkpt>
      <trkpt lat="48.42605" lon="-4.41116">
        <ele>105</ele>
        <time>2012-02-26T09:20:04.52</time>
      </trkpt>
      <trkpt lat="48.426" lon="-4.41116">
        <ele>104</ele>
        <time>2012-02-26T09:20:05.52</time>
      </trkpt>
      <trkpt lat="48.42596" lon="-4.41116">
        <ele>104</ele>
        <time>2012-02-26T09:20:06.52</time>
      </trkpt>
      <trkpt lat="48.42593" lon="-4.41114">
        <ele>104</ele>
        <time>2012-02-26T09:20:07.52</time>
      </trkpt>
      <trkpt lat="48.4259" lon="-4.41114">
        <ele>104</ele>
        <time>2012-02-26T09:20:08.52</time>
      </trkpt>
      <trkpt lat="48.42589" lon="-4.41114">
        <ele>104</ele>
        <time>2012-02-26T09:20:09.52</time>
      </trkpt>
      <trkpt lat="48.42586" lon="-4.41114">
        <ele>104</ele>
        <time>2012-02-26T09:20:12.52</time>
      </trkpt>
      <trkpt lat="48.42585" lon="-4.41114">
        <ele>104</ele>
        <time>2012-02-26T09:20:13.52</time>
      </trkpt>
      <trkpt lat="48.42582" lon="-4.41112">
        <ele>104</ele>
        <time>2012-02-26T09:20:14.52</time>
      </trkpt>
      <trkpt lat="48.42581" lon="-4.41112">
        <ele>104</ele>
        <time>2012-02-26T09:20:15.52</time>
      </trkpt>
      <trkpt lat="48.4258" lon="-4.41112">
        <ele>104</ele>
        <time>2012-02-26T09:20:16.52</time>
      </trkpt>
      <trkpt lat="48.42579" lon="-4.41112">
        <ele>104</ele>
        <time>2012-02-26T09:20:17.52</time>
      </trkpt>
      <trkpt lat="48.42577" lon="-4.4111">
        <ele>104</ele>
        <time>2012-02-26T09:20:18.52</time>
      </trkpt>
      <trkpt lat="48.42575" lon="-4.41108">
        <ele>104</ele>
        <time>2012-02-26T09:20:19.52</time>
      </trkpt>
      <trkpt lat="48.42573" lon="-4.41103">
        <ele>104</ele>
        <time>2012-02-26T09:20:20.52</time>
      </trkpt>
      <trkpt lat="48.42571" lon="-4.41101">
        <ele>104</ele>
        <time>2012-02-26T09:20:21.52</time>
      </trkpt>
      <trkpt lat="48.42567" lon="-4.41097">
        <ele>104</ele>
        <time>2012-02-26T09:20:22.52</time>
      </trkpt>
      <trkpt lat="48.42565" lon="-4.4109">
        <ele>104</ele>
        <time>2012-02-26T09:20:23.52</time>
      </trkpt>
      <trkpt lat="48.42562" lon="-4.41084">
        <ele>104</ele>
        <time>2012-02-26T09:20:24.52</time>
      </trkpt>
      <trkpt lat="48.4256" lon="-4.41075">
        <ele>104</ele>
        <time>2012-02-26T09:20:25.52</time>
      </trkpt>
      <trkpt lat="48.42557" lon="-4.41067">
        <ele>104</ele>
        <time>2012-02-26T09:20:26.52</time>
      </trkpt>
      <trkpt lat="48.42555" lon="-4.4106">
        <ele>104</ele>
        <time>2012-02-26T09:20:27.52</time>
      </trkpt>
      <trkpt lat="48.42552" lon="-4.41054">
        <ele>104</ele>
        <time>2012-02-26T09:20:28.52</time>
      </trkpt>
      <trkpt lat="48.4255" lon="-4.41047">
        <ele>103</ele>
        <time>2012-02-26T09:20:29.52</time>
      </trkpt>
      <trkpt lat="48.42548" lon="-4.41041">
        <ele>103</ele>
        <time>2012-02-26T09:20:30.52</time>
      </trkpt>
      <trkpt lat="48.42546" lon="-4.41032">
        <ele>102</ele>
        <time>2012-02-26T09:20:31.52</time>
      </trkpt>
      <trkpt lat="48.42545" lon="-4.41026">
        <ele>102</ele>
        <time>2012-02-26T09:20:32.52</time>
      </trkpt>
      <trkpt lat="48.42543" lon="-4.41017">
        <ele>102</ele>
        <time>2012-02-26T09:20:33.52</time>
      </trkpt>
      <trkpt lat="48.42542" lon="-4.41011">
        <ele>101</ele>
        <time>2012-02-26T09:20:34.52</time>
      </trkpt>
      <trkpt lat="48.42541" lon="-4.41005">
        <ele>100</ele>
        <time>2012-02-26T09:20:35.52</time>
      </trkpt>
      <trkpt lat="48.4254" lon="-4.40998">
        <ele>100</ele>
        <time>2012-02-26T09:20:36.52</time>
      </trkpt>
      <trkpt lat="48.42538" lon="-4.40992">
        <ele>99</ele>
        <time>2012-02-26T09:20:37.52</time>
      </trkpt>
      <trkpt lat="48.42538" lon="-4.40985">
        <ele>99</ele>
        <time>2012-02-26T09:20:38.52</time>
      </trkpt>
      <trkpt lat="48.42537" lon="-4.40977">
        <ele>98</ele>
        <time>2012-02-26T09:20:39.52</time>
      </trkpt>
      <trkpt lat="48.42536" lon="-4.4097">
        <ele>98</ele>
        <time>2012-02-26T09:20:40.52</time>
      </trkpt>
      <trkpt lat="48.42535" lon="-4.40964">
        <ele>97</ele>
        <time>2012-02-26T09:20:41.52</time>
      </trkpt>
      <trkpt lat="48.42534" lon="-4.40957">
        <ele>97</ele>
        <time>2012-02-26T09:20:42.52</time>
      </trkpt>
      <trkpt lat="48.42533" lon="-4.40951">
        <ele>96</ele>
        <time>2012-02-26T09:20:43.52</time>
      </trkpt>
      <trkpt lat="48.42533" lon="-4.40944">
        <ele>96</ele>
        <time>2012-02-26T09:20:44.52</time>
      </trkpt>
      <trkpt lat="48.42532" lon="-4.40938">
        <ele>96</ele>
        <time>2012-02-26T09:20:45.52</time>
      </trkpt>
      <trkpt lat="48.42532" lon="-4.40932">
        <ele>96</ele>
        <time>2012-02-26T09:20:46.52</time>
      </trkpt>
      <trkpt lat="48.42532" lon="-4.40925">
        <ele>96</ele>
        <time>2012-02-26T09:20:47.52</time>
      </trkpt>
      <trkpt lat="48.42531" lon="-4.40919">
        <ele>96</ele>
        <time>2012-02-26T09:20:48.52</time>
      </trkpt>
      <trkpt lat="48.42531" lon="-4.4091">
        <ele>96</ele>
        <time>2012-02-26T09:20:49.52</time>
      </trkpt>
      <trkpt lat="48.42531" lon="-4.40899">
        <ele>97</ele>
        <time>2012-02-26T09:20:50.52</time>
      </trkpt>
      <trkpt lat="48.42531" lon="-4.40891">
        <ele>97</ele>
        <time>2012-02-26T09:20:51.52</time>
      </trkpt>
      <trkpt lat="48.42531" lon="-4.40884">
        <ele>96</ele>
        <time>2012-02-26T09:20:52.65</time>
      </trkpt>
      <trkpt lat="48.42532" lon="-4.40876">
        <ele>96</ele>
        <time>2012-02-26T09:20:53.52</time>
      </trkpt>
      <trkpt lat="48.42532" lon="-4.40869">
        <ele>96</ele>
        <time>2012-02-26T09:20:54.51</time>
      </trkpt>
      <trkpt lat="48.42532" lon="-4.40863">
        <ele>95</ele>
        <time>2012-02-26T09:20:55.52</time>
      </trkpt>
      <trkpt lat="48.42532" lon="-4.40856">
        <ele>95</ele>
        <time>2012-02-26T09:20:56.52</time>
      </trkpt>
      <trkpt lat="48.42531" lon="-4.4085">
        <ele>95</ele>
        <time>2012-02-26T09:20:57.52</time>
      </trkpt>
      <trkpt lat="48.42531" lon="-4.40844">
        <ele>94</ele>
        <time>2012-02-26T09:20:58.52</time>
      </trkpt>
      <trkpt lat="48.4253" lon="-4.40837">
        <ele>94</ele>
        <time>2012-02-26T09:20:59.52</time>
      </trkpt>
      <trkpt lat="48.4253" lon="-4.40831">
        <ele>94</ele>
        <time>2012-02-26T09:21:00.52</time>
      </trkpt>
      <trkpt lat="48.42529" lon="-4.40824">
        <ele>94</ele>
        <time>2012-02-26T09:21:01.52</time>
      </trkpt>
      <trkpt lat="48.42528" lon="-4.40818">
        <ele>94</ele>
        <time>2012-02-26T09:21:02.52</time>
      </trkpt>
      <trkpt lat="48.42528" lon="-4.40814">
        <ele>94</ele>
        <time>2012-02-26T09:21:03.53</time>
      </trkpt>
      <trkpt lat="48.42527" lon="-4.40807">
        <ele>94</ele>
        <time>2012-02-26T09:21:04.52</time>
      </trkpt>
      <trkpt lat="48.42527" lon="-4.40801">
        <ele>95</ele>
        <time>2012-02-26T09:21:05.52</time>
      </trkpt>
      <trkpt lat="48.42526" lon="-4.40792">
        <ele>95</ele>
        <time>2012-02-26T09:21:06.52</time>
      </trkpt>
      <trkpt lat="48.42526" lon="-4.40788">
        <ele>95</ele>
        <time>2012-02-26T09:21:07.52</time>
      </trkpt>
      <trkpt lat="48.42525" lon="-4.40781">
        <ele>96</ele>
        <time>2012-02-26T09:21:08.52</time>
      </trkpt>
      <trkpt lat="48.42525" lon="-4.40775">
        <ele>96</ele>
        <time>2012-02-26T09:21:09.52</time>
      </trkpt>
      <trkpt lat="48.42525" lon="-4.40768">
        <ele>96</ele>
        <time>2012-02-26T09:21:10.52</time>
      </trkpt>
      <trkpt lat="48.42525" lon="-4.40762">
        <ele>97</ele>
        <time>2012-02-26T09:21:11.52</time>
      </trkpt>
      <trkpt lat="48.42525" lon="-4.40756">
        <ele>97</ele>
        <time>2012-02-26T09:21:12.52</time>
      </trkpt>
      <trkpt lat="48.42526" lon="-4.40747">
        <ele>97</ele>
        <time>2012-02-26T09:21:13.52</time>
      </trkpt>
      <trkpt lat="48.42525" lon="-4.40741">
        <ele>98</ele>
        <time>2012-02-26T09:21:14.52</time>
      </trkpt>
      <trkpt lat="48.42525" lon="-4.40734">
        <ele>98</ele>
        <time>2012-02-26T09:21:15.52</time>
      </trkpt>
      <trkpt lat="48.42525" lon="-4.40728">
        <ele>98</ele>
        <time>2012-02-26T09:21:16.52</time>
      </trkpt>
      <trkpt lat="48.42523" lon="-4.40721">
        <ele>99</ele>
        <time>2012-02-26T09:21:17.52</time>
      </trkpt>
      <trkpt lat="48.42523" lon="-4.40715">
        <ele>98</ele>
        <time>2012-02-26T09:21:18.52</time>
      </trkpt>
      <trkpt lat="48.42521" lon="-4.40708">
        <ele>97</ele>
        <time>2012-02-26T09:21:19.52</time>
      </trkpt>
      <trkpt lat="48.42519" lon="-4.40702">
        <ele>96</ele>
        <time>2012-02-26T09:21:20.52</time>
      </trkpt>
      <trkpt lat="48.42517" lon="-4.40696">
        <ele>96</ele>
        <time>2012-02-26T09:21:21.52</time>
      </trkpt>
      <trkpt lat="48.42515" lon="-4.40691">
        <ele>96</ele>
        <time>2012-02-26T09:21:22.52</time>
      </trkpt>
      <trkpt lat="48.42507" lon="-4.40678">
        <ele>95</ele>
        <time>2012-02-26T09:21:27.52</time>
      </trkpt>
      <trkpt lat="48.42501" lon="-4.40668">
        <ele>95</ele>
        <time>2012-02-26T09:21:32.52</time>
      </trkpt>
      <trkpt lat="48.42493" lon="-4.40661">
        <ele>95</ele>
        <time>2012-02-26T09:21:36.52</time>
      </trkpt>
      <trkpt lat="48.42482" lon="-4.40663">
        <ele>95</ele>
        <time>2012-02-26T09:21:40.52</time>
      </trkpt>
      <trkpt lat="48.42476" lon="-4.4067">
        <ele>95</ele>
        <time>2012-02-26T09:21:42.52</time>
      </trkpt>
      <trkpt lat="48.42475" lon="-4.40672">
        <ele>95</ele>
        <time>2012-02-26T09:21:43.52</time>
      </trkpt>
      <trkpt lat="48.42472" lon="-4.40674">
        <ele>95</ele>
        <time>2012-02-26T09:21:44.52</time>
      </trkpt>
      <trkpt lat="48.4247" lon="-4.40676">
        <ele>95</ele>
        <time>2012-02-26T09:21:45.53</time>
      </trkpt>
      <trkpt lat="48.42467" lon="-4.40676">
        <ele>95</ele>
        <time>2012-02-26T09:21:46.52</time>
      </trkpt>
      <trkpt lat="48.42463" lon="-4.40676">
        <ele>95</ele>
        <time>2012-02-26T09:21:47.52</time>
      </trkpt>
      <trkpt lat="48.4246" lon="-4.40676">
        <ele>95</ele>
        <time>2012-02-26T09:21:48.52</time>
      </trkpt>
      <trkpt lat="48.42457" lon="-4.40676">
        <ele>95</ele>
        <time>2012-02-26T09:21:49.52</time>
      </trkpt>
      <trkpt lat="48.42454" lon="-4.40676">
        <ele>95</ele>
        <time>2012-02-26T09:21:50.52</time>
      </trkpt>
      <trkpt lat="48.42449" lon="-4.40674">
        <ele>95</ele>
        <time>2012-02-26T09:21:51.52</time>
      </trkpt>
      <trkpt lat="48.42446" lon="-4.40672">
        <ele>95</ele>
        <time>2012-02-26T09:21:52.52</time>
      </trkpt>
      <trkpt lat="48.42443" lon="-4.4067">
        <ele>95</ele>
        <time>2012-02-26T09:21:53.52</time>
      </trkpt>
      <trkpt lat="48.4244" lon="-4.40665">
        <ele>95</ele>
        <time>2012-02-26T09:21:54.60</time>
      </trkpt>
      <trkpt lat="48.42439" lon="-4.40659">
        <ele>95</ele>
        <time>2012-02-26T09:21:55.50</time>
      </trkpt>
      <trkpt lat="48.42438" lon="-4.4065">
        <ele>96</ele>
        <time>2012-02-26T09:21:56.52</time>
      </trkpt>
      <trkpt lat="48.42438" lon="-4.40644">
        <ele>97</ele>
        <time>2012-02-26T09:21:57.52</time>
      </trkpt>
      <trkpt lat="48.42437" lon="-4.40635">
        <ele>97</ele>
        <time>2012-02-26T09:21:58.52</time>
      </trkpt>
      <trkpt lat="48.42437" lon="-4.40627">
        <ele>98</ele>
        <time>2012-02-26T09:21:59.52</time>
      </trkpt>
      <trkpt lat="48.42437" lon="-4.40616">
        <ele>99</ele>
        <time>2012-02-26T09:22:00.52</time>
      </trkpt>
      <trkpt lat="48.42437" lon="-4.40605">
        <ele>99</ele>
        <time>2012-02-26T09:22:01.52</time>
      </trkpt>
      <trkpt lat="48.42437" lon="-4.40595">
        <ele>99</ele>
        <time>2012-02-26T09:22:02.52</time>
      </trkpt>
      <trkpt lat="48.42437" lon="-4.40582">
        <ele>99</ele>
        <time>2012-02-26T09:22:03.52</time>
      </trkpt>
      <trkpt lat="48.42438" lon="-4.40571">
        <ele>99</ele>
        <time>2012-02-26T09:22:04.52</time>
      </trkpt>
      <trkpt lat="48.42438" lon="-4.40558">
        <ele>99</ele>
        <time>2012-02-26T09:22:05.52</time>
      </trkpt>
      <trkpt lat="48.42438" lon="-4.40545">
        <ele>98</ele>
        <time>2012-02-26T09:22:06.52</time>
      </trkpt>
      <trkpt lat="48.42438" lon="-4.40535">
        <ele>98</ele>
        <time>2012-02-26T09:22:07.52</time>
      </trkpt>
      <trkpt lat="48.42438" lon="-4.40524">
        <ele>98</ele>
        <time>2012-02-26T09:22:08.52</time>
      </trkpt>
      <trkpt lat="48.42438" lon="-4.40515">
        <ele>97</ele>
        <time>2012-02-26T09:22:09.52</time>
      </trkpt>
      <trkpt lat="48.42438" lon="-4.40507">
        <ele>97</ele>
        <time>2012-02-26T09:22:10.52</time>
      </trkpt>
      <trkpt lat="48.42437" lon="-4.40498">
        <ele>97</ele>
        <time>2012-02-26T09:22:11.52</time>
      </trkpt>
      <trkpt lat="48.42434" lon="-4.4049">
        <ele>97</ele>
        <time>2012-02-26T09:22:12.52</time>
      </trkpt>
      <trkpt lat="48.42431" lon="-4.40485">
        <ele>97</ele>
        <time>2012-02-26T09:22:13.52</time>
      </trkpt>
      <trkpt lat="48.42428" lon="-4.40479">
        <ele>97</ele>
        <time>2012-02-26T09:22:14.52</time>
      </trkpt>
      <trkpt lat="48.42427" lon="-4.40472">
        <ele>97</ele>
        <time>2012-02-26T09:22:15.52</time>
      </trkpt>
      <trkpt lat="48.42426" lon="-4.40464">
        <ele>97</ele>
        <time>2012-02-26T09:22:16.52</time>
      </trkpt>
      <trkpt lat="48.42425" lon="-4.40457">
        <ele>97</ele>
        <time>2012-02-26T09:22:17.52</time>
      </trkpt>
      <trkpt lat="48.42424" lon="-4.40451">
        <ele>97</ele>
        <time>2012-02-26T09:22:18.52</time>
      </trkpt>
      <trkpt lat="48.42424" lon="-4.40447">
        <ele>97</ele>
        <time>2012-02-26T09:22:19.52</time>
      </trkpt>
      <trkpt lat="48.42423" lon="-4.40444">
        <ele>97</ele>
        <time>2012-02-26T09:22:20.53</time>
      </trkpt>
      <trkpt lat="48.42416" lon="-4.40447">
        <ele>97</ele>
        <time>2012-02-26T09:22:27.52</time>
      </trkpt>
      <trkpt lat="48.42416" lon="-4.40449">
        <ele>97</ele>
        <time>2012-02-26T09:22:28.52</time>
      </trkpt>
      <trkpt lat="48.42415" lon="-4.40453">
        <ele>97</ele>
        <time>2012-02-26T09:22:29.52</time>
      </trkpt>
      <trkpt lat="48.42413" lon="-4.40455">
        <ele>97</ele>
        <time>2012-02-26T09:22:30.52</time>
      </trkpt>
      <trkpt lat="48.42411" lon="-4.40457">
        <ele>97</ele>
        <time>2012-02-26T09:22:31.52</time>
      </trkpt>
      <trkpt lat="48.42408" lon="-4.40459">
        <ele>97</ele>
        <time>2012-02-26T09:22:32.52</time>
      </trkpt>
      <trkpt lat="48.42404" lon="-4.40462">
        <ele>97</ele>
        <time>2012-02-26T09:22:33.52</time>
      </trkpt>
      <trkpt lat="48.42401" lon="-4.40462">
        <ele>97</ele>
        <time>2012-02-26T09:22:34.52</time>
      </trkpt>
      <trkpt lat="48.42398" lon="-4.40459">
        <ele>97</ele>
        <time>2012-02-26T09:22:35.52</time>
      </trkpt>
      <trkpt lat="48.42395" lon="-4.40459">
        <ele>97</ele>
        <time>2012-02-26T09:22:36.52</time>
      </trkpt>
      <trkpt lat="48.42391" lon="-4.40457">
        <ele>97</ele>
        <time>2012-02-26T09:22:37.52</time>
      </trkpt>
      <trkpt lat="48.42388" lon="-4.40457">
        <ele>97</ele>
        <time>2012-02-26T09:22:38.52</time>
      </trkpt>
      <trkpt lat="48.42385" lon="-4.40455">
        <ele>97</ele>
        <time>2012-02-26T09:22:39.52</time>
      </trkpt>
      <trkpt lat="48.42382" lon="-4.40455">
        <ele>97</ele>
        <time>2012-02-26T09:22:40.53</time>
      </trkpt>
      <trkpt lat="48.4238" lon="-4.40455">
        <ele>97</ele>
        <time>2012-02-26T09:22:41.52</time>
      </trkpt>
      <trkpt lat="48.42376" lon="-4.40453">
        <ele>97</ele>
        <time>2012-02-26T09:22:42.52</time>
      </trkpt>
      <trkpt lat="48.42374" lon="-4.40453">
        <ele>97</ele>
        <time>2012-02-26T09:22:43.52</time>
      </trkpt>
      <trkpt lat="48.42371" lon="-4.40453">
        <ele>97</ele>
        <time>2012-02-26T09:22:44.52</time>
      </trkpt>
      <trkpt lat="48.42369" lon="-4.40453">
        <ele>97</ele>
        <time>2012-02-26T09:22:45.52</time>
      </trkpt>
      <trkpt lat="48.42366" lon="-4.40453">
        <ele>97</ele>
        <time>2012-02-26T09:22:46.52</time>
      </trkpt>
      <trkpt lat="48.42364" lon="-4.40453">
        <ele>98</ele>
        <time>2012-02-26T09:22:47.52</time>
      </trkpt>
      <trkpt lat="48.42361" lon="-4.40453">
        <ele>98</ele>
        <time>2012-02-26T09:22:48.52</time>
      </trkpt>
      <trkpt lat="48.42358" lon="-4.40453">
        <ele>98</ele>
        <time>2012-02-26T09:22:49.52</time>
      </trkpt>
      <trkpt lat="48.42356" lon="-4.40453">
        <ele>98</ele>
        <time>2012-02-26T09:22:50.52</time>
      </trkpt>
      <trkpt lat="48.42353" lon="-4.40453">
        <ele>98</ele>
        <time>2012-02-26T09:22:51.52</time>
      </trkpt>
      <trkpt lat="48.4235" lon="-4.40453">
        <ele>98</ele>
        <time>2012-02-26T09:22:52.52</time>
      </trkpt>
      <trkpt lat="48.42348" lon="-4.40453">
        <ele>98</ele>
        <time>2012-02-26T09:22:53.52</time>
      </trkpt>
      <trkpt lat="48.42344" lon="-4.40453">
        <ele>98</ele>
        <time>2012-02-26T09:22:54.52</time>
      </trkpt>
      <trkpt lat="48.42342" lon="-4.40455">
        <ele>98</ele>
        <time>2012-02-26T09:22:55.52</time>
      </trkpt>
      <trkpt lat="48.42339" lon="-4.40453">
        <ele>98</ele>
        <time>2012-02-26T09:22:56.52</time>
      </trkpt>
      <trkpt lat="48.42336" lon="-4.40453">
        <ele>99</ele>
        <time>2012-02-26T09:22:57.52</time>
      </trkpt>
      <trkpt lat="48.42332" lon="-4.40453">
        <ele>99</ele>
        <time>2012-02-26T09:22:58.52</time>
      </trkpt>
      <trkpt lat="48.42328" lon="-4.40453">
        <ele>99</ele>
        <time>2012-02-26T09:22:59.52</time>
      </trkpt>
      <trkpt lat="48.42325" lon="-4.40453">
        <ele>99</ele>
        <time>2012-02-26T09:23:00.52</time>
      </trkpt>
      <trkpt lat="48.42321" lon="-4.40453">
        <ele>99</ele>
        <time>2012-02-26T09:23:01.52</time>
      </trkpt>
      <trkpt lat="48.42317" lon="-4.40453">
        <ele>99</ele>
        <time>2012-02-26T09:23:02.52</time>
      </trkpt>
      <trkpt lat="48.42313" lon="-4.40453">
        <ele>99</ele>
        <time>2012-02-26T09:23:03.52</time>
      </trkpt>
      <trkpt lat="48.4231" lon="-4.40455">
        <ele>99</ele>
        <time>2012-02-26T09:23:04.52</time>
      </trkpt>
      <trkpt lat="48.42307" lon="-4.40455">
        <ele>100</ele>
        <time>2012-02-26T09:23:05.53</time>
      </trkpt>
      <trkpt lat="48.42302" lon="-4.40455">
        <ele>100</ele>
        <time>2012-02-26T09:23:06.52</time>
      </trkpt>
      <trkpt lat="48.42299" lon="-4.40457">
        <ele>100</ele>
        <time>2012-02-26T09:23:07.52</time>
      </trkpt>
      <trkpt lat="48.42295" lon="-4.40459">
        <ele>100</ele>
        <time>2012-02-26T09:23:08.52</time>
      </trkpt>
      <trkpt lat="48.42292" lon="-4.40462">
        <ele>100</ele>
        <time>2012-02-26T09:23:09.52</time>
      </trkpt>
      <trkpt lat="48.42287" lon="-4.40466">
        <ele>99</ele>
        <time>2012-02-26T09:23:10.52</time>
      </trkpt>
      <trkpt lat="48.42285" lon="-4.4047">
        <ele>99</ele>
        <time>2012-02-26T09:23:11.52</time>
      </trkpt>
      <trkpt lat="48.42283" lon="-4.40472">
        <ele>99</ele>
        <time>2012-02-26T09:23:12.52</time>
      </trkpt>
      <trkpt lat="48.42281" lon="-4.40479">
        <ele>99</ele>
        <time>2012-02-26T09:23:14.52</time>
      </trkpt>
      <trkpt lat="48.4228" lon="-4.40481">
        <ele>99</ele>
        <time>2012-02-26T09:23:15.52</time>
      </trkpt>
      <trkpt lat="48.42279" lon="-4.40483">
        <ele>99</ele>
        <time>2012-02-26T09:23:16.52</time>
      </trkpt>
      <trkpt lat="48.42278" lon="-4.40485">
        <ele>99</ele>
        <time>2012-02-26T09:23:17.52</time>
      </trkpt>
      <trkpt lat="48.42277" lon="-4.4049">
        <ele>98</ele>
        <time>2012-02-26T09:23:18.52</time>
      </trkpt>
      <trkpt lat="48.42277" lon="-4.40492">
        <ele>98</ele>
        <time>2012-02-26T09:23:19.52</time>
      </trkpt>
      <trkpt lat="48.42276" lon="-4.40496">
        <ele>98</ele>
        <time>2012-02-26T09:23:21.52</time>
      </trkpt>
      <trkpt lat="48.42276" lon="-4.40498">
        <ele>98</ele>
        <time>2012-02-26T09:23:22.52</time>
      </trkpt>
      <trkpt lat="48.42276" lon="-4.405">
        <ele>98</ele>
        <time>2012-02-26T09:23:24.53</time>
      </trkpt>
      <trkpt lat="48.42277" lon="-4.40505">
        <ele>98</ele>
        <time>2012-02-26T09:23:26.52</time>
      </trkpt>
      <trkpt lat="48.42278" lon="-4.40511">
        <ele>98</ele>
        <time>2012-02-26T09:23:28.52</time>
      </trkpt>
      <trkpt lat="48.42278" lon="-4.40513">
        <ele>98</ele>
        <time>2012-02-26T09:23:29.53</time>
      </trkpt>
      <trkpt lat="48.42278" lon="-4.40517">
        <ele>98</ele>
        <time>2012-02-26T09:23:30.53</time>
      </trkpt>
      <trkpt lat="48.42278" lon="-4.4052">
        <ele>98</ele>
        <time>2012-02-26T09:23:31.52</time>
      </trkpt>
      <trkpt lat="48.42278" lon="-4.40524">
        <ele>98</ele>
        <time>2012-02-26T09:23:32.52</time>
      </trkpt>
      <trkpt lat="48.42278" lon="-4.40526">
        <ele>98</ele>
        <time>2012-02-26T09:23:33.52</time>
      </trkpt>
      <trkpt lat="48.42277" lon="-4.4053">
        <ele>98</ele>
        <time>2012-02-26T09:23:34.53</time>
      </trkpt>
      <trkpt lat="48.42277" lon="-4.40535">
        <ele>98</ele>
        <time>2012-02-26T09:23:35.52</time>
      </trkpt>
      <trkpt lat="48.42276" lon="-4.40537">
        <ele>98</ele>
        <time>2012-02-26T09:23:36.52</time>
      </trkpt>
      <trkpt lat="48.42276" lon="-4.40541">
        <ele>98</ele>
        <time>2012-02-26T09:23:37.52</time>
      </trkpt>
      <trkpt lat="48.42275" lon="-4.40545">
        <ele>98</ele>
        <time>2012-02-26T09:23:38.52</time>
      </trkpt>
      <trkpt lat="48.42273" lon="-4.4055">
        <ele>98</ele>
        <time>2012-02-26T09:23:39.52</time>
      </trkpt>
      <trkpt lat="48.42273" lon="-4.40552">
        <ele>98</ele>
        <time>2012-02-26T09:23:40.52</time>
      </trkpt>
      <trkpt lat="48.42273" lon="-4.40556">
        <ele>98</ele>
        <time>2012-02-26T09:23:41.52</time>
      </trkpt>
      <trkpt lat="48.42272" lon="-4.4056">
        <ele>98</ele>
        <time>2012-02-26T09:23:42.52</time>
      </trkpt>
      <trkpt lat="48.42272" lon="-4.40565">
        <ele>98</ele>
        <time>2012-02-26T09:23:43.52</time>
      </trkpt>
      <trkpt lat="48.42272" lon="-4.40569">
        <ele>99</ele>
        <time>2012-02-26T09:23:44.52</time>
      </trkpt>
      <trkpt lat="48.42272" lon="-4.40573">
        <ele>99</ele>
        <time>2012-02-26T09:23:45.52</time>
      </trkpt>
      <trkpt lat="48.42271" lon="-4.40578">
        <ele>99</ele>
        <time>2012-02-26T09:23:46.52</time>
      </trkpt>
      <trkpt lat="48.42271" lon="-4.40582">
        <ele>99</ele>
        <time>2012-02-26T09:23:47.52</time>
      </trkpt>
      <trkpt lat="48.42271" lon="-4.40588">
        <ele>99</ele>
        <time>2012-02-26T09:23:48.52</time>
      </trkpt>
      <trkpt lat="48.42271" lon="-4.40593">
        <ele>99</ele>
        <time>2012-02-26T09:23:49.52</time>
      </trkpt>
      <trkpt lat="48.42271" lon="-4.40597">
        <ele>99</ele>
        <time>2012-02-26T09:23:50.52</time>
      </trkpt>
      <trkpt lat="48.4227" lon="-4.40603">
        <ele>99</ele>
        <time>2012-02-26T09:23:51.52</time>
      </trkpt>
      <trkpt lat="48.42269" lon="-4.40608">
        <ele>99</ele>
        <time>2012-02-26T09:23:52.53</time>
      </trkpt>
      <trkpt lat="48.42268" lon="-4.40612">
        <ele>100</ele>
        <time>2012-02-26T09:23:53.52</time>
      </trkpt>
      <trkpt lat="48.42267" lon="-4.40616">
        <ele>100</ele>
        <time>2012-02-26T09:23:54.52</time>
      </trkpt>
      <trkpt lat="48.42265" lon="-4.40623">
        <ele>100</ele>
        <time>2012-02-26T09:23:55.52</time>
      </trkpt>
      <trkpt lat="48.42264" lon="-4.40627">
        <ele>100</ele>
        <time>2012-02-26T09:23:56.52</time>
      </trkpt>
      <trkpt lat="48.42262" lon="-4.40633">
        <ele>100</ele>
        <time>2012-02-26T09:23:57.52</time>
      </trkpt>
      <trkpt lat="48.42261" lon="-4.40638">
        <ele>100</ele>
        <time>2012-02-26T09:23:58.52</time>
      </trkpt>
      <trkpt lat="48.4226" lon="-4.40644">
        <ele>100</ele>
        <time>2012-02-26T09:23:59.53</time>
      </trkpt>
      <trkpt lat="48.42256" lon="-4.40648">
        <ele>100</ele>
        <time>2012-02-26T09:24:00.54</time>
      </trkpt>
      <trkpt lat="48.42254" lon="-4.4065">
        <ele>100</ele>
        <time>2012-02-26T09:24:01.59</time>
      </trkpt>
      <trkpt lat="48.42251" lon="-4.40655">
        <ele>100</ele>
        <time>2012-02-26T09:24:02.53</time>
      </trkpt>
      <trkpt lat="48.42248" lon="-4.40657">
        <ele>100</ele>
        <time>2012-02-26T09:24:03.54</time>
      </trkpt>
      <trkpt lat="48.42243" lon="-4.40661">
        <ele>100</ele>
        <time>2012-02-26T09:24:05.52</time>
      </trkpt>
      <trkpt lat="48.42238" lon="-4.40668">
        <ele>101</ele>
        <time>2012-02-26T09:24:08.53</time>
      </trkpt>
      <trkpt lat="48.42236" lon="-4.40668">
        <ele>101</ele>
        <time>2012-02-26T09:24:09.61</time>
      </trkpt>
      <trkpt lat="48.42234" lon="-4.4067">
        <ele>102</ele>
        <time>2012-02-26T09:24:10.52</time>
      </trkpt>
      <trkpt lat="48.42232" lon="-4.40672">
        <ele>102</ele>
        <time>2012-02-26T09:24:11.52</time>
      </trkpt>
      <trkpt lat="48.42229" lon="-4.40674">
        <ele>102</ele>
        <time>2012-02-26T09:24:12.52</time>
      </trkpt>
      <trkpt lat="48.42226" lon="-4.40676">
        <ele>102</ele>
        <time>2012-02-26T09:24:13.52</time>
      </trkpt>
      <trkpt lat="48.42224" lon="-4.40678">
        <ele>102</ele>
        <time>2012-02-26T09:24:14.52</time>
      </trkpt>
      <trkpt lat="48.42221" lon="-4.40681">
        <ele>102</ele>
        <time>2012-02-26T09:24:15.52</time>
      </trkpt>
      <trkpt lat="48.42218" lon="-4.40683">
        <ele>103</ele>
        <time>2012-02-26T09:24:16.53</time>
      </trkpt>
      <trkpt lat="48.42214" lon="-4.40685">
        <ele>103</ele>
        <time>2012-02-26T09:24:17.52</time>
      </trkpt>
      <trkpt lat="48.42211" lon="-4.40687">
        <ele>103</ele>
        <time>2012-02-26T09:24:18.52</time>
      </trkpt>
      <trkpt lat="48.42208" lon="-4.40689">
        <ele>103</ele>
        <time>2012-02-26T09:24:19.52</time>
      </trkpt>
      <trkpt lat="48.42205" lon="-4.40691">
        <ele>103</ele>
        <time>2012-02-26T09:24:20.53</time>
      </trkpt>
      <trkpt lat="48.42202" lon="-4.40693">
        <ele>103</ele>
        <time>2012-02-26T09:24:21.52</time>
      </trkpt>
      <trkpt lat="48.42198" lon="-4.40693">
        <ele>103</ele>
        <time>2012-02-26T09:24:22.52</time>
      </trkpt>
      <trkpt lat="48.42195" lon="-4.40696">
        <ele>103</ele>
        <time>2012-02-26T09:24:23.52</time>
      </trkpt>
      <trkpt lat="48.42192" lon="-4.40696">
        <ele>104</ele>
        <time>2012-02-26T09:24:24.52</time>
      </trkpt>
      <trkpt lat="48.4219" lon="-4.40698">
        <ele>104</ele>
        <time>2012-02-26T09:24:25.52</time>
      </trkpt>
      <trkpt lat="48.42187" lon="-4.40698">
        <ele>104</ele>
        <time>2012-02-26T09:24:26.52</time>
      </trkpt>
      <trkpt lat="48.42183" lon="-4.407">
        <ele>104</ele>
        <time>2012-02-26T09:24:27.52</time>
      </trkpt>
      <trkpt lat="48.4218" lon="-4.40702">
        <ele>104</ele>
        <time>2012-02-26T09:24:28.52</time>
      </trkpt>
      <trkpt lat="48.42178" lon="-4.40702">
        <ele>104</ele>
        <time>2012-02-26T09:24:29.52</time>
      </trkpt>
      <trkpt lat="48.42177" lon="-4.40702">
        <ele>104</ele>
        <time>2012-02-26T09:24:30.52</time>
      </trkpt>
      <trkpt lat="48.42176" lon="-4.40702">
        <ele>104</ele>
        <time>2012-02-26T09:24:31.52</time>
      </trkpt>
      <trkpt lat="48.42177" lon="-4.40687">
        <ele>104</ele>
        <time>2012-02-26T09:24:38.53</time>
      </trkpt>
      <trkpt lat="48.42178" lon="-4.40683">
        <ele>104</ele>
        <time>2012-02-26T09:24:39.55</time>
      </trkpt>
      <trkpt lat="48.42178" lon="-4.40681">
        <ele>104</ele>
        <time>2012-02-26T09:24:40.55</time>
      </trkpt>
      <trkpt lat="48.42179" lon="-4.40676">
        <ele>104</ele>
        <time>2012-02-26T09:24:41.55</time>
      </trkpt>
      <trkpt lat="48.42179" lon="-4.40672">
        <ele>104</ele>
        <time>2012-02-26T09:24:42.56</time>
      </trkpt>
      <trkpt lat="48.4218" lon="-4.40668">
        <ele>104</ele>
        <time>2012-02-26T09:24:43.54</time>
      </trkpt>
      <trkpt lat="48.4218" lon="-4.40663">
        <ele>104</ele>
        <time>2012-02-26T09:24:44.55</time>
      </trkpt>
      <trkpt lat="48.4218" lon="-4.40659">
        <ele>104</ele>
        <time>2012-02-26T09:24:45.55</time>
      </trkpt>
      <trkpt lat="48.42181" lon="-4.40655">
        <ele>104</ele>
        <time>2012-02-26T09:24:46.55</time>
      </trkpt>
      <trkpt lat="48.42181" lon="-4.4065">
        <ele>104</ele>
        <time>2012-02-26T09:24:47.55</time>
      </trkpt>
      <trkpt lat="48.42181" lon="-4.40646">
        <ele>105</ele>
        <time>2012-02-26T09:24:48.53</time>
      </trkpt>
      <trkpt lat="48.42182" lon="-4.40642">
        <ele>105</ele>
        <time>2012-02-26T09:24:49.55</time>
      </trkpt>
      <trkpt lat="48.42182" lon="-4.40638">
        <ele>105</ele>
        <time>2012-02-26T09:24:50.55</time>
      </trkpt>
      <trkpt lat="48.42182" lon="-4.40631">
        <ele>105</ele>
        <time>2012-02-26T09:24:51.55</time>
      </trkpt>
      <trkpt lat="48.42182" lon="-4.40627">
        <ele>105</ele>
        <time>2012-02-26T09:24:52.55</time>
      </trkpt>
      <trkpt lat="48.42183" lon="-4.40623">
        <ele>105</ele>
        <time>2012-02-26T09:24:53.55</time>
      </trkpt>
      <trkpt lat="48.42183" lon="-4.40616">
        <ele>105</ele>
        <time>2012-02-26T09:24:54.55</time>
      </trkpt>
      <trkpt lat="48.42183" lon="-4.40612">
        <ele>105</ele>
        <time>2012-02-26T09:24:55.55</time>
      </trkpt>
      <trkpt lat="48.42184" lon="-4.40608">
        <ele>105</ele>
        <time>2012-02-26T09:24:56.55</time>
      </trkpt>
      <trkpt lat="48.42184" lon="-4.40601">
        <ele>105</ele>
        <time>2012-02-26T09:24:57.55</time>
      </trkpt>
      <trkpt lat="48.42185" lon="-4.40597">
        <ele>105</ele>
        <time>2012-02-26T09:24:58.55</time>
      </trkpt>
      <trkpt lat="48.42185" lon="-4.40593">
        <ele>105</ele>
        <time>2012-02-26T09:24:59.55</time>
      </trkpt>
      <trkpt lat="48.42185" lon="-4.40586">
        <ele>105</ele>
        <time>2012-02-26T09:25:00.55</time>
      </trkpt>
      <trkpt lat="48.42187" lon="-4.40582">
        <ele>105</ele>
        <time>2012-02-26T09:25:01.55</time>
      </trkpt>
      <trkpt lat="48.42188" lon="-4.40578">
        <ele>105</ele>
        <time>2012-02-26T09:25:02.55</time>
      </trkpt>
      <trkpt lat="48.42188" lon="-4.40573">
        <ele>105</ele>
        <time>2012-02-26T09:25:03.55</time>
      </trkpt>
      <trkpt lat="48.42189" lon="-4.40567">
        <ele>106</ele>
        <time>2012-02-26T09:25:04.55</time>
      </trkpt>
      <trkpt lat="48.4219" lon="-4.40562">
        <ele>106</ele>
        <time>2012-02-26T09:25:05.55</time>
      </trkpt>
      <trkpt lat="48.42191" lon="-4.40556">
        <ele>107</ele>
        <time>2012-02-26T09:25:06.55</time>
      </trkpt>
      <trkpt lat="48.42192" lon="-4.4055">
        <ele>107</ele>
        <time>2012-02-26T09:25:07.55</time>
      </trkpt>
      <trkpt lat="48.42193" lon="-4.40545">
        <ele>108</ele>
        <time>2012-02-26T09:25:08.55</time>
      </trkpt>
      <trkpt lat="48.42193" lon="-4.40539">
        <ele>109</ele>
        <time>2012-02-26T09:25:09.55</time>
      </trkpt>
      <trkpt lat="48.42194" lon="-4.40532">
        <ele>109</ele>
        <time>2012-02-26T09:25:10.55</time>
      </trkpt>
      <trkpt lat="48.42196" lon="-4.40526">
        <ele>110</ele>
        <time>2012-02-26T09:25:11.55</time>
      </trkpt>
      <trkpt lat="48.42197" lon="-4.4052">
        <ele>110</ele>
        <time>2012-02-26T09:25:12.55</time>
      </trkpt>
      <trkpt lat="48.42199" lon="-4.40513">
        <ele>111</ele>
        <time>2012-02-26T09:25:13.55</time>
      </trkpt>
      <trkpt lat="48.42201" lon="-4.40507">
        <ele>111</ele>
        <time>2012-02-26T09:25:14.55</time>
      </trkpt>
      <trkpt lat="48.42203" lon="-4.405">
        <ele>111</ele>
        <time>2012-02-26T09:25:15.55</time>
      </trkpt>
      <trkpt lat="48.42205" lon="-4.40494">
        <ele>111</ele>
        <time>2012-02-26T09:25:16.55</time>
      </trkpt>
      <trkpt lat="48.42206" lon="-4.40487">
        <ele>111</ele>
        <time>2012-02-26T09:25:17.55</time>
      </trkpt>
      <trkpt lat="48.42208" lon="-4.40479">
        <ele>111</ele>
        <time>2012-02-26T09:25:18.56</time>
      </trkpt>
      <trkpt lat="48.4221" lon="-4.40472">
        <ele>111</ele>
        <time>2012-02-26T09:25:19.55</time>
      </trkpt>
      <trkpt lat="48.42212" lon="-4.40466">
        <ele>111</ele>
        <time>2012-02-26T09:25:20.55</time>
      </trkpt>
      <trkpt lat="48.42213" lon="-4.40457">
        <ele>111</ele>
        <time>2012-02-26T09:25:21.55</time>
      </trkpt>
      <trkpt lat="48.42216" lon="-4.40451">
        <ele>111</ele>
        <time>2012-02-26T09:25:22.55</time>
      </trkpt>
      <trkpt lat="48.42218" lon="-4.40444">
        <ele>111</ele>
        <time>2012-02-26T09:25:23.55</time>
      </trkpt>
      <trkpt lat="48.42219" lon="-4.40438">
        <ele>111</ele>
        <time>2012-02-26T09:25:24.55</time>
      </trkpt>
      <trkpt lat="48.42221" lon="-4.40429">
        <ele>111</ele>
        <time>2012-02-26T09:25:25.55</time>
      </trkpt>
      <trkpt lat="48.42223" lon="-4.40423">
        <ele>111</ele>
        <time>2012-02-26T09:25:26.55</time>
      </trkpt>
      <trkpt lat="48.42224" lon="-4.40417">
        <ele>111</ele>
        <time>2012-02-26T09:25:27.55</time>
      </trkpt>
      <trkpt lat="48.42226" lon="-4.40408">
        <ele>111</ele>
        <time>2012-02-26T09:25:28.55</time>
      </trkpt>
      <trkpt lat="48.42228" lon="-4.40402">
        <ele>111</ele>
        <time>2012-02-26T09:25:29.55</time>
      </trkpt>
      <trkpt lat="48.42229" lon="-4.40395">
        <ele>112</ele>
        <time>2012-02-26T09:25:30.55</time>
      </trkpt>
      <trkpt lat="48.42232" lon="-4.40387">
        <ele>112</ele>
        <time>2012-02-26T09:25:31.55</time>
      </trkpt>
      <trkpt lat="48.42233" lon="-4.4038">
        <ele>112</ele>
        <time>2012-02-26T09:25:32.55</time>
      </trkpt>
      <trkpt lat="48.42235" lon="-4.40372">
        <ele>112</ele>
        <time>2012-02-26T09:25:33.55</time>
      </trkpt>
      <trkpt lat="48.42237" lon="-4.40365">
        <ele>112</ele>
        <time>2012-02-26T09:25:34.55</time>
      </trkpt>
      <trkpt lat="48.42238" lon="-4.40359">
        <ele>112</ele>
        <time>2012-02-26T09:25:35.55</time>
      </trkpt>
      <trkpt lat="48.4224" lon="-4.4035">
        <ele>112</ele>
        <time>2012-02-26T09:25:36.55</time>
      </trkpt>
      <trkpt lat="48.42241" lon="-4.40344">
        <ele>112</ele>
        <time>2012-02-26T09:25:37.55</time>
      </trkpt>
      <trkpt lat="48.42243" lon="-4.40335">
        <ele>112</ele>
        <time>2012-02-26T09:25:38.55</time>
      </trkpt>
      <trkpt lat="48.42246" lon="-4.40329">
        <ele>113</ele>
        <time>2012-02-26T09:25:39.55</time>
      </trkpt>
      <trkpt lat="48.42247" lon="-4.40322">
        <ele>113</ele>
        <time>2012-02-26T09:25:40.55</time>
      </trkpt>
      <trkpt lat="48.42248" lon="-4.40316">
        <ele>113</ele>
        <time>2012-02-26T09:25:41.55</time>
      </trkpt>
      <trkpt lat="48.4225" lon="-4.40307">
        <ele>113</ele>
        <time>2012-02-26T09:25:42.55</time>
      </trkpt>
      <trkpt lat="48.42251" lon="-4.40301">
        <ele>113</ele>
        <time>2012-02-26T09:25:43.55</time>
      </trkpt>
      <trkpt lat="48.42252" lon="-4.40294">
        <ele>113</ele>
        <time>2012-02-26T09:25:44.55</time>
      </trkpt>
      <trkpt lat="48.42253" lon="-4.40288">
        <ele>113</ele>
        <time>2012-02-26T09:25:45.55</time>
      </trkpt>
      <trkpt lat="48.42254" lon="-4.40281">
        <ele>113</ele>
        <time>2012-02-26T09:25:46.55</time>
      </trkpt>
      <trkpt lat="48.42255" lon="-4.40275">
        <ele>113</ele>
        <time>2012-02-26T09:25:47.55</time>
      </trkpt>
      <trkpt lat="48.42255" lon="-4.40266">
        <ele>113</ele>
        <time>2012-02-26T09:25:48.55</time>
      </trkpt>
      <trkpt lat="48.42256" lon="-4.4026">
        <ele>114</ele>
        <time>2012-02-26T09:25:49.55</time>
      </trkpt>
      <trkpt lat="48.42257" lon="-4.40253">
        <ele>114</ele>
        <time>2012-02-26T09:25:50.55</time>
      </trkpt>
      <trkpt lat="48.42258" lon="-4.40245">
        <ele>114</ele>
        <time>2012-02-26T09:25:51.55</time>
      </trkpt>
      <trkpt lat="48.4226" lon="-4.40238">
        <ele>115</ele>
        <time>2012-02-26T09:25:52.55</time>
      </trkpt>
      <trkpt lat="48.42261" lon="-4.40232">
        <ele>115</ele>
        <time>2012-02-26T09:25:53.53</time>
      </trkpt>
      <trkpt lat="48.42263" lon="-4.40223">
        <ele>115</ele>
        <time>2012-02-26T09:25:54.55</time>
      </trkpt>
      <trkpt lat="48.42264" lon="-4.40217">
        <ele>116</ele>
        <time>2012-02-26T09:25:55.55</time>
      </trkpt>
      <trkpt lat="48.42264" lon="-4.40211">
        <ele>116</ele>
        <time>2012-02-26T09:25:56.55</time>
      </trkpt>
      <trkpt lat="48.42265" lon="-4.40204">
        <ele>116</ele>
        <time>2012-02-26T09:25:57.55</time>
      </trkpt>
      <trkpt lat="48.42267" lon="-4.40198">
        <ele>117</ele>
        <time>2012-02-26T09:25:58.55</time>
      </trkpt>
      <trkpt lat="48.42268" lon="-4.40191">
        <ele>117</ele>
        <time>2012-02-26T09:25:59.55</time>
      </trkpt>
      <trkpt lat="48.42268" lon="-4.40185">
        <ele>118</ele>
        <time>2012-02-26T09:26:00.55</time>
      </trkpt>
      <trkpt lat="48.42269" lon="-4.40181">
        <ele>118</ele>
        <time>2012-02-26T09:26:01.56</time>
      </trkpt>
      <trkpt lat="48.4227" lon="-4.40174">
        <ele>118</ele>
        <time>2012-02-26T09:26:02.55</time>
      </trkpt>
      <trkpt lat="48.4227" lon="-4.40168">
        <ele>119</ele>
        <time>2012-02-26T09:26:03.55</time>
      </trkpt>
      <trkpt lat="48.42271" lon="-4.40161">
        <ele>119</ele>
        <time>2012-02-26T09:26:04.55</time>
      </trkpt>
      <trkpt lat="48.42272" lon="-4.40157">
        <ele>119</ele>
        <time>2012-02-26T09:26:05.55</time>
      </trkpt>
      <trkpt lat="48.42273" lon="-4.4015">
        <ele>119</ele>
        <time>2012-02-26T09:26:06.53</time>
      </trkpt>
      <trkpt lat="48.42275" lon="-4.40144">
        <ele>119</ele>
        <time>2012-02-26T09:26:07.55</time>
      </trkpt>
      <trkpt lat="48.42275" lon="-4.4014">
        <ele>119</ele>
        <time>2012-02-26T09:26:08.55</time>
      </trkpt>
      <trkpt lat="48.42276" lon="-4.40138">
        <ele>119</ele>
        <time>2012-02-26T09:26:09.55</time>
      </trkpt>
      <trkpt lat="48.42276" lon="-4.40133">
        <ele>119</ele>
        <time>2012-02-26T09:26:10.55</time>
      </trkpt>
      <trkpt lat="48.42277" lon="-4.40127">
        <ele>119</ele>
        <time>2012-02-26T09:26:11.65</time>
      </trkpt>
      <trkpt lat="48.42278" lon="-4.40123">
        <ele>119</ele>
        <time>2012-02-26T09:26:12.55</time>
      </trkpt>
      <trkpt lat="48.42279" lon="-4.40114">
        <ele>119</ele>
        <time>2012-02-26T09:26:13.55</time>
      </trkpt>
      <trkpt lat="48.4228" lon="-4.40108">
        <ele>120</ele>
        <time>2012-02-26T09:26:14.55</time>
      </trkpt>
      <trkpt lat="48.42281" lon="-4.40101">
        <ele>120</ele>
        <time>2012-02-26T09:26:15.55</time>
      </trkpt>
      <trkpt lat="48.42282" lon="-4.40095">
        <ele>121</ele>
        <time>2012-02-26T09:26:16.55</time>
      </trkpt>
      <trkpt lat="48.42284" lon="-4.40088">
        <ele>121</ele>
        <time>2012-02-26T09:26:17.56</time>
      </trkpt>
      <trkpt lat="48.42285" lon="-4.40082">
        <ele>122</ele>
        <time>2012-02-26T09:26:18.55</time>
      </trkpt>
      <trkpt lat="48.42286" lon="-4.40075">
        <ele>122</ele>
        <time>2012-02-26T09:26:19.55</time>
      </trkpt>
      <trkpt lat="48.42287" lon="-4.40069">
        <ele>123</ele>
        <time>2012-02-26T09:26:20.56</time>
      </trkpt>
      <trkpt lat="48.4229" lon="-4.40063">
        <ele>123</ele>
        <time>2012-02-26T09:26:21.55</time>
      </trkpt>
      <trkpt lat="48.42291" lon="-4.40056">
        <ele>123</ele>
        <time>2012-02-26T09:26:22.55</time>
      </trkpt>
      <trkpt lat="48.42293" lon="-4.40048">
        <ele>123</ele>
        <time>2012-02-26T09:26:23.55</time>
      </trkpt>
      <trkpt lat="48.42294" lon="-4.40041">
        <ele>123</ele>
        <time>2012-02-26T09:26:24.55</time>
      </trkpt>
      <trkpt lat="48.42296" lon="-4.40032">
        <ele>123</ele>
        <time>2012-02-26T09:26:25.55</time>
      </trkpt>
      <trkpt lat="48.42297" lon="-4.40024">
        <ele>124</ele>
        <time>2012-02-26T09:26:26.55</time>
      </trkpt>
      <trkpt lat="48.42298" lon="-4.40017">
        <ele>124</ele>
        <time>2012-02-26T09:26:27.55</time>
      </trkpt>
      <trkpt lat="48.423" lon="-4.40009">
        <ele>124</ele>
        <time>2012-02-26T09:26:28.55</time>
      </trkpt>
      <trkpt lat="48.423" lon="-4.40002">
        <ele>124</ele>
        <time>2012-02-26T09:26:29.55</time>
      </trkpt>
      <trkpt lat="48.423" lon="-4.39994">
        <ele>124</ele>
        <time>2012-02-26T09:26:30.55</time>
      </trkpt>
      <trkpt lat="48.42298" lon="-4.39987">
        <ele>123</ele>
        <time>2012-02-26T09:26:31.55</time>
      </trkpt>
      <trkpt lat="48.42295" lon="-4.39981">
        <ele>122</ele>
        <time>2012-02-26T09:26:32.55</time>
      </trkpt>
      <trkpt lat="48.42292" lon="-4.39979">
        <ele>122</ele>
        <time>2012-02-26T09:26:33.55</time>
      </trkpt>
      <trkpt lat="48.42287" lon="-4.39975">
        <ele>121</ele>
        <time>2012-02-26T09:26:34.55</time>
      </trkpt>
      <trkpt lat="48.42283" lon="-4.3997">
        <ele>120</ele>
        <time>2012-02-26T09:26:35.56</time>
      </trkpt>
      <trkpt lat="48.42278" lon="-4.39966">
        <ele>118</ele>
        <time>2012-02-26T09:26:36.55</time>
      </trkpt>
      <trkpt lat="48.42273" lon="-4.39962">
        <ele>117</ele>
        <time>2012-02-26T09:26:37.55</time>
      </trkpt>
      <trkpt lat="48.42269" lon="-4.39957">
        <ele>116</ele>
        <time>2012-02-26T09:26:38.55</time>
      </trkpt>
      <trkpt lat="48.42265" lon="-4.39955">
        <ele>115</ele>
        <time>2012-02-26T09:26:39.55</time>
      </trkpt>
      <trkpt lat="48.42261" lon="-4.39953">
        <ele>114</ele>
        <time>2012-02-26T09:26:40.55</time>
      </trkpt>
      <trkpt lat="48.42256" lon="-4.39951">
        <ele>113</ele>
        <time>2012-02-26T09:26:41.55</time>
      </trkpt>
      <trkpt lat="48.42252" lon="-4.39949">
        <ele>112</ele>
        <time>2012-02-26T09:26:42.55</time>
      </trkpt>
      <trkpt lat="48.42248" lon="-4.39949">
        <ele>112</ele>
        <time>2012-02-26T09:26:43.55</time>
      </trkpt>
      <trkpt lat="48.42243" lon="-4.39947">
        <ele>112</ele>
        <time>2012-02-26T09:26:44.55</time>
      </trkpt>
      <trkpt lat="48.4224" lon="-4.39947">
        <ele>111</ele>
        <time>2012-02-26T09:26:45.55</time>
      </trkpt>
      <trkpt lat="48.42236" lon="-4.39947">
        <ele>111</ele>
        <time>2012-02-26T09:26:46.55</time>
      </trkpt>
      <trkpt lat="48.42233" lon="-4.39947">
        <ele>111</ele>
        <time>2012-02-26T09:26:47.55</time>
      </trkpt>
      <trkpt lat="48.42228" lon="-4.39947">
        <ele>111</ele>
        <time>2012-02-26T09:26:48.55</time>
      </trkpt>
      <trkpt lat="48.42225" lon="-4.39947">
        <ele>111</ele>
        <time>2012-02-26T09:26:49.55</time>
      </trkpt>
      <trkpt lat="48.42221" lon="-4.39947">
        <ele>111</ele>
        <time>2012-02-26T09:26:50.55</time>
      </trkpt>
      <trkpt lat="48.42217" lon="-4.39947">
        <ele>111</ele>
        <time>2012-02-26T09:26:51.55</time>
      </trkpt>
      <trkpt lat="48.42213" lon="-4.39947">
        <ele>111</ele>
        <time>2012-02-26T09:26:52.55</time>
      </trkpt>
      <trkpt lat="48.42209" lon="-4.39945">
        <ele>112</ele>
        <time>2012-02-26T09:26:53.55</time>
      </trkpt>
      <trkpt lat="48.42205" lon="-4.39945">
        <ele>112</ele>
        <time>2012-02-26T09:26:54.55</time>
      </trkpt>
      <trkpt lat="48.42202" lon="-4.39945">
        <ele>112</ele>
        <time>2012-02-26T09:26:55.55</time>
      </trkpt>
      <trkpt lat="48.42197" lon="-4.39942">
        <ele>112</ele>
        <time>2012-02-26T09:26:56.56</time>
      </trkpt>
      <trkpt lat="48.42194" lon="-4.3994">
        <ele>113</ele>
        <time>2012-02-26T09:26:57.55</time>
      </trkpt>
      <trkpt lat="48.4219" lon="-4.39938">
        <ele>113</ele>
        <time>2012-02-26T09:26:58.55</time>
      </trkpt>
      <trkpt lat="48.42187" lon="-4.39936">
        <ele>113</ele>
        <time>2012-02-26T09:26:59.55</time>
      </trkpt>
      <trkpt lat="48.42182" lon="-4.39934">
        <ele>114</ele>
        <time>2012-02-26T09:27:00.55</time>
      </trkpt>
      <trkpt lat="48.42179" lon="-4.39929">
        <ele>114</ele>
        <time>2012-02-26T09:27:01.55</time>
      </trkpt>
      <trkpt lat="48.42175" lon="-4.39927">
        <ele>114</ele>
        <time>2012-02-26T09:27:02.55</time>
      </trkpt>
      <trkpt lat="48.42172" lon="-4.39923">
        <ele>115</ele>
        <time>2012-02-26T09:27:03.55</time>
      </trkpt>
      <trkpt lat="48.42168" lon="-4.39921">
        <ele>115</ele>
        <time>2012-02-26T09:27:04.55</time>
      </trkpt>
      <trkpt lat="48.42165" lon="-4.39919">
        <ele>115</ele>
        <time>2012-02-26T09:27:05.55</time>
      </trkpt>
      <trkpt lat="48.42162" lon="-4.39917">
        <ele>115</ele>
        <time>2012-02-26T09:27:06.55</time>
      </trkpt>
      <trkpt lat="48.42158" lon="-4.39914">
        <ele>116</ele>
        <time>2012-02-26T09:27:07.55</time>
      </trkpt>
      <trkpt lat="48.42154" lon="-4.39912">
        <ele>116</ele>
        <time>2012-02-26T09:27:08.55</time>
      </trkpt>
      <trkpt lat="48.42151" lon="-4.3991">
        <ele>116</ele>
        <time>2012-02-26T09:27:09.55</time>
      </trkpt>
      <trkpt lat="48.42148" lon="-4.3991">
        <ele>116</ele>
        <time>2012-02-26T09:27:10.55</time>
      </trkpt>
      <trkpt lat="48.42145" lon="-4.39908">
        <ele>116</ele>
        <time>2012-02-26T09:27:11.55</time>
      </trkpt>
      <trkpt lat="48.42142" lon="-4.39908">
        <ele>116</ele>
        <time>2012-02-26T09:27:12.55</time>
      </trkpt>
      <trkpt lat="48.42139" lon="-4.39908">
        <ele>116</ele>
        <time>2012-02-26T09:27:13.55</time>
      </trkpt>
      <trkpt lat="48.42136" lon="-4.39908">
        <ele>117</ele>
        <time>2012-02-26T09:27:14.55</time>
      </trkpt>
      <trkpt lat="48.42133" lon="-4.39908">
        <ele>117</ele>
        <time>2012-02-26T09:27:15.55</time>
      </trkpt>
      <trkpt lat="48.4213" lon="-4.3991">
        <ele>117</ele>
        <time>2012-02-26T09:27:16.55</time>
      </trkpt>
      <trkpt lat="48.42126" lon="-4.3991">
        <ele>117</ele>
        <time>2012-02-26T09:27:17.55</time>
      </trkpt>
      <trkpt lat="48.42123" lon="-4.39912">
        <ele>117</ele>
        <time>2012-02-26T09:27:18.55</time>
      </trkpt>
      <trkpt lat="48.42119" lon="-4.39912">
        <ele>117</ele>
        <time>2012-02-26T09:27:19.55</time>
      </trkpt>
      <trkpt lat="48.42116" lon="-4.39912">
        <ele>117</ele>
        <time>2012-02-26T09:27:20.55</time>
      </trkpt>
      <trkpt lat="48.42113" lon="-4.39914">
        <ele>117</ele>
        <time>2012-02-26T09:27:21.55</time>
      </trkpt>
      <trkpt lat="48.42108" lon="-4.39914">
        <ele>117</ele>
        <time>2012-02-26T09:27:22.55</time>
      </trkpt>
      <trkpt lat="48.42104" lon="-4.39917">
        <ele>117</ele>
        <time>2012-02-26T09:27:23.55</time>
      </trkpt>
      <trkpt lat="48.42101" lon="-4.39917">
        <ele>117</ele>
        <time>2012-02-26T09:27:24.55</time>
      </trkpt>
      <trkpt lat="48.42098" lon="-4.39917">
        <ele>117</ele>
        <time>2012-02-26T09:27:25.55</time>
      </trkpt>
      <trkpt lat="48.42094" lon="-4.39919">
        <ele>118</ele>
        <time>2012-02-26T09:27:26.55</time>
      </trkpt>
      <trkpt lat="48.42091" lon="-4.39919">
        <ele>118</ele>
        <time>2012-02-26T09:27:27.55</time>
      </trkpt>
      <trkpt lat="48.42089" lon="-4.39919">
        <ele>118</ele>
        <time>2012-02-26T09:27:28.55</time>
      </trkpt>
      <trkpt lat="48.42086" lon="-4.39921">
        <ele>118</ele>
        <time>2012-02-26T09:27:29.55</time>
      </trkpt>
      <trkpt lat="48.42084" lon="-4.39921">
        <ele>118</ele>
        <time>2012-02-26T09:27:30.55</time>
      </trkpt>
      <trkpt lat="48.42079" lon="-4.39923">
        <ele>118</ele>
        <time>2012-02-26T09:27:32.55</time>
      </trkpt>
      <trkpt lat="48.42077" lon="-4.39923">
        <ele>118</ele>
        <time>2012-02-26T09:27:33.55</time>
      </trkpt>
      <trkpt lat="48.42074" lon="-4.39923">
        <ele>118</ele>
        <time>2012-02-26T09:27:34.55</time>
      </trkpt>
      <trkpt lat="48.42072" lon="-4.39923">
        <ele>119</ele>
        <time>2012-02-26T09:27:35.55</time>
      </trkpt>
      <trkpt lat="48.4207" lon="-4.39923">
        <ele>119</ele>
        <time>2012-02-26T09:27:36.55</time>
      </trkpt>
      <trkpt lat="48.42067" lon="-4.39923">
        <ele>119</ele>
        <time>2012-02-26T09:27:37.55</time>
      </trkpt>
      <trkpt lat="48.42065" lon="-4.39921">
        <ele>119</ele>
        <time>2012-02-26T09:27:38.55</time>
      </trkpt>
      <trkpt lat="48.42062" lon="-4.39921">
        <ele>119</ele>
        <time>2012-02-26T09:27:39.55</time>
      </trkpt>
      <trkpt lat="48.42059" lon="-4.39921">
        <ele>120</ele>
        <time>2012-02-26T09:27:40.55</time>
      </trkpt>
      <trkpt lat="48.42057" lon="-4.39921">
        <ele>120</ele>
        <time>2012-02-26T09:27:41.55</time>
      </trkpt>
      <trkpt lat="48.42054" lon="-4.39921">
        <ele>120</ele>
        <time>2012-02-26T09:27:42.55</time>
      </trkpt>
      <trkpt lat="48.4205" lon="-4.39921">
        <ele>120</ele>
        <time>2012-02-26T09:27:43.55</time>
      </trkpt>
      <trkpt lat="48.42047" lon="-4.39921">
        <ele>121</ele>
        <time>2012-02-26T09:27:44.55</time>
      </trkpt>
      <trkpt lat="48.42045" lon="-4.39921">
        <ele>121</ele>
        <time>2012-02-26T09:27:45.55</time>
      </trkpt>
      <trkpt lat="48.42042" lon="-4.39921">
        <ele>121</ele>
        <time>2012-02-26T09:27:46.55</time>
      </trkpt>
      <trkpt lat="48.42039" lon="-4.39921">
        <ele>121</ele>
        <time>2012-02-26T09:27:47.55</time>
      </trkpt>
      <trkpt lat="48.42035" lon="-4.39919">
        <ele>122</ele>
        <time>2012-02-26T09:27:48.56</time>
      </trkpt>
      <trkpt lat="48.42032" lon="-4.39919">
        <ele>122</ele>
        <time>2012-02-26T09:27:49.55</time>
      </trkpt>
      <trkpt lat="48.42029" lon="-4.39919">
        <ele>122</ele>
        <time>2012-02-26T09:27:50.55</time>
      </trkpt>
      <trkpt lat="48.42026" lon="-4.39919">
        <ele>122</ele>
        <time>2012-02-26T09:27:51.55</time>
      </trkpt>
      <trkpt lat="48.42023" lon="-4.39919">
        <ele>123</ele>
        <time>2012-02-26T09:27:52.55</time>
      </trkpt>
      <trkpt lat="48.4202" lon="-4.39919">
        <ele>123</ele>
        <time>2012-02-26T09:27:53.55</time>
      </trkpt>
      <trkpt lat="48.42018" lon="-4.39917">
        <ele>123</ele>
        <time>2012-02-26T09:27:54.56</time>
      </trkpt>
      <trkpt lat="48.42015" lon="-4.39917">
        <ele>123</ele>
        <time>2012-02-26T09:27:55.55</time>
      </trkpt>
      <trkpt lat="48.42013" lon="-4.39917">
        <ele>124</ele>
        <time>2012-02-26T09:27:56.55</time>
      </trkpt>
      <trkpt lat="48.4201" lon="-4.39917">
        <ele>124</ele>
        <time>2012-02-26T09:27:57.55</time>
      </trkpt>
      <trkpt lat="48.42007" lon="-4.39917">
        <ele>124</ele>
        <time>2012-02-26T09:27:58.55</time>
      </trkpt>
      <trkpt lat="48.42005" lon="-4.39917">
        <ele>125</ele>
        <time>2012-02-26T09:27:59.56</time>
      </trkpt>
      <trkpt lat="48.42003" lon="-4.39914">
        <ele>125</ele>
        <time>2012-02-26T09:28:00.55</time>
      </trkpt>
      <trkpt lat="48.42001" lon="-4.39914">
        <ele>125</ele>
        <time>2012-02-26T09:28:01.55</time>
      </trkpt>
      <trkpt lat="48.41999" lon="-4.39914">
        <ele>126</ele>
        <time>2012-02-26T09:28:02.55</time>
      </trkpt>
      <trkpt lat="48.41998" lon="-4.39912">
        <ele>126</ele>
        <time>2012-02-26T09:28:03.59</time>
      </trkpt>
      <trkpt lat="48.41993" lon="-4.3991">
        <ele>128</ele>
        <time>2012-02-26T09:28:08.56</time>
      </trkpt>
      <trkpt lat="48.41992" lon="-4.3991">
        <ele>128</ele>
        <time>2012-02-26T09:28:10.56</time>
      </trkpt>
      <trkpt lat="48.41991" lon="-4.3991">
        <ele>129</ele>
        <time>2012-02-26T09:28:11.55</time>
      </trkpt>
      <trkpt lat="48.4199" lon="-4.3991">
        <ele>129</ele>
        <time>2012-02-26T09:28:12.55</time>
      </trkpt>
      <trkpt lat="48.41988" lon="-4.39912">
        <ele>130</ele>
        <time>2012-02-26T09:28:14.55</time>
      </trkpt>
      <trkpt lat="48.41987" lon="-4.39912">
        <ele>130</ele>
        <time>2012-02-26T09:28:15.55</time>
      </trkpt>
      <trkpt lat="48.41986" lon="-4.39912">
        <ele>130</ele>
        <time>2012-02-26T09:28:16.56</time>
      </trkpt>
      <trkpt lat="48.41985" lon="-4.39912">
        <ele>131</ele>
        <time>2012-02-26T09:28:17.56</time>
      </trkpt>
      <trkpt lat="48.41984" lon="-4.39912">
        <ele>131</ele>
        <time>2012-02-26T09:28:18.55</time>
      </trkpt>
      <trkpt lat="48.41982" lon="-4.39912">
        <ele>131</ele>
        <time>2012-02-26T09:28:19.55</time>
      </trkpt>
      <trkpt lat="48.41981" lon="-4.39912">
        <ele>132</ele>
        <time>2012-02-26T09:28:20.55</time>
      </trkpt>
      <trkpt lat="48.41978" lon="-4.39912">
        <ele>132</ele>
        <time>2012-02-26T09:28:21.55</time>
      </trkpt>
      <trkpt lat="48.41977" lon="-4.39912">
        <ele>132</ele>
        <time>2012-02-26T09:28:22.56</time>
      </trkpt>
      <trkpt lat="48.41975" lon="-4.3991">
        <ele>133</ele>
        <time>2012-02-26T09:28:24.55</time>
      </trkpt>
      <trkpt lat="48.41974" lon="-4.3991">
        <ele>133</ele>
        <time>2012-02-26T09:28:25.55</time>
      </trkpt>
      <trkpt lat="48.41973" lon="-4.3991">
        <ele>134</ele>
        <time>2012-02-26T09:28:27.55</time>
      </trkpt>
      <trkpt lat="48.41972" lon="-4.3991">
        <ele>134</ele>
        <time>2012-02-26T09:28:28.55</time>
      </trkpt>
      <trkpt lat="48.4196" lon="-4.39908">
        <ele>139</ele>
        <time>2012-02-26T09:28:35.55</time>
      </trkpt>
      <trkpt lat="48.41958" lon="-4.39908">
        <ele>139</ele>
        <time>2012-02-26T09:28:36.55</time>
      </trkpt>
      <trkpt lat="48.41956" lon="-4.39908">
        <ele>139</ele>
        <time>2012-02-26T09:28:37.55</time>
      </trkpt>
      <trkpt lat="48.41954" lon="-4.39908">
        <ele>139</ele>
        <time>2012-02-26T09:28:38.55</time>
      </trkpt>
      <trkpt lat="48.41952" lon="-4.39908">
        <ele>139</ele>
        <time>2012-02-26T09:28:39.56</time>
      </trkpt>
      <trkpt lat="48.41949" lon="-4.3991">
        <ele>139</ele>
        <time>2012-02-26T09:28:40.55</time>
      </trkpt>
      <trkpt lat="48.41947" lon="-4.3991">
        <ele>140</ele>
        <time>2012-02-26T09:28:41.55</time>
      </trkpt>
      <trkpt lat="48.41944" lon="-4.3991">
        <ele>140</ele>
        <time>2012-02-26T09:28:42.55</time>
      </trkpt>
      <trkpt lat="48.41941" lon="-4.39912">
        <ele>140</ele>
        <time>2012-02-26T09:28:43.55</time>
      </trkpt>
      <trkpt lat="48.41938" lon="-4.39912">
        <ele>140</ele>
        <time>2012-02-26T09:28:44.55</time>
      </trkpt>
      <trkpt lat="48.41934" lon="-4.39914">
        <ele>140</ele>
        <time>2012-02-26T09:28:45.55</time>
      </trkpt>
      <trkpt lat="48.4193" lon="-4.39914">
        <ele>140</ele>
        <time>2012-02-26T09:28:46.55</time>
      </trkpt>
      <trkpt lat="48.41927" lon="-4.39914">
        <ele>140</ele>
        <time>2012-02-26T09:28:47.55</time>
      </trkpt>
      <trkpt lat="48.41924" lon="-4.39917">
        <ele>142</ele>
        <time>2012-02-26T09:28:48.55</time>
      </trkpt>
      <trkpt lat="48.41919" lon="-4.39917">
        <ele>143</ele>
        <time>2012-02-26T09:28:49.55</time>
      </trkpt>
      <trkpt lat="48.41914" lon="-4.39917">
        <ele>143</ele>
        <time>2012-02-26T09:28:50.55</time>
      </trkpt>
      <trkpt lat="48.4191" lon="-4.39917">
        <ele>144</ele>
        <time>2012-02-26T09:28:51.55</time>
      </trkpt>
      <trkpt lat="48.41905" lon="-4.39919">
        <ele>145</ele>
        <time>2012-02-26T09:28:52.55</time>
      </trkpt>
      <trkpt lat="48.419" lon="-4.39919">
        <ele>145</ele>
        <time>2012-02-26T09:28:53.56</time>
      </trkpt>
      <trkpt lat="48.41896" lon="-4.39919">
        <ele>145</ele>
        <time>2012-02-26T09:28:54.55</time>
      </trkpt>
      <trkpt lat="48.4189" lon="-4.39919">
        <ele>146</ele>
        <time>2012-02-26T09:28:55.55</time>
      </trkpt>
      <trkpt lat="48.41886" lon="-4.39917">
        <ele>146</ele>
        <time>2012-02-26T09:28:56.55</time>
      </trkpt>
      <trkpt lat="48.41881" lon="-4.39914">
        <ele>146</ele>
        <time>2012-02-26T09:28:57.55</time>
      </trkpt>
      <trkpt lat="48.41875" lon="-4.39912">
        <ele>146</ele>
        <time>2012-02-26T09:28:58.55</time>
      </trkpt>
      <trkpt lat="48.4187" lon="-4.3991">
        <ele>146</ele>
        <time>2012-02-26T09:28:59.55</time>
      </trkpt>
      <trkpt lat="48.41864" lon="-4.39908">
        <ele>146</ele>
        <time>2012-02-26T09:29:00.55</time>
      </trkpt>
      <trkpt lat="48.41858" lon="-4.39904">
        <ele>146</ele>
        <time>2012-02-26T09:29:01.55</time>
      </trkpt>
      <trkpt lat="48.41852" lon="-4.39899">
        <ele>146</ele>
        <time>2012-02-26T09:29:02.55</time>
      </trkpt>
      <trkpt lat="48.41845" lon="-4.39895">
        <ele>145</ele>
        <time>2012-02-26T09:29:03.63</time>
      </trkpt>
      <trkpt lat="48.41839" lon="-4.39889">
        <ele>145</ele>
        <time>2012-02-26T09:29:04.55</time>
      </trkpt>
      <trkpt lat="48.41833" lon="-4.39884">
        <ele>144</ele>
        <time>2012-02-26T09:29:05.55</time>
      </trkpt>
      <trkpt lat="48.41827" lon="-4.39876">
        <ele>144</ele>
        <time>2012-02-26T09:29:06.55</time>
      </trkpt>
      <trkpt lat="48.41822" lon="-4.39869">
        <ele>143</ele>
        <time>2012-02-26T09:29:07.55</time>
      </trkpt>
      <trkpt lat="48.41816" lon="-4.39861">
        <ele>143</ele>
        <time>2012-02-26T09:29:08.55</time>
      </trkpt>
      <trkpt lat="48.41811" lon="-4.39854">
        <ele>143</ele>
        <time>2012-02-26T09:29:09.55</time>
      </trkpt>
      <trkpt lat="48.41806" lon="-4.39848">
        <ele>143</ele>
        <time>2012-02-26T09:29:10.56</time>
      </trkpt>
      <trkpt lat="48.41801" lon="-4.39842">
        <ele>143</ele>
        <time>2012-02-26T09:29:11.55</time>
      </trkpt>
      <trkpt lat="48.41796" lon="-4.39835">
        <ele>143</ele>
        <time>2012-02-26T09:29:12.55</time>
      </trkpt>
      <trkpt lat="48.41792" lon="-4.39829">
        <ele>143</ele>
        <time>2012-02-26T09:29:13.55</time>
      </trkpt>
      <trkpt lat="48.41786" lon="-4.39824">
        <ele>143</ele>
        <time>2012-02-26T09:29:14.55</time>
      </trkpt>
      <trkpt lat="48.41782" lon="-4.3982">
        <ele>143</ele>
        <time>2012-02-26T09:29:15.55</time>
      </trkpt>
      <trkpt lat="48.41778" lon="-4.39814">
        <ele>143</ele>
        <time>2012-02-26T09:29:16.55</time>
      </trkpt>
      <trkpt lat="48.41774" lon="-4.39809">
        <ele>143</ele>
        <time>2012-02-26T09:29:17.55</time>
      </trkpt>
      <trkpt lat="48.4177" lon="-4.39803">
        <ele>143</ele>
        <time>2012-02-26T09:29:18.55</time>
      </trkpt>
      <trkpt lat="48.41767" lon="-4.39799">
        <ele>143</ele>
        <time>2012-02-26T09:29:19.55</time>
      </trkpt>
      <trkpt lat="48.41764" lon="-4.39792">
        <ele>142</ele>
        <time>2012-02-26T09:29:20.55</time>
      </trkpt>
      <trkpt lat="48.41761" lon="-4.39788">
        <ele>142</ele>
        <time>2012-02-26T09:29:21.55</time>
      </trkpt>
      <trkpt lat="48.41757" lon="-4.39781">
        <ele>142</ele>
        <time>2012-02-26T09:29:22.55</time>
      </trkpt>
      <trkpt lat="48.41753" lon="-4.39779">
        <ele>142</ele>
        <time>2012-02-26T09:29:23.55</time>
      </trkpt>
      <trkpt lat="48.4175" lon="-4.39775">
        <ele>142</ele>
        <time>2012-02-26T09:29:24.57</time>
      </trkpt>
      <trkpt lat="48.41746" lon="-4.39773">
        <ele>142</ele>
        <time>2012-02-26T09:29:25.55</time>
      </trkpt>
      <trkpt lat="48.41742" lon="-4.39771">
        <ele>142</ele>
        <time>2012-02-26T09:29:26.55</time>
      </trkpt>
      <trkpt lat="48.41739" lon="-4.39769">
        <ele>142</ele>
        <time>2012-02-26T09:29:27.55</time>
      </trkpt>
      <trkpt lat="48.41736" lon="-4.39766">
        <ele>142</ele>
        <time>2012-02-26T09:29:28.55</time>
      </trkpt>
      <trkpt lat="48.41732" lon="-4.39764">
        <ele>142</ele>
        <time>2012-02-26T09:29:29.55</time>
      </trkpt>
      <trkpt lat="48.41728" lon="-4.39764">
        <ele>142</ele>
        <time>2012-02-26T09:29:30.55</time>
      </trkpt>
      <trkpt lat="48.41725" lon="-4.39762">
        <ele>142</ele>
        <time>2012-02-26T09:29:31.55</time>
      </trkpt>
      <trkpt lat="48.41721" lon="-4.3976">
        <ele>142</ele>
        <time>2012-02-26T09:29:32.55</time>
      </trkpt>
      <trkpt lat="48.41718" lon="-4.3976">
        <ele>142</ele>
        <time>2012-02-26T09:29:33.55</time>
      </trkpt>
      <trkpt lat="48.41713" lon="-4.39758">
        <ele>142</ele>
        <time>2012-02-26T09:29:34.55</time>
      </trkpt>
      <trkpt lat="48.4171" lon="-4.39758">
        <ele>141</ele>
        <time>2012-02-26T09:29:35.55</time>
      </trkpt>
      <trkpt lat="48.41707" lon="-4.39756">
        <ele>141</ele>
        <time>2012-02-26T09:29:36.56</time>
      </trkpt>
      <trkpt lat="48.41703" lon="-4.39756">
        <ele>141</ele>
        <time>2012-02-26T09:29:37.55</time>
      </trkpt>
      <trkpt lat="48.41699" lon="-4.39754">
        <ele>141</ele>
        <time>2012-02-26T09:29:38.55</time>
      </trkpt>
      <trkpt lat="48.41695" lon="-4.39754">
        <ele>141</ele>
        <time>2012-02-26T09:29:39.55</time>
      </trkpt>
      <trkpt lat="48.41692" lon="-4.39756">
        <ele>141</ele>
        <time>2012-02-26T09:29:40.55</time>
      </trkpt>
      <trkpt lat="48.41689" lon="-4.39756">
        <ele>141</ele>
        <time>2012-02-26T09:29:41.56</time>
      </trkpt>
      <trkpt lat="48.41684" lon="-4.39758">
        <ele>141</ele>
        <time>2012-02-26T09:29:42.55</time>
      </trkpt>
      <trkpt lat="48.41681" lon="-4.39758">
        <ele>141</ele>
        <time>2012-02-26T09:29:43.55</time>
      </trkpt>
      <trkpt lat="48.41678" lon="-4.3976">
        <ele>141</ele>
        <time>2012-02-26T09:29:44.55</time>
      </trkpt>
      <trkpt lat="48.41675" lon="-4.3976">
        <ele>141</ele>
        <time>2012-02-26T09:29:45.55</time>
      </trkpt>
      <trkpt lat="48.41672" lon="-4.39758">
        <ele>141</ele>
        <time>2012-02-26T09:29:46.55</time>
      </trkpt>
      <trkpt lat="48.41669" lon="-4.39758">
        <ele>141</ele>
        <time>2012-02-26T09:29:47.55</time>
      </trkpt>
      <trkpt lat="48.41667" lon="-4.39758">
        <ele>141</ele>
        <time>2012-02-26T09:29:48.55</time>
      </trkpt>
      <trkpt lat="48.41665" lon="-4.39758">
        <ele>141</ele>
        <time>2012-02-26T09:29:49.55</time>
      </trkpt>
      <trkpt lat="48.4166" lon="-4.39756">
        <ele>138</ele>
        <time>2012-02-26T09:29:56.55</time>
      </trkpt>
      <trkpt lat="48.41658" lon="-4.39754">
        <ele>138</ele>
        <time>2012-02-26T09:29:57.55</time>
      </trkpt>
      <trkpt lat="48.41654" lon="-4.39749">
        <ele>138</ele>
        <time>2012-02-26T09:29:58.55</time>
      </trkpt>
      <trkpt lat="48.41651" lon="-4.39745">
        <ele>137</ele>
        <time>2012-02-26T09:29:59.55</time>
      </trkpt>
      <trkpt lat="48.41648" lon="-4.39743">
        <ele>137</ele>
        <time>2012-02-26T09:30:00.55</time>
      </trkpt>
      <trkpt lat="48.41644" lon="-4.39741">
        <ele>136</ele>
        <time>2012-02-26T09:30:01.55</time>
      </trkpt>
      <trkpt lat="48.41639" lon="-4.39739">
        <ele>136</ele>
        <time>2012-02-26T09:30:02.55</time>
      </trkpt>
      <trkpt lat="48.41634" lon="-4.39734">
        <ele>136</ele>
        <time>2012-02-26T09:30:03.56</time>
      </trkpt>
      <trkpt lat="48.41629" lon="-4.39732">
        <ele>135</ele>
        <time>2012-02-26T09:30:04.55</time>
      </trkpt>
      <trkpt lat="48.41622" lon="-4.3973">
        <ele>135</ele>
        <time>2012-02-26T09:30:05.56</time>
      </trkpt>
      <trkpt lat="48.41616" lon="-4.39726">
        <ele>134</ele>
        <time>2012-02-26T09:30:06.55</time>
      </trkpt>
      <trkpt lat="48.4161" lon="-4.39723">
        <ele>134</ele>
        <time>2012-02-26T09:30:07.62</time>
      </trkpt>
      <trkpt lat="48.41604" lon="-4.39721">
        <ele>134</ele>
        <time>2012-02-26T09:30:08.57</time>
      </trkpt>
      <trkpt lat="48.41598" lon="-4.39717">
        <ele>133</ele>
        <time>2012-02-26T09:30:09.57</time>
      </trkpt>
      <trkpt lat="48.41591" lon="-4.39715">
        <ele>133</ele>
        <time>2012-02-26T09:30:10.56</time>
      </trkpt>
      <trkpt lat="48.41586" lon="-4.39711">
        <ele>133</ele>
        <time>2012-02-26T09:30:11.57</time>
      </trkpt>
      <trkpt lat="48.4158" lon="-4.39706">
        <ele>133</ele>
        <time>2012-02-26T09:30:12.57</time>
      </trkpt>
      <trkpt lat="48.41575" lon="-4.39704">
        <ele>133</ele>
        <time>2012-02-26T09:30:13.56</time>
      </trkpt>
      <trkpt lat="48.4157" lon="-4.397">
        <ele>133</ele>
        <time>2012-02-26T09:30:14.57</time>
      </trkpt>
      <trkpt lat="48.41565" lon="-4.39698">
        <ele>133</ele>
        <time>2012-02-26T09:30:15.57</time>
      </trkpt>
      <trkpt lat="48.41561" lon="-4.39696">
        <ele>132</ele>
        <time>2012-02-26T09:30:16.56</time>
      </trkpt>
      <trkpt lat="48.41556" lon="-4.39693">
        <ele>132</ele>
        <time>2012-02-26T09:30:17.56</time>
      </trkpt>
      <trkpt lat="48.41551" lon="-4.39689">
        <ele>132</ele>
        <time>2012-02-26T09:30:18.63</time>
      </trkpt>
      <trkpt lat="48.41547" lon="-4.39687">
        <ele>132</ele>
        <time>2012-02-26T09:30:19.56</time>
      </trkpt>
      <trkpt lat="48.41543" lon="-4.39685">
        <ele>131</ele>
        <time>2012-02-26T09:30:20.55</time>
      </trkpt>
      <trkpt lat="48.41539" lon="-4.39683">
        <ele>131</ele>
        <time>2012-02-26T09:30:21.57</time>
      </trkpt>
      <trkpt lat="48.41534" lon="-4.39681">
        <ele>131</ele>
        <time>2012-02-26T09:30:22.56</time>
      </trkpt>
      <trkpt lat="48.41531" lon="-4.39678">
        <ele>131</ele>
        <time>2012-02-26T09:30:23.55</time>
      </trkpt>
      <trkpt lat="48.41527" lon="-4.39674">
        <ele>131</ele>
        <time>2012-02-26T09:30:24.57</time>
      </trkpt>
      <trkpt lat="48.41524" lon="-4.3967">
        <ele>130</ele>
        <time>2012-02-26T09:30:25.55</time>
      </trkpt>
      <trkpt lat="48.41519" lon="-4.39666">
        <ele>130</ele>
        <time>2012-02-26T09:30:26.56</time>
      </trkpt>
      <trkpt lat="48.41516" lon="-4.39661">
        <ele>130</ele>
        <time>2012-02-26T09:30:27.55</time>
      </trkpt>
      <trkpt lat="48.41513" lon="-4.39657">
        <ele>130</ele>
        <time>2012-02-26T09:30:28.55</time>
      </trkpt>
      <trkpt lat="48.41511" lon="-4.39651">
        <ele>130</ele>
        <time>2012-02-26T09:30:29.56</time>
      </trkpt>
      <trkpt lat="48.41509" lon="-4.39644">
        <ele>129</ele>
        <time>2012-02-26T09:30:30.55</time>
      </trkpt>
      <trkpt lat="48.41507" lon="-4.39636">
        <ele>129</ele>
        <time>2012-02-26T09:30:31.57</time>
      </trkpt>
      <trkpt lat="48.41507" lon="-4.39627">
        <ele>129</ele>
        <time>2012-02-26T09:30:32.56</time>
      </trkpt>
      <trkpt lat="48.41511" lon="-4.39618">
        <ele>129</ele>
        <time>2012-02-26T09:30:33.57</time>
      </trkpt>
      <trkpt lat="48.41513" lon="-4.3961">
        <ele>128</ele>
        <time>2012-02-26T09:30:34.57</time>
      </trkpt>
      <trkpt lat="48.41515" lon="-4.39599">
        <ele>128</ele>
        <time>2012-02-26T09:30:35.56</time>
      </trkpt>
      <trkpt lat="48.41517" lon="-4.39593">
        <ele>127</ele>
        <time>2012-02-26T09:30:36.57</time>
      </trkpt>
      <trkpt lat="48.41519" lon="-4.39584">
        <ele>127</ele>
        <time>2012-02-26T09:30:37.57</time>
      </trkpt>
      <trkpt lat="48.41522" lon="-4.3958">
        <ele>127</ele>
        <time>2012-02-26T09:30:38.56</time>
      </trkpt>
      <trkpt lat="48.41528" lon="-4.39575">
        <ele>127</ele>
        <time>2012-02-26T09:30:39.56</time>
      </trkpt>
      <trkpt lat="48.41532" lon="-4.39571">
        <ele>127</ele>
        <time>2012-02-26T09:30:40.55</time>
      </trkpt>
      <trkpt lat="48.41537" lon="-4.39571">
        <ele>126</ele>
        <time>2012-02-26T09:30:41.56</time>
      </trkpt>
      <trkpt lat="48.41543" lon="-4.39569">
        <ele>126</ele>
        <time>2012-02-26T09:30:42.56</time>
      </trkpt>
      <trkpt lat="48.41548" lon="-4.39569">
        <ele>126</ele>
        <time>2012-02-26T09:30:43.57</time>
      </trkpt>
      <trkpt lat="48.41555" lon="-4.39567">
        <ele>126</ele>
        <time>2012-02-26T09:30:44.56</time>
      </trkpt>
      <trkpt lat="48.41561" lon="-4.39567">
        <ele>126</ele>
        <time>2012-02-26T09:30:45.56</time>
      </trkpt>
      <trkpt lat="48.41568" lon="-4.39567">
        <ele>126</ele>
        <time>2012-02-26T09:30:46.57</time>
      </trkpt>
      <trkpt lat="48.41575" lon="-4.39567">
        <ele>126</ele>
        <time>2012-02-26T09:30:47.56</time>
      </trkpt>
      <trkpt lat="48.41581" lon="-4.39567">
        <ele>126</ele>
        <time>2012-02-26T09:30:48.56</time>
      </trkpt>
      <trkpt lat="48.41589" lon="-4.39567">
        <ele>125</ele>
        <time>2012-02-26T09:30:49.57</time>
      </trkpt>
      <trkpt lat="48.41595" lon="-4.39567">
        <ele>125</ele>
        <time>2012-02-26T09:30:50.56</time>
      </trkpt>
      <trkpt lat="48.41602" lon="-4.39565">
        <ele>125</ele>
        <time>2012-02-26T09:30:51.62</time>
      </trkpt>
      <trkpt lat="48.41608" lon="-4.3956">
        <ele>125</ele>
        <time>2012-02-26T09:30:52.57</time>
      </trkpt>
      <trkpt lat="48.41614" lon="-4.39556">
        <ele>125</ele>
        <time>2012-02-26T09:30:53.64</time>
      </trkpt>
      <trkpt lat="48.41619" lon="-4.39552">
        <ele>125</ele>
        <time>2012-02-26T09:30:54.54</time>
      </trkpt>
      <trkpt lat="48.41624" lon="-4.39545">
        <ele>125</ele>
        <time>2012-02-26T09:30:55.58</time>
      </trkpt>
      <trkpt lat="48.41629" lon="-4.39539">
        <ele>125</ele>
        <time>2012-02-26T09:30:56.57</time>
      </trkpt>
      <trkpt lat="48.41633" lon="-4.39533">
        <ele>126</ele>
        <time>2012-02-26T09:30:57.56</time>
      </trkpt>
      <trkpt lat="48.41637" lon="-4.39526">
        <ele>127</ele>
        <time>2012-02-26T09:30:58.56</time>
      </trkpt>
      <trkpt lat="48.41642" lon="-4.39517">
        <ele>127</ele>
        <time>2012-02-26T09:30:59.57</time>
      </trkpt>
      <trkpt lat="48.41646" lon="-4.39511">
        <ele>128</ele>
        <time>2012-02-26T09:31:00.55</time>
      </trkpt>
      <trkpt lat="48.4165" lon="-4.39505">
        <ele>129</ele>
        <time>2012-02-26T09:31:01.56</time>
      </trkpt>
      <trkpt lat="48.41655" lon="-4.39498">
        <ele>130</ele>
        <time>2012-02-26T09:31:02.55</time>
      </trkpt>
      <trkpt lat="48.4166" lon="-4.39492">
        <ele>130</ele>
        <time>2012-02-26T09:31:03.56</time>
      </trkpt>
      <trkpt lat="48.41664" lon="-4.39485">
        <ele>130</ele>
        <time>2012-02-26T09:31:04.56</time>
      </trkpt>
      <trkpt lat="48.41669" lon="-4.39479">
        <ele>129</ele>
        <time>2012-02-26T09:31:05.57</time>
      </trkpt>
      <trkpt lat="48.41674" lon="-4.39472">
        <ele>129</ele>
        <time>2012-02-26T09:31:06.56</time>
      </trkpt>
      <trkpt lat="48.41678" lon="-4.39466">
        <ele>129</ele>
        <time>2012-02-26T09:31:07.56</time>
      </trkpt>
      <trkpt lat="48.41682" lon="-4.3946">
        <ele>128</ele>
        <time>2012-02-26T09:31:08.56</time>
      </trkpt>
      <trkpt lat="48.41686" lon="-4.39453">
        <ele>127</ele>
        <time>2012-02-26T09:31:09.55</time>
      </trkpt>
      <trkpt lat="48.4169" lon="-4.39447">
        <ele>126</ele>
        <time>2012-02-26T09:31:10.55</time>
      </trkpt>
      <trkpt lat="48.41692" lon="-4.3944">
        <ele>126</ele>
        <time>2012-02-26T09:31:11.57</time>
      </trkpt>
      <trkpt lat="48.41695" lon="-4.39434">
        <ele>125</ele>
        <time>2012-02-26T09:31:12.64</time>
      </trkpt>
      <trkpt lat="48.41697" lon="-4.39427">
        <ele>125</ele>
        <time>2012-02-26T09:31:13.55</time>
      </trkpt>
      <trkpt lat="48.41699" lon="-4.39421">
        <ele>124</ele>
        <time>2012-02-26T09:31:14.57</time>
      </trkpt>
      <trkpt lat="48.41701" lon="-4.39415">
        <ele>124</ele>
        <time>2012-02-26T09:31:15.63</time>
      </trkpt>
      <trkpt lat="48.41701" lon="-4.39408">
        <ele>124</ele>
        <time>2012-02-26T09:31:16.56</time>
      </trkpt>
      <trkpt lat="48.41702" lon="-4.39402">
        <ele>124</ele>
        <time>2012-02-26T09:31:17.55</time>
      </trkpt>
      <trkpt lat="48.41703" lon="-4.39397">
        <ele>124</ele>
        <time>2012-02-26T09:31:18.57</time>
      </trkpt>
      <trkpt lat="48.41704" lon="-4.39389">
        <ele>124</ele>
        <time>2012-02-26T09:31:19.56</time>
      </trkpt>
      <trkpt lat="48.41705" lon="-4.39382">
        <ele>124</ele>
        <time>2012-02-26T09:31:20.56</time>
      </trkpt>
      <trkpt lat="48.41706" lon="-4.39376">
        <ele>124</ele>
        <time>2012-02-26T09:31:21.57</time>
      </trkpt>
      <trkpt lat="48.41706" lon="-4.39369">
        <ele>125</ele>
        <time>2012-02-26T09:31:22.56</time>
      </trkpt>
      <trkpt lat="48.41707" lon="-4.39365">
        <ele>125</ele>
        <time>2012-02-26T09:31:23.56</time>
      </trkpt>
      <trkpt lat="48.41708" lon="-4.39359">
        <ele>125</ele>
        <time>2012-02-26T09:31:24.57</time>
      </trkpt>
      <trkpt lat="48.41709" lon="-4.39352">
        <ele>125</ele>
        <time>2012-02-26T09:31:25.56</time>
      </trkpt>
      <trkpt lat="48.4171" lon="-4.39346">
        <ele>125</ele>
        <time>2012-02-26T09:31:26.56</time>
      </trkpt>
      <trkpt lat="48.41711" lon="-4.39339">
        <ele>125</ele>
        <time>2012-02-26T09:31:27.57</time>
      </trkpt>
      <trkpt lat="48.41711" lon="-4.39331">
        <ele>125</ele>
        <time>2012-02-26T09:31:28.56</time>
      </trkpt>
      <trkpt lat="48.4171" lon="-4.39324">
        <ele>125</ele>
        <time>2012-02-26T09:31:29.56</time>
      </trkpt>
      <trkpt lat="48.41708" lon="-4.39318">
        <ele>125</ele>
        <time>2012-02-26T09:31:30.57</time>
      </trkpt>
      <trkpt lat="48.41705" lon="-4.39312">
        <ele>125</ele>
        <time>2012-02-26T09:31:31.55</time>
      </trkpt>
      <trkpt lat="48.41701" lon="-4.39307">
        <ele>125</ele>
        <time>2012-02-26T09:31:32.55</time>
      </trkpt>
      <trkpt lat="48.41698" lon="-4.39301">
        <ele>125</ele>
        <time>2012-02-26T09:31:33.57</time>
      </trkpt>
      <trkpt lat="48.41695" lon="-4.39296">
        <ele>125</ele>
        <time>2012-02-26T09:31:34.55</time>
      </trkpt>
      <trkpt lat="48.41694" lon="-4.3929">
        <ele>125</ele>
        <time>2012-02-26T09:31:35.55</time>
      </trkpt>
      <trkpt lat="48.41695" lon="-4.39281">
        <ele>126</ele>
        <time>2012-02-26T09:31:36.56</time>
      </trkpt>
      <trkpt lat="48.41696" lon="-4.39275">
        <ele>126</ele>
        <time>2012-02-26T09:31:37.56</time>
      </trkpt>
      <trkpt lat="48.41697" lon="-4.39269">
        <ele>126</ele>
        <time>2012-02-26T09:31:38.56</time>
      </trkpt>
      <trkpt lat="48.41698" lon="-4.39262">
        <ele>126</ele>
        <time>2012-02-26T09:31:39.56</time>
      </trkpt>
      <trkpt lat="48.41698" lon="-4.39254">
        <ele>127</ele>
        <time>2012-02-26T09:31:40.56</time>
      </trkpt>
      <trkpt lat="48.41699" lon="-4.39245">
        <ele>127</ele>
        <time>2012-02-26T09:31:41.57</time>
      </trkpt>
      <trkpt lat="48.41701" lon="-4.39239">
        <ele>127</ele>
        <time>2012-02-26T09:31:42.56</time>
      </trkpt>
      <trkpt lat="48.41699" lon="-4.3923">
        <ele>127</ele>
        <time>2012-02-26T09:31:43.55</time>
      </trkpt>
      <trkpt lat="48.41698" lon="-4.39221">
        <ele>128</ele>
        <time>2012-02-26T09:31:44.56</time>
      </trkpt>
      <trkpt lat="48.41696" lon="-4.39213">
        <ele>128</ele>
        <time>2012-02-26T09:31:45.56</time>
      </trkpt>
      <trkpt lat="48.41694" lon="-4.39206">
        <ele>128</ele>
        <time>2012-02-26T09:31:46.56</time>
      </trkpt>
      <trkpt lat="48.41691" lon="-4.392">
        <ele>128</ele>
        <time>2012-02-26T09:31:47.56</time>
      </trkpt>
      <trkpt lat="48.41688" lon="-4.39193">
        <ele>128</ele>
        <time>2012-02-26T09:31:48.56</time>
      </trkpt>
      <trkpt lat="48.41684" lon="-4.39187">
        <ele>128</ele>
        <time>2012-02-26T09:31:49.57</time>
      </trkpt>
      <trkpt lat="48.41681" lon="-4.39181">
        <ele>128</ele>
        <time>2012-02-26T09:31:50.55</time>
      </trkpt>
      <trkpt lat="48.41678" lon="-4.39176">
        <ele>128</ele>
        <time>2012-02-26T09:31:51.56</time>
      </trkpt>
      <trkpt lat="48.41675" lon="-4.39172">
        <ele>129</ele>
        <time>2012-02-26T09:31:52.56</time>
      </trkpt>
      <trkpt lat="48.41673" lon="-4.39168">
        <ele>129</ele>
        <time>2012-02-26T09:31:53.56</time>
      </trkpt>
      <trkpt lat="48.41669" lon="-4.39163">
        <ele>129</ele>
        <time>2012-02-26T09:31:54.56</time>
      </trkpt>
      <trkpt lat="48.41667" lon="-4.39159">
        <ele>129</ele>
        <time>2012-02-26T09:31:55.55</time>
      </trkpt>
      <trkpt lat="48.41664" lon="-4.39157">
        <ele>129</ele>
        <time>2012-02-26T09:31:56.56</time>
      </trkpt>
      <trkpt lat="48.41661" lon="-4.39155">
        <ele>129</ele>
        <time>2012-02-26T09:31:57.55</time>
      </trkpt>
      <trkpt lat="48.41658" lon="-4.39157">
        <ele>129</ele>
        <time>2012-02-26T09:31:58.56</time>
      </trkpt>
      <trkpt lat="48.41657" lon="-4.39159">
        <ele>129</ele>
        <time>2012-02-26T09:31:59.56</time>
      </trkpt>
      <trkpt lat="48.41654" lon="-4.39163">
        <ele>129</ele>
        <time>2012-02-26T09:32:00.56</time>
      </trkpt>
      <trkpt lat="48.41653" lon="-4.39168">
        <ele>129</ele>
        <time>2012-02-26T09:32:01.56</time>
      </trkpt>
      <trkpt lat="48.41652" lon="-4.39174">
        <ele>129</ele>
        <time>2012-02-26T09:32:02.56</time>
      </trkpt>
      <trkpt lat="48.4165" lon="-4.39178">
        <ele>130</ele>
        <time>2012-02-26T09:32:03.56</time>
      </trkpt>
      <trkpt lat="48.41649" lon="-4.39185">
        <ele>130</ele>
        <time>2012-02-26T09:32:04.56</time>
      </trkpt>
      <trkpt lat="48.41648" lon="-4.39191">
        <ele>130</ele>
        <time>2012-02-26T09:32:05.56</time>
      </trkpt>
      <trkpt lat="48.41647" lon="-4.392">
        <ele>131</ele>
        <time>2012-02-26T09:32:06.56</time>
      </trkpt>
      <trkpt lat="48.41646" lon="-4.39206">
        <ele>131</ele>
        <time>2012-02-26T09:32:07.56</time>
      </trkpt>
      <trkpt lat="48.41644" lon="-4.39215">
        <ele>131</ele>
        <time>2012-02-26T09:32:08.56</time>
      </trkpt>
      <trkpt lat="48.41639" lon="-4.39221">
        <ele>131</ele>
        <time>2012-02-26T09:32:09.56</time>
      </trkpt>
      <trkpt lat="48.41634" lon="-4.39226">
        <ele>131</ele>
        <time>2012-02-26T09:32:10.55</time>
      </trkpt>
      <trkpt lat="48.41629" lon="-4.3923">
        <ele>131</ele>
        <time>2012-02-26T09:32:11.56</time>
      </trkpt>
      <trkpt lat="48.41623" lon="-4.39234">
        <ele>131</ele>
        <time>2012-02-26T09:32:12.56</time>
      </trkpt>
      <trkpt lat="48.41617" lon="-4.39239">
        <ele>131</ele>
        <time>2012-02-26T09:32:13.56</time>
      </trkpt>
      <trkpt lat="48.4161" lon="-4.39245">
        <ele>131</ele>
        <time>2012-02-26T09:32:14.56</time>
      </trkpt>
      <trkpt lat="48.41603" lon="-4.39251">
        <ele>131</ele>
        <time>2012-02-26T09:32:15.57</time>
      </trkpt>
      <trkpt lat="48.41596" lon="-4.39256">
        <ele>130</ele>
        <time>2012-02-26T09:32:16.56</time>
      </trkpt>
      <trkpt lat="48.4159" lon="-4.39258">
        <ele>129</ele>
        <time>2012-02-26T09:32:17.56</time>
      </trkpt>
      <trkpt lat="48.41584" lon="-4.39256">
        <ele>129</ele>
        <time>2012-02-26T09:32:18.56</time>
      </trkpt>
      <trkpt lat="48.41576" lon="-4.39254">
        <ele>128</ele>
        <time>2012-02-26T09:32:19.56</time>
      </trkpt>
      <trkpt lat="48.41569" lon="-4.39251">
        <ele>127</ele>
        <time>2012-02-26T09:32:20.56</time>
      </trkpt>
      <trkpt lat="48.4156" lon="-4.39247">
        <ele>126</ele>
        <time>2012-02-26T09:32:21.56</time>
      </trkpt>
      <trkpt lat="48.41551" lon="-4.39241">
        <ele>125</ele>
        <time>2012-02-26T09:32:22.55</time>
      </trkpt>
      <trkpt lat="48.41542" lon="-4.39236">
        <ele>125</ele>
        <time>2012-02-26T09:32:23.57</time>
      </trkpt>
      <trkpt lat="48.41533" lon="-4.39232">
        <ele>124</ele>
        <time>2012-02-26T09:32:24.56</time>
      </trkpt>
      <trkpt lat="48.41527" lon="-4.39226">
        <ele>123</ele>
        <time>2012-02-26T09:32:25.56</time>
      </trkpt>
      <trkpt lat="48.41522" lon="-4.39219">
        <ele>123</ele>
        <time>2012-02-26T09:32:26.55</time>
      </trkpt>
      <trkpt lat="48.41519" lon="-4.39213">
        <ele>122</ele>
        <time>2012-02-26T09:32:27.56</time>
      </trkpt>
      <trkpt lat="48.41518" lon="-4.39209">
        <ele>122</ele>
        <time>2012-02-26T09:32:28.56</time>
      </trkpt>
      <trkpt lat="48.41518" lon="-4.39204">
        <ele>122</ele>
        <time>2012-02-26T09:32:29.56</time>
      </trkpt>
      <trkpt lat="48.41517" lon="-4.39198">
        <ele>121</ele>
        <time>2012-02-26T09:32:30.56</time>
      </trkpt>
      <trkpt lat="48.41517" lon="-4.39193">
        <ele>121</ele>
        <time>2012-02-26T09:32:31.56</time>
      </trkpt>
      <trkpt lat="48.41516" lon="-4.39189">
        <ele>121</ele>
        <time>2012-02-26T09:32:32.56</time>
      </trkpt>
      <trkpt lat="48.41515" lon="-4.39183">
        <ele>121</ele>
        <time>2012-02-26T09:32:33.56</time>
      </trkpt>
      <trkpt lat="48.41514" lon="-4.39178">
        <ele>121</ele>
        <time>2012-02-26T09:32:34.56</time>
      </trkpt>
      <trkpt lat="48.41513" lon="-4.39174">
        <ele>121</ele>
        <time>2012-02-26T09:32:35.56</time>
      </trkpt>
      <trkpt lat="48.41512" lon="-4.39172">
        <ele>121</ele>
        <time>2012-02-26T09:32:36.56</time>
      </trkpt>
      <trkpt lat="48.41512" lon="-4.39168">
        <ele>121</ele>
        <time>2012-02-26T09:32:37.56</time>
      </trkpt>
      <trkpt lat="48.41511" lon="-4.39166">
        <ele>121</ele>
        <time>2012-02-26T09:32:38.56</time>
      </trkpt>
      <trkpt lat="48.41511" lon="-4.39161">
        <ele>121</ele>
        <time>2012-02-26T09:32:39.57</time>
      </trkpt>
      <trkpt lat="48.4151" lon="-4.39159">
        <ele>121</ele>
        <time>2012-02-26T09:32:40.56</time>
      </trkpt>
      <trkpt lat="48.41507" lon="-4.39155">
        <ele>121</ele>
        <time>2012-02-26T09:32:41.56</time>
      </trkpt>
      <trkpt lat="48.41504" lon="-4.39153">
        <ele>121</ele>
        <time>2012-02-26T09:32:42.56</time>
      </trkpt>
      <trkpt lat="48.41501" lon="-4.39151">
        <ele>120</ele>
        <time>2012-02-26T09:32:43.56</time>
      </trkpt>
      <trkpt lat="48.41497" lon="-4.39151">
        <ele>120</ele>
        <time>2012-02-26T09:32:44.56</time>
      </trkpt>
      <trkpt lat="48.41492" lon="-4.39148">
        <ele>119</ele>
        <time>2012-02-26T09:32:45.56</time>
      </trkpt>
      <trkpt lat="48.41489" lon="-4.39144">
        <ele>119</ele>
        <time>2012-02-26T09:32:46.55</time>
      </trkpt>
      <trkpt lat="48.41485" lon="-4.39142">
        <ele>119</ele>
        <time>2012-02-26T09:32:47.56</time>
      </trkpt>
      <trkpt lat="48.41482" lon="-4.3914">
        <ele>119</ele>
        <time>2012-02-26T09:32:48.56</time>
      </trkpt>
      <trkpt lat="48.41478" lon="-4.39138">
        <ele>119</ele>
        <time>2012-02-26T09:32:49.56</time>
      </trkpt>
      <trkpt lat="48.41472" lon="-4.39155">
        <ele>118</ele>
        <time>2012-02-26T09:32:56.56</time>
      </trkpt>
      <trkpt lat="48.41474" lon="-4.39187">
        <ele>119</ele>
        <time>2012-02-26T09:33:03.56</time>
      </trkpt>
      <trkpt lat="48.41475" lon="-4.39202">
        <ele>120</ele>
        <time>2012-02-26T09:33:08.56</time>
      </trkpt>
      <trkpt lat="48.41478" lon="-4.39217">
        <ele>120</ele>
        <time>2012-02-26T09:33:13.56</time>
      </trkpt>
      <trkpt lat="48.4148" lon="-4.39232">
        <ele>121</ele>
        <time>2012-02-26T09:33:18.56</time>
      </trkpt>
      <trkpt lat="48.41481" lon="-4.39239">
        <ele>122</ele>
        <time>2012-02-26T09:33:20.56</time>
      </trkpt>
      <trkpt lat="48.41481" lon="-4.39243">
        <ele>122</ele>
        <time>2012-02-26T09:33:21.56</time>
      </trkpt>
      <trkpt lat="48.41481" lon="-4.39247">
        <ele>122</ele>
        <time>2012-02-26T09:33:22.56</time>
      </trkpt>
      <trkpt lat="48.41481" lon="-4.39249">
        <ele>122</ele>
        <time>2012-02-26T09:33:23.56</time>
      </trkpt>
      <trkpt lat="48.41482" lon="-4.39256">
        <ele>122</ele>
        <time>2012-02-26T09:33:24.56</time>
      </trkpt>
      <trkpt lat="48.41482" lon="-4.39264">
        <ele>121</ele>
        <time>2012-02-26T09:33:26.56</time>
      </trkpt>
      <trkpt lat="48.41482" lon="-4.39269">
        <ele>121</ele>
        <time>2012-02-26T09:33:27.56</time>
      </trkpt>
      <trkpt lat="48.41481" lon="-4.39277">
        <ele>121</ele>
        <time>2012-02-26T09:33:30.56</time>
      </trkpt>
      <trkpt lat="48.4148" lon="-4.39281">
        <ele>120</ele>
        <time>2012-02-26T09:33:32.56</time>
      </trkpt>
      <trkpt lat="48.41478" lon="-4.39284">
        <ele>120</ele>
        <time>2012-02-26T09:33:33.56</time>
      </trkpt>
      <trkpt lat="48.41477" lon="-4.39288">
        <ele>120</ele>
        <time>2012-02-26T09:33:35.56</time>
      </trkpt>
      <trkpt lat="48.41476" lon="-4.39292">
        <ele>120</ele>
        <time>2012-02-26T09:33:36.56</time>
      </trkpt>
      <trkpt lat="48.41475" lon="-4.39294">
        <ele>120</ele>
        <time>2012-02-26T09:33:37.56</time>
      </trkpt>
      <trkpt lat="48.41474" lon="-4.39296">
        <ele>120</ele>
        <time>2012-02-26T09:33:38.56</time>
      </trkpt>
      <trkpt lat="48.41473" lon="-4.39301">
        <ele>120</ele>
        <time>2012-02-26T09:33:40.56</time>
      </trkpt>
      <trkpt lat="48.41473" lon="-4.39305">
        <ele>120</ele>
        <time>2012-02-26T09:33:42.56</time>
      </trkpt>
      <trkpt lat="48.4147" lon="-4.39314">
        <ele>120</ele>
        <time>2012-02-26T09:33:45.56</time>
      </trkpt>
      <trkpt lat="48.41465" lon="-4.39324">
        <ele>120</ele>
        <time>2012-02-26T09:33:50.57</time>
      </trkpt>
      <trkpt lat="48.41458" lon="-4.39337">
        <ele>120</ele>
        <time>2012-02-26T09:33:55.56</time>
      </trkpt>
      <trkpt lat="48.41452" lon="-4.3935">
        <ele>120</ele>
        <time>2012-02-26T09:34:00.56</time>
      </trkpt>
      <trkpt lat="48.41447" lon="-4.39361">
        <ele>120</ele>
        <time>2012-02-26T09:34:02.56</time>
      </trkpt>
      <trkpt lat="48.41445" lon="-4.39365">
        <ele>120</ele>
        <time>2012-02-26T09:34:03.56</time>
      </trkpt>
      <trkpt lat="48.41443" lon="-4.39372">
        <ele>120</ele>
        <time>2012-02-26T09:34:04.56</time>
      </trkpt>
      <trkpt lat="48.41441" lon="-4.39376">
        <ele>120</ele>
        <time>2012-02-26T09:34:05.56</time>
      </trkpt>
      <trkpt lat="48.41438" lon="-4.39391">
        <ele>120</ele>
        <time>2012-02-26T09:34:09.56</time>
      </trkpt>
      <trkpt lat="48.41436" lon="-4.39397">
        <ele>120</ele>
        <time>2012-02-26T09:34:11.56</time>
      </trkpt>
      <trkpt lat="48.41434" lon="-4.39402">
        <ele>120</ele>
        <time>2012-02-26T09:34:13.56</time>
      </trkpt>
      <trkpt lat="48.41433" lon="-4.39406">
        <ele>120</ele>
        <time>2012-02-26T09:34:14.56</time>
      </trkpt>
      <trkpt lat="48.41432" lon="-4.3941">
        <ele>120</ele>
        <time>2012-02-26T09:34:15.56</time>
      </trkpt>
      <trkpt lat="48.41431" lon="-4.39412">
        <ele>120</ele>
        <time>2012-02-26T09:34:16.56</time>
      </trkpt>
      <trkpt lat="48.41431" lon="-4.39417">
        <ele>120</ele>
        <time>2012-02-26T09:34:17.56</time>
      </trkpt>
      <trkpt lat="48.41429" lon="-4.39423">
        <ele>120</ele>
        <time>2012-02-26T09:34:20.56</time>
      </trkpt>
      <trkpt lat="48.41427" lon="-4.3943">
        <ele>120</ele>
        <time>2012-02-26T09:34:23.56</time>
      </trkpt>
      <trkpt lat="48.41427" lon="-4.39432">
        <ele>120</ele>
        <time>2012-02-26T09:34:24.57</time>
      </trkpt>
      <trkpt lat="48.41426" lon="-4.39434">
        <ele>120</ele>
        <time>2012-02-26T09:34:25.56</time>
      </trkpt>
      <trkpt lat="48.41424" lon="-4.39442">
        <ele>120</ele>
        <time>2012-02-26T09:34:28.56</time>
      </trkpt>
      <trkpt lat="48.41419" lon="-4.39455">
        <ele>120</ele>
        <time>2012-02-26T09:34:33.56</time>
      </trkpt>
      <trkpt lat="48.41419" lon="-4.39457">
        <ele>120</ele>
        <time>2012-02-26T09:34:34.56</time>
      </trkpt>
      <trkpt lat="48.41418" lon="-4.39462">
        <ele>120</ele>
        <time>2012-02-26T09:34:35.56</time>
      </trkpt>
      <trkpt lat="48.41417" lon="-4.39464">
        <ele>120</ele>
        <time>2012-02-26T09:34:36.56</time>
      </trkpt>
      <trkpt lat="48.41416" lon="-4.39466">
        <ele>120</ele>
        <time>2012-02-26T09:34:37.56</time>
      </trkpt>
      <trkpt lat="48.41415" lon="-4.3947">
        <ele>120</ele>
        <time>2012-02-26T09:34:38.56</time>
      </trkpt>
      <trkpt lat="48.41414" lon="-4.39475">
        <ele>120</ele>
        <time>2012-02-26T09:34:39.56</time>
      </trkpt>
      <trkpt lat="48.41412" lon="-4.3949">
        <ele>121</ele>
        <time>2012-02-26T09:34:44.56</time>
      </trkpt>
      <trkpt lat="48.41411" lon="-4.39494">
        <ele>121</ele>
        <time>2012-02-26T09:34:45.56</time>
      </trkpt>
      <trkpt lat="48.41411" lon="-4.39498">
        <ele>121</ele>
        <time>2012-02-26T09:34:46.56</time>
      </trkpt>
      <trkpt lat="48.4141" lon="-4.395">
        <ele>121</ele>
        <time>2012-02-26T09:34:47.56</time>
      </trkpt>
      <trkpt lat="48.41409" lon="-4.39505">
        <ele>121</ele>
        <time>2012-02-26T09:34:48.56</time>
      </trkpt>
      <trkpt lat="48.41408" lon="-4.39509">
        <ele>121</ele>
        <time>2012-02-26T09:34:49.56</time>
      </trkpt>
      <trkpt lat="48.41407" lon="-4.39513">
        <ele>122</ele>
        <time>2012-02-26T09:34:50.56</time>
      </trkpt>
      <trkpt lat="48.41406" lon="-4.39515">
        <ele>122</ele>
        <time>2012-02-26T09:34:51.56</time>
      </trkpt>
      <trkpt lat="48.41404" lon="-4.3952">
        <ele>122</ele>
        <time>2012-02-26T09:34:52.56</time>
      </trkpt>
      <trkpt lat="48.41403" lon="-4.39526">
        <ele>122</ele>
        <time>2012-02-26T09:34:53.56</time>
      </trkpt>
      <trkpt lat="48.41402" lon="-4.3953">
        <ele>122</ele>
        <time>2012-02-26T09:34:54.56</time>
      </trkpt>
      <trkpt lat="48.41401" lon="-4.39535">
        <ele>123</ele>
        <time>2012-02-26T09:34:55.56</time>
      </trkpt>
      <trkpt lat="48.414" lon="-4.39537">
        <ele>123</ele>
        <time>2012-02-26T09:34:56.56</time>
      </trkpt>
      <trkpt lat="48.41399" lon="-4.39541">
        <ele>123</ele>
        <time>2012-02-26T09:34:57.56</time>
      </trkpt>
      <trkpt lat="48.41398" lon="-4.39543">
        <ele>123</ele>
        <time>2012-02-26T09:34:58.56</time>
      </trkpt>
      <trkpt lat="48.41398" lon="-4.39548">
        <ele>124</ele>
        <time>2012-02-26T09:34:59.56</time>
      </trkpt>
      <trkpt lat="48.41397" lon="-4.39554">
        <ele>124</ele>
        <time>2012-02-26T09:35:02.56</time>
      </trkpt>
      <trkpt lat="48.41396" lon="-4.39554">
        <ele>124</ele>
        <time>2012-02-26T09:35:03.56</time>
      </trkpt>
      <trkpt lat="48.41396" lon="-4.39556">
        <ele>125</ele>
        <time>2012-02-26T09:35:04.56</time>
      </trkpt>
      <trkpt lat="48.41396" lon="-4.39558">
        <ele>125</ele>
        <time>2012-02-26T09:35:05.56</time>
      </trkpt>
      <trkpt lat="48.41395" lon="-4.39558">
        <ele>125</ele>
        <time>2012-02-26T09:35:06.57</time>
      </trkpt>
      <trkpt lat="48.41394" lon="-4.39558">
        <ele>125</ele>
        <time>2012-02-26T09:35:08.56</time>
      </trkpt>
      <trkpt lat="48.41393" lon="-4.39556">
        <ele>126</ele>
        <time>2012-02-26T09:35:09.56</time>
      </trkpt>
      <trkpt lat="48.41392" lon="-4.39556">
        <ele>126</ele>
        <time>2012-02-26T09:35:10.56</time>
      </trkpt>
      <trkpt lat="48.4139" lon="-4.39554">
        <ele>126</ele>
        <time>2012-02-26T09:35:11.56</time>
      </trkpt>
      <trkpt lat="48.41389" lon="-4.39554">
        <ele>126</ele>
        <time>2012-02-26T09:35:12.56</time>
      </trkpt>
      <trkpt lat="48.41388" lon="-4.39554">
        <ele>126</ele>
        <time>2012-02-26T09:35:13.56</time>
      </trkpt>
      <trkpt lat="48.41388" lon="-4.39552">
        <ele>127</ele>
        <time>2012-02-26T09:35:14.56</time>
      </trkpt>
      <trkpt lat="48.41387" lon="-4.39552">
        <ele>127</ele>
        <time>2012-02-26T09:35:15.56</time>
      </trkpt>
      <trkpt lat="48.41386" lon="-4.39552">
        <ele>127</ele>
        <time>2012-02-26T09:35:16.56</time>
      </trkpt>
      <trkpt lat="48.41386" lon="-4.3955">
        <ele>127</ele>
        <time>2012-02-26T09:35:17.56</time>
      </trkpt>
      <trkpt lat="48.41385" lon="-4.3955">
        <ele>128</ele>
        <time>2012-02-26T09:35:18.56</time>
      </trkpt>
      <trkpt lat="48.41384" lon="-4.39548">
        <ele>128</ele>
        <time>2012-02-26T09:35:19.56</time>
      </trkpt>
      <trkpt lat="48.41382" lon="-4.39548">
        <ele>128</ele>
        <time>2012-02-26T09:35:20.56</time>
      </trkpt>
      <trkpt lat="48.41381" lon="-4.39545">
        <ele>128</ele>
        <time>2012-02-26T09:35:21.56</time>
      </trkpt>
      <trkpt lat="48.4138" lon="-4.39545">
        <ele>129</ele>
        <time>2012-02-26T09:35:22.56</time>
      </trkpt>
      <trkpt lat="48.4138" lon="-4.39543">
        <ele>129</ele>
        <time>2012-02-26T09:35:23.56</time>
      </trkpt>
      <trkpt lat="48.41379" lon="-4.39541">
        <ele>129</ele>
        <time>2012-02-26T09:35:24.56</time>
      </trkpt>
      <trkpt lat="48.4138" lon="-4.39541">
        <ele>129</ele>
        <time>2012-02-26T09:35:25.56</time>
      </trkpt>
      <trkpt lat="48.4138" lon="-4.39539">
        <ele>129</ele>
        <time>2012-02-26T09:35:26.56</time>
      </trkpt>
      <trkpt lat="48.41372" lon="-4.39535">
        <ele>130</ele>
        <time>2012-02-26T09:35:33.56</time>
      </trkpt>
      <trkpt lat="48.41374" lon="-4.39533">
        <ele>130</ele>
        <time>2012-02-26T09:35:38.56</time>
      </trkpt>
      <trkpt lat="48.41377" lon="-4.3953">
        <ele>130</ele>
        <time>2012-02-26T09:35:39.56</time>
      </trkpt>
      <trkpt lat="48.41378" lon="-4.39528">
        <ele>130</ele>
        <time>2012-02-26T09:35:40.56</time>
      </trkpt>
      <trkpt lat="48.41379" lon="-4.39526">
        <ele>130</ele>
        <time>2012-02-26T09:35:41.56</time>
      </trkpt>
      <trkpt lat="48.41381" lon="-4.39524">
        <ele>130</ele>
        <time>2012-02-26T09:35:42.56</time>
      </trkpt>
      <trkpt lat="48.41382" lon="-4.3952">
        <ele>130</ele>
        <time>2012-02-26T09:35:43.56</time>
      </trkpt>
      <trkpt lat="48.41382" lon="-4.39515">
        <ele>130</ele>
        <time>2012-02-26T09:35:44.56</time>
      </trkpt>
      <trkpt lat="48.41383" lon="-4.39511">
        <ele>130</ele>
        <time>2012-02-26T09:35:45.56</time>
      </trkpt>
      <trkpt lat="48.41384" lon="-4.39507">
        <ele>130</ele>
        <time>2012-02-26T09:35:46.56</time>
      </trkpt>
      <trkpt lat="48.41385" lon="-4.39505">
        <ele>130</ele>
        <time>2012-02-26T09:35:47.56</time>
      </trkpt>
      <trkpt lat="48.41386" lon="-4.395">
        <ele>130</ele>
        <time>2012-02-26T09:35:48.56</time>
      </trkpt>
      <trkpt lat="48.41387" lon="-4.39494">
        <ele>130</ele>
        <time>2012-02-26T09:35:49.56</time>
      </trkpt>
      <trkpt lat="48.41388" lon="-4.39492">
        <ele>130</ele>
        <time>2012-02-26T09:35:50.56</time>
      </trkpt>
      <trkpt lat="48.4139" lon="-4.3949">
        <ele>130</ele>
        <time>2012-02-26T09:35:51.56</time>
      </trkpt>
      <trkpt lat="48.41392" lon="-4.39487">
        <ele>130</ele>
        <time>2012-02-26T09:35:52.56</time>
      </trkpt>
      <trkpt lat="48.41394" lon="-4.39483">
        <ele>130</ele>
        <time>2012-02-26T09:35:53.56</time>
      </trkpt>
      <trkpt lat="48.41396" lon="-4.39479">
        <ele>130</ele>
        <time>2012-02-26T09:35:54.56</time>
      </trkpt>
      <trkpt lat="48.41397" lon="-4.39475">
        <ele>130</ele>
        <time>2012-02-26T09:35:55.56</time>
      </trkpt>
      <trkpt lat="48.41399" lon="-4.3947">
        <ele>131</ele>
        <time>2012-02-26T09:35:56.56</time>
      </trkpt>
      <trkpt lat="48.41401" lon="-4.39464">
        <ele>131</ele>
        <time>2012-02-26T09:35:57.56</time>
      </trkpt>
      <trkpt lat="48.41403" lon="-4.39457">
        <ele>132</ele>
        <time>2012-02-26T09:35:58.56</time>
      </trkpt>
      <trkpt lat="48.41406" lon="-4.39451">
        <ele>132</ele>
        <time>2012-02-26T09:35:59.56</time>
      </trkpt>
      <trkpt lat="48.41408" lon="-4.39445">
        <ele>132</ele>
        <time>2012-02-26T09:36:00.56</time>
      </trkpt>
      <trkpt lat="48.41409" lon="-4.39438">
        <ele>132</ele>
        <time>2012-02-26T09:36:01.56</time>
      </trkpt>
      <trkpt lat="48.41411" lon="-4.39436">
        <ele>132</ele>
        <time>2012-02-26T09:36:02.56</time>
      </trkpt>
      <trkpt lat="48.41412" lon="-4.39432">
        <ele>132</ele>
        <time>2012-02-26T09:36:03.56</time>
      </trkpt>
      <trkpt lat="48.41413" lon="-4.3943">
        <ele>132</ele>
        <time>2012-02-26T09:36:04.56</time>
      </trkpt>
      <trkpt lat="48.41414" lon="-4.39425">
        <ele>132</ele>
        <time>2012-02-26T09:36:05.56</time>
      </trkpt>
      <trkpt lat="48.41414" lon="-4.39419">
        <ele>132</ele>
        <time>2012-02-26T09:36:06.56</time>
      </trkpt>
      <trkpt lat="48.41415" lon="-4.39412">
        <ele>132</ele>
        <time>2012-02-26T09:36:07.56</time>
      </trkpt>
      <trkpt lat="48.41415" lon="-4.39406">
        <ele>133</ele>
        <time>2012-02-26T09:36:08.56</time>
      </trkpt>
      <trkpt lat="48.41416" lon="-4.39399">
        <ele>133</ele>
        <time>2012-02-26T09:36:09.56</time>
      </trkpt>
      <trkpt lat="48.41416" lon="-4.39393">
        <ele>134</ele>
        <time>2012-02-26T09:36:10.56</time>
      </trkpt>
      <trkpt lat="48.41417" lon="-4.39387">
        <ele>134</ele>
        <time>2012-02-26T09:36:11.56</time>
      </trkpt>
      <trkpt lat="48.41419" lon="-4.39378">
        <ele>134</ele>
        <time>2012-02-26T09:36:12.56</time>
      </trkpt>
      <trkpt lat="48.41421" lon="-4.39369">
        <ele>134</ele>
        <time>2012-02-26T09:36:13.56</time>
      </trkpt>
      <trkpt lat="48.41422" lon="-4.39361">
        <ele>134</ele>
        <time>2012-02-26T09:36:14.56</time>
      </trkpt>
      <trkpt lat="48.41424" lon="-4.39354">
        <ele>133</ele>
        <time>2012-02-26T09:36:15.56</time>
      </trkpt>
      <trkpt lat="48.41425" lon="-4.39346">
        <ele>133</ele>
        <time>2012-02-26T09:36:16.56</time>
      </trkpt>
      <trkpt lat="48.41426" lon="-4.39339">
        <ele>134</ele>
        <time>2012-02-26T09:36:17.56</time>
      </trkpt>
      <trkpt lat="48.41427" lon="-4.39331">
        <ele>134</ele>
        <time>2012-02-26T09:36:18.56</time>
      </trkpt>
      <trkpt lat="48.41428" lon="-4.39322">
        <ele>134</ele>
        <time>2012-02-26T09:36:19.56</time>
      </trkpt>
      <trkpt lat="48.4143" lon="-4.39316">
        <ele>135</ele>
        <time>2012-02-26T09:36:20.56</time>
      </trkpt>
      <trkpt lat="48.41432" lon="-4.39307">
        <ele>135</ele>
        <time>2012-02-26T09:36:21.56</time>
      </trkpt>
      <trkpt lat="48.41436" lon="-4.39299">
        <ele>135</ele>
        <time>2012-02-26T09:36:22.56</time>
      </trkpt>
      <trkpt lat="48.41438" lon="-4.39292">
        <ele>134</ele>
        <time>2012-02-26T09:36:23.56</time>
      </trkpt>
      <trkpt lat="48.41439" lon="-4.39286">
        <ele>134</ele>
        <time>2012-02-26T09:36:24.56</time>
      </trkpt>
      <trkpt lat="48.41441" lon="-4.39277">
        <ele>134</ele>
        <time>2012-02-26T09:36:25.56</time>
      </trkpt>
      <trkpt lat="48.41442" lon="-4.39269">
        <ele>133</ele>
        <time>2012-02-26T09:36:26.56</time>
      </trkpt>
      <trkpt lat="48.41443" lon="-4.3926">
        <ele>133</ele>
        <time>2012-02-26T09:36:27.56</time>
      </trkpt>
      <trkpt lat="48.41442" lon="-4.39254">
        <ele>133</ele>
        <time>2012-02-26T09:36:28.56</time>
      </trkpt>
      <trkpt lat="48.41441" lon="-4.39245">
        <ele>133</ele>
        <time>2012-02-26T09:36:29.56</time>
      </trkpt>
      <trkpt lat="48.41439" lon="-4.39236">
        <ele>133</ele>
        <time>2012-02-26T09:36:30.56</time>
      </trkpt>
      <trkpt lat="48.41438" lon="-4.39228">
        <ele>133</ele>
        <time>2012-02-26T09:36:31.56</time>
      </trkpt>
      <trkpt lat="48.41434" lon="-4.39219">
        <ele>133</ele>
        <time>2012-02-26T09:36:32.56</time>
      </trkpt>
      <trkpt lat="48.41431" lon="-4.39213">
        <ele>132</ele>
        <time>2012-02-26T09:36:33.56</time>
      </trkpt>
      <trkpt lat="48.41427" lon="-4.39206">
        <ele>131</ele>
        <time>2012-02-26T09:36:34.56</time>
      </trkpt>
      <trkpt lat="48.41423" lon="-4.39202">
        <ele>131</ele>
        <time>2012-02-26T09:36:35.56</time>
      </trkpt>
      <trkpt lat="48.41419" lon="-4.392">
        <ele>130</ele>
        <time>2012-02-26T09:36:36.56</time>
      </trkpt>
      <trkpt lat="48.41415" lon="-4.39198">
        <ele>130</ele>
        <time>2012-02-26T09:36:37.56</time>
      </trkpt>
      <trkpt lat="48.41412" lon="-4.39196">
        <ele>130</ele>
        <time>2012-02-26T09:36:38.56</time>
      </trkpt>
      <trkpt lat="48.41408" lon="-4.39196">
        <ele>130</ele>
        <time>2012-02-26T09:36:39.56</time>
      </trkpt>
      <trkpt lat="48.41404" lon="-4.39193">
        <ele>130</ele>
        <time>2012-02-26T09:36:40.56</time>
      </trkpt>
      <trkpt lat="48.41402" lon="-4.39191">
        <ele>130</ele>
        <time>2012-02-26T09:36:41.56</time>
      </trkpt>
      <trkpt lat="48.41401" lon="-4.39187">
        <ele>130</ele>
        <time>2012-02-26T09:36:42.56</time>
      </trkpt>
      <trkpt lat="48.414" lon="-4.39181">
        <ele>130</ele>
        <time>2012-02-26T09:36:43.56</time>
      </trkpt>
      <trkpt lat="48.414" lon="-4.39174">
        <ele>130</ele>
        <time>2012-02-26T09:36:44.56</time>
      </trkpt>
      <trkpt lat="48.41399" lon="-4.39166">
        <ele>130</ele>
        <time>2012-02-26T09:36:45.57</time>
      </trkpt>
      <trkpt lat="48.41399" lon="-4.39157">
        <ele>129</ele>
        <time>2012-02-26T09:36:46.56</time>
      </trkpt>
      <trkpt lat="48.41399" lon="-4.39146">
        <ele>129</ele>
        <time>2012-02-26T09:36:47.56</time>
      </trkpt>
      <trkpt lat="48.414" lon="-4.39138">
        <ele>129</ele>
        <time>2012-02-26T09:36:48.56</time>
      </trkpt>
      <trkpt lat="48.414" lon="-4.39129">
        <ele>130</ele>
        <time>2012-02-26T09:36:49.56</time>
      </trkpt>
      <trkpt lat="48.41401" lon="-4.39121">
        <ele>130</ele>
        <time>2012-02-26T09:36:50.56</time>
      </trkpt>
      <trkpt lat="48.41401" lon="-4.39112">
        <ele>130</ele>
        <time>2012-02-26T09:36:51.57</time>
      </trkpt>
      <trkpt lat="48.41401" lon="-4.39103">
        <ele>130</ele>
        <time>2012-02-26T09:36:52.56</time>
      </trkpt>
      <trkpt lat="48.414" lon="-4.39095">
        <ele>130</ele>
        <time>2012-02-26T09:36:53.56</time>
      </trkpt>
      <trkpt lat="48.414" lon="-4.39088">
        <ele>130</ele>
        <time>2012-02-26T09:36:54.56</time>
      </trkpt>
      <trkpt lat="48.414" lon="-4.39082">
        <ele>130</ele>
        <time>2012-02-26T09:36:55.56</time>
      </trkpt>
      <trkpt lat="48.41401" lon="-4.39073">
        <ele>130</ele>
        <time>2012-02-26T09:36:56.57</time>
      </trkpt>
      <trkpt lat="48.41401" lon="-4.39067">
        <ele>130</ele>
        <time>2012-02-26T09:36:57.57</time>
      </trkpt>
      <trkpt lat="48.41401" lon="-4.39058">
        <ele>131</ele>
        <time>2012-02-26T09:36:58.56</time>
      </trkpt>
      <trkpt lat="48.41402" lon="-4.39052">
        <ele>131</ele>
        <time>2012-02-26T09:36:59.56</time>
      </trkpt>
      <trkpt lat="48.41403" lon="-4.39043">
        <ele>132</ele>
        <time>2012-02-26T09:37:00.56</time>
      </trkpt>
      <trkpt lat="48.41403" lon="-4.39035">
        <ele>131</ele>
        <time>2012-02-26T09:37:01.56</time>
      </trkpt>
      <trkpt lat="48.41403" lon="-4.39026">
        <ele>131</ele>
        <time>2012-02-26T09:37:02.56</time>
      </trkpt>
      <trkpt lat="48.41402" lon="-4.39018">
        <ele>130</ele>
        <time>2012-02-26T09:37:03.56</time>
      </trkpt>
      <trkpt lat="48.41402" lon="-4.39015">
        <ele>130</ele>
        <time>2012-02-26T09:37:04.56</time>
      </trkpt>
      <trkpt lat="48.41401" lon="-4.39011">
        <ele>130</ele>
        <time>2012-02-26T09:37:05.56</time>
      </trkpt>
      <trkpt lat="48.414" lon="-4.39007">
        <ele>130</ele>
        <time>2012-02-26T09:37:07.57</time>
      </trkpt>
      <trkpt lat="48.41402" lon="-4.39">
        <ele>130</ele>
        <time>2012-02-26T09:37:12.57</time>
      </trkpt>
      <trkpt lat="48.41404" lon="-4.38998">
        <ele>130</ele>
        <time>2012-02-26T09:37:13.56</time>
      </trkpt>
      <trkpt lat="48.41408" lon="-4.38994">
        <ele>130</ele>
        <time>2012-02-26T09:37:14.56</time>
      </trkpt>
      <trkpt lat="48.4141" lon="-4.3899">
        <ele>130</ele>
        <time>2012-02-26T09:37:15.56</time>
      </trkpt>
      <trkpt lat="48.41412" lon="-4.38983">
        <ele>129</ele>
        <time>2012-02-26T09:37:16.56</time>
      </trkpt>
      <trkpt lat="48.41413" lon="-4.38975">
        <ele>128</ele>
        <time>2012-02-26T09:37:17.56</time>
      </trkpt>
      <trkpt lat="48.41414" lon="-4.38968">
        <ele>128</ele>
        <time>2012-02-26T09:37:18.57</time>
      </trkpt>
      <trkpt lat="48.41416" lon="-4.38962">
        <ele>127</ele>
        <time>2012-02-26T09:37:19.57</time>
      </trkpt>
      <trkpt lat="48.41416" lon="-4.38955">
        <ele>127</ele>
        <time>2012-02-26T09:37:20.56</time>
      </trkpt>
      <trkpt lat="48.41415" lon="-4.38949">
        <ele>127</ele>
        <time>2012-02-26T09:37:21.56</time>
      </trkpt>
      <trkpt lat="48.41412" lon="-4.38945">
        <ele>127</ele>
        <time>2012-02-26T09:37:22.56</time>
      </trkpt>
      <trkpt lat="48.41409" lon="-4.3894">
        <ele>127</ele>
        <time>2012-02-26T09:37:23.56</time>
      </trkpt>
      <trkpt lat="48.41406" lon="-4.38938">
        <ele>127</ele>
        <time>2012-02-26T09:37:24.57</time>
      </trkpt>
      <trkpt lat="48.41402" lon="-4.38936">
        <ele>127</ele>
        <time>2012-02-26T09:37:25.56</time>
      </trkpt>
      <trkpt lat="48.41399" lon="-4.38934">
        <ele>127</ele>
        <time>2012-02-26T09:37:26.56</time>
      </trkpt>
      <trkpt lat="48.41396" lon="-4.38934">
        <ele>127</ele>
        <time>2012-02-26T09:37:27.58</time>
      </trkpt>
      <trkpt lat="48.41393" lon="-4.38932">
        <ele>127</ele>
        <time>2012-02-26T09:37:28.63</time>
      </trkpt>
      <trkpt lat="48.41389" lon="-4.3893">
        <ele>127</ele>
        <time>2012-02-26T09:37:29.56</time>
      </trkpt>
      <trkpt lat="48.41387" lon="-4.3893">
        <ele>127</ele>
        <time>2012-02-26T09:37:30.57</time>
      </trkpt>
      <trkpt lat="48.41383" lon="-4.38927">
        <ele>126</ele>
        <time>2012-02-26T09:37:32.56</time>
      </trkpt>
      <trkpt lat="48.4138" lon="-4.38925">
        <ele>126</ele>
        <time>2012-02-26T09:37:33.56</time>
      </trkpt>
      <trkpt lat="48.41378" lon="-4.38923">
        <ele>126</ele>
        <time>2012-02-26T09:37:34.56</time>
      </trkpt>
      <trkpt lat="48.41375" lon="-4.38923">
        <ele>126</ele>
        <time>2012-02-26T09:37:35.56</time>
      </trkpt>
      <trkpt lat="48.41373" lon="-4.38921">
        <ele>126</ele>
        <time>2012-02-26T09:37:36.57</time>
      </trkpt>
      <trkpt lat="48.4137" lon="-4.38921">
        <ele>126</ele>
        <time>2012-02-26T09:37:37.57</time>
      </trkpt>
      <trkpt lat="48.41368" lon="-4.38919">
        <ele>126</ele>
        <time>2012-02-26T09:37:38.56</time>
      </trkpt>
      <trkpt lat="48.41366" lon="-4.38919">
        <ele>126</ele>
        <time>2012-02-26T09:37:39.56</time>
      </trkpt>
      <trkpt lat="48.41363" lon="-4.38917">
        <ele>126</ele>
        <time>2012-02-26T09:37:40.56</time>
      </trkpt>
      <trkpt lat="48.4136" lon="-4.38917">
        <ele>126</ele>
        <time>2012-02-26T09:37:41.56</time>
      </trkpt>
      <trkpt lat="48.41358" lon="-4.38915">
        <ele>126</ele>
        <time>2012-02-26T09:37:42.57</time>
      </trkpt>
      <trkpt lat="48.41356" lon="-4.38915">
        <ele>126</ele>
        <time>2012-02-26T09:37:43.56</time>
      </trkpt>
      <trkpt lat="48.41354" lon="-4.38912">
        <ele>125</ele>
        <time>2012-02-26T09:37:44.57</time>
      </trkpt>
      <trkpt lat="48.41352" lon="-4.38912">
        <ele>125</ele>
        <time>2012-02-26T09:37:45.56</time>
      </trkpt>
      <trkpt lat="48.4135" lon="-4.3891">
        <ele>125</ele>
        <time>2012-02-26T09:37:46.56</time>
      </trkpt>
      <trkpt lat="48.41347" lon="-4.3891">
        <ele>125</ele>
        <time>2012-02-26T09:37:47.56</time>
      </trkpt>
      <trkpt lat="48.41344" lon="-4.38908">
        <ele>125</ele>
        <time>2012-02-26T09:37:48.57</time>
      </trkpt>
      <trkpt lat="48.41342" lon="-4.38906">
        <ele>125</ele>
        <time>2012-02-26T09:37:49.56</time>
      </trkpt>
      <trkpt lat="48.4134" lon="-4.38906">
        <ele>125</ele>
        <time>2012-02-26T09:37:50.57</time>
      </trkpt>
      <trkpt lat="48.41338" lon="-4.38904">
        <ele>125</ele>
        <time>2012-02-26T09:37:51.56</time>
      </trkpt>
      <trkpt lat="48.41336" lon="-4.38902">
        <ele>125</ele>
        <time>2012-02-26T09:37:52.57</time>
      </trkpt>
      <trkpt lat="48.41334" lon="-4.38902">
        <ele>125</ele>
        <time>2012-02-26T09:37:53.57</time>
      </trkpt>
      <trkpt lat="48.41331" lon="-4.389">
        <ele>125</ele>
        <time>2012-02-26T09:37:54.57</time>
      </trkpt>
      <trkpt lat="48.41328" lon="-4.38897">
        <ele>125</ele>
        <time>2012-02-26T09:37:55.57</time>
      </trkpt>
      <trkpt lat="48.41326" lon="-4.38895">
        <ele>125</ele>
        <time>2012-02-26T09:37:56.57</time>
      </trkpt>
      <trkpt lat="48.41323" lon="-4.38893">
        <ele>125</ele>
        <time>2012-02-26T09:37:57.56</time>
      </trkpt>
      <trkpt lat="48.4132" lon="-4.38891">
        <ele>125</ele>
        <time>2012-02-26T09:37:58.56</time>
      </trkpt>
      <trkpt lat="48.41318" lon="-4.38887">
        <ele>125</ele>
        <time>2012-02-26T09:37:59.57</time>
      </trkpt>
      <trkpt lat="48.41314" lon="-4.38884">
        <ele>125</ele>
        <time>2012-02-26T09:38:00.57</time>
      </trkpt>
      <trkpt lat="48.41312" lon="-4.38882">
        <ele>125</ele>
        <time>2012-02-26T09:38:01.57</time>
      </trkpt>
      <trkpt lat="48.4131" lon="-4.3888">
        <ele>125</ele>
        <time>2012-02-26T09:38:02.57</time>
      </trkpt>
      <trkpt lat="48.41306" lon="-4.38876">
        <ele>125</ele>
        <time>2012-02-26T09:38:04.56</time>
      </trkpt>
      <trkpt lat="48.41303" lon="-4.38872">
        <ele>125</ele>
        <time>2012-02-26T09:38:05.57</time>
      </trkpt>
      <trkpt lat="48.41299" lon="-4.38869">
        <ele>125</ele>
        <time>2012-02-26T09:38:06.57</time>
      </trkpt>
      <trkpt lat="48.41296" lon="-4.38867">
        <ele>125</ele>
        <time>2012-02-26T09:38:07.56</time>
      </trkpt>
      <trkpt lat="48.41294" lon="-4.38863">
        <ele>125</ele>
        <time>2012-02-26T09:38:08.57</time>
      </trkpt>
      <trkpt lat="48.41291" lon="-4.38861">
        <ele>125</ele>
        <time>2012-02-26T09:38:09.57</time>
      </trkpt>
      <trkpt lat="48.41287" lon="-4.38857">
        <ele>125</ele>
        <time>2012-02-26T09:38:10.56</time>
      </trkpt>
      <trkpt lat="48.41284" lon="-4.38854">
        <ele>125</ele>
        <time>2012-02-26T09:38:11.56</time>
      </trkpt>
      <trkpt lat="48.41282" lon="-4.3885">
        <ele>125</ele>
        <time>2012-02-26T09:38:12.57</time>
      </trkpt>
      <trkpt lat="48.41279" lon="-4.38848">
        <ele>125</ele>
        <time>2012-02-26T09:38:13.57</time>
      </trkpt>
      <trkpt lat="48.41277" lon="-4.38846">
        <ele>125</ele>
        <time>2012-02-26T09:38:14.57</time>
      </trkpt>
      <trkpt lat="48.41275" lon="-4.38844">
        <ele>125</ele>
        <time>2012-02-26T09:38:15.57</time>
      </trkpt>
      <trkpt lat="48.41271" lon="-4.38844">
        <ele>126</ele>
        <time>2012-02-26T09:38:16.56</time>
      </trkpt>
      <trkpt lat="48.41269" lon="-4.38842">
        <ele>126</ele>
        <time>2012-02-26T09:38:17.57</time>
      </trkpt>
      <trkpt lat="48.41267" lon="-4.38839">
        <ele>126</ele>
        <time>2012-02-26T09:38:18.56</time>
      </trkpt>
      <trkpt lat="48.41264" lon="-4.38837">
        <ele>126</ele>
        <time>2012-02-26T09:38:19.58</time>
      </trkpt>
      <trkpt lat="48.41261" lon="-4.38835">
        <ele>126</ele>
        <time>2012-02-26T09:38:20.57</time>
      </trkpt>
      <trkpt lat="48.41257" lon="-4.38833">
        <ele>126</ele>
        <time>2012-02-26T09:38:21.57</time>
      </trkpt>
      <trkpt lat="48.41254" lon="-4.38831">
        <ele>126</ele>
        <time>2012-02-26T09:38:22.57</time>
      </trkpt>
      <trkpt lat="48.41251" lon="-4.38829">
        <ele>126</ele>
        <time>2012-02-26T09:38:23.56</time>
      </trkpt>
      <trkpt lat="48.41247" lon="-4.38827">
        <ele>126</ele>
        <time>2012-02-26T09:38:24.57</time>
      </trkpt>
      <trkpt lat="48.41244" lon="-4.38822">
        <ele>127</ele>
        <time>2012-02-26T09:38:25.56</time>
      </trkpt>
      <trkpt lat="48.41239" lon="-4.38818">
        <ele>127</ele>
        <time>2012-02-26T09:38:26.56</time>
      </trkpt>
      <trkpt lat="48.41235" lon="-4.38814">
        <ele>127</ele>
        <time>2012-02-26T09:38:27.56</time>
      </trkpt>
      <trkpt lat="48.41231" lon="-4.38807">
        <ele>128</ele>
        <time>2012-02-26T09:38:28.57</time>
      </trkpt>
      <trkpt lat="48.41225" lon="-4.38803">
        <ele>128</ele>
        <time>2012-02-26T09:38:29.56</time>
      </trkpt>
      <trkpt lat="48.4122" lon="-4.38801">
        <ele>128</ele>
        <time>2012-02-26T09:38:30.56</time>
      </trkpt>
      <trkpt lat="48.41212" lon="-4.38799">
        <ele>128</ele>
        <time>2012-02-26T09:38:31.57</time>
      </trkpt>
      <trkpt lat="48.41206" lon="-4.38797">
        <ele>128</ele>
        <time>2012-02-26T09:38:32.57</time>
      </trkpt>
      <trkpt lat="48.41198" lon="-4.38794">
        <ele>127</ele>
        <time>2012-02-26T09:38:33.57</time>
      </trkpt>
      <trkpt lat="48.41192" lon="-4.38792">
        <ele>126</ele>
        <time>2012-02-26T09:38:34.56</time>
      </trkpt>
      <trkpt lat="48.41184" lon="-4.38792">
        <ele>125</ele>
        <time>2012-02-26T09:38:35.56</time>
      </trkpt>
      <trkpt lat="48.41178" lon="-4.3879">
        <ele>124</ele>
        <time>2012-02-26T09:38:36.57</time>
      </trkpt>
      <trkpt lat="48.41172" lon="-4.38788">
        <ele>123</ele>
        <time>2012-02-26T09:38:37.57</time>
      </trkpt>
      <trkpt lat="48.41165" lon="-4.38786">
        <ele>122</ele>
        <time>2012-02-26T09:38:38.57</time>
      </trkpt>
      <trkpt lat="48.4116" lon="-4.38781">
        <ele>120</ele>
        <time>2012-02-26T09:38:39.56</time>
      </trkpt>
      <trkpt lat="48.41152" lon="-4.38777">
        <ele>119</ele>
        <time>2012-02-26T09:38:40.56</time>
      </trkpt>
      <trkpt lat="48.41146" lon="-4.38773">
        <ele>118</ele>
        <time>2012-02-26T09:38:41.56</time>
      </trkpt>
      <trkpt lat="48.41139" lon="-4.38769">
        <ele>117</ele>
        <time>2012-02-26T09:38:42.57</time>
      </trkpt>
      <trkpt lat="48.41137" lon="-4.38766">
        <ele>117</ele>
        <time>2012-02-26T09:38:43.57</time>
      </trkpt>
      <trkpt lat="48.41134" lon="-4.38758">
        <ele>117</ele>
        <time>2012-02-26T09:38:45.57</time>
      </trkpt>
      <trkpt lat="48.41135" lon="-4.38751">
        <ele>116</ele>
        <time>2012-02-26T09:38:46.57</time>
      </trkpt>
      <trkpt lat="48.41137" lon="-4.38745">
        <ele>115</ele>
        <time>2012-02-26T09:38:47.57</time>
      </trkpt>
      <trkpt lat="48.41142" lon="-4.38739">
        <ele>114</ele>
        <time>2012-02-26T09:38:48.57</time>
      </trkpt>
      <trkpt lat="48.41145" lon="-4.38734">
        <ele>113</ele>
        <time>2012-02-26T09:38:49.57</time>
      </trkpt>
      <trkpt lat="48.41147" lon="-4.3873">
        <ele>112</ele>
        <time>2012-02-26T09:38:50.57</time>
      </trkpt>
      <trkpt lat="48.41149" lon="-4.38728">
        <ele>112</ele>
        <time>2012-02-26T09:38:51.57</time>
      </trkpt>
      <trkpt lat="48.4115" lon="-4.38724">
        <ele>112</ele>
        <time>2012-02-26T09:38:52.57</time>
      </trkpt>
      <trkpt lat="48.41151" lon="-4.38721">
        <ele>112</ele>
        <time>2012-02-26T09:38:53.57</time>
      </trkpt>
      <trkpt lat="48.4115" lon="-4.38717">
        <ele>112</ele>
        <time>2012-02-26T09:38:54.57</time>
      </trkpt>
      <trkpt lat="48.41149" lon="-4.38713">
        <ele>111</ele>
        <time>2012-02-26T09:38:55.58</time>
      </trkpt>
      <trkpt lat="48.41147" lon="-4.38711">
        <ele>111</ele>
        <time>2012-02-26T09:38:56.56</time>
      </trkpt>
      <trkpt lat="48.41143" lon="-4.38711">
        <ele>111</ele>
        <time>2012-02-26T09:38:58.57</time>
      </trkpt>
      <trkpt lat="48.41135" lon="-4.38713">
        <ele>110</ele>
        <time>2012-02-26T09:39:02.57</time>
      </trkpt>
      <trkpt lat="48.41133" lon="-4.38715">
        <ele>110</ele>
        <time>2012-02-26T09:39:03.57</time>
      </trkpt>
      <trkpt lat="48.41131" lon="-4.38715">
        <ele>110</ele>
        <time>2012-02-26T09:39:04.56</time>
      </trkpt>
      <trkpt lat="48.41129" lon="-4.38715">
        <ele>110</ele>
        <time>2012-02-26T09:39:05.57</time>
      </trkpt>
      <trkpt lat="48.41123" lon="-4.38717">
        <ele>110</ele>
        <time>2012-02-26T09:39:08.57</time>
      </trkpt>
      <trkpt lat="48.41122" lon="-4.38717">
        <ele>110</ele>
        <time>2012-02-26T09:39:09.57</time>
      </trkpt>
      <trkpt lat="48.41119" lon="-4.38717">
        <ele>110</ele>
        <time>2012-02-26T09:39:11.57</time>
      </trkpt>
      <trkpt lat="48.41117" lon="-4.38717">
        <ele>110</ele>
        <time>2012-02-26T09:39:12.57</time>
      </trkpt>
      <trkpt lat="48.41094" lon="-4.38706">
        <ele>108</ele>
        <time>2012-02-26T09:39:19.57</time>
      </trkpt>
      <trkpt lat="48.4109" lon="-4.38704">
        <ele>108</ele>
        <time>2012-02-26T09:39:20.57</time>
      </trkpt>
      <trkpt lat="48.41086" lon="-4.38702">
        <ele>108</ele>
        <time>2012-02-26T09:39:21.56</time>
      </trkpt>
      <trkpt lat="48.41082" lon="-4.387">
        <ele>108</ele>
        <time>2012-02-26T09:39:22.57</time>
      </trkpt>
      <trkpt lat="48.41077" lon="-4.387">
        <ele>107</ele>
        <time>2012-02-26T09:39:23.57</time>
      </trkpt>
      <trkpt lat="48.41074" lon="-4.38698">
        <ele>107</ele>
        <time>2012-02-26T09:39:24.56</time>
      </trkpt>
      <trkpt lat="48.4107" lon="-4.38696">
        <ele>107</ele>
        <time>2012-02-26T09:39:25.57</time>
      </trkpt>
      <trkpt lat="48.41065" lon="-4.38691">
        <ele>107</ele>
        <time>2012-02-26T09:39:26.57</time>
      </trkpt>
      <trkpt lat="48.41061" lon="-4.38689">
        <ele>106</ele>
        <time>2012-02-26T09:39:27.57</time>
      </trkpt>
      <trkpt lat="48.41058" lon="-4.38685">
        <ele>106</ele>
        <time>2012-02-26T09:39:28.57</time>
      </trkpt>
      <trkpt lat="48.41054" lon="-4.38683">
        <ele>106</ele>
        <time>2012-02-26T09:39:29.57</time>
      </trkpt>
      <trkpt lat="48.4105" lon="-4.38681">
        <ele>106</ele>
        <time>2012-02-26T09:39:30.57</time>
      </trkpt>
      <trkpt lat="48.41048" lon="-4.38679">
        <ele>105</ele>
        <time>2012-02-26T09:39:31.57</time>
      </trkpt>
      <trkpt lat="48.41047" lon="-4.38676">
        <ele>105</ele>
        <time>2012-02-26T09:39:32.57</time>
      </trkpt>
      <trkpt lat="48.41031" lon="-4.38666">
        <ele>97</ele>
        <time>2012-02-26T09:39:39.62</time>
      </trkpt>
      <trkpt lat="48.41028" lon="-4.38663">
        <ele>97</ele>
        <time>2012-02-26T09:39:40.62</time>
      </trkpt>
      <trkpt lat="48.41022" lon="-4.38661">
        <ele>96</ele>
        <time>2012-02-26T09:39:42.62</time>
      </trkpt>
      <trkpt lat="48.41026" lon="-4.38659">
        <ele>94</ele>
        <time>2012-02-26T09:39:47.63</time>
      </trkpt>
      <trkpt lat="48.41029" lon="-4.38661">
        <ele>93</ele>
        <time>2012-02-26T09:39:49.62</time>
      </trkpt>
      <trkpt lat="48.41031" lon="-4.38661">
        <ele>93</ele>
        <time>2012-02-26T09:39:50.62</time>
      </trkpt>
      <trkpt lat="48.41034" lon="-4.38661">
        <ele>93</ele>
        <time>2012-02-26T09:39:51.62</time>
      </trkpt>
      <trkpt lat="48.41035" lon="-4.38661">
        <ele>93</ele>
        <time>2012-02-26T09:39:52.62</time>
      </trkpt>
      <trkpt lat="48.41038" lon="-4.38663">
        <ele>92</ele>
        <time>2012-02-26T09:39:53.62</time>
      </trkpt>
      <trkpt lat="48.4104" lon="-4.38663">
        <ele>92</ele>
        <time>2012-02-26T09:39:54.62</time>
      </trkpt>
      <trkpt lat="48.41042" lon="-4.38663">
        <ele>92</ele>
        <time>2012-02-26T09:39:55.62</time>
      </trkpt>
      <trkpt lat="48.41044" lon="-4.38663">
        <ele>92</ele>
        <time>2012-02-26T09:39:56.62</time>
      </trkpt>
      <trkpt lat="48.41046" lon="-4.38663">
        <ele>92</ele>
        <time>2012-02-26T09:39:57.62</time>
      </trkpt>
      <trkpt lat="48.41048" lon="-4.38663">
        <ele>92</ele>
        <time>2012-02-26T09:39:58.62</time>
      </trkpt>
      <trkpt lat="48.41051" lon="-4.38663">
        <ele>92</ele>
        <time>2012-02-26T09:39:59.62</time>
      </trkpt>
      <trkpt lat="48.41055" lon="-4.38663">
        <ele>91</ele>
        <time>2012-02-26T09:40:00.62</time>
      </trkpt>
      <trkpt lat="48.41059" lon="-4.38663">
        <ele>91</ele>
        <time>2012-02-26T09:40:01.62</time>
      </trkpt>
      <trkpt lat="48.41063" lon="-4.38663">
        <ele>90</ele>
        <time>2012-02-26T09:40:02.62</time>
      </trkpt>
      <trkpt lat="48.41068" lon="-4.38661">
        <ele>89</ele>
        <time>2012-02-26T09:40:03.64</time>
      </trkpt>
      <trkpt lat="48.41072" lon="-4.38661">
        <ele>89</ele>
        <time>2012-02-26T09:40:04.62</time>
      </trkpt>
      <trkpt lat="48.41076" lon="-4.38661">
        <ele>89</ele>
        <time>2012-02-26T09:40:05.62</time>
      </trkpt>
      <trkpt lat="48.41079" lon="-4.38661">
        <ele>89</ele>
        <time>2012-02-26T09:40:06.62</time>
      </trkpt>
      <trkpt lat="48.41084" lon="-4.38659">
        <ele>89</ele>
        <time>2012-02-26T09:40:07.62</time>
      </trkpt>
      <trkpt lat="48.41088" lon="-4.38659">
        <ele>89</ele>
        <time>2012-02-26T09:40:08.62</time>
      </trkpt>
      <trkpt lat="48.41093" lon="-4.38657">
        <ele>88</ele>
        <time>2012-02-26T09:40:09.62</time>
      </trkpt>
      <trkpt lat="48.41098" lon="-4.38655">
        <ele>88</ele>
        <time>2012-02-26T09:40:10.62</time>
      </trkpt>
      <trkpt lat="48.41103" lon="-4.38653">
        <ele>89</ele>
        <time>2012-02-26T09:40:11.62</time>
      </trkpt>
      <trkpt lat="48.41108" lon="-4.38651">
        <ele>89</ele>
        <time>2012-02-26T09:40:12.62</time>
      </trkpt>
      <trkpt lat="48.41114" lon="-4.38646">
        <ele>89</ele>
        <time>2012-02-26T09:40:13.62</time>
      </trkpt>
      <trkpt lat="48.41118" lon="-4.38642">
        <ele>90</ele>
        <time>2012-02-26T09:40:14.62</time>
      </trkpt>
      <trkpt lat="48.41123" lon="-4.3864">
        <ele>90</ele>
        <time>2012-02-26T09:40:15.62</time>
      </trkpt>
      <trkpt lat="48.41128" lon="-4.38638">
        <ele>91</ele>
        <time>2012-02-26T09:40:16.62</time>
      </trkpt>
      <trkpt lat="48.41132" lon="-4.38636">
        <ele>91</ele>
        <time>2012-02-26T09:40:17.62</time>
      </trkpt>
      <trkpt lat="48.41136" lon="-4.38633">
        <ele>91</ele>
        <time>2012-02-26T09:40:18.62</time>
      </trkpt>
      <trkpt lat="48.41141" lon="-4.38631">
        <ele>91</ele>
        <time>2012-02-26T09:40:19.63</time>
      </trkpt>
      <trkpt lat="48.41145" lon="-4.38631">
        <ele>91</ele>
        <time>2012-02-26T09:40:20.63</time>
      </trkpt>
      <trkpt lat="48.41148" lon="-4.38631">
        <ele>91</ele>
        <time>2012-02-26T09:40:21.63</time>
      </trkpt>
      <trkpt lat="48.41152" lon="-4.38631">
        <ele>91</ele>
        <time>2012-02-26T09:40:22.62</time>
      </trkpt>
      <trkpt lat="48.41157" lon="-4.38629">
        <ele>91</ele>
        <time>2012-02-26T09:40:23.62</time>
      </trkpt>
      <trkpt lat="48.41161" lon="-4.38631">
        <ele>91</ele>
        <time>2012-02-26T09:40:24.62</time>
      </trkpt>
      <trkpt lat="48.41166" lon="-4.38631">
        <ele>91</ele>
        <time>2012-02-26T09:40:25.62</time>
      </trkpt>
      <trkpt lat="48.41172" lon="-4.38631">
        <ele>91</ele>
        <time>2012-02-26T09:40:26.62</time>
      </trkpt>
      <trkpt lat="48.41177" lon="-4.38631">
        <ele>91</ele>
        <time>2012-02-26T09:40:27.62</time>
      </trkpt>
      <trkpt lat="48.41183" lon="-4.38633">
        <ele>91</ele>
        <time>2012-02-26T09:40:28.60</time>
      </trkpt>
      <trkpt lat="48.41189" lon="-4.38633">
        <ele>91</ele>
        <time>2012-02-26T09:40:29.62</time>
      </trkpt>
      <trkpt lat="48.41195" lon="-4.38636">
        <ele>91</ele>
        <time>2012-02-26T09:40:30.62</time>
      </trkpt>
      <trkpt lat="48.41201" lon="-4.38638">
        <ele>91</ele>
        <time>2012-02-26T09:40:31.62</time>
      </trkpt>
      <trkpt lat="48.41206" lon="-4.3864">
        <ele>91</ele>
        <time>2012-02-26T09:40:32.62</time>
      </trkpt>
      <trkpt lat="48.41212" lon="-4.38642">
        <ele>91</ele>
        <time>2012-02-26T09:40:33.62</time>
      </trkpt>
      <trkpt lat="48.41218" lon="-4.38644">
        <ele>91</ele>
        <time>2012-02-26T09:40:34.62</time>
      </trkpt>
      <trkpt lat="48.41224" lon="-4.38646">
        <ele>92</ele>
        <time>2012-02-26T09:40:35.60</time>
      </trkpt>
      <trkpt lat="48.4123" lon="-4.38648">
        <ele>92</ele>
        <time>2012-02-26T09:40:36.62</time>
      </trkpt>
      <trkpt lat="48.41235" lon="-4.38651">
        <ele>92</ele>
        <time>2012-02-26T09:40:37.63</time>
      </trkpt>
      <trkpt lat="48.4124" lon="-4.38651">
        <ele>92</ele>
        <time>2012-02-26T09:40:38.62</time>
      </trkpt>
      <trkpt lat="48.41246" lon="-4.38653">
        <ele>92</ele>
        <time>2012-02-26T09:40:39.62</time>
      </trkpt>
      <trkpt lat="48.41252" lon="-4.38655">
        <ele>92</ele>
        <time>2012-02-26T09:40:40.65</time>
      </trkpt>
      <trkpt lat="48.41259" lon="-4.38657">
        <ele>92</ele>
        <time>2012-02-26T09:40:41.62</time>
      </trkpt>
      <trkpt lat="48.41264" lon="-4.38661">
        <ele>92</ele>
        <time>2012-02-26T09:40:42.62</time>
      </trkpt>
      <trkpt lat="48.4127" lon="-4.38663">
        <ele>92</ele>
        <time>2012-02-26T09:40:43.62</time>
      </trkpt>
      <trkpt lat="48.41277" lon="-4.38668">
        <ele>92</ele>
        <time>2012-02-26T09:40:44.62</time>
      </trkpt>
      <trkpt lat="48.41282" lon="-4.3867">
        <ele>91</ele>
        <time>2012-02-26T09:40:45.62</time>
      </trkpt>
      <trkpt lat="48.41287" lon="-4.38674">
        <ele>90</ele>
        <time>2012-02-26T09:40:46.62</time>
      </trkpt>
      <trkpt lat="48.41294" lon="-4.38679">
        <ele>88</ele>
        <time>2012-02-26T09:40:47.62</time>
      </trkpt>
      <trkpt lat="48.413" lon="-4.38683">
        <ele>85</ele>
        <time>2012-02-26T09:40:48.62</time>
      </trkpt>
      <trkpt lat="48.41307" lon="-4.38687">
        <ele>83</ele>
        <time>2012-02-26T09:40:49.62</time>
      </trkpt>
      <trkpt lat="48.41313" lon="-4.38694">
        <ele>82</ele>
        <time>2012-02-26T09:40:50.62</time>
      </trkpt>
      <trkpt lat="48.41319" lon="-4.38698">
        <ele>80</ele>
        <time>2012-02-26T09:40:51.62</time>
      </trkpt>
      <trkpt lat="48.41324" lon="-4.38702">
        <ele>79</ele>
        <time>2012-02-26T09:40:52.63</time>
      </trkpt>
      <trkpt lat="48.41329" lon="-4.38706">
        <ele>78</ele>
        <time>2012-02-26T09:40:53.62</time>
      </trkpt>
      <trkpt lat="48.41335" lon="-4.38709">
        <ele>77</ele>
        <time>2012-02-26T09:40:54.62</time>
      </trkpt>
      <trkpt lat="48.4134" lon="-4.38711">
        <ele>76</ele>
        <time>2012-02-26T09:40:55.60</time>
      </trkpt>
      <trkpt lat="48.41345" lon="-4.38713">
        <ele>75</ele>
        <time>2012-02-26T09:40:56.62</time>
      </trkpt>
      <trkpt lat="48.4135" lon="-4.38715">
        <ele>74</ele>
        <time>2012-02-26T09:40:57.63</time>
      </trkpt>
      <trkpt lat="48.41355" lon="-4.38717">
        <ele>73</ele>
        <time>2012-02-26T09:40:58.62</time>
      </trkpt>
      <trkpt lat="48.41359" lon="-4.38719">
        <ele>73</ele>
        <time>2012-02-26T09:40:59.62</time>
      </trkpt>
      <trkpt lat="48.41364" lon="-4.38724">
        <ele>72</ele>
        <time>2012-02-26T09:41:00.62</time>
      </trkpt>
      <trkpt lat="48.41367" lon="-4.38728">
        <ele>72</ele>
        <time>2012-02-26T09:41:01.62</time>
      </trkpt>
      <trkpt lat="48.41371" lon="-4.38732">
        <ele>71</ele>
        <time>2012-02-26T09:41:02.62</time>
      </trkpt>
      <trkpt lat="48.41374" lon="-4.38736">
        <ele>71</ele>
        <time>2012-02-26T09:41:03.62</time>
      </trkpt>
      <trkpt lat="48.41379" lon="-4.38741">
        <ele>71</ele>
        <time>2012-02-26T09:41:04.62</time>
      </trkpt>
      <trkpt lat="48.41383" lon="-4.38745">
        <ele>70</ele>
        <time>2012-02-26T09:41:05.62</time>
      </trkpt>
      <trkpt lat="48.41387" lon="-4.38749">
        <ele>70</ele>
        <time>2012-02-26T09:41:06.62</time>
      </trkpt>
      <trkpt lat="48.41393" lon="-4.38754">
        <ele>70</ele>
        <time>2012-02-26T09:41:07.62</time>
      </trkpt>
      <trkpt lat="48.41397" lon="-4.38758">
        <ele>70</ele>
        <time>2012-02-26T09:41:08.62</time>
      </trkpt>
      <trkpt lat="48.41401" lon="-4.38762">
        <ele>70</ele>
        <time>2012-02-26T09:41:09.62</time>
      </trkpt>
      <trkpt lat="48.41407" lon="-4.38764">
        <ele>71</ele>
        <time>2012-02-26T09:41:10.62</time>
      </trkpt>
      <trkpt lat="48.41412" lon="-4.38766">
        <ele>71</ele>
        <time>2012-02-26T09:41:11.62</time>
      </trkpt>
      <trkpt lat="48.41418" lon="-4.38769">
        <ele>70</ele>
        <time>2012-02-26T09:41:12.62</time>
      </trkpt>
      <trkpt lat="48.41425" lon="-4.38771">
        <ele>70</ele>
        <time>2012-02-26T09:41:13.62</time>
      </trkpt>
      <trkpt lat="48.4143" lon="-4.38773">
        <ele>69</ele>
        <time>2012-02-26T09:41:14.74</time>
      </trkpt>
      <trkpt lat="48.41437" lon="-4.38775">
        <ele>68</ele>
        <time>2012-02-26T09:41:15.62</time>
      </trkpt>
      <trkpt lat="48.41442" lon="-4.38775">
        <ele>67</ele>
        <time>2012-02-26T09:41:16.60</time>
      </trkpt>
      <trkpt lat="48.41447" lon="-4.38777">
        <ele>66</ele>
        <time>2012-02-26T09:41:17.70</time>
      </trkpt>
      <trkpt lat="48.41453" lon="-4.38779">
        <ele>66</ele>
        <time>2012-02-26T09:41:18.62</time>
      </trkpt>
      <trkpt lat="48.41457" lon="-4.38779">
        <ele>66</ele>
        <time>2012-02-26T09:41:19.62</time>
      </trkpt>
      <trkpt lat="48.4146" lon="-4.38779">
        <ele>66</ele>
        <time>2012-02-26T09:41:20.62</time>
      </trkpt>
      <trkpt lat="48.41462" lon="-4.38775">
        <ele>66</ele>
        <time>2012-02-26T09:41:21.63</time>
      </trkpt>
      <trkpt lat="48.41465" lon="-4.38771">
        <ele>66</ele>
        <time>2012-02-26T09:41:22.62</time>
      </trkpt>
      <trkpt lat="48.41468" lon="-4.38766">
        <ele>66</ele>
        <time>2012-02-26T09:41:23.62</time>
      </trkpt>
      <trkpt lat="48.4147" lon="-4.38764">
        <ele>66</ele>
        <time>2012-02-26T09:41:24.62</time>
      </trkpt>
      <trkpt lat="48.41471" lon="-4.38758">
        <ele>65</ele>
        <time>2012-02-26T09:41:25.62</time>
      </trkpt>
      <trkpt lat="48.41472" lon="-4.38751">
        <ele>65</ele>
        <time>2012-02-26T09:41:26.63</time>
      </trkpt>
      <trkpt lat="48.41473" lon="-4.38745">
        <ele>65</ele>
        <time>2012-02-26T09:41:27.62</time>
      </trkpt>
      <trkpt lat="48.41473" lon="-4.38736">
        <ele>64</ele>
        <time>2012-02-26T09:41:28.62</time>
      </trkpt>
      <trkpt lat="48.41473" lon="-4.3873">
        <ele>64</ele>
        <time>2012-02-26T09:41:29.62</time>
      </trkpt>
      <trkpt lat="48.41472" lon="-4.38721">
        <ele>64</ele>
        <time>2012-02-26T09:41:30.62</time>
      </trkpt>
      <trkpt lat="48.41472" lon="-4.38715">
        <ele>64</ele>
        <time>2012-02-26T09:41:31.60</time>
      </trkpt>
      <trkpt lat="48.41469" lon="-4.38709">
        <ele>63</ele>
        <time>2012-02-26T09:41:32.62</time>
      </trkpt>
      <trkpt lat="48.41467" lon="-4.38704">
        <ele>63</ele>
        <time>2012-02-26T09:41:33.62</time>
      </trkpt>
      <trkpt lat="48.41465" lon="-4.387">
        <ele>63</ele>
        <time>2012-02-26T09:41:34.62</time>
      </trkpt>
      <trkpt lat="48.41461" lon="-4.38696">
        <ele>63</ele>
        <time>2012-02-26T09:41:35.62</time>
      </trkpt>
      <trkpt lat="48.41459" lon="-4.38694">
        <ele>63</ele>
        <time>2012-02-26T09:41:36.68</time>
      </trkpt>
      <trkpt lat="48.41457" lon="-4.38691">
        <ele>63</ele>
        <time>2012-02-26T09:41:37.62</time>
      </trkpt>
      <trkpt lat="48.41455" lon="-4.38687">
        <ele>63</ele>
        <time>2012-02-26T09:41:38.63</time>
      </trkpt>
      <trkpt lat="48.41453" lon="-4.38685">
        <ele>63</ele>
        <time>2012-02-26T09:41:39.62</time>
      </trkpt>
      <trkpt lat="48.41451" lon="-4.38683">
        <ele>63</ele>
        <time>2012-02-26T09:41:40.62</time>
      </trkpt>
      <trkpt lat="48.41447" lon="-4.38679">
        <ele>63</ele>
        <time>2012-02-26T09:41:41.63</time>
      </trkpt>
      <trkpt lat="48.41445" lon="-4.38676">
        <ele>63</ele>
        <time>2012-02-26T09:41:42.64</time>
      </trkpt>
      <trkpt lat="48.41443" lon="-4.38672">
        <ele>63</ele>
        <time>2012-02-26T09:41:43.62</time>
      </trkpt>
      <trkpt lat="48.41441" lon="-4.3867">
        <ele>63</ele>
        <time>2012-02-26T09:41:44.62</time>
      </trkpt>
      <trkpt lat="48.41438" lon="-4.38666">
        <ele>63</ele>
        <time>2012-02-26T09:41:45.62</time>
      </trkpt>
      <trkpt lat="48.41436" lon="-4.38663">
        <ele>64</ele>
        <time>2012-02-26T09:41:46.62</time>
      </trkpt>
      <trkpt lat="48.41432" lon="-4.38659">
        <ele>64</ele>
        <time>2012-02-26T09:41:47.61</time>
      </trkpt>
      <trkpt lat="48.41429" lon="-4.38655">
        <ele>65</ele>
        <time>2012-02-26T09:41:48.62</time>
      </trkpt>
      <trkpt lat="48.41426" lon="-4.38653">
        <ele>65</ele>
        <time>2012-02-26T09:41:49.62</time>
      </trkpt>
      <trkpt lat="48.41424" lon="-4.38648">
        <ele>65</ele>
        <time>2012-02-26T09:41:50.62</time>
      </trkpt>
      <trkpt lat="48.41421" lon="-4.38646">
        <ele>65</ele>
        <time>2012-02-26T09:41:51.62</time>
      </trkpt>
      <trkpt lat="48.41417" lon="-4.38644">
        <ele>65</ele>
        <time>2012-02-26T09:41:52.68</time>
      </trkpt>
      <trkpt lat="48.41415" lon="-4.3864">
        <ele>65</ele>
        <time>2012-02-26T09:41:53.63</time>
      </trkpt>
      <trkpt lat="48.41412" lon="-4.38638">
        <ele>65</ele>
        <time>2012-02-26T09:41:54.62</time>
      </trkpt>
      <trkpt lat="48.4141" lon="-4.38633">
        <ele>65</ele>
        <time>2012-02-26T09:41:55.62</time>
      </trkpt>
      <trkpt lat="48.41408" lon="-4.38631">
        <ele>65</ele>
        <time>2012-02-26T09:41:56.62</time>
      </trkpt>
      <trkpt lat="48.41406" lon="-4.38629">
        <ele>65</ele>
        <time>2012-02-26T09:41:57.62</time>
      </trkpt>
      <trkpt lat="48.41403" lon="-4.38627">
        <ele>66</ele>
        <time>2012-02-26T09:41:58.62</time>
      </trkpt>
      <trkpt lat="48.41401" lon="-4.38625">
        <ele>66</ele>
        <time>2012-02-26T09:41:59.62</time>
      </trkpt>
      <trkpt lat="48.414" lon="-4.38623">
        <ele>66</ele>
        <time>2012-02-26T09:42:00.62</time>
      </trkpt>
      <trkpt lat="48.41398" lon="-4.38621">
        <ele>66</ele>
        <time>2012-02-26T09:42:02.62</time>
      </trkpt>
      <trkpt lat="48.41397" lon="-4.38618">
        <ele>66</ele>
        <time>2012-02-26T09:42:03.60</time>
      </trkpt>
      <trkpt lat="48.41396" lon="-4.38618">
        <ele>66</ele>
        <time>2012-02-26T09:42:04.62</time>
      </trkpt>
      <trkpt lat="48.41395" lon="-4.38616">
        <ele>66</ele>
        <time>2012-02-26T09:42:05.62</time>
      </trkpt>
      <trkpt lat="48.41384" lon="-4.38595">
        <ele>68</ele>
        <time>2012-02-26T09:42:12.62</time>
      </trkpt>
      <trkpt lat="48.4138" lon="-4.38593">
        <ele>69</ele>
        <time>2012-02-26T09:42:16.62</time>
      </trkpt>
      <trkpt lat="48.41377" lon="-4.38586">
        <ele>70</ele>
        <time>2012-02-26T09:42:20.61</time>
      </trkpt>
      <trkpt lat="48.4137" lon="-4.38573">
        <ele>72</ele>
        <time>2012-02-26T09:42:27.61</time>
      </trkpt>
      <trkpt lat="48.41365" lon="-4.38556">
        <ele>73</ele>
        <time>2012-02-26T09:42:34.61</time>
      </trkpt>
      <trkpt lat="48.41363" lon="-4.38552">
        <ele>73</ele>
        <time>2012-02-26T09:42:36.61</time>
      </trkpt>
      <trkpt lat="48.41362" lon="-4.3855">
        <ele>73</ele>
        <time>2012-02-26T09:42:37.61</time>
      </trkpt>
      <trkpt lat="48.4136" lon="-4.38545">
        <ele>73</ele>
        <time>2012-02-26T09:42:38.62</time>
      </trkpt>
      <trkpt lat="48.41359" lon="-4.38541">
        <ele>73</ele>
        <time>2012-02-26T09:42:39.62</time>
      </trkpt>
      <trkpt lat="48.41358" lon="-4.38539">
        <ele>73</ele>
        <time>2012-02-26T09:42:40.61</time>
      </trkpt>
      <trkpt lat="48.41357" lon="-4.38535">
        <ele>73</ele>
        <time>2012-02-26T09:42:41.62</time>
      </trkpt>
      <trkpt lat="48.41355" lon="-4.3853">
        <ele>73</ele>
        <time>2012-02-26T09:42:42.63</time>
      </trkpt>
      <trkpt lat="48.41352" lon="-4.38524">
        <ele>73</ele>
        <time>2012-02-26T09:42:44.61</time>
      </trkpt>
      <trkpt lat="48.41351" lon="-4.3852">
        <ele>74</ele>
        <time>2012-02-26T09:42:45.61</time>
      </trkpt>
      <trkpt lat="48.4135" lon="-4.38515">
        <ele>74</ele>
        <time>2012-02-26T09:42:46.61</time>
      </trkpt>
      <trkpt lat="48.41348" lon="-4.38511">
        <ele>74</ele>
        <time>2012-02-26T09:42:47.62</time>
      </trkpt>
      <trkpt lat="48.41347" lon="-4.38507">
        <ele>74</ele>
        <time>2012-02-26T09:42:48.61</time>
      </trkpt>
      <trkpt lat="48.41344" lon="-4.38503">
        <ele>74</ele>
        <time>2012-02-26T09:42:49.61</time>
      </trkpt>
      <trkpt lat="48.41343" lon="-4.385">
        <ele>74</ele>
        <time>2012-02-26T09:42:50.61</time>
      </trkpt>
      <trkpt lat="48.41341" lon="-4.38496">
        <ele>74</ele>
        <time>2012-02-26T09:42:51.61</time>
      </trkpt>
      <trkpt lat="48.41339" lon="-4.38492">
        <ele>74</ele>
        <time>2012-02-26T09:42:52.61</time>
      </trkpt>
      <trkpt lat="48.41336" lon="-4.38488">
        <ele>75</ele>
        <time>2012-02-26T09:42:53.61</time>
      </trkpt>
      <trkpt lat="48.41334" lon="-4.38483">
        <ele>75</ele>
        <time>2012-02-26T09:42:54.61</time>
      </trkpt>
      <trkpt lat="48.41331" lon="-4.38479">
        <ele>75</ele>
        <time>2012-02-26T09:42:55.61</time>
      </trkpt>
      <trkpt lat="48.41328" lon="-4.38477">
        <ele>75</ele>
        <time>2012-02-26T09:42:56.61</time>
      </trkpt>
      <trkpt lat="48.41326" lon="-4.38473">
        <ele>76</ele>
        <time>2012-02-26T09:42:57.61</time>
      </trkpt>
      <trkpt lat="48.41324" lon="-4.3847">
        <ele>76</ele>
        <time>2012-02-26T09:42:58.61</time>
      </trkpt>
      <trkpt lat="48.41322" lon="-4.38466">
        <ele>76</ele>
        <time>2012-02-26T09:42:59.61</time>
      </trkpt>
      <trkpt lat="48.4132" lon="-4.38464">
        <ele>76</ele>
        <time>2012-02-26T09:43:00.61</time>
      </trkpt>
      <trkpt lat="48.41319" lon="-4.38462">
        <ele>77</ele>
        <time>2012-02-26T09:43:01.61</time>
      </trkpt>
      <trkpt lat="48.41315" lon="-4.3846">
        <ele>77</ele>
        <time>2012-02-26T09:43:02.61</time>
      </trkpt>
      <trkpt lat="48.41314" lon="-4.38455">
        <ele>77</ele>
        <time>2012-02-26T09:43:03.61</time>
      </trkpt>
      <trkpt lat="48.41312" lon="-4.38453">
        <ele>77</ele>
        <time>2012-02-26T09:43:04.61</time>
      </trkpt>
      <trkpt lat="48.4131" lon="-4.38451">
        <ele>78</ele>
        <time>2012-02-26T09:43:05.61</time>
      </trkpt>
      <trkpt lat="48.41308" lon="-4.38447">
        <ele>78</ele>
        <time>2012-02-26T09:43:06.61</time>
      </trkpt>
      <trkpt lat="48.41306" lon="-4.38445">
        <ele>78</ele>
        <time>2012-02-26T09:43:07.61</time>
      </trkpt>
      <trkpt lat="48.41304" lon="-4.3844">
        <ele>78</ele>
        <time>2012-02-26T09:43:08.61</time>
      </trkpt>
      <trkpt lat="48.41303" lon="-4.38438">
        <ele>78</ele>
        <time>2012-02-26T09:43:09.61</time>
      </trkpt>
      <trkpt lat="48.413" lon="-4.38434">
        <ele>79</ele>
        <time>2012-02-26T09:43:10.61</time>
      </trkpt>
      <trkpt lat="48.41298" lon="-4.38432">
        <ele>79</ele>
        <time>2012-02-26T09:43:11.61</time>
      </trkpt>
      <trkpt lat="48.41296" lon="-4.38427">
        <ele>79</ele>
        <time>2012-02-26T09:43:12.61</time>
      </trkpt>
      <trkpt lat="48.41295" lon="-4.38425">
        <ele>80</ele>
        <time>2012-02-26T09:43:13.61</time>
      </trkpt>
      <trkpt lat="48.41293" lon="-4.38421">
        <ele>80</ele>
        <time>2012-02-26T09:43:14.62</time>
      </trkpt>
      <trkpt lat="48.41291" lon="-4.38417">
        <ele>80</ele>
        <time>2012-02-26T09:43:15.62</time>
      </trkpt>
      <trkpt lat="48.41289" lon="-4.38412">
        <ele>81</ele>
        <time>2012-02-26T09:43:16.62</time>
      </trkpt>
      <trkpt lat="48.41286" lon="-4.38408">
        <ele>81</ele>
        <time>2012-02-26T09:43:17.62</time>
      </trkpt>
      <trkpt lat="48.41285" lon="-4.38406">
        <ele>81</ele>
        <time>2012-02-26T09:43:18.62</time>
      </trkpt>
      <trkpt lat="48.41283" lon="-4.384">
        <ele>82</ele>
        <time>2012-02-26T09:43:19.63</time>
      </trkpt>
      <trkpt lat="48.41281" lon="-4.38395">
        <ele>82</ele>
        <time>2012-02-26T09:43:20.61</time>
      </trkpt>
      <trkpt lat="48.4128" lon="-4.38391">
        <ele>82</ele>
        <time>2012-02-26T09:43:21.61</time>
      </trkpt>
      <trkpt lat="48.41279" lon="-4.38387">
        <ele>83</ele>
        <time>2012-02-26T09:43:22.61</time>
      </trkpt>
      <trkpt lat="48.41279" lon="-4.38382">
        <ele>83</ele>
        <time>2012-02-26T09:43:23.61</time>
      </trkpt>
      <trkpt lat="48.41278" lon="-4.38378">
        <ele>84</ele>
        <time>2012-02-26T09:43:24.61</time>
      </trkpt>
      <trkpt lat="48.41278" lon="-4.38374">
        <ele>84</ele>
        <time>2012-02-26T09:43:25.62</time>
      </trkpt>
      <trkpt lat="48.41278" lon="-4.38372">
        <ele>84</ele>
        <time>2012-02-26T09:43:26.62</time>
      </trkpt>
      <trkpt lat="48.41278" lon="-4.3837">
        <ele>85</ele>
        <time>2012-02-26T09:43:27.63</time>
      </trkpt>
      <trkpt lat="48.41278" lon="-4.38365">
        <ele>85</ele>
        <time>2012-02-26T09:43:28.62</time>
      </trkpt>
      <trkpt lat="48.41279" lon="-4.38363">
        <ele>86</ele>
        <time>2012-02-26T09:43:29.61</time>
      </trkpt>
      <trkpt lat="48.41279" lon="-4.38361">
        <ele>86</ele>
        <time>2012-02-26T09:43:30.61</time>
      </trkpt>
      <trkpt lat="48.41279" lon="-4.38357">
        <ele>86</ele>
        <time>2012-02-26T09:43:31.61</time>
      </trkpt>
      <trkpt lat="48.41279" lon="-4.38354">
        <ele>87</ele>
        <time>2012-02-26T09:43:32.66</time>
      </trkpt>
      <trkpt lat="48.41279" lon="-4.38352">
        <ele>87</ele>
        <time>2012-02-26T09:43:33.61</time>
      </trkpt>
      <trkpt lat="48.41279" lon="-4.38348">
        <ele>88</ele>
        <time>2012-02-26T09:43:34.61</time>
      </trkpt>
      <trkpt lat="48.41279" lon="-4.38346">
        <ele>88</ele>
        <time>2012-02-26T09:43:35.63</time>
      </trkpt>
      <trkpt lat="48.41279" lon="-4.38344">
        <ele>88</ele>
        <time>2012-02-26T09:43:36.61</time>
      </trkpt>
      <trkpt lat="48.41278" lon="-4.38342">
        <ele>89</ele>
        <time>2012-02-26T09:43:37.61</time>
      </trkpt>
      <trkpt lat="48.41278" lon="-4.38339">
        <ele>89</ele>
        <time>2012-02-26T09:43:38.62</time>
      </trkpt>
      <trkpt lat="48.41278" lon="-4.38335">
        <ele>90</ele>
        <time>2012-02-26T09:43:39.61</time>
      </trkpt>
      <trkpt lat="48.41278" lon="-4.38333">
        <ele>90</ele>
        <time>2012-02-26T09:43:40.61</time>
      </trkpt>
      <trkpt lat="48.41278" lon="-4.38331">
        <ele>90</ele>
        <time>2012-02-26T09:43:41.61</time>
      </trkpt>
      <trkpt lat="48.41279" lon="-4.38329">
        <ele>91</ele>
        <time>2012-02-26T09:43:42.62</time>
      </trkpt>
      <trkpt lat="48.41279" lon="-4.38327">
        <ele>91</ele>
        <time>2012-02-26T09:43:43.63</time>
      </trkpt>
      <trkpt lat="48.41279" lon="-4.38322">
        <ele>91</ele>
        <time>2012-02-26T09:43:44.62</time>
      </trkpt>
      <trkpt lat="48.41279" lon="-4.3832">
        <ele>92</ele>
        <time>2012-02-26T09:43:45.61</time>
      </trkpt>
      <trkpt lat="48.41279" lon="-4.38316">
        <ele>92</ele>
        <time>2012-02-26T09:43:46.61</time>
      </trkpt>
      <trkpt lat="48.4128" lon="-4.38312">
        <ele>93</ele>
        <time>2012-02-26T09:43:47.61</time>
      </trkpt>
      <trkpt lat="48.4128" lon="-4.38307">
        <ele>93</ele>
        <time>2012-02-26T09:43:48.61</time>
      </trkpt>
      <trkpt lat="48.41279" lon="-4.38305">
        <ele>93</ele>
        <time>2012-02-26T09:43:49.61</time>
      </trkpt>
      <trkpt lat="48.41276" lon="-4.38301">
        <ele>94</ele>
        <time>2012-02-26T09:43:50.61</time>
      </trkpt>
      <trkpt lat="48.41276" lon="-4.38294">
        <ele>94</ele>
        <time>2012-02-26T09:43:51.63</time>
      </trkpt>
      <trkpt lat="48.41275" lon="-4.3829">
        <ele>94</ele>
        <time>2012-02-26T09:43:52.61</time>
      </trkpt>
      <trkpt lat="48.41274" lon="-4.38284">
        <ele>95</ele>
        <time>2012-02-26T09:43:53.61</time>
      </trkpt>
      <trkpt lat="48.41272" lon="-4.38279">
        <ele>95</ele>
        <time>2012-02-26T09:43:54.61</time>
      </trkpt>
      <trkpt lat="48.41272" lon="-4.38275">
        <ele>95</ele>
        <time>2012-02-26T09:43:55.61</time>
      </trkpt>
      <trkpt lat="48.41271" lon="-4.38271">
        <ele>96</ele>
        <time>2012-02-26T09:43:56.61</time>
      </trkpt>
      <trkpt lat="48.41271" lon="-4.38267">
        <ele>96</ele>
        <time>2012-02-26T09:43:57.61</time>
      </trkpt>
      <trkpt lat="48.41269" lon="-4.38262">
        <ele>96</ele>
        <time>2012-02-26T09:43:58.61</time>
      </trkpt>
      <trkpt lat="48.41268" lon="-4.38256">
        <ele>96</ele>
        <time>2012-02-26T09:43:59.61</time>
      </trkpt>
      <trkpt lat="48.41268" lon="-4.38249">
        <ele>97</ele>
        <time>2012-02-26T09:44:00.61</time>
      </trkpt>
      <trkpt lat="48.41268" lon="-4.38245">
        <ele>97</ele>
        <time>2012-02-26T09:44:01.61</time>
      </trkpt>
      <trkpt lat="48.41268" lon="-4.38241">
        <ele>97</ele>
        <time>2012-02-26T09:44:02.61</time>
      </trkpt>
      <trkpt lat="48.41268" lon="-4.38236">
        <ele>97</ele>
        <time>2012-02-26T09:44:03.62</time>
      </trkpt>
      <trkpt lat="48.41268" lon="-4.38232">
        <ele>98</ele>
        <time>2012-02-26T09:44:04.61</time>
      </trkpt>
      <trkpt lat="48.41267" lon="-4.3823">
        <ele>98</ele>
        <time>2012-02-26T09:44:05.61</time>
      </trkpt>
      <trkpt lat="48.41267" lon="-4.38226">
        <ele>98</ele>
        <time>2012-02-26T09:44:06.61</time>
      </trkpt>
      <trkpt lat="48.41263" lon="-4.38219">
        <ele>99</ele>
        <time>2012-02-26T09:44:10.61</time>
      </trkpt>
      <trkpt lat="48.41261" lon="-4.38217">
        <ele>99</ele>
        <time>2012-02-26T09:44:17.62</time>
      </trkpt>
      <trkpt lat="48.41259" lon="-4.38215">
        <ele>99</ele>
        <time>2012-02-26T09:44:18.62</time>
      </trkpt>
      <trkpt lat="48.41256" lon="-4.38213">
        <ele>99</ele>
        <time>2012-02-26T09:44:19.62</time>
      </trkpt>
      <trkpt lat="48.41254" lon="-4.38213">
        <ele>99</ele>
        <time>2012-02-26T09:44:20.62</time>
      </trkpt>
      <trkpt lat="48.41252" lon="-4.38211">
        <ele>99</ele>
        <time>2012-02-26T09:44:21.62</time>
      </trkpt>
      <trkpt lat="48.4125" lon="-4.38211">
        <ele>99</ele>
        <time>2012-02-26T09:44:22.62</time>
      </trkpt>
      <trkpt lat="48.41249" lon="-4.38211">
        <ele>99</ele>
        <time>2012-02-26T09:44:23.62</time>
      </trkpt>
      <trkpt lat="48.41247" lon="-4.38211">
        <ele>99</ele>
        <time>2012-02-26T09:44:24.62</time>
      </trkpt>
      <trkpt lat="48.41246" lon="-4.38213">
        <ele>99</ele>
        <time>2012-02-26T09:44:25.62</time>
      </trkpt>
      <trkpt lat="48.41245" lon="-4.38211">
        <ele>99</ele>
        <time>2012-02-26T09:44:26.62</time>
      </trkpt>
      <trkpt lat="48.41244" lon="-4.38211">
        <ele>99</ele>
        <time>2012-02-26T09:44:27.62</time>
      </trkpt>
      <trkpt lat="48.41241" lon="-4.38209">
        <ele>99</ele>
        <time>2012-02-26T09:44:28.62</time>
      </trkpt>
      <trkpt lat="48.4124" lon="-4.38206">
        <ele>100</ele>
        <time>2012-02-26T09:44:30.62</time>
      </trkpt>
      <trkpt lat="48.4124" lon="-4.38204">
        <ele>100</ele>
        <time>2012-02-26T09:44:31.62</time>
      </trkpt>
      <trkpt lat="48.4124" lon="-4.38202">
        <ele>100</ele>
        <time>2012-02-26T09:44:32.62</time>
      </trkpt>
      <trkpt lat="48.41239" lon="-4.38198">
        <ele>100</ele>
        <time>2012-02-26T09:44:33.62</time>
      </trkpt>
      <trkpt lat="48.41238" lon="-4.38196">
        <ele>100</ele>
        <time>2012-02-26T09:44:34.62</time>
      </trkpt>
      <trkpt lat="48.41237" lon="-4.38191">
        <ele>101</ele>
        <time>2012-02-26T09:44:35.62</time>
      </trkpt>
      <trkpt lat="48.41235" lon="-4.38187">
        <ele>101</ele>
        <time>2012-02-26T09:44:36.62</time>
      </trkpt>
      <trkpt lat="48.41234" lon="-4.38185">
        <ele>101</ele>
        <time>2012-02-26T09:44:37.63</time>
      </trkpt>
      <trkpt lat="48.41232" lon="-4.38179">
        <ele>101</ele>
        <time>2012-02-26T09:44:38.62</time>
      </trkpt>
      <trkpt lat="48.4123" lon="-4.38174">
        <ele>102</ele>
        <time>2012-02-26T09:44:39.62</time>
      </trkpt>
      <trkpt lat="48.41227" lon="-4.38168">
        <ele>103</ele>
        <time>2012-02-26T09:44:40.62</time>
      </trkpt>
      <trkpt lat="48.41224" lon="-4.38161">
        <ele>104</ele>
        <time>2012-02-26T09:44:41.62</time>
      </trkpt>
      <trkpt lat="48.41222" lon="-4.38155">
        <ele>105</ele>
        <time>2012-02-26T09:44:42.62</time>
      </trkpt>
      <trkpt lat="48.41218" lon="-4.38148">
        <ele>105</ele>
        <time>2012-02-26T09:44:43.62</time>
      </trkpt>
      <trkpt lat="48.41215" lon="-4.3814">
        <ele>105</ele>
        <time>2012-02-26T09:44:44.62</time>
      </trkpt>
      <trkpt lat="48.4121" lon="-4.38131">
        <ele>105</ele>
        <time>2012-02-26T09:44:45.62</time>
      </trkpt>
      <trkpt lat="48.41206" lon="-4.38121">
        <ele>105</ele>
        <time>2012-02-26T09:44:46.62</time>
      </trkpt>
      <trkpt lat="48.41202" lon="-4.38112">
        <ele>105</ele>
        <time>2012-02-26T09:44:47.60</time>
      </trkpt>
      <trkpt lat="48.41197" lon="-4.38101">
        <ele>105</ele>
        <time>2012-02-26T09:44:48.62</time>
      </trkpt>
      <trkpt lat="48.41194" lon="-4.38091">
        <ele>104</ele>
        <time>2012-02-26T09:44:49.62</time>
      </trkpt>
      <trkpt lat="48.41192" lon="-4.3808">
        <ele>104</ele>
        <time>2012-02-26T09:44:50.62</time>
      </trkpt>
      <trkpt lat="48.41191" lon="-4.38071">
        <ele>104</ele>
        <time>2012-02-26T09:44:51.62</time>
      </trkpt>
      <trkpt lat="48.4119" lon="-4.38061">
        <ele>104</ele>
        <time>2012-02-26T09:44:52.60</time>
      </trkpt>
      <trkpt lat="48.41189" lon="-4.3805">
        <ele>103</ele>
        <time>2012-02-26T09:44:53.62</time>
      </trkpt>
      <trkpt lat="48.41188" lon="-4.38039">
        <ele>103</ele>
        <time>2012-02-26T09:44:54.62</time>
      </trkpt>
      <trkpt lat="48.41188" lon="-4.38028">
        <ele>102</ele>
        <time>2012-02-26T09:44:55.63</time>
      </trkpt>
      <trkpt lat="48.41188" lon="-4.38018">
        <ele>101</ele>
        <time>2012-02-26T09:44:56.80</time>
      </trkpt>
      <trkpt lat="48.41188" lon="-4.38007">
        <ele>100</ele>
        <time>2012-02-26T09:44:57.62</time>
      </trkpt>
      <trkpt lat="48.41189" lon="-4.37996">
        <ele>99</ele>
        <time>2012-02-26T09:44:58.62</time>
      </trkpt>
      <trkpt lat="48.41189" lon="-4.37988">
        <ele>98</ele>
        <time>2012-02-26T09:44:59.62</time>
      </trkpt>
      <trkpt lat="48.41192" lon="-4.37981">
        <ele>97</ele>
        <time>2012-02-26T09:45:00.62</time>
      </trkpt>
      <trkpt lat="48.41194" lon="-4.37975">
        <ele>96</ele>
        <time>2012-02-26T09:45:01.67</time>
      </trkpt>
      <trkpt lat="48.41197" lon="-4.37973">
        <ele>96</ele>
        <time>2012-02-26T09:45:02.62</time>
      </trkpt>
      <trkpt lat="48.412" lon="-4.37973">
        <ele>96</ele>
        <time>2012-02-26T09:45:03.62</time>
      </trkpt>
      <trkpt lat="48.41202" lon="-4.3797">
        <ele>95</ele>
        <time>2012-02-26T09:45:04.62</time>
      </trkpt>
      <trkpt lat="48.41205" lon="-4.3797">
        <ele>95</ele>
        <time>2012-02-26T09:45:05.62</time>
      </trkpt>
      <trkpt lat="48.41207" lon="-4.3797">
        <ele>95</ele>
        <time>2012-02-26T09:45:06.62</time>
      </trkpt>
      <trkpt lat="48.4121" lon="-4.37968">
        <ele>95</ele>
        <time>2012-02-26T09:45:07.62</time>
      </trkpt>
      <trkpt lat="48.41212" lon="-4.37968">
        <ele>95</ele>
        <time>2012-02-26T09:45:08.62</time>
      </trkpt>
      <trkpt lat="48.41215" lon="-4.37966">
        <ele>95</ele>
        <time>2012-02-26T09:45:09.62</time>
      </trkpt>
      <trkpt lat="48.41216" lon="-4.37966">
        <ele>95</ele>
        <time>2012-02-26T09:45:10.62</time>
      </trkpt>
      <trkpt lat="48.41218" lon="-4.37964">
        <ele>94</ele>
        <time>2012-02-26T09:45:11.62</time>
      </trkpt>
      <trkpt lat="48.41219" lon="-4.37964">
        <ele>94</ele>
        <time>2012-02-26T09:45:12.62</time>
      </trkpt>
      <trkpt lat="48.4122" lon="-4.37964">
        <ele>94</ele>
        <time>2012-02-26T09:45:13.62</time>
      </trkpt>
      <trkpt lat="48.41222" lon="-4.37964">
        <ele>94</ele>
        <time>2012-02-26T09:45:15.62</time>
      </trkpt>
      <trkpt lat="48.41223" lon="-4.37962">
        <ele>94</ele>
        <time>2012-02-26T09:45:16.62</time>
      </trkpt>
      <trkpt lat="48.41225" lon="-4.37962">
        <ele>94</ele>
        <time>2012-02-26T09:45:17.62</time>
      </trkpt>
      <trkpt lat="48.41226" lon="-4.3796">
        <ele>93</ele>
        <time>2012-02-26T09:45:18.62</time>
      </trkpt>
      <trkpt lat="48.41227" lon="-4.3796">
        <ele>93</ele>
        <time>2012-02-26T09:45:19.62</time>
      </trkpt>
      <trkpt lat="48.41228" lon="-4.37958">
        <ele>93</ele>
        <time>2012-02-26T09:45:20.62</time>
      </trkpt>
      <trkpt lat="48.41231" lon="-4.37958">
        <ele>93</ele>
        <time>2012-02-26T09:45:21.62</time>
      </trkpt>
      <trkpt lat="48.41232" lon="-4.37955">
        <ele>93</ele>
        <time>2012-02-26T09:45:22.62</time>
      </trkpt>
      <trkpt lat="48.41235" lon="-4.37953">
        <ele>93</ele>
        <time>2012-02-26T09:45:24.62</time>
      </trkpt>
      <trkpt lat="48.41236" lon="-4.37953">
        <ele>93</ele>
        <time>2012-02-26T09:45:25.62</time>
      </trkpt>
      <trkpt lat="48.41238" lon="-4.37951">
        <ele>93</ele>
        <time>2012-02-26T09:45:26.62</time>
      </trkpt>
      <trkpt lat="48.41239" lon="-4.37951">
        <ele>93</ele>
        <time>2012-02-26T09:45:27.63</time>
      </trkpt>
      <trkpt lat="48.4124" lon="-4.37949">
        <ele>93</ele>
        <time>2012-02-26T09:45:28.62</time>
      </trkpt>
      <trkpt lat="48.41241" lon="-4.37949">
        <ele>93</ele>
        <time>2012-02-26T09:45:29.62</time>
      </trkpt>
      <trkpt lat="48.41244" lon="-4.37949">
        <ele>93</ele>
        <time>2012-02-26T09:45:30.62</time>
      </trkpt>
      <trkpt lat="48.41246" lon="-4.37947">
        <ele>93</ele>
        <time>2012-02-26T09:45:31.62</time>
      </trkpt>
      <trkpt lat="48.41248" lon="-4.37947">
        <ele>93</ele>
        <time>2012-02-26T09:45:32.62</time>
      </trkpt>
      <trkpt lat="48.41251" lon="-4.37945">
        <ele>93</ele>
        <time>2012-02-26T09:45:34.63</time>
      </trkpt>
      <trkpt lat="48.41252" lon="-4.37945">
        <ele>93</ele>
        <time>2012-02-26T09:45:35.62</time>
      </trkpt>
      <trkpt lat="48.41255" lon="-4.37945">
        <ele>93</ele>
        <time>2012-02-26T09:45:37.62</time>
      </trkpt>
      <trkpt lat="48.41257" lon="-4.37943">
        <ele>93</ele>
        <time>2012-02-26T09:45:38.62</time>
      </trkpt>
      <trkpt lat="48.41263" lon="-4.3794">
        <ele>93</ele>
        <time>2012-02-26T09:45:41.62</time>
      </trkpt>
      <trkpt lat="48.41265" lon="-4.3794">
        <ele>93</ele>
        <time>2012-02-26T09:45:42.62</time>
      </trkpt>
      <trkpt lat="48.41266" lon="-4.37938">
        <ele>93</ele>
        <time>2012-02-26T09:45:43.62</time>
      </trkpt>
      <trkpt lat="48.41268" lon="-4.37936">
        <ele>93</ele>
        <time>2012-02-26T09:45:44.62</time>
      </trkpt>
      <trkpt lat="48.41269" lon="-4.37936">
        <ele>93</ele>
        <time>2012-02-26T09:45:45.62</time>
      </trkpt>
      <trkpt lat="48.4127" lon="-4.37936">
        <ele>93</ele>
        <time>2012-02-26T09:45:46.62</time>
      </trkpt>
      <trkpt lat="48.41272" lon="-4.37934">
        <ele>93</ele>
        <time>2012-02-26T09:45:47.62</time>
      </trkpt>
      <trkpt lat="48.41276" lon="-4.37932">
        <ele>94</ele>
        <time>2012-02-26T09:45:50.62</time>
      </trkpt>
      <trkpt lat="48.41279" lon="-4.3793">
        <ele>94</ele>
        <time>2012-02-26T09:45:52.62</time>
      </trkpt>
      <trkpt lat="48.41281" lon="-4.3793">
        <ele>94</ele>
        <time>2012-02-26T09:45:53.62</time>
      </trkpt>
      <trkpt lat="48.41283" lon="-4.37927">
        <ele>94</ele>
        <time>2012-02-26T09:45:54.62</time>
      </trkpt>
      <trkpt lat="48.41289" lon="-4.37925">
        <ele>94</ele>
        <time>2012-02-26T09:45:56.62</time>
      </trkpt>
      <trkpt lat="48.41293" lon="-4.37921">
        <ele>95</ele>
        <time>2012-02-26T09:45:58.62</time>
      </trkpt>
      <trkpt lat="48.41295" lon="-4.37921">
        <ele>95</ele>
        <time>2012-02-26T09:45:59.62</time>
      </trkpt>
      <trkpt lat="48.41298" lon="-4.37919">
        <ele>95</ele>
        <time>2012-02-26T09:46:00.63</time>
      </trkpt>
      <trkpt lat="48.41304" lon="-4.37917">
        <ele>95</ele>
        <time>2012-02-26T09:46:03.62</time>
      </trkpt>
      <trkpt lat="48.41306" lon="-4.37915">
        <ele>96</ele>
        <time>2012-02-26T09:46:04.62</time>
      </trkpt>
      <trkpt lat="48.41308" lon="-4.37915">
        <ele>96</ele>
        <time>2012-02-26T09:46:05.62</time>
      </trkpt>
      <trkpt lat="48.4131" lon="-4.37912">
        <ele>96</ele>
        <time>2012-02-26T09:46:06.62</time>
      </trkpt>
      <trkpt lat="48.41313" lon="-4.3791">
        <ele>96</ele>
        <time>2012-02-26T09:46:08.62</time>
      </trkpt>
      <trkpt lat="48.41314" lon="-4.3791">
        <ele>96</ele>
        <time>2012-02-26T09:46:09.62</time>
      </trkpt>
      <trkpt lat="48.41316" lon="-4.37908">
        <ele>96</ele>
        <time>2012-02-26T09:46:10.62</time>
      </trkpt>
      <trkpt lat="48.41318" lon="-4.37908">
        <ele>97</ele>
        <time>2012-02-26T09:46:11.62</time>
      </trkpt>
      <trkpt lat="48.4132" lon="-4.37908">
        <ele>97</ele>
        <time>2012-02-26T09:46:12.62</time>
      </trkpt>
      <trkpt lat="48.41322" lon="-4.37906">
        <ele>97</ele>
        <time>2012-02-26T09:46:13.62</time>
      </trkpt>
      <trkpt lat="48.41325" lon="-4.37904">
        <ele>97</ele>
        <time>2012-02-26T09:46:15.62</time>
      </trkpt>
      <trkpt lat="48.41327" lon="-4.37904">
        <ele>98</ele>
        <time>2012-02-26T09:46:16.62</time>
      </trkpt>
      <trkpt lat="48.4133" lon="-4.37902">
        <ele>98</ele>
        <time>2012-02-26T09:46:18.62</time>
      </trkpt>
      <trkpt lat="48.41333" lon="-4.37902">
        <ele>98</ele>
        <time>2012-02-26T09:46:19.62</time>
      </trkpt>
      <trkpt lat="48.41335" lon="-4.37902">
        <ele>98</ele>
        <time>2012-02-26T09:46:20.62</time>
      </trkpt>
      <trkpt lat="48.41337" lon="-4.379">
        <ele>98</ele>
        <time>2012-02-26T09:46:21.62</time>
      </trkpt>
      <trkpt lat="48.41339" lon="-4.379">
        <ele>99</ele>
        <time>2012-02-26T09:46:22.63</time>
      </trkpt>
      <trkpt lat="48.41342" lon="-4.379">
        <ele>99</ele>
        <time>2012-02-26T09:46:23.62</time>
      </trkpt>
      <trkpt lat="48.41344" lon="-4.379">
        <ele>99</ele>
        <time>2012-02-26T09:46:24.62</time>
      </trkpt>
      <trkpt lat="48.41347" lon="-4.37897">
        <ele>99</ele>
        <time>2012-02-26T09:46:25.62</time>
      </trkpt>
      <trkpt lat="48.41349" lon="-4.37897">
        <ele>99</ele>
        <time>2012-02-26T09:46:26.62</time>
      </trkpt>
      <trkpt lat="48.41351" lon="-4.37897">
        <ele>99</ele>
        <time>2012-02-26T09:46:27.64</time>
      </trkpt>
      <trkpt lat="48.41353" lon="-4.37897">
        <ele>100</ele>
        <time>2012-02-26T09:46:28.62</time>
      </trkpt>
      <trkpt lat="48.41355" lon="-4.37895">
        <ele>100</ele>
        <time>2012-02-26T09:46:29.62</time>
      </trkpt>
      <trkpt lat="48.41357" lon="-4.37895">
        <ele>100</ele>
        <time>2012-02-26T09:46:30.62</time>
      </trkpt>
      <trkpt lat="48.41359" lon="-4.37895">
        <ele>100</ele>
        <time>2012-02-26T09:46:31.62</time>
      </trkpt>
      <trkpt lat="48.4136" lon="-4.37895">
        <ele>100</ele>
        <time>2012-02-26T09:46:32.62</time>
      </trkpt>
      <trkpt lat="48.41363" lon="-4.37895">
        <ele>100</ele>
        <time>2012-02-26T09:46:33.62</time>
      </trkpt>
      <trkpt lat="48.41365" lon="-4.37895">
        <ele>101</ele>
        <time>2012-02-26T09:46:34.62</time>
      </trkpt>
      <trkpt lat="48.41367" lon="-4.37895">
        <ele>101</ele>
        <time>2012-02-26T09:46:35.62</time>
      </trkpt>
      <trkpt lat="48.41369" lon="-4.37895">
        <ele>101</ele>
        <time>2012-02-26T09:46:36.62</time>
      </trkpt>
      <trkpt lat="48.41371" lon="-4.37895">
        <ele>101</ele>
        <time>2012-02-26T09:46:37.62</time>
      </trkpt>
      <trkpt lat="48.41372" lon="-4.37895">
        <ele>101</ele>
        <time>2012-02-26T09:46:38.62</time>
      </trkpt>
      <trkpt lat="48.41379" lon="-4.37895">
        <ele>102</ele>
        <time>2012-02-26T09:46:41.62</time>
      </trkpt>
      <trkpt lat="48.41382" lon="-4.37895">
        <ele>102</ele>
        <time>2012-02-26T09:46:42.62</time>
      </trkpt>
      <trkpt lat="48.41385" lon="-4.37895">
        <ele>102</ele>
        <time>2012-02-26T09:46:43.63</time>
      </trkpt>
      <trkpt lat="48.41388" lon="-4.37895">
        <ele>102</ele>
        <time>2012-02-26T09:46:44.62</time>
      </trkpt>
      <trkpt lat="48.4139" lon="-4.37897">
        <ele>103</ele>
        <time>2012-02-26T09:46:45.62</time>
      </trkpt>
      <trkpt lat="48.41394" lon="-4.379">
        <ele>103</ele>
        <time>2012-02-26T09:46:46.62</time>
      </trkpt>
      <trkpt lat="48.41398" lon="-4.37904">
        <ele>103</ele>
        <time>2012-02-26T09:46:48.62</time>
      </trkpt>
      <trkpt lat="48.414" lon="-4.37906">
        <ele>103</ele>
        <time>2012-02-26T09:46:49.62</time>
      </trkpt>
      <trkpt lat="48.41401" lon="-4.37908">
        <ele>103</ele>
        <time>2012-02-26T09:46:50.62</time>
      </trkpt>
      <trkpt lat="48.41407" lon="-4.37915">
        <ele>104</ele>
        <time>2012-02-26T09:46:53.62</time>
      </trkpt>
      <trkpt lat="48.41415" lon="-4.37923">
        <ele>104</ele>
        <time>2012-02-26T09:46:58.62</time>
      </trkpt>
      <trkpt lat="48.41424" lon="-4.37925">
        <ele>105</ele>
        <time>2012-02-26T09:47:02.62</time>
      </trkpt>
      <trkpt lat="48.41433" lon="-4.3793">
        <ele>105</ele>
        <time>2012-02-26T09:47:06.62</time>
      </trkpt>
      <trkpt lat="48.41439" lon="-4.3793">
        <ele>106</ele>
        <time>2012-02-26T09:47:08.62</time>
      </trkpt>
      <trkpt lat="48.41442" lon="-4.37932">
        <ele>106</ele>
        <time>2012-02-26T09:47:09.62</time>
      </trkpt>
      <trkpt lat="48.41445" lon="-4.37932">
        <ele>106</ele>
        <time>2012-02-26T09:47:10.63</time>
      </trkpt>
      <trkpt lat="48.41449" lon="-4.37934">
        <ele>106</ele>
        <time>2012-02-26T09:47:11.62</time>
      </trkpt>
      <trkpt lat="48.41454" lon="-4.37934">
        <ele>106</ele>
        <time>2012-02-26T09:47:12.62</time>
      </trkpt>
      <trkpt lat="48.41458" lon="-4.37934">
        <ele>107</ele>
        <time>2012-02-26T09:47:13.62</time>
      </trkpt>
      <trkpt lat="48.41461" lon="-4.37934">
        <ele>107</ele>
        <time>2012-02-26T09:47:14.62</time>
      </trkpt>
      <trkpt lat="48.41465" lon="-4.37932">
        <ele>107</ele>
        <time>2012-02-26T09:47:15.62</time>
      </trkpt>
      <trkpt lat="48.41468" lon="-4.3793">
        <ele>107</ele>
        <time>2012-02-26T09:47:16.62</time>
      </trkpt>
      <trkpt lat="48.41471" lon="-4.3793">
        <ele>107</ele>
        <time>2012-02-26T09:47:17.62</time>
      </trkpt>
      <trkpt lat="48.41475" lon="-4.3793">
        <ele>108</ele>
        <time>2012-02-26T09:47:19.62</time>
      </trkpt>
      <trkpt lat="48.41484" lon="-4.37932">
        <ele>109</ele>
        <time>2012-02-26T09:47:23.62</time>
      </trkpt>
      <trkpt lat="48.41492" lon="-4.37938">
        <ele>110</ele>
        <time>2012-02-26T09:47:27.62</time>
      </trkpt>
      <trkpt lat="48.41502" lon="-4.37943">
        <ele>111</ele>
        <time>2012-02-26T09:47:32.63</time>
      </trkpt>
      <trkpt lat="48.41507" lon="-4.37945">
        <ele>112</ele>
        <time>2012-02-26T09:47:35.62</time>
      </trkpt>
      <trkpt lat="48.41509" lon="-4.37945">
        <ele>112</ele>
        <time>2012-02-26T09:47:36.62</time>
      </trkpt>
      <trkpt lat="48.41511" lon="-4.37947">
        <ele>112</ele>
        <time>2012-02-26T09:47:37.62</time>
      </trkpt>
      <trkpt lat="48.41513" lon="-4.37947">
        <ele>113</ele>
        <time>2012-02-26T09:47:38.62</time>
      </trkpt>
      <trkpt lat="48.41515" lon="-4.37947">
        <ele>113</ele>
        <time>2012-02-26T09:47:39.62</time>
      </trkpt>
      <trkpt lat="48.41518" lon="-4.37949">
        <ele>114</ele>
        <time>2012-02-26T09:47:40.62</time>
      </trkpt>
      <trkpt lat="48.4152" lon="-4.37949">
        <ele>114</ele>
        <time>2012-02-26T09:47:41.65</time>
      </trkpt>
      <trkpt lat="48.41522" lon="-4.37949">
        <ele>114</ele>
        <time>2012-02-26T09:47:42.62</time>
      </trkpt>
      <trkpt lat="48.41525" lon="-4.37949">
        <ele>115</ele>
        <time>2012-02-26T09:47:43.62</time>
      </trkpt>
      <trkpt lat="48.41536" lon="-4.37947">
        <ele>115</ele>
        <time>2012-02-26T09:47:46.62</time>
      </trkpt>
      <trkpt lat="48.4154" lon="-4.37947">
        <ele>115</ele>
        <time>2012-02-26T09:47:47.62</time>
      </trkpt>
      <trkpt lat="48.41544" lon="-4.37949">
        <ele>115</ele>
        <time>2012-02-26T09:47:48.62</time>
      </trkpt>
      <trkpt lat="48.41546" lon="-4.37949">
        <ele>115</ele>
        <time>2012-02-26T09:47:49.62</time>
      </trkpt>
      <trkpt lat="48.41548" lon="-4.37949">
        <ele>115</ele>
        <time>2012-02-26T09:47:50.62</time>
      </trkpt>
      <trkpt lat="48.41551" lon="-4.37949">
        <ele>115</ele>
        <time>2012-02-26T09:47:51.62</time>
      </trkpt>
      <trkpt lat="48.41554" lon="-4.37949">
        <ele>115</ele>
        <time>2012-02-26T09:47:52.62</time>
      </trkpt>
      <trkpt lat="48.41556" lon="-4.37949">
        <ele>115</ele>
        <time>2012-02-26T09:47:53.63</time>
      </trkpt>
      <trkpt lat="48.41558" lon="-4.37951">
        <ele>115</ele>
        <time>2012-02-26T09:47:54.63</time>
      </trkpt>
      <trkpt lat="48.4156" lon="-4.37951">
        <ele>115</ele>
        <time>2012-02-26T09:47:55.62</time>
      </trkpt>
      <trkpt lat="48.41561" lon="-4.37951">
        <ele>115</ele>
        <time>2012-02-26T09:47:56.62</time>
      </trkpt>
      <trkpt lat="48.41563" lon="-4.37951">
        <ele>115</ele>
        <time>2012-02-26T09:47:57.62</time>
      </trkpt>
      <trkpt lat="48.41565" lon="-4.37951">
        <ele>115</ele>
        <time>2012-02-26T09:47:58.63</time>
      </trkpt>
      <trkpt lat="48.41566" lon="-4.37951">
        <ele>115</ele>
        <time>2012-02-26T09:47:59.62</time>
      </trkpt>
      <trkpt lat="48.4157" lon="-4.37953">
        <ele>115</ele>
        <time>2012-02-26T09:48:01.63</time>
      </trkpt>
      <trkpt lat="48.41571" lon="-4.37953">
        <ele>115</ele>
        <time>2012-02-26T09:48:02.62</time>
      </trkpt>
      <trkpt lat="48.41572" lon="-4.37953">
        <ele>115</ele>
        <time>2012-02-26T09:48:03.62</time>
      </trkpt>
      <trkpt lat="48.41574" lon="-4.37953">
        <ele>115</ele>
        <time>2012-02-26T09:48:04.63</time>
      </trkpt>
      <trkpt lat="48.41575" lon="-4.37953">
        <ele>115</ele>
        <time>2012-02-26T09:48:06.63</time>
      </trkpt>
      <trkpt lat="48.41576" lon="-4.37955">
        <ele>115</ele>
        <time>2012-02-26T09:48:07.62</time>
      </trkpt>
      <trkpt lat="48.41577" lon="-4.37955">
        <ele>115</ele>
        <time>2012-02-26T09:48:08.62</time>
      </trkpt>
      <trkpt lat="48.41578" lon="-4.37955">
        <ele>115</ele>
        <time>2012-02-26T09:48:09.62</time>
      </trkpt>
      <trkpt lat="48.41579" lon="-4.37955">
        <ele>115</ele>
        <time>2012-02-26T09:48:10.63</time>
      </trkpt>
      <trkpt lat="48.4158" lon="-4.37955">
        <ele>115</ele>
        <time>2012-02-26T09:48:12.63</time>
      </trkpt>
      <trkpt lat="48.41581" lon="-4.37958">
        <ele>115</ele>
        <time>2012-02-26T09:48:13.62</time>
      </trkpt>
      <trkpt lat="48.41583" lon="-4.37958">
        <ele>115</ele>
        <time>2012-02-26T09:48:14.62</time>
      </trkpt>
      <trkpt lat="48.41584" lon="-4.37958">
        <ele>115</ele>
        <time>2012-02-26T09:48:15.62</time>
      </trkpt>
      <trkpt lat="48.41586" lon="-4.37958">
        <ele>116</ele>
        <time>2012-02-26T09:48:16.63</time>
      </trkpt>
      <trkpt lat="48.41587" lon="-4.37958">
        <ele>116</ele>
        <time>2012-02-26T09:48:17.62</time>
      </trkpt>
      <trkpt lat="48.41589" lon="-4.37958">
        <ele>116</ele>
        <time>2012-02-26T09:48:18.63</time>
      </trkpt>
      <trkpt lat="48.4159" lon="-4.37958">
        <ele>116</ele>
        <time>2012-02-26T09:48:19.64</time>
      </trkpt>
      <trkpt lat="48.41591" lon="-4.37958">
        <ele>116</ele>
        <time>2012-02-26T09:48:20.63</time>
      </trkpt>
      <trkpt lat="48.41592" lon="-4.37958">
        <ele>116</ele>
        <time>2012-02-26T09:48:21.63</time>
      </trkpt>
      <trkpt lat="48.41593" lon="-4.37958">
        <ele>117</ele>
        <time>2012-02-26T09:48:22.62</time>
      </trkpt>
      <trkpt lat="48.41594" lon="-4.37958">
        <ele>117</ele>
        <time>2012-02-26T09:48:23.62</time>
      </trkpt>
      <trkpt lat="48.41595" lon="-4.37955">
        <ele>117</ele>
        <time>2012-02-26T09:48:24.62</time>
      </trkpt>
      <trkpt lat="48.41598" lon="-4.37955">
        <ele>117</ele>
        <time>2012-02-26T09:48:25.63</time>
      </trkpt>
      <trkpt lat="48.416" lon="-4.37955">
        <ele>117</ele>
        <time>2012-02-26T09:48:26.62</time>
      </trkpt>
      <trkpt lat="48.41602" lon="-4.37955">
        <ele>117</ele>
        <time>2012-02-26T09:48:27.62</time>
      </trkpt>
      <trkpt lat="48.41603" lon="-4.37955">
        <ele>117</ele>
        <time>2012-02-26T09:48:28.62</time>
      </trkpt>
      <trkpt lat="48.41605" lon="-4.37955">
        <ele>117</ele>
        <time>2012-02-26T09:48:29.62</time>
      </trkpt>
      <trkpt lat="48.41607" lon="-4.37955">
        <ele>117</ele>
        <time>2012-02-26T09:48:30.63</time>
      </trkpt>
      <trkpt lat="48.41608" lon="-4.37955">
        <ele>117</ele>
        <time>2012-02-26T09:48:31.63</time>
      </trkpt>
      <trkpt lat="48.4161" lon="-4.37958">
        <ele>117</ele>
        <time>2012-02-26T09:48:32.62</time>
      </trkpt>
      <trkpt lat="48.41612" lon="-4.37958">
        <ele>117</ele>
        <time>2012-02-26T09:48:33.62</time>
      </trkpt>
      <trkpt lat="48.41613" lon="-4.37958">
        <ele>117</ele>
        <time>2012-02-26T09:48:34.62</time>
      </trkpt>
      <trkpt lat="48.41615" lon="-4.3796">
        <ele>117</ele>
        <time>2012-02-26T09:48:35.62</time>
      </trkpt>
      <trkpt lat="48.41616" lon="-4.3796">
        <ele>117</ele>
        <time>2012-02-26T09:48:36.62</time>
      </trkpt>
      <trkpt lat="48.41617" lon="-4.37962">
        <ele>117</ele>
        <time>2012-02-26T09:48:38.62</time>
      </trkpt>
      <trkpt lat="48.41618" lon="-4.37962">
        <ele>117</ele>
        <time>2012-02-26T09:48:39.63</time>
      </trkpt>
      <trkpt lat="48.41619" lon="-4.37962">
        <ele>117</ele>
        <time>2012-02-26T09:48:40.62</time>
      </trkpt>
      <trkpt lat="48.41619" lon="-4.37964">
        <ele>117</ele>
        <time>2012-02-26T09:48:41.63</time>
      </trkpt>
      <trkpt lat="48.4162" lon="-4.37964">
        <ele>117</ele>
        <time>2012-02-26T09:48:42.63</time>
      </trkpt>
      <trkpt lat="48.4162" lon="-4.37966">
        <ele>117</ele>
        <time>2012-02-26T09:48:43.62</time>
      </trkpt>
      <trkpt lat="48.41621" lon="-4.37968">
        <ele>117</ele>
        <time>2012-02-26T09:48:44.63</time>
      </trkpt>
      <trkpt lat="48.41622" lon="-4.3797">
        <ele>117</ele>
        <time>2012-02-26T09:48:46.63</time>
      </trkpt>
      <trkpt lat="48.41623" lon="-4.37973">
        <ele>117</ele>
        <time>2012-02-26T09:48:47.63</time>
      </trkpt>
      <trkpt lat="48.41624" lon="-4.37975">
        <ele>117</ele>
        <time>2012-02-26T09:48:48.63</time>
      </trkpt>
      <trkpt lat="48.41625" lon="-4.37977">
        <ele>117</ele>
        <time>2012-02-26T09:48:49.63</time>
      </trkpt>
      <trkpt lat="48.41627" lon="-4.37979">
        <ele>117</ele>
        <time>2012-02-26T09:48:50.62</time>
      </trkpt>
      <trkpt lat="48.41628" lon="-4.37979">
        <ele>117</ele>
        <time>2012-02-26T09:48:51.62</time>
      </trkpt>
      <trkpt lat="48.41629" lon="-4.37979">
        <ele>117</ele>
        <time>2012-02-26T09:48:52.63</time>
      </trkpt>
      <trkpt lat="48.4163" lon="-4.37979">
        <ele>117</ele>
        <time>2012-02-26T09:48:53.62</time>
      </trkpt>
      <trkpt lat="48.41631" lon="-4.37979">
        <ele>117</ele>
        <time>2012-02-26T09:48:54.63</time>
      </trkpt>
      <trkpt lat="48.41633" lon="-4.37979">
        <ele>117</ele>
        <time>2012-02-26T09:48:55.62</time>
      </trkpt>
      <trkpt lat="48.41636" lon="-4.37981">
        <ele>117</ele>
        <time>2012-02-26T09:48:56.62</time>
      </trkpt>
      <trkpt lat="48.41638" lon="-4.37981">
        <ele>117</ele>
        <time>2012-02-26T09:48:57.63</time>
      </trkpt>
      <trkpt lat="48.4164" lon="-4.37981">
        <ele>117</ele>
        <time>2012-02-26T09:48:58.63</time>
      </trkpt>
      <trkpt lat="48.41644" lon="-4.37983">
        <ele>117</ele>
        <time>2012-02-26T09:48:59.63</time>
      </trkpt>
      <trkpt lat="48.41646" lon="-4.37983">
        <ele>117</ele>
        <time>2012-02-26T09:49:00.63</time>
      </trkpt>
      <trkpt lat="48.41648" lon="-4.37983">
        <ele>117</ele>
        <time>2012-02-26T09:49:01.63</time>
      </trkpt>
      <trkpt lat="48.4165" lon="-4.37983">
        <ele>117</ele>
        <time>2012-02-26T09:49:02.63</time>
      </trkpt>
      <trkpt lat="48.41651" lon="-4.37985">
        <ele>117</ele>
        <time>2012-02-26T09:49:03.62</time>
      </trkpt>
      <trkpt lat="48.41653" lon="-4.37985">
        <ele>117</ele>
        <time>2012-02-26T09:49:04.63</time>
      </trkpt>
      <trkpt lat="48.41655" lon="-4.37985">
        <ele>117</ele>
        <time>2012-02-26T09:49:05.62</time>
      </trkpt>
      <trkpt lat="48.41657" lon="-4.37985">
        <ele>117</ele>
        <time>2012-02-26T09:49:06.63</time>
      </trkpt>
      <trkpt lat="48.41659" lon="-4.37988">
        <ele>117</ele>
        <time>2012-02-26T09:49:07.69</time>
      </trkpt>
      <trkpt lat="48.4166" lon="-4.37988">
        <ele>117</ele>
        <time>2012-02-26T09:49:08.61</time>
      </trkpt>
      <trkpt lat="48.41662" lon="-4.3799">
        <ele>118</ele>
        <time>2012-02-26T09:49:09.63</time>
      </trkpt>
      <trkpt lat="48.41664" lon="-4.3799">
        <ele>118</ele>
        <time>2012-02-26T09:49:10.63</time>
      </trkpt>
      <trkpt lat="48.41666" lon="-4.3799">
        <ele>118</ele>
        <time>2012-02-26T09:49:11.63</time>
      </trkpt>
      <trkpt lat="48.41668" lon="-4.37992">
        <ele>118</ele>
        <time>2012-02-26T09:49:12.63</time>
      </trkpt>
      <trkpt lat="48.41671" lon="-4.37992">
        <ele>118</ele>
        <time>2012-02-26T09:49:13.60</time>
      </trkpt>
      <trkpt lat="48.41673" lon="-4.37994">
        <ele>118</ele>
        <time>2012-02-26T09:49:14.63</time>
      </trkpt>
      <trkpt lat="48.41674" lon="-4.37994">
        <ele>118</ele>
        <time>2012-02-26T09:49:15.62</time>
      </trkpt>
      <trkpt lat="48.41676" lon="-4.37994">
        <ele>118</ele>
        <time>2012-02-26T09:49:16.62</time>
      </trkpt>
      <trkpt lat="48.41677" lon="-4.37994">
        <ele>118</ele>
        <time>2012-02-26T09:49:17.63</time>
      </trkpt>
      <trkpt lat="48.41679" lon="-4.37996">
        <ele>118</ele>
        <time>2012-02-26T09:49:18.62</time>
      </trkpt>
      <trkpt lat="48.4168" lon="-4.37996">
        <ele>118</ele>
        <time>2012-02-26T09:49:19.62</time>
      </trkpt>
      <trkpt lat="48.41681" lon="-4.37994">
        <ele>119</ele>
        <time>2012-02-26T09:49:20.62</time>
      </trkpt>
      <trkpt lat="48.41683" lon="-4.37994">
        <ele>119</ele>
        <time>2012-02-26T09:49:21.63</time>
      </trkpt>
      <trkpt lat="48.41686" lon="-4.37994">
        <ele>119</ele>
        <time>2012-02-26T09:49:22.62</time>
      </trkpt>
      <trkpt lat="48.41688" lon="-4.37992">
        <ele>119</ele>
        <time>2012-02-26T09:49:23.63</time>
      </trkpt>
      <trkpt lat="48.4169" lon="-4.3799">
        <ele>119</ele>
        <time>2012-02-26T09:49:24.63</time>
      </trkpt>
      <trkpt lat="48.41691" lon="-4.37988">
        <ele>119</ele>
        <time>2012-02-26T09:49:25.63</time>
      </trkpt>
      <trkpt lat="48.41692" lon="-4.37988">
        <ele>119</ele>
        <time>2012-02-26T09:49:26.63</time>
      </trkpt>
      <trkpt lat="48.41693" lon="-4.37985">
        <ele>119</ele>
        <time>2012-02-26T09:49:27.63</time>
      </trkpt>
      <trkpt lat="48.41695" lon="-4.37985">
        <ele>119</ele>
        <time>2012-02-26T09:49:28.63</time>
      </trkpt>
      <trkpt lat="48.41696" lon="-4.37983">
        <ele>119</ele>
        <time>2012-02-26T09:49:29.63</time>
      </trkpt>
      <trkpt lat="48.41697" lon="-4.37983">
        <ele>119</ele>
        <time>2012-02-26T09:49:30.62</time>
      </trkpt>
      <trkpt lat="48.41698" lon="-4.37981">
        <ele>119</ele>
        <time>2012-02-26T09:49:31.63</time>
      </trkpt>
      <trkpt lat="48.41699" lon="-4.37981">
        <ele>120</ele>
        <time>2012-02-26T09:49:32.63</time>
      </trkpt>
      <trkpt lat="48.41701" lon="-4.37981">
        <ele>120</ele>
        <time>2012-02-26T09:49:33.63</time>
      </trkpt>
      <trkpt lat="48.41702" lon="-4.37979">
        <ele>120</ele>
        <time>2012-02-26T09:49:34.63</time>
      </trkpt>
      <trkpt lat="48.41703" lon="-4.37979">
        <ele>120</ele>
        <time>2012-02-26T09:49:35.63</time>
      </trkpt>
      <trkpt lat="48.41705" lon="-4.37979">
        <ele>120</ele>
        <time>2012-02-26T09:49:36.63</time>
      </trkpt>
      <trkpt lat="48.41706" lon="-4.37977">
        <ele>120</ele>
        <time>2012-02-26T09:49:37.63</time>
      </trkpt>
      <trkpt lat="48.41707" lon="-4.37977">
        <ele>120</ele>
        <time>2012-02-26T09:49:38.62</time>
      </trkpt>
      <trkpt lat="48.41709" lon="-4.37975">
        <ele>120</ele>
        <time>2012-02-26T09:49:39.63</time>
      </trkpt>
      <trkpt lat="48.4171" lon="-4.37975">
        <ele>121</ele>
        <time>2012-02-26T09:49:40.63</time>
      </trkpt>
      <trkpt lat="48.41711" lon="-4.37973">
        <ele>121</ele>
        <time>2012-02-26T09:49:41.63</time>
      </trkpt>
      <trkpt lat="48.41712" lon="-4.37973">
        <ele>121</ele>
        <time>2012-02-26T09:49:42.63</time>
      </trkpt>
      <trkpt lat="48.41713" lon="-4.37973">
        <ele>121</ele>
        <time>2012-02-26T09:49:43.63</time>
      </trkpt>
      <trkpt lat="48.41715" lon="-4.3797">
        <ele>121</ele>
        <time>2012-02-26T09:49:44.63</time>
      </trkpt>
      <trkpt lat="48.41716" lon="-4.3797">
        <ele>121</ele>
        <time>2012-02-26T09:49:46.63</time>
      </trkpt>
      <trkpt lat="48.41717" lon="-4.3797">
        <ele>121</ele>
        <time>2012-02-26T09:49:48.63</time>
      </trkpt>
      <trkpt lat="48.41718" lon="-4.3797">
        <ele>121</ele>
        <time>2012-02-26T09:49:49.63</time>
      </trkpt>
      <trkpt lat="48.41719" lon="-4.37968">
        <ele>121</ele>
        <time>2012-02-26T09:49:50.63</time>
      </trkpt>
      <trkpt lat="48.4172" lon="-4.37968">
        <ele>122</ele>
        <time>2012-02-26T09:49:51.63</time>
      </trkpt>
      <trkpt lat="48.41722" lon="-4.37968">
        <ele>122</ele>
        <time>2012-02-26T09:49:52.64</time>
      </trkpt>
      <trkpt lat="48.41724" lon="-4.3797">
        <ele>122</ele>
        <time>2012-02-26T09:49:53.63</time>
      </trkpt>
      <trkpt lat="48.41725" lon="-4.3797">
        <ele>122</ele>
        <time>2012-02-26T09:49:54.63</time>
      </trkpt>
      <trkpt lat="48.41727" lon="-4.3797">
        <ele>122</ele>
        <time>2012-02-26T09:49:55.63</time>
      </trkpt>
      <trkpt lat="48.4173" lon="-4.3797">
        <ele>122</ele>
        <time>2012-02-26T09:49:56.63</time>
      </trkpt>
      <trkpt lat="48.41731" lon="-4.3797">
        <ele>122</ele>
        <time>2012-02-26T09:49:57.63</time>
      </trkpt>
      <trkpt lat="48.41733" lon="-4.37973">
        <ele>122</ele>
        <time>2012-02-26T09:49:58.63</time>
      </trkpt>
      <trkpt lat="48.41735" lon="-4.37973">
        <ele>123</ele>
        <time>2012-02-26T09:49:59.63</time>
      </trkpt>
      <trkpt lat="48.41736" lon="-4.37973">
        <ele>123</ele>
        <time>2012-02-26T09:50:00.63</time>
      </trkpt>
      <trkpt lat="48.41737" lon="-4.3797">
        <ele>123</ele>
        <time>2012-02-26T09:50:01.63</time>
      </trkpt>
      <trkpt lat="48.41738" lon="-4.3797">
        <ele>123</ele>
        <time>2012-02-26T09:50:03.63</time>
      </trkpt>
      <trkpt lat="48.41739" lon="-4.3797">
        <ele>123</ele>
        <time>2012-02-26T09:50:04.63</time>
      </trkpt>
      <trkpt lat="48.41741" lon="-4.37968">
        <ele>123</ele>
        <time>2012-02-26T09:50:05.63</time>
      </trkpt>
      <trkpt lat="48.41743" lon="-4.37966">
        <ele>123</ele>
        <time>2012-02-26T09:50:06.63</time>
      </trkpt>
      <trkpt lat="48.41745" lon="-4.37964">
        <ele>123</ele>
        <time>2012-02-26T09:50:07.63</time>
      </trkpt>
      <trkpt lat="48.41746" lon="-4.37962">
        <ele>124</ele>
        <time>2012-02-26T09:50:08.63</time>
      </trkpt>
      <trkpt lat="48.41747" lon="-4.37962">
        <ele>124</ele>
        <time>2012-02-26T09:50:09.63</time>
      </trkpt>
      <trkpt lat="48.41748" lon="-4.3796">
        <ele>124</ele>
        <time>2012-02-26T09:50:10.61</time>
      </trkpt>
      <trkpt lat="48.41749" lon="-4.3796">
        <ele>124</ele>
        <time>2012-02-26T09:50:11.63</time>
      </trkpt>
      <trkpt lat="48.4175" lon="-4.37958">
        <ele>124</ele>
        <time>2012-02-26T09:50:12.63</time>
      </trkpt>
      <trkpt lat="48.41752" lon="-4.37958">
        <ele>124</ele>
        <time>2012-02-26T09:50:13.62</time>
      </trkpt>
      <trkpt lat="48.41753" lon="-4.37955">
        <ele>124</ele>
        <time>2012-02-26T09:50:14.64</time>
      </trkpt>
      <trkpt lat="48.41754" lon="-4.37953">
        <ele>124</ele>
        <time>2012-02-26T09:50:15.63</time>
      </trkpt>
      <trkpt lat="48.41755" lon="-4.37953">
        <ele>124</ele>
        <time>2012-02-26T09:50:16.63</time>
      </trkpt>
      <trkpt lat="48.41756" lon="-4.37951">
        <ele>124</ele>
        <time>2012-02-26T09:50:17.63</time>
      </trkpt>
      <trkpt lat="48.41757" lon="-4.37949">
        <ele>125</ele>
        <time>2012-02-26T09:50:18.62</time>
      </trkpt>
      <trkpt lat="48.41758" lon="-4.37947">
        <ele>125</ele>
        <time>2012-02-26T09:50:19.63</time>
      </trkpt>
      <trkpt lat="48.4176" lon="-4.37945">
        <ele>125</ele>
        <time>2012-02-26T09:50:20.63</time>
      </trkpt>
      <trkpt lat="48.41761" lon="-4.37943">
        <ele>125</ele>
        <time>2012-02-26T09:50:21.63</time>
      </trkpt>
      <trkpt lat="48.41762" lon="-4.37943">
        <ele>125</ele>
        <time>2012-02-26T09:50:22.63</time>
      </trkpt>
      <trkpt lat="48.41763" lon="-4.3794">
        <ele>125</ele>
        <time>2012-02-26T09:50:23.63</time>
      </trkpt>
      <trkpt lat="48.41764" lon="-4.37938">
        <ele>125</ele>
        <time>2012-02-26T09:50:24.62</time>
      </trkpt>
      <trkpt lat="48.41765" lon="-4.37936">
        <ele>125</ele>
        <time>2012-02-26T09:50:25.62</time>
      </trkpt>
      <trkpt lat="48.41765" lon="-4.37934">
        <ele>125</ele>
        <time>2012-02-26T09:50:26.63</time>
      </trkpt>
      <trkpt lat="48.41766" lon="-4.3793">
        <ele>126</ele>
        <time>2012-02-26T09:50:27.64</time>
      </trkpt>
      <trkpt lat="48.41766" lon="-4.37927">
        <ele>126</ele>
        <time>2012-02-26T09:50:28.62</time>
      </trkpt>
      <trkpt lat="48.41767" lon="-4.37925">
        <ele>126</ele>
        <time>2012-02-26T09:50:29.64</time>
      </trkpt>
      <trkpt lat="48.41768" lon="-4.37923">
        <ele>126</ele>
        <time>2012-02-26T09:50:30.62</time>
      </trkpt>
      <trkpt lat="48.41768" lon="-4.37921">
        <ele>126</ele>
        <time>2012-02-26T09:50:31.61</time>
      </trkpt>
      <trkpt lat="48.41769" lon="-4.37919">
        <ele>126</ele>
        <time>2012-02-26T09:50:32.63</time>
      </trkpt>
      <trkpt lat="48.41769" lon="-4.37917">
        <ele>126</ele>
        <time>2012-02-26T09:50:33.63</time>
      </trkpt>
      <trkpt lat="48.4177" lon="-4.37915">
        <ele>126</ele>
        <time>2012-02-26T09:50:34.63</time>
      </trkpt>
      <trkpt lat="48.4177" lon="-4.37912">
        <ele>126</ele>
        <time>2012-02-26T09:50:35.63</time>
      </trkpt>
      <trkpt lat="48.4177" lon="-4.3791">
        <ele>126</ele>
        <time>2012-02-26T09:50:36.63</time>
      </trkpt>
      <trkpt lat="48.41771" lon="-4.37906">
        <ele>127</ele>
        <time>2012-02-26T09:50:37.63</time>
      </trkpt>
      <trkpt lat="48.41771" lon="-4.37904">
        <ele>127</ele>
        <time>2012-02-26T09:50:38.63</time>
      </trkpt>
      <trkpt lat="48.41772" lon="-4.37902">
        <ele>127</ele>
        <time>2012-02-26T09:50:39.63</time>
      </trkpt>
      <trkpt lat="48.41774" lon="-4.379">
        <ele>127</ele>
        <time>2012-02-26T09:50:40.63</time>
      </trkpt>
      <trkpt lat="48.41775" lon="-4.37897">
        <ele>127</ele>
        <time>2012-02-26T09:50:41.67</time>
      </trkpt>
      <trkpt lat="48.41777" lon="-4.37895">
        <ele>127</ele>
        <time>2012-02-26T09:50:42.63</time>
      </trkpt>
      <trkpt lat="48.41778" lon="-4.37895">
        <ele>127</ele>
        <time>2012-02-26T09:50:43.63</time>
      </trkpt>
      <trkpt lat="48.4178" lon="-4.37893">
        <ele>127</ele>
        <time>2012-02-26T09:50:44.63</time>
      </trkpt>
      <trkpt lat="48.41781" lon="-4.37891">
        <ele>127</ele>
        <time>2012-02-26T09:50:45.63</time>
      </trkpt>
      <trkpt lat="48.41783" lon="-4.37889">
        <ele>127</ele>
        <time>2012-02-26T09:50:46.63</time>
      </trkpt>
      <trkpt lat="48.41784" lon="-4.37887">
        <ele>128</ele>
        <time>2012-02-26T09:50:47.63</time>
      </trkpt>
      <trkpt lat="48.41785" lon="-4.37887">
        <ele>128</ele>
        <time>2012-02-26T09:50:48.63</time>
      </trkpt>
      <trkpt lat="48.41786" lon="-4.37885">
        <ele>128</ele>
        <time>2012-02-26T09:50:49.63</time>
      </trkpt>
      <trkpt lat="48.41787" lon="-4.37882">
        <ele>128</ele>
        <time>2012-02-26T09:50:50.63</time>
      </trkpt>
      <trkpt lat="48.41789" lon="-4.3788">
        <ele>128</ele>
        <time>2012-02-26T09:50:51.63</time>
      </trkpt>
      <trkpt lat="48.4179" lon="-4.37878">
        <ele>128</ele>
        <time>2012-02-26T09:50:52.63</time>
      </trkpt>
      <trkpt lat="48.41791" lon="-4.37876">
        <ele>128</ele>
        <time>2012-02-26T09:50:53.63</time>
      </trkpt>
      <trkpt lat="48.41792" lon="-4.37874">
        <ele>128</ele>
        <time>2012-02-26T09:50:54.63</time>
      </trkpt>
      <trkpt lat="48.41793" lon="-4.3787">
        <ele>128</ele>
        <time>2012-02-26T09:50:55.63</time>
      </trkpt>
      <trkpt lat="48.41794" lon="-4.37867">
        <ele>128</ele>
        <time>2012-02-26T09:50:56.63</time>
      </trkpt>
      <trkpt lat="48.41794" lon="-4.37865">
        <ele>128</ele>
        <time>2012-02-26T09:50:57.63</time>
      </trkpt>
      <trkpt lat="48.41794" lon="-4.37861">
        <ele>129</ele>
        <time>2012-02-26T09:50:58.63</time>
      </trkpt>
      <trkpt lat="48.41794" lon="-4.37859">
        <ele>129</ele>
        <time>2012-02-26T09:50:59.68</time>
      </trkpt>
      <trkpt lat="48.41794" lon="-4.37857">
        <ele>129</ele>
        <time>2012-02-26T09:51:00.63</time>
      </trkpt>
      <trkpt lat="48.41794" lon="-4.37855">
        <ele>129</ele>
        <time>2012-02-26T09:51:01.63</time>
      </trkpt>
      <trkpt lat="48.41795" lon="-4.3785">
        <ele>129</ele>
        <time>2012-02-26T09:51:02.63</time>
      </trkpt>
      <trkpt lat="48.41795" lon="-4.37848">
        <ele>129</ele>
        <time>2012-02-26T09:51:03.63</time>
      </trkpt>
      <trkpt lat="48.41794" lon="-4.37844">
        <ele>129</ele>
        <time>2012-02-26T09:51:04.63</time>
      </trkpt>
      <trkpt lat="48.41794" lon="-4.37837">
        <ele>129</ele>
        <time>2012-02-26T09:51:05.63</time>
      </trkpt>
      <trkpt lat="48.41793" lon="-4.37833">
        <ele>129</ele>
        <time>2012-02-26T09:51:06.61</time>
      </trkpt>
      <trkpt lat="48.41792" lon="-4.37827">
        <ele>129</ele>
        <time>2012-02-26T09:51:07.63</time>
      </trkpt>
      <trkpt lat="48.4179" lon="-4.37822">
        <ele>129</ele>
        <time>2012-02-26T09:51:08.63</time>
      </trkpt>
      <trkpt lat="48.41789" lon="-4.37818">
        <ele>129</ele>
        <time>2012-02-26T09:51:09.65</time>
      </trkpt>
      <trkpt lat="48.41786" lon="-4.37816">
        <ele>129</ele>
        <time>2012-02-26T09:51:10.63</time>
      </trkpt>
      <trkpt lat="48.41785" lon="-4.37812">
        <ele>129</ele>
        <time>2012-02-26T09:51:11.63</time>
      </trkpt>
      <trkpt lat="48.41783" lon="-4.37809">
        <ele>129</ele>
        <time>2012-02-26T09:51:12.61</time>
      </trkpt>
      <trkpt lat="48.41781" lon="-4.37805">
        <ele>129</ele>
        <time>2012-02-26T09:51:13.64</time>
      </trkpt>
      <trkpt lat="48.41779" lon="-4.37803">
        <ele>129</ele>
        <time>2012-02-26T09:51:14.64</time>
      </trkpt>
      <trkpt lat="48.41778" lon="-4.37801">
        <ele>129</ele>
        <time>2012-02-26T09:51:15.63</time>
      </trkpt>
      <trkpt lat="48.41776" lon="-4.37799">
        <ele>129</ele>
        <time>2012-02-26T09:51:16.63</time>
      </trkpt>
      <trkpt lat="48.41774" lon="-4.37794">
        <ele>129</ele>
        <time>2012-02-26T09:51:17.63</time>
      </trkpt>
      <trkpt lat="48.41771" lon="-4.37792">
        <ele>129</ele>
        <time>2012-02-26T09:51:18.63</time>
      </trkpt>
      <trkpt lat="48.4177" lon="-4.3779">
        <ele>129</ele>
        <time>2012-02-26T09:51:19.64</time>
      </trkpt>
      <trkpt lat="48.41768" lon="-4.37788">
        <ele>129</ele>
        <time>2012-02-26T09:51:20.63</time>
      </trkpt>
      <trkpt lat="48.41767" lon="-4.37786">
        <ele>129</ele>
        <time>2012-02-26T09:51:21.64</time>
      </trkpt>
      <trkpt lat="48.41765" lon="-4.37784">
        <ele>129</ele>
        <time>2012-02-26T09:51:22.63</time>
      </trkpt>
      <trkpt lat="48.41763" lon="-4.37782">
        <ele>129</ele>
        <time>2012-02-26T09:51:23.64</time>
      </trkpt>
      <trkpt lat="48.41762" lon="-4.37782">
        <ele>129</ele>
        <time>2012-02-26T09:51:24.64</time>
      </trkpt>
      <trkpt lat="48.4176" lon="-4.37779">
        <ele>129</ele>
        <time>2012-02-26T09:51:25.63</time>
      </trkpt>
      <trkpt lat="48.41757" lon="-4.37775">
        <ele>129</ele>
        <time>2012-02-26T09:51:26.63</time>
      </trkpt>
      <trkpt lat="48.41756" lon="-4.37773">
        <ele>129</ele>
        <time>2012-02-26T09:51:27.64</time>
      </trkpt>
      <trkpt lat="48.41755" lon="-4.37771">
        <ele>129</ele>
        <time>2012-02-26T09:51:28.63</time>
      </trkpt>
      <trkpt lat="48.41754" lon="-4.37767">
        <ele>129</ele>
        <time>2012-02-26T09:51:29.63</time>
      </trkpt>
      <trkpt lat="48.41754" lon="-4.37762">
        <ele>129</ele>
        <time>2012-02-26T09:51:30.64</time>
      </trkpt>
      <trkpt lat="48.41754" lon="-4.37758">
        <ele>129</ele>
        <time>2012-02-26T09:51:31.63</time>
      </trkpt>
      <trkpt lat="48.41754" lon="-4.37756">
        <ele>129</ele>
        <time>2012-02-26T09:51:32.63</time>
      </trkpt>
      <trkpt lat="48.41755" lon="-4.37752">
        <ele>129</ele>
        <time>2012-02-26T09:51:33.64</time>
      </trkpt>
      <trkpt lat="48.41756" lon="-4.37747">
        <ele>128</ele>
        <time>2012-02-26T09:51:34.74</time>
      </trkpt>
      <trkpt lat="48.41758" lon="-4.37743">
        <ele>128</ele>
        <time>2012-02-26T09:51:35.64</time>
      </trkpt>
      <trkpt lat="48.4176" lon="-4.37739">
        <ele>128</ele>
        <time>2012-02-26T09:51:36.62</time>
      </trkpt>
      <trkpt lat="48.41763" lon="-4.37737">
        <ele>128</ele>
        <time>2012-02-26T09:51:37.63</time>
      </trkpt>
      <trkpt lat="48.41765" lon="-4.37732">
        <ele>128</ele>
        <time>2012-02-26T09:51:38.63</time>
      </trkpt>
      <trkpt lat="48.41767" lon="-4.3773">
        <ele>128</ele>
        <time>2012-02-26T09:51:39.63</time>
      </trkpt>
      <trkpt lat="48.41769" lon="-4.37726">
        <ele>128</ele>
        <time>2012-02-26T09:51:40.63</time>
      </trkpt>
      <trkpt lat="48.41772" lon="-4.37721">
        <ele>128</ele>
        <time>2012-02-26T09:51:41.63</time>
      </trkpt>
      <trkpt lat="48.41775" lon="-4.37719">
        <ele>128</ele>
        <time>2012-02-26T09:51:42.63</time>
      </trkpt>
      <trkpt lat="48.41777" lon="-4.37715">
        <ele>128</ele>
        <time>2012-02-26T09:51:43.75</time>
      </trkpt>
      <trkpt lat="48.41779" lon="-4.37711">
        <ele>128</ele>
        <time>2012-02-26T09:51:44.63</time>
      </trkpt>
      <trkpt lat="48.41781" lon="-4.37709">
        <ele>129</ele>
        <time>2012-02-26T09:51:45.63</time>
      </trkpt>
      <trkpt lat="48.41783" lon="-4.37704">
        <ele>129</ele>
        <time>2012-02-26T09:51:46.63</time>
      </trkpt>
      <trkpt lat="48.41784" lon="-4.37702">
        <ele>129</ele>
        <time>2012-02-26T09:51:47.63</time>
      </trkpt>
      <trkpt lat="48.41786" lon="-4.37698">
        <ele>129</ele>
        <time>2012-02-26T09:51:48.63</time>
      </trkpt>
      <trkpt lat="48.41789" lon="-4.37694">
        <ele>129</ele>
        <time>2012-02-26T09:51:49.63</time>
      </trkpt>
      <trkpt lat="48.41791" lon="-4.37689">
        <ele>129</ele>
        <time>2012-02-26T09:51:50.65</time>
      </trkpt>
      <trkpt lat="48.41792" lon="-4.37685">
        <ele>129</ele>
        <time>2012-02-26T09:51:51.63</time>
      </trkpt>
      <trkpt lat="48.41794" lon="-4.37683">
        <ele>129</ele>
        <time>2012-02-26T09:51:52.63</time>
      </trkpt>
      <trkpt lat="48.41795" lon="-4.37679">
        <ele>130</ele>
        <time>2012-02-26T09:51:53.63</time>
      </trkpt>
      <trkpt lat="48.41797" lon="-4.37674">
        <ele>130</ele>
        <time>2012-02-26T09:51:54.63</time>
      </trkpt>
      <trkpt lat="48.41798" lon="-4.37672">
        <ele>130</ele>
        <time>2012-02-26T09:51:55.63</time>
      </trkpt>
      <trkpt lat="48.41799" lon="-4.37668">
        <ele>130</ele>
        <time>2012-02-26T09:51:56.63</time>
      </trkpt>
      <trkpt lat="48.418" lon="-4.37664">
        <ele>131</ele>
        <time>2012-02-26T09:51:57.63</time>
      </trkpt>
      <trkpt lat="48.41802" lon="-4.37659">
        <ele>131</ele>
        <time>2012-02-26T09:51:58.63</time>
      </trkpt>
      <trkpt lat="48.41804" lon="-4.37655">
        <ele>131</ele>
        <time>2012-02-26T09:51:59.63</time>
      </trkpt>
      <trkpt lat="48.41805" lon="-4.37649">
        <ele>131</ele>
        <time>2012-02-26T09:52:00.63</time>
      </trkpt>
      <trkpt lat="48.41807" lon="-4.37644">
        <ele>132</ele>
        <time>2012-02-26T09:52:01.63</time>
      </trkpt>
      <trkpt lat="48.41808" lon="-4.3764">
        <ele>132</ele>
        <time>2012-02-26T09:52:02.63</time>
      </trkpt>
      <trkpt lat="48.41809" lon="-4.37636">
        <ele>132</ele>
        <time>2012-02-26T09:52:03.63</time>
      </trkpt>
      <trkpt lat="48.41811" lon="-4.37631">
        <ele>132</ele>
        <time>2012-02-26T09:52:04.63</time>
      </trkpt>
      <trkpt lat="48.41812" lon="-4.37627">
        <ele>133</ele>
        <time>2012-02-26T09:52:05.63</time>
      </trkpt>
      <trkpt lat="48.41813" lon="-4.37625">
        <ele>133</ele>
        <time>2012-02-26T09:52:06.63</time>
      </trkpt>
      <trkpt lat="48.41814" lon="-4.37621">
        <ele>133</ele>
        <time>2012-02-26T09:52:07.63</time>
      </trkpt>
      <trkpt lat="48.41816" lon="-4.37616">
        <ele>133</ele>
        <time>2012-02-26T09:52:08.63</time>
      </trkpt>
      <trkpt lat="48.41817" lon="-4.37614">
        <ele>133</ele>
        <time>2012-02-26T09:52:09.63</time>
      </trkpt>
      <trkpt lat="48.41819" lon="-4.3761">
        <ele>134</ele>
        <time>2012-02-26T09:52:10.63</time>
      </trkpt>
      <trkpt lat="48.41819" lon="-4.37608">
        <ele>134</ele>
        <time>2012-02-26T09:52:11.63</time>
      </trkpt>
      <trkpt lat="48.4182" lon="-4.37606">
        <ele>134</ele>
        <time>2012-02-26T09:52:12.63</time>
      </trkpt>
      <trkpt lat="48.41821" lon="-4.37603">
        <ele>134</ele>
        <time>2012-02-26T09:52:13.63</time>
      </trkpt>
      <trkpt lat="48.41821" lon="-4.37601">
        <ele>134</ele>
        <time>2012-02-26T09:52:14.63</time>
      </trkpt>
      <trkpt lat="48.41821" lon="-4.37599">
        <ele>135</ele>
        <time>2012-02-26T09:52:16.63</time>
      </trkpt>
      <trkpt lat="48.41824" lon="-4.37597">
        <ele>135</ele>
        <time>2012-02-26T09:52:23.64</time>
      </trkpt>
      <trkpt lat="48.41824" lon="-4.37593">
        <ele>136</ele>
        <time>2012-02-26T09:52:30.64</time>
      </trkpt>
      <trkpt lat="48.41824" lon="-4.37595">
        <ele>136</ele>
        <time>2012-02-26T09:52:37.64</time>
      </trkpt>
      <trkpt lat="48.41824" lon="-4.37593">
        <ele>136</ele>
        <time>2012-02-26T09:52:38.64</time>
      </trkpt>
      <trkpt lat="48.41827" lon="-4.37599">
        <ele>137</ele>
        <time>2012-02-26T09:52:45.64</time>
      </trkpt>
      <trkpt lat="48.41828" lon="-4.37599">
        <ele>138</ele>
        <time>2012-02-26T09:52:52.64</time>
      </trkpt>
      <trkpt lat="48.41829" lon="-4.37597">
        <ele>139</ele>
        <time>2012-02-26T09:52:59.64</time>
      </trkpt>
      <trkpt lat="48.41829" lon="-4.37593">
        <ele>139</ele>
        <time>2012-02-26T09:53:01.63</time>
      </trkpt>
      <trkpt lat="48.41829" lon="-4.37591">
        <ele>139</ele>
        <time>2012-02-26T09:53:02.62</time>
      </trkpt>
      <trkpt lat="48.41828" lon="-4.37588">
        <ele>139</ele>
        <time>2012-02-26T09:53:03.63</time>
      </trkpt>
      <trkpt lat="48.41828" lon="-4.37586">
        <ele>139</ele>
        <time>2012-02-26T09:53:04.63</time>
      </trkpt>
      <trkpt lat="48.41828" lon="-4.37582">
        <ele>139</ele>
        <time>2012-02-26T09:53:05.64</time>
      </trkpt>
      <trkpt lat="48.41827" lon="-4.37578">
        <ele>139</ele>
        <time>2012-02-26T09:53:06.63</time>
      </trkpt>
      <trkpt lat="48.41827" lon="-4.37573">
        <ele>139</ele>
        <time>2012-02-26T09:53:07.63</time>
      </trkpt>
      <trkpt lat="48.41827" lon="-4.37571">
        <ele>139</ele>
        <time>2012-02-26T09:53:08.63</time>
      </trkpt>
      <trkpt lat="48.41827" lon="-4.37567">
        <ele>139</ele>
        <time>2012-02-26T09:53:09.63</time>
      </trkpt>
      <trkpt lat="48.41827" lon="-4.37563">
        <ele>139</ele>
        <time>2012-02-26T09:53:10.60</time>
      </trkpt>
      <trkpt lat="48.41828" lon="-4.37561">
        <ele>139</ele>
        <time>2012-02-26T09:53:11.63</time>
      </trkpt>
      <trkpt lat="48.41829" lon="-4.37556">
        <ele>139</ele>
        <time>2012-02-26T09:53:12.63</time>
      </trkpt>
      <trkpt lat="48.4183" lon="-4.37554">
        <ele>140</ele>
        <time>2012-02-26T09:53:13.63</time>
      </trkpt>
      <trkpt lat="48.41831" lon="-4.37552">
        <ele>140</ele>
        <time>2012-02-26T09:53:14.63</time>
      </trkpt>
      <trkpt lat="48.41831" lon="-4.37548">
        <ele>140</ele>
        <time>2012-02-26T09:53:15.63</time>
      </trkpt>
      <trkpt lat="48.41833" lon="-4.37546">
        <ele>140</ele>
        <time>2012-02-26T09:53:16.64</time>
      </trkpt>
      <trkpt lat="48.41834" lon="-4.37543">
        <ele>140</ele>
        <time>2012-02-26T09:53:17.62</time>
      </trkpt>
      <trkpt lat="48.41835" lon="-4.37541">
        <ele>140</ele>
        <time>2012-02-26T09:53:18.62</time>
      </trkpt>
      <trkpt lat="48.41836" lon="-4.37539">
        <ele>140</ele>
        <time>2012-02-26T09:53:20.63</time>
      </trkpt>
      <trkpt lat="48.41837" lon="-4.37539">
        <ele>140</ele>
        <time>2012-02-26T09:53:21.63</time>
      </trkpt>
      <trkpt lat="48.41838" lon="-4.37537">
        <ele>140</ele>
        <time>2012-02-26T09:53:22.64</time>
      </trkpt>
      <trkpt lat="48.41839" lon="-4.37539">
        <ele>140</ele>
        <time>2012-02-26T09:53:23.62</time>
      </trkpt>
      <trkpt lat="48.41839" lon="-4.37537">
        <ele>140</ele>
        <time>2012-02-26T09:53:25.62</time>
      </trkpt>
      <trkpt lat="48.4184" lon="-4.37537">
        <ele>140</ele>
        <time>2012-02-26T09:53:26.64</time>
      </trkpt>
      <trkpt lat="48.4184" lon="-4.37539">
        <ele>140</ele>
        <time>2012-02-26T09:53:27.63</time>
      </trkpt>
      <trkpt lat="48.4184" lon="-4.37537">
        <ele>140</ele>
        <time>2012-02-26T09:53:29.62</time>
      </trkpt>
      <trkpt lat="48.4184" lon="-4.37539">
        <ele>140</ele>
        <time>2012-02-26T09:53:30.68</time>
      </trkpt>
      <trkpt lat="48.41839" lon="-4.37539">
        <ele>140</ele>
        <time>2012-02-26T09:53:31.63</time>
      </trkpt>
      <trkpt lat="48.41837" lon="-4.37539">
        <ele>140</ele>
        <time>2012-02-26T09:53:38.63</time>
      </trkpt>
      <trkpt lat="48.41839" lon="-4.37537">
        <ele>140</ele>
        <time>2012-02-26T09:53:39.61</time>
      </trkpt>
      <trkpt lat="48.4184" lon="-4.37535">
        <ele>140</ele>
        <time>2012-02-26T09:53:40.62</time>
      </trkpt>
      <trkpt lat="48.41842" lon="-4.37535">
        <ele>140</ele>
        <time>2012-02-26T09:53:41.69</time>
      </trkpt>
      <trkpt lat="48.41843" lon="-4.37533">
        <ele>140</ele>
        <time>2012-02-26T09:53:42.61</time>
      </trkpt>
      <trkpt lat="48.41845" lon="-4.37533">
        <ele>140</ele>
        <time>2012-02-26T09:53:43.62</time>
      </trkpt>
      <trkpt lat="48.41848" lon="-4.37533">
        <ele>140</ele>
        <time>2012-02-26T09:53:44.63</time>
      </trkpt>
      <trkpt lat="48.4185" lon="-4.37531">
        <ele>140</ele>
        <time>2012-02-26T09:53:45.61</time>
      </trkpt>
      <trkpt lat="48.41853" lon="-4.37531">
        <ele>140</ele>
        <time>2012-02-26T09:53:46.62</time>
      </trkpt>
      <trkpt lat="48.41855" lon="-4.37531">
        <ele>140</ele>
        <time>2012-02-26T09:53:47.63</time>
      </trkpt>
      <trkpt lat="48.41856" lon="-4.37531">
        <ele>140</ele>
        <time>2012-02-26T09:53:48.61</time>
      </trkpt>
      <trkpt lat="48.41858" lon="-4.37531">
        <ele>140</ele>
        <time>2012-02-26T09:53:49.61</time>
      </trkpt>
      <trkpt lat="48.4186" lon="-4.37531">
        <ele>140</ele>
        <time>2012-02-26T09:53:50.62</time>
      </trkpt>
      <trkpt lat="48.41861" lon="-4.37531">
        <ele>140</ele>
        <time>2012-02-26T09:53:51.61</time>
      </trkpt>
      <trkpt lat="48.41864" lon="-4.37531">
        <ele>140</ele>
        <time>2012-02-26T09:53:52.62</time>
      </trkpt>
      <trkpt lat="48.41866" lon="-4.37531">
        <ele>140</ele>
        <time>2012-02-26T09:53:53.62</time>
      </trkpt>
      <trkpt lat="48.41868" lon="-4.37531">
        <ele>140</ele>
        <time>2012-02-26T09:53:54.61</time>
      </trkpt>
      <trkpt lat="48.4187" lon="-4.37528">
        <ele>140</ele>
        <time>2012-02-26T09:53:55.61</time>
      </trkpt>
      <trkpt lat="48.41872" lon="-4.37528">
        <ele>140</ele>
        <time>2012-02-26T09:53:56.62</time>
      </trkpt>
      <trkpt lat="48.41874" lon="-4.37528">
        <ele>140</ele>
        <time>2012-02-26T09:53:57.61</time>
      </trkpt>
      <trkpt lat="48.41877" lon="-4.37528">
        <ele>140</ele>
        <time>2012-02-26T09:53:58.62</time>
      </trkpt>
      <trkpt lat="48.41879" lon="-4.37526">
        <ele>140</ele>
        <time>2012-02-26T09:53:59.62</time>
      </trkpt>
      <trkpt lat="48.41882" lon="-4.37526">
        <ele>140</ele>
        <time>2012-02-26T09:54:00.63</time>
      </trkpt>
      <trkpt lat="48.41885" lon="-4.37526">
        <ele>140</ele>
        <time>2012-02-26T09:54:01.61</time>
      </trkpt>
      <trkpt lat="48.41887" lon="-4.37524">
        <ele>140</ele>
        <time>2012-02-26T09:54:02.62</time>
      </trkpt>
      <trkpt lat="48.4189" lon="-4.37524">
        <ele>140</ele>
        <time>2012-02-26T09:54:03.63</time>
      </trkpt>
      <trkpt lat="48.41894" lon="-4.37524">
        <ele>140</ele>
        <time>2012-02-26T09:54:04.61</time>
      </trkpt>
      <trkpt lat="48.41896" lon="-4.37522">
        <ele>140</ele>
        <time>2012-02-26T09:54:05.62</time>
      </trkpt>
      <trkpt lat="48.41899" lon="-4.37522">
        <ele>140</ele>
        <time>2012-02-26T09:54:06.62</time>
      </trkpt>
      <trkpt lat="48.41902" lon="-4.37522">
        <ele>140</ele>
        <time>2012-02-26T09:54:07.61</time>
      </trkpt>
      <trkpt lat="48.41905" lon="-4.3752">
        <ele>140</ele>
        <time>2012-02-26T09:54:08.62</time>
      </trkpt>
      <trkpt lat="48.41908" lon="-4.3752">
        <ele>140</ele>
        <time>2012-02-26T09:54:09.61</time>
      </trkpt>
      <trkpt lat="48.41911" lon="-4.3752">
        <ele>141</ele>
        <time>2012-02-26T09:54:10.61</time>
      </trkpt>
      <trkpt lat="48.41914" lon="-4.37518">
        <ele>141</ele>
        <time>2012-02-26T09:54:11.62</time>
      </trkpt>
      <trkpt lat="48.41917" lon="-4.37518">
        <ele>141</ele>
        <time>2012-02-26T09:54:12.61</time>
      </trkpt>
      <trkpt lat="48.41919" lon="-4.37515">
        <ele>141</ele>
        <time>2012-02-26T09:54:13.61</time>
      </trkpt>
      <trkpt lat="48.41923" lon="-4.37515">
        <ele>141</ele>
        <time>2012-02-26T09:54:14.62</time>
      </trkpt>
      <trkpt lat="48.41926" lon="-4.37513">
        <ele>141</ele>
        <time>2012-02-26T09:54:15.61</time>
      </trkpt>
      <trkpt lat="48.41928" lon="-4.37513">
        <ele>141</ele>
        <time>2012-02-26T09:54:16.61</time>
      </trkpt>
      <trkpt lat="48.41931" lon="-4.37513">
        <ele>141</ele>
        <time>2012-02-26T09:54:17.62</time>
      </trkpt>
      <trkpt lat="48.41934" lon="-4.37511">
        <ele>141</ele>
        <time>2012-02-26T09:54:18.61</time>
      </trkpt>
      <trkpt lat="48.41937" lon="-4.37511">
        <ele>141</ele>
        <time>2012-02-26T09:54:19.61</time>
      </trkpt>
      <trkpt lat="48.41939" lon="-4.37509">
        <ele>141</ele>
        <time>2012-02-26T09:54:20.61</time>
      </trkpt>
      <trkpt lat="48.41942" lon="-4.37507">
        <ele>141</ele>
        <time>2012-02-26T09:54:21.62</time>
      </trkpt>
      <trkpt lat="48.41943" lon="-4.37505">
        <ele>141</ele>
        <time>2012-02-26T09:54:22.63</time>
      </trkpt>
      <trkpt lat="48.41945" lon="-4.37503">
        <ele>141</ele>
        <time>2012-02-26T09:54:23.61</time>
      </trkpt>
      <trkpt lat="48.41947" lon="-4.37498">
        <ele>141</ele>
        <time>2012-02-26T09:54:24.62</time>
      </trkpt>
      <trkpt lat="48.41949" lon="-4.37494">
        <ele>141</ele>
        <time>2012-02-26T09:54:25.66</time>
      </trkpt>
      <trkpt lat="48.41951" lon="-4.3749">
        <ele>141</ele>
        <time>2012-02-26T09:54:26.61</time>
      </trkpt>
      <trkpt lat="48.41953" lon="-4.37485">
        <ele>142</ele>
        <time>2012-02-26T09:54:27.62</time>
      </trkpt>
      <trkpt lat="48.41954" lon="-4.37481">
        <ele>142</ele>
        <time>2012-02-26T09:54:28.63</time>
      </trkpt>
      <trkpt lat="48.41955" lon="-4.37477">
        <ele>142</ele>
        <time>2012-02-26T09:54:29.61</time>
      </trkpt>
      <trkpt lat="48.41956" lon="-4.37473">
        <ele>142</ele>
        <time>2012-02-26T09:54:30.62</time>
      </trkpt>
      <trkpt lat="48.41957" lon="-4.37468">
        <ele>142</ele>
        <time>2012-02-26T09:54:31.62</time>
      </trkpt>
      <trkpt lat="48.41958" lon="-4.37464">
        <ele>142</ele>
        <time>2012-02-26T09:54:32.61</time>
      </trkpt>
      <trkpt lat="48.41959" lon="-4.3746">
        <ele>142</ele>
        <time>2012-02-26T09:54:33.62</time>
      </trkpt>
      <trkpt lat="48.4196" lon="-4.37455">
        <ele>142</ele>
        <time>2012-02-26T09:54:34.69</time>
      </trkpt>
      <trkpt lat="48.41961" lon="-4.37451">
        <ele>142</ele>
        <time>2012-02-26T09:54:35.61</time>
      </trkpt>
      <trkpt lat="48.41962" lon="-4.37447">
        <ele>142</ele>
        <time>2012-02-26T09:54:36.62</time>
      </trkpt>
      <trkpt lat="48.41963" lon="-4.3744">
        <ele>142</ele>
        <time>2012-02-26T09:54:37.61</time>
      </trkpt>
      <trkpt lat="48.41964" lon="-4.37436">
        <ele>142</ele>
        <time>2012-02-26T09:54:38.61</time>
      </trkpt>
      <trkpt lat="48.41964" lon="-4.37432">
        <ele>142</ele>
        <time>2012-02-26T09:54:39.62</time>
      </trkpt>
      <trkpt lat="48.41966" lon="-4.37425">
        <ele>142</ele>
        <time>2012-02-26T09:54:40.61</time>
      </trkpt>
      <trkpt lat="48.41967" lon="-4.37419">
        <ele>142</ele>
        <time>2012-02-26T09:54:41.61</time>
      </trkpt>
      <trkpt lat="48.41968" lon="-4.37415">
        <ele>142</ele>
        <time>2012-02-26T09:54:42.61</time>
      </trkpt>
      <trkpt lat="48.41968" lon="-4.37408">
        <ele>143</ele>
        <time>2012-02-26T09:54:43.62</time>
      </trkpt>
      <trkpt lat="48.41969" lon="-4.37402">
        <ele>143</ele>
        <time>2012-02-26T09:54:44.68</time>
      </trkpt>
      <trkpt lat="48.41969" lon="-4.37395">
        <ele>143</ele>
        <time>2012-02-26T09:54:45.62</time>
      </trkpt>
      <trkpt lat="48.4197" lon="-4.37389">
        <ele>143</ele>
        <time>2012-02-26T09:54:46.62</time>
      </trkpt>
      <trkpt lat="48.4197" lon="-4.37382">
        <ele>143</ele>
        <time>2012-02-26T09:54:47.67</time>
      </trkpt>
      <trkpt lat="48.4197" lon="-4.37376">
        <ele>143</ele>
        <time>2012-02-26T09:54:48.61</time>
      </trkpt>
      <trkpt lat="48.4197" lon="-4.3737">
        <ele>143</ele>
        <time>2012-02-26T09:54:49.62</time>
      </trkpt>
      <trkpt lat="48.4197" lon="-4.37365">
        <ele>143</ele>
        <time>2012-02-26T09:54:50.63</time>
      </trkpt>
      <trkpt lat="48.4197" lon="-4.37359">
        <ele>143</ele>
        <time>2012-02-26T09:54:51.61</time>
      </trkpt>
      <trkpt lat="48.41971" lon="-4.37352">
        <ele>144</ele>
        <time>2012-02-26T09:54:52.62</time>
      </trkpt>
      <trkpt lat="48.41971" lon="-4.37348">
        <ele>144</ele>
        <time>2012-02-26T09:54:53.63</time>
      </trkpt>
      <trkpt lat="48.41972" lon="-4.37342">
        <ele>144</ele>
        <time>2012-02-26T09:54:54.61</time>
      </trkpt>
      <trkpt lat="48.41973" lon="-4.37335">
        <ele>143</ele>
        <time>2012-02-26T09:54:55.62</time>
      </trkpt>
      <trkpt lat="48.41974" lon="-4.37329">
        <ele>144</ele>
        <time>2012-02-26T09:54:56.62</time>
      </trkpt>
      <trkpt lat="48.41975" lon="-4.37322">
        <ele>144</ele>
        <time>2012-02-26T09:54:57.61</time>
      </trkpt>
      <trkpt lat="48.41976" lon="-4.37316">
        <ele>144</ele>
        <time>2012-02-26T09:54:58.62</time>
      </trkpt>
      <trkpt lat="48.41978" lon="-4.3731">
        <ele>144</ele>
        <time>2012-02-26T09:54:59.62</time>
      </trkpt>
      <trkpt lat="48.4198" lon="-4.37303">
        <ele>144</ele>
        <time>2012-02-26T09:55:00.61</time>
      </trkpt>
      <trkpt lat="48.41982" lon="-4.37297">
        <ele>144</ele>
        <time>2012-02-26T09:55:01.62</time>
      </trkpt>
      <trkpt lat="48.41983" lon="-4.3729">
        <ele>144</ele>
        <time>2012-02-26T09:55:02.61</time>
      </trkpt>
      <trkpt lat="48.41984" lon="-4.37284">
        <ele>144</ele>
        <time>2012-02-26T09:55:03.61</time>
      </trkpt>
      <trkpt lat="48.41984" lon="-4.37277">
        <ele>144</ele>
        <time>2012-02-26T09:55:04.62</time>
      </trkpt>
      <trkpt lat="48.41984" lon="-4.37269">
        <ele>144</ele>
        <time>2012-02-26T09:55:05.62</time>
      </trkpt>
      <trkpt lat="48.41985" lon="-4.3726">
        <ele>144</ele>
        <time>2012-02-26T09:55:06.63</time>
      </trkpt>
      <trkpt lat="48.41985" lon="-4.37254">
        <ele>144</ele>
        <time>2012-02-26T09:55:07.61</time>
      </trkpt>
      <trkpt lat="48.41985" lon="-4.37245">
        <ele>144</ele>
        <time>2012-02-26T09:55:08.61</time>
      </trkpt>
      <trkpt lat="48.41984" lon="-4.37234">
        <ele>144</ele>
        <time>2012-02-26T09:55:09.63</time>
      </trkpt>
      <trkpt lat="48.41984" lon="-4.37226">
        <ele>144</ele>
        <time>2012-02-26T09:55:10.61</time>
      </trkpt>
      <trkpt lat="48.41983" lon="-4.37217">
        <ele>144</ele>
        <time>2012-02-26T09:55:11.61</time>
      </trkpt>
      <trkpt lat="48.41983" lon="-4.37207">
        <ele>144</ele>
        <time>2012-02-26T09:55:12.61</time>
      </trkpt>
      <trkpt lat="48.41982" lon="-4.37196">
        <ele>144</ele>
        <time>2012-02-26T09:55:13.61</time>
      </trkpt>
      <trkpt lat="48.41982" lon="-4.37187">
        <ele>144</ele>
        <time>2012-02-26T09:55:14.62</time>
      </trkpt>
      <trkpt lat="48.41981" lon="-4.37176">
        <ele>144</ele>
        <time>2012-02-26T09:55:15.61</time>
      </trkpt>
      <trkpt lat="48.41981" lon="-4.37168">
        <ele>144</ele>
        <time>2012-02-26T09:55:16.61</time>
      </trkpt>
      <trkpt lat="48.41982" lon="-4.37159">
        <ele>143</ele>
        <time>2012-02-26T09:55:17.61</time>
      </trkpt>
      <trkpt lat="48.41982" lon="-4.37149">
        <ele>143</ele>
        <time>2012-02-26T09:55:18.63</time>
      </trkpt>
      <trkpt lat="48.41982" lon="-4.37138">
        <ele>143</ele>
        <time>2012-02-26T09:55:19.61</time>
      </trkpt>
      <trkpt lat="48.41983" lon="-4.37127">
        <ele>143</ele>
        <time>2012-02-26T09:55:20.61</time>
      </trkpt>
      <trkpt lat="48.41982" lon="-4.37114">
        <ele>143</ele>
        <time>2012-02-26T09:55:21.68</time>
      </trkpt>
      <trkpt lat="48.41983" lon="-4.37101">
        <ele>142</ele>
        <time>2012-02-26T09:55:22.61</time>
      </trkpt>
      <trkpt lat="48.41983" lon="-4.37086">
        <ele>141</ele>
        <time>2012-02-26T09:55:23.62</time>
      </trkpt>
      <trkpt lat="48.41984" lon="-4.37071">
        <ele>140</ele>
        <time>2012-02-26T09:55:24.62</time>
      </trkpt>
      <trkpt lat="48.41985" lon="-4.37056">
        <ele>140</ele>
        <time>2012-02-26T09:55:25.64</time>
      </trkpt>
      <trkpt lat="48.41986" lon="-4.37043">
        <ele>140</ele>
        <time>2012-02-26T09:55:26.62</time>
      </trkpt>
      <trkpt lat="48.41987" lon="-4.37028">
        <ele>139</ele>
        <time>2012-02-26T09:55:27.62</time>
      </trkpt>
      <trkpt lat="48.41988" lon="-4.37016">
        <ele>138</ele>
        <time>2012-02-26T09:55:28.63</time>
      </trkpt>
      <trkpt lat="48.41989" lon="-4.37001">
        <ele>137</ele>
        <time>2012-02-26T09:55:29.62</time>
      </trkpt>
      <trkpt lat="48.4199" lon="-4.36988">
        <ele>135</ele>
        <time>2012-02-26T09:55:30.62</time>
      </trkpt>
      <trkpt lat="48.41991" lon="-4.36975">
        <ele>135</ele>
        <time>2012-02-26T09:55:31.63</time>
      </trkpt>
      <trkpt lat="48.41991" lon="-4.36962">
        <ele>134</ele>
        <time>2012-02-26T09:55:32.61</time>
      </trkpt>
      <trkpt lat="48.41989" lon="-4.36951">
        <ele>133</ele>
        <time>2012-02-26T09:55:33.61</time>
      </trkpt>
      <trkpt lat="48.41987" lon="-4.3694">
        <ele>132</ele>
        <time>2012-02-26T09:55:34.63</time>
      </trkpt>
      <trkpt lat="48.41985" lon="-4.36932">
        <ele>131</ele>
        <time>2012-02-26T09:55:35.61</time>
      </trkpt>
      <trkpt lat="48.41982" lon="-4.36921">
        <ele>130</ele>
        <time>2012-02-26T09:55:36.62</time>
      </trkpt>
      <trkpt lat="48.4198" lon="-4.36913">
        <ele>130</ele>
        <time>2012-02-26T09:55:37.67</time>
      </trkpt>
      <trkpt lat="48.41976" lon="-4.36904">
        <ele>129</ele>
        <time>2012-02-26T09:55:38.61</time>
      </trkpt>
      <trkpt lat="48.41973" lon="-4.36895">
        <ele>128</ele>
        <time>2012-02-26T09:55:39.62</time>
      </trkpt>
      <trkpt lat="48.41969" lon="-4.36889">
        <ele>127</ele>
        <time>2012-02-26T09:55:40.63</time>
      </trkpt>
      <trkpt lat="48.41963" lon="-4.36882">
        <ele>127</ele>
        <time>2012-02-26T09:55:41.61</time>
      </trkpt>
      <trkpt lat="48.41958" lon="-4.36876">
        <ele>126</ele>
        <time>2012-02-26T09:55:42.62</time>
      </trkpt>
      <trkpt lat="48.41952" lon="-4.36872">
        <ele>126</ele>
        <time>2012-02-26T09:55:43.62</time>
      </trkpt>
      <trkpt lat="48.41946" lon="-4.36867">
        <ele>125</ele>
        <time>2012-02-26T09:55:44.61</time>
      </trkpt>
      <trkpt lat="48.4194" lon="-4.36863">
        <ele>125</ele>
        <time>2012-02-26T09:55:45.62</time>
      </trkpt>
      <trkpt lat="48.41933" lon="-4.36859">
        <ele>125</ele>
        <time>2012-02-26T09:55:46.60</time>
      </trkpt>
      <trkpt lat="48.41927" lon="-4.36852">
        <ele>124</ele>
        <time>2012-02-26T09:55:47.62</time>
      </trkpt>
      <trkpt lat="48.41919" lon="-4.36848">
        <ele>124</ele>
        <time>2012-02-26T09:55:48.61</time>
      </trkpt>
      <trkpt lat="48.41913" lon="-4.36844">
        <ele>123</ele>
        <time>2012-02-26T09:55:49.61</time>
      </trkpt>
      <trkpt lat="48.41908" lon="-4.36842">
        <ele>123</ele>
        <time>2012-02-26T09:55:50.61</time>
      </trkpt>
      <trkpt lat="48.41903" lon="-4.36837">
        <ele>123</ele>
        <time>2012-02-26T09:55:51.61</time>
      </trkpt>
      <trkpt lat="48.41899" lon="-4.36835">
        <ele>122</ele>
        <time>2012-02-26T09:55:52.61</time>
      </trkpt>
      <trkpt lat="48.41895" lon="-4.36833">
        <ele>122</ele>
        <time>2012-02-26T09:55:53.67</time>
      </trkpt>
      <trkpt lat="48.41894" lon="-4.36827">
        <ele>122</ele>
        <time>2012-02-26T09:55:54.61</time>
      </trkpt>
      <trkpt lat="48.41895" lon="-4.36818">
        <ele>122</ele>
        <time>2012-02-26T09:55:55.61</time>
      </trkpt>
      <trkpt lat="48.41896" lon="-4.36807">
        <ele>122</ele>
        <time>2012-02-26T09:55:56.61</time>
      </trkpt>
      <trkpt lat="48.41896" lon="-4.36799">
        <ele>122</ele>
        <time>2012-02-26T09:55:57.61</time>
      </trkpt>
      <trkpt lat="48.41894" lon="-4.36792">
        <ele>122</ele>
        <time>2012-02-26T09:55:58.61</time>
      </trkpt>
      <trkpt lat="48.41892" lon="-4.36788">
        <ele>121</ele>
        <time>2012-02-26T09:55:59.61</time>
      </trkpt>
      <trkpt lat="48.41887" lon="-4.36784">
        <ele>121</ele>
        <time>2012-02-26T09:56:00.61</time>
      </trkpt>
      <trkpt lat="48.41883" lon="-4.36779">
        <ele>121</ele>
        <time>2012-02-26T09:56:01.61</time>
      </trkpt>
      <trkpt lat="48.4188" lon="-4.36777">
        <ele>121</ele>
        <time>2012-02-26T09:56:02.61</time>
      </trkpt>
      <trkpt lat="48.41874" lon="-4.36773">
        <ele>121</ele>
        <time>2012-02-26T09:56:03.62</time>
      </trkpt>
      <trkpt lat="48.41867" lon="-4.36769">
        <ele>120</ele>
        <time>2012-02-26T09:56:04.61</time>
      </trkpt>
      <trkpt lat="48.41859" lon="-4.36764">
        <ele>120</ele>
        <time>2012-02-26T09:56:05.61</time>
      </trkpt>
      <trkpt lat="48.41852" lon="-4.3676">
        <ele>120</ele>
        <time>2012-02-26T09:56:06.62</time>
      </trkpt>
      <trkpt lat="48.41844" lon="-4.36756">
        <ele>120</ele>
        <time>2012-02-26T09:56:07.61</time>
      </trkpt>
      <trkpt lat="48.41837" lon="-4.36754">
        <ele>120</ele>
        <time>2012-02-26T09:56:08.61</time>
      </trkpt>
      <trkpt lat="48.4183" lon="-4.36749">
        <ele>120</ele>
        <time>2012-02-26T09:56:09.61</time>
      </trkpt>
      <trkpt lat="48.41824" lon="-4.36745">
        <ele>119</ele>
        <time>2012-02-26T09:56:10.61</time>
      </trkpt>
      <trkpt lat="48.41819" lon="-4.36741">
        <ele>119</ele>
        <time>2012-02-26T09:56:11.61</time>
      </trkpt>
      <trkpt lat="48.41814" lon="-4.36739">
        <ele>119</ele>
        <time>2012-02-26T09:56:12.61</time>
      </trkpt>
      <trkpt lat="48.41811" lon="-4.36734">
        <ele>119</ele>
        <time>2012-02-26T09:56:13.61</time>
      </trkpt>
      <trkpt lat="48.41808" lon="-4.36732">
        <ele>119</ele>
        <time>2012-02-26T09:56:14.61</time>
      </trkpt>
      <trkpt lat="48.41806" lon="-4.3673">
        <ele>119</ele>
        <time>2012-02-26T09:56:15.61</time>
      </trkpt>
      <trkpt lat="48.41804" lon="-4.3673">
        <ele>119</ele>
        <time>2012-02-26T09:56:16.61</time>
      </trkpt>
      <trkpt lat="48.41802" lon="-4.36728">
        <ele>119</ele>
        <time>2012-02-26T09:56:17.60</time>
      </trkpt>
      <trkpt lat="48.41798" lon="-4.36724">
        <ele>118</ele>
        <time>2012-02-26T09:56:21.61</time>
      </trkpt>
      <trkpt lat="48.41797" lon="-4.36717">
        <ele>118</ele>
        <time>2012-02-26T09:56:26.61</time>
      </trkpt>
      <trkpt lat="48.41797" lon="-4.36715">
        <ele>118</ele>
        <time>2012-02-26T09:56:27.61</time>
      </trkpt>
      <trkpt lat="48.41796" lon="-4.36713">
        <ele>118</ele>
        <time>2012-02-26T09:56:28.61</time>
      </trkpt>
      <trkpt lat="48.41794" lon="-4.36709">
        <ele>118</ele>
        <time>2012-02-26T09:56:29.61</time>
      </trkpt>
      <trkpt lat="48.41792" lon="-4.36704">
        <ele>117</ele>
        <time>2012-02-26T09:56:30.62</time>
      </trkpt>
      <trkpt lat="48.4179" lon="-4.367">
        <ele>116</ele>
        <time>2012-02-26T09:56:31.61</time>
      </trkpt>
      <trkpt lat="48.41787" lon="-4.36694">
        <ele>116</ele>
        <time>2012-02-26T09:56:32.61</time>
      </trkpt>
      <trkpt lat="48.41784" lon="-4.36685">
        <ele>115</ele>
        <time>2012-02-26T09:56:33.61</time>
      </trkpt>
      <trkpt lat="48.41782" lon="-4.36677">
        <ele>115</ele>
        <time>2012-02-26T09:56:34.61</time>
      </trkpt>
      <trkpt lat="48.4178" lon="-4.3667">
        <ele>115</ele>
        <time>2012-02-26T09:56:35.61</time>
      </trkpt>
      <trkpt lat="48.41778" lon="-4.36661">
        <ele>115</ele>
        <time>2012-02-26T09:56:36.61</time>
      </trkpt>
      <trkpt lat="48.41776" lon="-4.36655">
        <ele>115</ele>
        <time>2012-02-26T09:56:37.61</time>
      </trkpt>
      <trkpt lat="48.41772" lon="-4.36649">
        <ele>115</ele>
        <time>2012-02-26T09:56:38.61</time>
      </trkpt>
      <trkpt lat="48.41769" lon="-4.36644">
        <ele>116</ele>
        <time>2012-02-26T09:56:39.61</time>
      </trkpt>
      <trkpt lat="48.41765" lon="-4.3664">
        <ele>116</ele>
        <time>2012-02-26T09:56:40.61</time>
      </trkpt>
      <trkpt lat="48.4176" lon="-4.36638">
        <ele>116</ele>
        <time>2012-02-26T09:56:41.61</time>
      </trkpt>
      <trkpt lat="48.41755" lon="-4.36636">
        <ele>116</ele>
        <time>2012-02-26T09:56:42.62</time>
      </trkpt>
      <trkpt lat="48.41751" lon="-4.36634">
        <ele>116</ele>
        <time>2012-02-26T09:56:43.62</time>
      </trkpt>
      <trkpt lat="48.41746" lon="-4.36631">
        <ele>116</ele>
        <time>2012-02-26T09:56:44.62</time>
      </trkpt>
      <trkpt lat="48.4174" lon="-4.36629">
        <ele>116</ele>
        <time>2012-02-26T09:56:45.62</time>
      </trkpt>
      <trkpt lat="48.41736" lon="-4.36629">
        <ele>116</ele>
        <time>2012-02-26T09:56:46.62</time>
      </trkpt>
      <trkpt lat="48.41733" lon="-4.36627">
        <ele>116</ele>
        <time>2012-02-26T09:56:47.61</time>
      </trkpt>
      <trkpt lat="48.41728" lon="-4.36625">
        <ele>116</ele>
        <time>2012-02-26T09:56:48.61</time>
      </trkpt>
      <trkpt lat="48.41725" lon="-4.36623">
        <ele>116</ele>
        <time>2012-02-26T09:56:49.59</time>
      </trkpt>
      <trkpt lat="48.41722" lon="-4.36621">
        <ele>116</ele>
        <time>2012-02-26T09:56:50.61</time>
      </trkpt>
      <trkpt lat="48.41721" lon="-4.36619">
        <ele>116</ele>
        <time>2012-02-26T09:56:51.61</time>
      </trkpt>
      <trkpt lat="48.41718" lon="-4.36619">
        <ele>116</ele>
        <time>2012-02-26T09:56:54.61</time>
      </trkpt>
      <trkpt lat="48.41712" lon="-4.36604">
        <ele>116</ele>
        <time>2012-02-26T09:57:00.62</time>
      </trkpt>
      <trkpt lat="48.41711" lon="-4.36599">
        <ele>116</ele>
        <time>2012-02-26T09:57:01.64</time>
      </trkpt>
      <trkpt lat="48.41707" lon="-4.36597">
        <ele>116</ele>
        <time>2012-02-26T09:57:02.61</time>
      </trkpt>
      <trkpt lat="48.41705" lon="-4.36593">
        <ele>116</ele>
        <time>2012-02-26T09:57:03.61</time>
      </trkpt>
      <trkpt lat="48.41703" lon="-4.36591">
        <ele>116</ele>
        <time>2012-02-26T09:57:04.61</time>
      </trkpt>
      <trkpt lat="48.41701" lon="-4.36586">
        <ele>116</ele>
        <time>2012-02-26T09:57:05.61</time>
      </trkpt>
      <trkpt lat="48.41698" lon="-4.36578">
        <ele>116</ele>
        <time>2012-02-26T09:57:06.61</time>
      </trkpt>
      <trkpt lat="48.41697" lon="-4.36571">
        <ele>116</ele>
        <time>2012-02-26T09:57:07.62</time>
      </trkpt>
      <trkpt lat="48.41695" lon="-4.36565">
        <ele>116</ele>
        <time>2012-02-26T09:57:08.61</time>
      </trkpt>
      <trkpt lat="48.41694" lon="-4.36558">
        <ele>116</ele>
        <time>2012-02-26T09:57:09.61</time>
      </trkpt>
      <trkpt lat="48.41693" lon="-4.36552">
        <ele>116</ele>
        <time>2012-02-26T09:57:10.61</time>
      </trkpt>
      <trkpt lat="48.41692" lon="-4.36546">
        <ele>116</ele>
        <time>2012-02-26T09:57:11.62</time>
      </trkpt>
      <trkpt lat="48.41691" lon="-4.36537">
        <ele>117</ele>
        <time>2012-02-26T09:57:12.61</time>
      </trkpt>
      <trkpt lat="48.4169" lon="-4.36528">
        <ele>117</ele>
        <time>2012-02-26T09:57:13.61</time>
      </trkpt>
      <trkpt lat="48.41689" lon="-4.3652">
        <ele>117</ele>
        <time>2012-02-26T09:57:14.61</time>
      </trkpt>
      <trkpt lat="48.41688" lon="-4.36513">
        <ele>117</ele>
        <time>2012-02-26T09:57:15.61</time>
      </trkpt>
      <trkpt lat="48.41688" lon="-4.36507">
        <ele>117</ele>
        <time>2012-02-26T09:57:16.61</time>
      </trkpt>
      <trkpt lat="48.41687" lon="-4.36503">
        <ele>117</ele>
        <time>2012-02-26T09:57:17.61</time>
      </trkpt>
      <trkpt lat="48.41681" lon="-4.36492">
        <ele>117</ele>
        <time>2012-02-26T09:57:21.61</time>
      </trkpt>
      <trkpt lat="48.41676" lon="-4.36486">
        <ele>117</ele>
        <time>2012-02-26T09:57:24.61</time>
      </trkpt>
      <trkpt lat="48.41675" lon="-4.36481">
        <ele>117</ele>
        <time>2012-02-26T09:57:25.61</time>
      </trkpt>
      <trkpt lat="48.41673" lon="-4.36477">
        <ele>117</ele>
        <time>2012-02-26T09:57:26.62</time>
      </trkpt>
      <trkpt lat="48.41671" lon="-4.36473">
        <ele>117</ele>
        <time>2012-02-26T09:57:27.62</time>
      </trkpt>
      <trkpt lat="48.41669" lon="-4.36471">
        <ele>117</ele>
        <time>2012-02-26T09:57:28.62</time>
      </trkpt>
      <trkpt lat="48.41663" lon="-4.3646">
        <ele>116</ele>
        <time>2012-02-26T09:57:34.61</time>
      </trkpt>
      <trkpt lat="48.41652" lon="-4.3644">
        <ele>114</ele>
        <time>2012-02-26T09:57:41.62</time>
      </trkpt>
      <trkpt lat="48.41649" lon="-4.36438">
        <ele>114</ele>
        <time>2012-02-26T09:57:42.62</time>
      </trkpt>
      <trkpt lat="48.41647" lon="-4.36434">
        <ele>114</ele>
        <time>2012-02-26T09:57:43.62</time>
      </trkpt>
      <trkpt lat="48.41645" lon="-4.36432">
        <ele>114</ele>
        <time>2012-02-26T09:57:44.63</time>
      </trkpt>
      <trkpt lat="48.41642" lon="-4.36428">
        <ele>114</ele>
        <time>2012-02-26T09:57:45.62</time>
      </trkpt>
      <trkpt lat="48.41639" lon="-4.36425">
        <ele>114</ele>
        <time>2012-02-26T09:57:46.61</time>
      </trkpt>
      <trkpt lat="48.41636" lon="-4.36423">
        <ele>114</ele>
        <time>2012-02-26T09:57:47.61</time>
      </trkpt>
      <trkpt lat="48.41634" lon="-4.36421">
        <ele>114</ele>
        <time>2012-02-26T09:57:48.62</time>
      </trkpt>
      <trkpt lat="48.41631" lon="-4.36417">
        <ele>113</ele>
        <time>2012-02-26T09:57:49.61</time>
      </trkpt>
      <trkpt lat="48.41629" lon="-4.36415">
        <ele>113</ele>
        <time>2012-02-26T09:57:50.62</time>
      </trkpt>
      <trkpt lat="48.41627" lon="-4.36408">
        <ele>113</ele>
        <time>2012-02-26T09:57:51.62</time>
      </trkpt>
      <trkpt lat="48.41624" lon="-4.36402">
        <ele>113</ele>
        <time>2012-02-26T09:57:52.62</time>
      </trkpt>
      <trkpt lat="48.41621" lon="-4.36398">
        <ele>113</ele>
        <time>2012-02-26T09:57:53.62</time>
      </trkpt>
      <trkpt lat="48.41618" lon="-4.36391">
        <ele>113</ele>
        <time>2012-02-26T09:57:54.62</time>
      </trkpt>
      <trkpt lat="48.41615" lon="-4.36387">
        <ele>113</ele>
        <time>2012-02-26T09:57:55.63</time>
      </trkpt>
      <trkpt lat="48.41609" lon="-4.36383">
        <ele>113</ele>
        <time>2012-02-26T09:57:56.62</time>
      </trkpt>
      <trkpt lat="48.41605" lon="-4.36376">
        <ele>113</ele>
        <time>2012-02-26T09:57:57.62</time>
      </trkpt>
      <trkpt lat="48.41601" lon="-4.3637">
        <ele>113</ele>
        <time>2012-02-26T09:57:58.61</time>
      </trkpt>
      <trkpt lat="48.41595" lon="-4.36365">
        <ele>113</ele>
        <time>2012-02-26T09:57:59.61</time>
      </trkpt>
      <trkpt lat="48.41591" lon="-4.36359">
        <ele>113</ele>
        <time>2012-02-26T09:58:00.61</time>
      </trkpt>
      <trkpt lat="48.41587" lon="-4.36355">
        <ele>114</ele>
        <time>2012-02-26T09:58:01.61</time>
      </trkpt>
      <trkpt lat="48.41584" lon="-4.3635">
        <ele>114</ele>
        <time>2012-02-26T09:58:02.61</time>
      </trkpt>
      <trkpt lat="48.41581" lon="-4.36348">
        <ele>115</ele>
        <time>2012-02-26T09:58:03.61</time>
      </trkpt>
      <trkpt lat="48.4158" lon="-4.36342">
        <ele>115</ele>
        <time>2012-02-26T09:58:04.62</time>
      </trkpt>
      <trkpt lat="48.41578" lon="-4.36337">
        <ele>116</ele>
        <time>2012-02-26T09:58:05.62</time>
      </trkpt>
      <trkpt lat="48.41576" lon="-4.36333">
        <ele>117</ele>
        <time>2012-02-26T09:58:06.62</time>
      </trkpt>
      <trkpt lat="48.41574" lon="-4.36329">
        <ele>117</ele>
        <time>2012-02-26T09:58:07.62</time>
      </trkpt>
      <trkpt lat="48.41571" lon="-4.36322">
        <ele>118</ele>
        <time>2012-02-26T09:58:08.62</time>
      </trkpt>
      <trkpt lat="48.41569" lon="-4.36318">
        <ele>119</ele>
        <time>2012-02-26T09:58:09.62</time>
      </trkpt>
      <trkpt lat="48.41565" lon="-4.36314">
        <ele>121</ele>
        <time>2012-02-26T09:58:10.61</time>
      </trkpt>
      <trkpt lat="48.41563" lon="-4.36307">
        <ele>122</ele>
        <time>2012-02-26T09:58:11.61</time>
      </trkpt>
      <trkpt lat="48.41561" lon="-4.36303">
        <ele>122</ele>
        <time>2012-02-26T09:58:12.61</time>
      </trkpt>
      <trkpt lat="48.4156" lon="-4.36297">
        <ele>123</ele>
        <time>2012-02-26T09:58:13.61</time>
      </trkpt>
      <trkpt lat="48.41558" lon="-4.36292">
        <ele>123</ele>
        <time>2012-02-26T09:58:14.61</time>
      </trkpt>
      <trkpt lat="48.41555" lon="-4.36288">
        <ele>123</ele>
        <time>2012-02-26T09:58:15.61</time>
      </trkpt>
      <trkpt lat="48.41552" lon="-4.36282">
        <ele>122</ele>
        <time>2012-02-26T09:58:16.61</time>
      </trkpt>
      <trkpt lat="48.41549" lon="-4.36275">
        <ele>122</ele>
        <time>2012-02-26T09:58:17.62</time>
      </trkpt>
      <trkpt lat="48.41546" lon="-4.36271">
        <ele>122</ele>
        <time>2012-02-26T09:58:18.61</time>
      </trkpt>
      <trkpt lat="48.41542" lon="-4.36267">
        <ele>122</ele>
        <time>2012-02-26T09:58:19.61</time>
      </trkpt>
      <trkpt lat="48.41539" lon="-4.36262">
        <ele>122</ele>
        <time>2012-02-26T09:58:20.62</time>
      </trkpt>
      <trkpt lat="48.41531" lon="-4.36252">
        <ele>123</ele>
        <time>2012-02-26T09:58:25.62</time>
      </trkpt>
      <trkpt lat="48.41529" lon="-4.36249">
        <ele>122</ele>
        <time>2012-02-26T09:58:26.62</time>
      </trkpt>
      <trkpt lat="48.41525" lon="-4.36247">
        <ele>122</ele>
        <time>2012-02-26T09:58:27.62</time>
      </trkpt>
      <trkpt lat="48.41516" lon="-4.36239">
        <ele>122</ele>
        <time>2012-02-26T09:58:30.62</time>
      </trkpt>
      <trkpt lat="48.41488" lon="-4.36222">
        <ele>116</ele>
        <time>2012-02-26T09:58:37.62</time>
      </trkpt>
      <trkpt lat="48.41481" lon="-4.36224">
        <ele>112</ele>
        <time>2012-02-26T09:58:38.61</time>
      </trkpt>
      <trkpt lat="48.41473" lon="-4.36224">
        <ele>110</ele>
        <time>2012-02-26T09:58:39.62</time>
      </trkpt>
      <trkpt lat="48.41466" lon="-4.36224">
        <ele>108</ele>
        <time>2012-02-26T09:58:40.62</time>
      </trkpt>
      <trkpt lat="48.41459" lon="-4.36226">
        <ele>107</ele>
        <time>2012-02-26T09:58:41.62</time>
      </trkpt>
      <trkpt lat="48.41452" lon="-4.36226">
        <ele>106</ele>
        <time>2012-02-26T09:58:42.62</time>
      </trkpt>
      <trkpt lat="48.41446" lon="-4.36226">
        <ele>105</ele>
        <time>2012-02-26T09:58:43.62</time>
      </trkpt>
      <trkpt lat="48.4144" lon="-4.36226">
        <ele>105</ele>
        <time>2012-02-26T09:58:44.68</time>
      </trkpt>
      <trkpt lat="48.41433" lon="-4.36226">
        <ele>105</ele>
        <time>2012-02-26T09:58:45.62</time>
      </trkpt>
      <trkpt lat="48.41429" lon="-4.36226">
        <ele>105</ele>
        <time>2012-02-26T09:58:46.62</time>
      </trkpt>
      <trkpt lat="48.41425" lon="-4.36224">
        <ele>105</ele>
        <time>2012-02-26T09:58:47.62</time>
      </trkpt>
      <trkpt lat="48.41421" lon="-4.36224">
        <ele>105</ele>
        <time>2012-02-26T09:58:48.62</time>
      </trkpt>
      <trkpt lat="48.41416" lon="-4.36224">
        <ele>106</ele>
        <time>2012-02-26T09:58:49.62</time>
      </trkpt>
      <trkpt lat="48.41412" lon="-4.36222">
        <ele>106</ele>
        <time>2012-02-26T09:58:50.62</time>
      </trkpt>
      <trkpt lat="48.41408" lon="-4.36222">
        <ele>106</ele>
        <time>2012-02-26T09:58:51.62</time>
      </trkpt>
      <trkpt lat="48.41402" lon="-4.36219">
        <ele>106</ele>
        <time>2012-02-26T09:58:52.62</time>
      </trkpt>
      <trkpt lat="48.41398" lon="-4.36219">
        <ele>106</ele>
        <time>2012-02-26T09:58:53.62</time>
      </trkpt>
      <trkpt lat="48.41393" lon="-4.36217">
        <ele>105</ele>
        <time>2012-02-26T09:58:54.64</time>
      </trkpt>
      <trkpt lat="48.41388" lon="-4.36217">
        <ele>104</ele>
        <time>2012-02-26T09:58:55.62</time>
      </trkpt>
      <trkpt lat="48.41383" lon="-4.36215">
        <ele>104</ele>
        <time>2012-02-26T09:58:56.62</time>
      </trkpt>
      <trkpt lat="48.41378" lon="-4.36215">
        <ele>104</ele>
        <time>2012-02-26T09:58:57.62</time>
      </trkpt>
      <trkpt lat="48.41371" lon="-4.36213">
        <ele>104</ele>
        <time>2012-02-26T09:58:58.62</time>
      </trkpt>
      <trkpt lat="48.41366" lon="-4.36213">
        <ele>103</ele>
        <time>2012-02-26T09:58:59.62</time>
      </trkpt>
      <trkpt lat="48.4136" lon="-4.36213">
        <ele>103</ele>
        <time>2012-02-26T09:59:00.61</time>
      </trkpt>
      <trkpt lat="48.41355" lon="-4.36211">
        <ele>102</ele>
        <time>2012-02-26T09:59:01.60</time>
      </trkpt>
      <trkpt lat="48.4135" lon="-4.36211">
        <ele>101</ele>
        <time>2012-02-26T09:59:02.62</time>
      </trkpt>
      <trkpt lat="48.41345" lon="-4.36211">
        <ele>101</ele>
        <time>2012-02-26T09:59:03.62</time>
      </trkpt>
      <trkpt lat="48.41342" lon="-4.36211">
        <ele>101</ele>
        <time>2012-02-26T09:59:04.62</time>
      </trkpt>
      <trkpt lat="48.41339" lon="-4.36211">
        <ele>101</ele>
        <time>2012-02-26T09:59:05.62</time>
      </trkpt>
      <trkpt lat="48.41333" lon="-4.36211">
        <ele>101</ele>
        <time>2012-02-26T09:59:07.62</time>
      </trkpt>
      <trkpt lat="48.41329" lon="-4.36211">
        <ele>101</ele>
        <time>2012-02-26T09:59:08.62</time>
      </trkpt>
      <trkpt lat="48.41326" lon="-4.36211">
        <ele>101</ele>
        <time>2012-02-26T09:59:09.62</time>
      </trkpt>
      <trkpt lat="48.41323" lon="-4.36211">
        <ele>101</ele>
        <time>2012-02-26T09:59:10.62</time>
      </trkpt>
      <trkpt lat="48.41319" lon="-4.36211">
        <ele>101</ele>
        <time>2012-02-26T09:59:11.62</time>
      </trkpt>
      <trkpt lat="48.41313" lon="-4.36211">
        <ele>102</ele>
        <time>2012-02-26T09:59:12.62</time>
      </trkpt>
      <trkpt lat="48.41309" lon="-4.36211">
        <ele>102</ele>
        <time>2012-02-26T09:59:13.62</time>
      </trkpt>
      <trkpt lat="48.41306" lon="-4.36211">
        <ele>102</ele>
        <time>2012-02-26T09:59:14.62</time>
      </trkpt>
      <trkpt lat="48.41301" lon="-4.36211">
        <ele>102</ele>
        <time>2012-02-26T09:59:15.62</time>
      </trkpt>
      <trkpt lat="48.41297" lon="-4.36211">
        <ele>102</ele>
        <time>2012-02-26T09:59:16.62</time>
      </trkpt>
      <trkpt lat="48.41293" lon="-4.36211">
        <ele>102</ele>
        <time>2012-02-26T09:59:17.60</time>
      </trkpt>
      <trkpt lat="48.41289" lon="-4.36211">
        <ele>102</ele>
        <time>2012-02-26T09:59:18.62</time>
      </trkpt>
      <trkpt lat="48.41285" lon="-4.36211">
        <ele>101</ele>
        <time>2012-02-26T09:59:19.62</time>
      </trkpt>
      <trkpt lat="48.4128" lon="-4.36213">
        <ele>101</ele>
        <time>2012-02-26T09:59:20.62</time>
      </trkpt>
      <trkpt lat="48.41276" lon="-4.36215">
        <ele>101</ele>
        <time>2012-02-26T09:59:21.62</time>
      </trkpt>
      <trkpt lat="48.41274" lon="-4.36219">
        <ele>100</ele>
        <time>2012-02-26T09:59:22.65</time>
      </trkpt>
      <trkpt lat="48.4127" lon="-4.36224">
        <ele>100</ele>
        <time>2012-02-26T09:59:23.62</time>
      </trkpt>
      <trkpt lat="48.41269" lon="-4.36228">
        <ele>100</ele>
        <time>2012-02-26T09:59:24.62</time>
      </trkpt>
      <trkpt lat="48.41267" lon="-4.36232">
        <ele>99</ele>
        <time>2012-02-26T09:59:25.62</time>
      </trkpt>
      <trkpt lat="48.41266" lon="-4.36237">
        <ele>99</ele>
        <time>2012-02-26T09:59:26.62</time>
      </trkpt>
      <trkpt lat="48.41264" lon="-4.36241">
        <ele>99</ele>
        <time>2012-02-26T09:59:27.61</time>
      </trkpt>
      <trkpt lat="48.41263" lon="-4.36245">
        <ele>98</ele>
        <time>2012-02-26T09:59:28.64</time>
      </trkpt>
      <trkpt lat="48.41262" lon="-4.36247">
        <ele>98</ele>
        <time>2012-02-26T09:59:29.62</time>
      </trkpt>
      <trkpt lat="48.41261" lon="-4.36252">
        <ele>98</ele>
        <time>2012-02-26T09:59:30.63</time>
      </trkpt>
      <trkpt lat="48.41257" lon="-4.36258">
        <ele>97</ele>
        <time>2012-02-26T09:59:32.63</time>
      </trkpt>
      <trkpt lat="48.41255" lon="-4.36265">
        <ele>97</ele>
        <time>2012-02-26T09:59:34.62</time>
      </trkpt>
      <trkpt lat="48.41254" lon="-4.36267">
        <ele>96</ele>
        <time>2012-02-26T09:59:35.62</time>
      </trkpt>
      <trkpt lat="48.41253" lon="-4.36271">
        <ele>96</ele>
        <time>2012-02-26T09:59:36.62</time>
      </trkpt>
      <trkpt lat="48.41252" lon="-4.36275">
        <ele>96</ele>
        <time>2012-02-26T09:59:37.62</time>
      </trkpt>
      <trkpt lat="48.41251" lon="-4.3628">
        <ele>95</ele>
        <time>2012-02-26T09:59:38.66</time>
      </trkpt>
      <trkpt lat="48.4125" lon="-4.36284">
        <ele>95</ele>
        <time>2012-02-26T09:59:39.62</time>
      </trkpt>
      <trkpt lat="48.41249" lon="-4.3629">
        <ele>95</ele>
        <time>2012-02-26T09:59:40.63</time>
      </trkpt>
      <trkpt lat="48.41248" lon="-4.36295">
        <ele>95</ele>
        <time>2012-02-26T09:59:41.62</time>
      </trkpt>
      <trkpt lat="48.41247" lon="-4.36299">
        <ele>94</ele>
        <time>2012-02-26T09:59:42.62</time>
      </trkpt>
      <trkpt lat="48.41246" lon="-4.36303">
        <ele>94</ele>
        <time>2012-02-26T09:59:43.62</time>
      </trkpt>
      <trkpt lat="48.41246" lon="-4.36307">
        <ele>94</ele>
        <time>2012-02-26T09:59:44.62</time>
      </trkpt>
      <trkpt lat="48.41245" lon="-4.3631">
        <ele>93</ele>
        <time>2012-02-26T09:59:45.62</time>
      </trkpt>
      <trkpt lat="48.41244" lon="-4.36314">
        <ele>93</ele>
        <time>2012-02-26T09:59:46.62</time>
      </trkpt>
      <trkpt lat="48.41242" lon="-4.36318">
        <ele>93</ele>
        <time>2012-02-26T09:59:47.62</time>
      </trkpt>
      <trkpt lat="48.41241" lon="-4.3632">
        <ele>93</ele>
        <time>2012-02-26T09:59:48.62</time>
      </trkpt>
      <trkpt lat="48.4124" lon="-4.36325">
        <ele>93</ele>
        <time>2012-02-26T09:59:49.62</time>
      </trkpt>
      <trkpt lat="48.41239" lon="-4.36329">
        <ele>93</ele>
        <time>2012-02-26T09:59:50.64</time>
      </trkpt>
      <trkpt lat="48.41239" lon="-4.36331">
        <ele>92</ele>
        <time>2012-02-26T09:59:51.62</time>
      </trkpt>
      <trkpt lat="48.41238" lon="-4.36335">
        <ele>92</ele>
        <time>2012-02-26T09:59:52.63</time>
      </trkpt>
      <trkpt lat="48.41238" lon="-4.36337">
        <ele>92</ele>
        <time>2012-02-26T09:59:53.62</time>
      </trkpt>
      <trkpt lat="48.41238" lon="-4.36342">
        <ele>92</ele>
        <time>2012-02-26T09:59:54.62</time>
      </trkpt>
      <trkpt lat="48.41237" lon="-4.36344">
        <ele>92</ele>
        <time>2012-02-26T09:59:55.63</time>
      </trkpt>
      <trkpt lat="48.41237" lon="-4.36348">
        <ele>92</ele>
        <time>2012-02-26T09:59:56.63</time>
      </trkpt>
      <trkpt lat="48.41237" lon="-4.36352">
        <ele>91</ele>
        <time>2012-02-26T09:59:57.62</time>
      </trkpt>
      <trkpt lat="48.41236" lon="-4.36357">
        <ele>91</ele>
        <time>2012-02-26T09:59:58.63</time>
      </trkpt>
      <trkpt lat="48.41236" lon="-4.36361">
        <ele>91</ele>
        <time>2012-02-26T09:59:59.63</time>
      </trkpt>
      <trkpt lat="48.41236" lon="-4.36365">
        <ele>91</ele>
        <time>2012-02-26T10:00:00.62</time>
      </trkpt>
      <trkpt lat="48.41235" lon="-4.36372">
        <ele>90</ele>
        <time>2012-02-26T10:00:01.62</time>
      </trkpt>
      <trkpt lat="48.41235" lon="-4.3638">
        <ele>88</ele>
        <time>2012-02-26T10:00:02.63</time>
      </trkpt>
      <trkpt lat="48.41235" lon="-4.36389">
        <ele>88</ele>
        <time>2012-02-26T10:00:03.62</time>
      </trkpt>
      <trkpt lat="48.41234" lon="-4.36398">
        <ele>87</ele>
        <time>2012-02-26T10:00:04.62</time>
      </trkpt>
      <trkpt lat="48.41235" lon="-4.36408">
        <ele>86</ele>
        <time>2012-02-26T10:00:05.62</time>
      </trkpt>
      <trkpt lat="48.41235" lon="-4.36417">
        <ele>86</ele>
        <time>2012-02-26T10:00:06.62</time>
      </trkpt>
      <trkpt lat="48.41235" lon="-4.36425">
        <ele>86</ele>
        <time>2012-02-26T10:00:07.61</time>
      </trkpt>
      <trkpt lat="48.41234" lon="-4.36434">
        <ele>86</ele>
        <time>2012-02-26T10:00:08.63</time>
      </trkpt>
      <trkpt lat="48.41234" lon="-4.36443">
        <ele>85</ele>
        <time>2012-02-26T10:00:09.62</time>
      </trkpt>
      <trkpt lat="48.41233" lon="-4.36447">
        <ele>85</ele>
        <time>2012-02-26T10:00:10.62</time>
      </trkpt>
      <trkpt lat="48.41233" lon="-4.36453">
        <ele>85</ele>
        <time>2012-02-26T10:00:11.61</time>
      </trkpt>
      <trkpt lat="48.41233" lon="-4.3646">
        <ele>85</ele>
        <time>2012-02-26T10:00:12.62</time>
      </trkpt>
      <trkpt lat="48.41233" lon="-4.36464">
        <ele>85</ele>
        <time>2012-02-26T10:00:13.62</time>
      </trkpt>
      <trkpt lat="48.41232" lon="-4.36468">
        <ele>85</ele>
        <time>2012-02-26T10:00:14.61</time>
      </trkpt>
      <trkpt lat="48.41232" lon="-4.36473">
        <ele>85</ele>
        <time>2012-02-26T10:00:15.62</time>
      </trkpt>
      <trkpt lat="48.41231" lon="-4.36477">
        <ele>85</ele>
        <time>2012-02-26T10:00:16.62</time>
      </trkpt>
      <trkpt lat="48.41231" lon="-4.36479">
        <ele>85</ele>
        <time>2012-02-26T10:00:17.63</time>
      </trkpt>
      <trkpt lat="48.4123" lon="-4.36483">
        <ele>85</ele>
        <time>2012-02-26T10:00:18.63</time>
      </trkpt>
      <trkpt lat="48.41228" lon="-4.36488">
        <ele>85</ele>
        <time>2012-02-26T10:00:19.61</time>
      </trkpt>
      <trkpt lat="48.41227" lon="-4.36492">
        <ele>86</ele>
        <time>2012-02-26T10:00:20.63</time>
      </trkpt>
      <trkpt lat="48.41226" lon="-4.36494">
        <ele>86</ele>
        <time>2012-02-26T10:00:21.63</time>
      </trkpt>
      <trkpt lat="48.41225" lon="-4.36498">
        <ele>86</ele>
        <time>2012-02-26T10:00:22.62</time>
      </trkpt>
      <trkpt lat="48.41224" lon="-4.36503">
        <ele>86</ele>
        <time>2012-02-26T10:00:23.62</time>
      </trkpt>
      <trkpt lat="48.41223" lon="-4.36505">
        <ele>86</ele>
        <time>2012-02-26T10:00:24.63</time>
      </trkpt>
      <trkpt lat="48.41223" lon="-4.36509">
        <ele>86</ele>
        <time>2012-02-26T10:00:25.62</time>
      </trkpt>
      <trkpt lat="48.41221" lon="-4.36511">
        <ele>86</ele>
        <time>2012-02-26T10:00:26.62</time>
      </trkpt>
      <trkpt lat="48.4122" lon="-4.36516">
        <ele>86</ele>
        <time>2012-02-26T10:00:27.63</time>
      </trkpt>
      <trkpt lat="48.41218" lon="-4.36518">
        <ele>86</ele>
        <time>2012-02-26T10:00:28.62</time>
      </trkpt>
      <trkpt lat="48.41216" lon="-4.36518">
        <ele>86</ele>
        <time>2012-02-26T10:00:29.62</time>
      </trkpt>
      <trkpt lat="48.41212" lon="-4.3652">
        <ele>86</ele>
        <time>2012-02-26T10:00:30.61</time>
      </trkpt>
      <trkpt lat="48.4121" lon="-4.36518">
        <ele>86</ele>
        <time>2012-02-26T10:00:31.63</time>
      </trkpt>
      <trkpt lat="48.41205" lon="-4.36518">
        <ele>87</ele>
        <time>2012-02-26T10:00:32.63</time>
      </trkpt>
      <trkpt lat="48.41201" lon="-4.36516">
        <ele>87</ele>
        <time>2012-02-26T10:00:33.61</time>
      </trkpt>
      <trkpt lat="48.41194" lon="-4.36513">
        <ele>87</ele>
        <time>2012-02-26T10:00:34.62</time>
      </trkpt>
      <trkpt lat="48.41188" lon="-4.36509">
        <ele>87</ele>
        <time>2012-02-26T10:00:35.62</time>
      </trkpt>
      <trkpt lat="48.41181" lon="-4.36507">
        <ele>87</ele>
        <time>2012-02-26T10:00:36.62</time>
      </trkpt>
      <trkpt lat="48.41175" lon="-4.36505">
        <ele>87</ele>
        <time>2012-02-26T10:00:37.62</time>
      </trkpt>
      <trkpt lat="48.41168" lon="-4.36503">
        <ele>87</ele>
        <time>2012-02-26T10:00:38.62</time>
      </trkpt>
      <trkpt lat="48.41162" lon="-4.36501">
        <ele>87</ele>
        <time>2012-02-26T10:00:39.62</time>
      </trkpt>
      <trkpt lat="48.41156" lon="-4.36498">
        <ele>87</ele>
        <time>2012-02-26T10:00:40.62</time>
      </trkpt>
      <trkpt lat="48.41148" lon="-4.36496">
        <ele>87</ele>
        <time>2012-02-26T10:00:41.62</time>
      </trkpt>
      <trkpt lat="48.41143" lon="-4.36492">
        <ele>87</ele>
        <time>2012-02-26T10:00:42.67</time>
      </trkpt>
      <trkpt lat="48.41137" lon="-4.3649">
        <ele>87</ele>
        <time>2012-02-26T10:00:43.62</time>
      </trkpt>
      <trkpt lat="48.41133" lon="-4.36486">
        <ele>87</ele>
        <time>2012-02-26T10:00:44.62</time>
      </trkpt>
      <trkpt lat="48.41128" lon="-4.36483">
        <ele>87</ele>
        <time>2012-02-26T10:00:45.67</time>
      </trkpt>
      <trkpt lat="48.41123" lon="-4.36483">
        <ele>87</ele>
        <time>2012-02-26T10:00:46.62</time>
      </trkpt>
      <trkpt lat="48.41119" lon="-4.36486">
        <ele>87</ele>
        <time>2012-02-26T10:00:47.62</time>
      </trkpt>
      <trkpt lat="48.41115" lon="-4.36488">
        <ele>87</ele>
        <time>2012-02-26T10:00:48.62</time>
      </trkpt>
      <trkpt lat="48.41112" lon="-4.36494">
        <ele>87</ele>
        <time>2012-02-26T10:00:49.62</time>
      </trkpt>
      <trkpt lat="48.41109" lon="-4.36503">
        <ele>87</ele>
        <time>2012-02-26T10:00:50.62</time>
      </trkpt>
      <trkpt lat="48.41107" lon="-4.36511">
        <ele>86</ele>
        <time>2012-02-26T10:00:51.62</time>
      </trkpt>
      <trkpt lat="48.41106" lon="-4.36518">
        <ele>86</ele>
        <time>2012-02-26T10:00:52.62</time>
      </trkpt>
      <trkpt lat="48.41105" lon="-4.36524">
        <ele>85</ele>
        <time>2012-02-26T10:00:53.62</time>
      </trkpt>
      <trkpt lat="48.41104" lon="-4.36531">
        <ele>85</ele>
        <time>2012-02-26T10:00:54.62</time>
      </trkpt>
      <trkpt lat="48.41103" lon="-4.36537">
        <ele>85</ele>
        <time>2012-02-26T10:00:55.62</time>
      </trkpt>
      <trkpt lat="48.41102" lon="-4.36543">
        <ele>84</ele>
        <time>2012-02-26T10:00:56.64</time>
      </trkpt>
      <trkpt lat="48.41101" lon="-4.3655">
        <ele>84</ele>
        <time>2012-02-26T10:00:57.62</time>
      </trkpt>
      <trkpt lat="48.41099" lon="-4.36556">
        <ele>84</ele>
        <time>2012-02-26T10:00:58.62</time>
      </trkpt>
      <trkpt lat="48.41097" lon="-4.36561">
        <ele>83</ele>
        <time>2012-02-26T10:00:59.62</time>
      </trkpt>
      <trkpt lat="48.41092" lon="-4.36565">
        <ele>83</ele>
        <time>2012-02-26T10:01:00.62</time>
      </trkpt>
      <trkpt lat="48.41088" lon="-4.36565">
        <ele>83</ele>
        <time>2012-02-26T10:01:01.62</time>
      </trkpt>
      <trkpt lat="48.41085" lon="-4.36565">
        <ele>83</ele>
        <time>2012-02-26T10:01:02.62</time>
      </trkpt>
      <trkpt lat="48.4108" lon="-4.36563">
        <ele>83</ele>
        <time>2012-02-26T10:01:03.64</time>
      </trkpt>
      <trkpt lat="48.41077" lon="-4.36561">
        <ele>82</ele>
        <time>2012-02-26T10:01:04.64</time>
      </trkpt>
      <trkpt lat="48.41075" lon="-4.36554">
        <ele>82</ele>
        <time>2012-02-26T10:01:05.63</time>
      </trkpt>
      <trkpt lat="48.41074" lon="-4.3655">
        <ele>82</ele>
        <time>2012-02-26T10:01:06.62</time>
      </trkpt>
      <trkpt lat="48.41073" lon="-4.36543">
        <ele>82</ele>
        <time>2012-02-26T10:01:07.62</time>
      </trkpt>
      <trkpt lat="48.41072" lon="-4.36537">
        <ele>83</ele>
        <time>2012-02-26T10:01:08.63</time>
      </trkpt>
      <trkpt lat="48.41071" lon="-4.36533">
        <ele>86</ele>
        <time>2012-02-26T10:01:09.62</time>
      </trkpt>
      <trkpt lat="48.4107" lon="-4.36526">
        <ele>88</ele>
        <time>2012-02-26T10:01:10.62</time>
      </trkpt>
      <trkpt lat="48.4107" lon="-4.36522">
        <ele>88</ele>
        <time>2012-02-26T10:01:11.64</time>
      </trkpt>
      <trkpt lat="48.41071" lon="-4.36509">
        <ele>87</ele>
        <time>2012-02-26T10:01:13.62</time>
      </trkpt>
      <trkpt lat="48.41072" lon="-4.36503">
        <ele>87</ele>
        <time>2012-02-26T10:01:14.62</time>
      </trkpt>
      <trkpt lat="48.41073" lon="-4.36496">
        <ele>86</ele>
        <time>2012-02-26T10:01:15.62</time>
      </trkpt>
      <trkpt lat="48.41073" lon="-4.3649">
        <ele>85</ele>
        <time>2012-02-26T10:01:16.62</time>
      </trkpt>
      <trkpt lat="48.41074" lon="-4.36483">
        <ele>85</ele>
        <time>2012-02-26T10:01:17.62</time>
      </trkpt>
      <trkpt lat="48.41075" lon="-4.36477">
        <ele>84</ele>
        <time>2012-02-26T10:01:18.62</time>
      </trkpt>
      <trkpt lat="48.41075" lon="-4.36471">
        <ele>84</ele>
        <time>2012-02-26T10:01:19.62</time>
      </trkpt>
      <trkpt lat="48.41075" lon="-4.36464">
        <ele>83</ele>
        <time>2012-02-26T10:01:20.64</time>
      </trkpt>
      <trkpt lat="48.41073" lon="-4.36458">
        <ele>83</ele>
        <time>2012-02-26T10:01:21.62</time>
      </trkpt>
      <trkpt lat="48.41071" lon="-4.36453">
        <ele>83</ele>
        <time>2012-02-26T10:01:22.62</time>
      </trkpt>
      <trkpt lat="48.41068" lon="-4.36449">
        <ele>83</ele>
        <time>2012-02-26T10:01:23.62</time>
      </trkpt>
      <trkpt lat="48.41064" lon="-4.36445">
        <ele>82</ele>
        <time>2012-02-26T10:01:24.62</time>
      </trkpt>
      <trkpt lat="48.41061" lon="-4.3644">
        <ele>82</ele>
        <time>2012-02-26T10:01:25.62</time>
      </trkpt>
      <trkpt lat="48.41057" lon="-4.36434">
        <ele>82</ele>
        <time>2012-02-26T10:01:26.63</time>
      </trkpt>
      <trkpt lat="48.41051" lon="-4.3643">
        <ele>82</ele>
        <time>2012-02-26T10:01:27.62</time>
      </trkpt>
      <trkpt lat="48.41046" lon="-4.36423">
        <ele>82</ele>
        <time>2012-02-26T10:01:28.62</time>
      </trkpt>
      <trkpt lat="48.41041" lon="-4.36419">
        <ele>82</ele>
        <time>2012-02-26T10:01:29.62</time>
      </trkpt>
      <trkpt lat="48.41034" lon="-4.36417">
        <ele>82</ele>
        <time>2012-02-26T10:01:30.62</time>
      </trkpt>
      <trkpt lat="48.41029" lon="-4.36413">
        <ele>82</ele>
        <time>2012-02-26T10:01:31.62</time>
      </trkpt>
      <trkpt lat="48.41022" lon="-4.36408">
        <ele>82</ele>
        <time>2012-02-26T10:01:32.62</time>
      </trkpt>
      <trkpt lat="48.41016" lon="-4.36406">
        <ele>82</ele>
        <time>2012-02-26T10:01:33.62</time>
      </trkpt>
      <trkpt lat="48.41011" lon="-4.36402">
        <ele>82</ele>
        <time>2012-02-26T10:01:34.62</time>
      </trkpt>
      <trkpt lat="48.41004" lon="-4.36398">
        <ele>82</ele>
        <time>2012-02-26T10:01:35.62</time>
      </trkpt>
      <trkpt lat="48.40998" lon="-4.36393">
        <ele>83</ele>
        <time>2012-02-26T10:01:36.62</time>
      </trkpt>
      <trkpt lat="48.40991" lon="-4.36389">
        <ele>83</ele>
        <time>2012-02-26T10:01:37.62</time>
      </trkpt>
      <trkpt lat="48.40985" lon="-4.36385">
        <ele>84</ele>
        <time>2012-02-26T10:01:38.62</time>
      </trkpt>
      <trkpt lat="48.4098" lon="-4.36378">
        <ele>84</ele>
        <time>2012-02-26T10:01:39.62</time>
      </trkpt>
      <trkpt lat="48.40973" lon="-4.36372">
        <ele>85</ele>
        <time>2012-02-26T10:01:40.62</time>
      </trkpt>
      <trkpt lat="48.40967" lon="-4.36368">
        <ele>85</ele>
        <time>2012-02-26T10:01:41.62</time>
      </trkpt>
      <trkpt lat="48.40959" lon="-4.36361">
        <ele>85</ele>
        <time>2012-02-26T10:01:42.62</time>
      </trkpt>
      <trkpt lat="48.40952" lon="-4.36355">
        <ele>85</ele>
        <time>2012-02-26T10:01:43.62</time>
      </trkpt>
      <trkpt lat="48.40944" lon="-4.3635">
        <ele>85</ele>
        <time>2012-02-26T10:01:44.62</time>
      </trkpt>
      <trkpt lat="48.40937" lon="-4.36346">
        <ele>85</ele>
        <time>2012-02-26T10:01:45.63</time>
      </trkpt>
      <trkpt lat="48.40929" lon="-4.3634">
        <ele>84</ele>
        <time>2012-02-26T10:01:46.62</time>
      </trkpt>
      <trkpt lat="48.40922" lon="-4.36335">
        <ele>84</ele>
        <time>2012-02-26T10:01:47.62</time>
      </trkpt>
      <trkpt lat="48.40915" lon="-4.36333">
        <ele>83</ele>
        <time>2012-02-26T10:01:48.62</time>
      </trkpt>
      <trkpt lat="48.40909" lon="-4.36329">
        <ele>83</ele>
        <time>2012-02-26T10:01:49.65</time>
      </trkpt>
      <trkpt lat="48.40902" lon="-4.36327">
        <ele>83</ele>
        <time>2012-02-26T10:01:50.62</time>
      </trkpt>
      <trkpt lat="48.40897" lon="-4.36322">
        <ele>82</ele>
        <time>2012-02-26T10:01:51.62</time>
      </trkpt>
      <trkpt lat="48.40891" lon="-4.36318">
        <ele>81</ele>
        <time>2012-02-26T10:01:52.62</time>
      </trkpt>
      <trkpt lat="48.40885" lon="-4.36314">
        <ele>80</ele>
        <time>2012-02-26T10:01:53.62</time>
      </trkpt>
      <trkpt lat="48.40879" lon="-4.3631">
        <ele>80</ele>
        <time>2012-02-26T10:01:54.62</time>
      </trkpt>
      <trkpt lat="48.40873" lon="-4.36307">
        <ele>79</ele>
        <time>2012-02-26T10:01:55.62</time>
      </trkpt>
      <trkpt lat="48.40868" lon="-4.36303">
        <ele>79</ele>
        <time>2012-02-26T10:01:56.62</time>
      </trkpt>
      <trkpt lat="48.40863" lon="-4.36301">
        <ele>79</ele>
        <time>2012-02-26T10:01:57.62</time>
      </trkpt>
      <trkpt lat="48.40857" lon="-4.36299">
        <ele>79</ele>
        <time>2012-02-26T10:01:58.62</time>
      </trkpt>
      <trkpt lat="48.40852" lon="-4.36297">
        <ele>79</ele>
        <time>2012-02-26T10:01:59.62</time>
      </trkpt>
      <trkpt lat="48.40848" lon="-4.36295">
        <ele>79</ele>
        <time>2012-02-26T10:02:00.62</time>
      </trkpt>
      <trkpt lat="48.40844" lon="-4.36292">
        <ele>79</ele>
        <time>2012-02-26T10:02:01.62</time>
      </trkpt>
      <trkpt lat="48.4084" lon="-4.3629">
        <ele>79</ele>
        <time>2012-02-26T10:02:02.62</time>
      </trkpt>
      <trkpt lat="48.40837" lon="-4.36288">
        <ele>79</ele>
        <time>2012-02-26T10:02:03.62</time>
      </trkpt>
      <trkpt lat="48.40835" lon="-4.36284">
        <ele>78</ele>
        <time>2012-02-26T10:02:04.62</time>
      </trkpt>
      <trkpt lat="48.40834" lon="-4.3628">
        <ele>78</ele>
        <time>2012-02-26T10:02:05.62</time>
      </trkpt>
      <trkpt lat="48.40833" lon="-4.36277">
        <ele>78</ele>
        <time>2012-02-26T10:02:06.62</time>
      </trkpt>
      <trkpt lat="48.40832" lon="-4.36273">
        <ele>78</ele>
        <time>2012-02-26T10:02:07.62</time>
      </trkpt>
      <trkpt lat="48.4083" lon="-4.36269">
        <ele>78</ele>
        <time>2012-02-26T10:02:08.62</time>
      </trkpt>
      <trkpt lat="48.40829" lon="-4.36265">
        <ele>78</ele>
        <time>2012-02-26T10:02:09.62</time>
      </trkpt>
      <trkpt lat="48.40828" lon="-4.3626">
        <ele>78</ele>
        <time>2012-02-26T10:02:10.62</time>
      </trkpt>
      <trkpt lat="48.40827" lon="-4.36256">
        <ele>78</ele>
        <time>2012-02-26T10:02:11.62</time>
      </trkpt>
      <trkpt lat="48.40826" lon="-4.36249">
        <ele>77</ele>
        <time>2012-02-26T10:02:12.62</time>
      </trkpt>
      <trkpt lat="48.40826" lon="-4.36245">
        <ele>77</ele>
        <time>2012-02-26T10:02:13.62</time>
      </trkpt>
      <trkpt lat="48.40826" lon="-4.36239">
        <ele>77</ele>
        <time>2012-02-26T10:02:14.62</time>
      </trkpt>
      <trkpt lat="48.40825" lon="-4.36234">
        <ele>77</ele>
        <time>2012-02-26T10:02:15.62</time>
      </trkpt>
      <trkpt lat="48.40825" lon="-4.3623">
        <ele>76</ele>
        <time>2012-02-26T10:02:16.63</time>
      </trkpt>
      <trkpt lat="48.40826" lon="-4.36224">
        <ele>74</ele>
        <time>2012-02-26T10:02:17.63</time>
      </trkpt>
      <trkpt lat="48.40827" lon="-4.36219">
        <ele>73</ele>
        <time>2012-02-26T10:02:18.64</time>
      </trkpt>
      <trkpt lat="48.40828" lon="-4.36213">
        <ele>73</ele>
        <time>2012-02-26T10:02:19.63</time>
      </trkpt>
      <trkpt lat="48.40829" lon="-4.36209">
        <ele>73</ele>
        <time>2012-02-26T10:02:20.66</time>
      </trkpt>
      <trkpt lat="48.40829" lon="-4.36202">
        <ele>71</ele>
        <time>2012-02-26T10:02:21.64</time>
      </trkpt>
      <trkpt lat="48.4083" lon="-4.36198">
        <ele>70</ele>
        <time>2012-02-26T10:02:22.63</time>
      </trkpt>
      <trkpt lat="48.4083" lon="-4.36192">
        <ele>69</ele>
        <time>2012-02-26T10:02:23.63</time>
      </trkpt>
      <trkpt lat="48.40829" lon="-4.36187">
        <ele>69</ele>
        <time>2012-02-26T10:02:24.64</time>
      </trkpt>
      <trkpt lat="48.40828" lon="-4.36181">
        <ele>68</ele>
        <time>2012-02-26T10:02:25.62</time>
      </trkpt>
      <trkpt lat="48.40828" lon="-4.36174">
        <ele>68</ele>
        <time>2012-02-26T10:02:26.63</time>
      </trkpt>
      <trkpt lat="48.40827" lon="-4.36168">
        <ele>67</ele>
        <time>2012-02-26T10:02:27.64</time>
      </trkpt>
      <trkpt lat="48.40827" lon="-4.36162">
        <ele>67</ele>
        <time>2012-02-26T10:02:28.62</time>
      </trkpt>
      <trkpt lat="48.40827" lon="-4.36157">
        <ele>67</ele>
        <time>2012-02-26T10:02:29.63</time>
      </trkpt>
      <trkpt lat="48.40829" lon="-4.36151">
        <ele>66</ele>
        <time>2012-02-26T10:02:30.63</time>
      </trkpt>
      <trkpt lat="48.4083" lon="-4.36144">
        <ele>66</ele>
        <time>2012-02-26T10:02:31.62</time>
      </trkpt>
      <trkpt lat="48.40832" lon="-4.3614">
        <ele>66</ele>
        <time>2012-02-26T10:02:32.63</time>
      </trkpt>
      <trkpt lat="48.40833" lon="-4.36134">
        <ele>66</ele>
        <time>2012-02-26T10:02:33.63</time>
      </trkpt>
      <trkpt lat="48.40834" lon="-4.36129">
        <ele>65</ele>
        <time>2012-02-26T10:02:34.62</time>
      </trkpt>
      <trkpt lat="48.40835" lon="-4.36123">
        <ele>65</ele>
        <time>2012-02-26T10:02:35.63</time>
      </trkpt>
      <trkpt lat="48.40837" lon="-4.36119">
        <ele>65</ele>
        <time>2012-02-26T10:02:36.63</time>
      </trkpt>
      <trkpt lat="48.40838" lon="-4.36112">
        <ele>65</ele>
        <time>2012-02-26T10:02:37.62</time>
      </trkpt>
      <trkpt lat="48.40839" lon="-4.36108">
        <ele>65</ele>
        <time>2012-02-26T10:02:38.63</time>
      </trkpt>
      <trkpt lat="48.40841" lon="-4.36104">
        <ele>65</ele>
        <time>2012-02-26T10:02:39.63</time>
      </trkpt>
      <trkpt lat="48.40843" lon="-4.36099">
        <ele>65</ele>
        <time>2012-02-26T10:02:40.64</time>
      </trkpt>
      <trkpt lat="48.40845" lon="-4.36095">
        <ele>65</ele>
        <time>2012-02-26T10:02:41.63</time>
      </trkpt>
      <trkpt lat="48.40848" lon="-4.36091">
        <ele>65</ele>
        <time>2012-02-26T10:02:42.63</time>
      </trkpt>
      <trkpt lat="48.4085" lon="-4.36086">
        <ele>64</ele>
        <time>2012-02-26T10:02:43.64</time>
      </trkpt>
      <trkpt lat="48.40853" lon="-4.36082">
        <ele>64</ele>
        <time>2012-02-26T10:02:44.62</time>
      </trkpt>
      <trkpt lat="48.40855" lon="-4.36078">
        <ele>64</ele>
        <time>2012-02-26T10:02:45.63</time>
      </trkpt>
      <trkpt lat="48.40857" lon="-4.36074">
        <ele>64</ele>
        <time>2012-02-26T10:02:46.64</time>
      </trkpt>
      <trkpt lat="48.4086" lon="-4.36067">
        <ele>64</ele>
        <time>2012-02-26T10:02:47.62</time>
      </trkpt>
      <trkpt lat="48.40863" lon="-4.36063">
        <ele>64</ele>
        <time>2012-02-26T10:02:48.63</time>
      </trkpt>
      <trkpt lat="48.40865" lon="-4.36056">
        <ele>63</ele>
        <time>2012-02-26T10:02:49.62</time>
      </trkpt>
      <trkpt lat="48.40867" lon="-4.36052">
        <ele>63</ele>
        <time>2012-02-26T10:02:50.62</time>
      </trkpt>
      <trkpt lat="48.4087" lon="-4.36046">
        <ele>63</ele>
        <time>2012-02-26T10:02:51.63</time>
      </trkpt>
      <trkpt lat="48.40872" lon="-4.36041">
        <ele>63</ele>
        <time>2012-02-26T10:02:52.64</time>
      </trkpt>
      <trkpt lat="48.40874" lon="-4.36039">
        <ele>63</ele>
        <time>2012-02-26T10:02:53.62</time>
      </trkpt>
      <trkpt lat="48.40877" lon="-4.36039">
        <ele>63</ele>
        <time>2012-02-26T10:02:54.63</time>
      </trkpt>
      <trkpt lat="48.4088" lon="-4.36041">
        <ele>63</ele>
        <time>2012-02-26T10:02:55.63</time>
      </trkpt>
      <trkpt lat="48.40883" lon="-4.36044">
        <ele>63</ele>
        <time>2012-02-26T10:02:56.62</time>
      </trkpt>
      <trkpt lat="48.40885" lon="-4.36046">
        <ele>63</ele>
        <time>2012-02-26T10:02:57.62</time>
      </trkpt>
      <trkpt lat="48.40888" lon="-4.36048">
        <ele>63</ele>
        <time>2012-02-26T10:02:58.64</time>
      </trkpt>
      <trkpt lat="48.40892" lon="-4.3605">
        <ele>63</ele>
        <time>2012-02-26T10:02:59.62</time>
      </trkpt>
      <trkpt lat="48.40895" lon="-4.36054">
        <ele>63</ele>
        <time>2012-02-26T10:03:00.62</time>
      </trkpt>
      <trkpt lat="48.40898" lon="-4.36056">
        <ele>63</ele>
        <time>2012-02-26T10:03:01.62</time>
      </trkpt>
      <trkpt lat="48.40901" lon="-4.36056">
        <ele>63</ele>
        <time>2012-02-26T10:03:02.62</time>
      </trkpt>
      <trkpt lat="48.40904" lon="-4.36059">
        <ele>63</ele>
        <time>2012-02-26T10:03:03.62</time>
      </trkpt>
      <trkpt lat="48.40908" lon="-4.36061">
        <ele>63</ele>
        <time>2012-02-26T10:03:04.62</time>
      </trkpt>
      <trkpt lat="48.40911" lon="-4.36063">
        <ele>63</ele>
        <time>2012-02-26T10:03:05.62</time>
      </trkpt>
      <trkpt lat="48.40913" lon="-4.36063">
        <ele>63</ele>
        <time>2012-02-26T10:03:06.62</time>
      </trkpt>
      <trkpt lat="48.40916" lon="-4.36065">
        <ele>63</ele>
        <time>2012-02-26T10:03:07.62</time>
      </trkpt>
      <trkpt lat="48.40919" lon="-4.36067">
        <ele>63</ele>
        <time>2012-02-26T10:03:08.62</time>
      </trkpt>
      <trkpt lat="48.40923" lon="-4.36069">
        <ele>63</ele>
        <time>2012-02-26T10:03:09.63</time>
      </trkpt>
      <trkpt lat="48.40925" lon="-4.36071">
        <ele>63</ele>
        <time>2012-02-26T10:03:10.62</time>
      </trkpt>
      <trkpt lat="48.40928" lon="-4.36074">
        <ele>63</ele>
        <time>2012-02-26T10:03:11.62</time>
      </trkpt>
      <trkpt lat="48.40931" lon="-4.36078">
        <ele>63</ele>
        <time>2012-02-26T10:03:12.62</time>
      </trkpt>
      <trkpt lat="48.40935" lon="-4.3608">
        <ele>63</ele>
        <time>2012-02-26T10:03:13.62</time>
      </trkpt>
      <trkpt lat="48.40938" lon="-4.36084">
        <ele>63</ele>
        <time>2012-02-26T10:03:14.62</time>
      </trkpt>
      <trkpt lat="48.4094" lon="-4.36086">
        <ele>63</ele>
        <time>2012-02-26T10:03:15.62</time>
      </trkpt>
      <trkpt lat="48.40943" lon="-4.36091">
        <ele>64</ele>
        <time>2012-02-26T10:03:16.62</time>
      </trkpt>
      <trkpt lat="48.40945" lon="-4.36093">
        <ele>64</ele>
        <time>2012-02-26T10:03:17.62</time>
      </trkpt>
      <trkpt lat="48.40948" lon="-4.36095">
        <ele>64</ele>
        <time>2012-02-26T10:03:18.63</time>
      </trkpt>
      <trkpt lat="48.40952" lon="-4.36099">
        <ele>64</ele>
        <time>2012-02-26T10:03:19.63</time>
      </trkpt>
      <trkpt lat="48.40955" lon="-4.36101">
        <ele>64</ele>
        <time>2012-02-26T10:03:20.62</time>
      </trkpt>
      <trkpt lat="48.40957" lon="-4.36104">
        <ele>64</ele>
        <time>2012-02-26T10:03:21.63</time>
      </trkpt>
      <trkpt lat="48.40961" lon="-4.36108">
        <ele>64</ele>
        <time>2012-02-26T10:03:22.62</time>
      </trkpt>
      <trkpt lat="48.40965" lon="-4.3611">
        <ele>65</ele>
        <time>2012-02-26T10:03:23.62</time>
      </trkpt>
      <trkpt lat="48.40968" lon="-4.3611">
        <ele>65</ele>
        <time>2012-02-26T10:03:24.62</time>
      </trkpt>
      <trkpt lat="48.40971" lon="-4.3611">
        <ele>65</ele>
        <time>2012-02-26T10:03:25.62</time>
      </trkpt>
      <trkpt lat="48.40974" lon="-4.3611">
        <ele>65</ele>
        <time>2012-02-26T10:03:26.62</time>
      </trkpt>
      <trkpt lat="48.40977" lon="-4.3611">
        <ele>65</ele>
        <time>2012-02-26T10:03:27.62</time>
      </trkpt>
      <trkpt lat="48.40979" lon="-4.36108">
        <ele>65</ele>
        <time>2012-02-26T10:03:28.62</time>
      </trkpt>
      <trkpt lat="48.4098" lon="-4.36108">
        <ele>65</ele>
        <time>2012-02-26T10:03:29.62</time>
      </trkpt>
      <trkpt lat="48.40982" lon="-4.36106">
        <ele>65</ele>
        <time>2012-02-26T10:03:30.62</time>
      </trkpt>
      <trkpt lat="48.40982" lon="-4.36104">
        <ele>65</ele>
        <time>2012-02-26T10:03:31.63</time>
      </trkpt>
      <trkpt lat="48.40983" lon="-4.36104">
        <ele>65</ele>
        <time>2012-02-26T10:03:32.62</time>
      </trkpt>
      <trkpt lat="48.40983" lon="-4.36099">
        <ele>65</ele>
        <time>2012-02-26T10:03:39.62</time>
      </trkpt>
      <trkpt lat="48.40983" lon="-4.36097">
        <ele>65</ele>
        <time>2012-02-26T10:03:40.62</time>
      </trkpt>
      <trkpt lat="48.40982" lon="-4.36095">
        <ele>65</ele>
        <time>2012-02-26T10:03:42.62</time>
      </trkpt>
      <trkpt lat="48.40982" lon="-4.36093">
        <ele>64</ele>
        <time>2012-02-26T10:03:43.62</time>
      </trkpt>
      <trkpt lat="48.40981" lon="-4.36086">
        <ele>64</ele>
        <time>2012-02-26T10:03:50.62</time>
      </trkpt>
      <trkpt lat="48.4098" lon="-4.36082">
        <ele>64</ele>
        <time>2012-02-26T10:03:51.62</time>
      </trkpt>
      <trkpt lat="48.4098" lon="-4.3608">
        <ele>64</ele>
        <time>2012-02-26T10:03:52.62</time>
      </trkpt>
      <trkpt lat="48.40979" lon="-4.36078">
        <ele>64</ele>
        <time>2012-02-26T10:03:53.62</time>
      </trkpt>
      <trkpt lat="48.40979" lon="-4.36074">
        <ele>64</ele>
        <time>2012-02-26T10:03:54.62</time>
      </trkpt>
      <trkpt lat="48.40977" lon="-4.36069">
        <ele>64</ele>
        <time>2012-02-26T10:03:55.62</time>
      </trkpt>
      <trkpt lat="48.40977" lon="-4.36067">
        <ele>64</ele>
        <time>2012-02-26T10:03:56.62</time>
      </trkpt>
      <trkpt lat="48.40976" lon="-4.36063">
        <ele>64</ele>
        <time>2012-02-26T10:03:57.62</time>
      </trkpt>
      <trkpt lat="48.40976" lon="-4.36059">
        <ele>64</ele>
        <time>2012-02-26T10:03:58.62</time>
      </trkpt>
      <trkpt lat="48.40976" lon="-4.36056">
        <ele>64</ele>
        <time>2012-02-26T10:03:59.62</time>
      </trkpt>
      <trkpt lat="48.40976" lon="-4.36052">
        <ele>64</ele>
        <time>2012-02-26T10:04:00.62</time>
      </trkpt>
      <trkpt lat="48.40975" lon="-4.36048">
        <ele>64</ele>
        <time>2012-02-26T10:04:01.62</time>
      </trkpt>
      <trkpt lat="48.40975" lon="-4.36044">
        <ele>64</ele>
        <time>2012-02-26T10:04:02.63</time>
      </trkpt>
      <trkpt lat="48.40974" lon="-4.36039">
        <ele>64</ele>
        <time>2012-02-26T10:04:03.64</time>
      </trkpt>
      <trkpt lat="48.40974" lon="-4.36035">
        <ele>64</ele>
        <time>2012-02-26T10:04:04.62</time>
      </trkpt>
      <trkpt lat="48.40973" lon="-4.36028">
        <ele>64</ele>
        <time>2012-02-26T10:04:05.62</time>
      </trkpt>
      <trkpt lat="48.40972" lon="-4.36024">
        <ele>64</ele>
        <time>2012-02-26T10:04:06.62</time>
      </trkpt>
      <trkpt lat="48.40972" lon="-4.3602">
        <ele>64</ele>
        <time>2012-02-26T10:04:07.62</time>
      </trkpt>
      <trkpt lat="48.40971" lon="-4.36016">
        <ele>64</ele>
        <time>2012-02-26T10:04:08.62</time>
      </trkpt>
      <trkpt lat="48.4097" lon="-4.36011">
        <ele>64</ele>
        <time>2012-02-26T10:04:09.62</time>
      </trkpt>
      <trkpt lat="48.4097" lon="-4.36007">
        <ele>64</ele>
        <time>2012-02-26T10:04:10.62</time>
      </trkpt>
      <trkpt lat="48.40968" lon="-4.35998">
        <ele>64</ele>
        <time>2012-02-26T10:04:13.62</time>
      </trkpt>
      <trkpt lat="48.40965" lon="-4.3599">
        <ele>64</ele>
        <time>2012-02-26T10:04:16.62</time>
      </trkpt>
      <trkpt lat="48.40963" lon="-4.35983">
        <ele>64</ele>
        <time>2012-02-26T10:04:18.62</time>
      </trkpt>
      <trkpt lat="48.40962" lon="-4.35981">
        <ele>64</ele>
        <time>2012-02-26T10:04:19.62</time>
      </trkpt>
      <trkpt lat="48.40961" lon="-4.35977">
        <ele>64</ele>
        <time>2012-02-26T10:04:20.62</time>
      </trkpt>
      <trkpt lat="48.40959" lon="-4.35973">
        <ele>64</ele>
        <time>2012-02-26T10:04:21.62</time>
      </trkpt>
      <trkpt lat="48.40958" lon="-4.35971">
        <ele>64</ele>
        <time>2012-02-26T10:04:22.62</time>
      </trkpt>
      <trkpt lat="48.40957" lon="-4.35966">
        <ele>64</ele>
        <time>2012-02-26T10:04:23.62</time>
      </trkpt>
      <trkpt lat="48.40956" lon="-4.35962">
        <ele>64</ele>
        <time>2012-02-26T10:04:24.60</time>
      </trkpt>
      <trkpt lat="48.40956" lon="-4.35958">
        <ele>64</ele>
        <time>2012-02-26T10:04:25.69</time>
      </trkpt>
      <trkpt lat="48.40956" lon="-4.35956">
        <ele>64</ele>
        <time>2012-02-26T10:04:26.62</time>
      </trkpt>
      <trkpt lat="48.40955" lon="-4.35951">
        <ele>64</ele>
        <time>2012-02-26T10:04:27.62</time>
      </trkpt>
      <trkpt lat="48.40955" lon="-4.35947">
        <ele>64</ele>
        <time>2012-02-26T10:04:28.62</time>
      </trkpt>
      <trkpt lat="48.40955" lon="-4.35943">
        <ele>64</ele>
        <time>2012-02-26T10:04:29.62</time>
      </trkpt>
      <trkpt lat="48.40954" lon="-4.35938">
        <ele>64</ele>
        <time>2012-02-26T10:04:30.62</time>
      </trkpt>
      <trkpt lat="48.40954" lon="-4.35932">
        <ele>64</ele>
        <time>2012-02-26T10:04:31.63</time>
      </trkpt>
      <trkpt lat="48.40953" lon="-4.35928">
        <ele>64</ele>
        <time>2012-02-26T10:04:32.62</time>
      </trkpt>
      <trkpt lat="48.40952" lon="-4.35923">
        <ele>64</ele>
        <time>2012-02-26T10:04:33.62</time>
      </trkpt>
      <trkpt lat="48.40952" lon="-4.35921">
        <ele>64</ele>
        <time>2012-02-26T10:04:34.62</time>
      </trkpt>
      <trkpt lat="48.40952" lon="-4.35917">
        <ele>64</ele>
        <time>2012-02-26T10:04:35.62</time>
      </trkpt>
      <trkpt lat="48.40953" lon="-4.35913">
        <ele>64</ele>
        <time>2012-02-26T10:04:36.62</time>
      </trkpt>
      <trkpt lat="48.40953" lon="-4.35908">
        <ele>64</ele>
        <time>2012-02-26T10:04:37.62</time>
      </trkpt>
      <trkpt lat="48.40953" lon="-4.35902">
        <ele>65</ele>
        <time>2012-02-26T10:04:38.62</time>
      </trkpt>
      <trkpt lat="48.40952" lon="-4.35893">
        <ele>65</ele>
        <time>2012-02-26T10:04:39.62</time>
      </trkpt>
      <trkpt lat="48.4095" lon="-4.35887">
        <ele>64</ele>
        <time>2012-02-26T10:04:40.62</time>
      </trkpt>
      <trkpt lat="48.40946" lon="-4.3588">
        <ele>64</ele>
        <time>2012-02-26T10:04:41.62</time>
      </trkpt>
      <trkpt lat="48.40944" lon="-4.35876">
        <ele>64</ele>
        <time>2012-02-26T10:04:42.62</time>
      </trkpt>
      <trkpt lat="48.40941" lon="-4.35872">
        <ele>64</ele>
        <time>2012-02-26T10:04:43.62</time>
      </trkpt>
      <trkpt lat="48.40938" lon="-4.35865">
        <ele>64</ele>
        <time>2012-02-26T10:04:44.63</time>
      </trkpt>
      <trkpt lat="48.40936" lon="-4.35861">
        <ele>64</ele>
        <time>2012-02-26T10:04:45.62</time>
      </trkpt>
      <trkpt lat="48.40932" lon="-4.35857">
        <ele>63</ele>
        <time>2012-02-26T10:04:46.62</time>
      </trkpt>
      <trkpt lat="48.4093" lon="-4.3585">
        <ele>63</ele>
        <time>2012-02-26T10:04:47.62</time>
      </trkpt>
      <trkpt lat="48.40928" lon="-4.35846">
        <ele>63</ele>
        <time>2012-02-26T10:04:48.64</time>
      </trkpt>
      <trkpt lat="48.40926" lon="-4.35842">
        <ele>63</ele>
        <time>2012-02-26T10:04:49.62</time>
      </trkpt>
      <trkpt lat="48.40924" lon="-4.35835">
        <ele>63</ele>
        <time>2012-02-26T10:04:50.62</time>
      </trkpt>
      <trkpt lat="48.40921" lon="-4.35831">
        <ele>63</ele>
        <time>2012-02-26T10:04:51.62</time>
      </trkpt>
      <trkpt lat="48.40918" lon="-4.35827">
        <ele>62</ele>
        <time>2012-02-26T10:04:52.63</time>
      </trkpt>
      <trkpt lat="48.40915" lon="-4.3582">
        <ele>62</ele>
        <time>2012-02-26T10:04:53.62</time>
      </trkpt>
      <trkpt lat="48.40913" lon="-4.35816">
        <ele>62</ele>
        <time>2012-02-26T10:04:54.62</time>
      </trkpt>
      <trkpt lat="48.4091" lon="-4.35812">
        <ele>62</ele>
        <time>2012-02-26T10:04:55.62</time>
      </trkpt>
      <trkpt lat="48.40908" lon="-4.35807">
        <ele>62</ele>
        <time>2012-02-26T10:04:56.62</time>
      </trkpt>
      <trkpt lat="48.40904" lon="-4.35803">
        <ele>62</ele>
        <time>2012-02-26T10:04:57.62</time>
      </trkpt>
      <trkpt lat="48.40902" lon="-4.35799">
        <ele>62</ele>
        <time>2012-02-26T10:04:58.62</time>
      </trkpt>
      <trkpt lat="48.40899" lon="-4.35795">
        <ele>62</ele>
        <time>2012-02-26T10:04:59.62</time>
      </trkpt>
      <trkpt lat="48.40897" lon="-4.3579">
        <ele>62</ele>
        <time>2012-02-26T10:05:00.62</time>
      </trkpt>
      <trkpt lat="48.40894" lon="-4.35784">
        <ele>62</ele>
        <time>2012-02-26T10:05:01.63</time>
      </trkpt>
      <trkpt lat="48.40891" lon="-4.3578">
        <ele>62</ele>
        <time>2012-02-26T10:05:02.62</time>
      </trkpt>
      <trkpt lat="48.40887" lon="-4.35775">
        <ele>62</ele>
        <time>2012-02-26T10:05:03.62</time>
      </trkpt>
      <trkpt lat="48.40885" lon="-4.35769">
        <ele>62</ele>
        <time>2012-02-26T10:05:04.62</time>
      </trkpt>
      <trkpt lat="48.40882" lon="-4.35765">
        <ele>62</ele>
        <time>2012-02-26T10:05:05.62</time>
      </trkpt>
      <trkpt lat="48.4088" lon="-4.35758">
        <ele>62</ele>
        <time>2012-02-26T10:05:06.62</time>
      </trkpt>
      <trkpt lat="48.40877" lon="-4.35754">
        <ele>62</ele>
        <time>2012-02-26T10:05:07.62</time>
      </trkpt>
      <trkpt lat="48.40874" lon="-4.35747">
        <ele>62</ele>
        <time>2012-02-26T10:05:08.62</time>
      </trkpt>
      <trkpt lat="48.40871" lon="-4.35743">
        <ele>62</ele>
        <time>2012-02-26T10:05:09.62</time>
      </trkpt>
      <trkpt lat="48.40869" lon="-4.35737">
        <ele>62</ele>
        <time>2012-02-26T10:05:10.62</time>
      </trkpt>
      <trkpt lat="48.40866" lon="-4.35732">
        <ele>62</ele>
        <time>2012-02-26T10:05:11.62</time>
      </trkpt>
      <trkpt lat="48.40863" lon="-4.35728">
        <ele>61</ele>
        <time>2012-02-26T10:05:12.62</time>
      </trkpt>
      <trkpt lat="48.4086" lon="-4.35724">
        <ele>61</ele>
        <time>2012-02-26T10:05:13.63</time>
      </trkpt>
      <trkpt lat="48.40857" lon="-4.35719">
        <ele>61</ele>
        <time>2012-02-26T10:05:14.62</time>
      </trkpt>
      <trkpt lat="48.40855" lon="-4.35715">
        <ele>61</ele>
        <time>2012-02-26T10:05:15.62</time>
      </trkpt>
      <trkpt lat="48.40852" lon="-4.35711">
        <ele>61</ele>
        <time>2012-02-26T10:05:16.62</time>
      </trkpt>
      <trkpt lat="48.4085" lon="-4.35704">
        <ele>61</ele>
        <time>2012-02-26T10:05:17.62</time>
      </trkpt>
      <trkpt lat="48.40847" lon="-4.357">
        <ele>61</ele>
        <time>2012-02-26T10:05:18.63</time>
      </trkpt>
      <trkpt lat="48.40844" lon="-4.35696">
        <ele>61</ele>
        <time>2012-02-26T10:05:19.62</time>
      </trkpt>
      <trkpt lat="48.40841" lon="-4.35692">
        <ele>61</ele>
        <time>2012-02-26T10:05:20.63</time>
      </trkpt>
      <trkpt lat="48.40839" lon="-4.35685">
        <ele>61</ele>
        <time>2012-02-26T10:05:21.62</time>
      </trkpt>
      <trkpt lat="48.40836" lon="-4.35681">
        <ele>61</ele>
        <time>2012-02-26T10:05:22.64</time>
      </trkpt>
      <trkpt lat="48.40834" lon="-4.35677">
        <ele>61</ele>
        <time>2012-02-26T10:05:23.62</time>
      </trkpt>
      <trkpt lat="48.4083" lon="-4.35672">
        <ele>61</ele>
        <time>2012-02-26T10:05:24.62</time>
      </trkpt>
      <trkpt lat="48.40828" lon="-4.35668">
        <ele>61</ele>
        <time>2012-02-26T10:05:25.62</time>
      </trkpt>
      <trkpt lat="48.40825" lon="-4.35664">
        <ele>60</ele>
        <time>2012-02-26T10:05:26.63</time>
      </trkpt>
      <trkpt lat="48.40823" lon="-4.35659">
        <ele>60</ele>
        <time>2012-02-26T10:05:27.62</time>
      </trkpt>
      <trkpt lat="48.40821" lon="-4.35653">
        <ele>60</ele>
        <time>2012-02-26T10:05:28.62</time>
      </trkpt>
      <trkpt lat="48.40819" lon="-4.35649">
        <ele>60</ele>
        <time>2012-02-26T10:05:29.62</time>
      </trkpt>
      <trkpt lat="48.40816" lon="-4.35644">
        <ele>60</ele>
        <time>2012-02-26T10:05:30.63</time>
      </trkpt>
      <trkpt lat="48.40815" lon="-4.3564">
        <ele>60</ele>
        <time>2012-02-26T10:05:31.62</time>
      </trkpt>
      <trkpt lat="48.40813" lon="-4.35636">
        <ele>60</ele>
        <time>2012-02-26T10:05:32.62</time>
      </trkpt>
      <trkpt lat="48.40811" lon="-4.35629">
        <ele>60</ele>
        <time>2012-02-26T10:05:33.62</time>
      </trkpt>
      <trkpt lat="48.40809" lon="-4.35625">
        <ele>60</ele>
        <time>2012-02-26T10:05:34.62</time>
      </trkpt>
      <trkpt lat="48.40807" lon="-4.35619">
        <ele>60</ele>
        <time>2012-02-26T10:05:35.62</time>
      </trkpt>
      <trkpt lat="48.40806" lon="-4.35614">
        <ele>60</ele>
        <time>2012-02-26T10:05:36.62</time>
      </trkpt>
      <trkpt lat="48.40804" lon="-4.35608">
        <ele>60</ele>
        <time>2012-02-26T10:05:37.62</time>
      </trkpt>
      <trkpt lat="48.40803" lon="-4.35604">
        <ele>60</ele>
        <time>2012-02-26T10:05:38.62</time>
      </trkpt>
      <trkpt lat="48.40801" lon="-4.35597">
        <ele>60</ele>
        <time>2012-02-26T10:05:39.62</time>
      </trkpt>
      <trkpt lat="48.40801" lon="-4.35593">
        <ele>60</ele>
        <time>2012-02-26T10:05:40.63</time>
      </trkpt>
      <trkpt lat="48.40801" lon="-4.35586">
        <ele>60</ele>
        <time>2012-02-26T10:05:41.62</time>
      </trkpt>
      <trkpt lat="48.40801" lon="-4.35582">
        <ele>60</ele>
        <time>2012-02-26T10:05:42.62</time>
      </trkpt>
      <trkpt lat="48.40801" lon="-4.35576">
        <ele>60</ele>
        <time>2012-02-26T10:05:43.62</time>
      </trkpt>
      <trkpt lat="48.40803" lon="-4.35571">
        <ele>60</ele>
        <time>2012-02-26T10:05:44.62</time>
      </trkpt>
      <trkpt lat="48.40804" lon="-4.35565">
        <ele>60</ele>
        <time>2012-02-26T10:05:45.62</time>
      </trkpt>
      <trkpt lat="48.40806" lon="-4.35561">
        <ele>60</ele>
        <time>2012-02-26T10:05:46.62</time>
      </trkpt>
      <trkpt lat="48.40808" lon="-4.35556">
        <ele>60</ele>
        <time>2012-02-26T10:05:47.63</time>
      </trkpt>
      <trkpt lat="48.40811" lon="-4.35554">
        <ele>60</ele>
        <time>2012-02-26T10:05:48.62</time>
      </trkpt>
      <trkpt lat="48.40813" lon="-4.35552">
        <ele>60</ele>
        <time>2012-02-26T10:05:49.62</time>
      </trkpt>
      <trkpt lat="48.40818" lon="-4.35548">
        <ele>60</ele>
        <time>2012-02-26T10:05:50.62</time>
      </trkpt>
      <trkpt lat="48.40821" lon="-4.35546">
        <ele>60</ele>
        <time>2012-02-26T10:05:51.62</time>
      </trkpt>
      <trkpt lat="48.40825" lon="-4.35541">
        <ele>60</ele>
        <time>2012-02-26T10:05:52.63</time>
      </trkpt>
      <trkpt lat="48.40829" lon="-4.35539">
        <ele>60</ele>
        <time>2012-02-26T10:05:53.62</time>
      </trkpt>
      <trkpt lat="48.40833" lon="-4.35535">
        <ele>60</ele>
        <time>2012-02-26T10:05:54.62</time>
      </trkpt>
      <trkpt lat="48.40836" lon="-4.35533">
        <ele>60</ele>
        <time>2012-02-26T10:05:55.63</time>
      </trkpt>
      <trkpt lat="48.40838" lon="-4.35531">
        <ele>60</ele>
        <time>2012-02-26T10:05:56.63</time>
      </trkpt>
      <trkpt lat="48.4084" lon="-4.35529">
        <ele>60</ele>
        <time>2012-02-26T10:05:57.62</time>
      </trkpt>
      <trkpt lat="48.40843" lon="-4.35529">
        <ele>60</ele>
        <time>2012-02-26T10:05:58.62</time>
      </trkpt>
      <trkpt lat="48.40847" lon="-4.35526">
        <ele>60</ele>
        <time>2012-02-26T10:05:59.62</time>
      </trkpt>
      <trkpt lat="48.4085" lon="-4.35526">
        <ele>60</ele>
        <time>2012-02-26T10:06:00.62</time>
      </trkpt>
      <trkpt lat="48.40853" lon="-4.35526">
        <ele>61</ele>
        <time>2012-02-26T10:06:01.62</time>
      </trkpt>
      <trkpt lat="48.40857" lon="-4.35526">
        <ele>61</ele>
        <time>2012-02-26T10:06:02.62</time>
      </trkpt>
      <trkpt lat="48.40862" lon="-4.35526">
        <ele>61</ele>
        <time>2012-02-26T10:06:03.62</time>
      </trkpt>
      <trkpt lat="48.40866" lon="-4.35529">
        <ele>61</ele>
        <time>2012-02-26T10:06:04.62</time>
      </trkpt>
      <trkpt lat="48.40869" lon="-4.35531">
        <ele>61</ele>
        <time>2012-02-26T10:06:05.62</time>
      </trkpt>
      <trkpt lat="48.40872" lon="-4.35533">
        <ele>61</ele>
        <time>2012-02-26T10:06:06.62</time>
      </trkpt>
      <trkpt lat="48.40876" lon="-4.35535">
        <ele>62</ele>
        <time>2012-02-26T10:06:07.62</time>
      </trkpt>
      <trkpt lat="48.40879" lon="-4.35537">
        <ele>62</ele>
        <time>2012-02-26T10:06:08.62</time>
      </trkpt>
      <trkpt lat="48.40882" lon="-4.35539">
        <ele>62</ele>
        <time>2012-02-26T10:06:09.62</time>
      </trkpt>
      <trkpt lat="48.40886" lon="-4.35541">
        <ele>62</ele>
        <time>2012-02-26T10:06:10.62</time>
      </trkpt>
      <trkpt lat="48.40889" lon="-4.35541">
        <ele>62</ele>
        <time>2012-02-26T10:06:11.62</time>
      </trkpt>
      <trkpt lat="48.40894" lon="-4.35541">
        <ele>62</ele>
        <time>2012-02-26T10:06:12.63</time>
      </trkpt>
      <trkpt lat="48.40897" lon="-4.35541">
        <ele>62</ele>
        <time>2012-02-26T10:06:13.62</time>
      </trkpt>
      <trkpt lat="48.40901" lon="-4.35539">
        <ele>62</ele>
        <time>2012-02-26T10:06:14.62</time>
      </trkpt>
      <trkpt lat="48.40904" lon="-4.35539">
        <ele>62</ele>
        <time>2012-02-26T10:06:15.63</time>
      </trkpt>
      <trkpt lat="48.40909" lon="-4.35535">
        <ele>62</ele>
        <time>2012-02-26T10:06:16.62</time>
      </trkpt>
      <trkpt lat="48.40912" lon="-4.35533">
        <ele>62</ele>
        <time>2012-02-26T10:06:17.62</time>
      </trkpt>
      <trkpt lat="48.40916" lon="-4.35529">
        <ele>62</ele>
        <time>2012-02-26T10:06:18.62</time>
      </trkpt>
      <trkpt lat="48.40919" lon="-4.35524">
        <ele>63</ele>
        <time>2012-02-26T10:06:19.62</time>
      </trkpt>
      <trkpt lat="48.40924" lon="-4.3552">
        <ele>63</ele>
        <time>2012-02-26T10:06:20.63</time>
      </trkpt>
      <trkpt lat="48.40928" lon="-4.35516">
        <ele>63</ele>
        <time>2012-02-26T10:06:21.62</time>
      </trkpt>
      <trkpt lat="48.40931" lon="-4.35511">
        <ele>64</ele>
        <time>2012-02-26T10:06:22.62</time>
      </trkpt>
      <trkpt lat="48.40935" lon="-4.35507">
        <ele>64</ele>
        <time>2012-02-26T10:06:23.63</time>
      </trkpt>
      <trkpt lat="48.40939" lon="-4.35503">
        <ele>65</ele>
        <time>2012-02-26T10:06:24.63</time>
      </trkpt>
      <trkpt lat="48.40942" lon="-4.35496">
        <ele>65</ele>
        <time>2012-02-26T10:06:25.63</time>
      </trkpt>
      <trkpt lat="48.40944" lon="-4.3549">
        <ele>65</ele>
        <time>2012-02-26T10:06:26.62</time>
      </trkpt>
      <trkpt lat="48.40946" lon="-4.35483">
        <ele>66</ele>
        <time>2012-02-26T10:06:27.63</time>
      </trkpt>
      <trkpt lat="48.40948" lon="-4.35479">
        <ele>66</ele>
        <time>2012-02-26T10:06:28.62</time>
      </trkpt>
      <trkpt lat="48.40951" lon="-4.35473">
        <ele>66</ele>
        <time>2012-02-26T10:06:29.62</time>
      </trkpt>
      <trkpt lat="48.40952" lon="-4.35468">
        <ele>66</ele>
        <time>2012-02-26T10:06:30.62</time>
      </trkpt>
      <trkpt lat="48.40952" lon="-4.35462">
        <ele>66</ele>
        <time>2012-02-26T10:06:31.63</time>
      </trkpt>
      <trkpt lat="48.40951" lon="-4.35458">
        <ele>66</ele>
        <time>2012-02-26T10:06:32.62</time>
      </trkpt>
      <trkpt lat="48.40948" lon="-4.35453">
        <ele>66</ele>
        <time>2012-02-26T10:06:33.62</time>
      </trkpt>
      <trkpt lat="48.40946" lon="-4.35451">
        <ele>66</ele>
        <time>2012-02-26T10:06:34.69</time>
      </trkpt>
      <trkpt lat="48.40943" lon="-4.35449">
        <ele>66</ele>
        <time>2012-02-26T10:06:35.62</time>
      </trkpt>
      <trkpt lat="48.40941" lon="-4.35449">
        <ele>66</ele>
        <time>2012-02-26T10:06:36.62</time>
      </trkpt>
      <trkpt lat="48.40937" lon="-4.35451">
        <ele>66</ele>
        <time>2012-02-26T10:06:37.62</time>
      </trkpt>
      <trkpt lat="48.40933" lon="-4.35451">
        <ele>66</ele>
        <time>2012-02-26T10:06:38.62</time>
      </trkpt>
      <trkpt lat="48.40929" lon="-4.35453">
        <ele>66</ele>
        <time>2012-02-26T10:06:39.62</time>
      </trkpt>
      <trkpt lat="48.40925" lon="-4.35456">
        <ele>66</ele>
        <time>2012-02-26T10:06:40.62</time>
      </trkpt>
      <trkpt lat="48.40922" lon="-4.35458">
        <ele>66</ele>
        <time>2012-02-26T10:06:41.62</time>
      </trkpt>
      <trkpt lat="48.40917" lon="-4.3546">
        <ele>66</ele>
        <time>2012-02-26T10:06:42.62</time>
      </trkpt>
      <trkpt lat="48.40914" lon="-4.35462">
        <ele>66</ele>
        <time>2012-02-26T10:06:43.62</time>
      </trkpt>
      <trkpt lat="48.4091" lon="-4.35466">
        <ele>66</ele>
        <time>2012-02-26T10:06:44.62</time>
      </trkpt>
      <trkpt lat="48.40906" lon="-4.35468">
        <ele>66</ele>
        <time>2012-02-26T10:06:45.62</time>
      </trkpt>
      <trkpt lat="48.40902" lon="-4.35471">
        <ele>66</ele>
        <time>2012-02-26T10:06:46.62</time>
      </trkpt>
      <trkpt lat="48.40898" lon="-4.35473">
        <ele>66</ele>
        <time>2012-02-26T10:06:47.62</time>
      </trkpt>
      <trkpt lat="48.40896" lon="-4.35473">
        <ele>66</ele>
        <time>2012-02-26T10:06:48.63</time>
      </trkpt>
      <trkpt lat="48.40894" lon="-4.35471">
        <ele>66</ele>
        <time>2012-02-26T10:06:49.62</time>
      </trkpt>
      <trkpt lat="48.40892" lon="-4.35471">
        <ele>66</ele>
        <time>2012-02-26T10:06:50.62</time>
      </trkpt>
      <trkpt lat="48.40889" lon="-4.35468">
        <ele>66</ele>
        <time>2012-02-26T10:06:51.62</time>
      </trkpt>
      <trkpt lat="48.40887" lon="-4.35464">
        <ele>66</ele>
        <time>2012-02-26T10:06:52.62</time>
      </trkpt>
      <trkpt lat="48.40885" lon="-4.35462">
        <ele>66</ele>
        <time>2012-02-26T10:06:53.62</time>
      </trkpt>
      <trkpt lat="48.40883" lon="-4.35458">
        <ele>66</ele>
        <time>2012-02-26T10:06:54.63</time>
      </trkpt>
      <trkpt lat="48.40881" lon="-4.35453">
        <ele>66</ele>
        <time>2012-02-26T10:06:55.63</time>
      </trkpt>
      <trkpt lat="48.40879" lon="-4.35449">
        <ele>66</ele>
        <time>2012-02-26T10:06:56.63</time>
      </trkpt>
      <trkpt lat="48.40877" lon="-4.35443">
        <ele>66</ele>
        <time>2012-02-26T10:06:57.63</time>
      </trkpt>
      <trkpt lat="48.40874" lon="-4.35438">
        <ele>66</ele>
        <time>2012-02-26T10:06:58.63</time>
      </trkpt>
      <trkpt lat="48.40874" lon="-4.35434">
        <ele>66</ele>
        <time>2012-02-26T10:06:59.62</time>
      </trkpt>
      <trkpt lat="48.40876" lon="-4.3543">
        <ele>66</ele>
        <time>2012-02-26T10:07:00.62</time>
      </trkpt>
      <trkpt lat="48.40876" lon="-4.35426">
        <ele>66</ele>
        <time>2012-02-26T10:07:01.62</time>
      </trkpt>
      <trkpt lat="48.40876" lon="-4.35421">
        <ele>66</ele>
        <time>2012-02-26T10:07:02.62</time>
      </trkpt>
      <trkpt lat="48.40877" lon="-4.35419">
        <ele>66</ele>
        <time>2012-02-26T10:07:03.63</time>
      </trkpt>
      <trkpt lat="48.40877" lon="-4.35415">
        <ele>66</ele>
        <time>2012-02-26T10:07:04.63</time>
      </trkpt>
      <trkpt lat="48.40878" lon="-4.3541">
        <ele>66</ele>
        <time>2012-02-26T10:07:05.62</time>
      </trkpt>
      <trkpt lat="48.40878" lon="-4.35404">
        <ele>66</ele>
        <time>2012-02-26T10:07:06.62</time>
      </trkpt>
      <trkpt lat="48.40878" lon="-4.354">
        <ele>65</ele>
        <time>2012-02-26T10:07:07.62</time>
      </trkpt>
      <trkpt lat="48.40879" lon="-4.35393">
        <ele>65</ele>
        <time>2012-02-26T10:07:08.62</time>
      </trkpt>
      <trkpt lat="48.40879" lon="-4.35387">
        <ele>65</ele>
        <time>2012-02-26T10:07:09.62</time>
      </trkpt>
      <trkpt lat="48.40879" lon="-4.35383">
        <ele>65</ele>
        <time>2012-02-26T10:07:10.63</time>
      </trkpt>
      <trkpt lat="48.40879" lon="-4.35376">
        <ele>65</ele>
        <time>2012-02-26T10:07:11.62</time>
      </trkpt>
      <trkpt lat="48.4088" lon="-4.35372">
        <ele>65</ele>
        <time>2012-02-26T10:07:12.62</time>
      </trkpt>
      <trkpt lat="48.40882" lon="-4.35365">
        <ele>65</ele>
        <time>2012-02-26T10:07:13.63</time>
      </trkpt>
      <trkpt lat="48.40883" lon="-4.35359">
        <ele>65</ele>
        <time>2012-02-26T10:07:14.63</time>
      </trkpt>
      <trkpt lat="48.40885" lon="-4.35353">
        <ele>65</ele>
        <time>2012-02-26T10:07:15.63</time>
      </trkpt>
      <trkpt lat="48.40887" lon="-4.35344">
        <ele>65</ele>
        <time>2012-02-26T10:07:16.63</time>
      </trkpt>
      <trkpt lat="48.40888" lon="-4.35338">
        <ele>65</ele>
        <time>2012-02-26T10:07:17.63</time>
      </trkpt>
      <trkpt lat="48.40889" lon="-4.35331">
        <ele>65</ele>
        <time>2012-02-26T10:07:18.63</time>
      </trkpt>
      <trkpt lat="48.40892" lon="-4.35327">
        <ele>65</ele>
        <time>2012-02-26T10:07:19.62</time>
      </trkpt>
      <trkpt lat="48.40893" lon="-4.3532">
        <ele>65</ele>
        <time>2012-02-26T10:07:20.63</time>
      </trkpt>
      <trkpt lat="48.40894" lon="-4.35314">
        <ele>65</ele>
        <time>2012-02-26T10:07:21.63</time>
      </trkpt>
      <trkpt lat="48.40895" lon="-4.35308">
        <ele>65</ele>
        <time>2012-02-26T10:07:22.63</time>
      </trkpt>
      <trkpt lat="48.40896" lon="-4.35301">
        <ele>65</ele>
        <time>2012-02-26T10:07:23.63</time>
      </trkpt>
      <trkpt lat="48.40896" lon="-4.35295">
        <ele>65</ele>
        <time>2012-02-26T10:07:24.63</time>
      </trkpt>
      <trkpt lat="48.40896" lon="-4.35288">
        <ele>65</ele>
        <time>2012-02-26T10:07:25.63</time>
      </trkpt>
      <trkpt lat="48.40897" lon="-4.3528">
        <ele>65</ele>
        <time>2012-02-26T10:07:26.63</time>
      </trkpt>
      <trkpt lat="48.40897" lon="-4.35273">
        <ele>66</ele>
        <time>2012-02-26T10:07:27.62</time>
      </trkpt>
      <trkpt lat="48.40898" lon="-4.35267">
        <ele>66</ele>
        <time>2012-02-26T10:07:28.63</time>
      </trkpt>
      <trkpt lat="48.40899" lon="-4.3526">
        <ele>66</ele>
        <time>2012-02-26T10:07:29.63</time>
      </trkpt>
      <trkpt lat="48.409" lon="-4.35254">
        <ele>66</ele>
        <time>2012-02-26T10:07:30.63</time>
      </trkpt>
      <trkpt lat="48.40901" lon="-4.3525">
        <ele>66</ele>
        <time>2012-02-26T10:07:31.63</time>
      </trkpt>
      <trkpt lat="48.40902" lon="-4.35243">
        <ele>66</ele>
        <time>2012-02-26T10:07:32.63</time>
      </trkpt>
      <trkpt lat="48.40903" lon="-4.35237">
        <ele>66</ele>
        <time>2012-02-26T10:07:33.63</time>
      </trkpt>
      <trkpt lat="48.40906" lon="-4.3523">
        <ele>66</ele>
        <time>2012-02-26T10:07:34.63</time>
      </trkpt>
      <trkpt lat="48.40907" lon="-4.35224">
        <ele>66</ele>
        <time>2012-02-26T10:07:35.63</time>
      </trkpt>
      <trkpt lat="48.40908" lon="-4.3522">
        <ele>66</ele>
        <time>2012-02-26T10:07:36.63</time>
      </trkpt>
      <trkpt lat="48.40907" lon="-4.35213">
        <ele>66</ele>
        <time>2012-02-26T10:07:37.63</time>
      </trkpt>
      <trkpt lat="48.40907" lon="-4.35207">
        <ele>66</ele>
        <time>2012-02-26T10:07:38.63</time>
      </trkpt>
      <trkpt lat="48.40906" lon="-4.35202">
        <ele>66</ele>
        <time>2012-02-26T10:07:39.62</time>
      </trkpt>
      <trkpt lat="48.40904" lon="-4.35196">
        <ele>66</ele>
        <time>2012-02-26T10:07:40.63</time>
      </trkpt>
      <trkpt lat="48.40903" lon="-4.35192">
        <ele>66</ele>
        <time>2012-02-26T10:07:41.63</time>
      </trkpt>
      <trkpt lat="48.40901" lon="-4.35185">
        <ele>66</ele>
        <time>2012-02-26T10:07:42.63</time>
      </trkpt>
      <trkpt lat="48.40899" lon="-4.35181">
        <ele>66</ele>
        <time>2012-02-26T10:07:43.62</time>
      </trkpt>
      <trkpt lat="48.40896" lon="-4.35177">
        <ele>66</ele>
        <time>2012-02-26T10:07:44.63</time>
      </trkpt>
      <trkpt lat="48.40894" lon="-4.35172">
        <ele>66</ele>
        <time>2012-02-26T10:07:45.63</time>
      </trkpt>
      <trkpt lat="48.40891" lon="-4.35166">
        <ele>66</ele>
        <time>2012-02-26T10:07:46.63</time>
      </trkpt>
      <trkpt lat="48.40888" lon="-4.35162">
        <ele>65</ele>
        <time>2012-02-26T10:07:47.63</time>
      </trkpt>
      <trkpt lat="48.40886" lon="-4.35155">
        <ele>65</ele>
        <time>2012-02-26T10:07:48.63</time>
      </trkpt>
      <trkpt lat="48.40883" lon="-4.35151">
        <ele>65</ele>
        <time>2012-02-26T10:07:49.63</time>
      </trkpt>
      <trkpt lat="48.4088" lon="-4.35144">
        <ele>65</ele>
        <time>2012-02-26T10:07:50.63</time>
      </trkpt>
      <trkpt lat="48.40877" lon="-4.35138">
        <ele>65</ele>
        <time>2012-02-26T10:07:51.63</time>
      </trkpt>
      <trkpt lat="48.40873" lon="-4.35132">
        <ele>64</ele>
        <time>2012-02-26T10:07:52.63</time>
      </trkpt>
      <trkpt lat="48.4087" lon="-4.35125">
        <ele>64</ele>
        <time>2012-02-26T10:07:53.63</time>
      </trkpt>
      <trkpt lat="48.40868" lon="-4.35119">
        <ele>64</ele>
        <time>2012-02-26T10:07:54.63</time>
      </trkpt>
      <trkpt lat="48.40865" lon="-4.35112">
        <ele>64</ele>
        <time>2012-02-26T10:07:55.63</time>
      </trkpt>
      <trkpt lat="48.40862" lon="-4.35106">
        <ele>63</ele>
        <time>2012-02-26T10:07:56.63</time>
      </trkpt>
      <trkpt lat="48.40859" lon="-4.35099">
        <ele>63</ele>
        <time>2012-02-26T10:07:57.63</time>
      </trkpt>
      <trkpt lat="48.40856" lon="-4.35093">
        <ele>63</ele>
        <time>2012-02-26T10:07:58.63</time>
      </trkpt>
      <trkpt lat="48.40854" lon="-4.35086">
        <ele>63</ele>
        <time>2012-02-26T10:07:59.64</time>
      </trkpt>
      <trkpt lat="48.40853" lon="-4.35078">
        <ele>63</ele>
        <time>2012-02-26T10:08:00.63</time>
      </trkpt>
      <trkpt lat="48.40852" lon="-4.35071">
        <ele>63</ele>
        <time>2012-02-26T10:08:01.64</time>
      </trkpt>
      <trkpt lat="48.40852" lon="-4.35065">
        <ele>63</ele>
        <time>2012-02-26T10:08:02.62</time>
      </trkpt>
      <trkpt lat="48.40852" lon="-4.35059">
        <ele>62</ele>
        <time>2012-02-26T10:08:03.62</time>
      </trkpt>
      <trkpt lat="48.40854" lon="-4.35054">
        <ele>62</ele>
        <time>2012-02-26T10:08:04.63</time>
      </trkpt>
      <trkpt lat="48.40857" lon="-4.3505">
        <ele>62</ele>
        <time>2012-02-26T10:08:05.64</time>
      </trkpt>
      <trkpt lat="48.4086" lon="-4.35048">
        <ele>62</ele>
        <time>2012-02-26T10:08:06.62</time>
      </trkpt>
      <trkpt lat="48.40863" lon="-4.35046">
        <ele>62</ele>
        <time>2012-02-26T10:08:07.62</time>
      </trkpt>
      <trkpt lat="48.40866" lon="-4.35044">
        <ele>62</ele>
        <time>2012-02-26T10:08:08.70</time>
      </trkpt>
      <trkpt lat="48.40869" lon="-4.35044">
        <ele>62</ele>
        <time>2012-02-26T10:08:09.63</time>
      </trkpt>
      <trkpt lat="48.4087" lon="-4.35041">
        <ele>63</ele>
        <time>2012-02-26T10:08:10.63</time>
      </trkpt>
      <trkpt lat="48.40872" lon="-4.35041">
        <ele>63</ele>
        <time>2012-02-26T10:08:11.73</time>
      </trkpt>
      <trkpt lat="48.40874" lon="-4.35039">
        <ele>63</ele>
        <time>2012-02-26T10:08:12.63</time>
      </trkpt>
      <trkpt lat="48.40876" lon="-4.35037">
        <ele>63</ele>
        <time>2012-02-26T10:08:13.63</time>
      </trkpt>
      <trkpt lat="48.40878" lon="-4.35037">
        <ele>63</ele>
        <time>2012-02-26T10:08:14.64</time>
      </trkpt>
      <trkpt lat="48.40881" lon="-4.35035">
        <ele>63</ele>
        <time>2012-02-26T10:08:15.62</time>
      </trkpt>
      <trkpt lat="48.40883" lon="-4.35033">
        <ele>63</ele>
        <time>2012-02-26T10:08:16.63</time>
      </trkpt>
      <trkpt lat="48.40885" lon="-4.35031">
        <ele>63</ele>
        <time>2012-02-26T10:08:17.64</time>
      </trkpt>
      <trkpt lat="48.40887" lon="-4.35029">
        <ele>63</ele>
        <time>2012-02-26T10:08:18.62</time>
      </trkpt>
      <trkpt lat="48.40891" lon="-4.35026">
        <ele>63</ele>
        <time>2012-02-26T10:08:19.62</time>
      </trkpt>
      <trkpt lat="48.40893" lon="-4.35024">
        <ele>63</ele>
        <time>2012-02-26T10:08:20.62</time>
      </trkpt>
      <trkpt lat="48.40895" lon="-4.35022">
        <ele>63</ele>
        <time>2012-02-26T10:08:21.65</time>
      </trkpt>
      <trkpt lat="48.40897" lon="-4.3502">
        <ele>63</ele>
        <time>2012-02-26T10:08:22.62</time>
      </trkpt>
      <trkpt lat="48.409" lon="-4.35018">
        <ele>64</ele>
        <time>2012-02-26T10:08:23.63</time>
      </trkpt>
      <trkpt lat="48.40902" lon="-4.35014">
        <ele>64</ele>
        <time>2012-02-26T10:08:24.63</time>
      </trkpt>
      <trkpt lat="48.40904" lon="-4.35011">
        <ele>64</ele>
        <time>2012-02-26T10:08:25.63</time>
      </trkpt>
      <trkpt lat="48.40907" lon="-4.35009">
        <ele>64</ele>
        <time>2012-02-26T10:08:26.63</time>
      </trkpt>
      <trkpt lat="48.4091" lon="-4.35005">
        <ele>64</ele>
        <time>2012-02-26T10:08:27.63</time>
      </trkpt>
      <trkpt lat="48.40912" lon="-4.35001">
        <ele>64</ele>
        <time>2012-02-26T10:08:28.63</time>
      </trkpt>
      <trkpt lat="48.40914" lon="-4.34996">
        <ele>64</ele>
        <time>2012-02-26T10:08:29.63</time>
      </trkpt>
      <trkpt lat="48.40916" lon="-4.34992">
        <ele>64</ele>
        <time>2012-02-26T10:08:30.63</time>
      </trkpt>
      <trkpt lat="48.40918" lon="-4.3499">
        <ele>64</ele>
        <time>2012-02-26T10:08:31.63</time>
      </trkpt>
      <trkpt lat="48.40921" lon="-4.34986">
        <ele>64</ele>
        <time>2012-02-26T10:08:32.63</time>
      </trkpt>
      <trkpt lat="48.40923" lon="-4.34981">
        <ele>64</ele>
        <time>2012-02-26T10:08:33.63</time>
      </trkpt>
      <trkpt lat="48.40924" lon="-4.34977">
        <ele>64</ele>
        <time>2012-02-26T10:08:34.63</time>
      </trkpt>
      <trkpt lat="48.40926" lon="-4.34973">
        <ele>64</ele>
        <time>2012-02-26T10:08:35.63</time>
      </trkpt>
      <trkpt lat="48.40927" lon="-4.34968">
        <ele>64</ele>
        <time>2012-02-26T10:08:36.63</time>
      </trkpt>
      <trkpt lat="48.40928" lon="-4.34964">
        <ele>64</ele>
        <time>2012-02-26T10:08:37.63</time>
      </trkpt>
      <trkpt lat="48.4093" lon="-4.34962">
        <ele>64</ele>
        <time>2012-02-26T10:08:38.63</time>
      </trkpt>
      <trkpt lat="48.40931" lon="-4.34958">
        <ele>65</ele>
        <time>2012-02-26T10:08:39.63</time>
      </trkpt>
      <trkpt lat="48.40933" lon="-4.34953">
        <ele>65</ele>
        <time>2012-02-26T10:08:40.63</time>
      </trkpt>
      <trkpt lat="48.40936" lon="-4.34951">
        <ele>65</ele>
        <time>2012-02-26T10:08:41.63</time>
      </trkpt>
      <trkpt lat="48.40938" lon="-4.34947">
        <ele>65</ele>
        <time>2012-02-26T10:08:42.63</time>
      </trkpt>
      <trkpt lat="48.40941" lon="-4.34947">
        <ele>65</ele>
        <time>2012-02-26T10:08:43.63</time>
      </trkpt>
      <trkpt lat="48.40944" lon="-4.34947">
        <ele>65</ele>
        <time>2012-02-26T10:08:44.63</time>
      </trkpt>
      <trkpt lat="48.40946" lon="-4.34947">
        <ele>65</ele>
        <time>2012-02-26T10:08:45.63</time>
      </trkpt>
      <trkpt lat="48.4095" lon="-4.34947">
        <ele>65</ele>
        <time>2012-02-26T10:08:46.63</time>
      </trkpt>
      <trkpt lat="48.40953" lon="-4.34949">
        <ele>65</ele>
        <time>2012-02-26T10:08:47.63</time>
      </trkpt>
      <trkpt lat="48.40956" lon="-4.34949">
        <ele>65</ele>
        <time>2012-02-26T10:08:48.63</time>
      </trkpt>
      <trkpt lat="48.40959" lon="-4.34951">
        <ele>65</ele>
        <time>2012-02-26T10:08:49.63</time>
      </trkpt>
      <trkpt lat="48.40962" lon="-4.34953">
        <ele>65</ele>
        <time>2012-02-26T10:08:50.63</time>
      </trkpt>
      <trkpt lat="48.40966" lon="-4.34953">
        <ele>65</ele>
        <time>2012-02-26T10:08:51.63</time>
      </trkpt>
      <trkpt lat="48.4097" lon="-4.34956">
        <ele>65</ele>
        <time>2012-02-26T10:08:52.63</time>
      </trkpt>
      <trkpt lat="48.40973" lon="-4.34956">
        <ele>65</ele>
        <time>2012-02-26T10:08:53.63</time>
      </trkpt>
      <trkpt lat="48.40976" lon="-4.34956">
        <ele>65</ele>
        <time>2012-02-26T10:08:54.63</time>
      </trkpt>
      <trkpt lat="48.4098" lon="-4.34958">
        <ele>66</ele>
        <time>2012-02-26T10:08:55.63</time>
      </trkpt>
      <trkpt lat="48.40984" lon="-4.34958">
        <ele>66</ele>
        <time>2012-02-26T10:08:56.63</time>
      </trkpt>
      <trkpt lat="48.40987" lon="-4.3496">
        <ele>66</ele>
        <time>2012-02-26T10:08:57.63</time>
      </trkpt>
      <trkpt lat="48.40991" lon="-4.3496">
        <ele>66</ele>
        <time>2012-02-26T10:08:58.63</time>
      </trkpt>
      <trkpt lat="48.40995" lon="-4.34962">
        <ele>66</ele>
        <time>2012-02-26T10:08:59.63</time>
      </trkpt>
      <trkpt lat="48.40998" lon="-4.34962">
        <ele>66</ele>
        <time>2012-02-26T10:09:00.63</time>
      </trkpt>
      <trkpt lat="48.41001" lon="-4.34962">
        <ele>66</ele>
        <time>2012-02-26T10:09:01.63</time>
      </trkpt>
      <trkpt lat="48.41004" lon="-4.34962">
        <ele>66</ele>
        <time>2012-02-26T10:09:02.63</time>
      </trkpt>
      <trkpt lat="48.41009" lon="-4.34964">
        <ele>66</ele>
        <time>2012-02-26T10:09:03.63</time>
      </trkpt>
      <trkpt lat="48.41012" lon="-4.34964">
        <ele>66</ele>
        <time>2012-02-26T10:09:04.63</time>
      </trkpt>
      <trkpt lat="48.41015" lon="-4.34966">
        <ele>66</ele>
        <time>2012-02-26T10:09:05.63</time>
      </trkpt>
      <trkpt lat="48.41018" lon="-4.34968">
        <ele>67</ele>
        <time>2012-02-26T10:09:06.63</time>
      </trkpt>
      <trkpt lat="48.4102" lon="-4.34973">
        <ele>67</ele>
        <time>2012-02-26T10:09:07.63</time>
      </trkpt>
      <trkpt lat="48.41024" lon="-4.34975">
        <ele>67</ele>
        <time>2012-02-26T10:09:08.63</time>
      </trkpt>
      <trkpt lat="48.41026" lon="-4.34979">
        <ele>67</ele>
        <time>2012-02-26T10:09:09.63</time>
      </trkpt>
      <trkpt lat="48.41028" lon="-4.34983">
        <ele>67</ele>
        <time>2012-02-26T10:09:10.63</time>
      </trkpt>
      <trkpt lat="48.4103" lon="-4.34986">
        <ele>67</ele>
        <time>2012-02-26T10:09:11.63</time>
      </trkpt>
      <trkpt lat="48.41033" lon="-4.3499">
        <ele>67</ele>
        <time>2012-02-26T10:09:12.63</time>
      </trkpt>
      <trkpt lat="48.41035" lon="-4.34994">
        <ele>67</ele>
        <time>2012-02-26T10:09:13.63</time>
      </trkpt>
      <trkpt lat="48.41039" lon="-4.34996">
        <ele>67</ele>
        <time>2012-02-26T10:09:14.63</time>
      </trkpt>
      <trkpt lat="48.41042" lon="-4.34999">
        <ele>68</ele>
        <time>2012-02-26T10:09:15.63</time>
      </trkpt>
      <trkpt lat="48.41045" lon="-4.35001">
        <ele>68</ele>
        <time>2012-02-26T10:09:16.63</time>
      </trkpt>
      <trkpt lat="48.41047" lon="-4.35001">
        <ele>68</ele>
        <time>2012-02-26T10:09:17.63</time>
      </trkpt>
      <trkpt lat="48.41049" lon="-4.35003">
        <ele>68</ele>
        <time>2012-02-26T10:09:18.63</time>
      </trkpt>
      <trkpt lat="48.4105" lon="-4.35003">
        <ele>68</ele>
        <time>2012-02-26T10:09:19.63</time>
      </trkpt>
      <trkpt lat="48.41053" lon="-4.35003">
        <ele>68</ele>
        <time>2012-02-26T10:09:20.63</time>
      </trkpt>
      <trkpt lat="48.41055" lon="-4.35003">
        <ele>68</ele>
        <time>2012-02-26T10:09:21.63</time>
      </trkpt>
      <trkpt lat="48.41057" lon="-4.35005">
        <ele>68</ele>
        <time>2012-02-26T10:09:22.63</time>
      </trkpt>
      <trkpt lat="48.41059" lon="-4.35005">
        <ele>69</ele>
        <time>2012-02-26T10:09:23.63</time>
      </trkpt>
      <trkpt lat="48.41061" lon="-4.35005">
        <ele>69</ele>
        <time>2012-02-26T10:09:24.63</time>
      </trkpt>
      <trkpt lat="48.41063" lon="-4.35005">
        <ele>69</ele>
        <time>2012-02-26T10:09:25.63</time>
      </trkpt>
      <trkpt lat="48.41065" lon="-4.35007">
        <ele>69</ele>
        <time>2012-02-26T10:09:26.63</time>
      </trkpt>
      <trkpt lat="48.41068" lon="-4.35007">
        <ele>69</ele>
        <time>2012-02-26T10:09:27.63</time>
      </trkpt>
      <trkpt lat="48.41071" lon="-4.35007">
        <ele>69</ele>
        <time>2012-02-26T10:09:28.63</time>
      </trkpt>
      <trkpt lat="48.41074" lon="-4.35007">
        <ele>69</ele>
        <time>2012-02-26T10:09:29.63</time>
      </trkpt>
      <trkpt lat="48.41076" lon="-4.35007">
        <ele>69</ele>
        <time>2012-02-26T10:09:30.63</time>
      </trkpt>
      <trkpt lat="48.41079" lon="-4.35007">
        <ele>70</ele>
        <time>2012-02-26T10:09:31.63</time>
      </trkpt>
      <trkpt lat="48.41083" lon="-4.35007">
        <ele>70</ele>
        <time>2012-02-26T10:09:32.63</time>
      </trkpt>
      <trkpt lat="48.41085" lon="-4.35007">
        <ele>70</ele>
        <time>2012-02-26T10:09:33.63</time>
      </trkpt>
      <trkpt lat="48.41088" lon="-4.35005">
        <ele>70</ele>
        <time>2012-02-26T10:09:34.64</time>
      </trkpt>
      <trkpt lat="48.41091" lon="-4.35005">
        <ele>70</ele>
        <time>2012-02-26T10:09:35.63</time>
      </trkpt>
      <trkpt lat="48.41094" lon="-4.35001">
        <ele>70</ele>
        <time>2012-02-26T10:09:36.63</time>
      </trkpt>
      <trkpt lat="48.41097" lon="-4.34999">
        <ele>70</ele>
        <time>2012-02-26T10:09:37.63</time>
      </trkpt>
      <trkpt lat="48.411" lon="-4.34996">
        <ele>71</ele>
        <time>2012-02-26T10:09:38.63</time>
      </trkpt>
      <trkpt lat="48.41102" lon="-4.34992">
        <ele>71</ele>
        <time>2012-02-26T10:09:39.63</time>
      </trkpt>
      <trkpt lat="48.41104" lon="-4.34988">
        <ele>71</ele>
        <time>2012-02-26T10:09:40.63</time>
      </trkpt>
      <trkpt lat="48.41106" lon="-4.34983">
        <ele>71</ele>
        <time>2012-02-26T10:09:41.63</time>
      </trkpt>
      <trkpt lat="48.41108" lon="-4.34981">
        <ele>71</ele>
        <time>2012-02-26T10:09:42.63</time>
      </trkpt>
      <trkpt lat="48.4111" lon="-4.34977">
        <ele>71</ele>
        <time>2012-02-26T10:09:43.63</time>
      </trkpt>
      <trkpt lat="48.41112" lon="-4.34973">
        <ele>71</ele>
        <time>2012-02-26T10:09:44.63</time>
      </trkpt>
      <trkpt lat="48.41114" lon="-4.34968">
        <ele>72</ele>
        <time>2012-02-26T10:09:45.63</time>
      </trkpt>
      <trkpt lat="48.41116" lon="-4.34964">
        <ele>72</ele>
        <time>2012-02-26T10:09:46.63</time>
      </trkpt>
      <trkpt lat="48.41117" lon="-4.3496">
        <ele>72</ele>
        <time>2012-02-26T10:09:47.63</time>
      </trkpt>
      <trkpt lat="48.41119" lon="-4.34958">
        <ele>72</ele>
        <time>2012-02-26T10:09:48.63</time>
      </trkpt>
      <trkpt lat="48.41121" lon="-4.34953">
        <ele>72</ele>
        <time>2012-02-26T10:09:49.63</time>
      </trkpt>
      <trkpt lat="48.41123" lon="-4.34951">
        <ele>72</ele>
        <time>2012-02-26T10:09:50.63</time>
      </trkpt>
      <trkpt lat="48.41125" lon="-4.34947">
        <ele>72</ele>
        <time>2012-02-26T10:09:51.63</time>
      </trkpt>
      <trkpt lat="48.41129" lon="-4.34947">
        <ele>73</ele>
        <time>2012-02-26T10:09:52.63</time>
      </trkpt>
      <trkpt lat="48.41131" lon="-4.34945">
        <ele>73</ele>
        <time>2012-02-26T10:09:53.63</time>
      </trkpt>
      <trkpt lat="48.41134" lon="-4.34943">
        <ele>73</ele>
        <time>2012-02-26T10:09:54.63</time>
      </trkpt>
      <trkpt lat="48.41137" lon="-4.34943">
        <ele>73</ele>
        <time>2012-02-26T10:09:55.63</time>
      </trkpt>
      <trkpt lat="48.41141" lon="-4.34941">
        <ele>73</ele>
        <time>2012-02-26T10:09:56.63</time>
      </trkpt>
      <trkpt lat="48.41144" lon="-4.34938">
        <ele>73</ele>
        <time>2012-02-26T10:09:57.63</time>
      </trkpt>
      <trkpt lat="48.41147" lon="-4.34938">
        <ele>73</ele>
        <time>2012-02-26T10:09:58.63</time>
      </trkpt>
      <trkpt lat="48.41149" lon="-4.34938">
        <ele>74</ele>
        <time>2012-02-26T10:09:59.63</time>
      </trkpt>
      <trkpt lat="48.41152" lon="-4.34936">
        <ele>74</ele>
        <time>2012-02-26T10:10:00.63</time>
      </trkpt>
      <trkpt lat="48.41156" lon="-4.34936">
        <ele>74</ele>
        <time>2012-02-26T10:10:01.63</time>
      </trkpt>
      <trkpt lat="48.41159" lon="-4.34934">
        <ele>74</ele>
        <time>2012-02-26T10:10:02.63</time>
      </trkpt>
      <trkpt lat="48.41162" lon="-4.34934">
        <ele>74</ele>
        <time>2012-02-26T10:10:03.63</time>
      </trkpt>
      <trkpt lat="48.41164" lon="-4.34934">
        <ele>74</ele>
        <time>2012-02-26T10:10:04.63</time>
      </trkpt>
      <trkpt lat="48.41167" lon="-4.34932">
        <ele>74</ele>
        <time>2012-02-26T10:10:05.63</time>
      </trkpt>
      <trkpt lat="48.41171" lon="-4.34932">
        <ele>74</ele>
        <time>2012-02-26T10:10:06.63</time>
      </trkpt>
      <trkpt lat="48.41173" lon="-4.3493">
        <ele>75</ele>
        <time>2012-02-26T10:10:07.63</time>
      </trkpt>
      <trkpt lat="48.41176" lon="-4.3493">
        <ele>75</ele>
        <time>2012-02-26T10:10:08.63</time>
      </trkpt>
      <trkpt lat="48.41178" lon="-4.34928">
        <ele>75</ele>
        <time>2012-02-26T10:10:09.63</time>
      </trkpt>
      <trkpt lat="48.41181" lon="-4.34923">
        <ele>75</ele>
        <time>2012-02-26T10:10:10.63</time>
      </trkpt>
      <trkpt lat="48.41183" lon="-4.34921">
        <ele>75</ele>
        <time>2012-02-26T10:10:11.63</time>
      </trkpt>
      <trkpt lat="48.41184" lon="-4.34917">
        <ele>75</ele>
        <time>2012-02-26T10:10:12.64</time>
      </trkpt>
      <trkpt lat="48.41187" lon="-4.34915">
        <ele>75</ele>
        <time>2012-02-26T10:10:13.63</time>
      </trkpt>
      <trkpt lat="48.41189" lon="-4.34911">
        <ele>76</ele>
        <time>2012-02-26T10:10:14.63</time>
      </trkpt>
      <trkpt lat="48.4119" lon="-4.34908">
        <ele>76</ele>
        <time>2012-02-26T10:10:15.63</time>
      </trkpt>
      <trkpt lat="48.41191" lon="-4.34904">
        <ele>76</ele>
        <time>2012-02-26T10:10:16.63</time>
      </trkpt>
      <trkpt lat="48.41193" lon="-4.34902">
        <ele>76</ele>
        <time>2012-02-26T10:10:17.63</time>
      </trkpt>
      <trkpt lat="48.41194" lon="-4.349">
        <ele>76</ele>
        <time>2012-02-26T10:10:18.63</time>
      </trkpt>
      <trkpt lat="48.41195" lon="-4.34898">
        <ele>76</ele>
        <time>2012-02-26T10:10:19.64</time>
      </trkpt>
      <trkpt lat="48.41195" lon="-4.34893">
        <ele>76</ele>
        <time>2012-02-26T10:10:20.63</time>
      </trkpt>
      <trkpt lat="48.41196" lon="-4.34891">
        <ele>77</ele>
        <time>2012-02-26T10:10:21.64</time>
      </trkpt>
      <trkpt lat="48.41197" lon="-4.34889">
        <ele>77</ele>
        <time>2012-02-26T10:10:22.63</time>
      </trkpt>
      <trkpt lat="48.41198" lon="-4.34887">
        <ele>77</ele>
        <time>2012-02-26T10:10:23.63</time>
      </trkpt>
      <trkpt lat="48.412" lon="-4.34885">
        <ele>77</ele>
        <time>2012-02-26T10:10:25.63</time>
      </trkpt>
      <trkpt lat="48.41202" lon="-4.34885">
        <ele>78</ele>
        <time>2012-02-26T10:10:32.63</time>
      </trkpt>
      <trkpt lat="48.41203" lon="-4.34885">
        <ele>79</ele>
        <time>2012-02-26T10:10:33.64</time>
      </trkpt>
      <trkpt lat="48.41205" lon="-4.34883">
        <ele>79</ele>
        <time>2012-02-26T10:10:34.63</time>
      </trkpt>
      <trkpt lat="48.41208" lon="-4.34883">
        <ele>79</ele>
        <time>2012-02-26T10:10:35.64</time>
      </trkpt>
      <trkpt lat="48.41211" lon="-4.3488">
        <ele>79</ele>
        <time>2012-02-26T10:10:36.63</time>
      </trkpt>
      <trkpt lat="48.41213" lon="-4.3488">
        <ele>79</ele>
        <time>2012-02-26T10:10:37.63</time>
      </trkpt>
      <trkpt lat="48.41217" lon="-4.34878">
        <ele>79</ele>
        <time>2012-02-26T10:10:38.63</time>
      </trkpt>
      <trkpt lat="48.41221" lon="-4.34878">
        <ele>79</ele>
        <time>2012-02-26T10:10:39.63</time>
      </trkpt>
      <trkpt lat="48.41224" lon="-4.34878">
        <ele>79</ele>
        <time>2012-02-26T10:10:40.63</time>
      </trkpt>
      <trkpt lat="48.41228" lon="-4.3488">
        <ele>80</ele>
        <time>2012-02-26T10:10:41.64</time>
      </trkpt>
      <trkpt lat="48.41233" lon="-4.3488">
        <ele>81</ele>
        <time>2012-02-26T10:10:42.63</time>
      </trkpt>
      <trkpt lat="48.41236" lon="-4.34883">
        <ele>82</ele>
        <time>2012-02-26T10:10:43.63</time>
      </trkpt>
      <trkpt lat="48.4124" lon="-4.34887">
        <ele>82</ele>
        <time>2012-02-26T10:10:44.64</time>
      </trkpt>
      <trkpt lat="48.41244" lon="-4.34889">
        <ele>82</ele>
        <time>2012-02-26T10:10:45.63</time>
      </trkpt>
      <trkpt lat="48.41248" lon="-4.34893">
        <ele>83</ele>
        <time>2012-02-26T10:10:46.64</time>
      </trkpt>
      <trkpt lat="48.41252" lon="-4.34896">
        <ele>83</ele>
        <time>2012-02-26T10:10:47.65</time>
      </trkpt>
      <trkpt lat="48.41256" lon="-4.349">
        <ele>83</ele>
        <time>2012-02-26T10:10:48.63</time>
      </trkpt>
      <trkpt lat="48.4126" lon="-4.34902">
        <ele>83</ele>
        <time>2012-02-26T10:10:49.64</time>
      </trkpt>
      <trkpt lat="48.41264" lon="-4.34906">
        <ele>83</ele>
        <time>2012-02-26T10:10:50.64</time>
      </trkpt>
      <trkpt lat="48.41267" lon="-4.34911">
        <ele>84</ele>
        <time>2012-02-26T10:10:51.63</time>
      </trkpt>
      <trkpt lat="48.4127" lon="-4.34913">
        <ele>84</ele>
        <time>2012-02-26T10:10:52.64</time>
      </trkpt>
      <trkpt lat="48.41274" lon="-4.34917">
        <ele>84</ele>
        <time>2012-02-26T10:10:53.63</time>
      </trkpt>
      <trkpt lat="48.41277" lon="-4.34921">
        <ele>84</ele>
        <time>2012-02-26T10:10:54.68</time>
      </trkpt>
      <trkpt lat="48.4128" lon="-4.34923">
        <ele>84</ele>
        <time>2012-02-26T10:10:55.63</time>
      </trkpt>
      <trkpt lat="48.41283" lon="-4.34928">
        <ele>84</ele>
        <time>2012-02-26T10:10:56.64</time>
      </trkpt>
      <trkpt lat="48.41286" lon="-4.34932">
        <ele>84</ele>
        <time>2012-02-26T10:10:57.65</time>
      </trkpt>
      <trkpt lat="48.4129" lon="-4.34936">
        <ele>84</ele>
        <time>2012-02-26T10:10:58.63</time>
      </trkpt>
      <trkpt lat="48.41293" lon="-4.34941">
        <ele>84</ele>
        <time>2012-02-26T10:10:59.64</time>
      </trkpt>
      <trkpt lat="48.41296" lon="-4.34945">
        <ele>84</ele>
        <time>2012-02-26T10:11:00.65</time>
      </trkpt>
      <trkpt lat="48.41299" lon="-4.34949">
        <ele>84</ele>
        <time>2012-02-26T10:11:01.62</time>
      </trkpt>
      <trkpt lat="48.41303" lon="-4.34953">
        <ele>84</ele>
        <time>2012-02-26T10:11:02.63</time>
      </trkpt>
      <trkpt lat="48.41307" lon="-4.34958">
        <ele>84</ele>
        <time>2012-02-26T10:11:03.63</time>
      </trkpt>
      <trkpt lat="48.4131" lon="-4.34962">
        <ele>84</ele>
        <time>2012-02-26T10:11:04.63</time>
      </trkpt>
      <trkpt lat="48.41314" lon="-4.34964">
        <ele>85</ele>
        <time>2012-02-26T10:11:05.63</time>
      </trkpt>
      <trkpt lat="48.41319" lon="-4.34966">
        <ele>85</ele>
        <time>2012-02-26T10:11:06.63</time>
      </trkpt>
      <trkpt lat="48.41323" lon="-4.34968">
        <ele>85</ele>
        <time>2012-02-26T10:11:07.63</time>
      </trkpt>
      <trkpt lat="48.41327" lon="-4.34968">
        <ele>86</ele>
        <time>2012-02-26T10:11:08.67</time>
      </trkpt>
      <trkpt lat="48.41333" lon="-4.34971">
        <ele>86</ele>
        <time>2012-02-26T10:11:09.63</time>
      </trkpt>
      <trkpt lat="48.41337" lon="-4.34971">
        <ele>86</ele>
        <time>2012-02-26T10:11:10.64</time>
      </trkpt>
      <trkpt lat="48.41341" lon="-4.34971">
        <ele>86</ele>
        <time>2012-02-26T10:11:11.63</time>
      </trkpt>
      <trkpt lat="48.41347" lon="-4.34971">
        <ele>87</ele>
        <time>2012-02-26T10:11:12.63</time>
      </trkpt>
      <trkpt lat="48.41351" lon="-4.34968">
        <ele>87</ele>
        <time>2012-02-26T10:11:13.63</time>
      </trkpt>
      <trkpt lat="48.41355" lon="-4.34968">
        <ele>87</ele>
        <time>2012-02-26T10:11:14.64</time>
      </trkpt>
      <trkpt lat="48.4136" lon="-4.34966">
        <ele>87</ele>
        <time>2012-02-26T10:11:15.65</time>
      </trkpt>
      <trkpt lat="48.41365" lon="-4.34964">
        <ele>87</ele>
        <time>2012-02-26T10:11:16.62</time>
      </trkpt>
      <trkpt lat="48.41369" lon="-4.34962">
        <ele>87</ele>
        <time>2012-02-26T10:11:17.63</time>
      </trkpt>
      <trkpt lat="48.41373" lon="-4.3496">
        <ele>87</ele>
        <time>2012-02-26T10:11:18.63</time>
      </trkpt>
      <trkpt lat="48.41378" lon="-4.34958">
        <ele>87</ele>
        <time>2012-02-26T10:11:19.63</time>
      </trkpt>
      <trkpt lat="48.41382" lon="-4.34956">
        <ele>87</ele>
        <time>2012-02-26T10:11:20.63</time>
      </trkpt>
      <trkpt lat="48.41386" lon="-4.34953">
        <ele>87</ele>
        <time>2012-02-26T10:11:21.63</time>
      </trkpt>
      <trkpt lat="48.4139" lon="-4.34951">
        <ele>87</ele>
        <time>2012-02-26T10:11:22.63</time>
      </trkpt>
      <trkpt lat="48.41396" lon="-4.34951">
        <ele>87</ele>
        <time>2012-02-26T10:11:23.63</time>
      </trkpt>
      <trkpt lat="48.414" lon="-4.34949">
        <ele>87</ele>
        <time>2012-02-26T10:11:24.63</time>
      </trkpt>
      <trkpt lat="48.41406" lon="-4.34949">
        <ele>87</ele>
        <time>2012-02-26T10:11:25.63</time>
      </trkpt>
      <trkpt lat="48.41411" lon="-4.34947">
        <ele>87</ele>
        <time>2012-02-26T10:11:26.63</time>
      </trkpt>
      <trkpt lat="48.41416" lon="-4.34947">
        <ele>87</ele>
        <time>2012-02-26T10:11:27.63</time>
      </trkpt>
      <trkpt lat="48.41422" lon="-4.34945">
        <ele>87</ele>
        <time>2012-02-26T10:11:28.63</time>
      </trkpt>
      <trkpt lat="48.41426" lon="-4.34943">
        <ele>87</ele>
        <time>2012-02-26T10:11:29.63</time>
      </trkpt>
      <trkpt lat="48.41431" lon="-4.34943">
        <ele>87</ele>
        <time>2012-02-26T10:11:30.63</time>
      </trkpt>
      <trkpt lat="48.41436" lon="-4.34941">
        <ele>87</ele>
        <time>2012-02-26T10:11:31.63</time>
      </trkpt>
      <trkpt lat="48.41441" lon="-4.34938">
        <ele>88</ele>
        <time>2012-02-26T10:11:32.63</time>
      </trkpt>
      <trkpt lat="48.41445" lon="-4.34938">
        <ele>88</ele>
        <time>2012-02-26T10:11:33.63</time>
      </trkpt>
      <trkpt lat="48.41449" lon="-4.34936">
        <ele>88</ele>
        <time>2012-02-26T10:11:34.63</time>
      </trkpt>
      <trkpt lat="48.41454" lon="-4.34934">
        <ele>89</ele>
        <time>2012-02-26T10:11:35.65</time>
      </trkpt>
      <trkpt lat="48.41458" lon="-4.34932">
        <ele>89</ele>
        <time>2012-02-26T10:11:36.63</time>
      </trkpt>
      <trkpt lat="48.41462" lon="-4.3493">
        <ele>89</ele>
        <time>2012-02-26T10:11:37.63</time>
      </trkpt>
      <trkpt lat="48.41467" lon="-4.34928">
        <ele>90</ele>
        <time>2012-02-26T10:11:38.63</time>
      </trkpt>
      <trkpt lat="48.41471" lon="-4.34928">
        <ele>90</ele>
        <time>2012-02-26T10:11:39.63</time>
      </trkpt>
      <trkpt lat="48.41475" lon="-4.34926">
        <ele>90</ele>
        <time>2012-02-26T10:11:40.63</time>
      </trkpt>
      <trkpt lat="48.4148" lon="-4.34923">
        <ele>90</ele>
        <time>2012-02-26T10:11:41.64</time>
      </trkpt>
      <trkpt lat="48.41483" lon="-4.34921">
        <ele>91</ele>
        <time>2012-02-26T10:11:42.63</time>
      </trkpt>
      <trkpt lat="48.41487" lon="-4.34919">
        <ele>91</ele>
        <time>2012-02-26T10:11:43.63</time>
      </trkpt>
      <trkpt lat="48.41491" lon="-4.34919">
        <ele>91</ele>
        <time>2012-02-26T10:11:44.64</time>
      </trkpt>
      <trkpt lat="48.41495" lon="-4.34917">
        <ele>91</ele>
        <time>2012-02-26T10:11:45.64</time>
      </trkpt>
      <trkpt lat="48.41498" lon="-4.34915">
        <ele>92</ele>
        <time>2012-02-26T10:11:46.63</time>
      </trkpt>
      <trkpt lat="48.41501" lon="-4.34911">
        <ele>92</ele>
        <time>2012-02-26T10:11:47.63</time>
      </trkpt>
      <trkpt lat="48.41503" lon="-4.34908">
        <ele>92</ele>
        <time>2012-02-26T10:11:48.65</time>
      </trkpt>
      <trkpt lat="48.41505" lon="-4.34904">
        <ele>92</ele>
        <time>2012-02-26T10:11:49.63</time>
      </trkpt>
      <trkpt lat="48.41509" lon="-4.349">
        <ele>92</ele>
        <time>2012-02-26T10:11:50.63</time>
      </trkpt>
      <trkpt lat="48.41511" lon="-4.34898">
        <ele>92</ele>
        <time>2012-02-26T10:11:51.63</time>
      </trkpt>
      <trkpt lat="48.41513" lon="-4.34893">
        <ele>92</ele>
        <time>2012-02-26T10:11:52.63</time>
      </trkpt>
      <trkpt lat="48.41516" lon="-4.34891">
        <ele>92</ele>
        <time>2012-02-26T10:11:53.63</time>
      </trkpt>
      <trkpt lat="48.41518" lon="-4.34887">
        <ele>92</ele>
        <time>2012-02-26T10:11:54.63</time>
      </trkpt>
      <trkpt lat="48.4152" lon="-4.34883">
        <ele>92</ele>
        <time>2012-02-26T10:11:55.63</time>
      </trkpt>
      <trkpt lat="48.41522" lon="-4.3488">
        <ele>92</ele>
        <time>2012-02-26T10:11:56.63</time>
      </trkpt>
      <trkpt lat="48.41525" lon="-4.34876">
        <ele>92</ele>
        <time>2012-02-26T10:11:57.63</time>
      </trkpt>
      <trkpt lat="48.41527" lon="-4.34872">
        <ele>92</ele>
        <time>2012-02-26T10:11:58.63</time>
      </trkpt>
      <trkpt lat="48.4153" lon="-4.34868">
        <ele>92</ele>
        <time>2012-02-26T10:11:59.63</time>
      </trkpt>
      <trkpt lat="48.41532" lon="-4.34863">
        <ele>92</ele>
        <time>2012-02-26T10:12:00.63</time>
      </trkpt>
      <trkpt lat="48.41534" lon="-4.34859">
        <ele>92</ele>
        <time>2012-02-26T10:12:01.63</time>
      </trkpt>
      <trkpt lat="48.41536" lon="-4.34855">
        <ele>92</ele>
        <time>2012-02-26T10:12:02.63</time>
      </trkpt>
      <trkpt lat="48.41539" lon="-4.3485">
        <ele>92</ele>
        <time>2012-02-26T10:12:03.63</time>
      </trkpt>
      <trkpt lat="48.41542" lon="-4.34848">
        <ele>93</ele>
        <time>2012-02-26T10:12:04.63</time>
      </trkpt>
      <trkpt lat="48.41544" lon="-4.34844">
        <ele>93</ele>
        <time>2012-02-26T10:12:05.63</time>
      </trkpt>
      <trkpt lat="48.41546" lon="-4.3484">
        <ele>93</ele>
        <time>2012-02-26T10:12:06.63</time>
      </trkpt>
      <trkpt lat="48.41549" lon="-4.34835">
        <ele>94</ele>
        <time>2012-02-26T10:12:07.63</time>
      </trkpt>
      <trkpt lat="48.41551" lon="-4.34831">
        <ele>94</ele>
        <time>2012-02-26T10:12:08.63</time>
      </trkpt>
      <trkpt lat="48.41555" lon="-4.34827">
        <ele>95</ele>
        <time>2012-02-26T10:12:09.64</time>
      </trkpt>
      <trkpt lat="48.41557" lon="-4.34823">
        <ele>95</ele>
        <time>2012-02-26T10:12:10.63</time>
      </trkpt>
      <trkpt lat="48.4156" lon="-4.34818">
        <ele>95</ele>
        <time>2012-02-26T10:12:11.63</time>
      </trkpt>
      <trkpt lat="48.41562" lon="-4.34814">
        <ele>96</ele>
        <time>2012-02-26T10:12:12.63</time>
      </trkpt>
      <trkpt lat="48.41565" lon="-4.3481">
        <ele>96</ele>
        <time>2012-02-26T10:12:13.63</time>
      </trkpt>
      <trkpt lat="48.41568" lon="-4.34805">
        <ele>96</ele>
        <time>2012-02-26T10:12:14.63</time>
      </trkpt>
      <trkpt lat="48.41571" lon="-4.34801">
        <ele>96</ele>
        <time>2012-02-26T10:12:15.63</time>
      </trkpt>
      <trkpt lat="48.41573" lon="-4.34797">
        <ele>96</ele>
        <time>2012-02-26T10:12:16.64</time>
      </trkpt>
      <trkpt lat="48.41575" lon="-4.34793">
        <ele>96</ele>
        <time>2012-02-26T10:12:17.63</time>
      </trkpt>
      <trkpt lat="48.41578" lon="-4.34788">
        <ele>96</ele>
        <time>2012-02-26T10:12:18.63</time>
      </trkpt>
      <trkpt lat="48.4158" lon="-4.34784">
        <ele>96</ele>
        <time>2012-02-26T10:12:19.63</time>
      </trkpt>
      <trkpt lat="48.41583" lon="-4.3478">
        <ele>96</ele>
        <time>2012-02-26T10:12:20.63</time>
      </trkpt>
      <trkpt lat="48.41586" lon="-4.34775">
        <ele>97</ele>
        <time>2012-02-26T10:12:21.64</time>
      </trkpt>
      <trkpt lat="48.41588" lon="-4.34771">
        <ele>97</ele>
        <time>2012-02-26T10:12:22.63</time>
      </trkpt>
      <trkpt lat="48.41591" lon="-4.34767">
        <ele>97</ele>
        <time>2012-02-26T10:12:23.64</time>
      </trkpt>
      <trkpt lat="48.41593" lon="-4.34762">
        <ele>97</ele>
        <time>2012-02-26T10:12:24.64</time>
      </trkpt>
      <trkpt lat="48.41596" lon="-4.34758">
        <ele>97</ele>
        <time>2012-02-26T10:12:25.64</time>
      </trkpt>
      <trkpt lat="48.41599" lon="-4.34754">
        <ele>97</ele>
        <time>2012-02-26T10:12:26.63</time>
      </trkpt>
      <trkpt lat="48.41601" lon="-4.3475">
        <ele>97</ele>
        <time>2012-02-26T10:12:27.63</time>
      </trkpt>
      <trkpt lat="48.41604" lon="-4.34743">
        <ele>97</ele>
        <time>2012-02-26T10:12:28.63</time>
      </trkpt>
      <trkpt lat="48.41607" lon="-4.34739">
        <ele>97</ele>
        <time>2012-02-26T10:12:29.63</time>
      </trkpt>
      <trkpt lat="48.41609" lon="-4.34735">
        <ele>97</ele>
        <time>2012-02-26T10:12:30.63</time>
      </trkpt>
      <trkpt lat="48.41614" lon="-4.34728">
        <ele>97</ele>
        <time>2012-02-26T10:12:31.64</time>
      </trkpt>
      <trkpt lat="48.41617" lon="-4.34724">
        <ele>97</ele>
        <time>2012-02-26T10:12:32.63</time>
      </trkpt>
      <trkpt lat="48.4162" lon="-4.34717">
        <ele>97</ele>
        <time>2012-02-26T10:12:33.63</time>
      </trkpt>
      <trkpt lat="48.41623" lon="-4.34711">
        <ele>97</ele>
        <time>2012-02-26T10:12:34.64</time>
      </trkpt>
      <trkpt lat="48.41627" lon="-4.34705">
        <ele>97</ele>
        <time>2012-02-26T10:12:35.64</time>
      </trkpt>
      <trkpt lat="48.4163" lon="-4.34698">
        <ele>98</ele>
        <time>2012-02-26T10:12:36.64</time>
      </trkpt>
      <trkpt lat="48.41634" lon="-4.34692">
        <ele>98</ele>
        <time>2012-02-26T10:12:37.64</time>
      </trkpt>
      <trkpt lat="48.41637" lon="-4.34685">
        <ele>98</ele>
        <time>2012-02-26T10:12:38.64</time>
      </trkpt>
      <trkpt lat="48.4164" lon="-4.34679">
        <ele>98</ele>
        <time>2012-02-26T10:12:39.64</time>
      </trkpt>
      <trkpt lat="48.41645" lon="-4.34672">
        <ele>98</ele>
        <time>2012-02-26T10:12:40.64</time>
      </trkpt>
      <trkpt lat="48.41649" lon="-4.34666">
        <ele>98</ele>
        <time>2012-02-26T10:12:41.64</time>
      </trkpt>
      <trkpt lat="48.41652" lon="-4.34657">
        <ele>98</ele>
        <time>2012-02-26T10:12:42.64</time>
      </trkpt>
      <trkpt lat="48.41657" lon="-4.34651">
        <ele>98</ele>
        <time>2012-02-26T10:12:43.64</time>
      </trkpt>
      <trkpt lat="48.4166" lon="-4.34642">
        <ele>98</ele>
        <time>2012-02-26T10:12:44.64</time>
      </trkpt>
      <trkpt lat="48.41663" lon="-4.34634">
        <ele>98</ele>
        <time>2012-02-26T10:12:45.64</time>
      </trkpt>
      <trkpt lat="48.41667" lon="-4.34625">
        <ele>98</ele>
        <time>2012-02-26T10:12:46.64</time>
      </trkpt>
      <trkpt lat="48.41671" lon="-4.34617">
        <ele>98</ele>
        <time>2012-02-26T10:12:47.64</time>
      </trkpt>
      <trkpt lat="48.41674" lon="-4.34608">
        <ele>98</ele>
        <time>2012-02-26T10:12:48.64</time>
      </trkpt>
      <trkpt lat="48.41677" lon="-4.34599">
        <ele>98</ele>
        <time>2012-02-26T10:12:49.64</time>
      </trkpt>
      <trkpt lat="48.4168" lon="-4.34591">
        <ele>98</ele>
        <time>2012-02-26T10:12:50.64</time>
      </trkpt>
      <trkpt lat="48.41683" lon="-4.3458">
        <ele>97</ele>
        <time>2012-02-26T10:12:51.64</time>
      </trkpt>
      <trkpt lat="48.41688" lon="-4.34572">
        <ele>97</ele>
        <time>2012-02-26T10:12:52.64</time>
      </trkpt>
      <trkpt lat="48.41691" lon="-4.34561">
        <ele>97</ele>
        <time>2012-02-26T10:12:53.64</time>
      </trkpt>
      <trkpt lat="48.41694" lon="-4.3455">
        <ele>97</ele>
        <time>2012-02-26T10:12:54.64</time>
      </trkpt>
      <trkpt lat="48.41698" lon="-4.34539">
        <ele>97</ele>
        <time>2012-02-26T10:12:55.64</time>
      </trkpt>
      <trkpt lat="48.41702" lon="-4.34531">
        <ele>97</ele>
        <time>2012-02-26T10:12:56.64</time>
      </trkpt>
      <trkpt lat="48.41706" lon="-4.3452">
        <ele>97</ele>
        <time>2012-02-26T10:12:57.64</time>
      </trkpt>
      <trkpt lat="48.4171" lon="-4.34509">
        <ele>97</ele>
        <time>2012-02-26T10:12:58.63</time>
      </trkpt>
      <trkpt lat="48.41715" lon="-4.34499">
        <ele>97</ele>
        <time>2012-02-26T10:12:59.64</time>
      </trkpt>
      <trkpt lat="48.41719" lon="-4.3449">
        <ele>96</ele>
        <time>2012-02-26T10:13:00.63</time>
      </trkpt>
      <trkpt lat="48.41721" lon="-4.34481">
        <ele>96</ele>
        <time>2012-02-26T10:13:01.64</time>
      </trkpt>
      <trkpt lat="48.41724" lon="-4.34473">
        <ele>96</ele>
        <time>2012-02-26T10:13:02.73</time>
      </trkpt>
      <trkpt lat="48.41727" lon="-4.34464">
        <ele>96</ele>
        <time>2012-02-26T10:13:03.64</time>
      </trkpt>
      <trkpt lat="48.4173" lon="-4.34456">
        <ele>96</ele>
        <time>2012-02-26T10:13:04.63</time>
      </trkpt>
      <trkpt lat="48.41733" lon="-4.34449">
        <ele>96</ele>
        <time>2012-02-26T10:13:05.63</time>
      </trkpt>
      <trkpt lat="48.41735" lon="-4.34441">
        <ele>96</ele>
        <time>2012-02-26T10:13:06.63</time>
      </trkpt>
      <trkpt lat="48.41737" lon="-4.34432">
        <ele>96</ele>
        <time>2012-02-26T10:13:07.64</time>
      </trkpt>
      <trkpt lat="48.4174" lon="-4.34423">
        <ele>96</ele>
        <time>2012-02-26T10:13:08.63</time>
      </trkpt>
      <trkpt lat="48.41742" lon="-4.34417">
        <ele>96</ele>
        <time>2012-02-26T10:13:09.64</time>
      </trkpt>
      <trkpt lat="48.41745" lon="-4.34408">
        <ele>96</ele>
        <time>2012-02-26T10:13:10.63</time>
      </trkpt>
      <trkpt lat="48.41748" lon="-4.34402">
        <ele>96</ele>
        <time>2012-02-26T10:13:11.63</time>
      </trkpt>
      <trkpt lat="48.4175" lon="-4.34393">
        <ele>96</ele>
        <time>2012-02-26T10:13:12.63</time>
      </trkpt>
      <trkpt lat="48.41752" lon="-4.34385">
        <ele>96</ele>
        <time>2012-02-26T10:13:13.64</time>
      </trkpt>
      <trkpt lat="48.41755" lon="-4.34378">
        <ele>96</ele>
        <time>2012-02-26T10:13:14.65</time>
      </trkpt>
      <trkpt lat="48.41757" lon="-4.3437">
        <ele>95</ele>
        <time>2012-02-26T10:13:15.64</time>
      </trkpt>
      <trkpt lat="48.41761" lon="-4.34363">
        <ele>95</ele>
        <time>2012-02-26T10:13:16.64</time>
      </trkpt>
      <trkpt lat="48.41763" lon="-4.34355">
        <ele>95</ele>
        <time>2012-02-26T10:13:17.64</time>
      </trkpt>
      <trkpt lat="48.41766" lon="-4.34346">
        <ele>95</ele>
        <time>2012-02-26T10:13:18.64</time>
      </trkpt>
      <trkpt lat="48.41768" lon="-4.3434">
        <ele>95</ele>
        <time>2012-02-26T10:13:19.64</time>
      </trkpt>
      <trkpt lat="48.41771" lon="-4.34331">
        <ele>95</ele>
        <time>2012-02-26T10:13:20.64</time>
      </trkpt>
      <trkpt lat="48.41774" lon="-4.34323">
        <ele>95</ele>
        <time>2012-02-26T10:13:21.64</time>
      </trkpt>
      <trkpt lat="48.41777" lon="-4.34316">
        <ele>95</ele>
        <time>2012-02-26T10:13:22.63</time>
      </trkpt>
      <trkpt lat="48.41779" lon="-4.34308">
        <ele>95</ele>
        <time>2012-02-26T10:13:23.63</time>
      </trkpt>
      <trkpt lat="48.41782" lon="-4.34299">
        <ele>94</ele>
        <time>2012-02-26T10:13:24.64</time>
      </trkpt>
      <trkpt lat="48.41784" lon="-4.3429">
        <ele>94</ele>
        <time>2012-02-26T10:13:25.64</time>
      </trkpt>
      <trkpt lat="48.41787" lon="-4.34284">
        <ele>94</ele>
        <time>2012-02-26T10:13:26.64</time>
      </trkpt>
      <trkpt lat="48.4179" lon="-4.34275">
        <ele>94</ele>
        <time>2012-02-26T10:13:27.64</time>
      </trkpt>
      <trkpt lat="48.41793" lon="-4.34269">
        <ele>94</ele>
        <time>2012-02-26T10:13:28.64</time>
      </trkpt>
      <trkpt lat="48.41795" lon="-4.3426">
        <ele>94</ele>
        <time>2012-02-26T10:13:29.63</time>
      </trkpt>
      <trkpt lat="48.41798" lon="-4.34252">
        <ele>94</ele>
        <time>2012-02-26T10:13:30.64</time>
      </trkpt>
      <trkpt lat="48.418" lon="-4.34245">
        <ele>94</ele>
        <time>2012-02-26T10:13:31.64</time>
      </trkpt>
      <trkpt lat="48.41804" lon="-4.34237">
        <ele>94</ele>
        <time>2012-02-26T10:13:32.64</time>
      </trkpt>
      <trkpt lat="48.41806" lon="-4.34228">
        <ele>94</ele>
        <time>2012-02-26T10:13:33.64</time>
      </trkpt>
      <trkpt lat="48.41809" lon="-4.34222">
        <ele>93</ele>
        <time>2012-02-26T10:13:34.64</time>
      </trkpt>
      <trkpt lat="48.41811" lon="-4.34215">
        <ele>93</ele>
        <time>2012-02-26T10:13:35.64</time>
      </trkpt>
      <trkpt lat="48.41813" lon="-4.34207">
        <ele>93</ele>
        <time>2012-02-26T10:13:36.64</time>
      </trkpt>
      <trkpt lat="48.41816" lon="-4.342">
        <ele>93</ele>
        <time>2012-02-26T10:13:37.64</time>
      </trkpt>
      <trkpt lat="48.41819" lon="-4.34194">
        <ele>93</ele>
        <time>2012-02-26T10:13:38.64</time>
      </trkpt>
      <trkpt lat="48.41822" lon="-4.34187">
        <ele>93</ele>
        <time>2012-02-26T10:13:39.64</time>
      </trkpt>
      <trkpt lat="48.41826" lon="-4.34185">
        <ele>93</ele>
        <time>2012-02-26T10:13:40.63</time>
      </trkpt>
      <trkpt lat="48.4183" lon="-4.34183">
        <ele>93</ele>
        <time>2012-02-26T10:13:41.64</time>
      </trkpt>
      <trkpt lat="48.41835" lon="-4.34183">
        <ele>92</ele>
        <time>2012-02-26T10:13:42.64</time>
      </trkpt>
      <trkpt lat="48.41839" lon="-4.34185">
        <ele>92</ele>
        <time>2012-02-26T10:13:43.65</time>
      </trkpt>
      <trkpt lat="48.41843" lon="-4.34187">
        <ele>92</ele>
        <time>2012-02-26T10:13:44.65</time>
      </trkpt>
      <trkpt lat="48.41846" lon="-4.3419">
        <ele>92</ele>
        <time>2012-02-26T10:13:45.64</time>
      </trkpt>
      <trkpt lat="48.4185" lon="-4.34194">
        <ele>92</ele>
        <time>2012-02-26T10:13:46.68</time>
      </trkpt>
      <trkpt lat="48.41854" lon="-4.34198">
        <ele>92</ele>
        <time>2012-02-26T10:13:47.66</time>
      </trkpt>
      <trkpt lat="48.41857" lon="-4.34202">
        <ele>92</ele>
        <time>2012-02-26T10:13:48.64</time>
      </trkpt>
      <trkpt lat="48.41861" lon="-4.34205">
        <ele>92</ele>
        <time>2012-02-26T10:13:49.64</time>
      </trkpt>
      <trkpt lat="48.41865" lon="-4.34209">
        <ele>92</ele>
        <time>2012-02-26T10:13:50.65</time>
      </trkpt>
      <trkpt lat="48.41868" lon="-4.34213">
        <ele>93</ele>
        <time>2012-02-26T10:13:51.64</time>
      </trkpt>
      <trkpt lat="48.41871" lon="-4.34215">
        <ele>93</ele>
        <time>2012-02-26T10:13:52.64</time>
      </trkpt>
      <trkpt lat="48.41874" lon="-4.3422">
        <ele>93</ele>
        <time>2012-02-26T10:13:53.63</time>
      </trkpt>
      <trkpt lat="48.41878" lon="-4.34222">
        <ele>93</ele>
        <time>2012-02-26T10:13:54.64</time>
      </trkpt>
      <trkpt lat="48.4188" lon="-4.34226">
        <ele>93</ele>
        <time>2012-02-26T10:13:55.64</time>
      </trkpt>
      <trkpt lat="48.41883" lon="-4.34228">
        <ele>93</ele>
        <time>2012-02-26T10:13:56.65</time>
      </trkpt>
      <trkpt lat="48.41886" lon="-4.34232">
        <ele>93</ele>
        <time>2012-02-26T10:13:57.64</time>
      </trkpt>
      <trkpt lat="48.41889" lon="-4.34235">
        <ele>93</ele>
        <time>2012-02-26T10:13:58.64</time>
      </trkpt>
      <trkpt lat="48.41892" lon="-4.34239">
        <ele>93</ele>
        <time>2012-02-26T10:13:59.65</time>
      </trkpt>
      <trkpt lat="48.41894" lon="-4.34241">
        <ele>93</ele>
        <time>2012-02-26T10:14:00.63</time>
      </trkpt>
      <trkpt lat="48.41897" lon="-4.34245">
        <ele>93</ele>
        <time>2012-02-26T10:14:01.64</time>
      </trkpt>
      <trkpt lat="48.41899" lon="-4.34247">
        <ele>93</ele>
        <time>2012-02-26T10:14:02.70</time>
      </trkpt>
      <trkpt lat="48.41902" lon="-4.3425">
        <ele>93</ele>
        <time>2012-02-26T10:14:03.63</time>
      </trkpt>
      <trkpt lat="48.41904" lon="-4.34254">
        <ele>93</ele>
        <time>2012-02-26T10:14:04.64</time>
      </trkpt>
      <trkpt lat="48.41908" lon="-4.34258">
        <ele>93</ele>
        <time>2012-02-26T10:14:05.65</time>
      </trkpt>
      <trkpt lat="48.41911" lon="-4.3426">
        <ele>93</ele>
        <time>2012-02-26T10:14:06.63</time>
      </trkpt>
      <trkpt lat="48.41914" lon="-4.34265">
        <ele>93</ele>
        <time>2012-02-26T10:14:07.64</time>
      </trkpt>
      <trkpt lat="48.41916" lon="-4.34269">
        <ele>93</ele>
        <time>2012-02-26T10:14:08.64</time>
      </trkpt>
      <trkpt lat="48.41919" lon="-4.34273">
        <ele>94</ele>
        <time>2012-02-26T10:14:09.64</time>
      </trkpt>
      <trkpt lat="48.41923" lon="-4.34278">
        <ele>95</ele>
        <time>2012-02-26T10:14:10.64</time>
      </trkpt>
      <trkpt lat="48.41926" lon="-4.34282">
        <ele>96</ele>
        <time>2012-02-26T10:14:11.64</time>
      </trkpt>
      <trkpt lat="48.41929" lon="-4.34286">
        <ele>96</ele>
        <time>2012-02-26T10:14:12.64</time>
      </trkpt>
      <trkpt lat="48.41932" lon="-4.3429">
        <ele>97</ele>
        <time>2012-02-26T10:14:13.64</time>
      </trkpt>
      <trkpt lat="48.41936" lon="-4.34295">
        <ele>97</ele>
        <time>2012-02-26T10:14:14.64</time>
      </trkpt>
      <trkpt lat="48.41938" lon="-4.34299">
        <ele>98</ele>
        <time>2012-02-26T10:14:15.64</time>
      </trkpt>
      <trkpt lat="48.41941" lon="-4.34303">
        <ele>98</ele>
        <time>2012-02-26T10:14:16.64</time>
      </trkpt>
      <trkpt lat="48.41944" lon="-4.34308">
        <ele>99</ele>
        <time>2012-02-26T10:14:17.64</time>
      </trkpt>
      <trkpt lat="48.41947" lon="-4.34312">
        <ele>99</ele>
        <time>2012-02-26T10:14:18.64</time>
      </trkpt>
      <trkpt lat="48.41951" lon="-4.34316">
        <ele>99</ele>
        <time>2012-02-26T10:14:19.64</time>
      </trkpt>
      <trkpt lat="48.41955" lon="-4.3432">
        <ele>100</ele>
        <time>2012-02-26T10:14:20.64</time>
      </trkpt>
      <trkpt lat="48.41958" lon="-4.34325">
        <ele>100</ele>
        <time>2012-02-26T10:14:21.64</time>
      </trkpt>
      <trkpt lat="48.41961" lon="-4.34329">
        <ele>101</ele>
        <time>2012-02-26T10:14:22.64</time>
      </trkpt>
      <trkpt lat="48.41964" lon="-4.34333">
        <ele>101</ele>
        <time>2012-02-26T10:14:23.64</time>
      </trkpt>
      <trkpt lat="48.41968" lon="-4.34338">
        <ele>101</ele>
        <time>2012-02-26T10:14:24.64</time>
      </trkpt>
      <trkpt lat="48.41971" lon="-4.34342">
        <ele>101</ele>
        <time>2012-02-26T10:14:25.63</time>
      </trkpt>
      <trkpt lat="48.41974" lon="-4.34346">
        <ele>102</ele>
        <time>2012-02-26T10:14:26.64</time>
      </trkpt>
      <trkpt lat="48.41977" lon="-4.3435">
        <ele>102</ele>
        <time>2012-02-26T10:14:27.64</time>
      </trkpt>
      <trkpt lat="48.41981" lon="-4.34357">
        <ele>102</ele>
        <time>2012-02-26T10:14:28.64</time>
      </trkpt>
      <trkpt lat="48.41984" lon="-4.34361">
        <ele>102</ele>
        <time>2012-02-26T10:14:29.64</time>
      </trkpt>
      <trkpt lat="48.41987" lon="-4.34366">
        <ele>103</ele>
        <time>2012-02-26T10:14:30.64</time>
      </trkpt>
      <trkpt lat="48.4199" lon="-4.3437">
        <ele>103</ele>
        <time>2012-02-26T10:14:31.64</time>
      </trkpt>
      <trkpt lat="48.41992" lon="-4.34374">
        <ele>103</ele>
        <time>2012-02-26T10:14:32.64</time>
      </trkpt>
      <trkpt lat="48.41996" lon="-4.34378">
        <ele>103</ele>
        <time>2012-02-26T10:14:33.64</time>
      </trkpt>
      <trkpt lat="48.41998" lon="-4.34381">
        <ele>103</ele>
        <time>2012-02-26T10:14:34.64</time>
      </trkpt>
      <trkpt lat="48.42" lon="-4.34385">
        <ele>104</ele>
        <time>2012-02-26T10:14:35.64</time>
      </trkpt>
      <trkpt lat="48.42002" lon="-4.34387">
        <ele>104</ele>
        <time>2012-02-26T10:14:36.64</time>
      </trkpt>
      <trkpt lat="48.42003" lon="-4.34389">
        <ele>104</ele>
        <time>2012-02-26T10:14:37.64</time>
      </trkpt>
      <trkpt lat="48.42005" lon="-4.34393">
        <ele>104</ele>
        <time>2012-02-26T10:14:38.64</time>
      </trkpt>
      <trkpt lat="48.42007" lon="-4.34396">
        <ele>104</ele>
        <time>2012-02-26T10:14:39.64</time>
      </trkpt>
      <trkpt lat="48.42008" lon="-4.34398">
        <ele>104</ele>
        <time>2012-02-26T10:14:40.64</time>
      </trkpt>
      <trkpt lat="48.42011" lon="-4.344">
        <ele>104</ele>
        <time>2012-02-26T10:14:41.64</time>
      </trkpt>
      <trkpt lat="48.42013" lon="-4.34402">
        <ele>104</ele>
        <time>2012-02-26T10:14:42.64</time>
      </trkpt>
      <trkpt lat="48.42015" lon="-4.34406">
        <ele>104</ele>
        <time>2012-02-26T10:14:43.64</time>
      </trkpt>
      <trkpt lat="48.42017" lon="-4.34408">
        <ele>104</ele>
        <time>2012-02-26T10:14:44.64</time>
      </trkpt>
      <trkpt lat="48.42019" lon="-4.34411">
        <ele>105</ele>
        <time>2012-02-26T10:14:45.64</time>
      </trkpt>
      <trkpt lat="48.42021" lon="-4.34415">
        <ele>105</ele>
        <time>2012-02-26T10:14:46.64</time>
      </trkpt>
      <trkpt lat="48.42025" lon="-4.34417">
        <ele>105</ele>
        <time>2012-02-26T10:14:47.64</time>
      </trkpt>
      <trkpt lat="48.42027" lon="-4.34421">
        <ele>105</ele>
        <time>2012-02-26T10:14:48.64</time>
      </trkpt>
      <trkpt lat="48.42029" lon="-4.34423">
        <ele>105</ele>
        <time>2012-02-26T10:14:49.64</time>
      </trkpt>
      <trkpt lat="48.42032" lon="-4.34428">
        <ele>105</ele>
        <time>2012-02-26T10:14:50.64</time>
      </trkpt>
      <trkpt lat="48.42034" lon="-4.3443">
        <ele>105</ele>
        <time>2012-02-26T10:14:51.64</time>
      </trkpt>
      <trkpt lat="48.42037" lon="-4.34434">
        <ele>105</ele>
        <time>2012-02-26T10:14:52.64</time>
      </trkpt>
      <trkpt lat="48.4204" lon="-4.34436">
        <ele>105</ele>
        <time>2012-02-26T10:14:53.64</time>
      </trkpt>
      <trkpt lat="48.42042" lon="-4.34441">
        <ele>105</ele>
        <time>2012-02-26T10:14:54.64</time>
      </trkpt>
      <trkpt lat="48.42045" lon="-4.34443">
        <ele>106</ele>
        <time>2012-02-26T10:14:55.64</time>
      </trkpt>
      <trkpt lat="48.42047" lon="-4.34447">
        <ele>106</ele>
        <time>2012-02-26T10:14:56.64</time>
      </trkpt>
      <trkpt lat="48.42049" lon="-4.34449">
        <ele>106</ele>
        <time>2012-02-26T10:14:57.64</time>
      </trkpt>
      <trkpt lat="48.42051" lon="-4.34453">
        <ele>106</ele>
        <time>2012-02-26T10:14:58.64</time>
      </trkpt>
      <trkpt lat="48.42054" lon="-4.34456">
        <ele>106</ele>
        <time>2012-02-26T10:14:59.64</time>
      </trkpt>
      <trkpt lat="48.42057" lon="-4.3446">
        <ele>106</ele>
        <time>2012-02-26T10:15:00.64</time>
      </trkpt>
      <trkpt lat="48.42059" lon="-4.34462">
        <ele>106</ele>
        <time>2012-02-26T10:15:01.64</time>
      </trkpt>
      <trkpt lat="48.42061" lon="-4.34466">
        <ele>107</ele>
        <time>2012-02-26T10:15:02.64</time>
      </trkpt>
      <trkpt lat="48.42064" lon="-4.34469">
        <ele>107</ele>
        <time>2012-02-26T10:15:03.64</time>
      </trkpt>
      <trkpt lat="48.42066" lon="-4.34473">
        <ele>107</ele>
        <time>2012-02-26T10:15:04.64</time>
      </trkpt>
      <trkpt lat="48.4207" lon="-4.34475">
        <ele>107</ele>
        <time>2012-02-26T10:15:05.64</time>
      </trkpt>
      <trkpt lat="48.42072" lon="-4.34479">
        <ele>107</ele>
        <time>2012-02-26T10:15:06.64</time>
      </trkpt>
      <trkpt lat="48.42075" lon="-4.34481">
        <ele>107</ele>
        <time>2012-02-26T10:15:07.64</time>
      </trkpt>
      <trkpt lat="48.42077" lon="-4.34486">
        <ele>108</ele>
        <time>2012-02-26T10:15:08.64</time>
      </trkpt>
      <trkpt lat="48.4208" lon="-4.34488">
        <ele>108</ele>
        <time>2012-02-26T10:15:09.64</time>
      </trkpt>
      <trkpt lat="48.42083" lon="-4.34492">
        <ele>108</ele>
        <time>2012-02-26T10:15:10.64</time>
      </trkpt>
      <trkpt lat="48.42085" lon="-4.34494">
        <ele>108</ele>
        <time>2012-02-26T10:15:11.65</time>
      </trkpt>
      <trkpt lat="48.42087" lon="-4.34496">
        <ele>108</ele>
        <time>2012-02-26T10:15:12.65</time>
      </trkpt>
      <trkpt lat="48.4209" lon="-4.34501">
        <ele>108</ele>
        <time>2012-02-26T10:15:13.64</time>
      </trkpt>
      <trkpt lat="48.42092" lon="-4.34503">
        <ele>108</ele>
        <time>2012-02-26T10:15:14.65</time>
      </trkpt>
      <trkpt lat="48.42094" lon="-4.34507">
        <ele>109</ele>
        <time>2012-02-26T10:15:15.65</time>
      </trkpt>
      <trkpt lat="48.42098" lon="-4.34509">
        <ele>109</ele>
        <time>2012-02-26T10:15:16.64</time>
      </trkpt>
      <trkpt lat="48.421" lon="-4.34514">
        <ele>109</ele>
        <time>2012-02-26T10:15:17.65</time>
      </trkpt>
      <trkpt lat="48.42103" lon="-4.34516">
        <ele>109</ele>
        <time>2012-02-26T10:15:18.65</time>
      </trkpt>
      <trkpt lat="48.42105" lon="-4.34518">
        <ele>109</ele>
        <time>2012-02-26T10:15:19.64</time>
      </trkpt>
      <trkpt lat="48.42108" lon="-4.3452">
        <ele>109</ele>
        <time>2012-02-26T10:15:20.65</time>
      </trkpt>
      <trkpt lat="48.4211" lon="-4.34522">
        <ele>109</ele>
        <time>2012-02-26T10:15:21.64</time>
      </trkpt>
      <trkpt lat="48.42113" lon="-4.34526">
        <ele>109</ele>
        <time>2012-02-26T10:15:22.64</time>
      </trkpt>
      <trkpt lat="48.42116" lon="-4.34529">
        <ele>110</ele>
        <time>2012-02-26T10:15:23.64</time>
      </trkpt>
      <trkpt lat="48.42118" lon="-4.34531">
        <ele>110</ele>
        <time>2012-02-26T10:15:24.64</time>
      </trkpt>
      <trkpt lat="48.42121" lon="-4.34535">
        <ele>110</ele>
        <time>2012-02-26T10:15:25.64</time>
      </trkpt>
      <trkpt lat="48.42124" lon="-4.34537">
        <ele>110</ele>
        <time>2012-02-26T10:15:26.64</time>
      </trkpt>
      <trkpt lat="48.42128" lon="-4.34541">
        <ele>110</ele>
        <time>2012-02-26T10:15:27.65</time>
      </trkpt>
      <trkpt lat="48.4213" lon="-4.34544">
        <ele>110</ele>
        <time>2012-02-26T10:15:28.64</time>
      </trkpt>
      <trkpt lat="48.42133" lon="-4.34546">
        <ele>110</ele>
        <time>2012-02-26T10:15:29.64</time>
      </trkpt>
      <trkpt lat="48.42136" lon="-4.3455">
        <ele>110</ele>
        <time>2012-02-26T10:15:30.65</time>
      </trkpt>
      <trkpt lat="48.42139" lon="-4.34552">
        <ele>111</ele>
        <time>2012-02-26T10:15:31.66</time>
      </trkpt>
      <trkpt lat="48.42143" lon="-4.34554">
        <ele>111</ele>
        <time>2012-02-26T10:15:32.64</time>
      </trkpt>
      <trkpt lat="48.42147" lon="-4.34559">
        <ele>111</ele>
        <time>2012-02-26T10:15:33.65</time>
      </trkpt>
      <trkpt lat="48.4215" lon="-4.34561">
        <ele>111</ele>
        <time>2012-02-26T10:15:34.69</time>
      </trkpt>
      <trkpt lat="48.42153" lon="-4.34563">
        <ele>111</ele>
        <time>2012-02-26T10:15:35.64</time>
      </trkpt>
      <trkpt lat="48.42157" lon="-4.34567">
        <ele>111</ele>
        <time>2012-02-26T10:15:36.65</time>
      </trkpt>
      <trkpt lat="48.4216" lon="-4.34569">
        <ele>111</ele>
        <time>2012-02-26T10:15:37.65</time>
      </trkpt>
      <trkpt lat="48.42163" lon="-4.34572">
        <ele>111</ele>
        <time>2012-02-26T10:15:38.64</time>
      </trkpt>
      <trkpt lat="48.42166" lon="-4.34574">
        <ele>112</ele>
        <time>2012-02-26T10:15:39.65</time>
      </trkpt>
      <trkpt lat="48.42169" lon="-4.34578">
        <ele>112</ele>
        <time>2012-02-26T10:15:40.65</time>
      </trkpt>
      <trkpt lat="48.42173" lon="-4.3458">
        <ele>112</ele>
        <time>2012-02-26T10:15:41.64</time>
      </trkpt>
      <trkpt lat="48.42176" lon="-4.34582">
        <ele>112</ele>
        <time>2012-02-26T10:15:42.65</time>
      </trkpt>
      <trkpt lat="48.42179" lon="-4.34584">
        <ele>112</ele>
        <time>2012-02-26T10:15:43.65</time>
      </trkpt>
      <trkpt lat="48.42183" lon="-4.34587">
        <ele>112</ele>
        <time>2012-02-26T10:15:44.64</time>
      </trkpt>
      <trkpt lat="48.42187" lon="-4.34589">
        <ele>112</ele>
        <time>2012-02-26T10:15:45.65</time>
      </trkpt>
      <trkpt lat="48.4219" lon="-4.34591">
        <ele>113</ele>
        <time>2012-02-26T10:15:46.65</time>
      </trkpt>
      <trkpt lat="48.42194" lon="-4.34593">
        <ele>113</ele>
        <time>2012-02-26T10:15:47.64</time>
      </trkpt>
      <trkpt lat="48.42197" lon="-4.34595">
        <ele>113</ele>
        <time>2012-02-26T10:15:48.64</time>
      </trkpt>
      <trkpt lat="48.42201" lon="-4.34599">
        <ele>113</ele>
        <time>2012-02-26T10:15:49.65</time>
      </trkpt>
      <trkpt lat="48.42204" lon="-4.34602">
        <ele>113</ele>
        <time>2012-02-26T10:15:50.64</time>
      </trkpt>
      <trkpt lat="48.42207" lon="-4.34606">
        <ele>113</ele>
        <time>2012-02-26T10:15:51.64</time>
      </trkpt>
      <trkpt lat="48.4221" lon="-4.34608">
        <ele>113</ele>
        <time>2012-02-26T10:15:52.65</time>
      </trkpt>
      <trkpt lat="48.42213" lon="-4.34612">
        <ele>114</ele>
        <time>2012-02-26T10:15:53.66</time>
      </trkpt>
      <trkpt lat="48.42217" lon="-4.34614">
        <ele>114</ele>
        <time>2012-02-26T10:15:54.64</time>
      </trkpt>
      <trkpt lat="48.4222" lon="-4.34619">
        <ele>114</ele>
        <time>2012-02-26T10:15:55.65</time>
      </trkpt>
      <trkpt lat="48.42223" lon="-4.34621">
        <ele>114</ele>
        <time>2012-02-26T10:15:56.66</time>
      </trkpt>
      <trkpt lat="48.42226" lon="-4.34625">
        <ele>114</ele>
        <time>2012-02-26T10:15:57.64</time>
      </trkpt>
      <trkpt lat="48.42228" lon="-4.34627">
        <ele>114</ele>
        <time>2012-02-26T10:15:58.65</time>
      </trkpt>
      <trkpt lat="48.42232" lon="-4.34632">
        <ele>114</ele>
        <time>2012-02-26T10:15:59.64</time>
      </trkpt>
      <trkpt lat="48.42235" lon="-4.34634">
        <ele>115</ele>
        <time>2012-02-26T10:16:00.64</time>
      </trkpt>
      <trkpt lat="48.42237" lon="-4.34638">
        <ele>115</ele>
        <time>2012-02-26T10:16:01.65</time>
      </trkpt>
      <trkpt lat="48.4224" lon="-4.3464">
        <ele>115</ele>
        <time>2012-02-26T10:16:02.71</time>
      </trkpt>
      <trkpt lat="48.42242" lon="-4.34642">
        <ele>115</ele>
        <time>2012-02-26T10:16:03.64</time>
      </trkpt>
      <trkpt lat="48.42246" lon="-4.34644">
        <ele>115</ele>
        <time>2012-02-26T10:16:04.65</time>
      </trkpt>
      <trkpt lat="48.42249" lon="-4.34647">
        <ele>115</ele>
        <time>2012-02-26T10:16:05.65</time>
      </trkpt>
      <trkpt lat="48.42252" lon="-4.34647">
        <ele>115</ele>
        <time>2012-02-26T10:16:06.64</time>
      </trkpt>
      <trkpt lat="48.42254" lon="-4.34649">
        <ele>116</ele>
        <time>2012-02-26T10:16:07.64</time>
      </trkpt>
      <trkpt lat="48.42256" lon="-4.34649">
        <ele>116</ele>
        <time>2012-02-26T10:16:08.64</time>
      </trkpt>
      <trkpt lat="48.42257" lon="-4.34651">
        <ele>116</ele>
        <time>2012-02-26T10:16:09.64</time>
      </trkpt>
      <trkpt lat="48.42265" lon="-4.34655">
        <ele>119</ele>
        <time>2012-02-26T10:16:16.64</time>
      </trkpt>
      <trkpt lat="48.42268" lon="-4.34657">
        <ele>119</ele>
        <time>2012-02-26T10:16:17.63</time>
      </trkpt>
      <trkpt lat="48.42271" lon="-4.34659">
        <ele>120</ele>
        <time>2012-02-26T10:16:18.63</time>
      </trkpt>
      <trkpt lat="48.42275" lon="-4.34662">
        <ele>120</ele>
        <time>2012-02-26T10:16:19.63</time>
      </trkpt>
      <trkpt lat="48.42277" lon="-4.34662">
        <ele>120</ele>
        <time>2012-02-26T10:16:20.64</time>
      </trkpt>
      <trkpt lat="48.42279" lon="-4.34664">
        <ele>120</ele>
        <time>2012-02-26T10:16:21.64</time>
      </trkpt>
      <trkpt lat="48.42282" lon="-4.34666">
        <ele>121</ele>
        <time>2012-02-26T10:16:22.66</time>
      </trkpt>
      <trkpt lat="48.42284" lon="-4.34668">
        <ele>121</ele>
        <time>2012-02-26T10:16:23.63</time>
      </trkpt>
      <trkpt lat="48.42286" lon="-4.34668">
        <ele>121</ele>
        <time>2012-02-26T10:16:24.63</time>
      </trkpt>
      <trkpt lat="48.42288" lon="-4.3467">
        <ele>121</ele>
        <time>2012-02-26T10:16:25.63</time>
      </trkpt>
      <trkpt lat="48.42292" lon="-4.34672">
        <ele>122</ele>
        <time>2012-02-26T10:16:26.63</time>
      </trkpt>
      <trkpt lat="48.42294" lon="-4.34672">
        <ele>122</ele>
        <time>2012-02-26T10:16:27.63</time>
      </trkpt>
      <trkpt lat="48.42297" lon="-4.34675">
        <ele>122</ele>
        <time>2012-02-26T10:16:28.63</time>
      </trkpt>
      <trkpt lat="48.42299" lon="-4.34675">
        <ele>122</ele>
        <time>2012-02-26T10:16:29.63</time>
      </trkpt>
      <trkpt lat="48.42302" lon="-4.34677">
        <ele>123</ele>
        <time>2012-02-26T10:16:30.64</time>
      </trkpt>
      <trkpt lat="48.42305" lon="-4.34677">
        <ele>123</ele>
        <time>2012-02-26T10:16:31.64</time>
      </trkpt>
      <trkpt lat="48.42308" lon="-4.34679">
        <ele>123</ele>
        <time>2012-02-26T10:16:32.64</time>
      </trkpt>
      <trkpt lat="48.4231" lon="-4.34679">
        <ele>123</ele>
        <time>2012-02-26T10:16:33.63</time>
      </trkpt>
      <trkpt lat="48.42312" lon="-4.34681">
        <ele>123</ele>
        <time>2012-02-26T10:16:34.63</time>
      </trkpt>
      <trkpt lat="48.42314" lon="-4.34681">
        <ele>124</ele>
        <time>2012-02-26T10:16:35.64</time>
      </trkpt>
      <trkpt lat="48.42317" lon="-4.34683">
        <ele>124</ele>
        <time>2012-02-26T10:16:36.63</time>
      </trkpt>
      <trkpt lat="48.4232" lon="-4.34683">
        <ele>124</ele>
        <time>2012-02-26T10:16:37.64</time>
      </trkpt>
      <trkpt lat="48.42322" lon="-4.34685">
        <ele>124</ele>
        <time>2012-02-26T10:16:38.63</time>
      </trkpt>
      <trkpt lat="48.42324" lon="-4.34685">
        <ele>125</ele>
        <time>2012-02-26T10:16:39.63</time>
      </trkpt>
      <trkpt lat="48.42326" lon="-4.34685">
        <ele>125</ele>
        <time>2012-02-26T10:16:40.64</time>
      </trkpt>
      <trkpt lat="48.42328" lon="-4.34687">
        <ele>125</ele>
        <time>2012-02-26T10:16:41.65</time>
      </trkpt>
      <trkpt lat="48.4233" lon="-4.34687">
        <ele>125</ele>
        <time>2012-02-26T10:16:42.63</time>
      </trkpt>
      <trkpt lat="48.42334" lon="-4.3469">
        <ele>125</ele>
        <time>2012-02-26T10:16:43.64</time>
      </trkpt>
      <trkpt lat="48.42336" lon="-4.3469">
        <ele>126</ele>
        <time>2012-02-26T10:16:44.65</time>
      </trkpt>
      <trkpt lat="48.42338" lon="-4.34692">
        <ele>126</ele>
        <time>2012-02-26T10:16:45.70</time>
      </trkpt>
      <trkpt lat="48.4234" lon="-4.34692">
        <ele>126</ele>
        <time>2012-02-26T10:16:46.64</time>
      </trkpt>
      <trkpt lat="48.42342" lon="-4.34692">
        <ele>126</ele>
        <time>2012-02-26T10:16:47.65</time>
      </trkpt>
      <trkpt lat="48.42344" lon="-4.34692">
        <ele>126</ele>
        <time>2012-02-26T10:16:48.65</time>
      </trkpt>
      <trkpt lat="48.42346" lon="-4.34694">
        <ele>126</ele>
        <time>2012-02-26T10:16:49.64</time>
      </trkpt>
      <trkpt lat="48.42349" lon="-4.34694">
        <ele>127</ele>
        <time>2012-02-26T10:16:50.65</time>
      </trkpt>
      <trkpt lat="48.42351" lon="-4.34694">
        <ele>127</ele>
        <time>2012-02-26T10:16:51.65</time>
      </trkpt>
      <trkpt lat="48.42354" lon="-4.34696">
        <ele>127</ele>
        <time>2012-02-26T10:16:52.64</time>
      </trkpt>
      <trkpt lat="48.42356" lon="-4.34696">
        <ele>127</ele>
        <time>2012-02-26T10:16:53.65</time>
      </trkpt>
      <trkpt lat="48.42358" lon="-4.34698">
        <ele>127</ele>
        <time>2012-02-26T10:16:54.63</time>
      </trkpt>
      <trkpt lat="48.4236" lon="-4.34698">
        <ele>127</ele>
        <time>2012-02-26T10:16:55.64</time>
      </trkpt>
      <trkpt lat="48.42363" lon="-4.347">
        <ele>128</ele>
        <time>2012-02-26T10:16:56.63</time>
      </trkpt>
      <trkpt lat="48.42365" lon="-4.34702">
        <ele>128</ele>
        <time>2012-02-26T10:16:57.64</time>
      </trkpt>
      <trkpt lat="48.42367" lon="-4.34705">
        <ele>128</ele>
        <time>2012-02-26T10:16:58.64</time>
      </trkpt>
      <trkpt lat="48.4237" lon="-4.34705">
        <ele>128</ele>
        <time>2012-02-26T10:16:59.63</time>
      </trkpt>
      <trkpt lat="48.42372" lon="-4.34707">
        <ele>128</ele>
        <time>2012-02-26T10:17:00.64</time>
      </trkpt>
      <trkpt lat="48.42374" lon="-4.34709">
        <ele>128</ele>
        <time>2012-02-26T10:17:01.64</time>
      </trkpt>
      <trkpt lat="48.42376" lon="-4.34711">
        <ele>129</ele>
        <time>2012-02-26T10:17:02.63</time>
      </trkpt>
      <trkpt lat="48.42379" lon="-4.34713">
        <ele>129</ele>
        <time>2012-02-26T10:17:03.63</time>
      </trkpt>
      <trkpt lat="48.42381" lon="-4.34715">
        <ele>129</ele>
        <time>2012-02-26T10:17:04.64</time>
      </trkpt>
      <trkpt lat="48.42383" lon="-4.34715">
        <ele>129</ele>
        <time>2012-02-26T10:17:05.64</time>
      </trkpt>
      <trkpt lat="48.42385" lon="-4.34717">
        <ele>129</ele>
        <time>2012-02-26T10:17:06.64</time>
      </trkpt>
      <trkpt lat="48.42388" lon="-4.3472">
        <ele>130</ele>
        <time>2012-02-26T10:17:07.70</time>
      </trkpt>
      <trkpt lat="48.4239" lon="-4.34722">
        <ele>130</ele>
        <time>2012-02-26T10:17:08.64</time>
      </trkpt>
      <trkpt lat="48.42393" lon="-4.34722">
        <ele>130</ele>
        <time>2012-02-26T10:17:09.65</time>
      </trkpt>
      <trkpt lat="48.42395" lon="-4.34724">
        <ele>130</ele>
        <time>2012-02-26T10:17:10.65</time>
      </trkpt>
      <trkpt lat="48.42397" lon="-4.34724">
        <ele>130</ele>
        <time>2012-02-26T10:17:11.64</time>
      </trkpt>
      <trkpt lat="48.424" lon="-4.34726">
        <ele>131</ele>
        <time>2012-02-26T10:17:12.65</time>
      </trkpt>
      <trkpt lat="48.42402" lon="-4.34726">
        <ele>131</ele>
        <time>2012-02-26T10:17:13.65</time>
      </trkpt>
      <trkpt lat="48.42404" lon="-4.34728">
        <ele>131</ele>
        <time>2012-02-26T10:17:14.64</time>
      </trkpt>
      <trkpt lat="48.42407" lon="-4.34728">
        <ele>131</ele>
        <time>2012-02-26T10:17:15.64</time>
      </trkpt>
      <trkpt lat="48.4241" lon="-4.3473">
        <ele>131</ele>
        <time>2012-02-26T10:17:16.65</time>
      </trkpt>
      <trkpt lat="48.42412" lon="-4.3473">
        <ele>131</ele>
        <time>2012-02-26T10:17:17.64</time>
      </trkpt>
      <trkpt lat="48.42414" lon="-4.34732">
        <ele>132</ele>
        <time>2012-02-26T10:17:18.64</time>
      </trkpt>
      <trkpt lat="48.42417" lon="-4.34732">
        <ele>132</ele>
        <time>2012-02-26T10:17:19.63</time>
      </trkpt>
      <trkpt lat="48.42419" lon="-4.34735">
        <ele>132</ele>
        <time>2012-02-26T10:17:20.64</time>
      </trkpt>
      <trkpt lat="48.42423" lon="-4.34735">
        <ele>132</ele>
        <time>2012-02-26T10:17:21.64</time>
      </trkpt>
      <trkpt lat="48.42425" lon="-4.34737">
        <ele>132</ele>
        <time>2012-02-26T10:17:22.65</time>
      </trkpt>
      <trkpt lat="48.42427" lon="-4.34737">
        <ele>132</ele>
        <time>2012-02-26T10:17:23.63</time>
      </trkpt>
      <trkpt lat="48.4243" lon="-4.34739">
        <ele>133</ele>
        <time>2012-02-26T10:17:24.63</time>
      </trkpt>
      <trkpt lat="48.42432" lon="-4.34739">
        <ele>133</ele>
        <time>2012-02-26T10:17:25.65</time>
      </trkpt>
      <trkpt lat="48.42434" lon="-4.34741">
        <ele>133</ele>
        <time>2012-02-26T10:17:26.63</time>
      </trkpt>
      <trkpt lat="48.42437" lon="-4.34741">
        <ele>133</ele>
        <time>2012-02-26T10:17:27.64</time>
      </trkpt>
      <trkpt lat="48.4244" lon="-4.34741">
        <ele>133</ele>
        <time>2012-02-26T10:17:28.65</time>
      </trkpt>
      <trkpt lat="48.42442" lon="-4.34743">
        <ele>133</ele>
        <time>2012-02-26T10:17:29.69</time>
      </trkpt>
      <trkpt lat="48.42445" lon="-4.34743">
        <ele>134</ele>
        <time>2012-02-26T10:17:30.64</time>
      </trkpt>
      <trkpt lat="48.42447" lon="-4.34743">
        <ele>134</ele>
        <time>2012-02-26T10:17:31.65</time>
      </trkpt>
      <trkpt lat="48.42449" lon="-4.34745">
        <ele>134</ele>
        <time>2012-02-26T10:17:32.63</time>
      </trkpt>
      <trkpt lat="48.42453" lon="-4.34745">
        <ele>134</ele>
        <time>2012-02-26T10:17:33.64</time>
      </trkpt>
      <trkpt lat="48.42455" lon="-4.34745">
        <ele>134</ele>
        <time>2012-02-26T10:17:34.64</time>
      </trkpt>
      <trkpt lat="48.42458" lon="-4.34745">
        <ele>134</ele>
        <time>2012-02-26T10:17:35.65</time>
      </trkpt>
      <trkpt lat="48.42461" lon="-4.34747">
        <ele>134</ele>
        <time>2012-02-26T10:17:36.64</time>
      </trkpt>
      <trkpt lat="48.42463" lon="-4.34747">
        <ele>135</ele>
        <time>2012-02-26T10:17:37.64</time>
      </trkpt>
      <trkpt lat="48.42467" lon="-4.34747">
        <ele>135</ele>
        <time>2012-02-26T10:17:38.65</time>
      </trkpt>
      <trkpt lat="48.4247" lon="-4.34747">
        <ele>135</ele>
        <time>2012-02-26T10:17:39.64</time>
      </trkpt>
      <trkpt lat="48.42472" lon="-4.34747">
        <ele>135</ele>
        <time>2012-02-26T10:17:40.64</time>
      </trkpt>
      <trkpt lat="48.42475" lon="-4.34747">
        <ele>135</ele>
        <time>2012-02-26T10:17:41.63</time>
      </trkpt>
      <trkpt lat="48.42477" lon="-4.3475">
        <ele>135</ele>
        <time>2012-02-26T10:17:42.64</time>
      </trkpt>
      <trkpt lat="48.42481" lon="-4.3475">
        <ele>135</ele>
        <time>2012-02-26T10:17:43.64</time>
      </trkpt>
      <trkpt lat="48.42483" lon="-4.34752">
        <ele>136</ele>
        <time>2012-02-26T10:17:44.66</time>
      </trkpt>
      <trkpt lat="48.42486" lon="-4.34752">
        <ele>136</ele>
        <time>2012-02-26T10:17:45.63</time>
      </trkpt>
      <trkpt lat="48.42488" lon="-4.34754">
        <ele>136</ele>
        <time>2012-02-26T10:17:46.63</time>
      </trkpt>
      <trkpt lat="48.4249" lon="-4.34756">
        <ele>136</ele>
        <time>2012-02-26T10:17:47.64</time>
      </trkpt>
      <trkpt lat="48.42493" lon="-4.34756">
        <ele>136</ele>
        <time>2012-02-26T10:17:48.64</time>
      </trkpt>
      <trkpt lat="48.42496" lon="-4.34758">
        <ele>136</ele>
        <time>2012-02-26T10:17:49.64</time>
      </trkpt>
      <trkpt lat="48.42499" lon="-4.34758">
        <ele>136</ele>
        <time>2012-02-26T10:17:50.64</time>
      </trkpt>
      <trkpt lat="48.42501" lon="-4.3476">
        <ele>137</ele>
        <time>2012-02-26T10:17:51.68</time>
      </trkpt>
      <trkpt lat="48.42504" lon="-4.34762">
        <ele>137</ele>
        <time>2012-02-26T10:17:52.64</time>
      </trkpt>
      <trkpt lat="48.42506" lon="-4.34765">
        <ele>137</ele>
        <time>2012-02-26T10:17:53.63</time>
      </trkpt>
      <trkpt lat="48.4251" lon="-4.34765">
        <ele>137</ele>
        <time>2012-02-26T10:17:54.64</time>
      </trkpt>
      <trkpt lat="48.42512" lon="-4.34767">
        <ele>138</ele>
        <time>2012-02-26T10:17:55.64</time>
      </trkpt>
      <trkpt lat="48.42515" lon="-4.34769">
        <ele>138</ele>
        <time>2012-02-26T10:17:56.64</time>
      </trkpt>
      <trkpt lat="48.42517" lon="-4.34769">
        <ele>138</ele>
        <time>2012-02-26T10:17:57.64</time>
      </trkpt>
      <trkpt lat="48.4252" lon="-4.34771">
        <ele>138</ele>
        <time>2012-02-26T10:17:58.64</time>
      </trkpt>
      <trkpt lat="48.42522" lon="-4.34773">
        <ele>139</ele>
        <time>2012-02-26T10:17:59.63</time>
      </trkpt>
      <trkpt lat="48.42526" lon="-4.34773">
        <ele>139</ele>
        <time>2012-02-26T10:18:00.64</time>
      </trkpt>
      <trkpt lat="48.42528" lon="-4.34775">
        <ele>139</ele>
        <time>2012-02-26T10:18:01.64</time>
      </trkpt>
      <trkpt lat="48.42531" lon="-4.34777">
        <ele>139</ele>
        <time>2012-02-26T10:18:02.64</time>
      </trkpt>
      <trkpt lat="48.42534" lon="-4.34777">
        <ele>139</ele>
        <time>2012-02-26T10:18:03.65</time>
      </trkpt>
      <trkpt lat="48.42536" lon="-4.3478">
        <ele>140</ele>
        <time>2012-02-26T10:18:04.64</time>
      </trkpt>
      <trkpt lat="48.4254" lon="-4.3478">
        <ele>140</ele>
        <time>2012-02-26T10:18:05.64</time>
      </trkpt>
      <trkpt lat="48.42542" lon="-4.34782">
        <ele>140</ele>
        <time>2012-02-26T10:18:06.65</time>
      </trkpt>
      <trkpt lat="48.42545" lon="-4.34784">
        <ele>140</ele>
        <time>2012-02-26T10:18:07.64</time>
      </trkpt>
      <trkpt lat="48.42547" lon="-4.34786">
        <ele>140</ele>
        <time>2012-02-26T10:18:08.64</time>
      </trkpt>
      <trkpt lat="48.42549" lon="-4.34786">
        <ele>140</ele>
        <time>2012-02-26T10:18:09.65</time>
      </trkpt>
      <trkpt lat="48.42551" lon="-4.34788">
        <ele>140</ele>
        <time>2012-02-26T10:18:10.65</time>
      </trkpt>
      <trkpt lat="48.42555" lon="-4.3479">
        <ele>140</ele>
        <time>2012-02-26T10:18:11.64</time>
      </trkpt>
      <trkpt lat="48.42557" lon="-4.3479">
        <ele>140</ele>
        <time>2012-02-26T10:18:12.65</time>
      </trkpt>
      <trkpt lat="48.42559" lon="-4.34793">
        <ele>141</ele>
        <time>2012-02-26T10:18:13.70</time>
      </trkpt>
      <trkpt lat="48.42561" lon="-4.34795">
        <ele>141</ele>
        <time>2012-02-26T10:18:14.64</time>
      </trkpt>
      <trkpt lat="48.42563" lon="-4.34797">
        <ele>141</ele>
        <time>2012-02-26T10:18:15.65</time>
      </trkpt>
      <trkpt lat="48.42566" lon="-4.34799">
        <ele>141</ele>
        <time>2012-02-26T10:18:16.65</time>
      </trkpt>
      <trkpt lat="48.42569" lon="-4.34801">
        <ele>141</ele>
        <time>2012-02-26T10:18:17.64</time>
      </trkpt>
      <trkpt lat="48.42572" lon="-4.34803">
        <ele>141</ele>
        <time>2012-02-26T10:18:18.65</time>
      </trkpt>
      <trkpt lat="48.42574" lon="-4.34805">
        <ele>141</ele>
        <time>2012-02-26T10:18:19.65</time>
      </trkpt>
      <trkpt lat="48.42576" lon="-4.34808">
        <ele>141</ele>
        <time>2012-02-26T10:18:20.64</time>
      </trkpt>
      <trkpt lat="48.42579" lon="-4.3481">
        <ele>141</ele>
        <time>2012-02-26T10:18:21.64</time>
      </trkpt>
      <trkpt lat="48.42581" lon="-4.34812">
        <ele>141</ele>
        <time>2012-02-26T10:18:22.66</time>
      </trkpt>
      <trkpt lat="48.42585" lon="-4.34814">
        <ele>141</ele>
        <time>2012-02-26T10:18:23.63</time>
      </trkpt>
      <trkpt lat="48.42587" lon="-4.34816">
        <ele>141</ele>
        <time>2012-02-26T10:18:24.63</time>
      </trkpt>
      <trkpt lat="48.4259" lon="-4.34818">
        <ele>141</ele>
        <time>2012-02-26T10:18:25.64</time>
      </trkpt>
      <trkpt lat="48.42593" lon="-4.3482">
        <ele>142</ele>
        <time>2012-02-26T10:18:26.64</time>
      </trkpt>
      <trkpt lat="48.42595" lon="-4.34823">
        <ele>142</ele>
        <time>2012-02-26T10:18:27.64</time>
      </trkpt>
      <trkpt lat="48.42599" lon="-4.34825">
        <ele>142</ele>
        <time>2012-02-26T10:18:28.64</time>
      </trkpt>
      <trkpt lat="48.42602" lon="-4.34827">
        <ele>142</ele>
        <time>2012-02-26T10:18:29.64</time>
      </trkpt>
      <trkpt lat="48.42604" lon="-4.34829">
        <ele>142</ele>
        <time>2012-02-26T10:18:30.63</time>
      </trkpt>
      <trkpt lat="48.42607" lon="-4.34831">
        <ele>142</ele>
        <time>2012-02-26T10:18:31.64</time>
      </trkpt>
      <trkpt lat="48.4261" lon="-4.34833">
        <ele>143</ele>
        <time>2012-02-26T10:18:32.66</time>
      </trkpt>
      <trkpt lat="48.42613" lon="-4.34835">
        <ele>143</ele>
        <time>2012-02-26T10:18:33.64</time>
      </trkpt>
      <trkpt lat="48.42616" lon="-4.34838">
        <ele>143</ele>
        <time>2012-02-26T10:18:34.65</time>
      </trkpt>
      <trkpt lat="48.42619" lon="-4.34838">
        <ele>143</ele>
        <time>2012-02-26T10:18:35.71</time>
      </trkpt>
      <trkpt lat="48.42621" lon="-4.3484">
        <ele>143</ele>
        <time>2012-02-26T10:18:36.64</time>
      </trkpt>
      <trkpt lat="48.42624" lon="-4.34842">
        <ele>143</ele>
        <time>2012-02-26T10:18:37.65</time>
      </trkpt>
      <trkpt lat="48.42626" lon="-4.34844">
        <ele>144</ele>
        <time>2012-02-26T10:18:38.65</time>
      </trkpt>
      <trkpt lat="48.4263" lon="-4.34846">
        <ele>144</ele>
        <time>2012-02-26T10:18:39.64</time>
      </trkpt>
      <trkpt lat="48.42632" lon="-4.34848">
        <ele>144</ele>
        <time>2012-02-26T10:18:40.65</time>
      </trkpt>
      <trkpt lat="48.42635" lon="-4.3485">
        <ele>144</ele>
        <time>2012-02-26T10:18:41.65</time>
      </trkpt>
      <trkpt lat="48.42637" lon="-4.34853">
        <ele>144</ele>
        <time>2012-02-26T10:18:42.64</time>
      </trkpt>
      <trkpt lat="48.42639" lon="-4.34853">
        <ele>144</ele>
        <time>2012-02-26T10:18:43.65</time>
      </trkpt>
      <trkpt lat="48.42643" lon="-4.34855">
        <ele>145</ele>
        <time>2012-02-26T10:18:44.65</time>
      </trkpt>
      <trkpt lat="48.42645" lon="-4.34855">
        <ele>145</ele>
        <time>2012-02-26T10:18:45.64</time>
      </trkpt>
      <trkpt lat="48.42647" lon="-4.34857">
        <ele>145</ele>
        <time>2012-02-26T10:18:46.63</time>
      </trkpt>
      <trkpt lat="48.4265" lon="-4.34857">
        <ele>145</ele>
        <time>2012-02-26T10:18:47.65</time>
      </trkpt>
      <trkpt lat="48.42652" lon="-4.34857">
        <ele>145</ele>
        <time>2012-02-26T10:18:48.64</time>
      </trkpt>
      <trkpt lat="48.42655" lon="-4.34859">
        <ele>145</ele>
        <time>2012-02-26T10:18:49.64</time>
      </trkpt>
      <trkpt lat="48.42658" lon="-4.34859">
        <ele>145</ele>
        <time>2012-02-26T10:18:50.65</time>
      </trkpt>
      <trkpt lat="48.42661" lon="-4.34861">
        <ele>146</ele>
        <time>2012-02-26T10:18:51.68</time>
      </trkpt>
      <trkpt lat="48.42664" lon="-4.34863">
        <ele>146</ele>
        <time>2012-02-26T10:18:52.65</time>
      </trkpt>
      <trkpt lat="48.42666" lon="-4.34863">
        <ele>146</ele>
        <time>2012-02-26T10:18:53.65</time>
      </trkpt>
      <trkpt lat="48.42669" lon="-4.34863">
        <ele>146</ele>
        <time>2012-02-26T10:18:54.66</time>
      </trkpt>
      <trkpt lat="48.42672" lon="-4.34865">
        <ele>146</ele>
        <time>2012-02-26T10:18:55.64</time>
      </trkpt>
      <trkpt lat="48.42675" lon="-4.34865">
        <ele>147</ele>
        <time>2012-02-26T10:18:56.65</time>
      </trkpt>
      <trkpt lat="48.42678" lon="-4.34868">
        <ele>147</ele>
        <time>2012-02-26T10:18:57.65</time>
      </trkpt>
      <trkpt lat="48.4268" lon="-4.34868">
        <ele>147</ele>
        <time>2012-02-26T10:18:58.64</time>
      </trkpt>
      <trkpt lat="48.42683" lon="-4.3487">
        <ele>147</ele>
        <time>2012-02-26T10:18:59.65</time>
      </trkpt>
      <trkpt lat="48.42687" lon="-4.3487">
        <ele>147</ele>
        <time>2012-02-26T10:19:00.65</time>
      </trkpt>
      <trkpt lat="48.42689" lon="-4.3487">
        <ele>148</ele>
        <time>2012-02-26T10:19:01.65</time>
      </trkpt>
      <trkpt lat="48.42692" lon="-4.3487">
        <ele>148</ele>
        <time>2012-02-26T10:19:02.63</time>
      </trkpt>
      <trkpt lat="48.42695" lon="-4.34872">
        <ele>148</ele>
        <time>2012-02-26T10:19:03.65</time>
      </trkpt>
      <trkpt lat="48.42697" lon="-4.34872">
        <ele>148</ele>
        <time>2012-02-26T10:19:04.64</time>
      </trkpt>
      <trkpt lat="48.427" lon="-4.34872">
        <ele>148</ele>
        <time>2012-02-26T10:19:05.65</time>
      </trkpt>
      <trkpt lat="48.42704" lon="-4.34874">
        <ele>149</ele>
        <time>2012-02-26T10:19:06.65</time>
      </trkpt>
      <trkpt lat="48.42706" lon="-4.34874">
        <ele>149</ele>
        <time>2012-02-26T10:19:07.67</time>
      </trkpt>
      <trkpt lat="48.42709" lon="-4.34874">
        <ele>149</ele>
        <time>2012-02-26T10:19:08.64</time>
      </trkpt>
      <trkpt lat="48.42712" lon="-4.34874">
        <ele>149</ele>
        <time>2012-02-26T10:19:09.64</time>
      </trkpt>
      <trkpt lat="48.42714" lon="-4.34876">
        <ele>149</ele>
        <time>2012-02-26T10:19:10.64</time>
      </trkpt>
      <trkpt lat="48.42718" lon="-4.34876">
        <ele>150</ele>
        <time>2012-02-26T10:19:11.64</time>
      </trkpt>
      <trkpt lat="48.42721" lon="-4.34876">
        <ele>150</ele>
        <time>2012-02-26T10:19:12.65</time>
      </trkpt>
      <trkpt lat="48.42724" lon="-4.34876">
        <ele>150</ele>
        <time>2012-02-26T10:19:13.64</time>
      </trkpt>
      <trkpt lat="48.42727" lon="-4.34876">
        <ele>150</ele>
        <time>2012-02-26T10:19:14.65</time>
      </trkpt>
      <trkpt lat="48.42729" lon="-4.34876">
        <ele>150</ele>
        <time>2012-02-26T10:19:15.64</time>
      </trkpt>
      <trkpt lat="48.42733" lon="-4.34876">
        <ele>151</ele>
        <time>2012-02-26T10:19:16.64</time>
      </trkpt>
      <trkpt lat="48.42736" lon="-4.34876">
        <ele>151</ele>
        <time>2012-02-26T10:19:17.64</time>
      </trkpt>
      <trkpt lat="48.42739" lon="-4.34876">
        <ele>151</ele>
        <time>2012-02-26T10:19:18.63</time>
      </trkpt>
      <trkpt lat="48.42742" lon="-4.34876">
        <ele>151</ele>
        <time>2012-02-26T10:19:19.65</time>
      </trkpt>
      <trkpt lat="48.42746" lon="-4.34876">
        <ele>151</ele>
        <time>2012-02-26T10:19:20.64</time>
      </trkpt>
      <trkpt lat="48.4275" lon="-4.34876">
        <ele>151</ele>
        <time>2012-02-26T10:19:21.65</time>
      </trkpt>
      <trkpt lat="48.42754" lon="-4.34876">
        <ele>152</ele>
        <time>2012-02-26T10:19:22.65</time>
      </trkpt>
      <trkpt lat="48.42757" lon="-4.34876">
        <ele>152</ele>
        <time>2012-02-26T10:19:23.68</time>
      </trkpt>
      <trkpt lat="48.42761" lon="-4.34876">
        <ele>152</ele>
        <time>2012-02-26T10:19:24.65</time>
      </trkpt>
      <trkpt lat="48.42765" lon="-4.34876">
        <ele>152</ele>
        <time>2012-02-26T10:19:25.65</time>
      </trkpt>
      <trkpt lat="48.42768" lon="-4.34876">
        <ele>152</ele>
        <time>2012-02-26T10:19:26.64</time>
      </trkpt>
      <trkpt lat="48.42772" lon="-4.34876">
        <ele>153</ele>
        <time>2012-02-26T10:19:27.65</time>
      </trkpt>
      <trkpt lat="48.42776" lon="-4.34874">
        <ele>153</ele>
        <time>2012-02-26T10:19:28.65</time>
      </trkpt>
      <trkpt lat="48.42779" lon="-4.34874">
        <ele>153</ele>
        <time>2012-02-26T10:19:29.64</time>
      </trkpt>
      <trkpt lat="48.42783" lon="-4.34874">
        <ele>153</ele>
        <time>2012-02-26T10:19:30.65</time>
      </trkpt>
      <trkpt lat="48.42786" lon="-4.34874">
        <ele>153</ele>
        <time>2012-02-26T10:19:31.65</time>
      </trkpt>
      <trkpt lat="48.4279" lon="-4.34874">
        <ele>153</ele>
        <time>2012-02-26T10:19:32.64</time>
      </trkpt>
      <trkpt lat="48.42794" lon="-4.34874">
        <ele>154</ele>
        <time>2012-02-26T10:19:33.64</time>
      </trkpt>
      <trkpt lat="48.42798" lon="-4.34874">
        <ele>154</ele>
        <time>2012-02-26T10:19:34.65</time>
      </trkpt>
      <trkpt lat="48.42801" lon="-4.34874">
        <ele>154</ele>
        <time>2012-02-26T10:19:35.66</time>
      </trkpt>
      <trkpt lat="48.42806" lon="-4.34874">
        <ele>154</ele>
        <time>2012-02-26T10:19:36.65</time>
      </trkpt>
      <trkpt lat="48.42809" lon="-4.34874">
        <ele>154</ele>
        <time>2012-02-26T10:19:37.65</time>
      </trkpt>
      <trkpt lat="48.42812" lon="-4.34874">
        <ele>154</ele>
        <time>2012-02-26T10:19:38.66</time>
      </trkpt>
      <trkpt lat="48.42816" lon="-4.34874">
        <ele>155</ele>
        <time>2012-02-26T10:19:39.64</time>
      </trkpt>
      <trkpt lat="48.4282" lon="-4.34874">
        <ele>155</ele>
        <time>2012-02-26T10:19:40.65</time>
      </trkpt>
      <trkpt lat="48.42823" lon="-4.34874">
        <ele>155</ele>
        <time>2012-02-26T10:19:41.65</time>
      </trkpt>
      <trkpt lat="48.42826" lon="-4.34874">
        <ele>155</ele>
        <time>2012-02-26T10:19:42.64</time>
      </trkpt>
      <trkpt lat="48.4283" lon="-4.34874">
        <ele>155</ele>
        <time>2012-02-26T10:19:43.65</time>
      </trkpt>
      <trkpt lat="48.42834" lon="-4.34874">
        <ele>156</ele>
        <time>2012-02-26T10:19:44.65</time>
      </trkpt>
      <trkpt lat="48.42837" lon="-4.34874">
        <ele>156</ele>
        <time>2012-02-26T10:19:45.64</time>
      </trkpt>
      <trkpt lat="48.4284" lon="-4.34874">
        <ele>156</ele>
        <time>2012-02-26T10:19:46.65</time>
      </trkpt>
      <trkpt lat="48.42843" lon="-4.34874">
        <ele>156</ele>
        <time>2012-02-26T10:19:47.65</time>
      </trkpt>
      <trkpt lat="48.42846" lon="-4.34874">
        <ele>156</ele>
        <time>2012-02-26T10:19:48.64</time>
      </trkpt>
      <trkpt lat="48.4285" lon="-4.34872">
        <ele>156</ele>
        <time>2012-02-26T10:19:49.65</time>
      </trkpt>
      <trkpt lat="48.42854" lon="-4.34872">
        <ele>157</ele>
        <time>2012-02-26T10:19:50.65</time>
      </trkpt>
      <trkpt lat="48.42857" lon="-4.34872">
        <ele>157</ele>
        <time>2012-02-26T10:19:51.64</time>
      </trkpt>
      <trkpt lat="48.4286" lon="-4.3487">
        <ele>157</ele>
        <time>2012-02-26T10:19:52.65</time>
      </trkpt>
      <trkpt lat="48.42865" lon="-4.3487">
        <ele>157</ele>
        <time>2012-02-26T10:19:53.64</time>
      </trkpt>
      <trkpt lat="48.42869" lon="-4.3487">
        <ele>157</ele>
        <time>2012-02-26T10:19:54.64</time>
      </trkpt>
      <trkpt lat="48.42872" lon="-4.34868">
        <ele>157</ele>
        <time>2012-02-26T10:19:55.64</time>
      </trkpt>
      <trkpt lat="48.42876" lon="-4.34868">
        <ele>158</ele>
        <time>2012-02-26T10:19:56.65</time>
      </trkpt>
      <trkpt lat="48.4288" lon="-4.34868">
        <ele>158</ele>
        <time>2012-02-26T10:19:57.72</time>
      </trkpt>
      <trkpt lat="48.42883" lon="-4.34865">
        <ele>158</ele>
        <time>2012-02-26T10:19:58.64</time>
      </trkpt>
      <trkpt lat="48.42887" lon="-4.34865">
        <ele>158</ele>
        <time>2012-02-26T10:19:59.64</time>
      </trkpt>
      <trkpt lat="48.4289" lon="-4.34865">
        <ele>158</ele>
        <time>2012-02-26T10:20:00.66</time>
      </trkpt>
      <trkpt lat="48.42895" lon="-4.34863">
        <ele>158</ele>
        <time>2012-02-26T10:20:01.64</time>
      </trkpt>
      <trkpt lat="48.42899" lon="-4.34863">
        <ele>161</ele>
        <time>2012-02-26T10:20:02.65</time>
      </trkpt>
      <trkpt lat="48.42902" lon="-4.34863">
        <ele>163</ele>
        <time>2012-02-26T10:20:03.66</time>
      </trkpt>
      <trkpt lat="48.42906" lon="-4.34863">
        <ele>164</ele>
        <time>2012-02-26T10:20:04.64</time>
      </trkpt>
      <trkpt lat="48.42911" lon="-4.34861">
        <ele>165</ele>
        <time>2012-02-26T10:20:05.65</time>
      </trkpt>
      <trkpt lat="48.42915" lon="-4.34861">
        <ele>167</ele>
        <time>2012-02-26T10:20:06.65</time>
      </trkpt>
      <trkpt lat="48.42918" lon="-4.34861">
        <ele>167</ele>
        <time>2012-02-26T10:20:07.64</time>
      </trkpt>
      <trkpt lat="48.42923" lon="-4.34861">
        <ele>167</ele>
        <time>2012-02-26T10:20:08.65</time>
      </trkpt>
      <trkpt lat="48.42926" lon="-4.34861">
        <ele>167</ele>
        <time>2012-02-26T10:20:09.68</time>
      </trkpt>
      <trkpt lat="48.4293" lon="-4.34863">
        <ele>167</ele>
        <time>2012-02-26T10:20:10.64</time>
      </trkpt>
      <trkpt lat="48.42934" lon="-4.34863">
        <ele>168</ele>
        <time>2012-02-26T10:20:11.65</time>
      </trkpt>
      <trkpt lat="48.42938" lon="-4.34863">
        <ele>168</ele>
        <time>2012-02-26T10:20:12.65</time>
      </trkpt>
      <trkpt lat="48.42942" lon="-4.34863">
        <ele>168</ele>
        <time>2012-02-26T10:20:13.68</time>
      </trkpt>
      <trkpt lat="48.42946" lon="-4.34865">
        <ele>167</ele>
        <time>2012-02-26T10:20:14.68</time>
      </trkpt>
      <trkpt lat="48.4295" lon="-4.34865">
        <ele>167</ele>
        <time>2012-02-26T10:20:15.64</time>
      </trkpt>
      <trkpt lat="48.42955" lon="-4.34865">
        <ele>167</ele>
        <time>2012-02-26T10:20:16.64</time>
      </trkpt>
      <trkpt lat="48.42959" lon="-4.34868">
        <ele>167</ele>
        <time>2012-02-26T10:20:17.64</time>
      </trkpt>
      <trkpt lat="48.42963" lon="-4.34868">
        <ele>167</ele>
        <time>2012-02-26T10:20:18.65</time>
      </trkpt>
      <trkpt lat="48.42968" lon="-4.34868">
        <ele>168</ele>
        <time>2012-02-26T10:20:19.66</time>
      </trkpt>
      <trkpt lat="48.42972" lon="-4.3487">
        <ele>167</ele>
        <time>2012-02-26T10:20:20.65</time>
      </trkpt>
      <trkpt lat="48.42977" lon="-4.3487">
        <ele>167</ele>
        <time>2012-02-26T10:20:21.65</time>
      </trkpt>
      <trkpt lat="48.42982" lon="-4.34872">
        <ele>167</ele>
        <time>2012-02-26T10:20:22.66</time>
      </trkpt>
      <trkpt lat="48.42986" lon="-4.34872">
        <ele>167</ele>
        <time>2012-02-26T10:20:23.64</time>
      </trkpt>
      <trkpt lat="48.42991" lon="-4.34872">
        <ele>167</ele>
        <time>2012-02-26T10:20:24.65</time>
      </trkpt>
      <trkpt lat="48.42998" lon="-4.34872">
        <ele>166</ele>
        <time>2012-02-26T10:20:25.69</time>
      </trkpt>
      <trkpt lat="48.43003" lon="-4.34872">
        <ele>166</ele>
        <time>2012-02-26T10:20:26.64</time>
      </trkpt>
      <trkpt lat="48.43008" lon="-4.34872">
        <ele>166</ele>
        <time>2012-02-26T10:20:27.65</time>
      </trkpt>
      <trkpt lat="48.43013" lon="-4.34872">
        <ele>165</ele>
        <time>2012-02-26T10:20:28.65</time>
      </trkpt>
      <trkpt lat="48.43017" lon="-4.34868">
        <ele>165</ele>
        <time>2012-02-26T10:20:29.64</time>
      </trkpt>
      <trkpt lat="48.43021" lon="-4.34865">
        <ele>165</ele>
        <time>2012-02-26T10:20:30.66</time>
      </trkpt>
      <trkpt lat="48.43026" lon="-4.34863">
        <ele>165</ele>
        <time>2012-02-26T10:20:31.63</time>
      </trkpt>
      <trkpt lat="48.4303" lon="-4.34868">
        <ele>165</ele>
        <time>2012-02-26T10:20:32.64</time>
      </trkpt>
      <trkpt lat="48.43034" lon="-4.34868">
        <ele>165</ele>
        <time>2012-02-26T10:20:33.72</time>
      </trkpt>
      <trkpt lat="48.43038" lon="-4.34872">
        <ele>165</ele>
        <time>2012-02-26T10:20:34.64</time>
      </trkpt>
      <trkpt lat="48.43043" lon="-4.34874">
        <ele>164</ele>
        <time>2012-02-26T10:20:35.62</time>
      </trkpt>
      <trkpt lat="48.43047" lon="-4.34878">
        <ele>164</ele>
        <time>2012-02-26T10:20:36.64</time>
      </trkpt>
      <trkpt lat="48.43052" lon="-4.34883">
        <ele>163</ele>
        <time>2012-02-26T10:20:37.64</time>
      </trkpt>
      <trkpt lat="48.43058" lon="-4.34889">
        <ele>162</ele>
        <time>2012-02-26T10:20:38.65</time>
      </trkpt>
      <trkpt lat="48.43063" lon="-4.34893">
        <ele>161</ele>
        <time>2012-02-26T10:20:39.64</time>
      </trkpt>
      <trkpt lat="48.4307" lon="-4.349">
        <ele>160</ele>
        <time>2012-02-26T10:20:40.64</time>
      </trkpt>
      <trkpt lat="48.43075" lon="-4.34906">
        <ele>159</ele>
        <time>2012-02-26T10:20:41.65</time>
      </trkpt>
      <trkpt lat="48.43081" lon="-4.34913">
        <ele>159</ele>
        <time>2012-02-26T10:20:42.64</time>
      </trkpt>
      <trkpt lat="48.43088" lon="-4.34917">
        <ele>158</ele>
        <time>2012-02-26T10:20:43.64</time>
      </trkpt>
      <trkpt lat="48.43094" lon="-4.34923">
        <ele>158</ele>
        <time>2012-02-26T10:20:44.64</time>
      </trkpt>
      <trkpt lat="48.43101" lon="-4.34928">
        <ele>157</ele>
        <time>2012-02-26T10:20:45.64</time>
      </trkpt>
      <trkpt lat="48.43106" lon="-4.34932">
        <ele>157</ele>
        <time>2012-02-26T10:20:46.65</time>
      </trkpt>
      <trkpt lat="48.43111" lon="-4.34936">
        <ele>157</ele>
        <time>2012-02-26T10:20:47.71</time>
      </trkpt>
      <trkpt lat="48.43117" lon="-4.34941">
        <ele>157</ele>
        <time>2012-02-26T10:20:48.64</time>
      </trkpt>
      <trkpt lat="48.43122" lon="-4.34943">
        <ele>157</ele>
        <time>2012-02-26T10:20:49.66</time>
      </trkpt>
      <trkpt lat="48.43127" lon="-4.34947">
        <ele>157</ele>
        <time>2012-02-26T10:20:50.66</time>
      </trkpt>
      <trkpt lat="48.43131" lon="-4.34951">
        <ele>157</ele>
        <time>2012-02-26T10:20:51.64</time>
      </trkpt>
      <trkpt lat="48.43135" lon="-4.34956">
        <ele>157</ele>
        <time>2012-02-26T10:20:52.65</time>
      </trkpt>
      <trkpt lat="48.43139" lon="-4.3496">
        <ele>156</ele>
        <time>2012-02-26T10:20:53.65</time>
      </trkpt>
      <trkpt lat="48.43143" lon="-4.34966">
        <ele>156</ele>
        <time>2012-02-26T10:20:54.64</time>
      </trkpt>
      <trkpt lat="48.43145" lon="-4.34968">
        <ele>156</ele>
        <time>2012-02-26T10:20:55.65</time>
      </trkpt>
      <trkpt lat="48.43147" lon="-4.34973">
        <ele>156</ele>
        <time>2012-02-26T10:20:56.65</time>
      </trkpt>
      <trkpt lat="48.43149" lon="-4.34977">
        <ele>156</ele>
        <time>2012-02-26T10:20:57.65</time>
      </trkpt>
      <trkpt lat="48.4315" lon="-4.34979">
        <ele>156</ele>
        <time>2012-02-26T10:20:58.65</time>
      </trkpt>
      <trkpt lat="48.43151" lon="-4.34983">
        <ele>156</ele>
        <time>2012-02-26T10:20:59.65</time>
      </trkpt>
      <trkpt lat="48.43153" lon="-4.34988">
        <ele>156</ele>
        <time>2012-02-26T10:21:00.64</time>
      </trkpt>
      <trkpt lat="48.43154" lon="-4.3499">
        <ele>156</ele>
        <time>2012-02-26T10:21:01.65</time>
      </trkpt>
      <trkpt lat="48.43155" lon="-4.34994">
        <ele>156</ele>
        <time>2012-02-26T10:21:02.65</time>
      </trkpt>
      <trkpt lat="48.43158" lon="-4.34999">
        <ele>156</ele>
        <time>2012-02-26T10:21:03.66</time>
      </trkpt>
      <trkpt lat="48.4316" lon="-4.35001">
        <ele>156</ele>
        <time>2012-02-26T10:21:04.64</time>
      </trkpt>
      <trkpt lat="48.43152" lon="-4.3499">
        <ele>156</ele>
        <time>2012-02-26T10:21:11.65</time>
      </trkpt>
      <trkpt lat="48.43151" lon="-4.34986">
        <ele>156</ele>
        <time>2012-02-26T10:21:12.65</time>
      </trkpt>
      <trkpt lat="48.43149" lon="-4.34981">
        <ele>156</ele>
        <time>2012-02-26T10:21:13.65</time>
      </trkpt>
      <trkpt lat="48.43148" lon="-4.34977">
        <ele>156</ele>
        <time>2012-02-26T10:21:14.66</time>
      </trkpt>
      <trkpt lat="48.43147" lon="-4.34975">
        <ele>155</ele>
        <time>2012-02-26T10:21:15.66</time>
      </trkpt>
      <trkpt lat="48.43145" lon="-4.34971">
        <ele>155</ele>
        <time>2012-02-26T10:21:16.66</time>
      </trkpt>
      <trkpt lat="48.43143" lon="-4.34966">
        <ele>155</ele>
        <time>2012-02-26T10:21:18.66</time>
      </trkpt>
      <trkpt lat="48.43143" lon="-4.34964">
        <ele>155</ele>
        <time>2012-02-26T10:21:19.66</time>
      </trkpt>
      <trkpt lat="48.43141" lon="-4.34964">
        <ele>155</ele>
        <time>2012-02-26T10:21:20.66</time>
      </trkpt>
      <trkpt lat="48.43141" lon="-4.34962">
        <ele>155</ele>
        <time>2012-02-26T10:21:21.66</time>
      </trkpt>
      <trkpt lat="48.4314" lon="-4.3496">
        <ele>155</ele>
        <time>2012-02-26T10:21:22.66</time>
      </trkpt>
      <trkpt lat="48.43139" lon="-4.3496">
        <ele>154</ele>
        <time>2012-02-26T10:21:23.66</time>
      </trkpt>
      <trkpt lat="48.43138" lon="-4.34958">
        <ele>154</ele>
        <time>2012-02-26T10:21:24.66</time>
      </trkpt>
      <trkpt lat="48.43136" lon="-4.34956">
        <ele>154</ele>
        <time>2012-02-26T10:21:25.66</time>
      </trkpt>
      <trkpt lat="48.43134" lon="-4.34953">
        <ele>154</ele>
        <time>2012-02-26T10:21:26.66</time>
      </trkpt>
      <trkpt lat="48.43133" lon="-4.34951">
        <ele>154</ele>
        <time>2012-02-26T10:21:27.65</time>
      </trkpt>
      <trkpt lat="48.43131" lon="-4.34949">
        <ele>154</ele>
        <time>2012-02-26T10:21:28.66</time>
      </trkpt>
      <trkpt lat="48.4313" lon="-4.34947">
        <ele>154</ele>
        <time>2012-02-26T10:21:29.66</time>
      </trkpt>
      <trkpt lat="48.43127" lon="-4.34945">
        <ele>154</ele>
        <time>2012-02-26T10:21:30.66</time>
      </trkpt>
      <trkpt lat="48.43125" lon="-4.34941">
        <ele>154</ele>
        <time>2012-02-26T10:21:31.66</time>
      </trkpt>
      <trkpt lat="48.43123" lon="-4.34938">
        <ele>154</ele>
        <time>2012-02-26T10:21:32.66</time>
      </trkpt>
      <trkpt lat="48.43122" lon="-4.34936">
        <ele>154</ele>
        <time>2012-02-26T10:21:33.66</time>
      </trkpt>
      <trkpt lat="48.4312" lon="-4.34936">
        <ele>154</ele>
        <time>2012-02-26T10:21:34.67</time>
      </trkpt>
      <trkpt lat="48.43118" lon="-4.34934">
        <ele>154</ele>
        <time>2012-02-26T10:21:35.66</time>
      </trkpt>
      <trkpt lat="48.43116" lon="-4.34932">
        <ele>153</ele>
        <time>2012-02-26T10:21:36.66</time>
      </trkpt>
      <trkpt lat="48.43114" lon="-4.34932">
        <ele>153</ele>
        <time>2012-02-26T10:21:37.66</time>
      </trkpt>
      <trkpt lat="48.43112" lon="-4.3493">
        <ele>153</ele>
        <time>2012-02-26T10:21:38.66</time>
      </trkpt>
      <trkpt lat="48.4311" lon="-4.3493">
        <ele>153</ele>
        <time>2012-02-26T10:21:39.66</time>
      </trkpt>
      <trkpt lat="48.43108" lon="-4.3493">
        <ele>153</ele>
        <time>2012-02-26T10:21:40.67</time>
      </trkpt>
      <trkpt lat="48.43106" lon="-4.34928">
        <ele>153</ele>
        <time>2012-02-26T10:21:41.66</time>
      </trkpt>
      <trkpt lat="48.43104" lon="-4.34926">
        <ele>153</ele>
        <time>2012-02-26T10:21:42.66</time>
      </trkpt>
      <trkpt lat="48.43102" lon="-4.34926">
        <ele>153</ele>
        <time>2012-02-26T10:21:43.68</time>
      </trkpt>
      <trkpt lat="48.431" lon="-4.34923">
        <ele>153</ele>
        <time>2012-02-26T10:21:44.66</time>
      </trkpt>
      <trkpt lat="48.43097" lon="-4.34921">
        <ele>153</ele>
        <time>2012-02-26T10:21:45.66</time>
      </trkpt>
      <trkpt lat="48.43095" lon="-4.34919">
        <ele>153</ele>
        <time>2012-02-26T10:21:46.66</time>
      </trkpt>
      <trkpt lat="48.43092" lon="-4.34917">
        <ele>153</ele>
        <time>2012-02-26T10:21:47.67</time>
      </trkpt>
      <trkpt lat="48.4309" lon="-4.34913">
        <ele>153</ele>
        <time>2012-02-26T10:21:48.66</time>
      </trkpt>
      <trkpt lat="48.43088" lon="-4.34911">
        <ele>153</ele>
        <time>2012-02-26T10:21:49.66</time>
      </trkpt>
      <trkpt lat="48.43085" lon="-4.34908">
        <ele>153</ele>
        <time>2012-02-26T10:21:50.66</time>
      </trkpt>
      <trkpt lat="48.43082" lon="-4.34906">
        <ele>153</ele>
        <time>2012-02-26T10:21:51.66</time>
      </trkpt>
      <trkpt lat="48.43079" lon="-4.34902">
        <ele>153</ele>
        <time>2012-02-26T10:21:52.66</time>
      </trkpt>
      <trkpt lat="48.43077" lon="-4.349">
        <ele>153</ele>
        <time>2012-02-26T10:21:53.66</time>
      </trkpt>
      <trkpt lat="48.43074" lon="-4.34898">
        <ele>153</ele>
        <time>2012-02-26T10:21:54.66</time>
      </trkpt>
      <trkpt lat="48.43072" lon="-4.34893">
        <ele>153</ele>
        <time>2012-02-26T10:21:55.66</time>
      </trkpt>
      <trkpt lat="48.4307" lon="-4.34891">
        <ele>153</ele>
        <time>2012-02-26T10:21:56.66</time>
      </trkpt>
      <trkpt lat="48.43067" lon="-4.34889">
        <ele>153</ele>
        <time>2012-02-26T10:21:57.66</time>
      </trkpt>
      <trkpt lat="48.43065" lon="-4.34885">
        <ele>153</ele>
        <time>2012-02-26T10:21:58.66</time>
      </trkpt>
      <trkpt lat="48.43063" lon="-4.34883">
        <ele>153</ele>
        <time>2012-02-26T10:21:59.66</time>
      </trkpt>
      <trkpt lat="48.43061" lon="-4.3488">
        <ele>153</ele>
        <time>2012-02-26T10:22:00.66</time>
      </trkpt>
      <trkpt lat="48.43059" lon="-4.34878">
        <ele>153</ele>
        <time>2012-02-26T10:22:01.70</time>
      </trkpt>
      <trkpt lat="48.43057" lon="-4.34876">
        <ele>153</ele>
        <time>2012-02-26T10:22:02.67</time>
      </trkpt>
      <trkpt lat="48.43056" lon="-4.34874">
        <ele>153</ele>
        <time>2012-02-26T10:22:03.65</time>
      </trkpt>
      <trkpt lat="48.43055" lon="-4.34872">
        <ele>153</ele>
        <time>2012-02-26T10:22:04.66</time>
      </trkpt>
      <trkpt lat="48.43053" lon="-4.3487">
        <ele>153</ele>
        <time>2012-02-26T10:22:05.66</time>
      </trkpt>
      <trkpt lat="48.43052" lon="-4.34868">
        <ele>153</ele>
        <time>2012-02-26T10:22:06.66</time>
      </trkpt>
      <trkpt lat="48.43052" lon="-4.34865">
        <ele>153</ele>
        <time>2012-02-26T10:22:07.66</time>
      </trkpt>
      <trkpt lat="48.43051" lon="-4.34865">
        <ele>153</ele>
        <time>2012-02-26T10:22:08.66</time>
      </trkpt>
      <trkpt lat="48.43051" lon="-4.3487">
        <ele>154</ele>
        <time>2012-02-26T10:22:15.66</time>
      </trkpt>
      <trkpt lat="48.43053" lon="-4.34874">
        <ele>154</ele>
        <time>2012-02-26T10:22:16.65</time>
      </trkpt>
      <trkpt lat="48.43057" lon="-4.34878">
        <ele>155</ele>
        <time>2012-02-26T10:22:17.65</time>
      </trkpt>
      <trkpt lat="48.4306" lon="-4.34885">
        <ele>155</ele>
        <time>2012-02-26T10:22:18.65</time>
      </trkpt>
      <trkpt lat="48.43063" lon="-4.34889">
        <ele>155</ele>
        <time>2012-02-26T10:22:19.65</time>
      </trkpt>
      <trkpt lat="48.43067" lon="-4.34896">
        <ele>155</ele>
        <time>2012-02-26T10:22:20.65</time>
      </trkpt>
      <trkpt lat="48.43072" lon="-4.349">
        <ele>156</ele>
        <time>2012-02-26T10:22:21.66</time>
      </trkpt>
      <trkpt lat="48.43076" lon="-4.34906">
        <ele>156</ele>
        <time>2012-02-26T10:22:22.66</time>
      </trkpt>
      <trkpt lat="48.43081" lon="-4.34911">
        <ele>156</ele>
        <time>2012-02-26T10:22:23.66</time>
      </trkpt>
      <trkpt lat="48.43087" lon="-4.34915">
        <ele>156</ele>
        <time>2012-02-26T10:22:24.67</time>
      </trkpt>
      <trkpt lat="48.43092" lon="-4.34919">
        <ele>156</ele>
        <time>2012-02-26T10:22:25.65</time>
      </trkpt>
      <trkpt lat="48.43097" lon="-4.34923">
        <ele>156</ele>
        <time>2012-02-26T10:22:26.66</time>
      </trkpt>
      <trkpt lat="48.43104" lon="-4.3493">
        <ele>156</ele>
        <time>2012-02-26T10:22:27.65</time>
      </trkpt>
      <trkpt lat="48.43109" lon="-4.34934">
        <ele>156</ele>
        <time>2012-02-26T10:22:28.65</time>
      </trkpt>
      <trkpt lat="48.43115" lon="-4.34938">
        <ele>156</ele>
        <time>2012-02-26T10:22:29.66</time>
      </trkpt>
      <trkpt lat="48.43121" lon="-4.34945">
        <ele>156</ele>
        <time>2012-02-26T10:22:30.66</time>
      </trkpt>
      <trkpt lat="48.43126" lon="-4.34949">
        <ele>156</ele>
        <time>2012-02-26T10:22:31.70</time>
      </trkpt>
      <trkpt lat="48.43132" lon="-4.34956">
        <ele>156</ele>
        <time>2012-02-26T10:22:32.66</time>
      </trkpt>
      <trkpt lat="48.43136" lon="-4.34962">
        <ele>156</ele>
        <time>2012-02-26T10:22:33.66</time>
      </trkpt>
      <trkpt lat="48.43141" lon="-4.34968">
        <ele>155</ele>
        <time>2012-02-26T10:22:34.67</time>
      </trkpt>
      <trkpt lat="48.43146" lon="-4.34977">
        <ele>155</ele>
        <time>2012-02-26T10:22:35.66</time>
      </trkpt>
      <trkpt lat="48.4315" lon="-4.34983">
        <ele>155</ele>
        <time>2012-02-26T10:22:36.66</time>
      </trkpt>
      <trkpt lat="48.43153" lon="-4.34992">
        <ele>155</ele>
        <time>2012-02-26T10:22:37.67</time>
      </trkpt>
      <trkpt lat="48.43155" lon="-4.35001">
        <ele>155</ele>
        <time>2012-02-26T10:22:38.66</time>
      </trkpt>
      <trkpt lat="48.43159" lon="-4.35009">
        <ele>156</ele>
        <time>2012-02-26T10:22:39.66</time>
      </trkpt>
      <trkpt lat="48.43161" lon="-4.35018">
        <ele>156</ele>
        <time>2012-02-26T10:22:40.67</time>
      </trkpt>
      <trkpt lat="48.43163" lon="-4.35029">
        <ele>156</ele>
        <time>2012-02-26T10:22:41.65</time>
      </trkpt>
      <trkpt lat="48.43164" lon="-4.35039">
        <ele>156</ele>
        <time>2012-02-26T10:22:42.65</time>
      </trkpt>
      <trkpt lat="48.43166" lon="-4.3505">
        <ele>156</ele>
        <time>2012-02-26T10:22:43.65</time>
      </trkpt>
      <trkpt lat="48.43167" lon="-4.35061">
        <ele>156</ele>
        <time>2012-02-26T10:22:44.65</time>
      </trkpt>
      <trkpt lat="48.43168" lon="-4.35071">
        <ele>156</ele>
        <time>2012-02-26T10:22:45.66</time>
      </trkpt>
      <trkpt lat="48.43168" lon="-4.35082">
        <ele>156</ele>
        <time>2012-02-26T10:22:46.65</time>
      </trkpt>
      <trkpt lat="48.43168" lon="-4.35093">
        <ele>156</ele>
        <time>2012-02-26T10:22:47.65</time>
      </trkpt>
      <trkpt lat="48.43168" lon="-4.35102">
        <ele>156</ele>
        <time>2012-02-26T10:22:48.67</time>
      </trkpt>
      <trkpt lat="48.43168" lon="-4.3511">
        <ele>156</ele>
        <time>2012-02-26T10:22:49.66</time>
      </trkpt>
      <trkpt lat="48.43167" lon="-4.35119">
        <ele>156</ele>
        <time>2012-02-26T10:22:50.65</time>
      </trkpt>
      <trkpt lat="48.43167" lon="-4.35127">
        <ele>156</ele>
        <time>2012-02-26T10:22:51.66</time>
      </trkpt>
      <trkpt lat="48.43167" lon="-4.35136">
        <ele>156</ele>
        <time>2012-02-26T10:22:52.66</time>
      </trkpt>
      <trkpt lat="48.43167" lon="-4.35142">
        <ele>156</ele>
        <time>2012-02-26T10:22:53.65</time>
      </trkpt>
      <trkpt lat="48.43168" lon="-4.35151">
        <ele>156</ele>
        <time>2012-02-26T10:22:54.66</time>
      </trkpt>
      <trkpt lat="48.43168" lon="-4.35159">
        <ele>156</ele>
        <time>2012-02-26T10:22:55.66</time>
      </trkpt>
      <trkpt lat="48.43168" lon="-4.35168">
        <ele>156</ele>
        <time>2012-02-26T10:22:56.67</time>
      </trkpt>
      <trkpt lat="48.43168" lon="-4.35177">
        <ele>156</ele>
        <time>2012-02-26T10:22:57.66</time>
      </trkpt>
      <trkpt lat="48.43168" lon="-4.35183">
        <ele>156</ele>
        <time>2012-02-26T10:22:58.66</time>
      </trkpt>
      <trkpt lat="48.43168" lon="-4.35192">
        <ele>156</ele>
        <time>2012-02-26T10:22:59.71</time>
      </trkpt>
      <trkpt lat="48.43168" lon="-4.352">
        <ele>156</ele>
        <time>2012-02-26T10:23:00.66</time>
      </trkpt>
      <trkpt lat="48.43169" lon="-4.35209">
        <ele>156</ele>
        <time>2012-02-26T10:23:01.66</time>
      </trkpt>
      <trkpt lat="48.4317" lon="-4.35217">
        <ele>156</ele>
        <time>2012-02-26T10:23:02.65</time>
      </trkpt>
      <trkpt lat="48.43175" lon="-4.35226">
        <ele>156</ele>
        <time>2012-02-26T10:23:03.65</time>
      </trkpt>
      <trkpt lat="48.43179" lon="-4.35232">
        <ele>156</ele>
        <time>2012-02-26T10:23:04.66</time>
      </trkpt>
      <trkpt lat="48.43185" lon="-4.35239">
        <ele>156</ele>
        <time>2012-02-26T10:23:05.67</time>
      </trkpt>
      <trkpt lat="48.43192" lon="-4.35241">
        <ele>155</ele>
        <time>2012-02-26T10:23:06.65</time>
      </trkpt>
      <trkpt lat="48.43198" lon="-4.35243">
        <ele>155</ele>
        <time>2012-02-26T10:23:07.66</time>
      </trkpt>
      <trkpt lat="48.43205" lon="-4.35243">
        <ele>155</ele>
        <time>2012-02-26T10:23:08.66</time>
      </trkpt>
      <trkpt lat="48.43211" lon="-4.35243">
        <ele>155</ele>
        <time>2012-02-26T10:23:09.73</time>
      </trkpt>
      <trkpt lat="48.43217" lon="-4.35241">
        <ele>155</ele>
        <time>2012-02-26T10:23:10.65</time>
      </trkpt>
      <trkpt lat="48.43223" lon="-4.35239">
        <ele>155</ele>
        <time>2012-02-26T10:23:11.66</time>
      </trkpt>
      <trkpt lat="48.43229" lon="-4.35237">
        <ele>155</ele>
        <time>2012-02-26T10:23:12.65</time>
      </trkpt>
      <trkpt lat="48.43235" lon="-4.35235">
        <ele>155</ele>
        <time>2012-02-26T10:23:13.66</time>
      </trkpt>
      <trkpt lat="48.4324" lon="-4.35232">
        <ele>155</ele>
        <time>2012-02-26T10:23:14.66</time>
      </trkpt>
      <trkpt lat="48.43246" lon="-4.3523">
        <ele>155</ele>
        <time>2012-02-26T10:23:15.67</time>
      </trkpt>
      <trkpt lat="48.43252" lon="-4.35228">
        <ele>155</ele>
        <time>2012-02-26T10:23:16.66</time>
      </trkpt>
      <trkpt lat="48.43257" lon="-4.35226">
        <ele>155</ele>
        <time>2012-02-26T10:23:17.66</time>
      </trkpt>
      <trkpt lat="48.43263" lon="-4.35224">
        <ele>155</ele>
        <time>2012-02-26T10:23:18.67</time>
      </trkpt>
      <trkpt lat="48.43268" lon="-4.35222">
        <ele>155</ele>
        <time>2012-02-26T10:23:19.66</time>
      </trkpt>
      <trkpt lat="48.43273" lon="-4.3522">
        <ele>155</ele>
        <time>2012-02-26T10:23:20.66</time>
      </trkpt>
      <trkpt lat="48.43278" lon="-4.3522">
        <ele>155</ele>
        <time>2012-02-26T10:23:21.71</time>
      </trkpt>
      <trkpt lat="48.43283" lon="-4.35217">
        <ele>155</ele>
        <time>2012-02-26T10:23:22.66</time>
      </trkpt>
      <trkpt lat="48.43288" lon="-4.35215">
        <ele>155</ele>
        <time>2012-02-26T10:23:23.65</time>
      </trkpt>
      <trkpt lat="48.43294" lon="-4.35213">
        <ele>155</ele>
        <time>2012-02-26T10:23:24.67</time>
      </trkpt>
      <trkpt lat="48.43299" lon="-4.35211">
        <ele>155</ele>
        <time>2012-02-26T10:23:25.65</time>
      </trkpt>
      <trkpt lat="48.43305" lon="-4.35211">
        <ele>155</ele>
        <time>2012-02-26T10:23:26.66</time>
      </trkpt>
      <trkpt lat="48.4331" lon="-4.35209">
        <ele>155</ele>
        <time>2012-02-26T10:23:27.67</time>
      </trkpt>
      <trkpt lat="48.43316" lon="-4.35207">
        <ele>155</ele>
        <time>2012-02-26T10:23:28.65</time>
      </trkpt>
      <trkpt lat="48.43322" lon="-4.35205">
        <ele>155</ele>
        <time>2012-02-26T10:23:29.64</time>
      </trkpt>
      <trkpt lat="48.43328" lon="-4.35205">
        <ele>155</ele>
        <time>2012-02-26T10:23:30.67</time>
      </trkpt>
      <trkpt lat="48.43333" lon="-4.35202">
        <ele>155</ele>
        <time>2012-02-26T10:23:31.65</time>
      </trkpt>
      <trkpt lat="48.4334" lon="-4.35202">
        <ele>155</ele>
        <time>2012-02-26T10:23:32.66</time>
      </trkpt>
      <trkpt lat="48.43345" lon="-4.352">
        <ele>154</ele>
        <time>2012-02-26T10:23:33.73</time>
      </trkpt>
      <trkpt lat="48.43352" lon="-4.35198">
        <ele>154</ele>
        <time>2012-02-26T10:23:34.67</time>
      </trkpt>
      <trkpt lat="48.43357" lon="-4.35198">
        <ele>154</ele>
        <time>2012-02-26T10:23:35.66</time>
      </trkpt>
      <trkpt lat="48.43362" lon="-4.35196">
        <ele>154</ele>
        <time>2012-02-26T10:23:36.66</time>
      </trkpt>
      <trkpt lat="48.43368" lon="-4.35194">
        <ele>154</ele>
        <time>2012-02-26T10:23:37.67</time>
      </trkpt>
      <trkpt lat="48.43374" lon="-4.35194">
        <ele>154</ele>
        <time>2012-02-26T10:23:38.66</time>
      </trkpt>
      <trkpt lat="48.4338" lon="-4.35192">
        <ele>154</ele>
        <time>2012-02-26T10:23:39.66</time>
      </trkpt>
      <trkpt lat="48.43385" lon="-4.35189">
        <ele>154</ele>
        <time>2012-02-26T10:23:40.67</time>
      </trkpt>
      <trkpt lat="48.43389" lon="-4.35189">
        <ele>154</ele>
        <time>2012-02-26T10:23:41.64</time>
      </trkpt>
      <trkpt lat="48.43394" lon="-4.35187">
        <ele>155</ele>
        <time>2012-02-26T10:23:42.66</time>
      </trkpt>
      <trkpt lat="48.43398" lon="-4.35185">
        <ele>155</ele>
        <time>2012-02-26T10:23:43.70</time>
      </trkpt>
      <trkpt lat="48.43402" lon="-4.35185">
        <ele>155</ele>
        <time>2012-02-26T10:23:44.66</time>
      </trkpt>
      <trkpt lat="48.43408" lon="-4.35183">
        <ele>155</ele>
        <time>2012-02-26T10:23:45.66</time>
      </trkpt>
      <trkpt lat="48.43412" lon="-4.35183">
        <ele>155</ele>
        <time>2012-02-26T10:23:46.66</time>
      </trkpt>
      <trkpt lat="48.43416" lon="-4.35183">
        <ele>155</ele>
        <time>2012-02-26T10:23:47.66</time>
      </trkpt>
      <trkpt lat="48.4342" lon="-4.35181">
        <ele>155</ele>
        <time>2012-02-26T10:23:48.66</time>
      </trkpt>
      <trkpt lat="48.43426" lon="-4.35181">
        <ele>155</ele>
        <time>2012-02-26T10:23:49.67</time>
      </trkpt>
      <trkpt lat="48.4343" lon="-4.35179">
        <ele>155</ele>
        <time>2012-02-26T10:23:50.65</time>
      </trkpt>
      <trkpt lat="48.43435" lon="-4.35179">
        <ele>154</ele>
        <time>2012-02-26T10:23:51.66</time>
      </trkpt>
      <trkpt lat="48.43441" lon="-4.35177">
        <ele>154</ele>
        <time>2012-02-26T10:23:52.67</time>
      </trkpt>
      <trkpt lat="48.43446" lon="-4.35177">
        <ele>154</ele>
        <time>2012-02-26T10:23:53.66</time>
      </trkpt>
      <trkpt lat="48.43451" lon="-4.35177">
        <ele>154</ele>
        <time>2012-02-26T10:23:54.66</time>
      </trkpt>
      <trkpt lat="48.43457" lon="-4.35177">
        <ele>154</ele>
        <time>2012-02-26T10:23:55.67</time>
      </trkpt>
      <trkpt lat="48.43462" lon="-4.35177">
        <ele>154</ele>
        <time>2012-02-26T10:23:56.67</time>
      </trkpt>
      <trkpt lat="48.43468" lon="-4.35177">
        <ele>154</ele>
        <time>2012-02-26T10:23:57.66</time>
      </trkpt>
      <trkpt lat="48.43473" lon="-4.35177">
        <ele>154</ele>
        <time>2012-02-26T10:23:58.67</time>
      </trkpt>
      <trkpt lat="48.43477" lon="-4.35177">
        <ele>154</ele>
        <time>2012-02-26T10:23:59.67</time>
      </trkpt>
      <trkpt lat="48.43483" lon="-4.35177">
        <ele>154</ele>
        <time>2012-02-26T10:24:00.66</time>
      </trkpt>
      <trkpt lat="48.43488" lon="-4.35177">
        <ele>154</ele>
        <time>2012-02-26T10:24:01.66</time>
      </trkpt>
      <trkpt lat="48.43493" lon="-4.35177">
        <ele>153</ele>
        <time>2012-02-26T10:24:02.67</time>
      </trkpt>
      <trkpt lat="48.43499" lon="-4.35177">
        <ele>153</ele>
        <time>2012-02-26T10:24:03.66</time>
      </trkpt>
      <trkpt lat="48.43504" lon="-4.35177">
        <ele>153</ele>
        <time>2012-02-26T10:24:04.66</time>
      </trkpt>
      <trkpt lat="48.43511" lon="-4.35177">
        <ele>153</ele>
        <time>2012-02-26T10:24:05.67</time>
      </trkpt>
      <trkpt lat="48.43516" lon="-4.35177">
        <ele>153</ele>
        <time>2012-02-26T10:24:06.66</time>
      </trkpt>
      <trkpt lat="48.43521" lon="-4.35177">
        <ele>153</ele>
        <time>2012-02-26T10:24:07.66</time>
      </trkpt>
      <trkpt lat="48.43527" lon="-4.35174">
        <ele>153</ele>
        <time>2012-02-26T10:24:08.67</time>
      </trkpt>
      <trkpt lat="48.43532" lon="-4.35177">
        <ele>153</ele>
        <time>2012-02-26T10:24:09.66</time>
      </trkpt>
      <trkpt lat="48.43537" lon="-4.35174">
        <ele>154</ele>
        <time>2012-02-26T10:24:10.66</time>
      </trkpt>
      <trkpt lat="48.43543" lon="-4.35174">
        <ele>154</ele>
        <time>2012-02-26T10:24:11.67</time>
      </trkpt>
      <trkpt lat="48.43548" lon="-4.35174">
        <ele>153</ele>
        <time>2012-02-26T10:24:12.65</time>
      </trkpt>
      <trkpt lat="48.43552" lon="-4.35172">
        <ele>153</ele>
        <time>2012-02-26T10:24:13.66</time>
      </trkpt>
      <trkpt lat="48.43554" lon="-4.35168">
        <ele>153</ele>
        <time>2012-02-26T10:24:14.66</time>
      </trkpt>
      <trkpt lat="48.43557" lon="-4.35164">
        <ele>153</ele>
        <time>2012-02-26T10:24:15.67</time>
      </trkpt>
      <trkpt lat="48.43558" lon="-4.35155">
        <ele>153</ele>
        <time>2012-02-26T10:24:16.66</time>
      </trkpt>
      <trkpt lat="48.43559" lon="-4.35149">
        <ele>153</ele>
        <time>2012-02-26T10:24:17.67</time>
      </trkpt>
      <trkpt lat="48.43559" lon="-4.35142">
        <ele>153</ele>
        <time>2012-02-26T10:24:18.67</time>
      </trkpt>
      <trkpt lat="48.4356" lon="-4.35134">
        <ele>153</ele>
        <time>2012-02-26T10:24:19.66</time>
      </trkpt>
      <trkpt lat="48.43561" lon="-4.35125">
        <ele>153</ele>
        <time>2012-02-26T10:24:20.67</time>
      </trkpt>
      <trkpt lat="48.43561" lon="-4.35119">
        <ele>153</ele>
        <time>2012-02-26T10:24:21.68</time>
      </trkpt>
      <trkpt lat="48.43562" lon="-4.3511">
        <ele>153</ele>
        <time>2012-02-26T10:24:22.65</time>
      </trkpt>
      <trkpt lat="48.43564" lon="-4.35102">
        <ele>153</ele>
        <time>2012-02-26T10:24:23.65</time>
      </trkpt>
      <trkpt lat="48.43565" lon="-4.35095">
        <ele>152</ele>
        <time>2012-02-26T10:24:24.65</time>
      </trkpt>
      <trkpt lat="48.43566" lon="-4.35086">
        <ele>152</ele>
        <time>2012-02-26T10:24:25.66</time>
      </trkpt>
      <trkpt lat="48.43568" lon="-4.35078">
        <ele>152</ele>
        <time>2012-02-26T10:24:26.65</time>
      </trkpt>
      <trkpt lat="48.4357" lon="-4.35069">
        <ele>152</ele>
        <time>2012-02-26T10:24:27.66</time>
      </trkpt>
      <trkpt lat="48.43571" lon="-4.35061">
        <ele>152</ele>
        <time>2012-02-26T10:24:28.65</time>
      </trkpt>
      <trkpt lat="48.43572" lon="-4.35052">
        <ele>151</ele>
        <time>2012-02-26T10:24:29.66</time>
      </trkpt>
      <trkpt lat="48.43573" lon="-4.35044">
        <ele>151</ele>
        <time>2012-02-26T10:24:30.65</time>
      </trkpt>
      <trkpt lat="48.43575" lon="-4.35033">
        <ele>151</ele>
        <time>2012-02-26T10:24:31.66</time>
      </trkpt>
      <trkpt lat="48.43576" lon="-4.35024">
        <ele>151</ele>
        <time>2012-02-26T10:24:32.66</time>
      </trkpt>
      <trkpt lat="48.43578" lon="-4.35014">
        <ele>150</ele>
        <time>2012-02-26T10:24:33.66</time>
      </trkpt>
      <trkpt lat="48.43579" lon="-4.35005">
        <ele>150</ele>
        <time>2012-02-26T10:24:34.67</time>
      </trkpt>
      <trkpt lat="48.4358" lon="-4.34994">
        <ele>150</ele>
        <time>2012-02-26T10:24:35.66</time>
      </trkpt>
      <trkpt lat="48.43582" lon="-4.34983">
        <ele>150</ele>
        <time>2012-02-26T10:24:36.65</time>
      </trkpt>
      <trkpt lat="48.43583" lon="-4.34973">
        <ele>150</ele>
        <time>2012-02-26T10:24:37.66</time>
      </trkpt>
      <trkpt lat="48.43586" lon="-4.34962">
        <ele>150</ele>
        <time>2012-02-26T10:24:38.66</time>
      </trkpt>
      <trkpt lat="48.43587" lon="-4.34951">
        <ele>150</ele>
        <time>2012-02-26T10:24:39.66</time>
      </trkpt>
      <trkpt lat="48.43588" lon="-4.34941">
        <ele>150</ele>
        <time>2012-02-26T10:24:40.66</time>
      </trkpt>
      <trkpt lat="48.4359" lon="-4.3493">
        <ele>150</ele>
        <time>2012-02-26T10:24:41.66</time>
      </trkpt>
      <trkpt lat="48.4359" lon="-4.34917">
        <ele>150</ele>
        <time>2012-02-26T10:24:42.66</time>
      </trkpt>
      <trkpt lat="48.43591" lon="-4.34906">
        <ele>149</ele>
        <time>2012-02-26T10:24:43.66</time>
      </trkpt>
      <trkpt lat="48.43591" lon="-4.34893">
        <ele>149</ele>
        <time>2012-02-26T10:24:44.66</time>
      </trkpt>
      <trkpt lat="48.43591" lon="-4.34883">
        <ele>149</ele>
        <time>2012-02-26T10:24:45.66</time>
      </trkpt>
      <trkpt lat="48.4359" lon="-4.3487">
        <ele>149</ele>
        <time>2012-02-26T10:24:46.66</time>
      </trkpt>
      <trkpt lat="48.4359" lon="-4.34859">
        <ele>149</ele>
        <time>2012-02-26T10:24:47.66</time>
      </trkpt>
      <trkpt lat="48.43589" lon="-4.34848">
        <ele>148</ele>
        <time>2012-02-26T10:24:48.66</time>
      </trkpt>
      <trkpt lat="48.43588" lon="-4.34838">
        <ele>148</ele>
        <time>2012-02-26T10:24:49.66</time>
      </trkpt>
      <trkpt lat="48.43587" lon="-4.34827">
        <ele>148</ele>
        <time>2012-02-26T10:24:50.66</time>
      </trkpt>
      <trkpt lat="48.43586" lon="-4.34816">
        <ele>148</ele>
        <time>2012-02-26T10:24:51.66</time>
      </trkpt>
      <trkpt lat="48.43585" lon="-4.34805">
        <ele>148</ele>
        <time>2012-02-26T10:24:52.66</time>
      </trkpt>
      <trkpt lat="48.43582" lon="-4.34797">
        <ele>148</ele>
        <time>2012-02-26T10:24:53.66</time>
      </trkpt>
      <trkpt lat="48.43582" lon="-4.34788">
        <ele>148</ele>
        <time>2012-02-26T10:24:54.66</time>
      </trkpt>
      <trkpt lat="48.43582" lon="-4.3478">
        <ele>148</ele>
        <time>2012-02-26T10:24:55.66</time>
      </trkpt>
      <trkpt lat="48.43582" lon="-4.34773">
        <ele>148</ele>
        <time>2012-02-26T10:24:56.66</time>
      </trkpt>
      <trkpt lat="48.43585" lon="-4.34767">
        <ele>148</ele>
        <time>2012-02-26T10:24:57.66</time>
      </trkpt>
      <trkpt lat="48.43588" lon="-4.34762">
        <ele>148</ele>
        <time>2012-02-26T10:24:58.66</time>
      </trkpt>
      <trkpt lat="48.43592" lon="-4.3476">
        <ele>148</ele>
        <time>2012-02-26T10:24:59.66</time>
      </trkpt>
      <trkpt lat="48.43596" lon="-4.3476">
        <ele>148</ele>
        <time>2012-02-26T10:25:00.66</time>
      </trkpt>
      <trkpt lat="48.43601" lon="-4.34758">
        <ele>148</ele>
        <time>2012-02-26T10:25:01.66</time>
      </trkpt>
      <trkpt lat="48.43605" lon="-4.34758">
        <ele>148</ele>
        <time>2012-02-26T10:25:02.66</time>
      </trkpt>
      <trkpt lat="48.4361" lon="-4.34758">
        <ele>148</ele>
        <time>2012-02-26T10:25:03.66</time>
      </trkpt>
      <trkpt lat="48.43616" lon="-4.34756">
        <ele>148</ele>
        <time>2012-02-26T10:25:04.66</time>
      </trkpt>
      <trkpt lat="48.43621" lon="-4.34756">
        <ele>148</ele>
        <time>2012-02-26T10:25:05.66</time>
      </trkpt>
      <trkpt lat="48.43626" lon="-4.34756">
        <ele>148</ele>
        <time>2012-02-26T10:25:06.66</time>
      </trkpt>
      <trkpt lat="48.43633" lon="-4.34754">
        <ele>148</ele>
        <time>2012-02-26T10:25:07.66</time>
      </trkpt>
      <trkpt lat="48.43638" lon="-4.34752">
        <ele>148</ele>
        <time>2012-02-26T10:25:08.66</time>
      </trkpt>
      <trkpt lat="48.43644" lon="-4.34752">
        <ele>149</ele>
        <time>2012-02-26T10:25:09.66</time>
      </trkpt>
      <trkpt lat="48.43649" lon="-4.3475">
        <ele>149</ele>
        <time>2012-02-26T10:25:10.66</time>
      </trkpt>
      <trkpt lat="48.43654" lon="-4.3475">
        <ele>149</ele>
        <time>2012-02-26T10:25:11.66</time>
      </trkpt>
      <trkpt lat="48.4366" lon="-4.3475">
        <ele>149</ele>
        <time>2012-02-26T10:25:12.66</time>
      </trkpt>
      <trkpt lat="48.43665" lon="-4.3475">
        <ele>149</ele>
        <time>2012-02-26T10:25:13.66</time>
      </trkpt>
      <trkpt lat="48.43669" lon="-4.3475">
        <ele>149</ele>
        <time>2012-02-26T10:25:14.66</time>
      </trkpt>
      <trkpt lat="48.43675" lon="-4.34752">
        <ele>149</ele>
        <time>2012-02-26T10:25:15.65</time>
      </trkpt>
      <trkpt lat="48.4368" lon="-4.34752">
        <ele>149</ele>
        <time>2012-02-26T10:25:16.67</time>
      </trkpt>
      <trkpt lat="48.43683" lon="-4.3475">
        <ele>149</ele>
        <time>2012-02-26T10:25:17.66</time>
      </trkpt>
      <trkpt lat="48.43688" lon="-4.34747">
        <ele>149</ele>
        <time>2012-02-26T10:25:18.66</time>
      </trkpt>
      <trkpt lat="48.4369" lon="-4.34741">
        <ele>149</ele>
        <time>2012-02-26T10:25:19.66</time>
      </trkpt>
      <trkpt lat="48.43692" lon="-4.34735">
        <ele>149</ele>
        <time>2012-02-26T10:25:20.67</time>
      </trkpt>
      <trkpt lat="48.43694" lon="-4.34728">
        <ele>149</ele>
        <time>2012-02-26T10:25:21.66</time>
      </trkpt>
      <trkpt lat="48.43697" lon="-4.34722">
        <ele>148</ele>
        <time>2012-02-26T10:25:22.66</time>
      </trkpt>
      <trkpt lat="48.43699" lon="-4.34715">
        <ele>147</ele>
        <time>2012-02-26T10:25:23.66</time>
      </trkpt>
      <trkpt lat="48.43701" lon="-4.34709">
        <ele>146</ele>
        <time>2012-02-26T10:25:24.66</time>
      </trkpt>
      <trkpt lat="48.43703" lon="-4.34702">
        <ele>145</ele>
        <time>2012-02-26T10:25:25.66</time>
      </trkpt>
      <trkpt lat="48.43704" lon="-4.34696">
        <ele>144</ele>
        <time>2012-02-26T10:25:26.66</time>
      </trkpt>
      <trkpt lat="48.43705" lon="-4.3469">
        <ele>143</ele>
        <time>2012-02-26T10:25:27.66</time>
      </trkpt>
      <trkpt lat="48.43706" lon="-4.34683">
        <ele>143</ele>
        <time>2012-02-26T10:25:28.64</time>
      </trkpt>
      <trkpt lat="48.43707" lon="-4.34677">
        <ele>142</ele>
        <time>2012-02-26T10:25:29.66</time>
      </trkpt>
      <trkpt lat="48.43709" lon="-4.3467">
        <ele>142</ele>
        <time>2012-02-26T10:25:30.67</time>
      </trkpt>
      <trkpt lat="48.4371" lon="-4.34662">
        <ele>141</ele>
        <time>2012-02-26T10:25:31.66</time>
      </trkpt>
      <trkpt lat="48.43711" lon="-4.34653">
        <ele>141</ele>
        <time>2012-02-26T10:25:32.66</time>
      </trkpt>
      <trkpt lat="48.43712" lon="-4.34647">
        <ele>141</ele>
        <time>2012-02-26T10:25:33.64</time>
      </trkpt>
      <trkpt lat="48.43714" lon="-4.3464">
        <ele>140</ele>
        <time>2012-02-26T10:25:34.67</time>
      </trkpt>
      <trkpt lat="48.43717" lon="-4.34634">
        <ele>140</ele>
        <time>2012-02-26T10:25:35.66</time>
      </trkpt>
      <trkpt lat="48.43719" lon="-4.34625">
        <ele>140</ele>
        <time>2012-02-26T10:25:36.64</time>
      </trkpt>
      <trkpt lat="48.43721" lon="-4.34619">
        <ele>139</ele>
        <time>2012-02-26T10:25:37.66</time>
      </trkpt>
      <trkpt lat="48.43723" lon="-4.3461">
        <ele>139</ele>
        <time>2012-02-26T10:25:38.67</time>
      </trkpt>
      <trkpt lat="48.43724" lon="-4.34604">
        <ele>139</ele>
        <time>2012-02-26T10:25:39.66</time>
      </trkpt>
      <trkpt lat="48.43726" lon="-4.34597">
        <ele>139</ele>
        <time>2012-02-26T10:25:40.66</time>
      </trkpt>
      <trkpt lat="48.43727" lon="-4.34591">
        <ele>139</ele>
        <time>2012-02-26T10:25:41.66</time>
      </trkpt>
      <trkpt lat="48.43728" lon="-4.34587">
        <ele>139</ele>
        <time>2012-02-26T10:25:42.66</time>
      </trkpt>
      <trkpt lat="48.43729" lon="-4.3458">
        <ele>139</ele>
        <time>2012-02-26T10:25:43.66</time>
      </trkpt>
      <trkpt lat="48.43729" lon="-4.34569">
        <ele>139</ele>
        <time>2012-02-26T10:25:47.66</time>
      </trkpt>
      <trkpt lat="48.43729" lon="-4.34565">
        <ele>139</ele>
        <time>2012-02-26T10:25:48.66</time>
      </trkpt>
      <trkpt lat="48.43729" lon="-4.34561">
        <ele>139</ele>
        <time>2012-02-26T10:25:49.66</time>
      </trkpt>
      <trkpt lat="48.4373" lon="-4.34556">
        <ele>139</ele>
        <time>2012-02-26T10:25:50.66</time>
      </trkpt>
      <trkpt lat="48.4373" lon="-4.34554">
        <ele>139</ele>
        <time>2012-02-26T10:25:51.66</time>
      </trkpt>
      <trkpt lat="48.4373" lon="-4.3455">
        <ele>139</ele>
        <time>2012-02-26T10:25:52.66</time>
      </trkpt>
      <trkpt lat="48.43732" lon="-4.34546">
        <ele>139</ele>
        <time>2012-02-26T10:25:53.66</time>
      </trkpt>
      <trkpt lat="48.43732" lon="-4.34541">
        <ele>139</ele>
        <time>2012-02-26T10:25:54.64</time>
      </trkpt>
      <trkpt lat="48.43734" lon="-4.34529">
        <ele>139</ele>
        <time>2012-02-26T10:25:57.66</time>
      </trkpt>
      <trkpt lat="48.43735" lon="-4.34524">
        <ele>139</ele>
        <time>2012-02-26T10:25:58.66</time>
      </trkpt>
      <trkpt lat="48.43735" lon="-4.34518">
        <ele>139</ele>
        <time>2012-02-26T10:25:59.66</time>
      </trkpt>
      <trkpt lat="48.43736" lon="-4.34514">
        <ele>139</ele>
        <time>2012-02-26T10:26:00.66</time>
      </trkpt>
      <trkpt lat="48.43736" lon="-4.34509">
        <ele>139</ele>
        <time>2012-02-26T10:26:01.66</time>
      </trkpt>
      <trkpt lat="48.43737" lon="-4.34503">
        <ele>139</ele>
        <time>2012-02-26T10:26:02.66</time>
      </trkpt>
      <trkpt lat="48.43738" lon="-4.34499">
        <ele>139</ele>
        <time>2012-02-26T10:26:03.66</time>
      </trkpt>
      <trkpt lat="48.43739" lon="-4.34494">
        <ele>139</ele>
        <time>2012-02-26T10:26:04.66</time>
      </trkpt>
      <trkpt lat="48.4374" lon="-4.3449">
        <ele>139</ele>
        <time>2012-02-26T10:26:05.66</time>
      </trkpt>
      <trkpt lat="48.4374" lon="-4.34486">
        <ele>139</ele>
        <time>2012-02-26T10:26:06.66</time>
      </trkpt>
      <trkpt lat="48.43742" lon="-4.34479">
        <ele>139</ele>
        <time>2012-02-26T10:26:08.66</time>
      </trkpt>
      <trkpt lat="48.43743" lon="-4.34477">
        <ele>139</ele>
        <time>2012-02-26T10:26:09.66</time>
      </trkpt>
      <trkpt lat="48.43744" lon="-4.34475">
        <ele>139</ele>
        <time>2012-02-26T10:26:10.66</time>
      </trkpt>
      <trkpt lat="48.43747" lon="-4.34469">
        <ele>138</ele>
        <time>2012-02-26T10:26:12.64</time>
      </trkpt>
      <trkpt lat="48.4375" lon="-4.34458">
        <ele>138</ele>
        <time>2012-02-26T10:26:16.66</time>
      </trkpt>
      <trkpt lat="48.4375" lon="-4.34456">
        <ele>138</ele>
        <time>2012-02-26T10:26:17.64</time>
      </trkpt>
      <trkpt lat="48.43755" lon="-4.34441">
        <ele>138</ele>
        <time>2012-02-26T10:26:22.66</time>
      </trkpt>
      <trkpt lat="48.43755" lon="-4.34426">
        <ele>138</ele>
        <time>2012-02-26T10:26:26.65</time>
      </trkpt>
      <trkpt lat="48.43753" lon="-4.34411">
        <ele>139</ele>
        <time>2012-02-26T10:26:30.66</time>
      </trkpt>
      <trkpt lat="48.43751" lon="-4.34402">
        <ele>139</ele>
        <time>2012-02-26T10:26:32.66</time>
      </trkpt>
      <trkpt lat="48.4375" lon="-4.34396">
        <ele>139</ele>
        <time>2012-02-26T10:26:33.65</time>
      </trkpt>
      <trkpt lat="48.43748" lon="-4.34393">
        <ele>139</ele>
        <time>2012-02-26T10:26:34.66</time>
      </trkpt>
      <trkpt lat="48.43744" lon="-4.34389">
        <ele>139</ele>
        <time>2012-02-26T10:26:35.66</time>
      </trkpt>
      <trkpt lat="48.43742" lon="-4.34385">
        <ele>139</ele>
        <time>2012-02-26T10:26:36.66</time>
      </trkpt>
      <trkpt lat="48.43739" lon="-4.34381">
        <ele>139</ele>
        <time>2012-02-26T10:26:37.66</time>
      </trkpt>
      <trkpt lat="48.43737" lon="-4.34374">
        <ele>139</ele>
        <time>2012-02-26T10:26:38.66</time>
      </trkpt>
      <trkpt lat="48.43736" lon="-4.34368">
        <ele>139</ele>
        <time>2012-02-26T10:26:39.66</time>
      </trkpt>
      <trkpt lat="48.43735" lon="-4.34359">
        <ele>139</ele>
        <time>2012-02-26T10:26:41.66</time>
      </trkpt>
      <trkpt lat="48.43737" lon="-4.34361">
        <ele>138</ele>
        <time>2012-02-26T10:26:45.66</time>
      </trkpt>
      <trkpt lat="48.43739" lon="-4.34361">
        <ele>138</ele>
        <time>2012-02-26T10:26:46.66</time>
      </trkpt>
      <trkpt lat="48.43741" lon="-4.34363">
        <ele>138</ele>
        <time>2012-02-26T10:26:47.66</time>
      </trkpt>
      <trkpt lat="48.43743" lon="-4.34366">
        <ele>137</ele>
        <time>2012-02-26T10:26:48.67</time>
      </trkpt>
      <trkpt lat="48.43745" lon="-4.34368">
        <ele>137</ele>
        <time>2012-02-26T10:26:49.66</time>
      </trkpt>
      <trkpt lat="48.43748" lon="-4.3437">
        <ele>137</ele>
        <time>2012-02-26T10:26:50.66</time>
      </trkpt>
      <trkpt lat="48.4375" lon="-4.3437">
        <ele>137</ele>
        <time>2012-02-26T10:26:51.66</time>
      </trkpt>
      <trkpt lat="48.43752" lon="-4.34372">
        <ele>137</ele>
        <time>2012-02-26T10:26:52.66</time>
      </trkpt>
      <trkpt lat="48.43754" lon="-4.34374">
        <ele>137</ele>
        <time>2012-02-26T10:26:53.64</time>
      </trkpt>
      <trkpt lat="48.43757" lon="-4.34374">
        <ele>136</ele>
        <time>2012-02-26T10:26:54.66</time>
      </trkpt>
      <trkpt lat="48.4376" lon="-4.34374">
        <ele>136</ele>
        <time>2012-02-26T10:26:55.66</time>
      </trkpt>
      <trkpt lat="48.43764" lon="-4.34374">
        <ele>136</ele>
        <time>2012-02-26T10:26:56.66</time>
      </trkpt>
      <trkpt lat="48.43766" lon="-4.34374">
        <ele>136</ele>
        <time>2012-02-26T10:26:57.66</time>
      </trkpt>
      <trkpt lat="48.43769" lon="-4.34372">
        <ele>136</ele>
        <time>2012-02-26T10:26:58.66</time>
      </trkpt>
      <trkpt lat="48.43771" lon="-4.3437">
        <ele>136</ele>
        <time>2012-02-26T10:26:59.66</time>
      </trkpt>
      <trkpt lat="48.43773" lon="-4.34368">
        <ele>136</ele>
        <time>2012-02-26T10:27:00.66</time>
      </trkpt>
      <trkpt lat="48.43776" lon="-4.34363">
        <ele>136</ele>
        <time>2012-02-26T10:27:01.66</time>
      </trkpt>
      <trkpt lat="48.43778" lon="-4.34361">
        <ele>136</ele>
        <time>2012-02-26T10:27:02.66</time>
      </trkpt>
      <trkpt lat="48.4378" lon="-4.34357">
        <ele>136</ele>
        <time>2012-02-26T10:27:03.64</time>
      </trkpt>
      <trkpt lat="48.43781" lon="-4.34353">
        <ele>135</ele>
        <time>2012-02-26T10:27:04.66</time>
      </trkpt>
      <trkpt lat="48.43783" lon="-4.3435">
        <ele>135</ele>
        <time>2012-02-26T10:27:05.66</time>
      </trkpt>
      <trkpt lat="48.43785" lon="-4.34346">
        <ele>135</ele>
        <time>2012-02-26T10:27:06.66</time>
      </trkpt>
      <trkpt lat="48.43787" lon="-4.34342">
        <ele>135</ele>
        <time>2012-02-26T10:27:07.67</time>
      </trkpt>
      <trkpt lat="48.43788" lon="-4.3434">
        <ele>135</ele>
        <time>2012-02-26T10:27:08.66</time>
      </trkpt>
      <trkpt lat="48.43791" lon="-4.34335">
        <ele>135</ele>
        <time>2012-02-26T10:27:09.66</time>
      </trkpt>
      <trkpt lat="48.43792" lon="-4.34333">
        <ele>135</ele>
        <time>2012-02-26T10:27:10.66</time>
      </trkpt>
      <trkpt lat="48.43794" lon="-4.34331">
        <ele>135</ele>
        <time>2012-02-26T10:27:11.66</time>
      </trkpt>
      <trkpt lat="48.43795" lon="-4.34329">
        <ele>135</ele>
        <time>2012-02-26T10:27:12.66</time>
      </trkpt>
      <trkpt lat="48.43797" lon="-4.34325">
        <ele>135</ele>
        <time>2012-02-26T10:27:13.66</time>
      </trkpt>
      <trkpt lat="48.43799" lon="-4.34323">
        <ele>135</ele>
        <time>2012-02-26T10:27:14.66</time>
      </trkpt>
      <trkpt lat="48.438" lon="-4.34318">
        <ele>135</ele>
        <time>2012-02-26T10:27:15.66</time>
      </trkpt>
      <trkpt lat="48.43801" lon="-4.34314">
        <ele>135</ele>
        <time>2012-02-26T10:27:16.64</time>
      </trkpt>
      <trkpt lat="48.43802" lon="-4.3431">
        <ele>135</ele>
        <time>2012-02-26T10:27:17.66</time>
      </trkpt>
      <trkpt lat="48.43803" lon="-4.34305">
        <ele>135</ele>
        <time>2012-02-26T10:27:18.66</time>
      </trkpt>
      <trkpt lat="48.43804" lon="-4.34301">
        <ele>135</ele>
        <time>2012-02-26T10:27:19.66</time>
      </trkpt>
      <trkpt lat="48.43806" lon="-4.34297">
        <ele>135</ele>
        <time>2012-02-26T10:27:20.66</time>
      </trkpt>
      <trkpt lat="48.43807" lon="-4.34293">
        <ele>135</ele>
        <time>2012-02-26T10:27:21.64</time>
      </trkpt>
      <trkpt lat="48.43808" lon="-4.34288">
        <ele>135</ele>
        <time>2012-02-26T10:27:22.66</time>
      </trkpt>
      <trkpt lat="48.43809" lon="-4.34284">
        <ele>135</ele>
        <time>2012-02-26T10:27:23.66</time>
      </trkpt>
      <trkpt lat="48.4381" lon="-4.3428">
        <ele>135</ele>
        <time>2012-02-26T10:27:24.66</time>
      </trkpt>
      <trkpt lat="48.43811" lon="-4.34275">
        <ele>135</ele>
        <time>2012-02-26T10:27:25.66</time>
      </trkpt>
      <trkpt lat="48.43811" lon="-4.34271">
        <ele>135</ele>
        <time>2012-02-26T10:27:26.80</time>
      </trkpt>
      <trkpt lat="48.43812" lon="-4.34267">
        <ele>135</ele>
        <time>2012-02-26T10:27:27.66</time>
      </trkpt>
      <trkpt lat="48.43812" lon="-4.34263">
        <ele>135</ele>
        <time>2012-02-26T10:27:28.66</time>
      </trkpt>
      <trkpt lat="48.43813" lon="-4.34258">
        <ele>135</ele>
        <time>2012-02-26T10:27:29.66</time>
      </trkpt>
      <trkpt lat="48.43814" lon="-4.34254">
        <ele>135</ele>
        <time>2012-02-26T10:27:30.66</time>
      </trkpt>
      <trkpt lat="48.43814" lon="-4.3425">
        <ele>135</ele>
        <time>2012-02-26T10:27:31.66</time>
      </trkpt>
      <trkpt lat="48.43815" lon="-4.34245">
        <ele>135</ele>
        <time>2012-02-26T10:27:32.66</time>
      </trkpt>
      <trkpt lat="48.43816" lon="-4.34243">
        <ele>135</ele>
        <time>2012-02-26T10:27:33.66</time>
      </trkpt>
      <trkpt lat="48.43816" lon="-4.34239">
        <ele>135</ele>
        <time>2012-02-26T10:27:34.66</time>
      </trkpt>
      <trkpt lat="48.43817" lon="-4.34237">
        <ele>135</ele>
        <time>2012-02-26T10:27:35.66</time>
      </trkpt>
      <trkpt lat="48.43818" lon="-4.34232">
        <ele>135</ele>
        <time>2012-02-26T10:27:36.66</time>
      </trkpt>
      <trkpt lat="48.43819" lon="-4.34228">
        <ele>135</ele>
        <time>2012-02-26T10:27:37.66</time>
      </trkpt>
      <trkpt lat="48.43821" lon="-4.34224">
        <ele>135</ele>
        <time>2012-02-26T10:27:38.66</time>
      </trkpt>
      <trkpt lat="48.43822" lon="-4.34217">
        <ele>135</ele>
        <time>2012-02-26T10:27:39.64</time>
      </trkpt>
      <trkpt lat="48.43823" lon="-4.34213">
        <ele>135</ele>
        <time>2012-02-26T10:27:40.66</time>
      </trkpt>
      <trkpt lat="48.43824" lon="-4.34207">
        <ele>136</ele>
        <time>2012-02-26T10:27:41.66</time>
      </trkpt>
      <trkpt lat="48.43824" lon="-4.34202">
        <ele>136</ele>
        <time>2012-02-26T10:27:42.66</time>
      </trkpt>
      <trkpt lat="48.43825" lon="-4.34198">
        <ele>136</ele>
        <time>2012-02-26T10:27:43.66</time>
      </trkpt>
      <trkpt lat="48.43826" lon="-4.34194">
        <ele>136</ele>
        <time>2012-02-26T10:27:44.66</time>
      </trkpt>
      <trkpt lat="48.43828" lon="-4.34192">
        <ele>136</ele>
        <time>2012-02-26T10:27:45.66</time>
      </trkpt>
      <trkpt lat="48.43829" lon="-4.34187">
        <ele>136</ele>
        <time>2012-02-26T10:27:46.66</time>
      </trkpt>
      <trkpt lat="48.4383" lon="-4.34183">
        <ele>136</ele>
        <time>2012-02-26T10:27:47.66</time>
      </trkpt>
      <trkpt lat="48.43832" lon="-4.34181">
        <ele>136</ele>
        <time>2012-02-26T10:27:48.66</time>
      </trkpt>
      <trkpt lat="48.43833" lon="-4.34179">
        <ele>136</ele>
        <time>2012-02-26T10:27:49.66</time>
      </trkpt>
      <trkpt lat="48.43836" lon="-4.34175">
        <ele>137</ele>
        <time>2012-02-26T10:27:50.66</time>
      </trkpt>
      <trkpt lat="48.43838" lon="-4.34172">
        <ele>137</ele>
        <time>2012-02-26T10:27:51.66</time>
      </trkpt>
      <trkpt lat="48.4384" lon="-4.34168">
        <ele>137</ele>
        <time>2012-02-26T10:27:52.66</time>
      </trkpt>
      <trkpt lat="48.43842" lon="-4.34166">
        <ele>137</ele>
        <time>2012-02-26T10:27:53.66</time>
      </trkpt>
      <trkpt lat="48.43844" lon="-4.34162">
        <ele>137</ele>
        <time>2012-02-26T10:27:54.66</time>
      </trkpt>
      <trkpt lat="48.43847" lon="-4.34157">
        <ele>137</ele>
        <time>2012-02-26T10:27:55.66</time>
      </trkpt>
      <trkpt lat="48.4385" lon="-4.34153">
        <ele>137</ele>
        <time>2012-02-26T10:27:56.66</time>
      </trkpt>
      <trkpt lat="48.43852" lon="-4.34151">
        <ele>138</ele>
        <time>2012-02-26T10:27:57.66</time>
      </trkpt>
      <trkpt lat="48.43854" lon="-4.34147">
        <ele>138</ele>
        <time>2012-02-26T10:27:58.69</time>
      </trkpt>
      <trkpt lat="48.43856" lon="-4.34142">
        <ele>138</ele>
        <time>2012-02-26T10:27:59.66</time>
      </trkpt>
      <trkpt lat="48.43859" lon="-4.34138">
        <ele>138</ele>
        <time>2012-02-26T10:28:00.66</time>
      </trkpt>
      <trkpt lat="48.43861" lon="-4.34136">
        <ele>138</ele>
        <time>2012-02-26T10:28:01.65</time>
      </trkpt>
      <trkpt lat="48.43863" lon="-4.34132">
        <ele>138</ele>
        <time>2012-02-26T10:28:02.66</time>
      </trkpt>
      <trkpt lat="48.43866" lon="-4.34127">
        <ele>138</ele>
        <time>2012-02-26T10:28:03.66</time>
      </trkpt>
      <trkpt lat="48.43869" lon="-4.34123">
        <ele>138</ele>
        <time>2012-02-26T10:28:04.66</time>
      </trkpt>
      <trkpt lat="48.43871" lon="-4.34119">
        <ele>138</ele>
        <time>2012-02-26T10:28:05.66</time>
      </trkpt>
      <trkpt lat="48.43873" lon="-4.34117">
        <ele>138</ele>
        <time>2012-02-26T10:28:06.66</time>
      </trkpt>
      <trkpt lat="48.43875" lon="-4.34112">
        <ele>139</ele>
        <time>2012-02-26T10:28:07.66</time>
      </trkpt>
      <trkpt lat="48.43877" lon="-4.3411">
        <ele>139</ele>
        <time>2012-02-26T10:28:08.66</time>
      </trkpt>
      <trkpt lat="48.43881" lon="-4.34106">
        <ele>139</ele>
        <time>2012-02-26T10:28:09.66</time>
      </trkpt>
      <trkpt lat="48.43883" lon="-4.34102">
        <ele>139</ele>
        <time>2012-02-26T10:28:10.66</time>
      </trkpt>
      <trkpt lat="48.43885" lon="-4.34099">
        <ele>139</ele>
        <time>2012-02-26T10:28:11.66</time>
      </trkpt>
      <trkpt lat="48.43888" lon="-4.34095">
        <ele>139</ele>
        <time>2012-02-26T10:28:12.66</time>
      </trkpt>
      <trkpt lat="48.4389" lon="-4.34093">
        <ele>139</ele>
        <time>2012-02-26T10:28:13.66</time>
      </trkpt>
      <trkpt lat="48.43892" lon="-4.34089">
        <ele>139</ele>
        <time>2012-02-26T10:28:14.66</time>
      </trkpt>
      <trkpt lat="48.43895" lon="-4.34087">
        <ele>139</ele>
        <time>2012-02-26T10:28:15.66</time>
      </trkpt>
      <trkpt lat="48.43897" lon="-4.34084">
        <ele>139</ele>
        <time>2012-02-26T10:28:16.66</time>
      </trkpt>
      <trkpt lat="48.43899" lon="-4.3408">
        <ele>139</ele>
        <time>2012-02-26T10:28:17.66</time>
      </trkpt>
      <trkpt lat="48.43902" lon="-4.34076">
        <ele>139</ele>
        <time>2012-02-26T10:28:18.66</time>
      </trkpt>
      <trkpt lat="48.43904" lon="-4.34074">
        <ele>139</ele>
        <time>2012-02-26T10:28:19.66</time>
      </trkpt>
      <trkpt lat="48.43906" lon="-4.34069">
        <ele>140</ele>
        <time>2012-02-26T10:28:20.68</time>
      </trkpt>
      <trkpt lat="48.43909" lon="-4.34067">
        <ele>140</ele>
        <time>2012-02-26T10:28:21.66</time>
      </trkpt>
      <trkpt lat="48.43911" lon="-4.34063">
        <ele>140</ele>
        <time>2012-02-26T10:28:22.67</time>
      </trkpt>
      <trkpt lat="48.43913" lon="-4.34061">
        <ele>140</ele>
        <time>2012-02-26T10:28:23.67</time>
      </trkpt>
      <trkpt lat="48.43916" lon="-4.34057">
        <ele>140</ele>
        <time>2012-02-26T10:28:24.66</time>
      </trkpt>
      <trkpt lat="48.43918" lon="-4.34052">
        <ele>140</ele>
        <time>2012-02-26T10:28:25.67</time>
      </trkpt>
      <trkpt lat="48.43921" lon="-4.34048">
        <ele>140</ele>
        <time>2012-02-26T10:28:26.67</time>
      </trkpt>
      <trkpt lat="48.43924" lon="-4.34044">
        <ele>140</ele>
        <time>2012-02-26T10:28:27.66</time>
      </trkpt>
      <trkpt lat="48.43927" lon="-4.34039">
        <ele>140</ele>
        <time>2012-02-26T10:28:28.67</time>
      </trkpt>
      <trkpt lat="48.43929" lon="-4.34037">
        <ele>140</ele>
        <time>2012-02-26T10:28:29.67</time>
      </trkpt>
      <trkpt lat="48.43932" lon="-4.34033">
        <ele>141</ele>
        <time>2012-02-26T10:28:30.66</time>
      </trkpt>
      <trkpt lat="48.43934" lon="-4.34029">
        <ele>141</ele>
        <time>2012-02-26T10:28:31.67</time>
      </trkpt>
      <trkpt lat="48.43938" lon="-4.34026">
        <ele>141</ele>
        <time>2012-02-26T10:28:32.67</time>
      </trkpt>
      <trkpt lat="48.4394" lon="-4.34022">
        <ele>141</ele>
        <time>2012-02-26T10:28:33.68</time>
      </trkpt>
      <trkpt lat="48.43943" lon="-4.3402">
        <ele>141</ele>
        <time>2012-02-26T10:28:34.67</time>
      </trkpt>
      <trkpt lat="48.43945" lon="-4.34016">
        <ele>141</ele>
        <time>2012-02-26T10:28:35.67</time>
      </trkpt>
      <trkpt lat="48.43948" lon="-4.34011">
        <ele>141</ele>
        <time>2012-02-26T10:28:36.68</time>
      </trkpt>
      <trkpt lat="48.4395" lon="-4.34007">
        <ele>141</ele>
        <time>2012-02-26T10:28:37.66</time>
      </trkpt>
      <trkpt lat="48.43954" lon="-4.34005">
        <ele>141</ele>
        <time>2012-02-26T10:28:38.68</time>
      </trkpt>
      <trkpt lat="48.43957" lon="-4.34001">
        <ele>141</ele>
        <time>2012-02-26T10:28:39.65</time>
      </trkpt>
      <trkpt lat="48.4396" lon="-4.33996">
        <ele>142</ele>
        <time>2012-02-26T10:28:40.66</time>
      </trkpt>
      <trkpt lat="48.43962" lon="-4.33992">
        <ele>142</ele>
        <time>2012-02-26T10:28:41.66</time>
      </trkpt>
      <trkpt lat="48.43966" lon="-4.33988">
        <ele>143</ele>
        <time>2012-02-26T10:28:42.66</time>
      </trkpt>
      <trkpt lat="48.4397" lon="-4.33984">
        <ele>143</ele>
        <time>2012-02-26T10:28:43.66</time>
      </trkpt>
      <trkpt lat="48.43973" lon="-4.33977">
        <ele>143</ele>
        <time>2012-02-26T10:28:44.66</time>
      </trkpt>
      <trkpt lat="48.43976" lon="-4.33973">
        <ele>143</ele>
        <time>2012-02-26T10:28:45.66</time>
      </trkpt>
      <trkpt lat="48.4398" lon="-4.33966">
        <ele>144</ele>
        <time>2012-02-26T10:28:46.66</time>
      </trkpt>
      <trkpt lat="48.43984" lon="-4.33962">
        <ele>144</ele>
        <time>2012-02-26T10:28:47.66</time>
      </trkpt>
      <trkpt lat="48.43987" lon="-4.33958">
        <ele>144</ele>
        <time>2012-02-26T10:28:48.66</time>
      </trkpt>
      <trkpt lat="48.4399" lon="-4.33951">
        <ele>144</ele>
        <time>2012-02-26T10:28:49.66</time>
      </trkpt>
      <trkpt lat="48.43994" lon="-4.33947">
        <ele>145</ele>
        <time>2012-02-26T10:28:50.66</time>
      </trkpt>
      <trkpt lat="48.43998" lon="-4.33943">
        <ele>145</ele>
        <time>2012-02-26T10:28:51.66</time>
      </trkpt>
      <trkpt lat="48.44001" lon="-4.33939">
        <ele>145</ele>
        <time>2012-02-26T10:28:52.66</time>
      </trkpt>
      <trkpt lat="48.44005" lon="-4.33934">
        <ele>145</ele>
        <time>2012-02-26T10:28:53.66</time>
      </trkpt>
      <trkpt lat="48.44008" lon="-4.3393">
        <ele>145</ele>
        <time>2012-02-26T10:28:54.66</time>
      </trkpt>
      <trkpt lat="48.4401" lon="-4.33926">
        <ele>145</ele>
        <time>2012-02-26T10:28:55.68</time>
      </trkpt>
      <trkpt lat="48.44014" lon="-4.33921">
        <ele>145</ele>
        <time>2012-02-26T10:28:56.67</time>
      </trkpt>
      <trkpt lat="48.44017" lon="-4.33917">
        <ele>145</ele>
        <time>2012-02-26T10:28:57.67</time>
      </trkpt>
      <trkpt lat="48.4402" lon="-4.33915">
        <ele>145</ele>
        <time>2012-02-26T10:28:58.68</time>
      </trkpt>
      <trkpt lat="48.44023" lon="-4.33908">
        <ele>145</ele>
        <time>2012-02-26T10:28:59.67</time>
      </trkpt>
      <trkpt lat="48.44027" lon="-4.33904">
        <ele>145</ele>
        <time>2012-02-26T10:29:00.67</time>
      </trkpt>
      <trkpt lat="48.44031" lon="-4.339">
        <ele>144</ele>
        <time>2012-02-26T10:29:01.68</time>
      </trkpt>
      <trkpt lat="48.44034" lon="-4.33896">
        <ele>144</ele>
        <time>2012-02-26T10:29:02.66</time>
      </trkpt>
      <trkpt lat="48.44037" lon="-4.33891">
        <ele>144</ele>
        <time>2012-02-26T10:29:03.67</time>
      </trkpt>
      <trkpt lat="48.44042" lon="-4.33887">
        <ele>144</ele>
        <time>2012-02-26T10:29:04.68</time>
      </trkpt>
      <trkpt lat="48.44045" lon="-4.33883">
        <ele>144</ele>
        <time>2012-02-26T10:29:05.67</time>
      </trkpt>
      <trkpt lat="48.44048" lon="-4.33881">
        <ele>144</ele>
        <time>2012-02-26T10:29:06.67</time>
      </trkpt>
      <trkpt lat="48.4405" lon="-4.33876">
        <ele>144</ele>
        <time>2012-02-26T10:29:07.68</time>
      </trkpt>
      <trkpt lat="48.44053" lon="-4.33872">
        <ele>144</ele>
        <time>2012-02-26T10:29:08.66</time>
      </trkpt>
      <trkpt lat="48.44057" lon="-4.3387">
        <ele>144</ele>
        <time>2012-02-26T10:29:09.67</time>
      </trkpt>
      <trkpt lat="48.44059" lon="-4.33866">
        <ele>144</ele>
        <time>2012-02-26T10:29:10.72</time>
      </trkpt>
      <trkpt lat="48.44062" lon="-4.33861">
        <ele>144</ele>
        <time>2012-02-26T10:29:11.66</time>
      </trkpt>
      <trkpt lat="48.44065" lon="-4.33857">
        <ele>144</ele>
        <time>2012-02-26T10:29:12.67</time>
      </trkpt>
      <trkpt lat="48.44067" lon="-4.33855">
        <ele>144</ele>
        <time>2012-02-26T10:29:13.67</time>
      </trkpt>
      <trkpt lat="48.44071" lon="-4.33851">
        <ele>144</ele>
        <time>2012-02-26T10:29:14.66</time>
      </trkpt>
      <trkpt lat="48.44073" lon="-4.33846">
        <ele>144</ele>
        <time>2012-02-26T10:29:15.67</time>
      </trkpt>
      <trkpt lat="48.44076" lon="-4.33842">
        <ele>144</ele>
        <time>2012-02-26T10:29:16.67</time>
      </trkpt>
      <trkpt lat="48.44078" lon="-4.33838">
        <ele>144</ele>
        <time>2012-02-26T10:29:17.68</time>
      </trkpt>
      <trkpt lat="48.44081" lon="-4.33836">
        <ele>144</ele>
        <time>2012-02-26T10:29:18.66</time>
      </trkpt>
      <trkpt lat="48.44083" lon="-4.33831">
        <ele>144</ele>
        <time>2012-02-26T10:29:19.67</time>
      </trkpt>
      <trkpt lat="48.44086" lon="-4.33827">
        <ele>144</ele>
        <time>2012-02-26T10:29:20.68</time>
      </trkpt>
      <trkpt lat="48.44089" lon="-4.33823">
        <ele>144</ele>
        <time>2012-02-26T10:29:21.65</time>
      </trkpt>
      <trkpt lat="48.44091" lon="-4.33818">
        <ele>144</ele>
        <time>2012-02-26T10:29:22.66</time>
      </trkpt>
      <trkpt lat="48.44093" lon="-4.33816">
        <ele>144</ele>
        <time>2012-02-26T10:29:23.66</time>
      </trkpt>
      <trkpt lat="48.44096" lon="-4.33812">
        <ele>144</ele>
        <time>2012-02-26T10:29:24.66</time>
      </trkpt>
      <trkpt lat="48.441" lon="-4.33808">
        <ele>144</ele>
        <time>2012-02-26T10:29:25.66</time>
      </trkpt>
      <trkpt lat="48.44103" lon="-4.33803">
        <ele>144</ele>
        <time>2012-02-26T10:29:26.66</time>
      </trkpt>
      <trkpt lat="48.44107" lon="-4.33799">
        <ele>144</ele>
        <time>2012-02-26T10:29:27.66</time>
      </trkpt>
      <trkpt lat="48.4411" lon="-4.33795">
        <ele>144</ele>
        <time>2012-02-26T10:29:28.66</time>
      </trkpt>
      <trkpt lat="48.44113" lon="-4.33788">
        <ele>144</ele>
        <time>2012-02-26T10:29:29.66</time>
      </trkpt>
      <trkpt lat="48.44118" lon="-4.33784">
        <ele>144</ele>
        <time>2012-02-26T10:29:30.66</time>
      </trkpt>
      <trkpt lat="48.44121" lon="-4.3378">
        <ele>144</ele>
        <time>2012-02-26T10:29:31.66</time>
      </trkpt>
      <trkpt lat="48.44124" lon="-4.33775">
        <ele>144</ele>
        <time>2012-02-26T10:29:32.66</time>
      </trkpt>
      <trkpt lat="48.44127" lon="-4.33769">
        <ele>144</ele>
        <time>2012-02-26T10:29:33.66</time>
      </trkpt>
      <trkpt lat="48.44131" lon="-4.33765">
        <ele>144</ele>
        <time>2012-02-26T10:29:34.80</time>
      </trkpt>
      <trkpt lat="48.44133" lon="-4.3376">
        <ele>144</ele>
        <time>2012-02-26T10:29:35.66</time>
      </trkpt>
      <trkpt lat="48.44136" lon="-4.33756">
        <ele>145</ele>
        <time>2012-02-26T10:29:36.66</time>
      </trkpt>
      <trkpt lat="48.44139" lon="-4.33752">
        <ele>145</ele>
        <time>2012-02-26T10:29:37.66</time>
      </trkpt>
      <trkpt lat="48.44142" lon="-4.33748">
        <ele>145</ele>
        <time>2012-02-26T10:29:38.71</time>
      </trkpt>
      <trkpt lat="48.44146" lon="-4.33743">
        <ele>145</ele>
        <time>2012-02-26T10:29:39.66</time>
      </trkpt>
      <trkpt lat="48.44148" lon="-4.33741">
        <ele>145</ele>
        <time>2012-02-26T10:29:40.67</time>
      </trkpt>
      <trkpt lat="48.44151" lon="-4.33737">
        <ele>145</ele>
        <time>2012-02-26T10:29:41.66</time>
      </trkpt>
      <trkpt lat="48.44154" lon="-4.33733">
        <ele>145</ele>
        <time>2012-02-26T10:29:42.66</time>
      </trkpt>
      <trkpt lat="48.44156" lon="-4.3373">
        <ele>145</ele>
        <time>2012-02-26T10:29:43.66</time>
      </trkpt>
      <trkpt lat="48.4416" lon="-4.33726">
        <ele>145</ele>
        <time>2012-02-26T10:29:44.66</time>
      </trkpt>
      <trkpt lat="48.44163" lon="-4.33722">
        <ele>145</ele>
        <time>2012-02-26T10:29:45.66</time>
      </trkpt>
      <trkpt lat="48.44166" lon="-4.33717">
        <ele>145</ele>
        <time>2012-02-26T10:29:46.66</time>
      </trkpt>
      <trkpt lat="48.44169" lon="-4.33713">
        <ele>145</ele>
        <time>2012-02-26T10:29:47.66</time>
      </trkpt>
      <trkpt lat="48.44171" lon="-4.33711">
        <ele>145</ele>
        <time>2012-02-26T10:29:48.66</time>
      </trkpt>
      <trkpt lat="48.44175" lon="-4.33707">
        <ele>145</ele>
        <time>2012-02-26T10:29:49.66</time>
      </trkpt>
      <trkpt lat="48.44177" lon="-4.33702">
        <ele>145</ele>
        <time>2012-02-26T10:29:50.66</time>
      </trkpt>
      <trkpt lat="48.4418" lon="-4.33698">
        <ele>145</ele>
        <time>2012-02-26T10:29:51.66</time>
      </trkpt>
      <trkpt lat="48.44183" lon="-4.33696">
        <ele>145</ele>
        <time>2012-02-26T10:29:52.66</time>
      </trkpt>
      <trkpt lat="48.44185" lon="-4.33692">
        <ele>145</ele>
        <time>2012-02-26T10:29:53.66</time>
      </trkpt>
      <trkpt lat="48.44189" lon="-4.33687">
        <ele>145</ele>
        <time>2012-02-26T10:29:54.69</time>
      </trkpt>
      <trkpt lat="48.44191" lon="-4.33683">
        <ele>145</ele>
        <time>2012-02-26T10:29:55.66</time>
      </trkpt>
      <trkpt lat="48.44194" lon="-4.33681">
        <ele>145</ele>
        <time>2012-02-26T10:29:56.66</time>
      </trkpt>
      <trkpt lat="48.44196" lon="-4.33679">
        <ele>145</ele>
        <time>2012-02-26T10:29:57.66</time>
      </trkpt>
      <trkpt lat="48.44199" lon="-4.33675">
        <ele>146</ele>
        <time>2012-02-26T10:29:58.66</time>
      </trkpt>
      <trkpt lat="48.44201" lon="-4.3367">
        <ele>146</ele>
        <time>2012-02-26T10:29:59.66</time>
      </trkpt>
      <trkpt lat="48.44205" lon="-4.33666">
        <ele>146</ele>
        <time>2012-02-26T10:30:00.67</time>
      </trkpt>
      <trkpt lat="48.44208" lon="-4.33662">
        <ele>146</ele>
        <time>2012-02-26T10:30:01.66</time>
      </trkpt>
      <trkpt lat="48.44211" lon="-4.33657">
        <ele>146</ele>
        <time>2012-02-26T10:30:02.66</time>
      </trkpt>
      <trkpt lat="48.44214" lon="-4.33653">
        <ele>146</ele>
        <time>2012-02-26T10:30:03.66</time>
      </trkpt>
      <trkpt lat="48.44216" lon="-4.33651">
        <ele>146</ele>
        <time>2012-02-26T10:30:04.66</time>
      </trkpt>
      <trkpt lat="48.4422" lon="-4.33647">
        <ele>146</ele>
        <time>2012-02-26T10:30:05.67</time>
      </trkpt>
      <trkpt lat="48.44222" lon="-4.33642">
        <ele>146</ele>
        <time>2012-02-26T10:30:06.66</time>
      </trkpt>
      <trkpt lat="48.44225" lon="-4.3364">
        <ele>146</ele>
        <time>2012-02-26T10:30:07.67</time>
      </trkpt>
      <trkpt lat="48.44228" lon="-4.33636">
        <ele>146</ele>
        <time>2012-02-26T10:30:08.66</time>
      </trkpt>
      <trkpt lat="48.4423" lon="-4.33632">
        <ele>146</ele>
        <time>2012-02-26T10:30:09.66</time>
      </trkpt>
      <trkpt lat="48.44233" lon="-4.3363">
        <ele>146</ele>
        <time>2012-02-26T10:30:10.66</time>
      </trkpt>
      <trkpt lat="48.44236" lon="-4.33625">
        <ele>146</ele>
        <time>2012-02-26T10:30:11.66</time>
      </trkpt>
      <trkpt lat="48.44238" lon="-4.33623">
        <ele>146</ele>
        <time>2012-02-26T10:30:12.66</time>
      </trkpt>
      <trkpt lat="48.44241" lon="-4.33619">
        <ele>146</ele>
        <time>2012-02-26T10:30:13.66</time>
      </trkpt>
      <trkpt lat="48.44243" lon="-4.33614">
        <ele>147</ele>
        <time>2012-02-26T10:30:14.66</time>
      </trkpt>
      <trkpt lat="48.44247" lon="-4.33612">
        <ele>147</ele>
        <time>2012-02-26T10:30:15.66</time>
      </trkpt>
      <trkpt lat="48.44249" lon="-4.33608">
        <ele>147</ele>
        <time>2012-02-26T10:30:16.66</time>
      </trkpt>
      <trkpt lat="48.44251" lon="-4.33606">
        <ele>147</ele>
        <time>2012-02-26T10:30:17.66</time>
      </trkpt>
      <trkpt lat="48.44253" lon="-4.33602">
        <ele>147</ele>
        <time>2012-02-26T10:30:18.66</time>
      </trkpt>
      <trkpt lat="48.44256" lon="-4.33599">
        <ele>147</ele>
        <time>2012-02-26T10:30:19.66</time>
      </trkpt>
      <trkpt lat="48.44258" lon="-4.33595">
        <ele>147</ele>
        <time>2012-02-26T10:30:20.66</time>
      </trkpt>
      <trkpt lat="48.4426" lon="-4.33591">
        <ele>147</ele>
        <time>2012-02-26T10:30:21.66</time>
      </trkpt>
      <trkpt lat="48.44263" lon="-4.33587">
        <ele>147</ele>
        <time>2012-02-26T10:30:22.66</time>
      </trkpt>
      <trkpt lat="48.44265" lon="-4.33584">
        <ele>147</ele>
        <time>2012-02-26T10:30:23.66</time>
      </trkpt>
      <trkpt lat="48.44267" lon="-4.3358">
        <ele>147</ele>
        <time>2012-02-26T10:30:24.66</time>
      </trkpt>
      <trkpt lat="48.44268" lon="-4.33578">
        <ele>147</ele>
        <time>2012-02-26T10:30:25.66</time>
      </trkpt>
      <trkpt lat="48.44269" lon="-4.33576">
        <ele>147</ele>
        <time>2012-02-26T10:30:26.66</time>
      </trkpt>
      <trkpt lat="48.4427" lon="-4.33574">
        <ele>148</ele>
        <time>2012-02-26T10:30:27.66</time>
      </trkpt>
      <trkpt lat="48.44272" lon="-4.33572">
        <ele>148</ele>
        <time>2012-02-26T10:30:28.66</time>
      </trkpt>
      <trkpt lat="48.44273" lon="-4.33569">
        <ele>148</ele>
        <time>2012-02-26T10:30:29.66</time>
      </trkpt>
      <trkpt lat="48.44274" lon="-4.33567">
        <ele>148</ele>
        <time>2012-02-26T10:30:30.66</time>
      </trkpt>
      <trkpt lat="48.44275" lon="-4.33567">
        <ele>148</ele>
        <time>2012-02-26T10:30:31.66</time>
      </trkpt>
      <trkpt lat="48.44278" lon="-4.33567">
        <ele>148</ele>
        <time>2012-02-26T10:30:32.72</time>
      </trkpt>
      <trkpt lat="48.44278" lon="-4.33569">
        <ele>148</ele>
        <time>2012-02-26T10:30:33.66</time>
      </trkpt>
      <trkpt lat="48.44279" lon="-4.33569">
        <ele>148</ele>
        <time>2012-02-26T10:30:34.65</time>
      </trkpt>
      <trkpt lat="48.4428" lon="-4.33572">
        <ele>148</ele>
        <time>2012-02-26T10:30:35.78</time>
      </trkpt>
      <trkpt lat="48.4428" lon="-4.33574">
        <ele>149</ele>
        <time>2012-02-26T10:30:36.66</time>
      </trkpt>
      <trkpt lat="48.44281" lon="-4.33576">
        <ele>149</ele>
        <time>2012-02-26T10:30:37.67</time>
      </trkpt>
      <trkpt lat="48.44281" lon="-4.33578">
        <ele>149</ele>
        <time>2012-02-26T10:30:38.67</time>
      </trkpt>
      <trkpt lat="48.44281" lon="-4.3358">
        <ele>149</ele>
        <time>2012-02-26T10:30:39.66</time>
      </trkpt>
      <trkpt lat="48.44282" lon="-4.33582">
        <ele>149</ele>
        <time>2012-02-26T10:30:40.67</time>
      </trkpt>
      <trkpt lat="48.44282" lon="-4.33584">
        <ele>149</ele>
        <time>2012-02-26T10:30:41.67</time>
      </trkpt>
      <trkpt lat="48.44282" lon="-4.33591">
        <ele>149</ele>
        <time>2012-02-26T10:30:43.66</time>
      </trkpt>
      <trkpt lat="48.44282" lon="-4.33593">
        <ele>150</ele>
        <time>2012-02-26T10:30:44.65</time>
      </trkpt>
      <trkpt lat="48.44282" lon="-4.33595">
        <ele>150</ele>
        <time>2012-02-26T10:30:45.66</time>
      </trkpt>
      <trkpt lat="48.44283" lon="-4.33597">
        <ele>150</ele>
        <time>2012-02-26T10:30:46.67</time>
      </trkpt>
      <trkpt lat="48.44283" lon="-4.33602">
        <ele>150</ele>
        <time>2012-02-26T10:30:47.67</time>
      </trkpt>
      <trkpt lat="48.44283" lon="-4.33606">
        <ele>150</ele>
        <time>2012-02-26T10:30:48.67</time>
      </trkpt>
      <trkpt lat="48.44282" lon="-4.3361">
        <ele>150</ele>
        <time>2012-02-26T10:30:49.67</time>
      </trkpt>
      <trkpt lat="48.44282" lon="-4.33612">
        <ele>150</ele>
        <time>2012-02-26T10:30:50.67</time>
      </trkpt>
      <trkpt lat="48.44282" lon="-4.33619">
        <ele>150</ele>
        <time>2012-02-26T10:30:51.67</time>
      </trkpt>
      <trkpt lat="48.44282" lon="-4.33623">
        <ele>151</ele>
        <time>2012-02-26T10:30:52.67</time>
      </trkpt>
      <trkpt lat="48.44282" lon="-4.33627">
        <ele>151</ele>
        <time>2012-02-26T10:30:53.67</time>
      </trkpt>
      <trkpt lat="48.44282" lon="-4.33632">
        <ele>151</ele>
        <time>2012-02-26T10:30:54.66</time>
      </trkpt>
      <trkpt lat="48.44282" lon="-4.33636">
        <ele>151</ele>
        <time>2012-02-26T10:30:55.67</time>
      </trkpt>
      <trkpt lat="48.44283" lon="-4.33638">
        <ele>151</ele>
        <time>2012-02-26T10:30:56.67</time>
      </trkpt>
      <trkpt lat="48.44283" lon="-4.33642">
        <ele>151</ele>
        <time>2012-02-26T10:30:57.67</time>
      </trkpt>
      <trkpt lat="48.44284" lon="-4.33647">
        <ele>151</ele>
        <time>2012-02-26T10:30:58.67</time>
      </trkpt>
      <trkpt lat="48.44284" lon="-4.33651">
        <ele>151</ele>
        <time>2012-02-26T10:30:59.67</time>
      </trkpt>
      <trkpt lat="48.44285" lon="-4.33657">
        <ele>152</ele>
        <time>2012-02-26T10:31:00.67</time>
      </trkpt>
      <trkpt lat="48.44285" lon="-4.33662">
        <ele>153</ele>
        <time>2012-02-26T10:31:01.68</time>
      </trkpt>
      <trkpt lat="48.44286" lon="-4.33668">
        <ele>154</ele>
        <time>2012-02-26T10:31:02.67</time>
      </trkpt>
      <trkpt lat="48.44287" lon="-4.33675">
        <ele>155</ele>
        <time>2012-02-26T10:31:03.67</time>
      </trkpt>
      <trkpt lat="48.44288" lon="-4.33681">
        <ele>155</ele>
        <time>2012-02-26T10:31:04.67</time>
      </trkpt>
      <trkpt lat="48.44289" lon="-4.33685">
        <ele>155</ele>
        <time>2012-02-26T10:31:05.68</time>
      </trkpt>
      <trkpt lat="48.44289" lon="-4.33692">
        <ele>156</ele>
        <time>2012-02-26T10:31:06.67</time>
      </trkpt>
      <trkpt lat="48.4429" lon="-4.337">
        <ele>156</ele>
        <time>2012-02-26T10:31:07.67</time>
      </trkpt>
      <trkpt lat="48.4429" lon="-4.33707">
        <ele>156</ele>
        <time>2012-02-26T10:31:08.67</time>
      </trkpt>
      <trkpt lat="48.44292" lon="-4.33713">
        <ele>156</ele>
        <time>2012-02-26T10:31:09.67</time>
      </trkpt>
      <trkpt lat="48.44292" lon="-4.3372">
        <ele>157</ele>
        <time>2012-02-26T10:31:10.67</time>
      </trkpt>
      <trkpt lat="48.44292" lon="-4.33726">
        <ele>157</ele>
        <time>2012-02-26T10:31:11.67</time>
      </trkpt>
      <trkpt lat="48.44292" lon="-4.33733">
        <ele>157</ele>
        <time>2012-02-26T10:31:12.67</time>
      </trkpt>
      <trkpt lat="48.44292" lon="-4.33739">
        <ele>157</ele>
        <time>2012-02-26T10:31:13.67</time>
      </trkpt>
      <trkpt lat="48.44292" lon="-4.33745">
        <ele>157</ele>
        <time>2012-02-26T10:31:14.67</time>
      </trkpt>
      <trkpt lat="48.44293" lon="-4.3375">
        <ele>157</ele>
        <time>2012-02-26T10:31:15.67</time>
      </trkpt>
      <trkpt lat="48.44293" lon="-4.33756">
        <ele>157</ele>
        <time>2012-02-26T10:31:16.67</time>
      </trkpt>
      <trkpt lat="48.44294" lon="-4.3376">
        <ele>157</ele>
        <time>2012-02-26T10:31:17.67</time>
      </trkpt>
      <trkpt lat="48.44295" lon="-4.33765">
        <ele>157</ele>
        <time>2012-02-26T10:31:18.66</time>
      </trkpt>
      <trkpt lat="48.44296" lon="-4.33769">
        <ele>157</ele>
        <time>2012-02-26T10:31:19.75</time>
      </trkpt>
      <trkpt lat="48.44296" lon="-4.33771">
        <ele>157</ele>
        <time>2012-02-26T10:31:20.66</time>
      </trkpt>
      <trkpt lat="48.44297" lon="-4.33773">
        <ele>158</ele>
        <time>2012-02-26T10:31:21.67</time>
      </trkpt>
      <trkpt lat="48.44297" lon="-4.33778">
        <ele>158</ele>
        <time>2012-02-26T10:31:22.66</time>
      </trkpt>
      <trkpt lat="48.44298" lon="-4.33782">
        <ele>158</ele>
        <time>2012-02-26T10:31:24.66</time>
      </trkpt>
      <trkpt lat="48.44299" lon="-4.33784">
        <ele>158</ele>
        <time>2012-02-26T10:31:25.67</time>
      </trkpt>
      <trkpt lat="48.44299" lon="-4.33786">
        <ele>158</ele>
        <time>2012-02-26T10:31:26.66</time>
      </trkpt>
      <trkpt lat="48.443" lon="-4.3379">
        <ele>158</ele>
        <time>2012-02-26T10:31:28.77</time>
      </trkpt>
      <trkpt lat="48.443" lon="-4.33797">
        <ele>158</ele>
        <time>2012-02-26T10:31:31.66</time>
      </trkpt>
      <trkpt lat="48.44301" lon="-4.33801">
        <ele>158</ele>
        <time>2012-02-26T10:31:34.67</time>
      </trkpt>
      <trkpt lat="48.44301" lon="-4.33803">
        <ele>158</ele>
        <time>2012-02-26T10:31:35.66</time>
      </trkpt>
      <trkpt lat="48.44302" lon="-4.33805">
        <ele>158</ele>
        <time>2012-02-26T10:31:36.66</time>
      </trkpt>
      <trkpt lat="48.44302" lon="-4.3381">
        <ele>158</ele>
        <time>2012-02-26T10:31:37.66</time>
      </trkpt>
      <trkpt lat="48.44303" lon="-4.33812">
        <ele>158</ele>
        <time>2012-02-26T10:31:38.66</time>
      </trkpt>
      <trkpt lat="48.44303" lon="-4.33816">
        <ele>158</ele>
        <time>2012-02-26T10:31:39.66</time>
      </trkpt>
      <trkpt lat="48.44304" lon="-4.33818">
        <ele>158</ele>
        <time>2012-02-26T10:31:40.66</time>
      </trkpt>
      <trkpt lat="48.44304" lon="-4.33823">
        <ele>158</ele>
        <time>2012-02-26T10:31:41.66</time>
      </trkpt>
      <trkpt lat="48.44306" lon="-4.33827">
        <ele>158</ele>
        <time>2012-02-26T10:31:42.81</time>
      </trkpt>
      <trkpt lat="48.44306" lon="-4.33831">
        <ele>158</ele>
        <time>2012-02-26T10:31:43.66</time>
      </trkpt>
      <trkpt lat="48.44306" lon="-4.33833">
        <ele>158</ele>
        <time>2012-02-26T10:31:44.67</time>
      </trkpt>
      <trkpt lat="48.44306" lon="-4.33838">
        <ele>158</ele>
        <time>2012-02-26T10:31:45.67</time>
      </trkpt>
      <trkpt lat="48.44307" lon="-4.33842">
        <ele>158</ele>
        <time>2012-02-26T10:31:46.80</time>
      </trkpt>
      <trkpt lat="48.44307" lon="-4.33844">
        <ele>158</ele>
        <time>2012-02-26T10:31:47.66</time>
      </trkpt>
      <trkpt lat="48.44308" lon="-4.33848">
        <ele>158</ele>
        <time>2012-02-26T10:31:48.66</time>
      </trkpt>
      <trkpt lat="48.44309" lon="-4.33851">
        <ele>158</ele>
        <time>2012-02-26T10:31:49.67</time>
      </trkpt>
      <trkpt lat="48.4431" lon="-4.33853">
        <ele>158</ele>
        <time>2012-02-26T10:31:50.66</time>
      </trkpt>
      <trkpt lat="48.4431" lon="-4.33857">
        <ele>158</ele>
        <time>2012-02-26T10:31:51.67</time>
      </trkpt>
      <trkpt lat="48.44311" lon="-4.33859">
        <ele>158</ele>
        <time>2012-02-26T10:31:52.66</time>
      </trkpt>
      <trkpt lat="48.44311" lon="-4.33861">
        <ele>158</ele>
        <time>2012-02-26T10:31:53.66</time>
      </trkpt>
      <trkpt lat="48.44311" lon="-4.33863">
        <ele>158</ele>
        <time>2012-02-26T10:31:54.66</time>
      </trkpt>
      <trkpt lat="48.44311" lon="-4.33866">
        <ele>158</ele>
        <time>2012-02-26T10:31:55.65</time>
      </trkpt>
      <trkpt lat="48.44311" lon="-4.33868">
        <ele>158</ele>
        <time>2012-02-26T10:31:56.66</time>
      </trkpt>
      <trkpt lat="48.44311" lon="-4.3387">
        <ele>158</ele>
        <time>2012-02-26T10:31:57.66</time>
      </trkpt>
      <trkpt lat="48.4431" lon="-4.33874">
        <ele>158</ele>
        <time>2012-02-26T10:32:00.66</time>
      </trkpt>
      <trkpt lat="48.44309" lon="-4.33881">
        <ele>158</ele>
        <time>2012-02-26T10:32:03.67</time>
      </trkpt>
      <trkpt lat="48.44308" lon="-4.33889">
        <ele>158</ele>
        <time>2012-02-26T10:32:06.67</time>
      </trkpt>
      <trkpt lat="48.44308" lon="-4.33891">
        <ele>158</ele>
        <time>2012-02-26T10:32:07.66</time>
      </trkpt>
      <trkpt lat="48.44308" lon="-4.33893">
        <ele>158</ele>
        <time>2012-02-26T10:32:08.67</time>
      </trkpt>
      <trkpt lat="48.44307" lon="-4.33898">
        <ele>158</ele>
        <time>2012-02-26T10:32:09.67</time>
      </trkpt>
      <trkpt lat="48.44306" lon="-4.33902">
        <ele>158</ele>
        <time>2012-02-26T10:32:11.67</time>
      </trkpt>
      <trkpt lat="48.44304" lon="-4.33904">
        <ele>158</ele>
        <time>2012-02-26T10:32:12.66</time>
      </trkpt>
      <trkpt lat="48.44303" lon="-4.33906">
        <ele>158</ele>
        <time>2012-02-26T10:32:13.66</time>
      </trkpt>
      <trkpt lat="48.44301" lon="-4.33915">
        <ele>156</ele>
        <time>2012-02-26T10:32:20.66</time>
      </trkpt>
      <trkpt lat="48.443" lon="-4.33919">
        <ele>156</ele>
        <time>2012-02-26T10:32:21.56</time>
      </trkpt>
      <trkpt lat="48.44298" lon="-4.33923">
        <ele>155</ele>
        <time>2012-02-26T10:32:22.56</time>
      </trkpt>
      <trkpt lat="48.44297" lon="-4.33928">
        <ele>155</ele>
        <time>2012-02-26T10:32:23.56</time>
      </trkpt>
      <trkpt lat="48.44295" lon="-4.33932">
        <ele>155</ele>
        <time>2012-02-26T10:32:24.55</time>
      </trkpt>
      <trkpt lat="48.44293" lon="-4.33939">
        <ele>155</ele>
        <time>2012-02-26T10:32:25.56</time>
      </trkpt>
      <trkpt lat="48.4429" lon="-4.33943">
        <ele>154</ele>
        <time>2012-02-26T10:32:26.56</time>
      </trkpt>
      <trkpt lat="48.44289" lon="-4.33947">
        <ele>154</ele>
        <time>2012-02-26T10:32:27.56</time>
      </trkpt>
      <trkpt lat="48.44287" lon="-4.33951">
        <ele>154</ele>
        <time>2012-02-26T10:32:28.56</time>
      </trkpt>
      <trkpt lat="48.44285" lon="-4.33958">
        <ele>154</ele>
        <time>2012-02-26T10:32:29.56</time>
      </trkpt>
      <trkpt lat="48.44284" lon="-4.33962">
        <ele>153</ele>
        <time>2012-02-26T10:32:30.56</time>
      </trkpt>
      <trkpt lat="48.44283" lon="-4.33966">
        <ele>153</ele>
        <time>2012-02-26T10:32:31.56</time>
      </trkpt>
      <trkpt lat="48.44282" lon="-4.33971">
        <ele>153</ele>
        <time>2012-02-26T10:32:32.56</time>
      </trkpt>
      <trkpt lat="48.4428" lon="-4.33975">
        <ele>152</ele>
        <time>2012-02-26T10:32:33.56</time>
      </trkpt>
      <trkpt lat="48.44279" lon="-4.33977">
        <ele>152</ele>
        <time>2012-02-26T10:32:34.55</time>
      </trkpt>
      <trkpt lat="48.44278" lon="-4.33981">
        <ele>152</ele>
        <time>2012-02-26T10:32:35.56</time>
      </trkpt>
      <trkpt lat="48.44277" lon="-4.33986">
        <ele>152</ele>
        <time>2012-02-26T10:32:36.56</time>
      </trkpt>
      <trkpt lat="48.44275" lon="-4.3399">
        <ele>151</ele>
        <time>2012-02-26T10:32:37.57</time>
      </trkpt>
      <trkpt lat="48.44274" lon="-4.33994">
        <ele>151</ele>
        <time>2012-02-26T10:32:38.55</time>
      </trkpt>
      <trkpt lat="48.44273" lon="-4.33999">
        <ele>151</ele>
        <time>2012-02-26T10:32:39.55</time>
      </trkpt>
      <trkpt lat="48.44271" lon="-4.34001">
        <ele>150</ele>
        <time>2012-02-26T10:32:40.56</time>
      </trkpt>
      <trkpt lat="48.4427" lon="-4.34005">
        <ele>150</ele>
        <time>2012-02-26T10:32:41.55</time>
      </trkpt>
      <trkpt lat="48.44269" lon="-4.34009">
        <ele>150</ele>
        <time>2012-02-26T10:32:42.53</time>
      </trkpt>
      <trkpt lat="48.44267" lon="-4.34018">
        <ele>149</ele>
        <time>2012-02-26T10:32:44.55</time>
      </trkpt>
      <trkpt lat="48.44265" lon="-4.3402">
        <ele>149</ele>
        <time>2012-02-26T10:32:45.55</time>
      </trkpt>
      <trkpt lat="48.44263" lon="-4.34026">
        <ele>148</ele>
        <time>2012-02-26T10:32:46.55</time>
      </trkpt>
      <trkpt lat="48.44263" lon="-4.34033">
        <ele>148</ele>
        <time>2012-02-26T10:32:47.56</time>
      </trkpt>
      <trkpt lat="48.44263" lon="-4.34039">
        <ele>148</ele>
        <time>2012-02-26T10:32:48.55</time>
      </trkpt>
      <trkpt lat="48.44264" lon="-4.34048">
        <ele>145</ele>
        <time>2012-02-26T10:32:49.56</time>
      </trkpt>
      <trkpt lat="48.44266" lon="-4.34057">
        <ele>143</ele>
        <time>2012-02-26T10:32:50.55</time>
      </trkpt>
      <trkpt lat="48.44268" lon="-4.34065">
        <ele>142</ele>
        <time>2012-02-26T10:32:51.55</time>
      </trkpt>
      <trkpt lat="48.44271" lon="-4.34072">
        <ele>142</ele>
        <time>2012-02-26T10:32:52.70</time>
      </trkpt>
      <trkpt lat="48.44274" lon="-4.3408">
        <ele>140</ele>
        <time>2012-02-26T10:32:53.55</time>
      </trkpt>
      <trkpt lat="48.44278" lon="-4.34089">
        <ele>139</ele>
        <time>2012-02-26T10:32:54.55</time>
      </trkpt>
      <trkpt lat="48.44281" lon="-4.34097">
        <ele>137</ele>
        <time>2012-02-26T10:32:55.56</time>
      </trkpt>
      <trkpt lat="48.44284" lon="-4.34104">
        <ele>136</ele>
        <time>2012-02-26T10:32:56.55</time>
      </trkpt>
      <trkpt lat="48.44287" lon="-4.3411">
        <ele>135</ele>
        <time>2012-02-26T10:32:57.55</time>
      </trkpt>
      <trkpt lat="48.4429" lon="-4.34117">
        <ele>135</ele>
        <time>2012-02-26T10:32:58.55</time>
      </trkpt>
      <trkpt lat="48.44293" lon="-4.34121">
        <ele>135</ele>
        <time>2012-02-26T10:32:59.55</time>
      </trkpt>
      <trkpt lat="48.44296" lon="-4.34127">
        <ele>135</ele>
        <time>2012-02-26T10:33:00.55</time>
      </trkpt>
      <trkpt lat="48.44298" lon="-4.34132">
        <ele>135</ele>
        <time>2012-02-26T10:33:01.65</time>
      </trkpt>
      <trkpt lat="48.443" lon="-4.34136">
        <ele>135</ele>
        <time>2012-02-26T10:33:02.55</time>
      </trkpt>
      <trkpt lat="48.44301" lon="-4.3414">
        <ele>134</ele>
        <time>2012-02-26T10:33:03.55</time>
      </trkpt>
      <trkpt lat="48.44303" lon="-4.34144">
        <ele>134</ele>
        <time>2012-02-26T10:33:04.55</time>
      </trkpt>
      <trkpt lat="48.44304" lon="-4.34149">
        <ele>134</ele>
        <time>2012-02-26T10:33:05.55</time>
      </trkpt>
      <trkpt lat="48.44307" lon="-4.34153">
        <ele>134</ele>
        <time>2012-02-26T10:33:06.56</time>
      </trkpt>
      <trkpt lat="48.44308" lon="-4.34157">
        <ele>134</ele>
        <time>2012-02-26T10:33:07.56</time>
      </trkpt>
      <trkpt lat="48.44309" lon="-4.34162">
        <ele>134</ele>
        <time>2012-02-26T10:33:08.56</time>
      </trkpt>
      <trkpt lat="48.4431" lon="-4.34166">
        <ele>133</ele>
        <time>2012-02-26T10:33:09.56</time>
      </trkpt>
      <trkpt lat="48.4431" lon="-4.3417">
        <ele>133</ele>
        <time>2012-02-26T10:33:10.56</time>
      </trkpt>
      <trkpt lat="48.4431" lon="-4.34177">
        <ele>133</ele>
        <time>2012-02-26T10:33:11.56</time>
      </trkpt>
      <trkpt lat="48.44311" lon="-4.34179">
        <ele>133</ele>
        <time>2012-02-26T10:33:12.57</time>
      </trkpt>
      <trkpt lat="48.44311" lon="-4.34183">
        <ele>133</ele>
        <time>2012-02-26T10:33:13.55</time>
      </trkpt>
      <trkpt lat="48.44311" lon="-4.34187">
        <ele>133</ele>
        <time>2012-02-26T10:33:14.55</time>
      </trkpt>
      <trkpt lat="48.44312" lon="-4.34192">
        <ele>133</ele>
        <time>2012-02-26T10:33:15.56</time>
      </trkpt>
      <trkpt lat="48.44312" lon="-4.34196">
        <ele>132</ele>
        <time>2012-02-26T10:33:16.56</time>
      </trkpt>
      <trkpt lat="48.44312" lon="-4.34198">
        <ele>132</ele>
        <time>2012-02-26T10:33:17.55</time>
      </trkpt>
      <trkpt lat="48.44313" lon="-4.34202">
        <ele>132</ele>
        <time>2012-02-26T10:33:18.55</time>
      </trkpt>
      <trkpt lat="48.44313" lon="-4.34207">
        <ele>132</ele>
        <time>2012-02-26T10:33:19.58</time>
      </trkpt>
      <trkpt lat="48.44313" lon="-4.34211">
        <ele>132</ele>
        <time>2012-02-26T10:33:20.55</time>
      </trkpt>
      <trkpt lat="48.44314" lon="-4.34215">
        <ele>132</ele>
        <time>2012-02-26T10:33:21.55</time>
      </trkpt>
      <trkpt lat="48.44314" lon="-4.3422">
        <ele>132</ele>
        <time>2012-02-26T10:33:22.55</time>
      </trkpt>
      <trkpt lat="48.44314" lon="-4.34224">
        <ele>132</ele>
        <time>2012-02-26T10:33:23.54</time>
      </trkpt>
      <trkpt lat="48.44314" lon="-4.34228">
        <ele>132</ele>
        <time>2012-02-26T10:33:24.56</time>
      </trkpt>
      <trkpt lat="48.44314" lon="-4.34232">
        <ele>132</ele>
        <time>2012-02-26T10:33:25.55</time>
      </trkpt>
      <trkpt lat="48.44314" lon="-4.34237">
        <ele>132</ele>
        <time>2012-02-26T10:33:26.55</time>
      </trkpt>
      <trkpt lat="48.44314" lon="-4.34241">
        <ele>132</ele>
        <time>2012-02-26T10:33:27.55</time>
      </trkpt>
      <trkpt lat="48.44314" lon="-4.34247">
        <ele>132</ele>
        <time>2012-02-26T10:33:29.55</time>
      </trkpt>
      <trkpt lat="48.44314" lon="-4.34252">
        <ele>132</ele>
        <time>2012-02-26T10:33:30.55</time>
      </trkpt>
      <trkpt lat="48.44314" lon="-4.34256">
        <ele>132</ele>
        <time>2012-02-26T10:33:31.56</time>
      </trkpt>
      <trkpt lat="48.44314" lon="-4.34263">
        <ele>133</ele>
        <time>2012-02-26T10:33:33.55</time>
      </trkpt>
      <trkpt lat="48.44313" lon="-4.34267">
        <ele>133</ele>
        <time>2012-02-26T10:33:34.55</time>
      </trkpt>
      <trkpt lat="48.44313" lon="-4.34271">
        <ele>133</ele>
        <time>2012-02-26T10:33:35.56</time>
      </trkpt>
      <trkpt lat="48.44313" lon="-4.34275">
        <ele>133</ele>
        <time>2012-02-26T10:33:36.55</time>
      </trkpt>
      <trkpt lat="48.44312" lon="-4.34286">
        <ele>133</ele>
        <time>2012-02-26T10:33:39.55</time>
      </trkpt>
      <trkpt lat="48.44312" lon="-4.3429">
        <ele>133</ele>
        <time>2012-02-26T10:33:40.56</time>
      </trkpt>
      <trkpt lat="48.44312" lon="-4.34295">
        <ele>133</ele>
        <time>2012-02-26T10:33:41.56</time>
      </trkpt>
      <trkpt lat="48.44311" lon="-4.34299">
        <ele>133</ele>
        <time>2012-02-26T10:33:42.53</time>
      </trkpt>
      <trkpt lat="48.44311" lon="-4.34303">
        <ele>133</ele>
        <time>2012-02-26T10:33:43.55</time>
      </trkpt>
      <trkpt lat="48.44311" lon="-4.34308">
        <ele>133</ele>
        <time>2012-02-26T10:33:44.56</time>
      </trkpt>
      <trkpt lat="48.44312" lon="-4.34312">
        <ele>134</ele>
        <time>2012-02-26T10:33:45.56</time>
      </trkpt>
      <trkpt lat="48.44312" lon="-4.34316">
        <ele>134</ele>
        <time>2012-02-26T10:33:46.55</time>
      </trkpt>
      <trkpt lat="48.44312" lon="-4.3432">
        <ele>134</ele>
        <time>2012-02-26T10:33:47.56</time>
      </trkpt>
      <trkpt lat="48.44314" lon="-4.34327">
        <ele>134</ele>
        <time>2012-02-26T10:33:48.55</time>
      </trkpt>
      <trkpt lat="48.44315" lon="-4.34331">
        <ele>134</ele>
        <time>2012-02-26T10:33:49.56</time>
      </trkpt>
      <trkpt lat="48.44316" lon="-4.34335">
        <ele>134</ele>
        <time>2012-02-26T10:33:50.56</time>
      </trkpt>
      <trkpt lat="48.44317" lon="-4.34342">
        <ele>134</ele>
        <time>2012-02-26T10:33:51.56</time>
      </trkpt>
      <trkpt lat="48.44318" lon="-4.34346">
        <ele>134</ele>
        <time>2012-02-26T10:33:52.56</time>
      </trkpt>
      <trkpt lat="48.44319" lon="-4.3435">
        <ele>134</ele>
        <time>2012-02-26T10:33:53.56</time>
      </trkpt>
      <trkpt lat="48.44319" lon="-4.34355">
        <ele>134</ele>
        <time>2012-02-26T10:33:54.56</time>
      </trkpt>
      <trkpt lat="48.44321" lon="-4.34359">
        <ele>134</ele>
        <time>2012-02-26T10:33:55.56</time>
      </trkpt>
      <trkpt lat="48.44322" lon="-4.34363">
        <ele>134</ele>
        <time>2012-02-26T10:33:56.56</time>
      </trkpt>
      <trkpt lat="48.44323" lon="-4.34368">
        <ele>134</ele>
        <time>2012-02-26T10:33:57.56</time>
      </trkpt>
      <trkpt lat="48.44324" lon="-4.34372">
        <ele>134</ele>
        <time>2012-02-26T10:33:58.56</time>
      </trkpt>
      <trkpt lat="48.44325" lon="-4.34378">
        <ele>134</ele>
        <time>2012-02-26T10:33:59.56</time>
      </trkpt>
      <trkpt lat="48.44325" lon="-4.34383">
        <ele>135</ele>
        <time>2012-02-26T10:34:00.56</time>
      </trkpt>
      <trkpt lat="48.44326" lon="-4.34387">
        <ele>135</ele>
        <time>2012-02-26T10:34:01.56</time>
      </trkpt>
      <trkpt lat="48.44327" lon="-4.34391">
        <ele>135</ele>
        <time>2012-02-26T10:34:02.56</time>
      </trkpt>
      <trkpt lat="48.44328" lon="-4.34396">
        <ele>135</ele>
        <time>2012-02-26T10:34:03.56</time>
      </trkpt>
      <trkpt lat="48.44329" lon="-4.34402">
        <ele>135</ele>
        <time>2012-02-26T10:34:04.56</time>
      </trkpt>
      <trkpt lat="48.4433" lon="-4.34406">
        <ele>135</ele>
        <time>2012-02-26T10:34:05.55</time>
      </trkpt>
      <trkpt lat="48.44332" lon="-4.34411">
        <ele>135</ele>
        <time>2012-02-26T10:34:06.55</time>
      </trkpt>
      <trkpt lat="48.44336" lon="-4.34413">
        <ele>135</ele>
        <time>2012-02-26T10:34:07.56</time>
      </trkpt>
      <trkpt lat="48.44339" lon="-4.34415">
        <ele>135</ele>
        <time>2012-02-26T10:34:08.56</time>
      </trkpt>
      <trkpt lat="48.44342" lon="-4.34413">
        <ele>135</ele>
        <time>2012-02-26T10:34:09.56</time>
      </trkpt>
      <trkpt lat="48.44345" lon="-4.34413">
        <ele>135</ele>
        <time>2012-02-26T10:34:10.56</time>
      </trkpt>
      <trkpt lat="48.4435" lon="-4.34413">
        <ele>135</ele>
        <time>2012-02-26T10:34:11.56</time>
      </trkpt>
      <trkpt lat="48.44354" lon="-4.34413">
        <ele>135</ele>
        <time>2012-02-26T10:34:12.56</time>
      </trkpt>
      <trkpt lat="48.44358" lon="-4.34415">
        <ele>135</ele>
        <time>2012-02-26T10:34:13.56</time>
      </trkpt>
      <trkpt lat="48.44362" lon="-4.34417">
        <ele>136</ele>
        <time>2012-02-26T10:34:14.56</time>
      </trkpt>
      <trkpt lat="48.44367" lon="-4.34419">
        <ele>136</ele>
        <time>2012-02-26T10:34:15.56</time>
      </trkpt>
      <trkpt lat="48.44372" lon="-4.34419">
        <ele>136</ele>
        <time>2012-02-26T10:34:16.58</time>
      </trkpt>
      <trkpt lat="48.44376" lon="-4.34417">
        <ele>137</ele>
        <time>2012-02-26T10:34:17.56</time>
      </trkpt>
      <trkpt lat="48.44382" lon="-4.34415">
        <ele>137</ele>
        <time>2012-02-26T10:34:18.54</time>
      </trkpt>
      <trkpt lat="48.44388" lon="-4.34413">
        <ele>137</ele>
        <time>2012-02-26T10:34:19.56</time>
      </trkpt>
      <trkpt lat="48.44395" lon="-4.34411">
        <ele>138</ele>
        <time>2012-02-26T10:34:20.56</time>
      </trkpt>
      <trkpt lat="48.444" lon="-4.34408">
        <ele>138</ele>
        <time>2012-02-26T10:34:21.56</time>
      </trkpt>
      <trkpt lat="48.44405" lon="-4.34408">
        <ele>138</ele>
        <time>2012-02-26T10:34:22.57</time>
      </trkpt>
      <trkpt lat="48.44411" lon="-4.34408">
        <ele>139</ele>
        <time>2012-02-26T10:34:23.54</time>
      </trkpt>
      <trkpt lat="48.44414" lon="-4.34408">
        <ele>139</ele>
        <time>2012-02-26T10:34:24.56</time>
      </trkpt>
      <trkpt lat="48.44417" lon="-4.34411">
        <ele>139</ele>
        <time>2012-02-26T10:34:25.56</time>
      </trkpt>
      <trkpt lat="48.4442" lon="-4.34411">
        <ele>139</ele>
        <time>2012-02-26T10:34:26.56</time>
      </trkpt>
      <trkpt lat="48.44424" lon="-4.34413">
        <ele>139</ele>
        <time>2012-02-26T10:34:27.56</time>
      </trkpt>
      <trkpt lat="48.44427" lon="-4.34413">
        <ele>139</ele>
        <time>2012-02-26T10:34:28.54</time>
      </trkpt>
      <trkpt lat="48.4443" lon="-4.34415">
        <ele>139</ele>
        <time>2012-02-26T10:34:29.56</time>
      </trkpt>
      <trkpt lat="48.44433" lon="-4.34415">
        <ele>139</ele>
        <time>2012-02-26T10:34:30.56</time>
      </trkpt>
      <trkpt lat="48.44436" lon="-4.34417">
        <ele>139</ele>
        <time>2012-02-26T10:34:31.55</time>
      </trkpt>
      <trkpt lat="48.44441" lon="-4.34419">
        <ele>138</ele>
        <time>2012-02-26T10:34:32.56</time>
      </trkpt>
      <trkpt lat="48.44445" lon="-4.34419">
        <ele>138</ele>
        <time>2012-02-26T10:34:33.56</time>
      </trkpt>
      <trkpt lat="48.44448" lon="-4.34421">
        <ele>138</ele>
        <time>2012-02-26T10:34:34.56</time>
      </trkpt>
      <trkpt lat="48.44453" lon="-4.34421">
        <ele>138</ele>
        <time>2012-02-26T10:34:35.56</time>
      </trkpt>
      <trkpt lat="48.44456" lon="-4.34421">
        <ele>138</ele>
        <time>2012-02-26T10:34:36.56</time>
      </trkpt>
      <trkpt lat="48.44459" lon="-4.34421">
        <ele>138</ele>
        <time>2012-02-26T10:34:37.55</time>
      </trkpt>
      <trkpt lat="48.44462" lon="-4.34419">
        <ele>138</ele>
        <time>2012-02-26T10:34:38.56</time>
      </trkpt>
      <trkpt lat="48.44465" lon="-4.34419">
        <ele>138</ele>
        <time>2012-02-26T10:34:39.56</time>
      </trkpt>
      <trkpt lat="48.44469" lon="-4.34417">
        <ele>138</ele>
        <time>2012-02-26T10:34:40.56</time>
      </trkpt>
      <trkpt lat="48.44471" lon="-4.34417">
        <ele>138</ele>
        <time>2012-02-26T10:34:41.56</time>
      </trkpt>
      <trkpt lat="48.44474" lon="-4.34415">
        <ele>138</ele>
        <time>2012-02-26T10:34:42.56</time>
      </trkpt>
      <trkpt lat="48.44476" lon="-4.34413">
        <ele>138</ele>
        <time>2012-02-26T10:34:43.57</time>
      </trkpt>
      <trkpt lat="48.44479" lon="-4.34413">
        <ele>138</ele>
        <time>2012-02-26T10:34:44.56</time>
      </trkpt>
      <trkpt lat="48.44481" lon="-4.34411">
        <ele>138</ele>
        <time>2012-02-26T10:34:45.56</time>
      </trkpt>
      <trkpt lat="48.44484" lon="-4.34408">
        <ele>138</ele>
        <time>2012-02-26T10:34:46.56</time>
      </trkpt>
      <trkpt lat="48.44487" lon="-4.34406">
        <ele>138</ele>
        <time>2012-02-26T10:34:47.56</time>
      </trkpt>
      <trkpt lat="48.44489" lon="-4.34404">
        <ele>138</ele>
        <time>2012-02-26T10:34:48.56</time>
      </trkpt>
      <trkpt lat="48.44491" lon="-4.34404">
        <ele>138</ele>
        <time>2012-02-26T10:34:49.56</time>
      </trkpt>
      <trkpt lat="48.44494" lon="-4.34402">
        <ele>138</ele>
        <time>2012-02-26T10:34:50.56</time>
      </trkpt>
      <trkpt lat="48.44496" lon="-4.344">
        <ele>138</ele>
        <time>2012-02-26T10:34:51.57</time>
      </trkpt>
      <trkpt lat="48.445" lon="-4.34398">
        <ele>138</ele>
        <time>2012-02-26T10:34:52.58</time>
      </trkpt>
      <trkpt lat="48.44502" lon="-4.34396">
        <ele>138</ele>
        <time>2012-02-26T10:34:53.56</time>
      </trkpt>
      <trkpt lat="48.44505" lon="-4.34393">
        <ele>139</ele>
        <time>2012-02-26T10:34:54.56</time>
      </trkpt>
      <trkpt lat="48.44507" lon="-4.34391">
        <ele>139</ele>
        <time>2012-02-26T10:34:55.56</time>
      </trkpt>
      <trkpt lat="48.4451" lon="-4.34389">
        <ele>139</ele>
        <time>2012-02-26T10:34:56.57</time>
      </trkpt>
      <trkpt lat="48.44514" lon="-4.34385">
        <ele>139</ele>
        <time>2012-02-26T10:34:57.56</time>
      </trkpt>
      <trkpt lat="48.44518" lon="-4.34383">
        <ele>139</ele>
        <time>2012-02-26T10:34:58.57</time>
      </trkpt>
      <trkpt lat="48.44521" lon="-4.34381">
        <ele>139</ele>
        <time>2012-02-26T10:34:59.57</time>
      </trkpt>
      <trkpt lat="48.44524" lon="-4.34378">
        <ele>139</ele>
        <time>2012-02-26T10:35:00.63</time>
      </trkpt>
      <trkpt lat="48.44527" lon="-4.34376">
        <ele>139</ele>
        <time>2012-02-26T10:35:01.58</time>
      </trkpt>
      <trkpt lat="48.4453" lon="-4.34374">
        <ele>139</ele>
        <time>2012-02-26T10:35:02.56</time>
      </trkpt>
      <trkpt lat="48.44533" lon="-4.3437">
        <ele>139</ele>
        <time>2012-02-26T10:35:03.57</time>
      </trkpt>
      <trkpt lat="48.44536" lon="-4.34368">
        <ele>139</ele>
        <time>2012-02-26T10:35:04.56</time>
      </trkpt>
      <trkpt lat="48.4454" lon="-4.34366">
        <ele>139</ele>
        <time>2012-02-26T10:35:05.56</time>
      </trkpt>
      <trkpt lat="48.44544" lon="-4.34363">
        <ele>139</ele>
        <time>2012-02-26T10:35:06.56</time>
      </trkpt>
      <trkpt lat="48.44547" lon="-4.34359">
        <ele>139</ele>
        <time>2012-02-26T10:35:07.57</time>
      </trkpt>
      <trkpt lat="48.4455" lon="-4.34357">
        <ele>139</ele>
        <time>2012-02-26T10:35:08.56</time>
      </trkpt>
      <trkpt lat="48.44553" lon="-4.34355">
        <ele>140</ele>
        <time>2012-02-26T10:35:09.56</time>
      </trkpt>
      <trkpt lat="48.44555" lon="-4.3435">
        <ele>140</ele>
        <time>2012-02-26T10:35:10.56</time>
      </trkpt>
      <trkpt lat="48.44559" lon="-4.34348">
        <ele>140</ele>
        <time>2012-02-26T10:35:11.56</time>
      </trkpt>
      <trkpt lat="48.44562" lon="-4.34346">
        <ele>140</ele>
        <time>2012-02-26T10:35:12.56</time>
      </trkpt>
      <trkpt lat="48.44564" lon="-4.34344">
        <ele>140</ele>
        <time>2012-02-26T10:35:13.56</time>
      </trkpt>
      <trkpt lat="48.44567" lon="-4.3434">
        <ele>140</ele>
        <time>2012-02-26T10:35:14.56</time>
      </trkpt>
      <trkpt lat="48.44571" lon="-4.34338">
        <ele>140</ele>
        <time>2012-02-26T10:35:15.55</time>
      </trkpt>
      <trkpt lat="48.44574" lon="-4.34335">
        <ele>140</ele>
        <time>2012-02-26T10:35:16.56</time>
      </trkpt>
      <trkpt lat="48.44577" lon="-4.34335">
        <ele>140</ele>
        <time>2012-02-26T10:35:17.56</time>
      </trkpt>
      <trkpt lat="48.44581" lon="-4.34333">
        <ele>140</ele>
        <time>2012-02-26T10:35:18.56</time>
      </trkpt>
      <trkpt lat="48.44586" lon="-4.34333">
        <ele>140</ele>
        <time>2012-02-26T10:35:19.56</time>
      </trkpt>
      <trkpt lat="48.4459" lon="-4.34331">
        <ele>140</ele>
        <time>2012-02-26T10:35:20.56</time>
      </trkpt>
      <trkpt lat="48.44594" lon="-4.34329">
        <ele>140</ele>
        <time>2012-02-26T10:35:21.56</time>
      </trkpt>
      <trkpt lat="48.44598" lon="-4.34329">
        <ele>140</ele>
        <time>2012-02-26T10:35:22.56</time>
      </trkpt>
      <trkpt lat="48.44604" lon="-4.34327">
        <ele>141</ele>
        <time>2012-02-26T10:35:23.56</time>
      </trkpt>
      <trkpt lat="48.44608" lon="-4.34327">
        <ele>141</ele>
        <time>2012-02-26T10:35:24.56</time>
      </trkpt>
      <trkpt lat="48.44611" lon="-4.34327">
        <ele>141</ele>
        <time>2012-02-26T10:35:25.55</time>
      </trkpt>
      <trkpt lat="48.44616" lon="-4.34327">
        <ele>141</ele>
        <time>2012-02-26T10:35:26.56</time>
      </trkpt>
      <trkpt lat="48.44619" lon="-4.34325">
        <ele>141</ele>
        <time>2012-02-26T10:35:27.56</time>
      </trkpt>
      <trkpt lat="48.44622" lon="-4.34323">
        <ele>142</ele>
        <time>2012-02-26T10:35:28.56</time>
      </trkpt>
      <trkpt lat="48.44625" lon="-4.3432">
        <ele>142</ele>
        <time>2012-02-26T10:35:29.56</time>
      </trkpt>
      <trkpt lat="48.44627" lon="-4.34318">
        <ele>142</ele>
        <time>2012-02-26T10:35:30.56</time>
      </trkpt>
      <trkpt lat="48.4463" lon="-4.34316">
        <ele>142</ele>
        <time>2012-02-26T10:35:31.57</time>
      </trkpt>
      <trkpt lat="48.44633" lon="-4.34314">
        <ele>142</ele>
        <time>2012-02-26T10:35:32.56</time>
      </trkpt>
      <trkpt lat="48.44635" lon="-4.3431">
        <ele>142</ele>
        <time>2012-02-26T10:35:33.57</time>
      </trkpt>
      <trkpt lat="48.44637" lon="-4.34308">
        <ele>142</ele>
        <time>2012-02-26T10:35:34.56</time>
      </trkpt>
      <trkpt lat="48.44639" lon="-4.34305">
        <ele>143</ele>
        <time>2012-02-26T10:35:35.56</time>
      </trkpt>
      <trkpt lat="48.44641" lon="-4.34301">
        <ele>143</ele>
        <time>2012-02-26T10:35:36.57</time>
      </trkpt>
      <trkpt lat="48.44643" lon="-4.34299">
        <ele>143</ele>
        <time>2012-02-26T10:35:37.57</time>
      </trkpt>
      <trkpt lat="48.44647" lon="-4.34299">
        <ele>143</ele>
        <time>2012-02-26T10:35:38.56</time>
      </trkpt>
      <trkpt lat="48.4465" lon="-4.34299">
        <ele>143</ele>
        <time>2012-02-26T10:35:39.57</time>
      </trkpt>
      <trkpt lat="48.44652" lon="-4.34299">
        <ele>143</ele>
        <time>2012-02-26T10:35:40.57</time>
      </trkpt>
      <trkpt lat="48.44656" lon="-4.34299">
        <ele>143</ele>
        <time>2012-02-26T10:35:41.57</time>
      </trkpt>
      <trkpt lat="48.44661" lon="-4.34299">
        <ele>143</ele>
        <time>2012-02-26T10:35:42.57</time>
      </trkpt>
      <trkpt lat="48.44664" lon="-4.34299">
        <ele>143</ele>
        <time>2012-02-26T10:35:43.57</time>
      </trkpt>
      <trkpt lat="48.44668" lon="-4.34299">
        <ele>143</ele>
        <time>2012-02-26T10:35:44.57</time>
      </trkpt>
      <trkpt lat="48.44672" lon="-4.34299">
        <ele>143</ele>
        <time>2012-02-26T10:35:45.57</time>
      </trkpt>
      <trkpt lat="48.44676" lon="-4.34299">
        <ele>143</ele>
        <time>2012-02-26T10:35:46.56</time>
      </trkpt>
      <trkpt lat="48.44679" lon="-4.34301">
        <ele>143</ele>
        <time>2012-02-26T10:35:47.56</time>
      </trkpt>
      <trkpt lat="48.44683" lon="-4.34301">
        <ele>143</ele>
        <time>2012-02-26T10:35:48.56</time>
      </trkpt>
      <trkpt lat="48.44686" lon="-4.34301">
        <ele>144</ele>
        <time>2012-02-26T10:35:49.57</time>
      </trkpt>
      <trkpt lat="48.4469" lon="-4.34301">
        <ele>144</ele>
        <time>2012-02-26T10:35:50.57</time>
      </trkpt>
      <trkpt lat="48.44693" lon="-4.34301">
        <ele>144</ele>
        <time>2012-02-26T10:35:51.56</time>
      </trkpt>
      <trkpt lat="48.44696" lon="-4.34301">
        <ele>144</ele>
        <time>2012-02-26T10:35:52.56</time>
      </trkpt>
      <trkpt lat="48.44699" lon="-4.34303">
        <ele>144</ele>
        <time>2012-02-26T10:35:53.57</time>
      </trkpt>
      <trkpt lat="48.44701" lon="-4.34303">
        <ele>144</ele>
        <time>2012-02-26T10:35:54.56</time>
      </trkpt>
      <trkpt lat="48.44705" lon="-4.34303">
        <ele>145</ele>
        <time>2012-02-26T10:35:55.57</time>
      </trkpt>
      <trkpt lat="48.44709" lon="-4.34305">
        <ele>145</ele>
        <time>2012-02-26T10:35:57.56</time>
      </trkpt>
      <trkpt lat="48.44714" lon="-4.34308">
        <ele>146</ele>
        <time>2012-02-26T10:36:00.58</time>
      </trkpt>
      <trkpt lat="48.44721" lon="-4.3431">
        <ele>146</ele>
        <time>2012-02-26T10:36:03.56</time>
      </trkpt>
      <trkpt lat="48.44723" lon="-4.3431">
        <ele>147</ele>
        <time>2012-02-26T10:36:04.61</time>
      </trkpt>
      <trkpt lat="48.44725" lon="-4.3431">
        <ele>147</ele>
        <time>2012-02-26T10:36:05.56</time>
      </trkpt>
      <trkpt lat="48.44727" lon="-4.3431">
        <ele>147</ele>
        <time>2012-02-26T10:36:06.57</time>
      </trkpt>
      <trkpt lat="48.44734" lon="-4.34312">
        <ele>148</ele>
        <time>2012-02-26T10:36:09.54</time>
      </trkpt>
      <trkpt lat="48.44739" lon="-4.34314">
        <ele>149</ele>
        <time>2012-02-26T10:36:11.56</time>
      </trkpt>
      <trkpt lat="48.44741" lon="-4.34314">
        <ele>149</ele>
        <time>2012-02-26T10:36:12.56</time>
      </trkpt>
      <trkpt lat="48.44743" lon="-4.34316">
        <ele>149</ele>
        <time>2012-02-26T10:36:13.56</time>
      </trkpt>
      <trkpt lat="48.44746" lon="-4.34316">
        <ele>149</ele>
        <time>2012-02-26T10:36:14.59</time>
      </trkpt>
      <trkpt lat="48.44749" lon="-4.34316">
        <ele>150</ele>
        <time>2012-02-26T10:36:15.56</time>
      </trkpt>
      <trkpt lat="48.44752" lon="-4.34316">
        <ele>150</ele>
        <time>2012-02-26T10:36:16.57</time>
      </trkpt>
      <trkpt lat="48.44754" lon="-4.34316">
        <ele>150</ele>
        <time>2012-02-26T10:36:17.58</time>
      </trkpt>
      <trkpt lat="48.44757" lon="-4.34318">
        <ele>150</ele>
        <time>2012-02-26T10:36:18.56</time>
      </trkpt>
      <trkpt lat="48.44759" lon="-4.34318">
        <ele>151</ele>
        <time>2012-02-26T10:36:19.57</time>
      </trkpt>
      <trkpt lat="48.44761" lon="-4.34318">
        <ele>151</ele>
        <time>2012-02-26T10:36:20.56</time>
      </trkpt>
      <trkpt lat="48.44765" lon="-4.34318">
        <ele>151</ele>
        <time>2012-02-26T10:36:21.56</time>
      </trkpt>
      <trkpt lat="48.44767" lon="-4.34318">
        <ele>151</ele>
        <time>2012-02-26T10:36:22.56</time>
      </trkpt>
      <trkpt lat="48.4477" lon="-4.34318">
        <ele>151</ele>
        <time>2012-02-26T10:36:23.56</time>
      </trkpt>
      <trkpt lat="48.44772" lon="-4.34318">
        <ele>152</ele>
        <time>2012-02-26T10:36:24.56</time>
      </trkpt>
      <trkpt lat="48.44775" lon="-4.34318">
        <ele>152</ele>
        <time>2012-02-26T10:36:25.56</time>
      </trkpt>
      <trkpt lat="48.44778" lon="-4.34318">
        <ele>152</ele>
        <time>2012-02-26T10:36:26.56</time>
      </trkpt>
      <trkpt lat="48.44781" lon="-4.34318">
        <ele>152</ele>
        <time>2012-02-26T10:36:27.56</time>
      </trkpt>
      <trkpt lat="48.44783" lon="-4.34318">
        <ele>152</ele>
        <time>2012-02-26T10:36:28.56</time>
      </trkpt>
      <trkpt lat="48.44786" lon="-4.34318">
        <ele>152</ele>
        <time>2012-02-26T10:36:29.56</time>
      </trkpt>
      <trkpt lat="48.44788" lon="-4.34318">
        <ele>152</ele>
        <time>2012-02-26T10:36:30.56</time>
      </trkpt>
      <trkpt lat="48.4479" lon="-4.34318">
        <ele>153</ele>
        <time>2012-02-26T10:36:31.56</time>
      </trkpt>
      <trkpt lat="48.44794" lon="-4.3432">
        <ele>153</ele>
        <time>2012-02-26T10:36:32.56</time>
      </trkpt>
      <trkpt lat="48.44796" lon="-4.3432">
        <ele>153</ele>
        <time>2012-02-26T10:36:33.56</time>
      </trkpt>
      <trkpt lat="48.44799" lon="-4.3432">
        <ele>153</ele>
        <time>2012-02-26T10:36:34.56</time>
      </trkpt>
      <trkpt lat="48.44802" lon="-4.3432">
        <ele>153</ele>
        <time>2012-02-26T10:36:35.56</time>
      </trkpt>
      <trkpt lat="48.44805" lon="-4.3432">
        <ele>153</ele>
        <time>2012-02-26T10:36:36.56</time>
      </trkpt>
      <trkpt lat="48.44808" lon="-4.3432">
        <ele>154</ele>
        <time>2012-02-26T10:36:37.56</time>
      </trkpt>
      <trkpt lat="48.44811" lon="-4.34323">
        <ele>154</ele>
        <time>2012-02-26T10:36:38.56</time>
      </trkpt>
      <trkpt lat="48.44814" lon="-4.34323">
        <ele>154</ele>
        <time>2012-02-26T10:36:39.56</time>
      </trkpt>
      <trkpt lat="48.44817" lon="-4.34323">
        <ele>154</ele>
        <time>2012-02-26T10:36:40.56</time>
      </trkpt>
      <trkpt lat="48.4482" lon="-4.34323">
        <ele>154</ele>
        <time>2012-02-26T10:36:41.57</time>
      </trkpt>
      <trkpt lat="48.44824" lon="-4.34323">
        <ele>154</ele>
        <time>2012-02-26T10:36:42.56</time>
      </trkpt>
      <trkpt lat="48.44827" lon="-4.34325">
        <ele>154</ele>
        <time>2012-02-26T10:36:43.56</time>
      </trkpt>
      <trkpt lat="48.4483" lon="-4.34325">
        <ele>154</ele>
        <time>2012-02-26T10:36:44.56</time>
      </trkpt>
      <trkpt lat="48.44832" lon="-4.34325">
        <ele>154</ele>
        <time>2012-02-26T10:36:45.58</time>
      </trkpt>
      <trkpt lat="48.44836" lon="-4.34325">
        <ele>155</ele>
        <time>2012-02-26T10:36:46.58</time>
      </trkpt>
      <trkpt lat="48.44839" lon="-4.34325">
        <ele>155</ele>
        <time>2012-02-26T10:36:47.56</time>
      </trkpt>
      <trkpt lat="48.44842" lon="-4.34325">
        <ele>155</ele>
        <time>2012-02-26T10:36:48.56</time>
      </trkpt>
      <trkpt lat="48.44846" lon="-4.34323">
        <ele>155</ele>
        <time>2012-02-26T10:36:49.56</time>
      </trkpt>
      <trkpt lat="48.44849" lon="-4.34323">
        <ele>155</ele>
        <time>2012-02-26T10:36:50.57</time>
      </trkpt>
      <trkpt lat="48.44853" lon="-4.34323">
        <ele>155</ele>
        <time>2012-02-26T10:36:51.57</time>
      </trkpt>
      <trkpt lat="48.44857" lon="-4.34323">
        <ele>155</ele>
        <time>2012-02-26T10:36:52.57</time>
      </trkpt>
      <trkpt lat="48.4486" lon="-4.34323">
        <ele>155</ele>
        <time>2012-02-26T10:36:53.57</time>
      </trkpt>
      <trkpt lat="48.44864" lon="-4.34323">
        <ele>155</ele>
        <time>2012-02-26T10:36:54.57</time>
      </trkpt>
      <trkpt lat="48.44868" lon="-4.34323">
        <ele>155</ele>
        <time>2012-02-26T10:36:55.57</time>
      </trkpt>
      <trkpt lat="48.44871" lon="-4.34323">
        <ele>156</ele>
        <time>2012-02-26T10:36:56.56</time>
      </trkpt>
      <trkpt lat="48.44875" lon="-4.34323">
        <ele>156</ele>
        <time>2012-02-26T10:36:57.56</time>
      </trkpt>
      <trkpt lat="48.44878" lon="-4.34323">
        <ele>156</ele>
        <time>2012-02-26T10:36:58.57</time>
      </trkpt>
      <trkpt lat="48.44881" lon="-4.34323">
        <ele>156</ele>
        <time>2012-02-26T10:36:59.56</time>
      </trkpt>
      <trkpt lat="48.44884" lon="-4.34323">
        <ele>156</ele>
        <time>2012-02-26T10:37:00.56</time>
      </trkpt>
      <trkpt lat="48.44887" lon="-4.34323">
        <ele>156</ele>
        <time>2012-02-26T10:37:01.56</time>
      </trkpt>
      <trkpt lat="48.44889" lon="-4.34323">
        <ele>156</ele>
        <time>2012-02-26T10:37:02.57</time>
      </trkpt>
      <trkpt lat="48.44892" lon="-4.34323">
        <ele>156</ele>
        <time>2012-02-26T10:37:03.56</time>
      </trkpt>
      <trkpt lat="48.44895" lon="-4.34325">
        <ele>156</ele>
        <time>2012-02-26T10:37:04.57</time>
      </trkpt>
      <trkpt lat="48.44897" lon="-4.34327">
        <ele>156</ele>
        <time>2012-02-26T10:37:05.57</time>
      </trkpt>
      <trkpt lat="48.44899" lon="-4.34331">
        <ele>156</ele>
        <time>2012-02-26T10:37:06.56</time>
      </trkpt>
      <trkpt lat="48.449" lon="-4.34335">
        <ele>157</ele>
        <time>2012-02-26T10:37:07.56</time>
      </trkpt>
      <trkpt lat="48.44901" lon="-4.3434">
        <ele>157</ele>
        <time>2012-02-26T10:37:08.56</time>
      </trkpt>
      <trkpt lat="48.449" lon="-4.34342">
        <ele>157</ele>
        <time>2012-02-26T10:37:09.56</time>
      </trkpt>
      <trkpt lat="48.44899" lon="-4.34346">
        <ele>157</ele>
        <time>2012-02-26T10:37:10.57</time>
      </trkpt>
      <trkpt lat="48.44898" lon="-4.3435">
        <ele>157</ele>
        <time>2012-02-26T10:37:11.56</time>
      </trkpt>
      <trkpt lat="48.44898" lon="-4.34355">
        <ele>157</ele>
        <time>2012-02-26T10:37:12.56</time>
      </trkpt>
      <trkpt lat="48.44897" lon="-4.34361">
        <ele>157</ele>
        <time>2012-02-26T10:37:13.56</time>
      </trkpt>
      <trkpt lat="48.44897" lon="-4.34366">
        <ele>157</ele>
        <time>2012-02-26T10:37:14.56</time>
      </trkpt>
      <trkpt lat="48.44897" lon="-4.34372">
        <ele>157</ele>
        <time>2012-02-26T10:37:15.56</time>
      </trkpt>
      <trkpt lat="48.44897" lon="-4.34376">
        <ele>157</ele>
        <time>2012-02-26T10:37:16.56</time>
      </trkpt>
      <trkpt lat="48.44897" lon="-4.34381">
        <ele>157</ele>
        <time>2012-02-26T10:37:17.67</time>
      </trkpt>
      <trkpt lat="48.44897" lon="-4.34387">
        <ele>157</ele>
        <time>2012-02-26T10:37:18.56</time>
      </trkpt>
      <trkpt lat="48.44898" lon="-4.34393">
        <ele>157</ele>
        <time>2012-02-26T10:37:19.56</time>
      </trkpt>
      <trkpt lat="48.44898" lon="-4.34398">
        <ele>157</ele>
        <time>2012-02-26T10:37:20.56</time>
      </trkpt>
      <trkpt lat="48.44899" lon="-4.34404">
        <ele>157</ele>
        <time>2012-02-26T10:37:21.56</time>
      </trkpt>
      <trkpt lat="48.449" lon="-4.34408">
        <ele>157</ele>
        <time>2012-02-26T10:37:22.63</time>
      </trkpt>
      <trkpt lat="48.44901" lon="-4.34415">
        <ele>158</ele>
        <time>2012-02-26T10:37:23.56</time>
      </trkpt>
      <trkpt lat="48.44902" lon="-4.34419">
        <ele>158</ele>
        <time>2012-02-26T10:37:24.56</time>
      </trkpt>
      <trkpt lat="48.44903" lon="-4.34423">
        <ele>158</ele>
        <time>2012-02-26T10:37:25.56</time>
      </trkpt>
      <trkpt lat="48.44903" lon="-4.3443">
        <ele>158</ele>
        <time>2012-02-26T10:37:26.64</time>
      </trkpt>
      <trkpt lat="48.44903" lon="-4.34432">
        <ele>158</ele>
        <time>2012-02-26T10:37:27.56</time>
      </trkpt>
      <trkpt lat="48.44902" lon="-4.34436">
        <ele>158</ele>
        <time>2012-02-26T10:37:28.56</time>
      </trkpt>
      <trkpt lat="48.44901" lon="-4.34441">
        <ele>158</ele>
        <time>2012-02-26T10:37:29.56</time>
      </trkpt>
      <trkpt lat="48.44899" lon="-4.34445">
        <ele>158</ele>
        <time>2012-02-26T10:37:30.54</time>
      </trkpt>
      <trkpt lat="48.44897" lon="-4.34449">
        <ele>159</ele>
        <time>2012-02-26T10:37:31.56</time>
      </trkpt>
      <trkpt lat="48.44891" lon="-4.34456">
        <ele>159</ele>
        <time>2012-02-26T10:37:32.57</time>
      </trkpt>
      <trkpt lat="48.44888" lon="-4.3446">
        <ele>160</ele>
        <time>2012-02-26T10:37:33.56</time>
      </trkpt>
      <trkpt lat="48.44885" lon="-4.34464">
        <ele>160</ele>
        <time>2012-02-26T10:37:34.56</time>
      </trkpt>
      <trkpt lat="48.44882" lon="-4.34466">
        <ele>160</ele>
        <time>2012-02-26T10:37:35.61</time>
      </trkpt>
      <trkpt lat="48.44878" lon="-4.34471">
        <ele>160</ele>
        <time>2012-02-26T10:37:36.56</time>
      </trkpt>
      <trkpt lat="48.44875" lon="-4.34473">
        <ele>160</ele>
        <time>2012-02-26T10:37:37.56</time>
      </trkpt>
      <trkpt lat="48.44872" lon="-4.34477">
        <ele>161</ele>
        <time>2012-02-26T10:37:38.56</time>
      </trkpt>
      <trkpt lat="48.44869" lon="-4.34479">
        <ele>161</ele>
        <time>2012-02-26T10:37:39.56</time>
      </trkpt>
      <trkpt lat="48.44866" lon="-4.34481">
        <ele>162</ele>
        <time>2012-02-26T10:37:40.54</time>
      </trkpt>
      <trkpt lat="48.44862" lon="-4.34486">
        <ele>162</ele>
        <time>2012-02-26T10:37:41.56</time>
      </trkpt>
      <trkpt lat="48.44859" lon="-4.3449">
        <ele>162</ele>
        <time>2012-02-26T10:37:42.56</time>
      </trkpt>
      <trkpt lat="48.44856" lon="-4.34492">
        <ele>162</ele>
        <time>2012-02-26T10:37:43.56</time>
      </trkpt>
      <trkpt lat="48.44853" lon="-4.34494">
        <ele>162</ele>
        <time>2012-02-26T10:37:44.59</time>
      </trkpt>
      <trkpt lat="48.44849" lon="-4.34496">
        <ele>162</ele>
        <time>2012-02-26T10:37:45.56</time>
      </trkpt>
      <trkpt lat="48.44846" lon="-4.34501">
        <ele>162</ele>
        <time>2012-02-26T10:37:46.54</time>
      </trkpt>
      <trkpt lat="48.44842" lon="-4.34501">
        <ele>162</ele>
        <time>2012-02-26T10:37:47.56</time>
      </trkpt>
      <trkpt lat="48.44839" lon="-4.34503">
        <ele>162</ele>
        <time>2012-02-26T10:37:48.56</time>
      </trkpt>
      <trkpt lat="48.44834" lon="-4.34505">
        <ele>162</ele>
        <time>2012-02-26T10:37:49.56</time>
      </trkpt>
      <trkpt lat="48.44831" lon="-4.34505">
        <ele>162</ele>
        <time>2012-02-26T10:37:50.56</time>
      </trkpt>
      <trkpt lat="48.44827" lon="-4.34507">
        <ele>162</ele>
        <time>2012-02-26T10:37:51.61</time>
      </trkpt>
      <trkpt lat="48.44823" lon="-4.34507">
        <ele>162</ele>
        <time>2012-02-26T10:37:52.56</time>
      </trkpt>
      <trkpt lat="48.44818" lon="-4.34509">
        <ele>162</ele>
        <time>2012-02-26T10:37:53.56</time>
      </trkpt>
      <trkpt lat="48.44815" lon="-4.34514">
        <ele>162</ele>
        <time>2012-02-26T10:37:54.56</time>
      </trkpt>
      <trkpt lat="48.44812" lon="-4.34518">
        <ele>162</ele>
        <time>2012-02-26T10:37:55.56</time>
      </trkpt>
      <trkpt lat="48.4481" lon="-4.34524">
        <ele>162</ele>
        <time>2012-02-26T10:37:56.56</time>
      </trkpt>
      <trkpt lat="48.44809" lon="-4.34531">
        <ele>162</ele>
        <time>2012-02-26T10:37:57.56</time>
      </trkpt>
      <trkpt lat="48.44808" lon="-4.34537">
        <ele>162</ele>
        <time>2012-02-26T10:37:58.57</time>
      </trkpt>
      <trkpt lat="48.44809" lon="-4.34546">
        <ele>162</ele>
        <time>2012-02-26T10:37:59.57</time>
      </trkpt>
      <trkpt lat="48.44809" lon="-4.34552">
        <ele>162</ele>
        <time>2012-02-26T10:38:00.56</time>
      </trkpt>
      <trkpt lat="48.4481" lon="-4.34559">
        <ele>162</ele>
        <time>2012-02-26T10:38:01.56</time>
      </trkpt>
      <trkpt lat="48.44812" lon="-4.34567">
        <ele>162</ele>
        <time>2012-02-26T10:38:02.54</time>
      </trkpt>
      <trkpt lat="48.44813" lon="-4.34574">
        <ele>162</ele>
        <time>2012-02-26T10:38:03.56</time>
      </trkpt>
      <trkpt lat="48.44815" lon="-4.3458">
        <ele>162</ele>
        <time>2012-02-26T10:38:04.56</time>
      </trkpt>
      <trkpt lat="48.44816" lon="-4.34587">
        <ele>162</ele>
        <time>2012-02-26T10:38:05.56</time>
      </trkpt>
      <trkpt lat="48.44818" lon="-4.34591">
        <ele>162</ele>
        <time>2012-02-26T10:38:06.56</time>
      </trkpt>
      <trkpt lat="48.44819" lon="-4.34597">
        <ele>162</ele>
        <time>2012-02-26T10:38:07.60</time>
      </trkpt>
      <trkpt lat="48.44822" lon="-4.34604">
        <ele>162</ele>
        <time>2012-02-26T10:38:08.56</time>
      </trkpt>
      <trkpt lat="48.44823" lon="-4.3461">
        <ele>162</ele>
        <time>2012-02-26T10:38:09.56</time>
      </trkpt>
      <trkpt lat="48.44824" lon="-4.34617">
        <ele>162</ele>
        <time>2012-02-26T10:38:10.56</time>
      </trkpt>
      <trkpt lat="48.44825" lon="-4.34623">
        <ele>162</ele>
        <time>2012-02-26T10:38:11.56</time>
      </trkpt>
      <trkpt lat="48.44826" lon="-4.34629">
        <ele>162</ele>
        <time>2012-02-26T10:38:12.56</time>
      </trkpt>
      <trkpt lat="48.44827" lon="-4.34636">
        <ele>162</ele>
        <time>2012-02-26T10:38:13.57</time>
      </trkpt>
      <trkpt lat="48.44828" lon="-4.34642">
        <ele>162</ele>
        <time>2012-02-26T10:38:14.57</time>
      </trkpt>
      <trkpt lat="48.44829" lon="-4.34649">
        <ele>162</ele>
        <time>2012-02-26T10:38:15.56</time>
      </trkpt>
      <trkpt lat="48.4483" lon="-4.34655">
        <ele>162</ele>
        <time>2012-02-26T10:38:16.57</time>
      </trkpt>
      <trkpt lat="48.44831" lon="-4.34662">
        <ele>162</ele>
        <time>2012-02-26T10:38:17.57</time>
      </trkpt>
      <trkpt lat="48.44832" lon="-4.34668">
        <ele>162</ele>
        <time>2012-02-26T10:38:18.54</time>
      </trkpt>
      <trkpt lat="48.44833" lon="-4.34675">
        <ele>162</ele>
        <time>2012-02-26T10:38:19.57</time>
      </trkpt>
      <trkpt lat="48.44836" lon="-4.34683">
        <ele>162</ele>
        <time>2012-02-26T10:38:20.56</time>
      </trkpt>
      <trkpt lat="48.44837" lon="-4.3469">
        <ele>162</ele>
        <time>2012-02-26T10:38:21.56</time>
      </trkpt>
      <trkpt lat="48.44838" lon="-4.34696">
        <ele>162</ele>
        <time>2012-02-26T10:38:22.56</time>
      </trkpt>
      <trkpt lat="48.44839" lon="-4.34705">
        <ele>162</ele>
        <time>2012-02-26T10:38:23.61</time>
      </trkpt>
      <trkpt lat="48.4484" lon="-4.34711">
        <ele>162</ele>
        <time>2012-02-26T10:38:24.57</time>
      </trkpt>
      <trkpt lat="48.4484" lon="-4.34717">
        <ele>162</ele>
        <time>2012-02-26T10:38:25.57</time>
      </trkpt>
      <trkpt lat="48.4484" lon="-4.34722">
        <ele>162</ele>
        <time>2012-02-26T10:38:26.58</time>
      </trkpt>
      <trkpt lat="48.44841" lon="-4.34726">
        <ele>162</ele>
        <time>2012-02-26T10:38:27.56</time>
      </trkpt>
      <trkpt lat="48.44843" lon="-4.34728">
        <ele>162</ele>
        <time>2012-02-26T10:38:28.57</time>
      </trkpt>
      <trkpt lat="48.44845" lon="-4.3473">
        <ele>162</ele>
        <time>2012-02-26T10:38:29.58</time>
      </trkpt>
      <trkpt lat="48.44847" lon="-4.3473">
        <ele>162</ele>
        <time>2012-02-26T10:38:30.56</time>
      </trkpt>
      <trkpt lat="48.44851" lon="-4.34728">
        <ele>162</ele>
        <time>2012-02-26T10:38:31.57</time>
      </trkpt>
      <trkpt lat="48.44853" lon="-4.34726">
        <ele>162</ele>
        <time>2012-02-26T10:38:32.57</time>
      </trkpt>
      <trkpt lat="48.44856" lon="-4.34726">
        <ele>162</ele>
        <time>2012-02-26T10:38:33.56</time>
      </trkpt>
      <trkpt lat="48.44858" lon="-4.34724">
        <ele>162</ele>
        <time>2012-02-26T10:38:34.55</time>
      </trkpt>
      <trkpt lat="48.44861" lon="-4.34722">
        <ele>162</ele>
        <time>2012-02-26T10:38:35.58</time>
      </trkpt>
      <trkpt lat="48.44864" lon="-4.34722">
        <ele>162</ele>
        <time>2012-02-26T10:38:36.57</time>
      </trkpt>
      <trkpt lat="48.44868" lon="-4.3472">
        <ele>162</ele>
        <time>2012-02-26T10:38:37.55</time>
      </trkpt>
      <trkpt lat="48.44871" lon="-4.3472">
        <ele>162</ele>
        <time>2012-02-26T10:38:38.56</time>
      </trkpt>
      <trkpt lat="48.44873" lon="-4.34717">
        <ele>162</ele>
        <time>2012-02-26T10:38:39.61</time>
      </trkpt>
      <trkpt lat="48.44876" lon="-4.34717">
        <ele>162</ele>
        <time>2012-02-26T10:38:40.56</time>
      </trkpt>
      <trkpt lat="48.4488" lon="-4.34715">
        <ele>162</ele>
        <time>2012-02-26T10:38:41.56</time>
      </trkpt>
      <trkpt lat="48.44882" lon="-4.34715">
        <ele>162</ele>
        <time>2012-02-26T10:38:42.56</time>
      </trkpt>
      <trkpt lat="48.44885" lon="-4.34713">
        <ele>162</ele>
        <time>2012-02-26T10:38:43.56</time>
      </trkpt>
      <trkpt lat="48.44887" lon="-4.34713">
        <ele>162</ele>
        <time>2012-02-26T10:38:44.57</time>
      </trkpt>
      <trkpt lat="48.44889" lon="-4.34711">
        <ele>163</ele>
        <time>2012-02-26T10:38:45.56</time>
      </trkpt>
      <trkpt lat="48.44891" lon="-4.34711">
        <ele>163</ele>
        <time>2012-02-26T10:38:46.56</time>
      </trkpt>
      <trkpt lat="48.44893" lon="-4.34709">
        <ele>163</ele>
        <time>2012-02-26T10:38:47.56</time>
      </trkpt>
      <trkpt lat="48.44896" lon="-4.34709">
        <ele>163</ele>
        <time>2012-02-26T10:38:48.56</time>
      </trkpt>
      <trkpt lat="48.44899" lon="-4.34707">
        <ele>163</ele>
        <time>2012-02-26T10:38:49.57</time>
      </trkpt>
      <trkpt lat="48.44901" lon="-4.34707">
        <ele>163</ele>
        <time>2012-02-26T10:38:50.56</time>
      </trkpt>
      <trkpt lat="48.44903" lon="-4.34705">
        <ele>163</ele>
        <time>2012-02-26T10:38:51.56</time>
      </trkpt>
      <trkpt lat="48.44904" lon="-4.34705">
        <ele>163</ele>
        <time>2012-02-26T10:38:52.56</time>
      </trkpt>
      <trkpt lat="48.44908" lon="-4.34705">
        <ele>163</ele>
        <time>2012-02-26T10:38:55.61</time>
      </trkpt>
      <trkpt lat="48.4491" lon="-4.34702">
        <ele>163</ele>
        <time>2012-02-26T10:38:56.58</time>
      </trkpt>
      <trkpt lat="48.44912" lon="-4.34702">
        <ele>163</ele>
        <time>2012-02-26T10:38:57.56</time>
      </trkpt>
      <trkpt lat="48.44915" lon="-4.34702">
        <ele>164</ele>
        <time>2012-02-26T10:38:58.56</time>
      </trkpt>
      <trkpt lat="48.44918" lon="-4.347">
        <ele>164</ele>
        <time>2012-02-26T10:38:59.56</time>
      </trkpt>
      <trkpt lat="48.4492" lon="-4.347">
        <ele>164</ele>
        <time>2012-02-26T10:39:00.56</time>
      </trkpt>
      <trkpt lat="48.44923" lon="-4.34698">
        <ele>164</ele>
        <time>2012-02-26T10:39:01.56</time>
      </trkpt>
      <trkpt lat="48.44927" lon="-4.34698">
        <ele>164</ele>
        <time>2012-02-26T10:39:02.56</time>
      </trkpt>
      <trkpt lat="48.4493" lon="-4.34698">
        <ele>164</ele>
        <time>2012-02-26T10:39:03.56</time>
      </trkpt>
      <trkpt lat="48.44932" lon="-4.34696">
        <ele>164</ele>
        <time>2012-02-26T10:39:04.56</time>
      </trkpt>
      <trkpt lat="48.44935" lon="-4.34696">
        <ele>164</ele>
        <time>2012-02-26T10:39:05.56</time>
      </trkpt>
      <trkpt lat="48.44937" lon="-4.34696">
        <ele>164</ele>
        <time>2012-02-26T10:39:06.57</time>
      </trkpt>
      <trkpt lat="48.44941" lon="-4.34694">
        <ele>164</ele>
        <time>2012-02-26T10:39:07.56</time>
      </trkpt>
      <trkpt lat="48.44943" lon="-4.34694">
        <ele>164</ele>
        <time>2012-02-26T10:39:08.56</time>
      </trkpt>
      <trkpt lat="48.44946" lon="-4.34692">
        <ele>164</ele>
        <time>2012-02-26T10:39:09.57</time>
      </trkpt>
      <trkpt lat="48.44949" lon="-4.34692">
        <ele>165</ele>
        <time>2012-02-26T10:39:10.56</time>
      </trkpt>
      <trkpt lat="48.44951" lon="-4.34692">
        <ele>165</ele>
        <time>2012-02-26T10:39:11.56</time>
      </trkpt>
      <trkpt lat="48.44954" lon="-4.3469">
        <ele>165</ele>
        <time>2012-02-26T10:39:12.56</time>
      </trkpt>
      <trkpt lat="48.44957" lon="-4.3469">
        <ele>165</ele>
        <time>2012-02-26T10:39:13.56</time>
      </trkpt>
      <trkpt lat="48.44959" lon="-4.34687">
        <ele>165</ele>
        <time>2012-02-26T10:39:14.56</time>
      </trkpt>
      <trkpt lat="48.44961" lon="-4.34687">
        <ele>165</ele>
        <time>2012-02-26T10:39:15.56</time>
      </trkpt>
      <trkpt lat="48.44964" lon="-4.34685">
        <ele>165</ele>
        <time>2012-02-26T10:39:16.57</time>
      </trkpt>
      <trkpt lat="48.44966" lon="-4.34685">
        <ele>165</ele>
        <time>2012-02-26T10:39:17.56</time>
      </trkpt>
      <trkpt lat="48.44969" lon="-4.34683">
        <ele>165</ele>
        <time>2012-02-26T10:39:18.56</time>
      </trkpt>
      <trkpt lat="48.44971" lon="-4.34683">
        <ele>166</ele>
        <time>2012-02-26T10:39:19.57</time>
      </trkpt>
      <trkpt lat="48.44972" lon="-4.34681">
        <ele>166</ele>
        <time>2012-02-26T10:39:20.58</time>
      </trkpt>
      <trkpt lat="48.44973" lon="-4.34681">
        <ele>166</ele>
        <time>2012-02-26T10:39:21.57</time>
      </trkpt>
      <trkpt lat="48.44974" lon="-4.34681">
        <ele>166</ele>
        <time>2012-02-26T10:39:22.57</time>
      </trkpt>
      <trkpt lat="48.44975" lon="-4.34679">
        <ele>166</ele>
        <time>2012-02-26T10:39:23.62</time>
      </trkpt>
      <trkpt lat="48.44977" lon="-4.34679">
        <ele>166</ele>
        <time>2012-02-26T10:39:24.57</time>
      </trkpt>
      <trkpt lat="48.44978" lon="-4.34679">
        <ele>166</ele>
        <time>2012-02-26T10:39:25.70</time>
      </trkpt>
      <trkpt lat="48.4498" lon="-4.34677">
        <ele>166</ele>
        <time>2012-02-26T10:39:26.58</time>
      </trkpt>
      <trkpt lat="48.44983" lon="-4.34677">
        <ele>166</ele>
        <time>2012-02-26T10:39:27.57</time>
      </trkpt>
      <trkpt lat="48.44985" lon="-4.34675">
        <ele>166</ele>
        <time>2012-02-26T10:39:28.64</time>
      </trkpt>
      <trkpt lat="48.44987" lon="-4.34675">
        <ele>166</ele>
        <time>2012-02-26T10:39:29.58</time>
      </trkpt>
      <trkpt lat="48.4499" lon="-4.34672">
        <ele>166</ele>
        <time>2012-02-26T10:39:30.66</time>
      </trkpt>
      <trkpt lat="48.44994" lon="-4.3467">
        <ele>166</ele>
        <time>2012-02-26T10:39:31.57</time>
      </trkpt>
      <trkpt lat="48.44998" lon="-4.3467">
        <ele>166</ele>
        <time>2012-02-26T10:39:32.58</time>
      </trkpt>
      <trkpt lat="48.45" lon="-4.34668">
        <ele>166</ele>
        <time>2012-02-26T10:39:33.57</time>
      </trkpt>
      <trkpt lat="48.45007" lon="-4.34666">
        <ele>166</ele>
        <time>2012-02-26T10:39:36.56</time>
      </trkpt>
      <trkpt lat="48.4501" lon="-4.34666">
        <ele>166</ele>
        <time>2012-02-26T10:39:37.57</time>
      </trkpt>
      <trkpt lat="48.45014" lon="-4.34664">
        <ele>166</ele>
        <time>2012-02-26T10:39:38.58</time>
      </trkpt>
      <trkpt lat="48.45017" lon="-4.34662">
        <ele>166</ele>
        <time>2012-02-26T10:39:39.55</time>
      </trkpt>
      <trkpt lat="48.4502" lon="-4.34662">
        <ele>166</ele>
        <time>2012-02-26T10:39:40.56</time>
      </trkpt>
      <trkpt lat="48.45023" lon="-4.34662">
        <ele>166</ele>
        <time>2012-02-26T10:39:41.58</time>
      </trkpt>
      <trkpt lat="48.45026" lon="-4.34659">
        <ele>166</ele>
        <time>2012-02-26T10:39:42.56</time>
      </trkpt>
      <trkpt lat="48.45031" lon="-4.34659">
        <ele>166</ele>
        <time>2012-02-26T10:39:43.62</time>
      </trkpt>
      <trkpt lat="48.45034" lon="-4.34659">
        <ele>166</ele>
        <time>2012-02-26T10:39:44.56</time>
      </trkpt>
      <trkpt lat="48.45038" lon="-4.34659">
        <ele>166</ele>
        <time>2012-02-26T10:39:45.56</time>
      </trkpt>
      <trkpt lat="48.45042" lon="-4.34662">
        <ele>166</ele>
        <time>2012-02-26T10:39:46.63</time>
      </trkpt>
      <trkpt lat="48.45044" lon="-4.34666">
        <ele>166</ele>
        <time>2012-02-26T10:39:47.56</time>
      </trkpt>
      <trkpt lat="48.45046" lon="-4.34668">
        <ele>166</ele>
        <time>2012-02-26T10:39:48.57</time>
      </trkpt>
      <trkpt lat="48.45048" lon="-4.34672">
        <ele>166</ele>
        <time>2012-02-26T10:39:49.58</time>
      </trkpt>
      <trkpt lat="48.4505" lon="-4.34677">
        <ele>166</ele>
        <time>2012-02-26T10:39:50.56</time>
      </trkpt>
      <trkpt lat="48.45052" lon="-4.34681">
        <ele>168</ele>
        <time>2012-02-26T10:39:51.56</time>
      </trkpt>
      <trkpt lat="48.45054" lon="-4.34683">
        <ele>168</ele>
        <time>2012-02-26T10:39:52.56</time>
      </trkpt>
      <trkpt lat="48.45058" lon="-4.34687">
        <ele>168</ele>
        <time>2012-02-26T10:39:53.56</time>
      </trkpt>
      <trkpt lat="48.4506" lon="-4.34692">
        <ele>168</ele>
        <time>2012-02-26T10:39:54.57</time>
      </trkpt>
      <trkpt lat="48.45063" lon="-4.34696">
        <ele>168</ele>
        <time>2012-02-26T10:39:55.56</time>
      </trkpt>
      <trkpt lat="48.45065" lon="-4.34698">
        <ele>168</ele>
        <time>2012-02-26T10:39:56.57</time>
      </trkpt>
      <trkpt lat="48.45068" lon="-4.34702">
        <ele>168</ele>
        <time>2012-02-26T10:39:57.62</time>
      </trkpt>
      <trkpt lat="48.4507" lon="-4.34707">
        <ele>169</ele>
        <time>2012-02-26T10:39:58.56</time>
      </trkpt>
      <trkpt lat="48.45074" lon="-4.34711">
        <ele>170</ele>
        <time>2012-02-26T10:39:59.57</time>
      </trkpt>
      <trkpt lat="48.45077" lon="-4.34715">
        <ele>172</ele>
        <time>2012-02-26T10:40:00.58</time>
      </trkpt>
      <trkpt lat="48.4508" lon="-4.3472">
        <ele>167</ele>
        <time>2012-02-26T10:40:01.56</time>
      </trkpt>
      <trkpt lat="48.45083" lon="-4.34722">
        <ele>162</ele>
        <time>2012-02-26T10:40:02.57</time>
      </trkpt>
      <trkpt lat="48.45086" lon="-4.34726">
        <ele>159</ele>
        <time>2012-02-26T10:40:03.57</time>
      </trkpt>
      <trkpt lat="48.45089" lon="-4.34728">
        <ele>159</ele>
        <time>2012-02-26T10:40:04.58</time>
      </trkpt>
      <trkpt lat="48.45091" lon="-4.34732">
        <ele>159</ele>
        <time>2012-02-26T10:40:05.57</time>
      </trkpt>
      <trkpt lat="48.45093" lon="-4.34737">
        <ele>159</ele>
        <time>2012-02-26T10:40:06.55</time>
      </trkpt>
      <trkpt lat="48.45096" lon="-4.34741">
        <ele>160</ele>
        <time>2012-02-26T10:40:07.59</time>
      </trkpt>
      <trkpt lat="48.45098" lon="-4.34745">
        <ele>160</ele>
        <time>2012-02-26T10:40:08.55</time>
      </trkpt>
      <trkpt lat="48.45101" lon="-4.3475">
        <ele>160</ele>
        <time>2012-02-26T10:40:09.57</time>
      </trkpt>
      <trkpt lat="48.45104" lon="-4.34754">
        <ele>160</ele>
        <time>2012-02-26T10:40:10.56</time>
      </trkpt>
      <trkpt lat="48.45107" lon="-4.34758">
        <ele>161</ele>
        <time>2012-02-26T10:40:11.57</time>
      </trkpt>
      <trkpt lat="48.4511" lon="-4.34762">
        <ele>161</ele>
        <time>2012-02-26T10:40:12.56</time>
      </trkpt>
      <trkpt lat="48.45114" lon="-4.34767">
        <ele>161</ele>
        <time>2012-02-26T10:40:13.56</time>
      </trkpt>
      <trkpt lat="48.45119" lon="-4.34769">
        <ele>162</ele>
        <time>2012-02-26T10:40:14.56</time>
      </trkpt>
      <trkpt lat="48.45122" lon="-4.34773">
        <ele>162</ele>
        <time>2012-02-26T10:40:15.57</time>
      </trkpt>
      <trkpt lat="48.45126" lon="-4.34773">
        <ele>162</ele>
        <time>2012-02-26T10:40:16.57</time>
      </trkpt>
      <trkpt lat="48.45129" lon="-4.34777">
        <ele>163</ele>
        <time>2012-02-26T10:40:17.56</time>
      </trkpt>
      <trkpt lat="48.45132" lon="-4.34777">
        <ele>163</ele>
        <time>2012-02-26T10:40:18.56</time>
      </trkpt>
      <trkpt lat="48.45134" lon="-4.3478">
        <ele>163</ele>
        <time>2012-02-26T10:40:19.56</time>
      </trkpt>
      <trkpt lat="48.45136" lon="-4.3478">
        <ele>164</ele>
        <time>2012-02-26T10:40:20.56</time>
      </trkpt>
      <trkpt lat="48.45138" lon="-4.34782">
        <ele>164</ele>
        <time>2012-02-26T10:40:21.56</time>
      </trkpt>
      <trkpt lat="48.4514" lon="-4.34782">
        <ele>164</ele>
        <time>2012-02-26T10:40:22.57</time>
      </trkpt>
      <trkpt lat="48.45142" lon="-4.34782">
        <ele>164</ele>
        <time>2012-02-26T10:40:23.56</time>
      </trkpt>
      <trkpt lat="48.45145" lon="-4.34784">
        <ele>165</ele>
        <time>2012-02-26T10:40:24.56</time>
      </trkpt>
      <trkpt lat="48.45147" lon="-4.34784">
        <ele>165</ele>
        <time>2012-02-26T10:40:25.57</time>
      </trkpt>
      <trkpt lat="48.45151" lon="-4.34784">
        <ele>166</ele>
        <time>2012-02-26T10:40:30.57</time>
      </trkpt>
      <trkpt lat="48.45158" lon="-4.34786">
        <ele>167</ele>
        <time>2012-02-26T10:40:37.57</time>
      </trkpt>
      <trkpt lat="48.45162" lon="-4.34786">
        <ele>167</ele>
        <time>2012-02-26T10:40:38.57</time>
      </trkpt>
      <trkpt lat="48.45164" lon="-4.34786">
        <ele>167</ele>
        <time>2012-02-26T10:40:39.57</time>
      </trkpt>
      <trkpt lat="48.45167" lon="-4.34786">
        <ele>167</ele>
        <time>2012-02-26T10:40:40.57</time>
      </trkpt>
      <trkpt lat="48.45169" lon="-4.34786">
        <ele>167</ele>
        <time>2012-02-26T10:40:41.58</time>
      </trkpt>
      <trkpt lat="48.4517" lon="-4.34786">
        <ele>167</ele>
        <time>2012-02-26T10:40:42.57</time>
      </trkpt>
      <trkpt lat="48.45172" lon="-4.34786">
        <ele>167</ele>
        <time>2012-02-26T10:40:43.57</time>
      </trkpt>
      <trkpt lat="48.45175" lon="-4.34786">
        <ele>168</ele>
        <time>2012-02-26T10:40:44.57</time>
      </trkpt>
      <trkpt lat="48.45177" lon="-4.34788">
        <ele>168</ele>
        <time>2012-02-26T10:40:46.58</time>
      </trkpt>
      <trkpt lat="48.45179" lon="-4.34788">
        <ele>168</ele>
        <time>2012-02-26T10:40:47.60</time>
      </trkpt>
      <trkpt lat="48.4518" lon="-4.34788">
        <ele>168</ele>
        <time>2012-02-26T10:40:48.56</time>
      </trkpt>
      <trkpt lat="48.45181" lon="-4.34788">
        <ele>168</ele>
        <time>2012-02-26T10:40:49.57</time>
      </trkpt>
      <trkpt lat="48.45182" lon="-4.34786">
        <ele>168</ele>
        <time>2012-02-26T10:40:50.57</time>
      </trkpt>
      <trkpt lat="48.45184" lon="-4.34786">
        <ele>168</ele>
        <time>2012-02-26T10:40:51.57</time>
      </trkpt>
      <trkpt lat="48.45185" lon="-4.34786">
        <ele>168</ele>
        <time>2012-02-26T10:40:52.57</time>
      </trkpt>
      <trkpt lat="48.45186" lon="-4.34786">
        <ele>168</ele>
        <time>2012-02-26T10:40:53.57</time>
      </trkpt>
      <trkpt lat="48.4519" lon="-4.34786">
        <ele>168</ele>
        <time>2012-02-26T10:40:54.57</time>
      </trkpt>
      <trkpt lat="48.45193" lon="-4.34786">
        <ele>168</ele>
        <time>2012-02-26T10:40:55.57</time>
      </trkpt>
      <trkpt lat="48.45197" lon="-4.34788">
        <ele>168</ele>
        <time>2012-02-26T10:40:56.57</time>
      </trkpt>
      <trkpt lat="48.45201" lon="-4.34788">
        <ele>169</ele>
        <time>2012-02-26T10:40:57.57</time>
      </trkpt>
      <trkpt lat="48.45206" lon="-4.34788">
        <ele>170</ele>
        <time>2012-02-26T10:40:58.57</time>
      </trkpt>
      <trkpt lat="48.45209" lon="-4.34788">
        <ele>170</ele>
        <time>2012-02-26T10:40:59.58</time>
      </trkpt>
      <trkpt lat="48.45213" lon="-4.3479">
        <ele>171</ele>
        <time>2012-02-26T10:41:00.57</time>
      </trkpt>
      <trkpt lat="48.45216" lon="-4.3479">
        <ele>171</ele>
        <time>2012-02-26T10:41:01.58</time>
      </trkpt>
      <trkpt lat="48.4522" lon="-4.3479">
        <ele>171</ele>
        <time>2012-02-26T10:41:02.58</time>
      </trkpt>
      <trkpt lat="48.45221" lon="-4.34793">
        <ele>171</ele>
        <time>2012-02-26T10:41:03.57</time>
      </trkpt>
      <trkpt lat="48.45223" lon="-4.34793">
        <ele>171</ele>
        <time>2012-02-26T10:41:04.58</time>
      </trkpt>
      <trkpt lat="48.45225" lon="-4.34795">
        <ele>171</ele>
        <time>2012-02-26T10:41:05.58</time>
      </trkpt>
      <trkpt lat="48.45227" lon="-4.34797">
        <ele>171</ele>
        <time>2012-02-26T10:41:06.57</time>
      </trkpt>
      <trkpt lat="48.45228" lon="-4.34797">
        <ele>171</ele>
        <time>2012-02-26T10:41:07.57</time>
      </trkpt>
      <trkpt lat="48.4523" lon="-4.34799">
        <ele>171</ele>
        <time>2012-02-26T10:41:08.58</time>
      </trkpt>
      <trkpt lat="48.45232" lon="-4.34799">
        <ele>171</ele>
        <time>2012-02-26T10:41:09.60</time>
      </trkpt>
      <trkpt lat="48.45234" lon="-4.34801">
        <ele>171</ele>
        <time>2012-02-26T10:41:10.57</time>
      </trkpt>
      <trkpt lat="48.45236" lon="-4.34803">
        <ele>171</ele>
        <time>2012-02-26T10:41:11.58</time>
      </trkpt>
      <trkpt lat="48.45237" lon="-4.34805">
        <ele>171</ele>
        <time>2012-02-26T10:41:12.57</time>
      </trkpt>
      <trkpt lat="48.4524" lon="-4.3481">
        <ele>171</ele>
        <time>2012-02-26T10:41:14.58</time>
      </trkpt>
      <trkpt lat="48.45242" lon="-4.34812">
        <ele>171</ele>
        <time>2012-02-26T10:41:15.59</time>
      </trkpt>
      <trkpt lat="48.45244" lon="-4.34814">
        <ele>171</ele>
        <time>2012-02-26T10:41:16.57</time>
      </trkpt>
      <trkpt lat="48.45246" lon="-4.34816">
        <ele>171</ele>
        <time>2012-02-26T10:41:17.58</time>
      </trkpt>
      <trkpt lat="48.4525" lon="-4.34816">
        <ele>171</ele>
        <time>2012-02-26T10:41:18.59</time>
      </trkpt>
      <trkpt lat="48.45253" lon="-4.34818">
        <ele>171</ele>
        <time>2012-02-26T10:41:19.56</time>
      </trkpt>
      <trkpt lat="48.45256" lon="-4.34818">
        <ele>171</ele>
        <time>2012-02-26T10:41:20.57</time>
      </trkpt>
      <trkpt lat="48.4526" lon="-4.34818">
        <ele>171</ele>
        <time>2012-02-26T10:41:21.57</time>
      </trkpt>
      <trkpt lat="48.45264" lon="-4.34818">
        <ele>171</ele>
        <time>2012-02-26T10:41:22.57</time>
      </trkpt>
      <trkpt lat="48.45267" lon="-4.34818">
        <ele>171</ele>
        <time>2012-02-26T10:41:23.57</time>
      </trkpt>
      <trkpt lat="48.4527" lon="-4.34818">
        <ele>171</ele>
        <time>2012-02-26T10:41:24.57</time>
      </trkpt>
      <trkpt lat="48.45273" lon="-4.34818">
        <ele>172</ele>
        <time>2012-02-26T10:41:25.57</time>
      </trkpt>
      <trkpt lat="48.45276" lon="-4.34818">
        <ele>172</ele>
        <time>2012-02-26T10:41:26.65</time>
      </trkpt>
      <trkpt lat="48.4528" lon="-4.3482">
        <ele>172</ele>
        <time>2012-02-26T10:41:27.57</time>
      </trkpt>
      <trkpt lat="48.45284" lon="-4.3482">
        <ele>172</ele>
        <time>2012-02-26T10:41:28.57</time>
      </trkpt>
      <trkpt lat="48.45287" lon="-4.3482">
        <ele>172</ele>
        <time>2012-02-26T10:41:29.58</time>
      </trkpt>
      <trkpt lat="48.4529" lon="-4.3482">
        <ele>172</ele>
        <time>2012-02-26T10:41:30.58</time>
      </trkpt>
      <trkpt lat="48.45293" lon="-4.34823">
        <ele>172</ele>
        <time>2012-02-26T10:41:31.59</time>
      </trkpt>
      <trkpt lat="48.45296" lon="-4.34823">
        <ele>172</ele>
        <time>2012-02-26T10:41:32.58</time>
      </trkpt>
      <trkpt lat="48.45299" lon="-4.34825">
        <ele>172</ele>
        <time>2012-02-26T10:41:33.58</time>
      </trkpt>
      <trkpt lat="48.45302" lon="-4.34825">
        <ele>172</ele>
        <time>2012-02-26T10:41:34.59</time>
      </trkpt>
      <trkpt lat="48.45307" lon="-4.34825">
        <ele>173</ele>
        <time>2012-02-26T10:41:35.58</time>
      </trkpt>
      <trkpt lat="48.45311" lon="-4.34825">
        <ele>174</ele>
        <time>2012-02-26T10:41:36.56</time>
      </trkpt>
      <trkpt lat="48.45314" lon="-4.34827">
        <ele>174</ele>
        <time>2012-02-26T10:41:37.59</time>
      </trkpt>
      <trkpt lat="48.45317" lon="-4.34827">
        <ele>174</ele>
        <time>2012-02-26T10:41:38.57</time>
      </trkpt>
      <trkpt lat="48.4532" lon="-4.34827">
        <ele>175</ele>
        <time>2012-02-26T10:41:39.58</time>
      </trkpt>
      <trkpt lat="48.45324" lon="-4.34827">
        <ele>175</ele>
        <time>2012-02-26T10:41:40.58</time>
      </trkpt>
      <trkpt lat="48.45327" lon="-4.34827">
        <ele>175</ele>
        <time>2012-02-26T10:41:41.57</time>
      </trkpt>
      <trkpt lat="48.4533" lon="-4.34827">
        <ele>175</ele>
        <time>2012-02-26T10:41:42.58</time>
      </trkpt>
      <trkpt lat="48.45333" lon="-4.34829">
        <ele>175</ele>
        <time>2012-02-26T10:41:43.59</time>
      </trkpt>
      <trkpt lat="48.45337" lon="-4.34829">
        <ele>175</ele>
        <time>2012-02-26T10:41:44.57</time>
      </trkpt>
      <trkpt lat="48.45339" lon="-4.34829">
        <ele>175</ele>
        <time>2012-02-26T10:41:45.58</time>
      </trkpt>
      <trkpt lat="48.45342" lon="-4.34829">
        <ele>175</ele>
        <time>2012-02-26T10:41:46.58</time>
      </trkpt>
      <trkpt lat="48.45345" lon="-4.34829">
        <ele>175</ele>
        <time>2012-02-26T10:41:47.57</time>
      </trkpt>
      <trkpt lat="48.45352" lon="-4.34829">
        <ele>175</ele>
        <time>2012-02-26T10:41:49.57</time>
      </trkpt>
      <trkpt lat="48.45355" lon="-4.34829">
        <ele>176</ele>
        <time>2012-02-26T10:41:50.57</time>
      </trkpt>
      <trkpt lat="48.45358" lon="-4.34829">
        <ele>176</ele>
        <time>2012-02-26T10:41:51.58</time>
      </trkpt>
      <trkpt lat="48.45361" lon="-4.34829">
        <ele>176</ele>
        <time>2012-02-26T10:41:52.58</time>
      </trkpt>
      <trkpt lat="48.45366" lon="-4.34831">
        <ele>175</ele>
        <time>2012-02-26T10:41:53.59</time>
      </trkpt>
      <trkpt lat="48.45369" lon="-4.34831">
        <ele>175</ele>
        <time>2012-02-26T10:41:54.66</time>
      </trkpt>
      <trkpt lat="48.45372" lon="-4.34833">
        <ele>175</ele>
        <time>2012-02-26T10:41:55.58</time>
      </trkpt>
      <trkpt lat="48.45376" lon="-4.34833">
        <ele>175</ele>
        <time>2012-02-26T10:41:56.59</time>
      </trkpt>
      <trkpt lat="48.45379" lon="-4.34835">
        <ele>175</ele>
        <time>2012-02-26T10:41:57.58</time>
      </trkpt>
      <trkpt lat="48.45384" lon="-4.34838">
        <ele>175</ele>
        <time>2012-02-26T10:41:58.58</time>
      </trkpt>
      <trkpt lat="48.45387" lon="-4.34838">
        <ele>175</ele>
        <time>2012-02-26T10:41:59.60</time>
      </trkpt>
      <trkpt lat="48.4539" lon="-4.3484">
        <ele>175</ele>
        <time>2012-02-26T10:42:00.56</time>
      </trkpt>
      <trkpt lat="48.45394" lon="-4.34842">
        <ele>175</ele>
        <time>2012-02-26T10:42:01.57</time>
      </trkpt>
      <trkpt lat="48.45399" lon="-4.34842">
        <ele>175</ele>
        <time>2012-02-26T10:42:02.57</time>
      </trkpt>
      <trkpt lat="48.45403" lon="-4.34844">
        <ele>175</ele>
        <time>2012-02-26T10:42:03.57</time>
      </trkpt>
      <trkpt lat="48.45406" lon="-4.34844">
        <ele>175</ele>
        <time>2012-02-26T10:42:04.57</time>
      </trkpt>
      <trkpt lat="48.45411" lon="-4.34846">
        <ele>175</ele>
        <time>2012-02-26T10:42:05.57</time>
      </trkpt>
      <trkpt lat="48.45415" lon="-4.34846">
        <ele>175</ele>
        <time>2012-02-26T10:42:06.57</time>
      </trkpt>
      <trkpt lat="48.45418" lon="-4.34848">
        <ele>175</ele>
        <time>2012-02-26T10:42:07.57</time>
      </trkpt>
      <trkpt lat="48.45422" lon="-4.34848">
        <ele>175</ele>
        <time>2012-02-26T10:42:08.57</time>
      </trkpt>
      <trkpt lat="48.45426" lon="-4.3485">
        <ele>175</ele>
        <time>2012-02-26T10:42:09.58</time>
      </trkpt>
      <trkpt lat="48.4543" lon="-4.3485">
        <ele>175</ele>
        <time>2012-02-26T10:42:10.59</time>
      </trkpt>
      <trkpt lat="48.45433" lon="-4.34853">
        <ele>175</ele>
        <time>2012-02-26T10:42:11.58</time>
      </trkpt>
      <trkpt lat="48.45436" lon="-4.34853">
        <ele>175</ele>
        <time>2012-02-26T10:42:12.59</time>
      </trkpt>
      <trkpt lat="48.4544" lon="-4.34855">
        <ele>175</ele>
        <time>2012-02-26T10:42:13.58</time>
      </trkpt>
      <trkpt lat="48.45443" lon="-4.34855">
        <ele>175</ele>
        <time>2012-02-26T10:42:14.58</time>
      </trkpt>
      <trkpt lat="48.45446" lon="-4.34855">
        <ele>175</ele>
        <time>2012-02-26T10:42:15.59</time>
      </trkpt>
      <trkpt lat="48.45448" lon="-4.34857">
        <ele>175</ele>
        <time>2012-02-26T10:42:16.58</time>
      </trkpt>
      <trkpt lat="48.45451" lon="-4.34857">
        <ele>175</ele>
        <time>2012-02-26T10:42:17.58</time>
      </trkpt>
      <trkpt lat="48.45452" lon="-4.34857">
        <ele>175</ele>
        <time>2012-02-26T10:42:18.59</time>
      </trkpt>
      <trkpt lat="48.45455" lon="-4.34857">
        <ele>175</ele>
        <time>2012-02-26T10:42:19.58</time>
      </trkpt>
      <trkpt lat="48.45456" lon="-4.34857">
        <ele>175</ele>
        <time>2012-02-26T10:42:20.58</time>
      </trkpt>
      <trkpt lat="48.45457" lon="-4.34857">
        <ele>175</ele>
        <time>2012-02-26T10:42:21.59</time>
      </trkpt>
      <trkpt lat="48.45459" lon="-4.34857">
        <ele>175</ele>
        <time>2012-02-26T10:42:22.57</time>
      </trkpt>
      <trkpt lat="48.4546" lon="-4.34857">
        <ele>175</ele>
        <time>2012-02-26T10:42:23.58</time>
      </trkpt>
      <trkpt lat="48.45461" lon="-4.34857">
        <ele>175</ele>
        <time>2012-02-26T10:42:24.59</time>
      </trkpt>
      <trkpt lat="48.45462" lon="-4.34861">
        <ele>175</ele>
        <time>2012-02-26T10:42:27.57</time>
      </trkpt>
      <trkpt lat="48.45462" lon="-4.34863">
        <ele>175</ele>
        <time>2012-02-26T10:42:28.57</time>
      </trkpt>
      <trkpt lat="48.45461" lon="-4.34865">
        <ele>175</ele>
        <time>2012-02-26T10:42:29.58</time>
      </trkpt>
      <trkpt lat="48.45461" lon="-4.34868">
        <ele>175</ele>
        <time>2012-02-26T10:42:30.58</time>
      </trkpt>
      <trkpt lat="48.4546" lon="-4.3487">
        <ele>175</ele>
        <time>2012-02-26T10:42:31.57</time>
      </trkpt>
      <trkpt lat="48.4546" lon="-4.34874">
        <ele>175</ele>
        <time>2012-02-26T10:42:32.58</time>
      </trkpt>
      <trkpt lat="48.4546" lon="-4.34878">
        <ele>175</ele>
        <time>2012-02-26T10:42:34.57</time>
      </trkpt>
      <trkpt lat="48.4546" lon="-4.3488">
        <ele>175</ele>
        <time>2012-02-26T10:42:35.57</time>
      </trkpt>
      <trkpt lat="48.45459" lon="-4.34883">
        <ele>175</ele>
        <time>2012-02-26T10:42:36.57</time>
      </trkpt>
      <trkpt lat="48.45459" lon="-4.34885">
        <ele>175</ele>
        <time>2012-02-26T10:42:37.57</time>
      </trkpt>
      <trkpt lat="48.45459" lon="-4.34887">
        <ele>175</ele>
        <time>2012-02-26T10:42:38.57</time>
      </trkpt>
      <trkpt lat="48.45459" lon="-4.34889">
        <ele>175</ele>
        <time>2012-02-26T10:42:39.57</time>
      </trkpt>
      <trkpt lat="48.45458" lon="-4.34891">
        <ele>175</ele>
        <time>2012-02-26T10:42:40.57</time>
      </trkpt>
      <trkpt lat="48.45458" lon="-4.34893">
        <ele>175</ele>
        <time>2012-02-26T10:42:41.58</time>
      </trkpt>
      <trkpt lat="48.45458" lon="-4.34896">
        <ele>175</ele>
        <time>2012-02-26T10:42:42.58</time>
      </trkpt>
      <trkpt lat="48.45457" lon="-4.34898">
        <ele>175</ele>
        <time>2012-02-26T10:42:43.59</time>
      </trkpt>
      <trkpt lat="48.45457" lon="-4.349">
        <ele>175</ele>
        <time>2012-02-26T10:42:44.58</time>
      </trkpt>
      <trkpt lat="48.45457" lon="-4.34902">
        <ele>175</ele>
        <time>2012-02-26T10:42:45.58</time>
      </trkpt>
      <trkpt lat="48.45457" lon="-4.34904">
        <ele>175</ele>
        <time>2012-02-26T10:42:46.60</time>
      </trkpt>
      <trkpt lat="48.45457" lon="-4.34908">
        <ele>175</ele>
        <time>2012-02-26T10:42:47.57</time>
      </trkpt>
      <trkpt lat="48.45457" lon="-4.34911">
        <ele>175</ele>
        <time>2012-02-26T10:42:48.58</time>
      </trkpt>
      <trkpt lat="48.45457" lon="-4.34913">
        <ele>175</ele>
        <time>2012-02-26T10:42:49.57</time>
      </trkpt>
      <trkpt lat="48.45456" lon="-4.34917">
        <ele>175</ele>
        <time>2012-02-26T10:42:50.57</time>
      </trkpt>
      <trkpt lat="48.45456" lon="-4.34919">
        <ele>175</ele>
        <time>2012-02-26T10:42:51.58</time>
      </trkpt>
      <trkpt lat="48.45456" lon="-4.34923">
        <ele>175</ele>
        <time>2012-02-26T10:42:52.64</time>
      </trkpt>
      <trkpt lat="48.45456" lon="-4.34926">
        <ele>175</ele>
        <time>2012-02-26T10:42:53.57</time>
      </trkpt>
      <trkpt lat="48.45457" lon="-4.34928">
        <ele>175</ele>
        <time>2012-02-26T10:42:54.57</time>
      </trkpt>
      <trkpt lat="48.45457" lon="-4.34932">
        <ele>175</ele>
        <time>2012-02-26T10:42:55.57</time>
      </trkpt>
      <trkpt lat="48.45459" lon="-4.34934">
        <ele>175</ele>
        <time>2012-02-26T10:42:56.59</time>
      </trkpt>
      <trkpt lat="48.45461" lon="-4.34934">
        <ele>175</ele>
        <time>2012-02-26T10:42:57.58</time>
      </trkpt>
      <trkpt lat="48.45462" lon="-4.34936">
        <ele>175</ele>
        <time>2012-02-26T10:42:58.58</time>
      </trkpt>
      <trkpt lat="48.45464" lon="-4.34936">
        <ele>175</ele>
        <time>2012-02-26T10:42:59.59</time>
      </trkpt>
      <trkpt lat="48.45466" lon="-4.34936">
        <ele>175</ele>
        <time>2012-02-26T10:43:00.58</time>
      </trkpt>
      <trkpt lat="48.45469" lon="-4.34938">
        <ele>175</ele>
        <time>2012-02-26T10:43:01.58</time>
      </trkpt>
      <trkpt lat="48.4547" lon="-4.34938">
        <ele>175</ele>
        <time>2012-02-26T10:43:02.59</time>
      </trkpt>
      <trkpt lat="48.45474" lon="-4.34941">
        <ele>175</ele>
        <time>2012-02-26T10:43:05.57</time>
      </trkpt>
      <trkpt lat="48.45476" lon="-4.34943">
        <ele>175</ele>
        <time>2012-02-26T10:43:06.57</time>
      </trkpt>
      <trkpt lat="48.45478" lon="-4.34943">
        <ele>175</ele>
        <time>2012-02-26T10:43:07.57</time>
      </trkpt>
      <trkpt lat="48.4548" lon="-4.34943">
        <ele>175</ele>
        <time>2012-02-26T10:43:08.57</time>
      </trkpt>
      <trkpt lat="48.45482" lon="-4.34945">
        <ele>175</ele>
        <time>2012-02-26T10:43:09.57</time>
      </trkpt>
      <trkpt lat="48.45485" lon="-4.34945">
        <ele>175</ele>
        <time>2012-02-26T10:43:10.57</time>
      </trkpt>
      <trkpt lat="48.45487" lon="-4.34945">
        <ele>175</ele>
        <time>2012-02-26T10:43:11.57</time>
      </trkpt>
      <trkpt lat="48.45489" lon="-4.34947">
        <ele>175</ele>
        <time>2012-02-26T10:43:12.62</time>
      </trkpt>
      <trkpt lat="48.45492" lon="-4.34947">
        <ele>175</ele>
        <time>2012-02-26T10:43:13.57</time>
      </trkpt>
      <trkpt lat="48.45495" lon="-4.34949">
        <ele>175</ele>
        <time>2012-02-26T10:43:14.57</time>
      </trkpt>
      <trkpt lat="48.45499" lon="-4.34951">
        <ele>175</ele>
        <time>2012-02-26T10:43:15.57</time>
      </trkpt>
      <trkpt lat="48.45502" lon="-4.34951">
        <ele>175</ele>
        <time>2012-02-26T10:43:16.57</time>
      </trkpt>
      <trkpt lat="48.45504" lon="-4.34953">
        <ele>175</ele>
        <time>2012-02-26T10:43:17.57</time>
      </trkpt>
      <trkpt lat="48.45507" lon="-4.34953">
        <ele>175</ele>
        <time>2012-02-26T10:43:18.57</time>
      </trkpt>
      <trkpt lat="48.45509" lon="-4.34956">
        <ele>175</ele>
        <time>2012-02-26T10:43:19.58</time>
      </trkpt>
      <trkpt lat="48.45511" lon="-4.34956">
        <ele>175</ele>
        <time>2012-02-26T10:43:20.57</time>
      </trkpt>
      <trkpt lat="48.45515" lon="-4.34958">
        <ele>176</ele>
        <time>2012-02-26T10:43:21.67</time>
      </trkpt>
      <trkpt lat="48.45517" lon="-4.34958">
        <ele>176</ele>
        <time>2012-02-26T10:43:22.58</time>
      </trkpt>
      <trkpt lat="48.45519" lon="-4.34958">
        <ele>176</ele>
        <time>2012-02-26T10:43:23.58</time>
      </trkpt>
      <trkpt lat="48.45522" lon="-4.3496">
        <ele>176</ele>
        <time>2012-02-26T10:43:24.58</time>
      </trkpt>
      <trkpt lat="48.45524" lon="-4.3496">
        <ele>176</ele>
        <time>2012-02-26T10:43:25.57</time>
      </trkpt>
      <trkpt lat="48.45528" lon="-4.34962">
        <ele>176</ele>
        <time>2012-02-26T10:43:26.60</time>
      </trkpt>
      <trkpt lat="48.45531" lon="-4.34962">
        <ele>176</ele>
        <time>2012-02-26T10:43:27.59</time>
      </trkpt>
      <trkpt lat="48.45534" lon="-4.34964">
        <ele>176</ele>
        <time>2012-02-26T10:43:28.57</time>
      </trkpt>
      <trkpt lat="48.45536" lon="-4.34964">
        <ele>176</ele>
        <time>2012-02-26T10:43:29.58</time>
      </trkpt>
      <trkpt lat="48.4554" lon="-4.34966">
        <ele>176</ele>
        <time>2012-02-26T10:43:30.59</time>
      </trkpt>
      <trkpt lat="48.45543" lon="-4.34966">
        <ele>176</ele>
        <time>2012-02-26T10:43:31.57</time>
      </trkpt>
      <trkpt lat="48.45546" lon="-4.34968">
        <ele>176</ele>
        <time>2012-02-26T10:43:32.58</time>
      </trkpt>
      <trkpt lat="48.45549" lon="-4.34971">
        <ele>176</ele>
        <time>2012-02-26T10:43:33.59</time>
      </trkpt>
      <trkpt lat="48.45552" lon="-4.34971">
        <ele>176</ele>
        <time>2012-02-26T10:43:34.57</time>
      </trkpt>
      <trkpt lat="48.45555" lon="-4.34973">
        <ele>176</ele>
        <time>2012-02-26T10:43:35.58</time>
      </trkpt>
      <trkpt lat="48.45559" lon="-4.34973">
        <ele>176</ele>
        <time>2012-02-26T10:43:36.59</time>
      </trkpt>
      <trkpt lat="48.45562" lon="-4.34975">
        <ele>176</ele>
        <time>2012-02-26T10:43:37.65</time>
      </trkpt>
      <trkpt lat="48.45566" lon="-4.34975">
        <ele>176</ele>
        <time>2012-02-26T10:43:38.58</time>
      </trkpt>
      <trkpt lat="48.45569" lon="-4.34977">
        <ele>176</ele>
        <time>2012-02-26T10:43:39.58</time>
      </trkpt>
      <trkpt lat="48.45573" lon="-4.34979">
        <ele>177</ele>
        <time>2012-02-26T10:43:40.59</time>
      </trkpt>
      <trkpt lat="48.45576" lon="-4.34979">
        <ele>177</ele>
        <time>2012-02-26T10:43:41.58</time>
      </trkpt>
      <trkpt lat="48.45579" lon="-4.34981">
        <ele>177</ele>
        <time>2012-02-26T10:43:42.58</time>
      </trkpt>
      <trkpt lat="48.45582" lon="-4.34981">
        <ele>177</ele>
        <time>2012-02-26T10:43:43.59</time>
      </trkpt>
      <trkpt lat="48.45585" lon="-4.34983">
        <ele>177</ele>
        <time>2012-02-26T10:43:44.58</time>
      </trkpt>
      <trkpt lat="48.45589" lon="-4.34986">
        <ele>177</ele>
        <time>2012-02-26T10:43:45.58</time>
      </trkpt>
      <trkpt lat="48.45592" lon="-4.34986">
        <ele>177</ele>
        <time>2012-02-26T10:43:46.59</time>
      </trkpt>
      <trkpt lat="48.45595" lon="-4.34988">
        <ele>177</ele>
        <time>2012-02-26T10:43:47.58</time>
      </trkpt>
      <trkpt lat="48.45598" lon="-4.34988">
        <ele>177</ele>
        <time>2012-02-26T10:43:48.58</time>
      </trkpt>
      <trkpt lat="48.45602" lon="-4.3499">
        <ele>177</ele>
        <time>2012-02-26T10:43:49.59</time>
      </trkpt>
      <trkpt lat="48.45605" lon="-4.3499">
        <ele>177</ele>
        <time>2012-02-26T10:43:50.58</time>
      </trkpt>
      <trkpt lat="48.45608" lon="-4.34992">
        <ele>178</ele>
        <time>2012-02-26T10:43:51.58</time>
      </trkpt>
      <trkpt lat="48.45611" lon="-4.34994">
        <ele>178</ele>
        <time>2012-02-26T10:43:52.59</time>
      </trkpt>
      <trkpt lat="48.45614" lon="-4.34994">
        <ele>178</ele>
        <time>2012-02-26T10:43:53.57</time>
      </trkpt>
      <trkpt lat="48.45618" lon="-4.34996">
        <ele>178</ele>
        <time>2012-02-26T10:43:54.58</time>
      </trkpt>
      <trkpt lat="48.45621" lon="-4.34996">
        <ele>178</ele>
        <time>2012-02-26T10:43:55.59</time>
      </trkpt>
      <trkpt lat="48.45624" lon="-4.34999">
        <ele>178</ele>
        <time>2012-02-26T10:43:56.58</time>
      </trkpt>
      <trkpt lat="48.45627" lon="-4.35001">
        <ele>178</ele>
        <time>2012-02-26T10:43:57.58</time>
      </trkpt>
      <trkpt lat="48.45631" lon="-4.35001">
        <ele>178</ele>
        <time>2012-02-26T10:43:58.59</time>
      </trkpt>
      <trkpt lat="48.45641" lon="-4.35005">
        <ele>178</ele>
        <time>2012-02-26T10:44:01.58</time>
      </trkpt>
      <trkpt lat="48.45644" lon="-4.35005">
        <ele>178</ele>
        <time>2012-02-26T10:44:02.58</time>
      </trkpt>
      <trkpt lat="48.45649" lon="-4.35007">
        <ele>179</ele>
        <time>2012-02-26T10:44:03.58</time>
      </trkpt>
      <trkpt lat="48.45653" lon="-4.35009">
        <ele>179</ele>
        <time>2012-02-26T10:44:04.58</time>
      </trkpt>
      <trkpt lat="48.45657" lon="-4.35009">
        <ele>179</ele>
        <time>2012-02-26T10:44:05.58</time>
      </trkpt>
      <trkpt lat="48.45662" lon="-4.35011">
        <ele>179</ele>
        <time>2012-02-26T10:44:06.58</time>
      </trkpt>
      <trkpt lat="48.45666" lon="-4.35014">
        <ele>179</ele>
        <time>2012-02-26T10:44:07.58</time>
      </trkpt>
      <trkpt lat="48.4567" lon="-4.35016">
        <ele>180</ele>
        <time>2012-02-26T10:44:08.58</time>
      </trkpt>
      <trkpt lat="48.45673" lon="-4.35016">
        <ele>180</ele>
        <time>2012-02-26T10:44:09.58</time>
      </trkpt>
      <trkpt lat="48.45678" lon="-4.35016">
        <ele>180</ele>
        <time>2012-02-26T10:44:10.57</time>
      </trkpt>
      <trkpt lat="48.45682" lon="-4.35016">
        <ele>180</ele>
        <time>2012-02-26T10:44:11.58</time>
      </trkpt>
      <trkpt lat="48.45685" lon="-4.35016">
        <ele>180</ele>
        <time>2012-02-26T10:44:12.56</time>
      </trkpt>
      <trkpt lat="48.4569" lon="-4.35016">
        <ele>180</ele>
        <time>2012-02-26T10:44:13.57</time>
      </trkpt>
      <trkpt lat="48.45693" lon="-4.35016">
        <ele>180</ele>
        <time>2012-02-26T10:44:14.63</time>
      </trkpt>
      <trkpt lat="48.45697" lon="-4.35016">
        <ele>180</ele>
        <time>2012-02-26T10:44:15.57</time>
      </trkpt>
      <trkpt lat="48.45701" lon="-4.35016">
        <ele>180</ele>
        <time>2012-02-26T10:44:16.63</time>
      </trkpt>
      <trkpt lat="48.45706" lon="-4.35016">
        <ele>182</ele>
        <time>2012-02-26T10:44:17.56</time>
      </trkpt>
      <trkpt lat="48.4571" lon="-4.35016">
        <ele>183</ele>
        <time>2012-02-26T10:44:18.58</time>
      </trkpt>
      <trkpt lat="48.45714" lon="-4.35018">
        <ele>184</ele>
        <time>2012-02-26T10:44:19.58</time>
      </trkpt>
      <trkpt lat="48.45719" lon="-4.35018">
        <ele>185</ele>
        <time>2012-02-26T10:44:20.58</time>
      </trkpt>
      <trkpt lat="48.45723" lon="-4.35018">
        <ele>186</ele>
        <time>2012-02-26T10:44:21.58</time>
      </trkpt>
      <trkpt lat="48.45727" lon="-4.35018">
        <ele>186</ele>
        <time>2012-02-26T10:44:22.58</time>
      </trkpt>
      <trkpt lat="48.45731" lon="-4.35016">
        <ele>187</ele>
        <time>2012-02-26T10:44:23.58</time>
      </trkpt>
      <trkpt lat="48.45735" lon="-4.35016">
        <ele>187</ele>
        <time>2012-02-26T10:44:24.57</time>
      </trkpt>
      <trkpt lat="48.45739" lon="-4.35016">
        <ele>187</ele>
        <time>2012-02-26T10:44:25.58</time>
      </trkpt>
      <trkpt lat="48.45743" lon="-4.35016">
        <ele>187</ele>
        <time>2012-02-26T10:44:26.58</time>
      </trkpt>
      <trkpt lat="48.45746" lon="-4.35016">
        <ele>187</ele>
        <time>2012-02-26T10:44:27.57</time>
      </trkpt>
      <trkpt lat="48.45751" lon="-4.35014">
        <ele>187</ele>
        <time>2012-02-26T10:44:28.56</time>
      </trkpt>
      <trkpt lat="48.45754" lon="-4.35014">
        <ele>187</ele>
        <time>2012-02-26T10:44:29.58</time>
      </trkpt>
      <trkpt lat="48.45758" lon="-4.35011">
        <ele>187</ele>
        <time>2012-02-26T10:44:30.62</time>
      </trkpt>
      <trkpt lat="48.45762" lon="-4.35011">
        <ele>187</ele>
        <time>2012-02-26T10:44:31.58</time>
      </trkpt>
      <trkpt lat="48.45767" lon="-4.35009">
        <ele>187</ele>
        <time>2012-02-26T10:44:32.57</time>
      </trkpt>
      <trkpt lat="48.45771" lon="-4.35007">
        <ele>187</ele>
        <time>2012-02-26T10:44:33.55</time>
      </trkpt>
      <trkpt lat="48.45775" lon="-4.35005">
        <ele>187</ele>
        <time>2012-02-26T10:44:34.58</time>
      </trkpt>
      <trkpt lat="48.4578" lon="-4.35003">
        <ele>187</ele>
        <time>2012-02-26T10:44:35.58</time>
      </trkpt>
      <trkpt lat="48.45784" lon="-4.35001">
        <ele>187</ele>
        <time>2012-02-26T10:44:36.58</time>
      </trkpt>
      <trkpt lat="48.45788" lon="-4.34999">
        <ele>187</ele>
        <time>2012-02-26T10:44:37.58</time>
      </trkpt>
      <trkpt lat="48.45793" lon="-4.34994">
        <ele>187</ele>
        <time>2012-02-26T10:44:38.57</time>
      </trkpt>
      <trkpt lat="48.45796" lon="-4.34992">
        <ele>187</ele>
        <time>2012-02-26T10:44:39.58</time>
      </trkpt>
      <trkpt lat="48.458" lon="-4.3499">
        <ele>187</ele>
        <time>2012-02-26T10:44:40.58</time>
      </trkpt>
      <trkpt lat="48.45803" lon="-4.34988">
        <ele>187</ele>
        <time>2012-02-26T10:44:41.58</time>
      </trkpt>
      <trkpt lat="48.45808" lon="-4.34986">
        <ele>187</ele>
        <time>2012-02-26T10:44:42.55</time>
      </trkpt>
      <trkpt lat="48.45812" lon="-4.34983">
        <ele>187</ele>
        <time>2012-02-26T10:44:43.55</time>
      </trkpt>
      <trkpt lat="48.45816" lon="-4.34981">
        <ele>187</ele>
        <time>2012-02-26T10:44:44.58</time>
      </trkpt>
      <trkpt lat="48.45819" lon="-4.34979">
        <ele>187</ele>
        <time>2012-02-26T10:44:45.59</time>
      </trkpt>
      <trkpt lat="48.45824" lon="-4.34977">
        <ele>187</ele>
        <time>2012-02-26T10:44:46.59</time>
      </trkpt>
      <trkpt lat="48.45828" lon="-4.34975">
        <ele>187</ele>
        <time>2012-02-26T10:44:47.58</time>
      </trkpt>
      <trkpt lat="48.45832" lon="-4.34973">
        <ele>187</ele>
        <time>2012-02-26T10:44:48.58</time>
      </trkpt>
      <trkpt lat="48.45835" lon="-4.34971">
        <ele>187</ele>
        <time>2012-02-26T10:44:49.59</time>
      </trkpt>
      <trkpt lat="48.4584" lon="-4.34968">
        <ele>188</ele>
        <time>2012-02-26T10:44:50.58</time>
      </trkpt>
      <trkpt lat="48.45844" lon="-4.34966">
        <ele>188</ele>
        <time>2012-02-26T10:44:51.59</time>
      </trkpt>
      <trkpt lat="48.45848" lon="-4.34966">
        <ele>188</ele>
        <time>2012-02-26T10:44:52.65</time>
      </trkpt>
      <trkpt lat="48.45853" lon="-4.34964">
        <ele>188</ele>
        <time>2012-02-26T10:44:53.58</time>
      </trkpt>
      <trkpt lat="48.45857" lon="-4.34962">
        <ele>188</ele>
        <time>2012-02-26T10:44:54.58</time>
      </trkpt>
      <trkpt lat="48.45862" lon="-4.34958">
        <ele>188</ele>
        <time>2012-02-26T10:44:55.59</time>
      </trkpt>
      <trkpt lat="48.45867" lon="-4.34956">
        <ele>188</ele>
        <time>2012-02-26T10:44:56.58</time>
      </trkpt>
      <trkpt lat="48.45872" lon="-4.34953">
        <ele>188</ele>
        <time>2012-02-26T10:44:57.59</time>
      </trkpt>
      <trkpt lat="48.45876" lon="-4.34951">
        <ele>188</ele>
        <time>2012-02-26T10:44:58.57</time>
      </trkpt>
      <trkpt lat="48.45882" lon="-4.34949">
        <ele>188</ele>
        <time>2012-02-26T10:44:59.58</time>
      </trkpt>
      <trkpt lat="48.45887" lon="-4.34947">
        <ele>187</ele>
        <time>2012-02-26T10:45:00.56</time>
      </trkpt>
      <trkpt lat="48.45891" lon="-4.34945">
        <ele>186</ele>
        <time>2012-02-26T10:45:01.58</time>
      </trkpt>
      <trkpt lat="48.45897" lon="-4.34943">
        <ele>186</ele>
        <time>2012-02-26T10:45:02.58</time>
      </trkpt>
      <trkpt lat="48.45901" lon="-4.34945">
        <ele>186</ele>
        <time>2012-02-26T10:45:03.58</time>
      </trkpt>
      <trkpt lat="48.45905" lon="-4.34949">
        <ele>185</ele>
        <time>2012-02-26T10:45:04.58</time>
      </trkpt>
      <trkpt lat="48.45911" lon="-4.34951">
        <ele>184</ele>
        <time>2012-02-26T10:45:05.56</time>
      </trkpt>
      <trkpt lat="48.45915" lon="-4.34956">
        <ele>184</ele>
        <time>2012-02-26T10:45:06.58</time>
      </trkpt>
      <trkpt lat="48.45919" lon="-4.34958">
        <ele>183</ele>
        <time>2012-02-26T10:45:07.59</time>
      </trkpt>
      <trkpt lat="48.45922" lon="-4.34962">
        <ele>182</ele>
        <time>2012-02-26T10:45:08.65</time>
      </trkpt>
      <trkpt lat="48.45926" lon="-4.34966">
        <ele>182</ele>
        <time>2012-02-26T10:45:09.57</time>
      </trkpt>
      <trkpt lat="48.45929" lon="-4.34971">
        <ele>181</ele>
        <time>2012-02-26T10:45:10.58</time>
      </trkpt>
      <trkpt lat="48.45932" lon="-4.34975">
        <ele>180</ele>
        <time>2012-02-26T10:45:11.59</time>
      </trkpt>
      <trkpt lat="48.45936" lon="-4.34979">
        <ele>180</ele>
        <time>2012-02-26T10:45:12.58</time>
      </trkpt>
      <trkpt lat="48.4594" lon="-4.34986">
        <ele>180</ele>
        <time>2012-02-26T10:45:13.57</time>
      </trkpt>
      <trkpt lat="48.45944" lon="-4.3499">
        <ele>180</ele>
        <time>2012-02-26T10:45:14.59</time>
      </trkpt>
      <trkpt lat="48.45947" lon="-4.34996">
        <ele>179</ele>
        <time>2012-02-26T10:45:15.57</time>
      </trkpt>
      <trkpt lat="48.45951" lon="-4.35003">
        <ele>179</ele>
        <time>2012-02-26T10:45:16.58</time>
      </trkpt>
      <trkpt lat="48.45956" lon="-4.35009">
        <ele>179</ele>
        <time>2012-02-26T10:45:17.59</time>
      </trkpt>
      <trkpt lat="48.4596" lon="-4.35016">
        <ele>179</ele>
        <time>2012-02-26T10:45:18.58</time>
      </trkpt>
      <trkpt lat="48.45964" lon="-4.3502">
        <ele>179</ele>
        <time>2012-02-26T10:45:19.58</time>
      </trkpt>
      <trkpt lat="48.45968" lon="-4.35026">
        <ele>179</ele>
        <time>2012-02-26T10:45:20.59</time>
      </trkpt>
      <trkpt lat="48.45974" lon="-4.35033">
        <ele>178</ele>
        <time>2012-02-26T10:45:21.57</time>
      </trkpt>
      <trkpt lat="48.45978" lon="-4.35039">
        <ele>178</ele>
        <time>2012-02-26T10:45:22.56</time>
      </trkpt>
      <trkpt lat="48.45982" lon="-4.35044">
        <ele>177</ele>
        <time>2012-02-26T10:45:23.59</time>
      </trkpt>
      <trkpt lat="48.45989" lon="-4.3505">
        <ele>177</ele>
        <time>2012-02-26T10:45:24.64</time>
      </trkpt>
      <trkpt lat="48.45994" lon="-4.35056">
        <ele>177</ele>
        <time>2012-02-26T10:45:25.58</time>
      </trkpt>
      <trkpt lat="48.46" lon="-4.35061">
        <ele>177</ele>
        <time>2012-02-26T10:45:26.59</time>
      </trkpt>
      <trkpt lat="48.46005" lon="-4.35067">
        <ele>176</ele>
        <time>2012-02-26T10:45:27.59</time>
      </trkpt>
      <trkpt lat="48.46011" lon="-4.35071">
        <ele>176</ele>
        <time>2012-02-26T10:45:28.58</time>
      </trkpt>
      <trkpt lat="48.46017" lon="-4.35078">
        <ele>176</ele>
        <time>2012-02-26T10:45:29.59</time>
      </trkpt>
      <trkpt lat="48.46022" lon="-4.35082">
        <ele>176</ele>
        <time>2012-02-26T10:45:30.59</time>
      </trkpt>
      <trkpt lat="48.46029" lon="-4.35089">
        <ele>176</ele>
        <time>2012-02-26T10:45:31.58</time>
      </trkpt>
      <trkpt lat="48.46034" lon="-4.35093">
        <ele>176</ele>
        <time>2012-02-26T10:45:32.58</time>
      </trkpt>
      <trkpt lat="48.46039" lon="-4.35099">
        <ele>176</ele>
        <time>2012-02-26T10:45:33.59</time>
      </trkpt>
      <trkpt lat="48.46046" lon="-4.35104">
        <ele>176</ele>
        <time>2012-02-26T10:45:34.58</time>
      </trkpt>
      <trkpt lat="48.4605" lon="-4.3511">
        <ele>175</ele>
        <time>2012-02-26T10:45:35.58</time>
      </trkpt>
      <trkpt lat="48.46055" lon="-4.35119">
        <ele>175</ele>
        <time>2012-02-26T10:45:36.59</time>
      </trkpt>
      <trkpt lat="48.46061" lon="-4.35125">
        <ele>175</ele>
        <time>2012-02-26T10:45:37.58</time>
      </trkpt>
      <trkpt lat="48.46065" lon="-4.35134">
        <ele>175</ele>
        <time>2012-02-26T10:45:38.58</time>
      </trkpt>
      <trkpt lat="48.4607" lon="-4.35142">
        <ele>175</ele>
        <time>2012-02-26T10:45:39.59</time>
      </trkpt>
      <trkpt lat="48.46075" lon="-4.35153">
        <ele>175</ele>
        <time>2012-02-26T10:45:40.58</time>
      </trkpt>
      <trkpt lat="48.46077" lon="-4.35164">
        <ele>174</ele>
        <time>2012-02-26T10:45:41.58</time>
      </trkpt>
      <trkpt lat="48.4608" lon="-4.35174">
        <ele>174</ele>
        <time>2012-02-26T10:45:42.59</time>
      </trkpt>
      <trkpt lat="48.46083" lon="-4.35185">
        <ele>174</ele>
        <time>2012-02-26T10:45:43.58</time>
      </trkpt>
      <trkpt lat="48.46085" lon="-4.35196">
        <ele>174</ele>
        <time>2012-02-26T10:45:44.58</time>
      </trkpt>
      <trkpt lat="48.46089" lon="-4.35207">
        <ele>174</ele>
        <time>2012-02-26T10:45:45.60</time>
      </trkpt>
      <trkpt lat="48.46091" lon="-4.3522">
        <ele>174</ele>
        <time>2012-02-26T10:45:46.57</time>
      </trkpt>
      <trkpt lat="48.46093" lon="-4.3523">
        <ele>174</ele>
        <time>2012-02-26T10:45:47.58</time>
      </trkpt>
      <trkpt lat="48.46095" lon="-4.35241">
        <ele>174</ele>
        <time>2012-02-26T10:45:48.58</time>
      </trkpt>
      <trkpt lat="48.46097" lon="-4.35252">
        <ele>173</ele>
        <time>2012-02-26T10:45:49.58</time>
      </trkpt>
      <trkpt lat="48.46099" lon="-4.35262">
        <ele>172</ele>
        <time>2012-02-26T10:45:50.58</time>
      </trkpt>
      <trkpt lat="48.461" lon="-4.35273">
        <ele>171</ele>
        <time>2012-02-26T10:45:51.58</time>
      </trkpt>
      <trkpt lat="48.46103" lon="-4.35286">
        <ele>170</ele>
        <time>2012-02-26T10:45:52.59</time>
      </trkpt>
      <trkpt lat="48.46105" lon="-4.35297">
        <ele>170</ele>
        <time>2012-02-26T10:45:53.58</time>
      </trkpt>
      <trkpt lat="48.46107" lon="-4.35308">
        <ele>169</ele>
        <time>2012-02-26T10:45:54.58</time>
      </trkpt>
      <trkpt lat="48.46109" lon="-4.3532">
        <ele>169</ele>
        <time>2012-02-26T10:45:55.58</time>
      </trkpt>
      <trkpt lat="48.46111" lon="-4.35331">
        <ele>169</ele>
        <time>2012-02-26T10:45:56.58</time>
      </trkpt>
      <trkpt lat="48.46114" lon="-4.35342">
        <ele>168</ele>
        <time>2012-02-26T10:45:57.58</time>
      </trkpt>
      <trkpt lat="48.46119" lon="-4.35353">
        <ele>168</ele>
        <time>2012-02-26T10:45:58.58</time>
      </trkpt>
      <trkpt lat="48.46124" lon="-4.35363">
        <ele>168</ele>
        <time>2012-02-26T10:45:59.58</time>
      </trkpt>
      <trkpt lat="48.46129" lon="-4.35372">
        <ele>168</ele>
        <time>2012-02-26T10:46:00.58</time>
      </trkpt>
      <trkpt lat="48.46136" lon="-4.3538">
        <ele>168</ele>
        <time>2012-02-26T10:46:01.58</time>
      </trkpt>
      <trkpt lat="48.46141" lon="-4.35387">
        <ele>167</ele>
        <time>2012-02-26T10:46:02.58</time>
      </trkpt>
      <trkpt lat="48.46148" lon="-4.35395">
        <ele>167</ele>
        <time>2012-02-26T10:46:03.56</time>
      </trkpt>
      <trkpt lat="48.46154" lon="-4.35402">
        <ele>167</ele>
        <time>2012-02-26T10:46:04.58</time>
      </trkpt>
      <trkpt lat="48.46161" lon="-4.35408">
        <ele>167</ele>
        <time>2012-02-26T10:46:05.58</time>
      </trkpt>
      <trkpt lat="48.46168" lon="-4.35415">
        <ele>167</ele>
        <time>2012-02-26T10:46:06.58</time>
      </trkpt>
      <trkpt lat="48.46174" lon="-4.35421">
        <ele>167</ele>
        <time>2012-02-26T10:46:07.58</time>
      </trkpt>
      <trkpt lat="48.46181" lon="-4.35426">
        <ele>167</ele>
        <time>2012-02-26T10:46:08.58</time>
      </trkpt>
      <trkpt lat="48.46187" lon="-4.35432">
        <ele>167</ele>
        <time>2012-02-26T10:46:09.58</time>
      </trkpt>
      <trkpt lat="48.46195" lon="-4.35436">
        <ele>167</ele>
        <time>2012-02-26T10:46:10.58</time>
      </trkpt>
      <trkpt lat="48.46201" lon="-4.35443">
        <ele>167</ele>
        <time>2012-02-26T10:46:11.60</time>
      </trkpt>
      <trkpt lat="48.46208" lon="-4.35447">
        <ele>167</ele>
        <time>2012-02-26T10:46:12.58</time>
      </trkpt>
      <trkpt lat="48.46214" lon="-4.35453">
        <ele>167</ele>
        <time>2012-02-26T10:46:13.59</time>
      </trkpt>
      <trkpt lat="48.46221" lon="-4.35458">
        <ele>167</ele>
        <time>2012-02-26T10:46:14.59</time>
      </trkpt>
      <trkpt lat="48.46226" lon="-4.35464">
        <ele>167</ele>
        <time>2012-02-26T10:46:15.58</time>
      </trkpt>
      <trkpt lat="48.46232" lon="-4.35468">
        <ele>167</ele>
        <time>2012-02-26T10:46:16.59</time>
      </trkpt>
      <trkpt lat="48.46239" lon="-4.35475">
        <ele>167</ele>
        <time>2012-02-26T10:46:17.59</time>
      </trkpt>
      <trkpt lat="48.46245" lon="-4.35479">
        <ele>168</ele>
        <time>2012-02-26T10:46:18.58</time>
      </trkpt>
      <trkpt lat="48.46251" lon="-4.35486">
        <ele>168</ele>
        <time>2012-02-26T10:46:19.59</time>
      </trkpt>
      <trkpt lat="48.46257" lon="-4.35492">
        <ele>168</ele>
        <time>2012-02-26T10:46:20.59</time>
      </trkpt>
      <trkpt lat="48.46264" lon="-4.35496">
        <ele>168</ele>
        <time>2012-02-26T10:46:21.58</time>
      </trkpt>
      <trkpt lat="48.4627" lon="-4.35503">
        <ele>168</ele>
        <time>2012-02-26T10:46:22.58</time>
      </trkpt>
      <trkpt lat="48.46276" lon="-4.35511">
        <ele>168</ele>
        <time>2012-02-26T10:46:23.59</time>
      </trkpt>
      <trkpt lat="48.46283" lon="-4.35518">
        <ele>167</ele>
        <time>2012-02-26T10:46:24.58</time>
      </trkpt>
      <trkpt lat="48.46289" lon="-4.35524">
        <ele>168</ele>
        <time>2012-02-26T10:46:25.58</time>
      </trkpt>
      <trkpt lat="48.46296" lon="-4.35533">
        <ele>168</ele>
        <time>2012-02-26T10:46:26.59</time>
      </trkpt>
      <trkpt lat="48.46301" lon="-4.35541">
        <ele>168</ele>
        <time>2012-02-26T10:46:27.58</time>
      </trkpt>
      <trkpt lat="48.46308" lon="-4.3555">
        <ele>168</ele>
        <time>2012-02-26T10:46:28.58</time>
      </trkpt>
      <trkpt lat="48.46315" lon="-4.35559">
        <ele>168</ele>
        <time>2012-02-26T10:46:29.59</time>
      </trkpt>
      <trkpt lat="48.46321" lon="-4.35569">
        <ele>168</ele>
        <time>2012-02-26T10:46:30.59</time>
      </trkpt>
      <trkpt lat="48.46328" lon="-4.35578">
        <ele>168</ele>
        <time>2012-02-26T10:46:31.58</time>
      </trkpt>
      <trkpt lat="48.46334" lon="-4.35589">
        <ele>167</ele>
        <time>2012-02-26T10:46:32.59</time>
      </trkpt>
      <trkpt lat="48.46342" lon="-4.35597">
        <ele>167</ele>
        <time>2012-02-26T10:46:33.59</time>
      </trkpt>
      <trkpt lat="48.46348" lon="-4.35608">
        <ele>167</ele>
        <time>2012-02-26T10:46:34.58</time>
      </trkpt>
      <trkpt lat="48.46355" lon="-4.35619">
        <ele>167</ele>
        <time>2012-02-26T10:46:35.59</time>
      </trkpt>
      <trkpt lat="48.46361" lon="-4.35629">
        <ele>167</ele>
        <time>2012-02-26T10:46:36.59</time>
      </trkpt>
      <trkpt lat="48.46368" lon="-4.35638">
        <ele>167</ele>
        <time>2012-02-26T10:46:37.58</time>
      </trkpt>
      <trkpt lat="48.46374" lon="-4.35649">
        <ele>167</ele>
        <time>2012-02-26T10:46:38.59</time>
      </trkpt>
      <trkpt lat="48.46382" lon="-4.35657">
        <ele>167</ele>
        <time>2012-02-26T10:46:39.59</time>
      </trkpt>
      <trkpt lat="48.46389" lon="-4.35668">
        <ele>168</ele>
        <time>2012-02-26T10:46:40.58</time>
      </trkpt>
      <trkpt lat="48.46397" lon="-4.35679">
        <ele>167</ele>
        <time>2012-02-26T10:46:41.59</time>
      </trkpt>
      <trkpt lat="48.46403" lon="-4.35687">
        <ele>167</ele>
        <time>2012-02-26T10:46:42.59</time>
      </trkpt>
      <trkpt lat="48.46411" lon="-4.35698">
        <ele>166</ele>
        <time>2012-02-26T10:46:43.58</time>
      </trkpt>
      <trkpt lat="48.46417" lon="-4.35709">
        <ele>166</ele>
        <time>2012-02-26T10:46:44.59</time>
      </trkpt>
      <trkpt lat="48.46423" lon="-4.35722">
        <ele>165</ele>
        <time>2012-02-26T10:46:45.59</time>
      </trkpt>
      <trkpt lat="48.4643" lon="-4.35735">
        <ele>165</ele>
        <time>2012-02-26T10:46:46.58</time>
      </trkpt>
      <trkpt lat="48.46436" lon="-4.35747">
        <ele>165</ele>
        <time>2012-02-26T10:46:47.58</time>
      </trkpt>
      <trkpt lat="48.46442" lon="-4.3576">
        <ele>165</ele>
        <time>2012-02-26T10:46:48.59</time>
      </trkpt>
      <trkpt lat="48.46447" lon="-4.35773">
        <ele>165</ele>
        <time>2012-02-26T10:46:49.58</time>
      </trkpt>
      <trkpt lat="48.46451" lon="-4.35788">
        <ele>164</ele>
        <time>2012-02-26T10:46:50.58</time>
      </trkpt>
      <trkpt lat="48.46457" lon="-4.35801">
        <ele>164</ele>
        <time>2012-02-26T10:46:51.59</time>
      </trkpt>
      <trkpt lat="48.46461" lon="-4.35816">
        <ele>164</ele>
        <time>2012-02-26T10:46:52.64</time>
      </trkpt>
      <trkpt lat="48.46464" lon="-4.35829">
        <ele>164</ele>
        <time>2012-02-26T10:46:53.58</time>
      </trkpt>
      <trkpt lat="48.46468" lon="-4.35844">
        <ele>163</ele>
        <time>2012-02-26T10:46:54.59</time>
      </trkpt>
      <trkpt lat="48.46473" lon="-4.35857">
        <ele>163</ele>
        <time>2012-02-26T10:46:55.59</time>
      </trkpt>
      <trkpt lat="48.46478" lon="-4.3587">
        <ele>162</ele>
        <time>2012-02-26T10:46:56.58</time>
      </trkpt>
      <trkpt lat="48.46483" lon="-4.35883">
        <ele>160</ele>
        <time>2012-02-26T10:46:57.59</time>
      </trkpt>
      <trkpt lat="48.46489" lon="-4.35895">
        <ele>159</ele>
        <time>2012-02-26T10:46:58.59</time>
      </trkpt>
      <trkpt lat="48.46496" lon="-4.35906">
        <ele>157</ele>
        <time>2012-02-26T10:46:59.58</time>
      </trkpt>
      <trkpt lat="48.46504" lon="-4.35917">
        <ele>156</ele>
        <time>2012-02-26T10:47:00.59</time>
      </trkpt>
      <trkpt lat="48.46511" lon="-4.35925">
        <ele>156</ele>
        <time>2012-02-26T10:47:01.59</time>
      </trkpt>
      <trkpt lat="48.46519" lon="-4.35934">
        <ele>155</ele>
        <time>2012-02-26T10:47:02.58</time>
      </trkpt>
      <trkpt lat="48.46527" lon="-4.35943">
        <ele>154</ele>
        <time>2012-02-26T10:47:03.59</time>
      </trkpt>
      <trkpt lat="48.46535" lon="-4.35951">
        <ele>154</ele>
        <time>2012-02-26T10:47:04.59</time>
      </trkpt>
      <trkpt lat="48.46544" lon="-4.35958">
        <ele>153</ele>
        <time>2012-02-26T10:47:05.58</time>
      </trkpt>
      <trkpt lat="48.46551" lon="-4.35966">
        <ele>153</ele>
        <time>2012-02-26T10:47:06.59</time>
      </trkpt>
      <trkpt lat="48.4656" lon="-4.35973">
        <ele>153</ele>
        <time>2012-02-26T10:47:07.59</time>
      </trkpt>
      <trkpt lat="48.46568" lon="-4.35979">
        <ele>153</ele>
        <time>2012-02-26T10:47:08.58</time>
      </trkpt>
      <trkpt lat="48.46576" lon="-4.35986">
        <ele>153</ele>
        <time>2012-02-26T10:47:09.58</time>
      </trkpt>
      <trkpt lat="48.46583" lon="-4.35992">
        <ele>152</ele>
        <time>2012-02-26T10:47:10.59</time>
      </trkpt>
      <trkpt lat="48.46591" lon="-4.35998">
        <ele>152</ele>
        <time>2012-02-26T10:47:11.60</time>
      </trkpt>
      <trkpt lat="48.46598" lon="-4.36005">
        <ele>152</ele>
        <time>2012-02-26T10:47:12.58</time>
      </trkpt>
      <trkpt lat="48.46606" lon="-4.36011">
        <ele>152</ele>
        <time>2012-02-26T10:47:13.59</time>
      </trkpt>
      <trkpt lat="48.46613" lon="-4.36018">
        <ele>151</ele>
        <time>2012-02-26T10:47:14.60</time>
      </trkpt>
      <trkpt lat="48.46621" lon="-4.36024">
        <ele>151</ele>
        <time>2012-02-26T10:47:15.58</time>
      </trkpt>
      <trkpt lat="48.46629" lon="-4.36031">
        <ele>151</ele>
        <time>2012-02-26T10:47:16.58</time>
      </trkpt>
      <trkpt lat="48.46637" lon="-4.36037">
        <ele>150</ele>
        <time>2012-02-26T10:47:17.59</time>
      </trkpt>
      <trkpt lat="48.46645" lon="-4.36044">
        <ele>150</ele>
        <time>2012-02-26T10:47:18.58</time>
      </trkpt>
      <trkpt lat="48.46654" lon="-4.36048">
        <ele>150</ele>
        <time>2012-02-26T10:47:19.59</time>
      </trkpt>
      <trkpt lat="48.46663" lon="-4.36052">
        <ele>150</ele>
        <time>2012-02-26T10:47:20.58</time>
      </trkpt>
      <trkpt lat="48.46671" lon="-4.36056">
        <ele>150</ele>
        <time>2012-02-26T10:47:21.58</time>
      </trkpt>
      <trkpt lat="48.46681" lon="-4.36061">
        <ele>150</ele>
        <time>2012-02-26T10:47:22.59</time>
      </trkpt>
      <trkpt lat="48.46689" lon="-4.36065">
        <ele>150</ele>
        <time>2012-02-26T10:47:23.59</time>
      </trkpt>
      <trkpt lat="48.46697" lon="-4.36069">
        <ele>149</ele>
        <time>2012-02-26T10:47:24.58</time>
      </trkpt>
      <trkpt lat="48.46706" lon="-4.36074">
        <ele>149</ele>
        <time>2012-02-26T10:47:25.59</time>
      </trkpt>
      <trkpt lat="48.46714" lon="-4.36078">
        <ele>149</ele>
        <time>2012-02-26T10:47:26.64</time>
      </trkpt>
      <trkpt lat="48.46722" lon="-4.36082">
        <ele>149</ele>
        <time>2012-02-26T10:47:27.58</time>
      </trkpt>
      <trkpt lat="48.46729" lon="-4.36086">
        <ele>149</ele>
        <time>2012-02-26T10:47:28.58</time>
      </trkpt>
      <trkpt lat="48.46737" lon="-4.36091">
        <ele>149</ele>
        <time>2012-02-26T10:47:29.58</time>
      </trkpt>
      <trkpt lat="48.46744" lon="-4.36095">
        <ele>149</ele>
        <time>2012-02-26T10:47:30.58</time>
      </trkpt>
      <trkpt lat="48.46753" lon="-4.36099">
        <ele>149</ele>
        <time>2012-02-26T10:47:31.59</time>
      </trkpt>
      <trkpt lat="48.4676" lon="-4.36104">
        <ele>149</ele>
        <time>2012-02-26T10:47:32.59</time>
      </trkpt>
      <trkpt lat="48.46769" lon="-4.36108">
        <ele>149</ele>
        <time>2012-02-26T10:47:33.60</time>
      </trkpt>
      <trkpt lat="48.46776" lon="-4.36112">
        <ele>149</ele>
        <time>2012-02-26T10:47:34.58</time>
      </trkpt>
      <trkpt lat="48.46785" lon="-4.36114">
        <ele>149</ele>
        <time>2012-02-26T10:47:35.59</time>
      </trkpt>
      <trkpt lat="48.46794" lon="-4.36116">
        <ele>149</ele>
        <time>2012-02-26T10:47:36.60</time>
      </trkpt>
      <trkpt lat="48.46802" lon="-4.36119">
        <ele>149</ele>
        <time>2012-02-26T10:47:37.58</time>
      </trkpt>
      <trkpt lat="48.46811" lon="-4.36123">
        <ele>148</ele>
        <time>2012-02-26T10:47:38.59</time>
      </trkpt>
      <trkpt lat="48.4682" lon="-4.36125">
        <ele>148</ele>
        <time>2012-02-26T10:47:39.60</time>
      </trkpt>
      <trkpt lat="48.46829" lon="-4.36127">
        <ele>148</ele>
        <time>2012-02-26T10:47:40.58</time>
      </trkpt>
      <trkpt lat="48.46838" lon="-4.36131">
        <ele>148</ele>
        <time>2012-02-26T10:47:41.59</time>
      </trkpt>
      <trkpt lat="48.46847" lon="-4.36134">
        <ele>148</ele>
        <time>2012-02-26T10:47:42.60</time>
      </trkpt>
      <trkpt lat="48.46857" lon="-4.36138">
        <ele>148</ele>
        <time>2012-02-26T10:47:43.58</time>
      </trkpt>
      <trkpt lat="48.46865" lon="-4.3614">
        <ele>148</ele>
        <time>2012-02-26T10:47:44.59</time>
      </trkpt>
      <trkpt lat="48.46875" lon="-4.36144">
        <ele>149</ele>
        <time>2012-02-26T10:47:45.59</time>
      </trkpt>
      <trkpt lat="48.46885" lon="-4.36146">
        <ele>149</ele>
        <time>2012-02-26T10:47:46.58</time>
      </trkpt>
      <trkpt lat="48.46893" lon="-4.36151">
        <ele>149</ele>
        <time>2012-02-26T10:47:47.58</time>
      </trkpt>
      <trkpt lat="48.46903" lon="-4.36153">
        <ele>149</ele>
        <time>2012-02-26T10:47:48.63</time>
      </trkpt>
      <trkpt lat="48.46912" lon="-4.36157">
        <ele>149</ele>
        <time>2012-02-26T10:47:49.58</time>
      </trkpt>
      <trkpt lat="48.46921" lon="-4.36162">
        <ele>149</ele>
        <time>2012-02-26T10:47:50.58</time>
      </trkpt>
      <trkpt lat="48.4693" lon="-4.36164">
        <ele>149</ele>
        <time>2012-02-26T10:47:51.59</time>
      </trkpt>
      <trkpt lat="48.46938" lon="-4.36166">
        <ele>149</ele>
        <time>2012-02-26T10:47:52.58</time>
      </trkpt>
      <trkpt lat="48.46947" lon="-4.36168">
        <ele>148</ele>
        <time>2012-02-26T10:47:53.58</time>
      </trkpt>
      <trkpt lat="48.46956" lon="-4.3617">
        <ele>148</ele>
        <time>2012-02-26T10:47:54.59</time>
      </trkpt>
      <trkpt lat="48.46964" lon="-4.36172">
        <ele>148</ele>
        <time>2012-02-26T10:47:55.60</time>
      </trkpt>
      <trkpt lat="48.46972" lon="-4.36174">
        <ele>148</ele>
        <time>2012-02-26T10:47:56.58</time>
      </trkpt>
      <trkpt lat="48.46979" lon="-4.36177">
        <ele>148</ele>
        <time>2012-02-26T10:47:57.59</time>
      </trkpt>
      <trkpt lat="48.46987" lon="-4.36179">
        <ele>148</ele>
        <time>2012-02-26T10:47:58.60</time>
      </trkpt>
      <trkpt lat="48.46994" lon="-4.36181">
        <ele>148</ele>
        <time>2012-02-26T10:47:59.58</time>
      </trkpt>
      <trkpt lat="48.47001" lon="-4.36185">
        <ele>148</ele>
        <time>2012-02-26T10:48:00.59</time>
      </trkpt>
      <trkpt lat="48.47007" lon="-4.36192">
        <ele>148</ele>
        <time>2012-02-26T10:48:01.59</time>
      </trkpt>
      <trkpt lat="48.47013" lon="-4.36198">
        <ele>148</ele>
        <time>2012-02-26T10:48:02.58</time>
      </trkpt>
      <trkpt lat="48.47019" lon="-4.36204">
        <ele>149</ele>
        <time>2012-02-26T10:48:03.59</time>
      </trkpt>
      <trkpt lat="48.47025" lon="-4.36213">
        <ele>148</ele>
        <time>2012-02-26T10:48:04.63</time>
      </trkpt>
      <trkpt lat="48.47031" lon="-4.36222">
        <ele>148</ele>
        <time>2012-02-26T10:48:05.58</time>
      </trkpt>
      <trkpt lat="48.47036" lon="-4.3623">
        <ele>148</ele>
        <time>2012-02-26T10:48:06.59</time>
      </trkpt>
      <trkpt lat="48.47041" lon="-4.36239">
        <ele>148</ele>
        <time>2012-02-26T10:48:07.59</time>
      </trkpt>
      <trkpt lat="48.47046" lon="-4.36247">
        <ele>148</ele>
        <time>2012-02-26T10:48:08.58</time>
      </trkpt>
      <trkpt lat="48.4705" lon="-4.36258">
        <ele>147</ele>
        <time>2012-02-26T10:48:09.58</time>
      </trkpt>
      <trkpt lat="48.47055" lon="-4.36269">
        <ele>147</ele>
        <time>2012-02-26T10:48:10.59</time>
      </trkpt>
      <trkpt lat="48.4706" lon="-4.36277">
        <ele>147</ele>
        <time>2012-02-26T10:48:11.58</time>
      </trkpt>
      <trkpt lat="48.47064" lon="-4.36288">
        <ele>147</ele>
        <time>2012-02-26T10:48:12.59</time>
      </trkpt>
      <trkpt lat="48.47068" lon="-4.36299">
        <ele>147</ele>
        <time>2012-02-26T10:48:13.59</time>
      </trkpt>
      <trkpt lat="48.47074" lon="-4.3631">
        <ele>147</ele>
        <time>2012-02-26T10:48:14.58</time>
      </trkpt>
      <trkpt lat="48.47078" lon="-4.36318">
        <ele>147</ele>
        <time>2012-02-26T10:48:15.59</time>
      </trkpt>
      <trkpt lat="48.47083" lon="-4.36329">
        <ele>147</ele>
        <time>2012-02-26T10:48:16.59</time>
      </trkpt>
      <trkpt lat="48.47088" lon="-4.3634">
        <ele>147</ele>
        <time>2012-02-26T10:48:17.60</time>
      </trkpt>
      <trkpt lat="48.47092" lon="-4.36348">
        <ele>147</ele>
        <time>2012-02-26T10:48:18.59</time>
      </trkpt>
      <trkpt lat="48.47096" lon="-4.36359">
        <ele>147</ele>
        <time>2012-02-26T10:48:19.59</time>
      </trkpt>
      <trkpt lat="48.47101" lon="-4.3637">
        <ele>147</ele>
        <time>2012-02-26T10:48:20.66</time>
      </trkpt>
      <trkpt lat="48.47106" lon="-4.3638">
        <ele>147</ele>
        <time>2012-02-26T10:48:21.58</time>
      </trkpt>
      <trkpt lat="48.4711" lon="-4.36391">
        <ele>147</ele>
        <time>2012-02-26T10:48:22.59</time>
      </trkpt>
      <trkpt lat="48.47114" lon="-4.36402">
        <ele>147</ele>
        <time>2012-02-26T10:48:23.60</time>
      </trkpt>
      <trkpt lat="48.47119" lon="-4.36413">
        <ele>147</ele>
        <time>2012-02-26T10:48:24.58</time>
      </trkpt>
      <trkpt lat="48.47123" lon="-4.36423">
        <ele>147</ele>
        <time>2012-02-26T10:48:25.59</time>
      </trkpt>
      <trkpt lat="48.47126" lon="-4.36434">
        <ele>146</ele>
        <time>2012-02-26T10:48:26.59</time>
      </trkpt>
      <trkpt lat="48.4713" lon="-4.36445">
        <ele>146</ele>
        <time>2012-02-26T10:48:27.58</time>
      </trkpt>
      <trkpt lat="48.47135" lon="-4.36455">
        <ele>146</ele>
        <time>2012-02-26T10:48:28.59</time>
      </trkpt>
      <trkpt lat="48.47138" lon="-4.36466">
        <ele>146</ele>
        <time>2012-02-26T10:48:29.59</time>
      </trkpt>
      <trkpt lat="48.47142" lon="-4.36479">
        <ele>146</ele>
        <time>2012-02-26T10:48:30.58</time>
      </trkpt>
      <trkpt lat="48.47145" lon="-4.3649">
        <ele>146</ele>
        <time>2012-02-26T10:48:31.59</time>
      </trkpt>
      <trkpt lat="48.4715" lon="-4.36503">
        <ele>146</ele>
        <time>2012-02-26T10:48:32.60</time>
      </trkpt>
      <trkpt lat="48.47154" lon="-4.36513">
        <ele>146</ele>
        <time>2012-02-26T10:48:33.58</time>
      </trkpt>
      <trkpt lat="48.47157" lon="-4.36524">
        <ele>145</ele>
        <time>2012-02-26T10:48:34.59</time>
      </trkpt>
      <trkpt lat="48.47162" lon="-4.36537">
        <ele>145</ele>
        <time>2012-02-26T10:48:35.59</time>
      </trkpt>
      <trkpt lat="48.47166" lon="-4.3655">
        <ele>145</ele>
        <time>2012-02-26T10:48:36.59</time>
      </trkpt>
      <trkpt lat="48.47169" lon="-4.36561">
        <ele>144</ele>
        <time>2012-02-26T10:48:37.59</time>
      </trkpt>
      <trkpt lat="48.47173" lon="-4.36574">
        <ele>144</ele>
        <time>2012-02-26T10:48:38.59</time>
      </trkpt>
      <trkpt lat="48.47177" lon="-4.36586">
        <ele>144</ele>
        <time>2012-02-26T10:48:39.60</time>
      </trkpt>
      <trkpt lat="48.4718" lon="-4.36601">
        <ele>144</ele>
        <time>2012-02-26T10:48:40.58</time>
      </trkpt>
      <trkpt lat="48.47183" lon="-4.36614">
        <ele>143</ele>
        <time>2012-02-26T10:48:41.59</time>
      </trkpt>
      <trkpt lat="48.47187" lon="-4.36629">
        <ele>143</ele>
        <time>2012-02-26T10:48:42.66</time>
      </trkpt>
      <trkpt lat="48.47189" lon="-4.36644">
        <ele>143</ele>
        <time>2012-02-26T10:48:43.58</time>
      </trkpt>
      <trkpt lat="48.47193" lon="-4.36659">
        <ele>143</ele>
        <time>2012-02-26T10:48:44.59</time>
      </trkpt>
      <trkpt lat="48.47195" lon="-4.36674">
        <ele>142</ele>
        <time>2012-02-26T10:48:45.60</time>
      </trkpt>
      <trkpt lat="48.47197" lon="-4.36689">
        <ele>142</ele>
        <time>2012-02-26T10:48:46.58</time>
      </trkpt>
      <trkpt lat="48.47196" lon="-4.36704">
        <ele>142</ele>
        <time>2012-02-26T10:48:47.58</time>
      </trkpt>
      <trkpt lat="48.47195" lon="-4.36719">
        <ele>142</ele>
        <time>2012-02-26T10:48:48.58</time>
      </trkpt>
      <trkpt lat="48.47194" lon="-4.36734">
        <ele>142</ele>
        <time>2012-02-26T10:48:49.58</time>
      </trkpt>
      <trkpt lat="48.47193" lon="-4.36749">
        <ele>142</ele>
        <time>2012-02-26T10:48:50.59</time>
      </trkpt>
      <trkpt lat="48.4719" lon="-4.36764">
        <ele>141</ele>
        <time>2012-02-26T10:48:51.59</time>
      </trkpt>
      <trkpt lat="48.47187" lon="-4.36779">
        <ele>141</ele>
        <time>2012-02-26T10:48:52.58</time>
      </trkpt>
      <trkpt lat="48.47184" lon="-4.36797">
        <ele>141</ele>
        <time>2012-02-26T10:48:53.60</time>
      </trkpt>
      <trkpt lat="48.47181" lon="-4.36812">
        <ele>141</ele>
        <time>2012-02-26T10:48:54.59</time>
      </trkpt>
      <trkpt lat="48.47177" lon="-4.36825">
        <ele>141</ele>
        <time>2012-02-26T10:48:55.58</time>
      </trkpt>
      <trkpt lat="48.47172" lon="-4.3684">
        <ele>141</ele>
        <time>2012-02-26T10:48:56.59</time>
      </trkpt>
      <trkpt lat="48.47169" lon="-4.36855">
        <ele>142</ele>
        <time>2012-02-26T10:48:57.59</time>
      </trkpt>
      <trkpt lat="48.47165" lon="-4.36867">
        <ele>142</ele>
        <time>2012-02-26T10:48:58.60</time>
      </trkpt>
      <trkpt lat="48.47162" lon="-4.3688">
        <ele>142</ele>
        <time>2012-02-26T10:48:59.59</time>
      </trkpt>
      <trkpt lat="48.47157" lon="-4.36895">
        <ele>142</ele>
        <time>2012-02-26T10:49:00.59</time>
      </trkpt>
      <trkpt lat="48.47155" lon="-4.36908">
        <ele>141</ele>
        <time>2012-02-26T10:49:01.60</time>
      </trkpt>
      <trkpt lat="48.47153" lon="-4.36921">
        <ele>141</ele>
        <time>2012-02-26T10:49:02.59</time>
      </trkpt>
      <trkpt lat="48.47151" lon="-4.36934">
        <ele>141</ele>
        <time>2012-02-26T10:49:03.59</time>
      </trkpt>
      <trkpt lat="48.4715" lon="-4.36947">
        <ele>141</ele>
        <time>2012-02-26T10:49:04.60</time>
      </trkpt>
      <trkpt lat="48.47149" lon="-4.3696">
        <ele>141</ele>
        <time>2012-02-26T10:49:05.59</time>
      </trkpt>
      <trkpt lat="48.47149" lon="-4.36973">
        <ele>141</ele>
        <time>2012-02-26T10:49:06.59</time>
      </trkpt>
      <trkpt lat="48.47149" lon="-4.36985">
        <ele>141</ele>
        <time>2012-02-26T10:49:07.60</time>
      </trkpt>
      <trkpt lat="48.47149" lon="-4.36998">
        <ele>141</ele>
        <time>2012-02-26T10:49:08.58</time>
      </trkpt>
      <trkpt lat="48.47148" lon="-4.37011">
        <ele>141</ele>
        <time>2012-02-26T10:49:09.59</time>
      </trkpt>
      <trkpt lat="48.47148" lon="-4.37022">
        <ele>141</ele>
        <time>2012-02-26T10:49:10.59</time>
      </trkpt>
      <trkpt lat="48.47148" lon="-4.37035">
        <ele>141</ele>
        <time>2012-02-26T10:49:11.58</time>
      </trkpt>
      <trkpt lat="48.47148" lon="-4.37046">
        <ele>141</ele>
        <time>2012-02-26T10:49:12.59</time>
      </trkpt>
      <trkpt lat="48.47148" lon="-4.37056">
        <ele>142</ele>
        <time>2012-02-26T10:49:13.60</time>
      </trkpt>
      <trkpt lat="48.47147" lon="-4.37069">
        <ele>142</ele>
        <time>2012-02-26T10:49:14.58</time>
      </trkpt>
      <trkpt lat="48.47145" lon="-4.3708">
        <ele>142</ele>
        <time>2012-02-26T10:49:15.59</time>
      </trkpt>
      <trkpt lat="48.47144" lon="-4.37093">
        <ele>142</ele>
        <time>2012-02-26T10:49:16.65</time>
      </trkpt>
      <trkpt lat="48.47144" lon="-4.37104">
        <ele>142</ele>
        <time>2012-02-26T10:49:17.58</time>
      </trkpt>
      <trkpt lat="48.47143" lon="-4.37114">
        <ele>143</ele>
        <time>2012-02-26T10:49:18.59</time>
      </trkpt>
      <trkpt lat="48.47142" lon="-4.37127">
        <ele>143</ele>
        <time>2012-02-26T10:49:19.59</time>
      </trkpt>
      <trkpt lat="48.47141" lon="-4.3714">
        <ele>143</ele>
        <time>2012-02-26T10:49:20.60</time>
      </trkpt>
      <trkpt lat="48.47141" lon="-4.37153">
        <ele>142</ele>
        <time>2012-02-26T10:49:21.59</time>
      </trkpt>
      <trkpt lat="48.4714" lon="-4.37168">
        <ele>143</ele>
        <time>2012-02-26T10:49:22.59</time>
      </trkpt>
      <trkpt lat="48.4714" lon="-4.37181">
        <ele>143</ele>
        <time>2012-02-26T10:49:23.60</time>
      </trkpt>
      <trkpt lat="48.47139" lon="-4.37194">
        <ele>143</ele>
        <time>2012-02-26T10:49:24.61</time>
      </trkpt>
      <trkpt lat="48.47139" lon="-4.37209">
        <ele>143</ele>
        <time>2012-02-26T10:49:25.59</time>
      </trkpt>
      <trkpt lat="48.4714" lon="-4.37222">
        <ele>143</ele>
        <time>2012-02-26T10:49:26.60</time>
      </trkpt>
      <trkpt lat="48.4714" lon="-4.37234">
        <ele>143</ele>
        <time>2012-02-26T10:49:27.58</time>
      </trkpt>
      <trkpt lat="48.47143" lon="-4.37247">
        <ele>143</ele>
        <time>2012-02-26T10:49:28.59</time>
      </trkpt>
      <trkpt lat="48.47147" lon="-4.3726">
        <ele>143</ele>
        <time>2012-02-26T10:49:29.65</time>
      </trkpt>
      <trkpt lat="48.47151" lon="-4.37269">
        <ele>143</ele>
        <time>2012-02-26T10:49:30.58</time>
      </trkpt>
      <trkpt lat="48.47156" lon="-4.37279">
        <ele>143</ele>
        <time>2012-02-26T10:49:31.59</time>
      </trkpt>
      <trkpt lat="48.4716" lon="-4.3729">
        <ele>143</ele>
        <time>2012-02-26T10:49:32.60</time>
      </trkpt>
      <trkpt lat="48.47165" lon="-4.37299">
        <ele>143</ele>
        <time>2012-02-26T10:49:33.58</time>
      </trkpt>
      <trkpt lat="48.47168" lon="-4.3731">
        <ele>143</ele>
        <time>2012-02-26T10:49:34.58</time>
      </trkpt>
      <trkpt lat="48.47171" lon="-4.37318">
        <ele>143</ele>
        <time>2012-02-26T10:49:35.58</time>
      </trkpt>
      <trkpt lat="48.47174" lon="-4.37327">
        <ele>143</ele>
        <time>2012-02-26T10:49:36.58</time>
      </trkpt>
      <trkpt lat="48.47178" lon="-4.37337">
        <ele>143</ele>
        <time>2012-02-26T10:49:37.59</time>
      </trkpt>
      <trkpt lat="48.4718" lon="-4.37346">
        <ele>144</ele>
        <time>2012-02-26T10:49:38.64</time>
      </trkpt>
      <trkpt lat="48.47182" lon="-4.37355">
        <ele>144</ele>
        <time>2012-02-26T10:49:39.58</time>
      </trkpt>
      <trkpt lat="48.47183" lon="-4.37363">
        <ele>144</ele>
        <time>2012-02-26T10:49:40.59</time>
      </trkpt>
      <trkpt lat="48.47185" lon="-4.37372">
        <ele>144</ele>
        <time>2012-02-26T10:49:41.59</time>
      </trkpt>
      <trkpt lat="48.47186" lon="-4.37382">
        <ele>144</ele>
        <time>2012-02-26T10:49:42.58</time>
      </trkpt>
      <trkpt lat="48.47188" lon="-4.37391">
        <ele>143</ele>
        <time>2012-02-26T10:49:43.59</time>
      </trkpt>
      <trkpt lat="48.47189" lon="-4.374">
        <ele>144</ele>
        <time>2012-02-26T10:49:44.58</time>
      </trkpt>
      <trkpt lat="48.4719" lon="-4.37408">
        <ele>144</ele>
        <time>2012-02-26T10:49:45.58</time>
      </trkpt>
      <trkpt lat="48.47193" lon="-4.37415">
        <ele>144</ele>
        <time>2012-02-26T10:49:46.59</time>
      </trkpt>
      <trkpt lat="48.47194" lon="-4.37423">
        <ele>144</ele>
        <time>2012-02-26T10:49:47.59</time>
      </trkpt>
      <trkpt lat="48.47194" lon="-4.3743">
        <ele>145</ele>
        <time>2012-02-26T10:49:48.58</time>
      </trkpt>
      <trkpt lat="48.47193" lon="-4.37438">
        <ele>145</ele>
        <time>2012-02-26T10:49:49.65</time>
      </trkpt>
      <trkpt lat="48.4719" lon="-4.37445">
        <ele>145</ele>
        <time>2012-02-26T10:49:50.59</time>
      </trkpt>
      <trkpt lat="48.47189" lon="-4.37451">
        <ele>145</ele>
        <time>2012-02-26T10:49:51.60</time>
      </trkpt>
      <trkpt lat="48.47189" lon="-4.37455">
        <ele>145</ele>
        <time>2012-02-26T10:49:52.59</time>
      </trkpt>
      <trkpt lat="48.47189" lon="-4.37462">
        <ele>145</ele>
        <time>2012-02-26T10:49:53.59</time>
      </trkpt>
      <trkpt lat="48.4719" lon="-4.37466">
        <ele>145</ele>
        <time>2012-02-26T10:49:54.60</time>
      </trkpt>
      <trkpt lat="48.47189" lon="-4.3747">
        <ele>145</ele>
        <time>2012-02-26T10:49:55.58</time>
      </trkpt>
      <trkpt lat="48.47188" lon="-4.37477">
        <ele>145</ele>
        <time>2012-02-26T10:49:56.59</time>
      </trkpt>
      <trkpt lat="48.47188" lon="-4.37481">
        <ele>145</ele>
        <time>2012-02-26T10:49:57.60</time>
      </trkpt>
      <trkpt lat="48.47187" lon="-4.37485">
        <ele>145</ele>
        <time>2012-02-26T10:49:58.58</time>
      </trkpt>
      <trkpt lat="48.47187" lon="-4.3749">
        <ele>145</ele>
        <time>2012-02-26T10:49:59.59</time>
      </trkpt>
      <trkpt lat="48.47187" lon="-4.37494">
        <ele>145</ele>
        <time>2012-02-26T10:50:00.66</time>
      </trkpt>
      <trkpt lat="48.47186" lon="-4.37496">
        <ele>145</ele>
        <time>2012-02-26T10:50:01.58</time>
      </trkpt>
      <trkpt lat="48.47186" lon="-4.37496">
        <ele>145</ele>
        <time>2012-02-26T10:50:07.93</time>
      </trkpt>
    </trkseg>
  </trk>
</gpx>